<?xml version='1.0' encoding='UTF-8'?><gpx version="1.1" creator="JPX - https://github.com/jenetics/jpx" xmlns="http://www.topografix.com/GPX/1/1"><trk><trkseg><trkpt lat="45.6678088" lon="11.7196646"><ele>61.66666666666667</ele><time>2026-04-09T12:32:17.431Z</time></trkpt><trkpt lat="45.6677679" lon="11.7195813"><ele>61.333333333333336</ele><time>2026-04-09T12:32:19.451Z</time></trkpt><trkpt lat="45.6676644" lon="11.7195944"><ele>61.0</ele><time>2026-04-09T12:32:21.433Z</time></trkpt><trkpt lat="45.6675787" lon="11.7196642"><ele>60.66666666666667</ele><time>2026-04-09T12:32:23.437Z</time></trkpt><trkpt lat="45.6675513" lon="11.7197731"><ele>60.333333333333336</ele><time>2026-04-09T12:32:25.43Z</time></trkpt><trkpt lat="45.6674804" lon="11.7198294"><ele>60.0</ele><time>2026-04-09T12:32:27.437Z</time></trkpt><trkpt lat="45.667463" lon="11.719938"><ele>60.0</ele><time>2026-04-09T12:32:55.44Z</time></trkpt><trkpt lat="45.6674659" lon="11.7200602"><ele>60.0</ele><time>2026-04-09T12:32:57.437Z</time></trkpt><trkpt lat="45.6674762" lon="11.720162"><ele>60.0</ele><time>2026-04-09T12:32:58.439Z</time></trkpt><trkpt lat="45.6674905" lon="11.7202811"><ele>60.0</ele><time>2026-04-09T12:32:59.431Z</time></trkpt><trkpt lat="45.6675121" lon="11.7204148"><ele>60.0</ele><time>2026-04-09T12:33:00.445Z</time></trkpt><trkpt lat="45.6675386" lon="11.7205666"><ele>60.0</ele><time>2026-04-09T12:33:01.43Z</time></trkpt><trkpt lat="45.6675689" lon="11.7207293"><ele>60.0</ele><time>2026-04-09T12:33:02.43Z</time></trkpt><trkpt lat="45.6676008" lon="11.7209058"><ele>60.0</ele><time>2026-04-09T12:33:03.429Z</time></trkpt><trkpt lat="45.6676345" lon="11.7210943"><ele>60.0</ele><time>2026-04-09T12:33:04.432Z</time></trkpt><trkpt lat="45.6676698" lon="11.7212923"><ele>60.0</ele><time>2026-04-09T12:33:05.429Z</time></trkpt><trkpt lat="45.6677103" lon="11.7214934"><ele>60.0</ele><time>2026-04-09T12:33:06.437Z</time></trkpt><trkpt lat="45.6677513" lon="11.7217008"><ele>60.0</ele><time>2026-04-09T12:33:07.433Z</time></trkpt><trkpt lat="45.6678012" lon="11.7219178"><ele>60.0</ele><time>2026-04-09T12:33:08.429Z</time></trkpt><trkpt lat="45.6678499" lon="11.7221217"><ele>60.2</ele><time>2026-04-09T12:33:09.438Z</time></trkpt><trkpt lat="45.6678941" lon="11.7223067"><ele>60.4</ele><time>2026-04-09T12:33:10.433Z</time></trkpt><trkpt lat="45.6679328" lon="11.7224689"><ele>60.599999999999994</ele><time>2026-04-09T12:33:11.433Z</time></trkpt><trkpt lat="45.667968" lon="11.7226145"><ele>60.8</ele><time>2026-04-09T12:33:12.436Z</time></trkpt><trkpt lat="45.6679939" lon="11.722715"><ele>61.0</ele><time>2026-04-09T12:33:13.442Z</time></trkpt><trkpt lat="45.6680643" lon="11.7228186"><ele>61.0</ele><time>2026-04-09T12:33:15.433Z</time></trkpt><trkpt lat="45.6681841" lon="11.7228144"><ele>60.99999999999999</ele><time>2026-04-09T12:33:17.433Z</time></trkpt><trkpt lat="45.6682635" lon="11.7227945"><ele>60.99999999999999</ele><time>2026-04-09T12:33:18.437Z</time></trkpt><trkpt lat="45.6683532" lon="11.7227673"><ele>61.0</ele><time>2026-04-09T12:33:19.438Z</time></trkpt><trkpt lat="45.6684516" lon="11.7227403"><ele>61.0</ele><time>2026-04-09T12:33:20.429Z</time></trkpt><trkpt lat="45.6685555" lon="11.7227125"><ele>60.75</ele><time>2026-04-09T12:33:21.43Z</time></trkpt><trkpt lat="45.6686628" lon="11.7226841"><ele>60.5</ele><time>2026-04-09T12:33:22.431Z</time></trkpt><trkpt lat="45.6687756" lon="11.7226536"><ele>60.25</ele><time>2026-04-09T12:33:23.434Z</time></trkpt><trkpt lat="45.6688935" lon="11.7226317"><ele>60.0</ele><time>2026-04-09T12:33:24.429Z</time></trkpt><trkpt lat="45.6690172" lon="11.722597"><ele>60.0</ele><time>2026-04-09T12:33:25.433Z</time></trkpt><trkpt lat="45.6691465" lon="11.7225625"><ele>60.0</ele><time>2026-04-09T12:33:26.441Z</time></trkpt><trkpt lat="45.6692774" lon="11.7225274"><ele>60.0</ele><time>2026-04-09T12:33:27.429Z</time></trkpt><trkpt lat="45.6694129" lon="11.7224902"><ele>60.0</ele><time>2026-04-09T12:33:28.426Z</time></trkpt><trkpt lat="45.6695498" lon="11.7224418"><ele>60.25</ele><time>2026-04-09T12:33:29.437Z</time></trkpt><trkpt lat="45.6696873" lon="11.7223942"><ele>60.5</ele><time>2026-04-09T12:33:30.43Z</time></trkpt><trkpt lat="45.6698255" lon="11.7223512"><ele>60.75</ele><time>2026-04-09T12:33:31.429Z</time></trkpt><trkpt lat="45.6699638" lon="11.7223126"><ele>61.0</ele><time>2026-04-09T12:33:32.432Z</time></trkpt><trkpt lat="45.6701014" lon="11.7222729"><ele>61.0</ele><time>2026-04-09T12:33:33.432Z</time></trkpt><trkpt lat="45.6702381" lon="11.7222366"><ele>61.0</ele><time>2026-04-09T12:33:34.437Z</time></trkpt><trkpt lat="45.6703806" lon="11.7222001"><ele>61.0</ele><time>2026-04-09T12:33:35.425Z</time></trkpt><trkpt lat="45.67053" lon="11.7221617"><ele>61.0</ele><time>2026-04-09T12:33:36.432Z</time></trkpt><trkpt lat="45.670677" lon="11.722124"><ele>60.75</ele><time>2026-04-09T12:33:37.458Z</time></trkpt><trkpt lat="45.6708198" lon="11.7220872"><ele>60.5</ele><time>2026-04-09T12:33:38.433Z</time></trkpt><trkpt lat="45.6709603" lon="11.7220524"><ele>60.25</ele><time>2026-04-09T12:33:39.429Z</time></trkpt><trkpt lat="45.6710995" lon="11.7220188"><ele>60.0</ele><time>2026-04-09T12:33:40.433Z</time></trkpt><trkpt lat="45.6712426" lon="11.7219811"><ele>60.25</ele><time>2026-04-09T12:33:41.438Z</time></trkpt><trkpt lat="45.6713882" lon="11.7219425"><ele>60.5</ele><time>2026-04-09T12:33:42.432Z</time></trkpt><trkpt lat="45.6715324" lon="11.7219046"><ele>60.75</ele><time>2026-04-09T12:33:43.431Z</time></trkpt><trkpt lat="45.6716676" lon="11.7218738"><ele>61.0</ele><time>2026-04-09T12:33:44.432Z</time></trkpt><trkpt lat="45.6717955" lon="11.7218521"><ele>61.0</ele><time>2026-04-09T12:33:45.436Z</time></trkpt><trkpt lat="45.6719287" lon="11.7218322"><ele>61.0</ele><time>2026-04-09T12:33:46.43Z</time></trkpt><trkpt lat="45.672072" lon="11.7217996"><ele>61.0</ele><time>2026-04-09T12:33:47.432Z</time></trkpt><trkpt lat="45.6722224" lon="11.7217583"><ele>61.0</ele><time>2026-04-09T12:33:48.433Z</time></trkpt><trkpt lat="45.6723774" lon="11.7217155"><ele>61.0</ele><time>2026-04-09T12:33:49.433Z</time></trkpt><trkpt lat="45.6725347" lon="11.7216737"><ele>61.0</ele><time>2026-04-09T12:33:50.43Z</time></trkpt><trkpt lat="45.6726916" lon="11.7216309"><ele>61.0</ele><time>2026-04-09T12:33:51.432Z</time></trkpt><trkpt lat="45.6728503" lon="11.7215876"><ele>61.0</ele><time>2026-04-09T12:33:52.432Z</time></trkpt><trkpt lat="45.6730115" lon="11.7215463"><ele>61.0</ele><time>2026-04-09T12:33:53.433Z</time></trkpt><trkpt lat="45.6731732" lon="11.7215063"><ele>61.0</ele><time>2026-04-09T12:33:54.436Z</time></trkpt><trkpt lat="45.6733365" lon="11.7214651"><ele>61.0</ele><time>2026-04-09T12:33:55.438Z</time></trkpt><trkpt lat="45.6735001" lon="11.7214201"><ele>61.0</ele><time>2026-04-09T12:33:56.435Z</time></trkpt><trkpt lat="45.6736635" lon="11.7213717"><ele>61.0</ele><time>2026-04-09T12:33:57.43Z</time></trkpt><trkpt lat="45.6738275" lon="11.7213219"><ele>61.0</ele><time>2026-04-09T12:33:58.433Z</time></trkpt><trkpt lat="45.6739927" lon="11.7212701"><ele>61.0</ele><time>2026-04-09T12:33:59.435Z</time></trkpt><trkpt lat="45.6741581" lon="11.7212172"><ele>61.0</ele><time>2026-04-09T12:34:00.429Z</time></trkpt><trkpt lat="45.6743216" lon="11.7211693"><ele>61.33333333333333</ele><time>2026-04-09T12:34:01.433Z</time></trkpt><trkpt lat="45.6744835" lon="11.7211237"><ele>61.66666666666667</ele><time>2026-04-09T12:34:02.439Z</time></trkpt><trkpt lat="45.6746384" lon="11.7210832"><ele>62.0</ele><time>2026-04-09T12:34:03.434Z</time></trkpt><trkpt lat="45.67478" lon="11.7210477"><ele>62.25</ele><time>2026-04-09T12:34:04.434Z</time></trkpt><trkpt lat="45.6749035" lon="11.721017"><ele>62.5</ele><time>2026-04-09T12:34:05.434Z</time></trkpt><trkpt lat="45.6750208" lon="11.7210035"><ele>62.75</ele><time>2026-04-09T12:34:06.43Z</time></trkpt><trkpt lat="45.6751339" lon="11.7209775"><ele>63.0</ele><time>2026-04-09T12:34:07.433Z</time></trkpt><trkpt lat="45.6752395" lon="11.7209533"><ele>62.833333333333336</ele><time>2026-04-09T12:34:08.434Z</time></trkpt><trkpt lat="45.6753324" lon="11.7209321"><ele>62.66666666666667</ele><time>2026-04-09T12:34:09.433Z</time></trkpt><trkpt lat="45.6754143" lon="11.7209133"><ele>62.5</ele><time>2026-04-09T12:34:10.439Z</time></trkpt><trkpt lat="45.6754857" lon="11.7209058"><ele>62.333333333333336</ele><time>2026-04-09T12:34:11.432Z</time></trkpt><trkpt lat="45.6755764" lon="11.7209055"><ele>62.16666666666667</ele><time>2026-04-09T12:34:12.435Z</time></trkpt><trkpt lat="45.6756728" lon="11.7209073"><ele>62.0</ele><time>2026-04-09T12:34:13.431Z</time></trkpt><trkpt lat="45.675776" lon="11.7208897"><ele>62.0</ele><time>2026-04-09T12:34:14.434Z</time></trkpt><trkpt lat="45.6758946" lon="11.7208803"><ele>62.0</ele><time>2026-04-09T12:34:15.434Z</time></trkpt><trkpt lat="45.676011" lon="11.7208742"><ele>62.0</ele><time>2026-04-09T12:34:16.439Z</time></trkpt><trkpt lat="45.6761323" lon="11.7208606"><ele>62.0</ele><time>2026-04-09T12:34:17.435Z</time></trkpt><trkpt lat="45.6762594" lon="11.7208559"><ele>62.25</ele><time>2026-04-09T12:34:18.429Z</time></trkpt><trkpt lat="45.6763835" lon="11.7208437"><ele>62.5</ele><time>2026-04-09T12:34:19.437Z</time></trkpt><trkpt lat="45.6765082" lon="11.7208399"><ele>62.75</ele><time>2026-04-09T12:34:20.434Z</time></trkpt><trkpt lat="45.6766333" lon="11.720836"><ele>63.0</ele><time>2026-04-09T12:34:21.43Z</time></trkpt><trkpt lat="45.6767581" lon="11.7208259"><ele>63.0</ele><time>2026-04-09T12:34:22.431Z</time></trkpt><trkpt lat="45.6768814" lon="11.7208175"><ele>63.0</ele><time>2026-04-09T12:34:23.432Z</time></trkpt><trkpt lat="45.6770009" lon="11.7208076"><ele>63.0</ele><time>2026-04-09T12:34:24.439Z</time></trkpt><trkpt lat="45.677124" lon="11.7207971"><ele>63.0</ele><time>2026-04-09T12:34:25.43Z</time></trkpt><trkpt lat="45.6772422" lon="11.7207879"><ele>63.4</ele><time>2026-04-09T12:34:26.429Z</time></trkpt><trkpt lat="45.6773599" lon="11.7207785"><ele>63.8</ele><time>2026-04-09T12:34:27.434Z</time></trkpt><trkpt lat="45.6774721" lon="11.7207701"><ele>64.2</ele><time>2026-04-09T12:34:28.434Z</time></trkpt><trkpt lat="45.6775676" lon="11.7207609"><ele>64.6</ele><time>2026-04-09T12:34:29.429Z</time></trkpt><trkpt lat="45.6776513" lon="11.7207571"><ele>65.0</ele><time>2026-04-09T12:34:30.438Z</time></trkpt><trkpt lat="45.6777208" lon="11.7207572"><ele>65.16666666666667</ele><time>2026-04-09T12:34:31.432Z</time></trkpt><trkpt lat="45.6778004" lon="11.7207358"><ele>65.33333333333334</ele><time>2026-04-09T12:34:33.436Z</time></trkpt><trkpt lat="45.6778433" lon="11.7206052"><ele>65.5</ele><time>2026-04-09T12:34:36.435Z</time></trkpt><trkpt lat="45.6778614" lon="11.7204865"><ele>65.66666666666667</ele><time>2026-04-09T12:34:38.432Z</time></trkpt><trkpt lat="45.6779521" lon="11.7204473"><ele>65.83333333333333</ele><time>2026-04-09T12:34:40.435Z</time></trkpt><trkpt lat="45.6780348" lon="11.7204431"><ele>66.0</ele><time>2026-04-09T12:34:41.437Z</time></trkpt><trkpt lat="45.6781298" lon="11.7204357"><ele>66.0</ele><time>2026-04-09T12:34:42.43Z</time></trkpt><trkpt lat="45.678227" lon="11.7204281"><ele>66.0</ele><time>2026-04-09T12:34:43.429Z</time></trkpt><trkpt lat="45.6783158" lon="11.7204234"><ele>66.0</ele><time>2026-04-09T12:34:44.431Z</time></trkpt><trkpt lat="45.6784018" lon="11.7204202"><ele>66.0</ele><time>2026-04-09T12:34:45.431Z</time></trkpt><trkpt lat="45.6784717" lon="11.7204175"><ele>66.0</ele><time>2026-04-09T12:34:46.432Z</time></trkpt><trkpt lat="45.6785704" lon="11.72039"><ele>66.0</ele><time>2026-04-09T12:34:48.434Z</time></trkpt><trkpt lat="45.6786327" lon="11.7202996"><ele>66.39999999999999</ele><time>2026-04-09T12:34:50.432Z</time></trkpt><trkpt lat="45.6786572" lon="11.7201708"><ele>66.8</ele><time>2026-04-09T12:34:52.444Z</time></trkpt><trkpt lat="45.6786784" lon="11.7200154"><ele>67.19999999999999</ele><time>2026-04-09T12:34:54.427Z</time></trkpt><trkpt lat="45.6787098" lon="11.7199128"><ele>67.6</ele><time>2026-04-09T12:34:56.438Z</time></trkpt><trkpt lat="45.6788049" lon="11.7198782"><ele>68.0</ele><time>2026-04-09T12:34:58.435Z</time></trkpt><trkpt lat="45.6788778" lon="11.7198749"><ele>68.0</ele><time>2026-04-09T12:34:59.431Z</time></trkpt><trkpt lat="45.6789631" lon="11.719867"><ele>68.0</ele><time>2026-04-09T12:35:00.431Z</time></trkpt><trkpt lat="45.679054" lon="11.7198651"><ele>68.0</ele><time>2026-04-09T12:35:01.433Z</time></trkpt><trkpt lat="45.6791611" lon="11.7198551"><ele>68.0</ele><time>2026-04-09T12:35:02.433Z</time></trkpt><trkpt lat="45.679274" lon="11.719846"><ele>68.0</ele><time>2026-04-09T12:35:03.434Z</time></trkpt><trkpt lat="45.6793929" lon="11.7198374"><ele>67.5</ele><time>2026-04-09T12:35:04.426Z</time></trkpt><trkpt lat="45.6795141" lon="11.7198293"><ele>67.0</ele><time>2026-04-09T12:35:05.434Z</time></trkpt><trkpt lat="45.6796358" lon="11.7198162"><ele>66.5</ele><time>2026-04-09T12:35:06.433Z</time></trkpt><trkpt lat="45.6797638" lon="11.719802"><ele>66.0</ele><time>2026-04-09T12:35:07.435Z</time></trkpt><trkpt lat="45.679893" lon="11.7197873"><ele>66.0</ele><time>2026-04-09T12:35:08.433Z</time></trkpt><trkpt lat="45.6800249" lon="11.7197721"><ele>66.0</ele><time>2026-04-09T12:35:09.433Z</time></trkpt><trkpt lat="45.6801574" lon="11.719761"><ele>66.0</ele><time>2026-04-09T12:35:10.43Z</time></trkpt><trkpt lat="45.6802886" lon="11.7197487"><ele>66.0</ele><time>2026-04-09T12:35:11.431Z</time></trkpt><trkpt lat="45.6804139" lon="11.719737"><ele>66.0</ele><time>2026-04-09T12:35:12.433Z</time></trkpt><trkpt lat="45.6805285" lon="11.7197262"><ele>66.0</ele><time>2026-04-09T12:35:13.436Z</time></trkpt><trkpt lat="45.6806308" lon="11.7197161"><ele>66.0</ele><time>2026-04-09T12:35:14.434Z</time></trkpt><trkpt lat="45.6807147" lon="11.7197093"><ele>66.0</ele><time>2026-04-09T12:35:15.435Z</time></trkpt><trkpt lat="45.6807816" lon="11.7197053"><ele>66.0</ele><time>2026-04-09T12:35:16.43Z</time></trkpt><trkpt lat="45.6808687" lon="11.7197357"><ele>66.0</ele><time>2026-04-09T12:35:18.431Z</time></trkpt><trkpt lat="45.6809" lon="11.7198209"><ele>66.0</ele><time>2026-04-09T12:35:20.44Z</time></trkpt><trkpt lat="45.6808753" lon="11.7200228"><ele>66.0</ele><time>2026-04-09T12:35:22.435Z</time></trkpt><trkpt lat="45.6808535" lon="11.72016"><ele>66.0</ele><time>2026-04-09T12:35:23.442Z</time></trkpt><trkpt lat="45.6808277" lon="11.7203184"><ele>66.0</ele><time>2026-04-09T12:35:24.445Z</time></trkpt><trkpt lat="45.6808011" lon="11.7204808"><ele>66.0</ele><time>2026-04-09T12:35:25.442Z</time></trkpt><trkpt lat="45.6807807" lon="11.7206437"><ele>66.0</ele><time>2026-04-09T12:35:26.431Z</time></trkpt><trkpt lat="45.6807607" lon="11.7208023"><ele>66.0</ele><time>2026-04-09T12:35:27.437Z</time></trkpt><trkpt lat="45.6807396" lon="11.7209459"><ele>66.0</ele><time>2026-04-09T12:35:28.452Z</time></trkpt><trkpt lat="45.6807216" lon="11.7210793"><ele>66.0</ele><time>2026-04-09T12:35:29.437Z</time></trkpt><trkpt lat="45.6807046" lon="11.7212114"><ele>66.16666666666667</ele><time>2026-04-09T12:35:30.451Z</time></trkpt><trkpt lat="45.6806886" lon="11.721334"><ele>66.33333333333333</ele><time>2026-04-09T12:35:31.434Z</time></trkpt><trkpt lat="45.6806778" lon="11.7214421"><ele>66.5</ele><time>2026-04-09T12:35:32.442Z</time></trkpt><trkpt lat="45.6806668" lon="11.721544"><ele>66.66666666666666</ele><time>2026-04-09T12:35:33.441Z</time></trkpt><trkpt lat="45.6806546" lon="11.7216486"><ele>66.83333333333333</ele><time>2026-04-09T12:35:34.431Z</time></trkpt><trkpt lat="45.6806433" lon="11.7217575"><ele>67.0</ele><time>2026-04-09T12:35:35.442Z</time></trkpt><trkpt lat="45.680631" lon="11.7218637"><ele>67.0</ele><time>2026-04-09T12:35:36.442Z</time></trkpt><trkpt lat="45.6806121" lon="11.7219976"><ele>67.0</ele><time>2026-04-09T12:35:37.435Z</time></trkpt><trkpt lat="45.6805913" lon="11.7221374"><ele>67.0</ele><time>2026-04-09T12:35:38.447Z</time></trkpt><trkpt lat="45.6805707" lon="11.7222934"><ele>67.0</ele><time>2026-04-09T12:35:39.443Z</time></trkpt><trkpt lat="45.6805505" lon="11.7224574"><ele>67.0</ele><time>2026-04-09T12:35:40.439Z</time></trkpt><trkpt lat="45.6805239" lon="11.72262"><ele>67.25</ele><time>2026-04-09T12:35:41.446Z</time></trkpt><trkpt lat="45.6804981" lon="11.7227889"><ele>67.5</ele><time>2026-04-09T12:35:42.447Z</time></trkpt><trkpt lat="45.6804736" lon="11.7229594"><ele>67.75</ele><time>2026-04-09T12:35:43.447Z</time></trkpt><trkpt lat="45.6804467" lon="11.7231378"><ele>68.0</ele><time>2026-04-09T12:35:44.438Z</time></trkpt><trkpt lat="45.6804191" lon="11.723315"><ele>68.0</ele><time>2026-04-09T12:35:45.468Z</time></trkpt><trkpt lat="45.6803943" lon="11.7234859"><ele>68.0</ele><time>2026-04-09T12:35:46.439Z</time></trkpt><trkpt lat="45.6803688" lon="11.7236504"><ele>68.0</ele><time>2026-04-09T12:35:47.434Z</time></trkpt><trkpt lat="45.6803473" lon="11.7237961"><ele>68.0</ele><time>2026-04-09T12:35:48.45Z</time></trkpt><trkpt lat="45.6803315" lon="11.7239224"><ele>68.0</ele><time>2026-04-09T12:35:49.443Z</time></trkpt><trkpt lat="45.6803159" lon="11.7240315"><ele>68.0</ele><time>2026-04-09T12:35:50.439Z</time></trkpt><trkpt lat="45.6803027" lon="11.7241222"><ele>68.0</ele><time>2026-04-09T12:35:51.444Z</time></trkpt><trkpt lat="45.680296" lon="11.7242497"><ele>68.0</ele><time>2026-04-09T12:35:53.456Z</time></trkpt><trkpt lat="45.6803639" lon="11.7243252"><ele>68.0</ele><time>2026-04-09T12:35:55.458Z</time></trkpt><trkpt lat="45.6804453" lon="11.7243161"><ele>68.0</ele><time>2026-04-09T12:35:56.441Z</time></trkpt><trkpt lat="45.6805417" lon="11.7243175"><ele>68.0</ele><time>2026-04-09T12:35:57.443Z</time></trkpt><trkpt lat="45.6806624" lon="11.7243118"><ele>68.0</ele><time>2026-04-09T12:35:58.452Z</time></trkpt><trkpt lat="45.6807965" lon="11.7243097"><ele>68.0</ele><time>2026-04-09T12:35:59.46Z</time></trkpt><trkpt lat="45.6809425" lon="11.7243042"><ele>68.0</ele><time>2026-04-09T12:36:00.446Z</time></trkpt><trkpt lat="45.6810955" lon="11.7243022"><ele>68.0</ele><time>2026-04-09T12:36:01.442Z</time></trkpt><trkpt lat="45.6812499" lon="11.7243016"><ele>68.0</ele><time>2026-04-09T12:36:02.447Z</time></trkpt><trkpt lat="45.6814072" lon="11.724294"><ele>68.0</ele><time>2026-04-09T12:36:03.452Z</time></trkpt><trkpt lat="45.6815686" lon="11.7242919"><ele>68.0</ele><time>2026-04-09T12:36:04.449Z</time></trkpt><trkpt lat="45.6817261" lon="11.72429"><ele>68.0</ele><time>2026-04-09T12:36:05.438Z</time></trkpt><trkpt lat="45.6818686" lon="11.7242867"><ele>68.0</ele><time>2026-04-09T12:36:06.452Z</time></trkpt><trkpt lat="45.6820091" lon="11.7242758"><ele>68.0</ele><time>2026-04-09T12:36:07.445Z</time></trkpt><trkpt lat="45.6821459" lon="11.7242485"><ele>68.0</ele><time>2026-04-09T12:36:08.47Z</time></trkpt><trkpt lat="45.6822729" lon="11.7242188"><ele>68.2</ele><time>2026-04-09T12:36:09.448Z</time></trkpt><trkpt lat="45.682389" lon="11.7241955"><ele>68.4</ele><time>2026-04-09T12:36:10.442Z</time></trkpt><trkpt lat="45.6825002" lon="11.7241811"><ele>68.60000000000001</ele><time>2026-04-09T12:36:11.445Z</time></trkpt><trkpt lat="45.6825995" lon="11.72418"><ele>68.8</ele><time>2026-04-09T12:36:12.441Z</time></trkpt><trkpt lat="45.682683" lon="11.7241811"><ele>69.0</ele><time>2026-04-09T12:36:13.442Z</time></trkpt><trkpt lat="45.682784" lon="11.724194"><ele>69.0</ele><time>2026-04-09T12:36:15.442Z</time></trkpt><trkpt lat="45.6828318" lon="11.724275"><ele>69.0</ele><time>2026-04-09T12:36:18.456Z</time></trkpt><trkpt lat="45.6828171" lon="11.7244778"><ele>69.0</ele><time>2026-04-09T12:36:20.476Z</time></trkpt><trkpt lat="45.6827986" lon="11.7246335"><ele>69.0</ele><time>2026-04-09T12:36:21.444Z</time></trkpt><trkpt lat="45.6827799" lon="11.7248087"><ele>69.0</ele><time>2026-04-09T12:36:22.448Z</time></trkpt><trkpt lat="45.6827612" lon="11.724999"><ele>69.0</ele><time>2026-04-09T12:36:23.454Z</time></trkpt><trkpt lat="45.6827452" lon="11.7252051"><ele>69.0</ele><time>2026-04-09T12:36:24.458Z</time></trkpt><trkpt lat="45.6827333" lon="11.7254257"><ele>69.0</ele><time>2026-04-09T12:36:25.442Z</time></trkpt><trkpt lat="45.6827283" lon="11.7256583"><ele>69.33333333333333</ele><time>2026-04-09T12:36:26.439Z</time></trkpt><trkpt lat="45.6827297" lon="11.7258941"><ele>69.66666666666666</ele><time>2026-04-09T12:36:27.444Z</time></trkpt><trkpt lat="45.6827403" lon="11.7261325"><ele>70.0</ele><time>2026-04-09T12:36:28.445Z</time></trkpt><trkpt lat="45.6827581" lon="11.7263781"><ele>70.0</ele><time>2026-04-09T12:36:29.448Z</time></trkpt><trkpt lat="45.6827793" lon="11.7266295"><ele>70.0</ele><time>2026-04-09T12:36:30.439Z</time></trkpt><trkpt lat="45.6828129" lon="11.7268808"><ele>70.0</ele><time>2026-04-09T12:36:31.446Z</time></trkpt><trkpt lat="45.68285" lon="11.7271328"><ele>70.0</ele><time>2026-04-09T12:36:32.452Z</time></trkpt><trkpt lat="45.682886" lon="11.7273822"><ele>70.0</ele><time>2026-04-09T12:36:33.443Z</time></trkpt><trkpt lat="45.6829195" lon="11.727628"><ele>70.0</ele><time>2026-04-09T12:36:34.453Z</time></trkpt><trkpt lat="45.6829543" lon="11.7278572"><ele>70.0</ele><time>2026-04-09T12:36:35.44Z</time></trkpt><trkpt lat="45.6829854" lon="11.72807"><ele>70.0</ele><time>2026-04-09T12:36:36.439Z</time></trkpt><trkpt lat="45.6830086" lon="11.7282627"><ele>70.0</ele><time>2026-04-09T12:36:37.443Z</time></trkpt><trkpt lat="45.6830299" lon="11.7284209"><ele>70.0</ele><time>2026-04-09T12:36:38.448Z</time></trkpt><trkpt lat="45.6830459" lon="11.7285437"><ele>70.0</ele><time>2026-04-09T12:36:39.449Z</time></trkpt><trkpt lat="45.6830691" lon="11.7286368"><ele>70.0</ele><time>2026-04-09T12:36:40.44Z</time></trkpt><trkpt lat="45.6831756" lon="11.7287328"><ele>70.0</ele><time>2026-04-09T12:36:42.447Z</time></trkpt><trkpt lat="45.6832654" lon="11.7287434"><ele>70.0</ele><time>2026-04-09T12:36:43.442Z</time></trkpt><trkpt lat="45.6833805" lon="11.7287539"><ele>70.0</ele><time>2026-04-09T12:36:44.444Z</time></trkpt><trkpt lat="45.6835093" lon="11.7287689"><ele>70.0</ele><time>2026-04-09T12:36:45.445Z</time></trkpt><trkpt lat="45.683653" lon="11.7287876"><ele>70.0</ele><time>2026-04-09T12:36:46.466Z</time></trkpt><trkpt lat="45.6838089" lon="11.7288118"><ele>70.0</ele><time>2026-04-09T12:36:47.443Z</time></trkpt><trkpt lat="45.6839739" lon="11.7288356"><ele>70.0</ele><time>2026-04-09T12:36:48.441Z</time></trkpt><trkpt lat="45.6841465" lon="11.7288588"><ele>70.0</ele><time>2026-04-09T12:36:49.447Z</time></trkpt><trkpt lat="45.6843235" lon="11.7288836"><ele>70.0</ele><time>2026-04-09T12:36:50.448Z</time></trkpt><trkpt lat="45.6845038" lon="11.7289079"><ele>70.33333333333333</ele><time>2026-04-09T12:36:51.449Z</time></trkpt><trkpt lat="45.6846835" lon="11.7289318"><ele>70.66666666666667</ele><time>2026-04-09T12:36:52.438Z</time></trkpt><trkpt lat="45.6848502" lon="11.7289544"><ele>71.0</ele><time>2026-04-09T12:36:53.437Z</time></trkpt><trkpt lat="45.6850031" lon="11.7289757"><ele>71.0</ele><time>2026-04-09T12:36:54.44Z</time></trkpt><trkpt lat="45.6851419" lon="11.7289968"><ele>71.0</ele><time>2026-04-09T12:36:55.517Z</time></trkpt><trkpt lat="45.6852606" lon="11.7290142"><ele>71.0</ele><time>2026-04-09T12:36:56.441Z</time></trkpt><trkpt lat="45.685361" lon="11.7290279"><ele>71.0</ele><time>2026-04-09T12:36:57.444Z</time></trkpt><trkpt lat="45.6854429" lon="11.7290391"><ele>71.0</ele><time>2026-04-09T12:36:58.441Z</time></trkpt><trkpt lat="45.6855045" lon="11.7290615"><ele>70.75</ele><time>2026-04-09T12:36:59.447Z</time></trkpt><trkpt lat="45.6855774" lon="11.7292129"><ele>70.5</ele><time>2026-04-09T12:37:01.441Z</time></trkpt><trkpt lat="45.6855973" lon="11.7293449"><ele>70.25</ele><time>2026-04-09T12:37:02.442Z</time></trkpt><trkpt lat="45.6856172" lon="11.7294996"><ele>70.0</ele><time>2026-04-09T12:37:03.447Z</time></trkpt><trkpt lat="45.6856411" lon="11.7296729"><ele>70.0</ele><time>2026-04-09T12:37:04.44Z</time></trkpt><trkpt lat="45.6856637" lon="11.7298404"><ele>70.0</ele><time>2026-04-09T12:37:05.445Z</time></trkpt><trkpt lat="45.6856833" lon="11.7299879"><ele>70.0</ele><time>2026-04-09T12:37:06.442Z</time></trkpt><trkpt lat="45.685701" lon="11.7301163"><ele>70.0</ele><time>2026-04-09T12:37:07.444Z</time></trkpt><trkpt lat="45.6857164" lon="11.7302268"><ele>70.0</ele><time>2026-04-09T12:37:08.443Z</time></trkpt><trkpt lat="45.6857265" lon="11.7303168"><ele>70.16666666666666</ele><time>2026-04-09T12:37:09.449Z</time></trkpt><trkpt lat="45.6857345" lon="11.7304163"><ele>70.33333333333333</ele><time>2026-04-09T12:37:11.443Z</time></trkpt><trkpt lat="45.6858016" lon="11.7304931"><ele>70.5</ele><time>2026-04-09T12:37:14.443Z</time></trkpt><trkpt lat="45.6858702" lon="11.7304987"><ele>70.66666666666667</ele><time>2026-04-09T12:37:15.447Z</time></trkpt><trkpt lat="45.6859616" lon="11.7305046"><ele>70.83333333333334</ele><time>2026-04-09T12:37:16.443Z</time></trkpt><trkpt lat="45.6860741" lon="11.7304993"><ele>71.0</ele><time>2026-04-09T12:37:17.448Z</time></trkpt><trkpt lat="45.6862146" lon="11.7304932"><ele>71.0</ele><time>2026-04-09T12:37:18.453Z</time></trkpt><trkpt lat="45.6863718" lon="11.730494"><ele>71.0</ele><time>2026-04-09T12:37:19.494Z</time></trkpt><trkpt lat="45.6865458" lon="11.7304918"><ele>71.0</ele><time>2026-04-09T12:37:20.451Z</time></trkpt><trkpt lat="45.6867409" lon="11.7304865"><ele>70.66666666666667</ele><time>2026-04-09T12:37:21.443Z</time></trkpt><trkpt lat="45.6869469" lon="11.7304823"><ele>70.33333333333333</ele><time>2026-04-09T12:37:22.442Z</time></trkpt><trkpt lat="45.687168" lon="11.7304761"><ele>70.0</ele><time>2026-04-09T12:37:23.446Z</time></trkpt><trkpt lat="45.6873815" lon="11.7304721"><ele>70.0</ele><time>2026-04-09T12:37:24.447Z</time></trkpt><trkpt lat="45.6875886" lon="11.7304679"><ele>70.0</ele><time>2026-04-09T12:37:25.488Z</time></trkpt><trkpt lat="45.6877783" lon="11.7304653"><ele>70.0</ele><time>2026-04-09T12:37:26.446Z</time></trkpt><trkpt lat="45.6879579" lon="11.730457"><ele>70.33333333333333</ele><time>2026-04-09T12:37:27.496Z</time></trkpt><trkpt lat="45.6881279" lon="11.7304561"><ele>70.66666666666667</ele><time>2026-04-09T12:37:28.439Z</time></trkpt><trkpt lat="45.6882855" lon="11.7304647"><ele>71.0</ele><time>2026-04-09T12:37:29.449Z</time></trkpt><trkpt lat="45.6884465" lon="11.7304918"><ele>71.33333333333334</ele><time>2026-04-09T12:37:30.44Z</time></trkpt><trkpt lat="45.6885958" lon="11.7305467"><ele>71.66666666666667</ele><time>2026-04-09T12:37:31.453Z</time></trkpt><trkpt lat="45.6887294" lon="11.7306371"><ele>72.0</ele><time>2026-04-09T12:37:32.446Z</time></trkpt><trkpt lat="45.6888498" lon="11.7307778"><ele>72.0</ele><time>2026-04-09T12:37:33.445Z</time></trkpt><trkpt lat="45.6889432" lon="11.7309616"><ele>72.0</ele><time>2026-04-09T12:37:34.442Z</time></trkpt><trkpt lat="45.6890056" lon="11.7311725"><ele>72.0</ele><time>2026-04-09T12:37:35.44Z</time></trkpt><trkpt lat="45.689054" lon="11.7314018"><ele>72.0</ele><time>2026-04-09T12:37:36.439Z</time></trkpt><trkpt lat="45.6890968" lon="11.731641"><ele>72.0</ele><time>2026-04-09T12:37:37.452Z</time></trkpt><trkpt lat="45.6891381" lon="11.7318919"><ele>72.0</ele><time>2026-04-09T12:37:38.446Z</time></trkpt><trkpt lat="45.6891779" lon="11.7321193"><ele>72.0</ele><time>2026-04-09T12:37:39.44Z</time></trkpt><trkpt lat="45.6892163" lon="11.7323452"><ele>72.0</ele><time>2026-04-09T12:37:40.439Z</time></trkpt><trkpt lat="45.6892652" lon="11.7325505"><ele>72.0</ele><time>2026-04-09T12:37:41.449Z</time></trkpt><trkpt lat="45.6893302" lon="11.7327424"><ele>72.0</ele><time>2026-04-09T12:37:42.44Z</time></trkpt><trkpt lat="45.6894132" lon="11.7329129"><ele>72.0</ele><time>2026-04-09T12:37:43.45Z</time></trkpt><trkpt lat="45.689511" lon="11.7330554"><ele>72.0</ele><time>2026-04-09T12:37:44.455Z</time></trkpt><trkpt lat="45.6896236" lon="11.7331567"><ele>72.0</ele><time>2026-04-09T12:37:45.443Z</time></trkpt><trkpt lat="45.6897515" lon="11.7332156"><ele>72.33333333333333</ele><time>2026-04-09T12:37:46.45Z</time></trkpt><trkpt lat="45.6898926" lon="11.7332232"><ele>72.66666666666666</ele><time>2026-04-09T12:37:47.459Z</time></trkpt><trkpt lat="45.6900365" lon="11.7332164"><ele>73.0</ele><time>2026-04-09T12:37:48.455Z</time></trkpt><trkpt lat="45.6902001" lon="11.7331926"><ele>73.0</ele><time>2026-04-09T12:37:49.448Z</time></trkpt><trkpt lat="45.6903668" lon="11.7331715"><ele>73.0</ele><time>2026-04-09T12:37:50.442Z</time></trkpt><trkpt lat="45.6905454" lon="11.7331566"><ele>73.0</ele><time>2026-04-09T12:37:51.445Z</time></trkpt><trkpt lat="45.6907144" lon="11.7331355"><ele>73.0</ele><time>2026-04-09T12:37:52.453Z</time></trkpt><trkpt lat="45.690868" lon="11.7331183"><ele>73.0</ele><time>2026-04-09T12:37:53.442Z</time></trkpt><trkpt lat="45.6910069" lon="11.7331028"><ele>73.0</ele><time>2026-04-09T12:37:54.45Z</time></trkpt><trkpt lat="45.6911373" lon="11.7330897"><ele>73.0</ele><time>2026-04-09T12:37:55.46Z</time></trkpt><trkpt lat="45.6912502" lon="11.7330801"><ele>73.0</ele><time>2026-04-09T12:37:56.445Z</time></trkpt><trkpt lat="45.6913477" lon="11.7330714"><ele>73.0</ele><time>2026-04-09T12:37:57.442Z</time></trkpt><trkpt lat="45.6914287" lon="11.7330628"><ele>73.0</ele><time>2026-04-09T12:37:58.441Z</time></trkpt><trkpt lat="45.691525" lon="11.7330491"><ele>73.0</ele><time>2026-04-09T12:38:00.454Z</time></trkpt><trkpt lat="45.6916293" lon="11.7330225"><ele>73.0</ele><time>2026-04-09T12:38:25.452Z</time></trkpt><trkpt lat="45.6917344" lon="11.7329907"><ele>73.0</ele><time>2026-04-09T12:38:27.472Z</time></trkpt><trkpt lat="45.6918019" lon="11.7329649"><ele>73.0</ele><time>2026-04-09T12:38:28.45Z</time></trkpt><trkpt lat="45.6918701" lon="11.7329293"><ele>73.0</ele><time>2026-04-09T12:38:29.448Z</time></trkpt><trkpt lat="45.6919451" lon="11.7328887"><ele>73.0</ele><time>2026-04-09T12:38:30.442Z</time></trkpt><trkpt lat="45.6920293" lon="11.7328536"><ele>73.0</ele><time>2026-04-09T12:38:31.449Z</time></trkpt><trkpt lat="45.6921162" lon="11.7328227"><ele>73.0</ele><time>2026-04-09T12:38:32.447Z</time></trkpt><trkpt lat="45.692217" lon="11.7327979"><ele>73.75</ele><time>2026-04-09T12:38:33.446Z</time></trkpt><trkpt lat="45.6923214" lon="11.7327787"><ele>74.5</ele><time>2026-04-09T12:38:34.443Z</time></trkpt><trkpt lat="45.6924365" lon="11.7327603"><ele>75.25</ele><time>2026-04-09T12:38:35.442Z</time></trkpt><trkpt lat="45.6925571" lon="11.7327525"><ele>76.0</ele><time>2026-04-09T12:38:36.439Z</time></trkpt><trkpt lat="45.6926841" lon="11.7327328"><ele>75.75</ele><time>2026-04-09T12:38:37.443Z</time></trkpt><trkpt lat="45.6928149" lon="11.7327153"><ele>75.5</ele><time>2026-04-09T12:38:38.442Z</time></trkpt><trkpt lat="45.6929487" lon="11.7326965"><ele>75.25</ele><time>2026-04-09T12:38:39.446Z</time></trkpt><trkpt lat="45.6930862" lon="11.7326739"><ele>75.0</ele><time>2026-04-09T12:38:40.451Z</time></trkpt><trkpt lat="45.6932245" lon="11.7326493"><ele>75.0</ele><time>2026-04-09T12:38:41.449Z</time></trkpt><trkpt lat="45.693367" lon="11.7326296"><ele>75.0</ele><time>2026-04-09T12:38:42.449Z</time></trkpt><trkpt lat="45.6935153" lon="11.7326136"><ele>75.0</ele><time>2026-04-09T12:38:43.44Z</time></trkpt><trkpt lat="45.6936668" lon="11.7326026"><ele>75.0</ele><time>2026-04-09T12:38:44.446Z</time></trkpt><trkpt lat="45.6938187" lon="11.7325979"><ele>75.0</ele><time>2026-04-09T12:38:45.443Z</time></trkpt><trkpt lat="45.6939571" lon="11.7326"><ele>75.0</ele><time>2026-04-09T12:38:46.452Z</time></trkpt><trkpt lat="45.6940899" lon="11.7326041"><ele>75.0</ele><time>2026-04-09T12:38:47.442Z</time></trkpt><trkpt lat="45.6942255" lon="11.7326014"><ele>75.0</ele><time>2026-04-09T12:38:48.442Z</time></trkpt><trkpt lat="45.6943607" lon="11.7326071"><ele>75.25</ele><time>2026-04-09T12:38:49.45Z</time></trkpt><trkpt lat="45.6944862" lon="11.7326025"><ele>75.5</ele><time>2026-04-09T12:38:50.448Z</time></trkpt><trkpt lat="45.6946105" lon="11.7325975"><ele>75.75</ele><time>2026-04-09T12:38:51.454Z</time></trkpt><trkpt lat="45.6947275" lon="11.732583"><ele>76.0</ele><time>2026-04-09T12:38:52.447Z</time></trkpt><trkpt lat="45.6948417" lon="11.7325848"><ele>76.0</ele><time>2026-04-09T12:38:53.441Z</time></trkpt><trkpt lat="45.6949565" lon="11.7326161"><ele>76.0</ele><time>2026-04-09T12:38:54.445Z</time></trkpt><trkpt lat="45.6950685" lon="11.7326421"><ele>76.0</ele><time>2026-04-09T12:38:55.439Z</time></trkpt><trkpt lat="45.6951889" lon="11.7326572"><ele>76.0</ele><time>2026-04-09T12:38:56.447Z</time></trkpt><trkpt lat="45.6953246" lon="11.7326364"><ele>75.75</ele><time>2026-04-09T12:38:57.451Z</time></trkpt><trkpt lat="45.6954615" lon="11.7326326"><ele>75.5</ele><time>2026-04-09T12:38:58.441Z</time></trkpt><trkpt lat="45.6955924" lon="11.7326387"><ele>75.25</ele><time>2026-04-09T12:38:59.435Z</time></trkpt><trkpt lat="45.6957163" lon="11.732643"><ele>75.0</ele><time>2026-04-09T12:39:00.455Z</time></trkpt><trkpt lat="45.6958349" lon="11.7326467"><ele>75.0</ele><time>2026-04-09T12:39:01.479Z</time></trkpt><trkpt lat="45.6959547" lon="11.7326494"><ele>75.0</ele><time>2026-04-09T12:39:02.441Z</time></trkpt><trkpt lat="45.6960761" lon="11.7326528"><ele>75.0</ele><time>2026-04-09T12:39:03.443Z</time></trkpt><trkpt lat="45.6961961" lon="11.7326596"><ele>75.0</ele><time>2026-04-09T12:39:04.457Z</time></trkpt><trkpt lat="45.6963208" lon="11.7326645"><ele>75.25</ele><time>2026-04-09T12:39:05.451Z</time></trkpt><trkpt lat="45.6964476" lon="11.7326665"><ele>75.5</ele><time>2026-04-09T12:39:06.446Z</time></trkpt><trkpt lat="45.6965775" lon="11.7326681"><ele>75.75</ele><time>2026-04-09T12:39:07.443Z</time></trkpt><trkpt lat="45.6967063" lon="11.732671"><ele>76.0</ele><time>2026-04-09T12:39:08.46Z</time></trkpt><trkpt lat="45.6968379" lon="11.7326725"><ele>76.5</ele><time>2026-04-09T12:39:09.444Z</time></trkpt><trkpt lat="45.6969722" lon="11.7326723"><ele>77.0</ele><time>2026-04-09T12:39:10.44Z</time></trkpt><trkpt lat="45.6971114" lon="11.7326703"><ele>77.5</ele><time>2026-04-09T12:39:11.442Z</time></trkpt><trkpt lat="45.6972523" lon="11.7326673"><ele>78.0</ele><time>2026-04-09T12:39:12.452Z</time></trkpt><trkpt lat="45.697388" lon="11.7326651"><ele>78.0</ele><time>2026-04-09T12:39:13.448Z</time></trkpt><trkpt lat="45.6975189" lon="11.7326665"><ele>78.0</ele><time>2026-04-09T12:39:14.46Z</time></trkpt><trkpt lat="45.6976494" lon="11.7326672"><ele>78.0</ele><time>2026-04-09T12:39:15.443Z</time></trkpt><trkpt lat="45.6977796" lon="11.7326728"><ele>78.0</ele><time>2026-04-09T12:39:16.445Z</time></trkpt><trkpt lat="45.6979114" lon="11.7326835"><ele>78.0</ele><time>2026-04-09T12:39:17.44Z</time></trkpt><trkpt lat="45.6980413" lon="11.7326851"><ele>78.0</ele><time>2026-04-09T12:39:18.447Z</time></trkpt><trkpt lat="45.6981791" lon="11.7326967"><ele>78.0</ele><time>2026-04-09T12:39:19.464Z</time></trkpt><trkpt lat="45.6983186" lon="11.7327117"><ele>78.0</ele><time>2026-04-09T12:39:20.445Z</time></trkpt><trkpt lat="45.698464" lon="11.7327381"><ele>78.25</ele><time>2026-04-09T12:39:21.448Z</time></trkpt><trkpt lat="45.6986103" lon="11.7327592"><ele>78.5</ele><time>2026-04-09T12:39:22.46Z</time></trkpt><trkpt lat="45.6987603" lon="11.7327849"><ele>78.75</ele><time>2026-04-09T12:39:23.45Z</time></trkpt><trkpt lat="45.698905" lon="11.7328104"><ele>79.0</ele><time>2026-04-09T12:39:24.449Z</time></trkpt><trkpt lat="45.6990507" lon="11.7328267"><ele>79.0</ele><time>2026-04-09T12:39:25.444Z</time></trkpt><trkpt lat="45.6991935" lon="11.7328515"><ele>79.0</ele><time>2026-04-09T12:39:26.497Z</time></trkpt><trkpt lat="45.6993351" lon="11.732875"><ele>79.0</ele><time>2026-04-09T12:39:27.48Z</time></trkpt><trkpt lat="45.6994762" lon="11.7328986"><ele>79.0</ele><time>2026-04-09T12:39:28.448Z</time></trkpt><trkpt lat="45.6996025" lon="11.7329196"><ele>79.0</ele><time>2026-04-09T12:39:29.443Z</time></trkpt><trkpt lat="45.6997262" lon="11.7329397"><ele>79.0</ele><time>2026-04-09T12:39:30.449Z</time></trkpt><trkpt lat="45.699855" lon="11.7329571"><ele>79.0</ele><time>2026-04-09T12:39:31.455Z</time></trkpt><trkpt lat="45.6999794" lon="11.7329807"><ele>79.0</ele><time>2026-04-09T12:39:32.45Z</time></trkpt><trkpt lat="45.7001017" lon="11.733004"><ele>79.0</ele><time>2026-04-09T12:39:33.44Z</time></trkpt><trkpt lat="45.7002278" lon="11.7330232"><ele>79.0</ele><time>2026-04-09T12:39:34.444Z</time></trkpt><trkpt lat="45.7003554" lon="11.7330408"><ele>79.0</ele><time>2026-04-09T12:39:35.452Z</time></trkpt><trkpt lat="45.700488" lon="11.7330636"><ele>79.0</ele><time>2026-04-09T12:39:36.454Z</time></trkpt><trkpt lat="45.7006251" lon="11.7330829"><ele>78.75</ele><time>2026-04-09T12:39:37.434Z</time></trkpt><trkpt lat="45.7007636" lon="11.7330953"><ele>78.5</ele><time>2026-04-09T12:39:38.448Z</time></trkpt><trkpt lat="45.7008997" lon="11.7331022"><ele>78.25</ele><time>2026-04-09T12:39:39.438Z</time></trkpt><trkpt lat="45.7010349" lon="11.7331041"><ele>78.0</ele><time>2026-04-09T12:39:40.44Z</time></trkpt><trkpt lat="45.7011687" lon="11.7331027"><ele>77.75</ele><time>2026-04-09T12:39:41.449Z</time></trkpt><trkpt lat="45.7013011" lon="11.7330999"><ele>77.5</ele><time>2026-04-09T12:39:42.441Z</time></trkpt><trkpt lat="45.7014207" lon="11.7330959"><ele>77.25</ele><time>2026-04-09T12:39:43.445Z</time></trkpt><trkpt lat="45.7015292" lon="11.7330917"><ele>77.0</ele><time>2026-04-09T12:39:44.444Z</time></trkpt><trkpt lat="45.7016271" lon="11.7330865"><ele>77.0</ele><time>2026-04-09T12:39:45.445Z</time></trkpt><trkpt lat="45.7017148" lon="11.7330832"><ele>77.0</ele><time>2026-04-09T12:39:46.443Z</time></trkpt><trkpt lat="45.7018093" lon="11.7330789"><ele>77.0</ele><time>2026-04-09T12:39:47.443Z</time></trkpt><trkpt lat="45.7019104" lon="11.7330783"><ele>77.0</ele><time>2026-04-09T12:39:48.442Z</time></trkpt><trkpt lat="45.7020225" lon="11.7330759"><ele>77.0</ele><time>2026-04-09T12:39:49.438Z</time></trkpt><trkpt lat="45.7021487" lon="11.7330637"><ele>77.25</ele><time>2026-04-09T12:39:50.445Z</time></trkpt><trkpt lat="45.7022751" lon="11.7330494"><ele>77.5</ele><time>2026-04-09T12:39:51.526Z</time></trkpt><trkpt lat="45.7024045" lon="11.7330353"><ele>77.75</ele><time>2026-04-09T12:39:52.442Z</time></trkpt><trkpt lat="45.7025395" lon="11.7330218"><ele>78.0</ele><time>2026-04-09T12:39:53.483Z</time></trkpt><trkpt lat="45.7026792" lon="11.7330094"><ele>78.33333333333333</ele><time>2026-04-09T12:39:54.45Z</time></trkpt><trkpt lat="45.7028257" lon="11.7329962"><ele>78.66666666666666</ele><time>2026-04-09T12:39:55.462Z</time></trkpt><trkpt lat="45.7029843" lon="11.7329818"><ele>79.0</ele><time>2026-04-09T12:39:56.45Z</time></trkpt><trkpt lat="45.7031529" lon="11.7329645"><ele>79.0</ele><time>2026-04-09T12:39:57.484Z</time></trkpt><trkpt lat="45.7033168" lon="11.732948"><ele>79.0</ele><time>2026-04-09T12:39:58.448Z</time></trkpt><trkpt lat="45.7034796" lon="11.7329312"><ele>79.0</ele><time>2026-04-09T12:39:59.448Z</time></trkpt><trkpt lat="45.7036456" lon="11.7329149"><ele>79.33333333333333</ele><time>2026-04-09T12:40:00.447Z</time></trkpt><trkpt lat="45.7038147" lon="11.7328979"><ele>79.66666666666667</ele><time>2026-04-09T12:40:01.442Z</time></trkpt><trkpt lat="45.7039752" lon="11.732882"><ele>80.0</ele><time>2026-04-09T12:40:02.449Z</time></trkpt><trkpt lat="45.7041257" lon="11.7328666"><ele>80.0</ele><time>2026-04-09T12:40:03.538Z</time></trkpt><trkpt lat="45.7042734" lon="11.732851"><ele>80.0</ele><time>2026-04-09T12:40:04.441Z</time></trkpt><trkpt lat="45.70442" lon="11.7328346"><ele>80.0</ele><time>2026-04-09T12:40:05.442Z</time></trkpt><trkpt lat="45.7045633" lon="11.7328154"><ele>80.0</ele><time>2026-04-09T12:40:06.444Z</time></trkpt><trkpt lat="45.7046988" lon="11.7327942"><ele>80.0</ele><time>2026-04-09T12:40:07.443Z</time></trkpt><trkpt lat="45.7048353" lon="11.7327667"><ele>80.0</ele><time>2026-04-09T12:40:08.439Z</time></trkpt><trkpt lat="45.7049747" lon="11.732731"><ele>80.0</ele><time>2026-04-09T12:40:09.446Z</time></trkpt><trkpt lat="45.7051129" lon="11.7326916"><ele>80.0</ele><time>2026-04-09T12:40:10.448Z</time></trkpt><trkpt lat="45.7052494" lon="11.7326503"><ele>80.25</ele><time>2026-04-09T12:40:11.442Z</time></trkpt><trkpt lat="45.7053831" lon="11.7326096"><ele>80.5</ele><time>2026-04-09T12:40:12.443Z</time></trkpt><trkpt lat="45.7055054" lon="11.7325729"><ele>80.75</ele><time>2026-04-09T12:40:13.446Z</time></trkpt><trkpt lat="45.7056168" lon="11.7325404"><ele>81.0</ele><time>2026-04-09T12:40:14.442Z</time></trkpt><trkpt lat="45.7057169" lon="11.7325094"><ele>81.0</ele><time>2026-04-09T12:40:15.458Z</time></trkpt><trkpt lat="45.7058074" lon="11.7324832"><ele>81.0</ele><time>2026-04-09T12:40:16.456Z</time></trkpt><trkpt lat="45.7058934" lon="11.7324582"><ele>81.0</ele><time>2026-04-09T12:40:17.457Z</time></trkpt><trkpt lat="45.7059816" lon="11.7324327"><ele>81.0</ele><time>2026-04-09T12:40:18.446Z</time></trkpt><trkpt lat="45.7060614" lon="11.7324088"><ele>81.0</ele><time>2026-04-09T12:40:19.459Z</time></trkpt><trkpt lat="45.7061324" lon="11.732386"><ele>81.0</ele><time>2026-04-09T12:40:20.454Z</time></trkpt><trkpt lat="45.7061954" lon="11.7323662"><ele>81.16666666666667</ele><time>2026-04-09T12:40:21.45Z</time></trkpt><trkpt lat="45.7063072" lon="11.7323324"><ele>81.33333333333333</ele><time>2026-04-09T12:40:23.45Z</time></trkpt><trkpt lat="45.7064205" lon="11.7323033"><ele>81.5</ele><time>2026-04-09T12:40:25.442Z</time></trkpt><trkpt lat="45.7064857" lon="11.732288"><ele>81.66666666666666</ele><time>2026-04-09T12:40:26.46Z</time></trkpt><trkpt lat="45.7065538" lon="11.7322708"><ele>81.83333333333333</ele><time>2026-04-09T12:40:27.457Z</time></trkpt><trkpt lat="45.7066241" lon="11.7322536"><ele>82.0</ele><time>2026-04-09T12:40:28.455Z</time></trkpt><trkpt lat="45.7066997" lon="11.7322374"><ele>81.99999999999999</ele><time>2026-04-09T12:40:29.439Z</time></trkpt><trkpt lat="45.7067789" lon="11.7322216"><ele>82.0</ele><time>2026-04-09T12:40:30.446Z</time></trkpt><trkpt lat="45.7068514" lon="11.7322077"><ele>82.0</ele><time>2026-04-09T12:40:31.447Z</time></trkpt><trkpt lat="45.706915" lon="11.7321952"><ele>82.0</ele><time>2026-04-09T12:40:32.518Z</time></trkpt><trkpt lat="45.7069826" lon="11.7321826"><ele>82.0</ele><time>2026-04-09T12:40:33.443Z</time></trkpt><trkpt lat="45.7070546" lon="11.7321714"><ele>81.99999999999999</ele><time>2026-04-09T12:40:34.506Z</time></trkpt><trkpt lat="45.7071249" lon="11.7321608"><ele>82.0</ele><time>2026-04-09T12:40:35.44Z</time></trkpt><trkpt lat="45.7071912" lon="11.7321444"><ele>82.16666666666666</ele><time>2026-04-09T12:40:36.449Z</time></trkpt><trkpt lat="45.7072582" lon="11.7321374"><ele>82.33333333333333</ele><time>2026-04-09T12:40:37.444Z</time></trkpt><trkpt lat="45.7073286" lon="11.7321234"><ele>82.5</ele><time>2026-04-09T12:40:38.449Z</time></trkpt><trkpt lat="45.7073965" lon="11.7321108"><ele>82.66666666666667</ele><time>2026-04-09T12:40:39.454Z</time></trkpt><trkpt lat="45.7074598" lon="11.7321008"><ele>82.83333333333334</ele><time>2026-04-09T12:40:40.459Z</time></trkpt><trkpt lat="45.7075844" lon="11.7320759"><ele>83.0</ele><time>2026-04-09T12:40:42.445Z</time></trkpt><trkpt lat="45.7076495" lon="11.7320583"><ele>83.2</ele><time>2026-04-09T12:40:43.439Z</time></trkpt><trkpt lat="45.7077592" lon="11.7320181"><ele>83.4</ele><time>2026-04-09T12:40:45.458Z</time></trkpt><trkpt lat="45.7078749" lon="11.7319811"><ele>83.60000000000001</ele><time>2026-04-09T12:40:47.439Z</time></trkpt><trkpt lat="45.7079399" lon="11.7319629"><ele>83.80000000000001</ele><time>2026-04-09T12:40:48.442Z</time></trkpt><trkpt lat="45.7080076" lon="11.7319467"><ele>84.0</ele><time>2026-04-09T12:40:49.448Z</time></trkpt><trkpt lat="45.708131" lon="11.7319271"><ele>84.0</ele><time>2026-04-09T12:40:51.442Z</time></trkpt><trkpt lat="45.7081973" lon="11.7319192"><ele>84.0</ele><time>2026-04-09T12:40:52.451Z</time></trkpt><trkpt lat="45.7082684" lon="11.7319124"><ele>84.0</ele><time>2026-04-09T12:40:53.443Z</time></trkpt><trkpt lat="45.7083318" lon="11.7319079"><ele>84.0</ele><time>2026-04-09T12:40:54.448Z</time></trkpt><trkpt lat="45.70844" lon="11.7318955"><ele>84.0</ele><time>2026-04-09T12:40:56.45Z</time></trkpt><trkpt lat="45.708543" lon="11.7318802"><ele>84.0</ele><time>2026-04-09T12:40:58.442Z</time></trkpt><trkpt lat="45.7086726" lon="11.7318592"><ele>84.0</ele><time>2026-04-09T12:41:00.45Z</time></trkpt><trkpt lat="45.7087442" lon="11.7318467"><ele>84.0</ele><time>2026-04-09T12:41:01.448Z</time></trkpt><trkpt lat="45.7088088" lon="11.7318362"><ele>84.0</ele><time>2026-04-09T12:41:02.442Z</time></trkpt><trkpt lat="45.7089351" lon="11.7318184"><ele>84.0</ele><time>2026-04-09T12:41:04.445Z</time></trkpt><trkpt lat="45.7089995" lon="11.7318099"><ele>84.0</ele><time>2026-04-09T12:41:05.459Z</time></trkpt><trkpt lat="45.7090633" lon="11.7318007"><ele>84.0</ele><time>2026-04-09T12:41:06.446Z</time></trkpt><trkpt lat="45.7091859" lon="11.7317884"><ele>84.0</ele><time>2026-04-09T12:41:08.449Z</time></trkpt><trkpt lat="45.7092491" lon="11.7317831"><ele>84.0</ele><time>2026-04-09T12:41:09.442Z</time></trkpt><trkpt lat="45.7093132" lon="11.7317778"><ele>84.0</ele><time>2026-04-09T12:41:10.444Z</time></trkpt><trkpt lat="45.7093805" lon="11.7317717"><ele>84.0</ele><time>2026-04-09T12:41:11.476Z</time></trkpt><trkpt lat="45.7094507" lon="11.7317704"><ele>84.0</ele><time>2026-04-09T12:41:12.453Z</time></trkpt><trkpt lat="45.7095332" lon="11.7317599"><ele>84.0</ele><time>2026-04-09T12:41:13.446Z</time></trkpt><trkpt lat="45.7096253" lon="11.7317435"><ele>84.0</ele><time>2026-04-09T12:41:14.436Z</time></trkpt><trkpt lat="45.7097233" lon="11.7317392"><ele>84.33333333333333</ele><time>2026-04-09T12:41:15.456Z</time></trkpt><trkpt lat="45.7098175" lon="11.7317325"><ele>84.66666666666667</ele><time>2026-04-09T12:41:16.449Z</time></trkpt><trkpt lat="45.7099099" lon="11.7317272"><ele>85.0</ele><time>2026-04-09T12:41:17.448Z</time></trkpt><trkpt lat="45.7099901" lon="11.7317251"><ele>85.33333333333334</ele><time>2026-04-09T12:41:18.444Z</time></trkpt><trkpt lat="45.7100692" lon="11.7317229"><ele>85.66666666666667</ele><time>2026-04-09T12:41:19.445Z</time></trkpt><trkpt lat="45.7101486" lon="11.7317168"><ele>86.0</ele><time>2026-04-09T12:41:20.44Z</time></trkpt><trkpt lat="45.7102291" lon="11.7317078"><ele>85.85714285714286</ele><time>2026-04-09T12:41:21.449Z</time></trkpt><trkpt lat="45.7103032" lon="11.7317128"><ele>85.71428571428572</ele><time>2026-04-09T12:41:22.443Z</time></trkpt><trkpt lat="45.7103747" lon="11.7317098"><ele>85.57142857142858</ele><time>2026-04-09T12:41:23.49Z</time></trkpt><trkpt lat="45.7104449" lon="11.7317089"><ele>85.42857142857143</ele><time>2026-04-09T12:41:24.452Z</time></trkpt><trkpt lat="45.7105146" lon="11.7317098"><ele>85.28571428571428</ele><time>2026-04-09T12:41:25.458Z</time></trkpt><trkpt lat="45.7105806" lon="11.7317098"><ele>85.14285714285715</ele><time>2026-04-09T12:41:26.451Z</time></trkpt><trkpt lat="45.7106631" lon="11.731703"><ele>85.0</ele><time>2026-04-09T12:41:27.446Z</time></trkpt><trkpt lat="45.7107427" lon="11.7316947"><ele>85.0</ele><time>2026-04-09T12:41:28.47Z</time></trkpt><trkpt lat="45.7108302" lon="11.7316888"><ele>85.0</ele><time>2026-04-09T12:41:29.439Z</time></trkpt><trkpt lat="45.7109184" lon="11.7316779"><ele>85.0</ele><time>2026-04-09T12:41:30.445Z</time></trkpt><trkpt lat="45.71102" lon="11.7316733"><ele>85.0</ele><time>2026-04-09T12:41:31.446Z</time></trkpt><trkpt lat="45.7111196" lon="11.7316678"><ele>85.0</ele><time>2026-04-09T12:41:32.441Z</time></trkpt><trkpt lat="45.7112264" lon="11.7316573"><ele>85.0</ele><time>2026-04-09T12:41:33.442Z</time></trkpt><trkpt lat="45.7113319" lon="11.731649"><ele>85.0</ele><time>2026-04-09T12:41:34.438Z</time></trkpt><trkpt lat="45.7114297" lon="11.7316439"><ele>85.0</ele><time>2026-04-09T12:41:35.444Z</time></trkpt><trkpt lat="45.7115328" lon="11.7316354"><ele>85.0</ele><time>2026-04-09T12:41:36.442Z</time></trkpt><trkpt lat="45.7116374" lon="11.7316288"><ele>85.0</ele><time>2026-04-09T12:41:37.439Z</time></trkpt><trkpt lat="45.7117457" lon="11.7316203"><ele>85.0</ele><time>2026-04-09T12:41:38.444Z</time></trkpt><trkpt lat="45.7118583" lon="11.7316108"><ele>85.0</ele><time>2026-04-09T12:41:39.45Z</time></trkpt><trkpt lat="45.7119635" lon="11.7316026"><ele>85.0</ele><time>2026-04-09T12:41:40.442Z</time></trkpt><trkpt lat="45.7120577" lon="11.7315968"><ele>85.0</ele><time>2026-04-09T12:41:41.447Z</time></trkpt><trkpt lat="45.7121342" lon="11.7315955"><ele>85.0</ele><time>2026-04-09T12:41:42.445Z</time></trkpt><trkpt lat="45.7122224" lon="11.7315919"><ele>85.4</ele><time>2026-04-09T12:41:44.438Z</time></trkpt><trkpt lat="45.7123392" lon="11.7315839"><ele>85.8</ele><time>2026-04-09T12:41:49.439Z</time></trkpt><trkpt lat="45.7124325" lon="11.7315754"><ele>86.19999999999999</ele><time>2026-04-09T12:41:51.467Z</time></trkpt><trkpt lat="45.7125448" lon="11.7315669"><ele>86.6</ele><time>2026-04-09T12:41:53.445Z</time></trkpt><trkpt lat="45.7126174" lon="11.7315619"><ele>87.0</ele><time>2026-04-09T12:41:54.457Z</time></trkpt><trkpt lat="45.712699" lon="11.7315569"><ele>87.16666666666667</ele><time>2026-04-09T12:41:55.443Z</time></trkpt><trkpt lat="45.7127878" lon="11.7315548"><ele>87.33333333333333</ele><time>2026-04-09T12:41:56.448Z</time></trkpt><trkpt lat="45.712875" lon="11.7315576"><ele>87.5</ele><time>2026-04-09T12:41:57.443Z</time></trkpt><trkpt lat="45.7129642" lon="11.7315678"><ele>87.66666666666666</ele><time>2026-04-09T12:41:58.464Z</time></trkpt><trkpt lat="45.7130512" lon="11.7315873"><ele>87.83333333333333</ele><time>2026-04-09T12:41:59.444Z</time></trkpt><trkpt lat="45.7131279" lon="11.7316039"><ele>88.0</ele><time>2026-04-09T12:42:00.447Z</time></trkpt><trkpt lat="45.7132073" lon="11.7316247"><ele>88.0</ele><time>2026-04-09T12:42:01.437Z</time></trkpt><trkpt lat="45.7132959" lon="11.7316451"><ele>88.0</ele><time>2026-04-09T12:42:02.447Z</time></trkpt><trkpt lat="45.7133944" lon="11.7316671"><ele>88.0</ele><time>2026-04-09T12:42:03.457Z</time></trkpt><trkpt lat="45.7134944" lon="11.731688"><ele>88.0</ele><time>2026-04-09T12:42:04.444Z</time></trkpt><trkpt lat="45.7135983" lon="11.7317095"><ele>88.0</ele><time>2026-04-09T12:42:05.442Z</time></trkpt><trkpt lat="45.7137033" lon="11.7317313"><ele>87.75</ele><time>2026-04-09T12:42:06.45Z</time></trkpt><trkpt lat="45.713812" lon="11.7317544"><ele>87.5</ele><time>2026-04-09T12:42:07.438Z</time></trkpt><trkpt lat="45.7139251" lon="11.7317806"><ele>87.25</ele><time>2026-04-09T12:42:08.452Z</time></trkpt><trkpt lat="45.7140372" lon="11.7318084"><ele>87.0</ele><time>2026-04-09T12:42:09.441Z</time></trkpt><trkpt lat="45.7141487" lon="11.7318376"><ele>87.0</ele><time>2026-04-09T12:42:10.451Z</time></trkpt><trkpt lat="45.7142616" lon="11.7318717"><ele>87.0</ele><time>2026-04-09T12:42:11.452Z</time></trkpt><trkpt lat="45.7143771" lon="11.7319077"><ele>87.0</ele><time>2026-04-09T12:42:12.441Z</time></trkpt><trkpt lat="45.7144961" lon="11.731945"><ele>87.0</ele><time>2026-04-09T12:42:13.452Z</time></trkpt><trkpt lat="45.7146149" lon="11.7319806"><ele>87.25</ele><time>2026-04-09T12:42:14.439Z</time></trkpt><trkpt lat="45.7147346" lon="11.7320169"><ele>87.5</ele><time>2026-04-09T12:42:15.442Z</time></trkpt><trkpt lat="45.7148541" lon="11.7320534"><ele>87.75</ele><time>2026-04-09T12:42:16.448Z</time></trkpt><trkpt lat="45.7149745" lon="11.7320905"><ele>88.0</ele><time>2026-04-09T12:42:17.449Z</time></trkpt><trkpt lat="45.7150947" lon="11.7321267"><ele>88.0</ele><time>2026-04-09T12:42:18.439Z</time></trkpt><trkpt lat="45.715216" lon="11.7321624"><ele>88.0</ele><time>2026-04-09T12:42:19.445Z</time></trkpt><trkpt lat="45.7153379" lon="11.7321973"><ele>88.0</ele><time>2026-04-09T12:42:20.44Z</time></trkpt><trkpt lat="45.7154657" lon="11.7322332"><ele>88.0</ele><time>2026-04-09T12:42:21.452Z</time></trkpt><trkpt lat="45.7155988" lon="11.7322711"><ele>88.25</ele><time>2026-04-09T12:42:22.436Z</time></trkpt><trkpt lat="45.7157311" lon="11.7323083"><ele>88.5</ele><time>2026-04-09T12:42:23.437Z</time></trkpt><trkpt lat="45.7158638" lon="11.732346"><ele>88.75</ele><time>2026-04-09T12:42:24.452Z</time></trkpt><trkpt lat="45.7159992" lon="11.7323863"><ele>89.0</ele><time>2026-04-09T12:42:25.453Z</time></trkpt><trkpt lat="45.7161386" lon="11.7324271"><ele>89.0</ele><time>2026-04-09T12:42:26.447Z</time></trkpt><trkpt lat="45.7162821" lon="11.7324687"><ele>89.0</ele><time>2026-04-09T12:42:27.454Z</time></trkpt><trkpt lat="45.7164262" lon="11.7325102"><ele>89.0</ele><time>2026-04-09T12:42:28.443Z</time></trkpt><trkpt lat="45.7165692" lon="11.7325522"><ele>89.0</ele><time>2026-04-09T12:42:29.437Z</time></trkpt><trkpt lat="45.7167112" lon="11.7325924"><ele>89.0</ele><time>2026-04-09T12:42:30.437Z</time></trkpt><trkpt lat="45.7168546" lon="11.7326325"><ele>89.0</ele><time>2026-04-09T12:42:31.456Z</time></trkpt><trkpt lat="45.7169989" lon="11.732669"><ele>89.0</ele><time>2026-04-09T12:42:32.444Z</time></trkpt><trkpt lat="45.7171403" lon="11.7327002"><ele>89.0</ele><time>2026-04-09T12:42:33.443Z</time></trkpt><trkpt lat="45.7172712" lon="11.732722"><ele>89.25</ele><time>2026-04-09T12:42:34.44Z</time></trkpt><trkpt lat="45.7173949" lon="11.7327353"><ele>89.5</ele><time>2026-04-09T12:42:35.447Z</time></trkpt><trkpt lat="45.7175202" lon="11.7327439"><ele>89.75</ele><time>2026-04-09T12:42:36.44Z</time></trkpt><trkpt lat="45.717643" lon="11.7327473"><ele>90.0</ele><time>2026-04-09T12:42:37.446Z</time></trkpt><trkpt lat="45.7177641" lon="11.7327485"><ele>90.0</ele><time>2026-04-09T12:42:38.442Z</time></trkpt><trkpt lat="45.7178766" lon="11.7327423"><ele>90.0</ele><time>2026-04-09T12:42:39.44Z</time></trkpt><trkpt lat="45.7179886" lon="11.7327405"><ele>90.0</ele><time>2026-04-09T12:42:40.439Z</time></trkpt><trkpt lat="45.7181014" lon="11.7327401"><ele>90.0</ele><time>2026-04-09T12:42:41.437Z</time></trkpt><trkpt lat="45.7182156" lon="11.7327408"><ele>90.0</ele><time>2026-04-09T12:42:42.443Z</time></trkpt><trkpt lat="45.7183307" lon="11.7327444"><ele>90.0</ele><time>2026-04-09T12:42:43.44Z</time></trkpt><trkpt lat="45.7184457" lon="11.7327519"><ele>90.0</ele><time>2026-04-09T12:42:44.456Z</time></trkpt><trkpt lat="45.7185606" lon="11.7327623"><ele>90.0</ele><time>2026-04-09T12:42:45.443Z</time></trkpt><trkpt lat="45.7186754" lon="11.7327762"><ele>90.2</ele><time>2026-04-09T12:42:46.442Z</time></trkpt><trkpt lat="45.7187834" lon="11.7327894"><ele>90.4</ele><time>2026-04-09T12:42:47.455Z</time></trkpt><trkpt lat="45.7188817" lon="11.7328015"><ele>90.6</ele><time>2026-04-09T12:42:48.45Z</time></trkpt><trkpt lat="45.7189787" lon="11.7328146"><ele>90.8</ele><time>2026-04-09T12:42:49.453Z</time></trkpt><trkpt lat="45.7190704" lon="11.7328269"><ele>91.0</ele><time>2026-04-09T12:42:50.447Z</time></trkpt><trkpt lat="45.7191531" lon="11.7328374"><ele>91.0</ele><time>2026-04-09T12:42:51.449Z</time></trkpt><trkpt lat="45.7192331" lon="11.7328477"><ele>91.0</ele><time>2026-04-09T12:42:52.442Z</time></trkpt><trkpt lat="45.7193098" lon="11.7328576"><ele>91.0</ele><time>2026-04-09T12:42:53.461Z</time></trkpt><trkpt lat="45.7193783" lon="11.732868"><ele>91.0</ele><time>2026-04-09T12:42:54.445Z</time></trkpt><trkpt lat="45.7194464" lon="11.7328784"><ele>91.0</ele><time>2026-04-09T12:42:55.442Z</time></trkpt><trkpt lat="45.719512" lon="11.7328877"><ele>91.0</ele><time>2026-04-09T12:42:56.442Z</time></trkpt><trkpt lat="45.7196353" lon="11.7328996"><ele>91.4</ele><time>2026-04-09T12:42:58.446Z</time></trkpt><trkpt lat="45.7196984" lon="11.7329051"><ele>91.8</ele><time>2026-04-09T12:42:59.444Z</time></trkpt><trkpt lat="45.7198398" lon="11.7329212"><ele>92.2</ele><time>2026-04-09T12:43:01.446Z</time></trkpt><trkpt lat="45.7199214" lon="11.7329309"><ele>92.60000000000001</ele><time>2026-04-09T12:43:02.44Z</time></trkpt><trkpt lat="45.7200058" lon="11.7329447"><ele>93.0</ele><time>2026-04-09T12:43:03.441Z</time></trkpt><trkpt lat="45.7200879" lon="11.7329561"><ele>93.0</ele><time>2026-04-09T12:43:04.446Z</time></trkpt><trkpt lat="45.7201592" lon="11.732966"><ele>93.0</ele><time>2026-04-09T12:43:05.446Z</time></trkpt><trkpt lat="45.7202282" lon="11.7329761"><ele>93.0</ele><time>2026-04-09T12:43:06.439Z</time></trkpt><trkpt lat="45.7203422" lon="11.7329906"><ele>93.0</ele><time>2026-04-09T12:43:08.449Z</time></trkpt><trkpt lat="45.7204369" lon="11.7330041"><ele>93.0</ele><time>2026-04-09T12:43:10.437Z</time></trkpt><trkpt lat="45.7205255" lon="11.7330192"><ele>93.0</ele><time>2026-04-09T12:43:12.463Z</time></trkpt><trkpt lat="45.7206031" lon="11.7330267"><ele>93.0</ele><time>2026-04-09T12:43:14.45Z</time></trkpt><trkpt lat="45.7206946" lon="11.7330372"><ele>93.0</ele><time>2026-04-09T12:43:16.452Z</time></trkpt><trkpt lat="45.7207812" lon="11.7330587"><ele>93.0</ele><time>2026-04-09T12:43:18.474Z</time></trkpt><trkpt lat="45.720899" lon="11.7331163"><ele>93.0</ele><time>2026-04-09T12:43:20.441Z</time></trkpt><trkpt lat="45.7209802" lon="11.7331375"><ele>93.0</ele><time>2026-04-09T12:43:21.442Z</time></trkpt><trkpt lat="45.7210686" lon="11.7331594"><ele>92.25</ele><time>2026-04-09T12:43:22.445Z</time></trkpt><trkpt lat="45.7211772" lon="11.7331847"><ele>91.5</ele><time>2026-04-09T12:43:23.436Z</time></trkpt><trkpt lat="45.7212924" lon="11.7332278"><ele>90.75</ele><time>2026-04-09T12:43:24.447Z</time></trkpt><trkpt lat="45.7214071" lon="11.7332698"><ele>90.0</ele><time>2026-04-09T12:43:25.447Z</time></trkpt><trkpt lat="45.721522" lon="11.7332987"><ele>90.0</ele><time>2026-04-09T12:43:26.441Z</time></trkpt><trkpt lat="45.7216343" lon="11.7333008"><ele>90.0</ele><time>2026-04-09T12:43:27.445Z</time></trkpt><trkpt lat="45.7217379" lon="11.7333006"><ele>90.0</ele><time>2026-04-09T12:43:28.441Z</time></trkpt><trkpt lat="45.7218414" lon="11.7332983"><ele>90.0</ele><time>2026-04-09T12:43:29.436Z</time></trkpt><trkpt lat="45.7219479" lon="11.7332975"><ele>90.0</ele><time>2026-04-09T12:43:30.44Z</time></trkpt><trkpt lat="45.7220442" lon="11.7332948"><ele>90.4</ele><time>2026-04-09T12:43:31.449Z</time></trkpt><trkpt lat="45.7221453" lon="11.7332959"><ele>90.8</ele><time>2026-04-09T12:43:32.436Z</time></trkpt><trkpt lat="45.7222429" lon="11.7332958"><ele>91.19999999999999</ele><time>2026-04-09T12:43:33.448Z</time></trkpt><trkpt lat="45.7223392" lon="11.7332959"><ele>91.6</ele><time>2026-04-09T12:43:34.447Z</time></trkpt><trkpt lat="45.7224378" lon="11.7332964"><ele>92.0</ele><time>2026-04-09T12:43:35.442Z</time></trkpt><trkpt lat="45.7225381" lon="11.7332948"><ele>92.0</ele><time>2026-04-09T12:43:36.434Z</time></trkpt><trkpt lat="45.7226358" lon="11.7332907"><ele>92.0</ele><time>2026-04-09T12:43:37.447Z</time></trkpt><trkpt lat="45.722736" lon="11.7332837"><ele>92.0</ele><time>2026-04-09T12:43:38.441Z</time></trkpt><trkpt lat="45.7228355" lon="11.7332741"><ele>92.0</ele><time>2026-04-09T12:43:39.434Z</time></trkpt><trkpt lat="45.7229331" lon="11.7332603"><ele>92.0</ele><time>2026-04-09T12:43:40.439Z</time></trkpt><trkpt lat="45.7230301" lon="11.7332454"><ele>92.39999999999999</ele><time>2026-04-09T12:43:41.447Z</time></trkpt><trkpt lat="45.7231271" lon="11.7332287"><ele>92.8</ele><time>2026-04-09T12:43:42.439Z</time></trkpt><trkpt lat="45.7232241" lon="11.7332109"><ele>93.2</ele><time>2026-04-09T12:43:43.454Z</time></trkpt><trkpt lat="45.7233222" lon="11.7331943"><ele>93.6</ele><time>2026-04-09T12:43:44.441Z</time></trkpt><trkpt lat="45.7234209" lon="11.7331784"><ele>94.0</ele><time>2026-04-09T12:43:45.435Z</time></trkpt><trkpt lat="45.7235192" lon="11.7331613"><ele>94.0</ele><time>2026-04-09T12:43:46.436Z</time></trkpt><trkpt lat="45.7236149" lon="11.7331437"><ele>94.0</ele><time>2026-04-09T12:43:47.44Z</time></trkpt><trkpt lat="45.7237097" lon="11.7331273"><ele>94.0</ele><time>2026-04-09T12:43:48.436Z</time></trkpt><trkpt lat="45.7238045" lon="11.7331127"><ele>94.0</ele><time>2026-04-09T12:43:49.439Z</time></trkpt><trkpt lat="45.7239005" lon="11.7331001"><ele>94.0</ele><time>2026-04-09T12:43:50.444Z</time></trkpt><trkpt lat="45.7239976" lon="11.7330883"><ele>94.0</ele><time>2026-04-09T12:43:51.463Z</time></trkpt><trkpt lat="45.7241004" lon="11.7330808"><ele>94.0</ele><time>2026-04-09T12:43:52.442Z</time></trkpt><trkpt lat="45.7242047" lon="11.733079"><ele>94.0</ele><time>2026-04-09T12:43:53.437Z</time></trkpt><trkpt lat="45.7243113" lon="11.7330845"><ele>94.0</ele><time>2026-04-09T12:43:54.444Z</time></trkpt><trkpt lat="45.7244196" lon="11.7330961"><ele>94.0</ele><time>2026-04-09T12:43:55.446Z</time></trkpt><trkpt lat="45.7245291" lon="11.7331156"><ele>94.4</ele><time>2026-04-09T12:43:56.451Z</time></trkpt><trkpt lat="45.724638" lon="11.7331409"><ele>94.80000000000001</ele><time>2026-04-09T12:43:57.452Z</time></trkpt><trkpt lat="45.7247437" lon="11.7331687"><ele>95.19999999999999</ele><time>2026-04-09T12:43:58.448Z</time></trkpt><trkpt lat="45.7248447" lon="11.7331972"><ele>95.6</ele><time>2026-04-09T12:43:59.453Z</time></trkpt><trkpt lat="45.7249476" lon="11.7332271"><ele>96.0</ele><time>2026-04-09T12:44:00.459Z</time></trkpt><trkpt lat="45.7250489" lon="11.7332565"><ele>96.0</ele><time>2026-04-09T12:44:01.45Z</time></trkpt><trkpt lat="45.7251486" lon="11.7332852"><ele>96.0</ele><time>2026-04-09T12:44:02.442Z</time></trkpt><trkpt lat="45.7252475" lon="11.7333136"><ele>96.0</ele><time>2026-04-09T12:44:03.45Z</time></trkpt><trkpt lat="45.725348" lon="11.7333424"><ele>96.0</ele><time>2026-04-09T12:44:04.441Z</time></trkpt><trkpt lat="45.7254488" lon="11.7333719"><ele>96.0</ele><time>2026-04-09T12:44:05.442Z</time></trkpt><trkpt lat="45.7255496" lon="11.7334005"><ele>95.4</ele><time>2026-04-09T12:44:06.451Z</time></trkpt><trkpt lat="45.7256484" lon="11.7334284"><ele>94.8</ele><time>2026-04-09T12:44:07.444Z</time></trkpt><trkpt lat="45.7257453" lon="11.7334559"><ele>94.2</ele><time>2026-04-09T12:44:08.444Z</time></trkpt><trkpt lat="45.7258416" lon="11.7334828"><ele>93.60000000000001</ele><time>2026-04-09T12:44:09.441Z</time></trkpt><trkpt lat="45.725937" lon="11.7335119"><ele>93.0</ele><time>2026-04-09T12:44:10.44Z</time></trkpt><trkpt lat="45.7260326" lon="11.7335399"><ele>93.80000000000001</ele><time>2026-04-09T12:44:11.442Z</time></trkpt><trkpt lat="45.7261282" lon="11.7335677"><ele>94.6</ele><time>2026-04-09T12:44:12.452Z</time></trkpt><trkpt lat="45.7262238" lon="11.7335963"><ele>95.4</ele><time>2026-04-09T12:44:13.455Z</time></trkpt><trkpt lat="45.7263201" lon="11.7336252"><ele>96.19999999999999</ele><time>2026-04-09T12:44:14.442Z</time></trkpt><trkpt lat="45.7264103" lon="11.7336499"><ele>97.0</ele><time>2026-04-09T12:44:15.444Z</time></trkpt><trkpt lat="45.7264939" lon="11.733673"><ele>97.00000000000001</ele><time>2026-04-09T12:44:16.451Z</time></trkpt><trkpt lat="45.726575" lon="11.733697"><ele>97.0</ele><time>2026-04-09T12:44:17.466Z</time></trkpt><trkpt lat="45.7266546" lon="11.7337288"><ele>97.0</ele><time>2026-04-09T12:44:18.442Z</time></trkpt><trkpt lat="45.7267272" lon="11.7337768"><ele>97.0</ele><time>2026-04-09T12:44:19.448Z</time></trkpt><trkpt lat="45.7267968" lon="11.7338243"><ele>97.00000000000001</ele><time>2026-04-09T12:44:20.452Z</time></trkpt><trkpt lat="45.7268444" lon="11.7339033"><ele>97.0</ele><time>2026-04-09T12:44:21.445Z</time></trkpt><trkpt lat="45.7268826" lon="11.7339861"><ele>97.0</ele><time>2026-04-09T12:44:22.469Z</time></trkpt><trkpt lat="45.7269199" lon="11.7340718"><ele>97.0</ele><time>2026-04-09T12:44:23.443Z</time></trkpt><trkpt lat="45.7269574" lon="11.7341554"><ele>97.0</ele><time>2026-04-09T12:44:24.441Z</time></trkpt><trkpt lat="45.7270139" lon="11.7342261"><ele>97.0</ele><time>2026-04-09T12:44:25.442Z</time></trkpt><trkpt lat="45.7270746" lon="11.7342666"><ele>97.0</ele><time>2026-04-09T12:44:26.437Z</time></trkpt><trkpt lat="45.7271436" lon="11.7342959"><ele>97.0</ele><time>2026-04-09T12:44:27.444Z</time></trkpt><trkpt lat="45.7272181" lon="11.7343132"><ele>97.0</ele><time>2026-04-09T12:44:28.442Z</time></trkpt><trkpt lat="45.7272934" lon="11.7343279"><ele>97.00000000000001</ele><time>2026-04-09T12:44:29.443Z</time></trkpt><trkpt lat="45.7273703" lon="11.7343302"><ele>97.0</ele><time>2026-04-09T12:44:30.446Z</time></trkpt><trkpt lat="45.7274472" lon="11.7343247"><ele>97.0</ele><time>2026-04-09T12:44:31.444Z</time></trkpt><trkpt lat="45.7275268" lon="11.7343212"><ele>97.0</ele><time>2026-04-09T12:44:32.445Z</time></trkpt><trkpt lat="45.7276124" lon="11.7343179"><ele>97.00000000000001</ele><time>2026-04-09T12:44:33.451Z</time></trkpt><trkpt lat="45.7276945" lon="11.7343122"><ele>97.0</ele><time>2026-04-09T12:44:34.445Z</time></trkpt><trkpt lat="45.7277797" lon="11.7343057"><ele>96.83333333333334</ele><time>2026-04-09T12:44:35.442Z</time></trkpt><trkpt lat="45.7278664" lon="11.7343002"><ele>96.66666666666667</ele><time>2026-04-09T12:44:36.445Z</time></trkpt><trkpt lat="45.7279558" lon="11.7342971"><ele>96.5</ele><time>2026-04-09T12:44:37.443Z</time></trkpt><trkpt lat="45.7280425" lon="11.7342924"><ele>96.33333333333334</ele><time>2026-04-09T12:44:38.437Z</time></trkpt><trkpt lat="45.7281278" lon="11.7342888"><ele>96.16666666666667</ele><time>2026-04-09T12:44:39.441Z</time></trkpt><trkpt lat="45.7282164" lon="11.7342827"><ele>96.0</ele><time>2026-04-09T12:44:40.448Z</time></trkpt><trkpt lat="45.728304" lon="11.7342747"><ele>96.0</ele><time>2026-04-09T12:44:41.442Z</time></trkpt><trkpt lat="45.7283895" lon="11.7342568"><ele>96.0</ele><time>2026-04-09T12:44:42.442Z</time></trkpt><trkpt lat="45.7284745" lon="11.7342288"><ele>96.0</ele><time>2026-04-09T12:44:43.437Z</time></trkpt><trkpt lat="45.7285642" lon="11.7341898"><ele>96.0</ele><time>2026-04-09T12:44:44.443Z</time></trkpt><trkpt lat="45.7286545" lon="11.7341458"><ele>96.0</ele><time>2026-04-09T12:44:45.438Z</time></trkpt><trkpt lat="45.7287482" lon="11.7341008"><ele>96.0</ele><time>2026-04-09T12:44:46.444Z</time></trkpt><trkpt lat="45.7288371" lon="11.73406"><ele>96.0</ele><time>2026-04-09T12:44:47.44Z</time></trkpt><trkpt lat="45.7289218" lon="11.7340223"><ele>96.0</ele><time>2026-04-09T12:44:48.443Z</time></trkpt><trkpt lat="45.7290043" lon="11.7339853"><ele>96.0</ele><time>2026-04-09T12:44:49.44Z</time></trkpt><trkpt lat="45.729085" lon="11.7339476"><ele>96.0</ele><time>2026-04-09T12:44:50.439Z</time></trkpt><trkpt lat="45.7291663" lon="11.7339091"><ele>96.0</ele><time>2026-04-09T12:44:51.446Z</time></trkpt><trkpt lat="45.7292461" lon="11.7338718"><ele>96.0</ele><time>2026-04-09T12:44:52.442Z</time></trkpt><trkpt lat="45.7293189" lon="11.7338365"><ele>96.0</ele><time>2026-04-09T12:44:53.444Z</time></trkpt><trkpt lat="45.729392" lon="11.7338028"><ele>96.0</ele><time>2026-04-09T12:44:54.441Z</time></trkpt><trkpt lat="45.7294732" lon="11.7337657"><ele>96.0</ele><time>2026-04-09T12:44:55.441Z</time></trkpt><trkpt lat="45.7295586" lon="11.7337269"><ele>96.0</ele><time>2026-04-09T12:44:56.434Z</time></trkpt><trkpt lat="45.7296365" lon="11.733692"><ele>96.0</ele><time>2026-04-09T12:44:57.447Z</time></trkpt><trkpt lat="45.729716" lon="11.7336599"><ele>96.19999999999999</ele><time>2026-04-09T12:44:58.445Z</time></trkpt><trkpt lat="45.7298004" lon="11.7336312"><ele>96.39999999999999</ele><time>2026-04-09T12:44:59.451Z</time></trkpt><trkpt lat="45.7298917" lon="11.7336068"><ele>96.6</ele><time>2026-04-09T12:45:00.439Z</time></trkpt><trkpt lat="45.7299877" lon="11.7335895"><ele>96.8</ele><time>2026-04-09T12:45:01.437Z</time></trkpt><trkpt lat="45.7300868" lon="11.7335814"><ele>97.0</ele><time>2026-04-09T12:45:02.45Z</time></trkpt><trkpt lat="45.7301863" lon="11.7335783"><ele>97.19999999999999</ele><time>2026-04-09T12:45:03.439Z</time></trkpt><trkpt lat="45.7302878" lon="11.733576"><ele>97.4</ele><time>2026-04-09T12:45:04.443Z</time></trkpt><trkpt lat="45.7303913" lon="11.7335738"><ele>97.6</ele><time>2026-04-09T12:45:05.442Z</time></trkpt><trkpt lat="45.7304959" lon="11.7335735"><ele>97.80000000000001</ele><time>2026-04-09T12:45:06.442Z</time></trkpt><trkpt lat="45.7306026" lon="11.7335747"><ele>98.0</ele><time>2026-04-09T12:45:07.444Z</time></trkpt><trkpt lat="45.7307068" lon="11.73358"><ele>98.0</ele><time>2026-04-09T12:45:08.442Z</time></trkpt><trkpt lat="45.7308129" lon="11.7335842"><ele>98.0</ele><time>2026-04-09T12:45:09.445Z</time></trkpt><trkpt lat="45.7309163" lon="11.7335862"><ele>98.0</ele><time>2026-04-09T12:45:10.438Z</time></trkpt><trkpt lat="45.7310184" lon="11.73359"><ele>98.0</ele><time>2026-04-09T12:45:11.441Z</time></trkpt><trkpt lat="45.7311222" lon="11.7335937"><ele>98.0</ele><time>2026-04-09T12:45:12.447Z</time></trkpt><trkpt lat="45.7312206" lon="11.7335965"><ele>97.83333333333333</ele><time>2026-04-09T12:45:13.456Z</time></trkpt><trkpt lat="45.7313088" lon="11.7335974"><ele>97.66666666666666</ele><time>2026-04-09T12:45:14.441Z</time></trkpt><trkpt lat="45.731392" lon="11.7335964"><ele>97.5</ele><time>2026-04-09T12:45:15.451Z</time></trkpt><trkpt lat="45.7314667" lon="11.7335953"><ele>97.33333333333334</ele><time>2026-04-09T12:45:16.444Z</time></trkpt><trkpt lat="45.7315406" lon="11.7335918"><ele>97.16666666666667</ele><time>2026-04-09T12:45:17.447Z</time></trkpt><trkpt lat="45.7316202" lon="11.7335835"><ele>97.0</ele><time>2026-04-09T12:45:18.446Z</time></trkpt><trkpt lat="45.7317039" lon="11.7335706"><ele>97.00000000000001</ele><time>2026-04-09T12:45:19.444Z</time></trkpt><trkpt lat="45.7317861" lon="11.7335564"><ele>97.0</ele><time>2026-04-09T12:45:20.453Z</time></trkpt><trkpt lat="45.7318726" lon="11.73354"><ele>97.0</ele><time>2026-04-09T12:45:21.446Z</time></trkpt><trkpt lat="45.7319594" lon="11.7335241"><ele>97.0</ele><time>2026-04-09T12:45:22.44Z</time></trkpt><trkpt lat="45.7320435" lon="11.7335071"><ele>97.00000000000001</ele><time>2026-04-09T12:45:23.444Z</time></trkpt><trkpt lat="45.7321209" lon="11.7334908"><ele>97.0</ele><time>2026-04-09T12:45:24.445Z</time></trkpt><trkpt lat="45.7321994" lon="11.7334749"><ele>97.14285714285714</ele><time>2026-04-09T12:45:25.459Z</time></trkpt><trkpt lat="45.7322784" lon="11.7334585"><ele>97.28571428571429</ele><time>2026-04-09T12:45:26.441Z</time></trkpt><trkpt lat="45.732355" lon="11.733443"><ele>97.42857142857143</ele><time>2026-04-09T12:45:27.451Z</time></trkpt><trkpt lat="45.7324292" lon="11.7334267"><ele>97.57142857142857</ele><time>2026-04-09T12:45:28.445Z</time></trkpt><trkpt lat="45.7325015" lon="11.7334122"><ele>97.71428571428572</ele><time>2026-04-09T12:45:29.439Z</time></trkpt><trkpt lat="45.7325716" lon="11.7334078"><ele>97.85714285714286</ele><time>2026-04-09T12:45:30.458Z</time></trkpt><trkpt lat="45.7326434" lon="11.7334177"><ele>98.0</ele><time>2026-04-09T12:45:31.45Z</time></trkpt><trkpt lat="45.7327081" lon="11.7334417"><ele>97.99999999999999</ele><time>2026-04-09T12:45:32.444Z</time></trkpt><trkpt lat="45.732774" lon="11.7334685"><ele>98.0</ele><time>2026-04-09T12:45:33.447Z</time></trkpt><trkpt lat="45.7328472" lon="11.7334734"><ele>98.0</ele><time>2026-04-09T12:45:34.447Z</time></trkpt><trkpt lat="45.7329244" lon="11.7334509"><ele>98.0</ele><time>2026-04-09T12:45:35.446Z</time></trkpt><trkpt lat="45.7329984" lon="11.7334044"><ele>97.99999999999999</ele><time>2026-04-09T12:45:36.448Z</time></trkpt><trkpt lat="45.7330647" lon="11.7333528"><ele>98.0</ele><time>2026-04-09T12:45:37.453Z</time></trkpt><trkpt lat="45.7331389" lon="11.7333076"><ele>97.99999999999999</ele><time>2026-04-09T12:45:38.453Z</time></trkpt><trkpt lat="45.7332195" lon="11.7332737"><ele>98.0</ele><time>2026-04-09T12:45:39.452Z</time></trkpt><trkpt lat="45.7333024" lon="11.7332489"><ele>98.0</ele><time>2026-04-09T12:45:40.44Z</time></trkpt><trkpt lat="45.7333854" lon="11.7332295"><ele>98.0</ele><time>2026-04-09T12:45:41.439Z</time></trkpt><trkpt lat="45.7334719" lon="11.7332115"><ele>97.99999999999999</ele><time>2026-04-09T12:45:42.441Z</time></trkpt><trkpt lat="45.7335574" lon="11.7331933"><ele>98.0</ele><time>2026-04-09T12:45:43.446Z</time></trkpt><trkpt lat="45.7336456" lon="11.7331735"><ele>98.80000000000001</ele><time>2026-04-09T12:45:44.439Z</time></trkpt><trkpt lat="45.7337359" lon="11.7331546"><ele>99.6</ele><time>2026-04-09T12:45:45.438Z</time></trkpt><trkpt lat="45.7338286" lon="11.733135"><ele>100.4</ele><time>2026-04-09T12:45:46.441Z</time></trkpt><trkpt lat="45.7339227" lon="11.7331123"><ele>101.19999999999999</ele><time>2026-04-09T12:45:47.458Z</time></trkpt><trkpt lat="45.7340186" lon="11.7330867"><ele>102.0</ele><time>2026-04-09T12:45:48.442Z</time></trkpt><trkpt lat="45.7341151" lon="11.7330582"><ele>102.0</ele><time>2026-04-09T12:45:49.441Z</time></trkpt><trkpt lat="45.7342086" lon="11.7330278"><ele>102.0</ele><time>2026-04-09T12:45:50.441Z</time></trkpt><trkpt lat="45.7343025" lon="11.7329936"><ele>102.0</ele><time>2026-04-09T12:45:51.44Z</time></trkpt><trkpt lat="45.7343897" lon="11.732958"><ele>102.0</ele><time>2026-04-09T12:45:52.438Z</time></trkpt><trkpt lat="45.7344726" lon="11.732924"><ele>102.0</ele><time>2026-04-09T12:45:53.444Z</time></trkpt><trkpt lat="45.7345526" lon="11.7328912"><ele>101.83333333333333</ele><time>2026-04-09T12:45:54.438Z</time></trkpt><trkpt lat="45.7346323" lon="11.7328581"><ele>101.66666666666666</ele><time>2026-04-09T12:45:55.435Z</time></trkpt><trkpt lat="45.7347084" lon="11.7328265"><ele>101.5</ele><time>2026-04-09T12:45:56.444Z</time></trkpt><trkpt lat="45.7347943" lon="11.7328056"><ele>101.33333333333333</ele><time>2026-04-09T12:45:57.455Z</time></trkpt><trkpt lat="45.7348832" lon="11.7327839"><ele>101.16666666666666</ele><time>2026-04-09T12:45:58.449Z</time></trkpt><trkpt lat="45.7349766" lon="11.7327699"><ele>101.0</ele><time>2026-04-09T12:45:59.444Z</time></trkpt><trkpt lat="45.7350704" lon="11.7327606"><ele>101.0</ele><time>2026-04-09T12:46:00.446Z</time></trkpt><trkpt lat="45.7351622" lon="11.7327619"><ele>101.0</ele><time>2026-04-09T12:46:01.45Z</time></trkpt><trkpt lat="45.735252" lon="11.7327671"><ele>101.0</ele><time>2026-04-09T12:46:02.455Z</time></trkpt><trkpt lat="45.7353434" lon="11.7327764"><ele>101.0</ele><time>2026-04-09T12:46:03.439Z</time></trkpt><trkpt lat="45.735436" lon="11.7327841"><ele>101.0</ele><time>2026-04-09T12:46:04.453Z</time></trkpt><trkpt lat="45.7355264" lon="11.7327787"><ele>100.99999999999999</ele><time>2026-04-09T12:46:05.442Z</time></trkpt><trkpt lat="45.7356109" lon="11.7327641"><ele>101.0</ele><time>2026-04-09T12:46:06.449Z</time></trkpt><trkpt lat="45.735691" lon="11.732747"><ele>101.0</ele><time>2026-04-09T12:46:07.448Z</time></trkpt><trkpt lat="45.735771" lon="11.7327288"><ele>101.0</ele><time>2026-04-09T12:46:08.442Z</time></trkpt><trkpt lat="45.7358462" lon="11.7327041"><ele>100.99999999999999</ele><time>2026-04-09T12:46:09.442Z</time></trkpt><trkpt lat="45.735921" lon="11.7326772"><ele>101.0</ele><time>2026-04-09T12:46:10.442Z</time></trkpt><trkpt lat="45.7360073" lon="11.7326496"><ele>100.66666666666666</ele><time>2026-04-09T12:46:11.44Z</time></trkpt><trkpt lat="45.7360911" lon="11.7326245"><ele>100.33333333333333</ele><time>2026-04-09T12:46:12.446Z</time></trkpt><trkpt lat="45.736165" lon="11.7326037"><ele>100.0</ele><time>2026-04-09T12:46:13.457Z</time></trkpt><trkpt lat="45.7362379" lon="11.7325859"><ele>99.66666666666666</ele><time>2026-04-09T12:46:14.443Z</time></trkpt><trkpt lat="45.7363121" lon="11.7325741"><ele>99.33333333333333</ele><time>2026-04-09T12:46:15.447Z</time></trkpt><trkpt lat="45.7363856" lon="11.7325617"><ele>99.0</ele><time>2026-04-09T12:46:16.459Z</time></trkpt><trkpt lat="45.7364626" lon="11.7325411"><ele>99.0</ele><time>2026-04-09T12:46:17.443Z</time></trkpt><trkpt lat="45.7365346" lon="11.7325101"><ele>99.0</ele><time>2026-04-09T12:46:18.454Z</time></trkpt><trkpt lat="45.7365998" lon="11.7324619"><ele>99.0</ele><time>2026-04-09T12:46:19.452Z</time></trkpt><trkpt lat="45.7366574" lon="11.7323918"><ele>99.0</ele><time>2026-04-09T12:46:20.448Z</time></trkpt><trkpt lat="45.736703" lon="11.7323055"><ele>99.0</ele><time>2026-04-09T12:46:21.45Z</time></trkpt><trkpt lat="45.7367463" lon="11.7322224"><ele>99.0</ele><time>2026-04-09T12:46:22.449Z</time></trkpt><trkpt lat="45.7367561" lon="11.7321223"><ele>99.0</ele><time>2026-04-09T12:46:23.446Z</time></trkpt><trkpt lat="45.7367655" lon="11.7320204"><ele>99.0</ele><time>2026-04-09T12:46:24.443Z</time></trkpt><trkpt lat="45.7367745" lon="11.7319039"><ele>99.0</ele><time>2026-04-09T12:46:25.442Z</time></trkpt><trkpt lat="45.7368011" lon="11.7317881"><ele>99.0</ele><time>2026-04-09T12:46:26.443Z</time></trkpt><trkpt lat="45.7368412" lon="11.731682"><ele>99.0</ele><time>2026-04-09T12:46:27.448Z</time></trkpt><trkpt lat="45.7368949" lon="11.7315786"><ele>99.0</ele><time>2026-04-09T12:46:28.455Z</time></trkpt><trkpt lat="45.7369596" lon="11.7314887"><ele>99.0</ele><time>2026-04-09T12:46:29.452Z</time></trkpt><trkpt lat="45.7370287" lon="11.7314083"><ele>99.16666666666667</ele><time>2026-04-09T12:46:30.438Z</time></trkpt><trkpt lat="45.7370947" lon="11.731335"><ele>99.33333333333334</ele><time>2026-04-09T12:46:31.441Z</time></trkpt><trkpt lat="45.7371728" lon="11.731291"><ele>99.5</ele><time>2026-04-09T12:46:32.447Z</time></trkpt><trkpt lat="45.7372507" lon="11.7312605"><ele>99.66666666666667</ele><time>2026-04-09T12:46:33.444Z</time></trkpt><trkpt lat="45.7373284" lon="11.7312464"><ele>99.83333333333334</ele><time>2026-04-09T12:46:34.448Z</time></trkpt><trkpt lat="45.7373981" lon="11.7312445"><ele>100.0</ele><time>2026-04-09T12:46:35.446Z</time></trkpt><trkpt lat="45.7375117" lon="11.7312557"><ele>100.00000000000001</ele><time>2026-04-09T12:46:37.442Z</time></trkpt><trkpt lat="45.7375813" lon="11.7312855"><ele>100.0</ele><time>2026-04-09T12:46:39.452Z</time></trkpt><trkpt lat="45.7376393" lon="11.7313343"><ele>100.0</ele><time>2026-04-09T12:46:49.443Z</time></trkpt><trkpt lat="45.737709" lon="11.7313798"><ele>100.0</ele><time>2026-04-09T12:46:57.518Z</time></trkpt><trkpt lat="45.737793" lon="11.7314472"><ele>100.00000000000001</ele><time>2026-04-09T12:47:00.441Z</time></trkpt><trkpt lat="45.737869" lon="11.7315549"><ele>100.0</ele><time>2026-04-09T12:47:02.448Z</time></trkpt><trkpt lat="45.7379443" lon="11.7316548"><ele>100.0</ele><time>2026-04-09T12:47:04.443Z</time></trkpt><trkpt lat="45.7380435" lon="11.7317307"><ele>100.0</ele><time>2026-04-09T12:47:06.439Z</time></trkpt><trkpt lat="45.738105" lon="11.731752"><ele>100.0</ele><time>2026-04-09T12:47:07.45Z</time></trkpt><trkpt lat="45.7382198" lon="11.7317635"><ele>100.0</ele><time>2026-04-09T12:47:09.444Z</time></trkpt><trkpt lat="45.738336" lon="11.7317473"><ele>100.0</ele><time>2026-04-09T12:47:11.45Z</time></trkpt><trkpt lat="45.7384537" lon="11.7316935"><ele>99.2</ele><time>2026-04-09T12:47:13.441Z</time></trkpt><trkpt lat="45.738552" lon="11.7316095"><ele>98.4</ele><time>2026-04-09T12:47:15.501Z</time></trkpt><trkpt lat="45.7386593" lon="11.7314838"><ele>97.6</ele><time>2026-04-09T12:47:17.449Z</time></trkpt><trkpt lat="45.7387369" lon="11.7314208"><ele>96.8</ele><time>2026-04-09T12:47:18.447Z</time></trkpt><trkpt lat="45.7388276" lon="11.7313678"><ele>96.0</ele><time>2026-04-09T12:47:19.441Z</time></trkpt><trkpt lat="45.7389338" lon="11.731313"><ele>96.0</ele><time>2026-04-09T12:47:20.45Z</time></trkpt><trkpt lat="45.7390539" lon="11.7312562"><ele>96.0</ele><time>2026-04-09T12:47:21.441Z</time></trkpt><trkpt lat="45.7391851" lon="11.731197"><ele>96.0</ele><time>2026-04-09T12:47:22.441Z</time></trkpt><trkpt lat="45.739326" lon="11.7311403"><ele>96.0</ele><time>2026-04-09T12:47:23.442Z</time></trkpt><trkpt lat="45.7394693" lon="11.7310844"><ele>97.5</ele><time>2026-04-09T12:47:24.453Z</time></trkpt><trkpt lat="45.7396122" lon="11.7310293"><ele>99.0</ele><time>2026-04-09T12:47:25.447Z</time></trkpt><trkpt lat="45.739754" lon="11.7309744"><ele>100.5</ele><time>2026-04-09T12:47:26.439Z</time></trkpt><trkpt lat="45.7398875" lon="11.7309238"><ele>102.0</ele><time>2026-04-09T12:47:27.442Z</time></trkpt><trkpt lat="45.740017" lon="11.730873"><ele>102.0</ele><time>2026-04-09T12:47:28.447Z</time></trkpt><trkpt lat="45.7401584" lon="11.7308143"><ele>102.0</ele><time>2026-04-09T12:47:29.452Z</time></trkpt><trkpt lat="45.7403205" lon="11.7307522"><ele>102.0</ele><time>2026-04-09T12:47:30.443Z</time></trkpt><trkpt lat="45.7405081" lon="11.7307023"><ele>102.0</ele><time>2026-04-09T12:47:31.441Z</time></trkpt><trkpt lat="45.7407146" lon="11.7306678"><ele>102.0</ele><time>2026-04-09T12:47:32.451Z</time></trkpt><trkpt lat="45.7409336" lon="11.7306395"><ele>102.0</ele><time>2026-04-09T12:47:33.437Z</time></trkpt><trkpt lat="45.7411603" lon="11.7306079"><ele>102.0</ele><time>2026-04-09T12:47:34.448Z</time></trkpt><trkpt lat="45.741375" lon="11.7305736"><ele>102.0</ele><time>2026-04-09T12:47:35.439Z</time></trkpt><trkpt lat="45.7415814" lon="11.7305378"><ele>102.0</ele><time>2026-04-09T12:47:36.443Z</time></trkpt><trkpt lat="45.7417868" lon="11.7305021"><ele>101.66666666666666</ele><time>2026-04-09T12:47:37.439Z</time></trkpt><trkpt lat="45.7419922" lon="11.7304655"><ele>101.33333333333333</ele><time>2026-04-09T12:47:38.451Z</time></trkpt><trkpt lat="45.7421959" lon="11.7304292"><ele>101.0</ele><time>2026-04-09T12:47:39.441Z</time></trkpt><trkpt lat="45.7423881" lon="11.7303953"><ele>101.0</ele><time>2026-04-09T12:47:40.445Z</time></trkpt><trkpt lat="45.742562" lon="11.7303652"><ele>101.0</ele><time>2026-04-09T12:47:41.447Z</time></trkpt><trkpt lat="45.7427111" lon="11.7303395"><ele>101.0</ele><time>2026-04-09T12:47:42.45Z</time></trkpt><trkpt lat="45.742831" lon="11.7303242"><ele>101.0</ele><time>2026-04-09T12:47:43.451Z</time></trkpt><trkpt lat="45.7429264" lon="11.7303109"><ele>101.16666666666666</ele><time>2026-04-09T12:47:44.448Z</time></trkpt><trkpt lat="45.7430006" lon="11.7303026"><ele>101.33333333333333</ele><time>2026-04-09T12:47:45.443Z</time></trkpt><trkpt lat="45.743103" lon="11.7303051"><ele>101.5</ele><time>2026-04-09T12:47:47.453Z</time></trkpt><trkpt lat="45.7432041" lon="11.7303602"><ele>101.66666666666666</ele><time>2026-04-09T12:47:49.441Z</time></trkpt><trkpt lat="45.7432524" lon="11.7304207"><ele>101.83333333333333</ele><time>2026-04-09T12:47:50.44Z</time></trkpt><trkpt lat="45.7433015" lon="11.7304969"><ele>102.0</ele><time>2026-04-09T12:47:51.444Z</time></trkpt><trkpt lat="45.7433401" lon="11.7306118"><ele>102.0</ele><time>2026-04-09T12:47:52.451Z</time></trkpt><trkpt lat="45.7433654" lon="11.7307478"><ele>102.0</ele><time>2026-04-09T12:47:53.438Z</time></trkpt><trkpt lat="45.7433821" lon="11.730902"><ele>102.0</ele><time>2026-04-09T12:47:54.437Z</time></trkpt><trkpt lat="45.7433939" lon="11.7310624"><ele>102.0</ele><time>2026-04-09T12:47:55.469Z</time></trkpt><trkpt lat="45.7433971" lon="11.731236"><ele>102.0</ele><time>2026-04-09T12:47:56.444Z</time></trkpt><trkpt lat="45.7434001" lon="11.7314345"><ele>102.0</ele><time>2026-04-09T12:47:57.442Z</time></trkpt><trkpt lat="45.7433977" lon="11.7316647"><ele>102.0</ele><time>2026-04-09T12:47:58.456Z</time></trkpt><trkpt lat="45.7433886" lon="11.7319156"><ele>102.0</ele><time>2026-04-09T12:47:59.446Z</time></trkpt><trkpt lat="45.7433759" lon="11.7321827"><ele>102.66666666666666</ele><time>2026-04-09T12:48:00.44Z</time></trkpt><trkpt lat="45.7433605" lon="11.7324687"><ele>103.33333333333333</ele><time>2026-04-09T12:48:01.44Z</time></trkpt><trkpt lat="45.7433456" lon="11.7327673"><ele>104.0</ele><time>2026-04-09T12:48:02.445Z</time></trkpt><trkpt lat="45.7433334" lon="11.7330778"><ele>104.33333333333333</ele><time>2026-04-09T12:48:03.443Z</time></trkpt><trkpt lat="45.7433201" lon="11.7333935"><ele>104.66666666666666</ele><time>2026-04-09T12:48:04.445Z</time></trkpt><trkpt lat="45.7433083" lon="11.7337161"><ele>105.0</ele><time>2026-04-09T12:48:05.44Z</time></trkpt><trkpt lat="45.7432938" lon="11.7340463"><ele>105.5</ele><time>2026-04-09T12:48:06.546Z</time></trkpt><trkpt lat="45.7432822" lon="11.7343829"><ele>106.0</ele><time>2026-04-09T12:48:07.493Z</time></trkpt><trkpt lat="45.7432786" lon="11.7347261"><ele>106.0</ele><time>2026-04-09T12:48:08.454Z</time></trkpt><trkpt lat="45.7432925" lon="11.7350725"><ele>106.0</ele><time>2026-04-09T12:48:09.449Z</time></trkpt><trkpt lat="45.7433228" lon="11.735429"><ele>105.5</ele><time>2026-04-09T12:48:10.446Z</time></trkpt><trkpt lat="45.7433541" lon="11.7357808"><ele>105.0</ele><time>2026-04-09T12:48:11.446Z</time></trkpt><trkpt lat="45.7433859" lon="11.7361094"><ele>105.0</ele><time>2026-04-09T12:48:12.44Z</time></trkpt><trkpt lat="45.7434148" lon="11.7364116"><ele>105.0</ele><time>2026-04-09T12:48:13.442Z</time></trkpt><trkpt lat="45.7434408" lon="11.7366943"><ele>105.0</ele><time>2026-04-09T12:48:14.448Z</time></trkpt><trkpt lat="45.7434651" lon="11.7369737"><ele>105.0</ele><time>2026-04-09T12:48:15.456Z</time></trkpt><trkpt lat="45.7434885" lon="11.7372466"><ele>105.0</ele><time>2026-04-09T12:48:16.445Z</time></trkpt><trkpt lat="45.74351" lon="11.7374995"><ele>105.0</ele><time>2026-04-09T12:48:17.445Z</time></trkpt><trkpt lat="45.7435313" lon="11.7377309"><ele>105.5</ele><time>2026-04-09T12:48:18.448Z</time></trkpt><trkpt lat="45.7435482" lon="11.7379392"><ele>106.0</ele><time>2026-04-09T12:48:19.445Z</time></trkpt><trkpt lat="45.7435623" lon="11.7381197"><ele>106.5</ele><time>2026-04-09T12:48:20.473Z</time></trkpt><trkpt lat="45.7435751" lon="11.7382737"><ele>107.0</ele><time>2026-04-09T12:48:21.445Z</time></trkpt><trkpt lat="45.7435864" lon="11.738406"><ele>106.99999999999999</ele><time>2026-04-09T12:48:22.442Z</time></trkpt><trkpt lat="45.7435966" lon="11.7385203"><ele>107.0</ele><time>2026-04-09T12:48:23.442Z</time></trkpt><trkpt lat="45.7435939" lon="11.7386374"><ele>107.0</ele><time>2026-04-09T12:48:24.449Z</time></trkpt><trkpt lat="45.7435745" lon="11.738753"><ele>107.0</ele><time>2026-04-09T12:48:25.453Z</time></trkpt><trkpt lat="45.743563" lon="11.73885"><ele>106.99999999999999</ele><time>2026-04-09T12:48:26.443Z</time></trkpt><trkpt lat="45.7436277" lon="11.7389923"><ele>107.0</ele><time>2026-04-09T12:48:28.457Z</time></trkpt><trkpt lat="45.7436917" lon="11.7390009"><ele>107.19999999999999</ele><time>2026-04-09T12:48:29.445Z</time></trkpt><trkpt lat="45.7437657" lon="11.7389607"><ele>107.39999999999999</ele><time>2026-04-09T12:48:30.441Z</time></trkpt><trkpt lat="45.7438533" lon="11.7388962"><ele>107.60000000000001</ele><time>2026-04-09T12:48:31.453Z</time></trkpt><trkpt lat="45.7439655" lon="11.7388438"><ele>107.80000000000001</ele><time>2026-04-09T12:48:32.443Z</time></trkpt><trkpt lat="45.7440978" lon="11.7388091"><ele>108.0</ele><time>2026-04-09T12:48:33.444Z</time></trkpt><trkpt lat="45.7442464" lon="11.7387814"><ele>108.0</ele><time>2026-04-09T12:48:34.445Z</time></trkpt><trkpt lat="45.7444098" lon="11.7387565"><ele>108.0</ele><time>2026-04-09T12:48:35.529Z</time></trkpt><trkpt lat="45.7445834" lon="11.7387415"><ele>108.0</ele><time>2026-04-09T12:48:36.438Z</time></trkpt><trkpt lat="45.7447682" lon="11.7387403"><ele>108.0</ele><time>2026-04-09T12:48:37.438Z</time></trkpt><trkpt lat="45.7449577" lon="11.7387566"><ele>108.0</ele><time>2026-04-09T12:48:38.436Z</time></trkpt><trkpt lat="45.7451495" lon="11.7387923"><ele>108.0</ele><time>2026-04-09T12:48:39.451Z</time></trkpt><trkpt lat="45.7453459" lon="11.7388415"><ele>108.66666666666666</ele><time>2026-04-09T12:48:40.472Z</time></trkpt><trkpt lat="45.7455475" lon="11.7388954"><ele>109.33333333333333</ele><time>2026-04-09T12:48:41.448Z</time></trkpt><trkpt lat="45.7457509" lon="11.7389516"><ele>110.0</ele><time>2026-04-09T12:48:42.443Z</time></trkpt><trkpt lat="45.7459537" lon="11.7390097"><ele>110.33333333333333</ele><time>2026-04-09T12:48:43.507Z</time></trkpt><trkpt lat="45.7461542" lon="11.7390672"><ele>110.66666666666666</ele><time>2026-04-09T12:48:44.464Z</time></trkpt><trkpt lat="45.7463509" lon="11.7391238"><ele>111.0</ele><time>2026-04-09T12:48:45.44Z</time></trkpt><trkpt lat="45.7465446" lon="11.73918"><ele>111.0</ele><time>2026-04-09T12:48:46.439Z</time></trkpt><trkpt lat="45.746736" lon="11.739233"><ele>111.0</ele><time>2026-04-09T12:48:47.457Z</time></trkpt><trkpt lat="45.7469238" lon="11.7392747"><ele>111.0</ele><time>2026-04-09T12:48:48.443Z</time></trkpt><trkpt lat="45.7471094" lon="11.739305"><ele>111.0</ele><time>2026-04-09T12:48:49.446Z</time></trkpt><trkpt lat="45.7472922" lon="11.7393273"><ele>111.0</ele><time>2026-04-09T12:48:50.446Z</time></trkpt><trkpt lat="45.747473" lon="11.7393454"><ele>111.0</ele><time>2026-04-09T12:48:51.444Z</time></trkpt><trkpt lat="45.7476523" lon="11.7393593"><ele>111.0</ele><time>2026-04-09T12:48:52.45Z</time></trkpt><trkpt lat="45.7478303" lon="11.7393717"><ele>111.0</ele><time>2026-04-09T12:48:53.441Z</time></trkpt><trkpt lat="45.7479995" lon="11.7393809"><ele>111.0</ele><time>2026-04-09T12:48:54.437Z</time></trkpt><trkpt lat="45.7481584" lon="11.7393846"><ele>109.66666666666666</ele><time>2026-04-09T12:48:55.474Z</time></trkpt><trkpt lat="45.7483123" lon="11.7393799"><ele>108.33333333333333</ele><time>2026-04-09T12:48:56.454Z</time></trkpt><trkpt lat="45.7484665" lon="11.7393668"><ele>107.0</ele><time>2026-04-09T12:48:57.451Z</time></trkpt><trkpt lat="45.7486202" lon="11.7393488"><ele>106.66666666666666</ele><time>2026-04-09T12:48:58.438Z</time></trkpt><trkpt lat="45.7487756" lon="11.7393244"><ele>106.33333333333334</ele><time>2026-04-09T12:48:59.444Z</time></trkpt><trkpt lat="45.748931" lon="11.7392917"><ele>106.0</ele><time>2026-04-09T12:49:00.444Z</time></trkpt><trkpt lat="45.7490859" lon="11.7392569"><ele>106.0</ele><time>2026-04-09T12:49:01.445Z</time></trkpt><trkpt lat="45.7492211" lon="11.7392287"><ele>106.0</ele><time>2026-04-09T12:49:02.443Z</time></trkpt><trkpt lat="45.7493541" lon="11.7392086"><ele>106.0</ele><time>2026-04-09T12:49:03.438Z</time></trkpt><trkpt lat="45.7494908" lon="11.7391849"><ele>106.0</ele><time>2026-04-09T12:49:04.437Z</time></trkpt><trkpt lat="45.749627" lon="11.7391659"><ele>106.5</ele><time>2026-04-09T12:49:05.45Z</time></trkpt><trkpt lat="45.7497618" lon="11.7391514"><ele>107.0</ele><time>2026-04-09T12:49:06.452Z</time></trkpt><trkpt lat="45.7498989" lon="11.7391458"><ele>107.5</ele><time>2026-04-09T12:49:07.446Z</time></trkpt><trkpt lat="45.7500335" lon="11.7391449"><ele>108.0</ele><time>2026-04-09T12:49:08.445Z</time></trkpt><trkpt lat="45.7501581" lon="11.7391523"><ele>108.80000000000001</ele><time>2026-04-09T12:49:09.449Z</time></trkpt><trkpt lat="45.7502756" lon="11.7391596"><ele>109.60000000000001</ele><time>2026-04-09T12:49:10.447Z</time></trkpt><trkpt lat="45.7503843" lon="11.739164"><ele>110.39999999999999</ele><time>2026-04-09T12:49:11.451Z</time></trkpt><trkpt lat="45.7504885" lon="11.7391693"><ele>111.19999999999999</ele><time>2026-04-09T12:49:12.449Z</time></trkpt><trkpt lat="45.7505866" lon="11.7391735"><ele>112.0</ele><time>2026-04-09T12:49:13.454Z</time></trkpt><trkpt lat="45.7506868" lon="11.7391803"><ele>112.00000000000001</ele><time>2026-04-09T12:49:14.446Z</time></trkpt><trkpt lat="45.7507805" lon="11.7391868"><ele>112.0</ele><time>2026-04-09T12:49:15.45Z</time></trkpt><trkpt lat="45.7508649" lon="11.739189"><ele>112.0</ele><time>2026-04-09T12:49:16.447Z</time></trkpt><trkpt lat="45.7509326" lon="11.7391868"><ele>112.0</ele><time>2026-04-09T12:49:17.438Z</time></trkpt><trkpt lat="45.7510121" lon="11.7391725"><ele>112.00000000000001</ele><time>2026-04-09T12:49:19.456Z</time></trkpt><trkpt lat="45.7510965" lon="11.7391589"><ele>112.0</ele><time>2026-04-09T12:49:23.441Z</time></trkpt><trkpt lat="45.7511936" lon="11.7391787"><ele>111.66666666666667</ele><time>2026-04-09T12:49:25.444Z</time></trkpt><trkpt lat="45.7512583" lon="11.7391898"><ele>111.33333333333334</ele><time>2026-04-09T12:49:26.443Z</time></trkpt><trkpt lat="45.7513315" lon="11.7391956"><ele>111.0</ele><time>2026-04-09T12:49:27.441Z</time></trkpt><trkpt lat="45.75141" lon="11.7391998"><ele>110.66666666666666</ele><time>2026-04-09T12:49:28.444Z</time></trkpt><trkpt lat="45.7514885" lon="11.7392024"><ele>110.33333333333333</ele><time>2026-04-09T12:49:29.454Z</time></trkpt><trkpt lat="45.7515751" lon="11.7392058"><ele>110.0</ele><time>2026-04-09T12:49:30.445Z</time></trkpt><trkpt lat="45.7516673" lon="11.7392102"><ele>109.99999999999999</ele><time>2026-04-09T12:49:31.456Z</time></trkpt><trkpt lat="45.7517634" lon="11.7392159"><ele>110.0</ele><time>2026-04-09T12:49:32.441Z</time></trkpt><trkpt lat="45.7518566" lon="11.7392204"><ele>110.0</ele><time>2026-04-09T12:49:33.435Z</time></trkpt><trkpt lat="45.7519391" lon="11.7392251"><ele>110.0</ele><time>2026-04-09T12:49:34.442Z</time></trkpt><trkpt lat="45.7520145" lon="11.7392301"><ele>109.99999999999999</ele><time>2026-04-09T12:49:35.442Z</time></trkpt><trkpt lat="45.7520827" lon="11.739235"><ele>110.0</ele><time>2026-04-09T12:49:36.439Z</time></trkpt><trkpt lat="45.7521459" lon="11.7392394"><ele>110.33333333333333</ele><time>2026-04-09T12:49:37.436Z</time></trkpt><trkpt lat="45.7522153" lon="11.7392442"><ele>110.66666666666666</ele><time>2026-04-09T12:49:38.443Z</time></trkpt><trkpt lat="45.7522939" lon="11.7392517"><ele>111.0</ele><time>2026-04-09T12:49:39.44Z</time></trkpt><trkpt lat="45.7523752" lon="11.7392587"><ele>111.33333333333334</ele><time>2026-04-09T12:49:40.44Z</time></trkpt><trkpt lat="45.7524492" lon="11.7392639"><ele>111.66666666666667</ele><time>2026-04-09T12:49:41.444Z</time></trkpt><trkpt lat="45.7525231" lon="11.7392682"><ele>112.0</ele><time>2026-04-09T12:49:42.439Z</time></trkpt><trkpt lat="45.7525984" lon="11.7392743"><ele>112.00000000000001</ele><time>2026-04-09T12:49:43.443Z</time></trkpt><trkpt lat="45.7526753" lon="11.7392868"><ele>112.0</ele><time>2026-04-09T12:49:44.438Z</time></trkpt><trkpt lat="45.752757" lon="11.7393023"><ele>112.0</ele><time>2026-04-09T12:49:45.44Z</time></trkpt><trkpt lat="45.7528453" lon="11.7393176"><ele>112.0</ele><time>2026-04-09T12:49:46.444Z</time></trkpt><trkpt lat="45.7529288" lon="11.739333"><ele>112.00000000000001</ele><time>2026-04-09T12:49:47.453Z</time></trkpt><trkpt lat="45.7530073" lon="11.7393471"><ele>112.0</ele><time>2026-04-09T12:49:48.44Z</time></trkpt><trkpt lat="45.7530875" lon="11.7393619"><ele>112.00000000000001</ele><time>2026-04-09T12:49:49.439Z</time></trkpt><trkpt lat="45.7531691" lon="11.7393823"><ele>112.0</ele><time>2026-04-09T12:49:50.45Z</time></trkpt><trkpt lat="45.7532462" lon="11.739392"><ele>112.0</ele><time>2026-04-09T12:49:51.441Z</time></trkpt><trkpt lat="45.7533275" lon="11.7394159"><ele>112.0</ele><time>2026-04-09T12:49:52.442Z</time></trkpt><trkpt lat="45.753421" lon="11.7394342"><ele>112.00000000000001</ele><time>2026-04-09T12:49:53.439Z</time></trkpt><trkpt lat="45.7535189" lon="11.739452"><ele>112.0</ele><time>2026-04-09T12:49:54.439Z</time></trkpt><trkpt lat="45.7536172" lon="11.7394728"><ele>112.6</ele><time>2026-04-09T12:49:55.44Z</time></trkpt><trkpt lat="45.7537074" lon="11.7394907"><ele>113.19999999999999</ele><time>2026-04-09T12:49:56.439Z</time></trkpt><trkpt lat="45.753803" lon="11.7395155"><ele>113.8</ele><time>2026-04-09T12:49:57.44Z</time></trkpt><trkpt lat="45.7538936" lon="11.739542"><ele>114.4</ele><time>2026-04-09T12:49:58.438Z</time></trkpt><trkpt lat="45.7539861" lon="11.7395672"><ele>115.0</ele><time>2026-04-09T12:49:59.447Z</time></trkpt><trkpt lat="45.7540735" lon="11.7395961"><ele>115.00000000000001</ele><time>2026-04-09T12:50:00.447Z</time></trkpt><trkpt lat="45.7541566" lon="11.7396249"><ele>115.0</ele><time>2026-04-09T12:50:01.446Z</time></trkpt><trkpt lat="45.7542382" lon="11.739652"><ele>115.0</ele><time>2026-04-09T12:50:02.437Z</time></trkpt><trkpt lat="45.7543195" lon="11.7396814"><ele>115.0</ele><time>2026-04-09T12:50:03.442Z</time></trkpt><trkpt lat="45.7544045" lon="11.7397106"><ele>115.00000000000001</ele><time>2026-04-09T12:50:04.44Z</time></trkpt><trkpt lat="45.7544918" lon="11.7397397"><ele>115.0</ele><time>2026-04-09T12:50:05.438Z</time></trkpt><trkpt lat="45.7545811" lon="11.7397684"><ele>114.8</ele><time>2026-04-09T12:50:06.45Z</time></trkpt><trkpt lat="45.7546701" lon="11.7397988"><ele>114.6</ele><time>2026-04-09T12:50:07.446Z</time></trkpt><trkpt lat="45.7547602" lon="11.7398273"><ele>114.4</ele><time>2026-04-09T12:50:08.443Z</time></trkpt><trkpt lat="45.7548529" lon="11.7398582"><ele>114.2</ele><time>2026-04-09T12:50:09.445Z</time></trkpt><trkpt lat="45.754946" lon="11.7398897"><ele>114.0</ele><time>2026-04-09T12:50:10.444Z</time></trkpt><trkpt lat="45.755039" lon="11.7399235"><ele>114.0</ele><time>2026-04-09T12:50:11.447Z</time></trkpt><trkpt lat="45.7551289" lon="11.7399548"><ele>114.0</ele><time>2026-04-09T12:50:12.45Z</time></trkpt><trkpt lat="45.7552105" lon="11.7399825"><ele>114.0</ele><time>2026-04-09T12:50:13.522Z</time></trkpt><trkpt lat="45.7552908" lon="11.7400094"><ele>114.0</ele><time>2026-04-09T12:50:14.442Z</time></trkpt><trkpt lat="45.7553752" lon="11.7400353"><ele>114.0</ele><time>2026-04-09T12:50:15.448Z</time></trkpt><trkpt lat="45.7554646" lon="11.740062"><ele>114.0</ele><time>2026-04-09T12:50:16.448Z</time></trkpt><trkpt lat="45.7555602" lon="11.7400871"><ele>114.2</ele><time>2026-04-09T12:50:17.444Z</time></trkpt><trkpt lat="45.7556584" lon="11.740105"><ele>114.4</ele><time>2026-04-09T12:50:18.439Z</time></trkpt><trkpt lat="45.7557574" lon="11.740116"><ele>114.6</ele><time>2026-04-09T12:50:19.443Z</time></trkpt><trkpt lat="45.7558598" lon="11.740114"><ele>114.8</ele><time>2026-04-09T12:50:20.449Z</time></trkpt><trkpt lat="45.7559574" lon="11.7400958"><ele>115.0</ele><time>2026-04-09T12:50:21.447Z</time></trkpt><trkpt lat="45.7560504" lon="11.7400736"><ele>114.6</ele><time>2026-04-09T12:50:22.439Z</time></trkpt><trkpt lat="45.7561456" lon="11.7400454"><ele>114.2</ele><time>2026-04-09T12:50:23.446Z</time></trkpt><trkpt lat="45.7562394" lon="11.7400163"><ele>113.80000000000001</ele><time>2026-04-09T12:50:24.44Z</time></trkpt><trkpt lat="45.7563306" lon="11.7399866"><ele>113.4</ele><time>2026-04-09T12:50:25.45Z</time></trkpt><trkpt lat="45.7564236" lon="11.7399585"><ele>113.0</ele><time>2026-04-09T12:50:26.439Z</time></trkpt><trkpt lat="45.7565164" lon="11.7399326"><ele>112.99999999999999</ele><time>2026-04-09T12:50:27.441Z</time></trkpt><trkpt lat="45.7566113" lon="11.7399063"><ele>113.0</ele><time>2026-04-09T12:50:28.438Z</time></trkpt><trkpt lat="45.7567072" lon="11.7398813"><ele>113.0</ele><time>2026-04-09T12:50:29.441Z</time></trkpt><trkpt lat="45.7567967" lon="11.739858"><ele>113.0</ele><time>2026-04-09T12:50:30.435Z</time></trkpt><trkpt lat="45.756878" lon="11.7398395"><ele>112.99999999999999</ele><time>2026-04-09T12:50:31.442Z</time></trkpt><trkpt lat="45.7569558" lon="11.7398224"><ele>113.0</ele><time>2026-04-09T12:50:32.436Z</time></trkpt><trkpt lat="45.7570344" lon="11.7398023"><ele>113.16666666666666</ele><time>2026-04-09T12:50:33.443Z</time></trkpt><trkpt lat="45.7571127" lon="11.7397835"><ele>113.33333333333333</ele><time>2026-04-09T12:50:34.437Z</time></trkpt><trkpt lat="45.7571883" lon="11.7397623"><ele>113.5</ele><time>2026-04-09T12:50:35.44Z</time></trkpt><trkpt lat="45.7572714" lon="11.7397411"><ele>113.66666666666666</ele><time>2026-04-09T12:50:36.443Z</time></trkpt><trkpt lat="45.7573593" lon="11.7397197"><ele>113.83333333333333</ele><time>2026-04-09T12:50:37.443Z</time></trkpt><trkpt lat="45.7574499" lon="11.7396945"><ele>114.0</ele><time>2026-04-09T12:50:38.436Z</time></trkpt><trkpt lat="45.757542" lon="11.7396694"><ele>114.0</ele><time>2026-04-09T12:50:39.437Z</time></trkpt><trkpt lat="45.7576324" lon="11.7396415"><ele>114.0</ele><time>2026-04-09T12:50:40.44Z</time></trkpt><trkpt lat="45.7577186" lon="11.739617"><ele>114.0</ele><time>2026-04-09T12:50:41.439Z</time></trkpt><trkpt lat="45.7578068" lon="11.7395932"><ele>114.0</ele><time>2026-04-09T12:50:42.447Z</time></trkpt><trkpt lat="45.7578991" lon="11.7395646"><ele>114.0</ele><time>2026-04-09T12:50:43.442Z</time></trkpt><trkpt lat="45.7579958" lon="11.739541"><ele>114.4</ele><time>2026-04-09T12:50:44.448Z</time></trkpt><trkpt lat="45.7580827" lon="11.7395212"><ele>114.80000000000001</ele><time>2026-04-09T12:50:45.444Z</time></trkpt><trkpt lat="45.758163" lon="11.7395009"><ele>115.19999999999999</ele><time>2026-04-09T12:50:46.436Z</time></trkpt><trkpt lat="45.7582488" lon="11.7394781"><ele>115.6</ele><time>2026-04-09T12:50:47.444Z</time></trkpt><trkpt lat="45.7583444" lon="11.7394521"><ele>116.0</ele><time>2026-04-09T12:50:48.434Z</time></trkpt><trkpt lat="45.7584395" lon="11.7394288"><ele>116.0</ele><time>2026-04-09T12:50:49.443Z</time></trkpt><trkpt lat="45.7585451" lon="11.7393786"><ele>116.0</ele><time>2026-04-09T12:50:50.442Z</time></trkpt><trkpt lat="45.7586508" lon="11.7393419"><ele>116.0</ele><time>2026-04-09T12:50:51.438Z</time></trkpt><trkpt lat="45.758745" lon="11.7392986"><ele>116.0</ele><time>2026-04-09T12:50:52.441Z</time></trkpt><trkpt lat="45.7588316" lon="11.7392514"><ele>116.0</ele><time>2026-04-09T12:50:53.442Z</time></trkpt><trkpt lat="45.7589188" lon="11.7392105"><ele>115.99999999999999</ele><time>2026-04-09T12:50:54.444Z</time></trkpt><trkpt lat="45.7589998" lon="11.7391637"><ele>116.0</ele><time>2026-04-09T12:50:55.444Z</time></trkpt><trkpt lat="45.7590795" lon="11.7391186"><ele>116.0</ele><time>2026-04-09T12:50:56.445Z</time></trkpt><trkpt lat="45.7591581" lon="11.7390737"><ele>116.0</ele><time>2026-04-09T12:50:57.447Z</time></trkpt><trkpt lat="45.7592355" lon="11.7390231"><ele>115.99999999999999</ele><time>2026-04-09T12:50:58.45Z</time></trkpt><trkpt lat="45.7593109" lon="11.7389721"><ele>116.0</ele><time>2026-04-09T12:50:59.438Z</time></trkpt><trkpt lat="45.7593889" lon="11.7389219"><ele>116.49999999999999</ele><time>2026-04-09T12:51:00.44Z</time></trkpt><trkpt lat="45.7594678" lon="11.7388759"><ele>117.0</ele><time>2026-04-09T12:51:01.461Z</time></trkpt><trkpt lat="45.7595478" lon="11.7388322"><ele>117.5</ele><time>2026-04-09T12:51:02.448Z</time></trkpt><trkpt lat="45.7596285" lon="11.7387854"><ele>118.0</ele><time>2026-04-09T12:51:03.44Z</time></trkpt><trkpt lat="45.7597112" lon="11.7387374"><ele>118.49999999999999</ele><time>2026-04-09T12:51:04.444Z</time></trkpt><trkpt lat="45.7597909" lon="11.7386921"><ele>119.0</ele><time>2026-04-09T12:51:05.439Z</time></trkpt><trkpt lat="45.7598686" lon="11.7386458"><ele>118.99999999999999</ele><time>2026-04-09T12:51:06.439Z</time></trkpt><trkpt lat="45.7599479" lon="11.7385971"><ele>119.0</ele><time>2026-04-09T12:51:07.436Z</time></trkpt><trkpt lat="45.7600275" lon="11.7385491"><ele>119.0</ele><time>2026-04-09T12:51:08.436Z</time></trkpt><trkpt lat="45.7601058" lon="11.7385018"><ele>119.0</ele><time>2026-04-09T12:51:09.443Z</time></trkpt><trkpt lat="45.7601818" lon="11.7384568"><ele>118.99999999999999</ele><time>2026-04-09T12:51:10.441Z</time></trkpt><trkpt lat="45.7602578" lon="11.7384128"><ele>119.0</ele><time>2026-04-09T12:51:11.438Z</time></trkpt><trkpt lat="45.760333" lon="11.7383683"><ele>118.83333333333333</ele><time>2026-04-09T12:51:12.449Z</time></trkpt><trkpt lat="45.7604049" lon="11.7383237"><ele>118.66666666666666</ele><time>2026-04-09T12:51:13.447Z</time></trkpt><trkpt lat="45.7604683" lon="11.7382874"><ele>118.5</ele><time>2026-04-09T12:51:14.44Z</time></trkpt><trkpt lat="45.7605547" lon="11.7382431"><ele>118.33333333333334</ele><time>2026-04-09T12:51:16.45Z</time></trkpt><trkpt lat="45.7606294" lon="11.7382185"><ele>118.16666666666667</ele><time>2026-04-09T12:51:23.451Z</time></trkpt><trkpt lat="45.7607134" lon="11.7382439"><ele>118.0</ele><time>2026-04-09T12:51:27.454Z</time></trkpt><trkpt lat="45.7607779" lon="11.7383345"><ele>118.00000000000001</ele><time>2026-04-09T12:51:31.464Z</time></trkpt><trkpt lat="45.7608062" lon="11.7384783"><ele>118.0</ele><time>2026-04-09T12:51:33.45Z</time></trkpt><trkpt lat="45.7608146" lon="11.7385697"><ele>118.0</ele><time>2026-04-09T12:51:34.437Z</time></trkpt><trkpt lat="45.7608201" lon="11.7387344"><ele>118.0</ele><time>2026-04-09T12:51:36.446Z</time></trkpt><trkpt lat="45.7608235" lon="11.7388533"><ele>118.00000000000001</ele><time>2026-04-09T12:51:38.442Z</time></trkpt><trkpt lat="45.760825" lon="11.7389559"><ele>118.0</ele><time>2026-04-09T12:51:41.45Z</time></trkpt><trkpt lat="45.7608215" lon="11.7391202"><ele>118.80000000000001</ele><time>2026-04-09T12:51:47.453Z</time></trkpt><trkpt lat="45.7608216" lon="11.7392168"><ele>119.60000000000001</ele><time>2026-04-09T12:51:48.441Z</time></trkpt><trkpt lat="45.7608231" lon="11.7393369"><ele>120.39999999999999</ele><time>2026-04-09T12:51:49.446Z</time></trkpt><trkpt lat="45.7608253" lon="11.7394778"><ele>121.19999999999999</ele><time>2026-04-09T12:51:50.446Z</time></trkpt><trkpt lat="45.7608277" lon="11.7396353"><ele>122.0</ele><time>2026-04-09T12:51:51.446Z</time></trkpt><trkpt lat="45.760831" lon="11.7397941"><ele>122.39999999999999</ele><time>2026-04-09T12:51:52.453Z</time></trkpt><trkpt lat="45.7608339" lon="11.7399482"><ele>122.79999999999998</ele><time>2026-04-09T12:51:53.463Z</time></trkpt><trkpt lat="45.760832" lon="11.7400991"><ele>123.2</ele><time>2026-04-09T12:51:54.45Z</time></trkpt><trkpt lat="45.7608229" lon="11.7402418"><ele>123.6</ele><time>2026-04-09T12:51:55.444Z</time></trkpt><trkpt lat="45.7608131" lon="11.7403643"><ele>124.0</ele><time>2026-04-09T12:51:56.448Z</time></trkpt><trkpt lat="45.7608021" lon="11.7404838"><ele>124.33333333333334</ele><time>2026-04-09T12:51:57.442Z</time></trkpt><trkpt lat="45.760793" lon="11.7406059"><ele>124.66666666666667</ele><time>2026-04-09T12:51:58.449Z</time></trkpt><trkpt lat="45.7607863" lon="11.7407208"><ele>125.0</ele><time>2026-04-09T12:51:59.444Z</time></trkpt><trkpt lat="45.7607804" lon="11.7408313"><ele>125.33333333333334</ele><time>2026-04-09T12:52:00.444Z</time></trkpt><trkpt lat="45.7607907" lon="11.7409319"><ele>125.66666666666667</ele><time>2026-04-09T12:52:01.482Z</time></trkpt><trkpt lat="45.7608185" lon="11.741015"><ele>126.0</ele><time>2026-04-09T12:52:02.438Z</time></trkpt><trkpt lat="45.7609231" lon="11.7410908"><ele>126.19999999999999</ele><time>2026-04-09T12:52:04.44Z</time></trkpt><trkpt lat="45.7609933" lon="11.7410703"><ele>126.39999999999999</ele><time>2026-04-09T12:52:05.446Z</time></trkpt><trkpt lat="45.761077" lon="11.7410238"><ele>126.6</ele><time>2026-04-09T12:52:06.439Z</time></trkpt><trkpt lat="45.7611754" lon="11.740966"><ele>126.8</ele><time>2026-04-09T12:52:07.442Z</time></trkpt><trkpt lat="45.761286" lon="11.7408979"><ele>127.0</ele><time>2026-04-09T12:52:08.436Z</time></trkpt><trkpt lat="45.7614029" lon="11.7408291"><ele>127.0</ele><time>2026-04-09T12:52:09.442Z</time></trkpt><trkpt lat="45.7615288" lon="11.7407613"><ele>127.0</ele><time>2026-04-09T12:52:10.449Z</time></trkpt><trkpt lat="45.7616617" lon="11.7406939"><ele>127.0</ele><time>2026-04-09T12:52:11.439Z</time></trkpt><trkpt lat="45.7617903" lon="11.7406235"><ele>127.0</ele><time>2026-04-09T12:52:12.439Z</time></trkpt><trkpt lat="45.7619171" lon="11.7405499"><ele>127.0</ele><time>2026-04-09T12:52:13.443Z</time></trkpt><trkpt lat="45.7620428" lon="11.740477"><ele>127.0</ele><time>2026-04-09T12:52:14.444Z</time></trkpt><trkpt lat="45.7621649" lon="11.7404079"><ele>127.0</ele><time>2026-04-09T12:52:15.439Z</time></trkpt><trkpt lat="45.7622842" lon="11.7403383"><ele>127.0</ele><time>2026-04-09T12:52:16.447Z</time></trkpt><trkpt lat="45.7624012" lon="11.7402706"><ele>127.25</ele><time>2026-04-09T12:52:17.438Z</time></trkpt><trkpt lat="45.7625181" lon="11.7402034"><ele>127.5</ele><time>2026-04-09T12:52:18.435Z</time></trkpt><trkpt lat="45.7626344" lon="11.7401348"><ele>127.75</ele><time>2026-04-09T12:52:19.449Z</time></trkpt><trkpt lat="45.7627521" lon="11.7400668"><ele>128.0</ele><time>2026-04-09T12:52:20.444Z</time></trkpt><trkpt lat="45.7628719" lon="11.7399963"><ele>128.75</ele><time>2026-04-09T12:52:21.448Z</time></trkpt><trkpt lat="45.7629929" lon="11.739925"><ele>129.5</ele><time>2026-04-09T12:52:22.433Z</time></trkpt><trkpt lat="45.763115" lon="11.7398538"><ele>130.25</ele><time>2026-04-09T12:52:23.439Z</time></trkpt><trkpt lat="45.763241" lon="11.7397819"><ele>131.0</ele><time>2026-04-09T12:52:24.447Z</time></trkpt><trkpt lat="45.7633676" lon="11.7397095"><ele>131.0</ele><time>2026-04-09T12:52:25.444Z</time></trkpt><trkpt lat="45.7634945" lon="11.7396347"><ele>131.0</ele><time>2026-04-09T12:52:26.445Z</time></trkpt><trkpt lat="45.7636209" lon="11.7395609"><ele>131.0</ele><time>2026-04-09T12:52:27.437Z</time></trkpt><trkpt lat="45.7637475" lon="11.7394871"><ele>131.0</ele><time>2026-04-09T12:52:28.444Z</time></trkpt><trkpt lat="45.7638709" lon="11.7394173"><ele>131.25</ele><time>2026-04-09T12:52:29.438Z</time></trkpt><trkpt lat="45.7639966" lon="11.7393443"><ele>131.5</ele><time>2026-04-09T12:52:30.441Z</time></trkpt><trkpt lat="45.7641237" lon="11.7392694"><ele>131.75</ele><time>2026-04-09T12:52:31.45Z</time></trkpt><trkpt lat="45.7642511" lon="11.7391955"><ele>132.0</ele><time>2026-04-09T12:52:32.45Z</time></trkpt><trkpt lat="45.7643758" lon="11.7391241"><ele>132.0</ele><time>2026-04-09T12:52:33.443Z</time></trkpt><trkpt lat="45.7645005" lon="11.7390504"><ele>132.0</ele><time>2026-04-09T12:52:34.439Z</time></trkpt><trkpt lat="45.7646261" lon="11.738982"><ele>132.0</ele><time>2026-04-09T12:52:35.444Z</time></trkpt><trkpt lat="45.7647531" lon="11.7389126"><ele>132.0</ele><time>2026-04-09T12:52:36.441Z</time></trkpt><trkpt lat="45.7648801" lon="11.7388424"><ele>132.0</ele><time>2026-04-09T12:52:37.449Z</time></trkpt><trkpt lat="45.7650126" lon="11.7387732"><ele>132.0</ele><time>2026-04-09T12:52:38.445Z</time></trkpt><trkpt lat="45.7651474" lon="11.7387012"><ele>132.0</ele><time>2026-04-09T12:52:39.443Z</time></trkpt><trkpt lat="45.7652845" lon="11.7386435"><ele>132.0</ele><time>2026-04-09T12:52:40.441Z</time></trkpt><trkpt lat="45.7654217" lon="11.7385989"><ele>132.25</ele><time>2026-04-09T12:52:41.439Z</time></trkpt><trkpt lat="45.7655546" lon="11.7385696"><ele>132.5</ele><time>2026-04-09T12:52:42.431Z</time></trkpt><trkpt lat="45.7656775" lon="11.7385502"><ele>132.75</ele><time>2026-04-09T12:52:43.448Z</time></trkpt><trkpt lat="45.7657962" lon="11.7385355"><ele>133.0</ele><time>2026-04-09T12:52:44.441Z</time></trkpt><trkpt lat="45.7659082" lon="11.7385253"><ele>132.8</ele><time>2026-04-09T12:52:45.438Z</time></trkpt><trkpt lat="45.7660097" lon="11.7385107"><ele>132.60000000000002</ele><time>2026-04-09T12:52:46.446Z</time></trkpt><trkpt lat="45.7661018" lon="11.7384993"><ele>132.39999999999998</ele><time>2026-04-09T12:52:47.445Z</time></trkpt><trkpt lat="45.7661975" lon="11.738489"><ele>132.2</ele><time>2026-04-09T12:52:48.435Z</time></trkpt><trkpt lat="45.7662912" lon="11.7384797"><ele>132.0</ele><time>2026-04-09T12:52:49.435Z</time></trkpt><trkpt lat="45.7663853" lon="11.7384724"><ele>132.0</ele><time>2026-04-09T12:52:50.443Z</time></trkpt><trkpt lat="45.7664821" lon="11.7384653"><ele>132.0</ele><time>2026-04-09T12:52:51.456Z</time></trkpt><trkpt lat="45.7665798" lon="11.7384582"><ele>132.0</ele><time>2026-04-09T12:52:52.443Z</time></trkpt><trkpt lat="45.7666769" lon="11.7384487"><ele>132.0</ele><time>2026-04-09T12:52:53.439Z</time></trkpt><trkpt lat="45.7667638" lon="11.7384428"><ele>132.0</ele><time>2026-04-09T12:52:54.441Z</time></trkpt><trkpt lat="45.7668412" lon="11.7384381"><ele>132.2</ele><time>2026-04-09T12:52:55.449Z</time></trkpt><trkpt lat="45.7669116" lon="11.7384348"><ele>132.39999999999998</ele><time>2026-04-09T12:52:56.442Z</time></trkpt><trkpt lat="45.7670196" lon="11.7384313"><ele>132.60000000000002</ele><time>2026-04-09T12:52:58.441Z</time></trkpt><trkpt lat="45.7670978" lon="11.7384284"><ele>132.8</ele><time>2026-04-09T12:53:00.446Z</time></trkpt><trkpt lat="45.7671951" lon="11.7384339"><ele>133.0</ele><time>2026-04-09T12:53:26.455Z</time></trkpt><trkpt lat="45.7673117" lon="11.7384255"><ele>133.0</ele><time>2026-04-09T12:53:28.438Z</time></trkpt><trkpt lat="45.7673809" lon="11.7384208"><ele>133.0</ele><time>2026-04-09T12:53:29.441Z</time></trkpt><trkpt lat="45.7674607" lon="11.7384156"><ele>133.0</ele><time>2026-04-09T12:53:30.442Z</time></trkpt><trkpt lat="45.7675425" lon="11.7384091"><ele>133.0</ele><time>2026-04-09T12:53:31.449Z</time></trkpt><trkpt lat="45.7676237" lon="11.7384044"><ele>133.0</ele><time>2026-04-09T12:53:32.44Z</time></trkpt><trkpt lat="45.7677028" lon="11.7383986"><ele>133.0</ele><time>2026-04-09T12:53:33.438Z</time></trkpt><trkpt lat="45.7677755" lon="11.7383921"><ele>133.0</ele><time>2026-04-09T12:53:34.448Z</time></trkpt><trkpt lat="45.767849" lon="11.7383815"><ele>133.0</ele><time>2026-04-09T12:53:35.449Z</time></trkpt><trkpt lat="45.7679215" lon="11.7383725"><ele>133.0</ele><time>2026-04-09T12:53:36.449Z</time></trkpt><trkpt lat="45.7680405" lon="11.7383665"><ele>133.0</ele><time>2026-04-09T12:53:38.446Z</time></trkpt><trkpt lat="45.768126" lon="11.7383456"><ele>133.0</ele><time>2026-04-09T12:53:40.455Z</time></trkpt><trkpt lat="45.768199" lon="11.738346"><ele>133.0</ele><time>2026-04-09T12:53:54.445Z</time></trkpt><trkpt lat="45.7683336" lon="11.738349"><ele>133.0</ele><time>2026-04-09T12:53:56.448Z</time></trkpt><trkpt lat="45.7684326" lon="11.7383465"><ele>133.0</ele><time>2026-04-09T12:53:57.446Z</time></trkpt><trkpt lat="45.7685466" lon="11.7383411"><ele>133.0</ele><time>2026-04-09T12:53:58.437Z</time></trkpt><trkpt lat="45.7686521" lon="11.7383346"><ele>133.0</ele><time>2026-04-09T12:53:59.442Z</time></trkpt><trkpt lat="45.768753" lon="11.7383277"><ele>133.0</ele><time>2026-04-09T12:54:00.438Z</time></trkpt><trkpt lat="45.7688424" lon="11.7383266"><ele>133.6</ele><time>2026-04-09T12:54:01.445Z</time></trkpt><trkpt lat="45.768933" lon="11.7383274"><ele>134.20000000000002</ele><time>2026-04-09T12:54:02.437Z</time></trkpt><trkpt lat="45.7690268" lon="11.7383277"><ele>134.8</ele><time>2026-04-09T12:54:03.444Z</time></trkpt><trkpt lat="45.7691389" lon="11.7383398"><ele>135.4</ele><time>2026-04-09T12:54:04.429Z</time></trkpt><trkpt lat="45.7692552" lon="11.7383492"><ele>136.0</ele><time>2026-04-09T12:54:05.44Z</time></trkpt><trkpt lat="45.7693647" lon="11.7383614"><ele>135.6</ele><time>2026-04-09T12:54:06.442Z</time></trkpt><trkpt lat="45.7694653" lon="11.7383838"><ele>135.2</ele><time>2026-04-09T12:54:07.447Z</time></trkpt><trkpt lat="45.7695622" lon="11.7384196"><ele>134.8</ele><time>2026-04-09T12:54:08.438Z</time></trkpt><trkpt lat="45.7696624" lon="11.7384697"><ele>134.4</ele><time>2026-04-09T12:54:09.458Z</time></trkpt><trkpt lat="45.769765" lon="11.7385238"><ele>134.0</ele><time>2026-04-09T12:54:10.442Z</time></trkpt><trkpt lat="45.7698673" lon="11.7386319"><ele>134.0</ele><time>2026-04-09T12:54:11.439Z</time></trkpt><trkpt lat="45.7699811" lon="11.7387529"><ele>134.0</ele><time>2026-04-09T12:54:12.442Z</time></trkpt><trkpt lat="45.7701062" lon="11.73888"><ele>134.0</ele><time>2026-04-09T12:54:13.436Z</time></trkpt><trkpt lat="45.7702343" lon="11.7390149"><ele>134.0</ele><time>2026-04-09T12:54:14.442Z</time></trkpt><trkpt lat="45.7703648" lon="11.7391478"><ele>134.0</ele><time>2026-04-09T12:54:15.436Z</time></trkpt><trkpt lat="45.7704957" lon="11.7392871"><ele>134.0</ele><time>2026-04-09T12:54:16.436Z</time></trkpt><trkpt lat="45.7706311" lon="11.7394238"><ele>134.0</ele><time>2026-04-09T12:54:17.438Z</time></trkpt><trkpt lat="45.7707664" lon="11.7395637"><ele>134.0</ele><time>2026-04-09T12:54:18.441Z</time></trkpt><trkpt lat="45.7708993" lon="11.7396981"><ele>134.0</ele><time>2026-04-09T12:54:19.442Z</time></trkpt><trkpt lat="45.7710393" lon="11.7398486"><ele>131.66666666666666</ele><time>2026-04-09T12:54:20.439Z</time></trkpt><trkpt lat="45.7711872" lon="11.7399693"><ele>129.33333333333334</ele><time>2026-04-09T12:54:21.439Z</time></trkpt><trkpt lat="45.7713496" lon="11.7400564"><ele>127.0</ele><time>2026-04-09T12:54:22.465Z</time></trkpt><trkpt lat="45.7715199" lon="11.7401357"><ele>127.0</ele><time>2026-04-09T12:54:23.499Z</time></trkpt><trkpt lat="45.7716996" lon="11.740211"><ele>127.0</ele><time>2026-04-09T12:54:24.438Z</time></trkpt><trkpt lat="45.7718878" lon="11.7402905"><ele>127.0</ele><time>2026-04-09T12:54:25.439Z</time></trkpt><trkpt lat="45.7720806" lon="11.7403663"><ele>129.5</ele><time>2026-04-09T12:54:26.441Z</time></trkpt><trkpt lat="45.772305" lon="11.7404118"><ele>132.0</ele><time>2026-04-09T12:54:27.444Z</time></trkpt><trkpt lat="45.7725275" lon="11.740446"><ele>132.66666666666666</ele><time>2026-04-09T12:54:28.438Z</time></trkpt><trkpt lat="45.772745" lon="11.7404742"><ele>133.33333333333331</ele><time>2026-04-09T12:54:29.435Z</time></trkpt><trkpt lat="45.7729617" lon="11.7404984"><ele>134.0</ele><time>2026-04-09T12:54:30.446Z</time></trkpt><trkpt lat="45.7731643" lon="11.7405318"><ele>134.0</ele><time>2026-04-09T12:54:31.44Z</time></trkpt><trkpt lat="45.7733591" lon="11.7405608"><ele>134.0</ele><time>2026-04-09T12:54:32.438Z</time></trkpt><trkpt lat="45.7735448" lon="11.7406071"><ele>134.0</ele><time>2026-04-09T12:54:33.436Z</time></trkpt><trkpt lat="45.773715" lon="11.740662"><ele>134.0</ele><time>2026-04-09T12:54:34.437Z</time></trkpt><trkpt lat="45.7738715" lon="11.7407595"><ele>134.0</ele><time>2026-04-09T12:54:35.438Z</time></trkpt><trkpt lat="45.7740192" lon="11.7408793"><ele>134.0</ele><time>2026-04-09T12:54:36.436Z</time></trkpt><trkpt lat="45.7741788" lon="11.7410004"><ele>134.33333333333331</ele><time>2026-04-09T12:54:37.444Z</time></trkpt><trkpt lat="45.774349" lon="11.7410755"><ele>134.66666666666666</ele><time>2026-04-09T12:54:38.446Z</time></trkpt><trkpt lat="45.7745284" lon="11.7411095"><ele>135.0</ele><time>2026-04-09T12:54:39.442Z</time></trkpt><trkpt lat="45.7747142" lon="11.7411377"><ele>135.66666666666666</ele><time>2026-04-09T12:54:40.438Z</time></trkpt><trkpt lat="45.7748939" lon="11.7411597"><ele>136.33333333333331</ele><time>2026-04-09T12:54:41.434Z</time></trkpt><trkpt lat="45.7750614" lon="11.7411803"><ele>137.0</ele><time>2026-04-09T12:54:42.434Z</time></trkpt><trkpt lat="45.7752124" lon="11.7412014"><ele>135.66666666666666</ele><time>2026-04-09T12:54:43.442Z</time></trkpt><trkpt lat="45.7753534" lon="11.7412457"><ele>134.33333333333334</ele><time>2026-04-09T12:54:44.432Z</time></trkpt><trkpt lat="45.7754948" lon="11.7413246"><ele>133.0</ele><time>2026-04-09T12:54:45.435Z</time></trkpt><trkpt lat="45.7756341" lon="11.7414266"><ele>133.0</ele><time>2026-04-09T12:54:46.439Z</time></trkpt><trkpt lat="45.7757776" lon="11.7415442"><ele>133.0</ele><time>2026-04-09T12:54:47.439Z</time></trkpt><trkpt lat="45.7759242" lon="11.7416713"><ele>133.0</ele><time>2026-04-09T12:54:48.435Z</time></trkpt><trkpt lat="45.7760699" lon="11.7417968"><ele>133.33333333333334</ele><time>2026-04-09T12:54:49.437Z</time></trkpt><trkpt lat="45.7762135" lon="11.7419158"><ele>133.66666666666666</ele><time>2026-04-09T12:54:50.441Z</time></trkpt><trkpt lat="45.7763673" lon="11.742015"><ele>134.0</ele><time>2026-04-09T12:54:51.444Z</time></trkpt><trkpt lat="45.7765321" lon="11.7420777"><ele>134.0</ele><time>2026-04-09T12:54:52.434Z</time></trkpt><trkpt lat="45.7767071" lon="11.7421138"><ele>134.0</ele><time>2026-04-09T12:54:53.437Z</time></trkpt><trkpt lat="45.776886" lon="11.7421488"><ele>134.0</ele><time>2026-04-09T12:54:54.437Z</time></trkpt><trkpt lat="45.7770738" lon="11.7421563"><ele>134.0</ele><time>2026-04-09T12:54:55.449Z</time></trkpt><trkpt lat="45.7772652" lon="11.7421681"><ele>134.0</ele><time>2026-04-09T12:54:56.434Z</time></trkpt><trkpt lat="45.7774535" lon="11.7421789"><ele>134.0</ele><time>2026-04-09T12:54:57.444Z</time></trkpt><trkpt lat="45.7776435" lon="11.7421718"><ele>134.33333333333331</ele><time>2026-04-09T12:54:58.446Z</time></trkpt><trkpt lat="45.7778315" lon="11.7421376"><ele>134.66666666666666</ele><time>2026-04-09T12:54:59.446Z</time></trkpt><trkpt lat="45.7780171" lon="11.7420824"><ele>135.0</ele><time>2026-04-09T12:55:00.444Z</time></trkpt><trkpt lat="45.7782014" lon="11.7420084"><ele>135.0</ele><time>2026-04-09T12:55:01.445Z</time></trkpt><trkpt lat="45.7783714" lon="11.7419258"><ele>135.0</ele><time>2026-04-09T12:55:02.451Z</time></trkpt><trkpt lat="45.7785318" lon="11.7418414"><ele>135.0</ele><time>2026-04-09T12:55:03.458Z</time></trkpt><trkpt lat="45.7786679" lon="11.7417588"><ele>135.0</ele><time>2026-04-09T12:55:04.459Z</time></trkpt><trkpt lat="45.7787782" lon="11.7416893"><ele>135.0</ele><time>2026-04-09T12:55:05.438Z</time></trkpt><trkpt lat="45.7788742" lon="11.7416341"><ele>135.0</ele><time>2026-04-09T12:55:06.474Z</time></trkpt><trkpt lat="45.7789548" lon="11.7415881"><ele>135.0</ele><time>2026-04-09T12:55:07.453Z</time></trkpt><trkpt lat="45.7790236" lon="11.741555"><ele>135.0</ele><time>2026-04-09T12:55:08.442Z</time></trkpt><trkpt lat="45.7790898" lon="11.7415264"><ele>135.0</ele><time>2026-04-09T12:55:09.446Z</time></trkpt><trkpt lat="45.7791608" lon="11.7414996"><ele>135.0</ele><time>2026-04-09T12:55:10.449Z</time></trkpt><trkpt lat="45.7792228" lon="11.7414797"><ele>135.0</ele><time>2026-04-09T12:55:11.442Z</time></trkpt><trkpt lat="45.7792854" lon="11.7414625"><ele>135.0</ele><time>2026-04-09T12:55:12.446Z</time></trkpt><trkpt lat="45.7793967" lon="11.7414809"><ele>135.0</ele><time>2026-04-09T12:55:14.458Z</time></trkpt><trkpt lat="45.7794393" lon="11.7415706"><ele>135.0</ele><time>2026-04-09T12:55:15.441Z</time></trkpt><trkpt lat="45.7794429" lon="11.7416874"><ele>135.4</ele><time>2026-04-09T12:55:16.44Z</time></trkpt><trkpt lat="45.7794301" lon="11.7418182"><ele>135.8</ele><time>2026-04-09T12:55:17.438Z</time></trkpt><trkpt lat="45.7794076" lon="11.7419672"><ele>136.2</ele><time>2026-04-09T12:55:18.445Z</time></trkpt><trkpt lat="45.7793931" lon="11.7421371"><ele>136.6</ele><time>2026-04-09T12:55:19.438Z</time></trkpt><trkpt lat="45.7793836" lon="11.7423073"><ele>137.0</ele><time>2026-04-09T12:55:20.431Z</time></trkpt><trkpt lat="45.7794044" lon="11.7424679"><ele>137.0</ele><time>2026-04-09T12:55:21.448Z</time></trkpt><trkpt lat="45.7794295" lon="11.7426266"><ele>137.0</ele><time>2026-04-09T12:55:22.458Z</time></trkpt><trkpt lat="45.7794652" lon="11.7427754"><ele>137.0</ele><time>2026-04-09T12:55:23.438Z</time></trkpt><trkpt lat="45.7795146" lon="11.7429213"><ele>137.0</ele><time>2026-04-09T12:55:24.444Z</time></trkpt><trkpt lat="45.7795619" lon="11.7430549"><ele>137.0</ele><time>2026-04-09T12:55:25.438Z</time></trkpt><trkpt lat="45.7796178" lon="11.7431851"><ele>137.0</ele><time>2026-04-09T12:55:26.436Z</time></trkpt><trkpt lat="45.7796853" lon="11.7433251"><ele>137.0</ele><time>2026-04-09T12:55:27.446Z</time></trkpt><trkpt lat="45.7797595" lon="11.7434761"><ele>137.0</ele><time>2026-04-09T12:55:28.442Z</time></trkpt><trkpt lat="45.7798375" lon="11.7436265"><ele>137.0</ele><time>2026-04-09T12:55:29.454Z</time></trkpt><trkpt lat="45.7799156" lon="11.7437825"><ele>137.0</ele><time>2026-04-09T12:55:30.442Z</time></trkpt><trkpt lat="45.7799977" lon="11.7439451"><ele>137.0</ele><time>2026-04-09T12:55:31.441Z</time></trkpt><trkpt lat="45.7800825" lon="11.7441115"><ele>137.0</ele><time>2026-04-09T12:55:32.445Z</time></trkpt><trkpt lat="45.7801688" lon="11.7442777"><ele>137.0</ele><time>2026-04-09T12:55:33.438Z</time></trkpt><trkpt lat="45.7802547" lon="11.7444473"><ele>136.66666666666666</ele><time>2026-04-09T12:55:34.441Z</time></trkpt><trkpt lat="45.7803423" lon="11.7446203"><ele>136.33333333333334</ele><time>2026-04-09T12:55:35.449Z</time></trkpt><trkpt lat="45.7804315" lon="11.7447944"><ele>136.0</ele><time>2026-04-09T12:55:36.44Z</time></trkpt><trkpt lat="45.7805237" lon="11.7449779"><ele>136.0</ele><time>2026-04-09T12:55:37.436Z</time></trkpt><trkpt lat="45.7806199" lon="11.7451675"><ele>136.0</ele><time>2026-04-09T12:55:38.447Z</time></trkpt><trkpt lat="45.7807185" lon="11.7453621"><ele>136.0</ele><time>2026-04-09T12:55:39.455Z</time></trkpt><trkpt lat="45.7808181" lon="11.7455562"><ele>136.0</ele><time>2026-04-09T12:55:40.468Z</time></trkpt><trkpt lat="45.7809185" lon="11.745751"><ele>136.0</ele><time>2026-04-09T12:55:41.444Z</time></trkpt><trkpt lat="45.7810191" lon="11.7459437"><ele>136.0</ele><time>2026-04-09T12:55:42.441Z</time></trkpt><trkpt lat="45.7811194" lon="11.7461357"><ele>135.66666666666669</ele><time>2026-04-09T12:55:43.44Z</time></trkpt><trkpt lat="45.7812211" lon="11.7463317"><ele>135.33333333333334</ele><time>2026-04-09T12:55:44.44Z</time></trkpt><trkpt lat="45.7813237" lon="11.7465324"><ele>135.0</ele><time>2026-04-09T12:55:45.44Z</time></trkpt><trkpt lat="45.7814248" lon="11.7467331"><ele>135.66666666666666</ele><time>2026-04-09T12:55:46.45Z</time></trkpt><trkpt lat="45.7815281" lon="11.7469341"><ele>136.33333333333331</ele><time>2026-04-09T12:55:47.443Z</time></trkpt><trkpt lat="45.7816317" lon="11.7471345"><ele>137.0</ele><time>2026-04-09T12:55:48.441Z</time></trkpt><trkpt lat="45.781738" lon="11.7473345"><ele>137.0</ele><time>2026-04-09T12:55:49.435Z</time></trkpt><trkpt lat="45.781844" lon="11.7475352"><ele>137.0</ele><time>2026-04-09T12:55:50.443Z</time></trkpt><trkpt lat="45.7819503" lon="11.7477361"><ele>137.0</ele><time>2026-04-09T12:55:51.442Z</time></trkpt><trkpt lat="45.782058" lon="11.7479354"><ele>138.33333333333331</ele><time>2026-04-09T12:55:52.441Z</time></trkpt><trkpt lat="45.7821542" lon="11.7481289"><ele>139.66666666666666</ele><time>2026-04-09T12:55:53.443Z</time></trkpt><trkpt lat="45.7822615" lon="11.7483215"><ele>141.0</ele><time>2026-04-09T12:55:54.439Z</time></trkpt><trkpt lat="45.7823681" lon="11.748517"><ele>141.0</ele><time>2026-04-09T12:55:55.44Z</time></trkpt><trkpt lat="45.7824767" lon="11.7487123"><ele>141.0</ele><time>2026-04-09T12:55:56.439Z</time></trkpt><trkpt lat="45.7825855" lon="11.7489033"><ele>141.0</ele><time>2026-04-09T12:55:57.441Z</time></trkpt><trkpt lat="45.7826876" lon="11.7490909"><ele>141.33333333333334</ele><time>2026-04-09T12:55:58.438Z</time></trkpt><trkpt lat="45.7828007" lon="11.7492611"><ele>141.66666666666669</ele><time>2026-04-09T12:55:59.436Z</time></trkpt><trkpt lat="45.7829075" lon="11.7494484"><ele>142.0</ele><time>2026-04-09T12:56:00.443Z</time></trkpt><trkpt lat="45.7830124" lon="11.7496286"><ele>142.33333333333334</ele><time>2026-04-09T12:56:01.438Z</time></trkpt><trkpt lat="45.7831207" lon="11.7498051"><ele>142.66666666666666</ele><time>2026-04-09T12:56:02.444Z</time></trkpt><trkpt lat="45.7832284" lon="11.7499846"><ele>143.0</ele><time>2026-04-09T12:56:03.443Z</time></trkpt><trkpt lat="45.7833393" lon="11.7501648"><ele>143.0</ele><time>2026-04-09T12:56:04.443Z</time></trkpt><trkpt lat="45.7834495" lon="11.7503479"><ele>143.0</ele><time>2026-04-09T12:56:05.44Z</time></trkpt><trkpt lat="45.7835609" lon="11.7505312"><ele>143.0</ele><time>2026-04-09T12:56:06.437Z</time></trkpt><trkpt lat="45.7836713" lon="11.7507143"><ele>143.0</ele><time>2026-04-09T12:56:07.445Z</time></trkpt><trkpt lat="45.7837887" lon="11.7508932"><ele>143.0</ele><time>2026-04-09T12:56:08.446Z</time></trkpt><trkpt lat="45.7839109" lon="11.7510715"><ele>143.0</ele><time>2026-04-09T12:56:09.443Z</time></trkpt><trkpt lat="45.7840406" lon="11.7512458"><ele>142.66666666666666</ele><time>2026-04-09T12:56:10.441Z</time></trkpt><trkpt lat="45.7841754" lon="11.7514113"><ele>142.33333333333334</ele><time>2026-04-09T12:56:11.443Z</time></trkpt><trkpt lat="45.7843149" lon="11.7515665"><ele>142.0</ele><time>2026-04-09T12:56:12.438Z</time></trkpt><trkpt lat="45.7844594" lon="11.7517163"><ele>141.66666666666669</ele><time>2026-04-09T12:56:13.451Z</time></trkpt><trkpt lat="45.7846059" lon="11.7518612"><ele>141.33333333333334</ele><time>2026-04-09T12:56:14.441Z</time></trkpt><trkpt lat="45.7847503" lon="11.7520049"><ele>141.0</ele><time>2026-04-09T12:56:15.435Z</time></trkpt><trkpt lat="45.784894" lon="11.7521493"><ele>141.0</ele><time>2026-04-09T12:56:16.442Z</time></trkpt><trkpt lat="45.7850412" lon="11.7522987"><ele>141.0</ele><time>2026-04-09T12:56:17.443Z</time></trkpt><trkpt lat="45.7851961" lon="11.7524561"><ele>141.0</ele><time>2026-04-09T12:56:18.438Z</time></trkpt><trkpt lat="45.7853424" lon="11.7526059"><ele>141.33333333333334</ele><time>2026-04-09T12:56:19.443Z</time></trkpt><trkpt lat="45.7854835" lon="11.7527512"><ele>141.66666666666669</ele><time>2026-04-09T12:56:20.443Z</time></trkpt><trkpt lat="45.7856211" lon="11.7528917"><ele>142.0</ele><time>2026-04-09T12:56:21.442Z</time></trkpt><trkpt lat="45.7857572" lon="11.7530298"><ele>142.0</ele><time>2026-04-09T12:56:22.443Z</time></trkpt><trkpt lat="45.7858901" lon="11.7531687"><ele>142.0</ele><time>2026-04-09T12:56:23.439Z</time></trkpt><trkpt lat="45.7860173" lon="11.7533058"><ele>142.0</ele><time>2026-04-09T12:56:24.437Z</time></trkpt><trkpt lat="45.7861346" lon="11.7534373"><ele>143.75</ele><time>2026-04-09T12:56:25.442Z</time></trkpt><trkpt lat="45.7862506" lon="11.7535681"><ele>145.5</ele><time>2026-04-09T12:56:26.442Z</time></trkpt><trkpt lat="45.7863681" lon="11.7537055"><ele>147.25</ele><time>2026-04-09T12:56:27.443Z</time></trkpt><trkpt lat="45.7864827" lon="11.7538443"><ele>149.0</ele><time>2026-04-09T12:56:28.44Z</time></trkpt><trkpt lat="45.7865978" lon="11.7539842"><ele>149.0</ele><time>2026-04-09T12:56:29.439Z</time></trkpt><trkpt lat="45.7867197" lon="11.7541201"><ele>149.0</ele><time>2026-04-09T12:56:30.445Z</time></trkpt><trkpt lat="45.7868495" lon="11.7542441"><ele>149.0</ele><time>2026-04-09T12:56:31.436Z</time></trkpt><trkpt lat="45.7869805" lon="11.7543445"><ele>149.75</ele><time>2026-04-09T12:56:32.441Z</time></trkpt><trkpt lat="45.7871114" lon="11.7544239"><ele>150.5</ele><time>2026-04-09T12:56:33.448Z</time></trkpt><trkpt lat="45.7872476" lon="11.754488"><ele>151.25</ele><time>2026-04-09T12:56:34.447Z</time></trkpt><trkpt lat="45.7873873" lon="11.7545421"><ele>152.0</ele><time>2026-04-09T12:56:35.436Z</time></trkpt><trkpt lat="45.7875294" lon="11.7545913"><ele>152.0</ele><time>2026-04-09T12:56:36.442Z</time></trkpt><trkpt lat="45.7876746" lon="11.7546345"><ele>152.0</ele><time>2026-04-09T12:56:37.44Z</time></trkpt><trkpt lat="45.7878235" lon="11.754675"><ele>152.0</ele><time>2026-04-09T12:56:38.444Z</time></trkpt><trkpt lat="45.7879703" lon="11.7547148"><ele>152.0</ele><time>2026-04-09T12:56:39.438Z</time></trkpt><trkpt lat="45.7881142" lon="11.7547595"><ele>151.75</ele><time>2026-04-09T12:56:40.438Z</time></trkpt><trkpt lat="45.7882572" lon="11.7548049"><ele>151.5</ele><time>2026-04-09T12:56:41.441Z</time></trkpt><trkpt lat="45.7883961" lon="11.7548468"><ele>151.25</ele><time>2026-04-09T12:56:42.443Z</time></trkpt><trkpt lat="45.7885285" lon="11.7548878"><ele>151.0</ele><time>2026-04-09T12:56:43.432Z</time></trkpt><trkpt lat="45.7886557" lon="11.7549272"><ele>151.75</ele><time>2026-04-09T12:56:44.44Z</time></trkpt><trkpt lat="45.7887793" lon="11.7549641"><ele>152.5</ele><time>2026-04-09T12:56:45.44Z</time></trkpt><trkpt lat="45.7889105" lon="11.7550034"><ele>153.25</ele><time>2026-04-09T12:56:46.441Z</time></trkpt><trkpt lat="45.7890458" lon="11.7550395"><ele>154.0</ele><time>2026-04-09T12:56:47.444Z</time></trkpt><trkpt lat="45.7891832" lon="11.7550716"><ele>154.0</ele><time>2026-04-09T12:56:48.433Z</time></trkpt><trkpt lat="45.7893237" lon="11.7550971"><ele>154.0</ele><time>2026-04-09T12:56:49.443Z</time></trkpt><trkpt lat="45.7894672" lon="11.7551179"><ele>154.0</ele><time>2026-04-09T12:56:50.437Z</time></trkpt><trkpt lat="45.7896123" lon="11.7551338"><ele>154.0</ele><time>2026-04-09T12:56:51.434Z</time></trkpt><trkpt lat="45.7897593" lon="11.7551473"><ele>154.0</ele><time>2026-04-09T12:56:52.445Z</time></trkpt><trkpt lat="45.7899069" lon="11.7551644"><ele>154.0</ele><time>2026-04-09T12:56:53.442Z</time></trkpt><trkpt lat="45.7900536" lon="11.7551871"><ele>154.0</ele><time>2026-04-09T12:56:54.44Z</time></trkpt><trkpt lat="45.7901983" lon="11.7552214"><ele>154.0</ele><time>2026-04-09T12:56:55.438Z</time></trkpt><trkpt lat="45.7903417" lon="11.7552686"><ele>154.5</ele><time>2026-04-09T12:56:56.465Z</time></trkpt><trkpt lat="45.7904833" lon="11.7553273"><ele>155.0</ele><time>2026-04-09T12:56:57.439Z</time></trkpt><trkpt lat="45.790625" lon="11.7553946"><ele>155.5</ele><time>2026-04-09T12:56:58.432Z</time></trkpt><trkpt lat="45.7907655" lon="11.7554671"><ele>156.0</ele><time>2026-04-09T12:56:59.443Z</time></trkpt><trkpt lat="45.7909051" lon="11.7555422"><ele>156.0</ele><time>2026-04-09T12:57:00.437Z</time></trkpt><trkpt lat="45.7910453" lon="11.7556188"><ele>156.0</ele><time>2026-04-09T12:57:01.446Z</time></trkpt><trkpt lat="45.7911829" lon="11.7557015"><ele>156.0</ele><time>2026-04-09T12:57:02.437Z</time></trkpt><trkpt lat="45.7913204" lon="11.7557778"><ele>156.0</ele><time>2026-04-09T12:57:03.434Z</time></trkpt><trkpt lat="45.7914637" lon="11.7558453"><ele>156.0</ele><time>2026-04-09T12:57:04.441Z</time></trkpt><trkpt lat="45.7916033" lon="11.7559168"><ele>156.0</ele><time>2026-04-09T12:57:05.447Z</time></trkpt><trkpt lat="45.7917431" lon="11.7559876"><ele>156.0</ele><time>2026-04-09T12:57:06.438Z</time></trkpt><trkpt lat="45.7918807" lon="11.7560586"><ele>156.0</ele><time>2026-04-09T12:57:07.434Z</time></trkpt><trkpt lat="45.7920192" lon="11.7561295"><ele>156.75</ele><time>2026-04-09T12:57:08.434Z</time></trkpt><trkpt lat="45.7921594" lon="11.7562002"><ele>157.5</ele><time>2026-04-09T12:57:09.432Z</time></trkpt><trkpt lat="45.7923002" lon="11.7562731"><ele>158.25</ele><time>2026-04-09T12:57:10.438Z</time></trkpt><trkpt lat="45.7924386" lon="11.7563453"><ele>159.0</ele><time>2026-04-09T12:57:11.436Z</time></trkpt><trkpt lat="45.792577" lon="11.7564179"><ele>159.25</ele><time>2026-04-09T12:57:12.439Z</time></trkpt><trkpt lat="45.792713" lon="11.7564897"><ele>159.5</ele><time>2026-04-09T12:57:13.447Z</time></trkpt><trkpt lat="45.7928494" lon="11.7565624"><ele>159.75</ele><time>2026-04-09T12:57:14.442Z</time></trkpt><trkpt lat="45.792987" lon="11.7566354"><ele>160.0</ele><time>2026-04-09T12:57:15.435Z</time></trkpt><trkpt lat="45.7931239" lon="11.7567061"><ele>160.0</ele><time>2026-04-09T12:57:16.44Z</time></trkpt><trkpt lat="45.7932601" lon="11.7567779"><ele>160.0</ele><time>2026-04-09T12:57:17.441Z</time></trkpt><trkpt lat="45.7933948" lon="11.756848"><ele>160.0</ele><time>2026-04-09T12:57:18.449Z</time></trkpt><trkpt lat="45.7935245" lon="11.7569185"><ele>160.0</ele><time>2026-04-09T12:57:19.432Z</time></trkpt><trkpt lat="45.7936523" lon="11.7569856"><ele>160.75</ele><time>2026-04-09T12:57:20.438Z</time></trkpt><trkpt lat="45.793785" lon="11.7570444"><ele>161.5</ele><time>2026-04-09T12:57:21.439Z</time></trkpt><trkpt lat="45.793924" lon="11.7571203"><ele>162.25</ele><time>2026-04-09T12:57:22.443Z</time></trkpt><trkpt lat="45.7940634" lon="11.7571926"><ele>163.0</ele><time>2026-04-09T12:57:23.434Z</time></trkpt><trkpt lat="45.7942101" lon="11.7572668"><ele>163.66666666666669</ele><time>2026-04-09T12:57:24.44Z</time></trkpt><trkpt lat="45.7943573" lon="11.7573443"><ele>164.33333333333334</ele><time>2026-04-09T12:57:25.439Z</time></trkpt><trkpt lat="45.7945041" lon="11.7574201"><ele>165.0</ele><time>2026-04-09T12:57:26.447Z</time></trkpt><trkpt lat="45.7946481" lon="11.7574962"><ele>165.0</ele><time>2026-04-09T12:57:27.436Z</time></trkpt><trkpt lat="45.7947884" lon="11.7575662"><ele>165.0</ele><time>2026-04-09T12:57:28.438Z</time></trkpt><trkpt lat="45.7949181" lon="11.7576358"><ele>165.0</ele><time>2026-04-09T12:57:29.438Z</time></trkpt><trkpt lat="45.7950377" lon="11.757696"><ele>165.0</ele><time>2026-04-09T12:57:30.444Z</time></trkpt><trkpt lat="45.7951541" lon="11.757761"><ele>165.6</ele><time>2026-04-09T12:57:31.435Z</time></trkpt><trkpt lat="45.7952702" lon="11.757822"><ele>166.2</ele><time>2026-04-09T12:57:32.432Z</time></trkpt><trkpt lat="45.7953785" lon="11.7578763"><ele>166.8</ele><time>2026-04-09T12:57:33.438Z</time></trkpt><trkpt lat="45.7954758" lon="11.7579243"><ele>167.4</ele><time>2026-04-09T12:57:34.439Z</time></trkpt><trkpt lat="45.795566" lon="11.7579693"><ele>168.0</ele><time>2026-04-09T12:57:35.442Z</time></trkpt><trkpt lat="45.7956556" lon="11.7580196"><ele>168.0</ele><time>2026-04-09T12:57:36.455Z</time></trkpt><trkpt lat="45.7957388" lon="11.7580626"><ele>168.0</ele><time>2026-04-09T12:57:37.449Z</time></trkpt><trkpt lat="45.7958118" lon="11.7581081"><ele>168.0</ele><time>2026-04-09T12:57:38.458Z</time></trkpt><trkpt lat="45.7958807" lon="11.7581466"><ele>168.0</ele><time>2026-04-09T12:57:39.44Z</time></trkpt><trkpt lat="45.7959439" lon="11.7581846"><ele>168.0</ele><time>2026-04-09T12:57:40.447Z</time></trkpt><trkpt lat="45.7960346" lon="11.7582526"><ele>168.0</ele><time>2026-04-09T12:57:42.449Z</time></trkpt><trkpt lat="45.7960909" lon="11.7583508"><ele>168.16666666666666</ele><time>2026-04-09T12:57:44.448Z</time></trkpt><trkpt lat="45.7961198" lon="11.7584508"><ele>168.33333333333334</ele><time>2026-04-09T12:57:46.455Z</time></trkpt><trkpt lat="45.7961796" lon="11.7585244"><ele>168.5</ele><time>2026-04-09T12:57:49.44Z</time></trkpt><trkpt lat="45.796271" lon="11.7585075"><ele>168.66666666666669</ele><time>2026-04-09T12:57:51.45Z</time></trkpt><trkpt lat="45.796308" lon="11.7584293"><ele>168.83333333333334</ele><time>2026-04-09T12:57:52.44Z</time></trkpt><trkpt lat="45.7963215" lon="11.7583276"><ele>169.0</ele><time>2026-04-09T12:57:53.43Z</time></trkpt><trkpt lat="45.7963313" lon="11.7582154"><ele>169.0</ele><time>2026-04-09T12:57:54.449Z</time></trkpt><trkpt lat="45.7963605" lon="11.7581063"><ele>169.0</ele><time>2026-04-09T12:57:55.447Z</time></trkpt><trkpt lat="45.7964044" lon="11.7580068"><ele>169.0</ele><time>2026-04-09T12:57:56.554Z</time></trkpt><trkpt lat="45.7965385" lon="11.7578362"><ele>169.0</ele><time>2026-04-09T12:57:58.434Z</time></trkpt><trkpt lat="45.7966112" lon="11.7577513"><ele>169.0</ele><time>2026-04-09T12:57:59.436Z</time></trkpt><trkpt lat="45.7966774" lon="11.7576685"><ele>169.16666666666669</ele><time>2026-04-09T12:58:00.435Z</time></trkpt><trkpt lat="45.7967367" lon="11.75759"><ele>169.33333333333334</ele><time>2026-04-09T12:58:01.438Z</time></trkpt><trkpt lat="45.7967917" lon="11.7575275"><ele>169.5</ele><time>2026-04-09T12:58:02.488Z</time></trkpt><trkpt lat="45.7968433" lon="11.7574665"><ele>169.66666666666666</ele><time>2026-04-09T12:58:03.442Z</time></trkpt><trkpt lat="45.7969178" lon="11.7574592"><ele>169.83333333333331</ele><time>2026-04-09T12:58:04.443Z</time></trkpt><trkpt lat="45.7970197" lon="11.7574349"><ele>170.0</ele><time>2026-04-09T12:58:05.437Z</time></trkpt><trkpt lat="45.7971228" lon="11.757388"><ele>170.75</ele><time>2026-04-09T12:58:06.438Z</time></trkpt><trkpt lat="45.7972333" lon="11.7573368"><ele>171.5</ele><time>2026-04-09T12:58:07.447Z</time></trkpt><trkpt lat="45.7973529" lon="11.7572703"><ele>172.25</ele><time>2026-04-09T12:58:08.435Z</time></trkpt><trkpt lat="45.7974585" lon="11.7571648"><ele>173.0</ele><time>2026-04-09T12:58:09.434Z</time></trkpt><trkpt lat="45.7975606" lon="11.7570467"><ele>173.5</ele><time>2026-04-09T12:58:10.442Z</time></trkpt><trkpt lat="45.7976748" lon="11.7569433"><ele>174.0</ele><time>2026-04-09T12:58:11.448Z</time></trkpt><trkpt lat="45.7977967" lon="11.7568562"><ele>174.5</ele><time>2026-04-09T12:58:12.442Z</time></trkpt><trkpt lat="45.7979324" lon="11.7567946"><ele>175.0</ele><time>2026-04-09T12:58:13.443Z</time></trkpt><trkpt lat="45.7980748" lon="11.7567527"><ele>175.0</ele><time>2026-04-09T12:58:14.443Z</time></trkpt><trkpt lat="45.7982184" lon="11.7567223"><ele>175.0</ele><time>2026-04-09T12:58:15.446Z</time></trkpt><trkpt lat="45.7983648" lon="11.7566912"><ele>175.0</ele><time>2026-04-09T12:58:16.434Z</time></trkpt><trkpt lat="45.7985095" lon="11.7566565"><ele>175.0</ele><time>2026-04-09T12:58:17.439Z</time></trkpt><trkpt lat="45.7986419" lon="11.7566253"><ele>176.0</ele><time>2026-04-09T12:58:18.441Z</time></trkpt><trkpt lat="45.7987644" lon="11.7565986"><ele>177.0</ele><time>2026-04-09T12:58:19.448Z</time></trkpt><trkpt lat="45.7988783" lon="11.7565728"><ele>178.0</ele><time>2026-04-09T12:58:20.433Z</time></trkpt><trkpt lat="45.7989892" lon="11.756539"><ele>179.0</ele><time>2026-04-09T12:58:21.438Z</time></trkpt><trkpt lat="45.799096" lon="11.7565059"><ele>179.0</ele><time>2026-04-09T12:58:22.442Z</time></trkpt><trkpt lat="45.7991984" lon="11.756475"><ele>179.0</ele><time>2026-04-09T12:58:23.441Z</time></trkpt><trkpt lat="45.7992938" lon="11.7564519"><ele>179.0</ele><time>2026-04-09T12:58:24.432Z</time></trkpt><trkpt lat="45.7993927" lon="11.7564366"><ele>179.0</ele><time>2026-04-09T12:58:25.438Z</time></trkpt><trkpt lat="45.7994947" lon="11.7564342"><ele>179.0</ele><time>2026-04-09T12:58:26.44Z</time></trkpt><trkpt lat="45.7995955" lon="11.7564446"><ele>180.0</ele><time>2026-04-09T12:58:27.431Z</time></trkpt><trkpt lat="45.7996979" lon="11.7564563"><ele>181.0</ele><time>2026-04-09T12:58:28.442Z</time></trkpt><trkpt lat="45.799794" lon="11.7564744"><ele>182.0</ele><time>2026-04-09T12:58:29.438Z</time></trkpt><trkpt lat="45.7998928" lon="11.7565018"><ele>183.0</ele><time>2026-04-09T12:58:30.435Z</time></trkpt><trkpt lat="45.7999865" lon="11.7565241"><ele>184.0</ele><time>2026-04-09T12:58:31.434Z</time></trkpt><trkpt lat="45.8000645" lon="11.7565456"><ele>184.0</ele><time>2026-04-09T12:58:32.436Z</time></trkpt><trkpt lat="45.8001707" lon="11.7565702"><ele>184.0</ele><time>2026-04-09T12:58:34.439Z</time></trkpt><trkpt lat="45.800259" lon="11.7566184"><ele>184.0</ele><time>2026-04-09T12:58:36.439Z</time></trkpt><trkpt lat="45.8003377" lon="11.756749"><ele>184.0</ele><time>2026-04-09T12:58:38.433Z</time></trkpt><trkpt lat="45.8003769" lon="11.7568402"><ele>184.0</ele><time>2026-04-09T12:58:39.442Z</time></trkpt><trkpt lat="45.8004308" lon="11.7569483"><ele>184.0</ele><time>2026-04-09T12:58:40.441Z</time></trkpt><trkpt lat="45.8004989" lon="11.7570465"><ele>184.0</ele><time>2026-04-09T12:58:41.441Z</time></trkpt><trkpt lat="45.8005791" lon="11.7571294"><ele>184.0</ele><time>2026-04-09T12:58:42.442Z</time></trkpt><trkpt lat="45.8006612" lon="11.757206"><ele>184.0</ele><time>2026-04-09T12:58:43.436Z</time></trkpt><trkpt lat="45.8007471" lon="11.7572843"><ele>184.0</ele><time>2026-04-09T12:58:44.438Z</time></trkpt><trkpt lat="45.8008345" lon="11.7573665"><ele>184.0</ele><time>2026-04-09T12:58:45.438Z</time></trkpt><trkpt lat="45.8009248" lon="11.7574496"><ele>184.0</ele><time>2026-04-09T12:58:46.438Z</time></trkpt><trkpt lat="45.8010147" lon="11.7575312"><ele>184.0</ele><time>2026-04-09T12:58:47.437Z</time></trkpt><trkpt lat="45.8010961" lon="11.7576105"><ele>184.0</ele><time>2026-04-09T12:58:48.436Z</time></trkpt><trkpt lat="45.8011674" lon="11.7576904"><ele>184.0</ele><time>2026-04-09T12:58:49.447Z</time></trkpt><trkpt lat="45.8012361" lon="11.7577774"><ele>184.6</ele><time>2026-04-09T12:58:50.445Z</time></trkpt><trkpt lat="45.8013019" lon="11.7578632"><ele>185.2</ele><time>2026-04-09T12:58:51.439Z</time></trkpt><trkpt lat="45.8013763" lon="11.7579353"><ele>185.79999999999998</ele><time>2026-04-09T12:58:52.437Z</time></trkpt><trkpt lat="45.8014644" lon="11.7579674"><ele>186.39999999999998</ele><time>2026-04-09T12:58:53.438Z</time></trkpt><trkpt lat="45.8015594" lon="11.7579637"><ele>187.0</ele><time>2026-04-09T12:58:54.439Z</time></trkpt><trkpt lat="45.8016589" lon="11.757951"><ele>187.0</ele><time>2026-04-09T12:58:55.433Z</time></trkpt><trkpt lat="45.8017328" lon="11.7579189"><ele>187.0</ele><time>2026-04-09T12:58:56.434Z</time></trkpt><trkpt lat="45.8018231" lon="11.7578894"><ele>187.0</ele><time>2026-04-09T12:58:57.44Z</time></trkpt><trkpt lat="45.80191" lon="11.7578707"><ele>187.0</ele><time>2026-04-09T12:58:58.438Z</time></trkpt><trkpt lat="45.8020018" lon="11.7579051"><ele>187.0</ele><time>2026-04-09T12:58:59.439Z</time></trkpt><trkpt lat="45.8020972" lon="11.7579218"><ele>187.0</ele><time>2026-04-09T12:59:00.435Z</time></trkpt><trkpt lat="45.8021969" lon="11.7579206"><ele>187.33333333333334</ele><time>2026-04-09T12:59:01.437Z</time></trkpt><trkpt lat="45.8022826" lon="11.7579013"><ele>187.66666666666669</ele><time>2026-04-09T12:59:02.443Z</time></trkpt><trkpt lat="45.8023539" lon="11.7578742"><ele>188.0</ele><time>2026-04-09T12:59:03.444Z</time></trkpt><trkpt lat="45.8024209" lon="11.7578417"><ele>188.33333333333334</ele><time>2026-04-09T12:59:04.44Z</time></trkpt><trkpt lat="45.8025195" lon="11.7577791"><ele>188.66666666666666</ele><time>2026-04-09T12:59:06.446Z</time></trkpt><trkpt lat="45.8025826" lon="11.7577459"><ele>189.0</ele><time>2026-04-09T12:59:08.444Z</time></trkpt><trkpt lat="45.8026922" lon="11.7576739"><ele>190.0</ele><time>2026-04-09T12:59:10.453Z</time></trkpt><trkpt lat="45.8027779" lon="11.7576139"><ele>191.0</ele><time>2026-04-09T12:59:11.448Z</time></trkpt><trkpt lat="45.8028751" lon="11.757545"><ele>192.0</ele><time>2026-04-09T12:59:12.445Z</time></trkpt><trkpt lat="45.8029846" lon="11.7574688"><ele>193.0</ele><time>2026-04-09T12:59:13.438Z</time></trkpt><trkpt lat="45.8031" lon="11.7573908"><ele>193.0</ele><time>2026-04-09T12:59:14.445Z</time></trkpt><trkpt lat="45.8032239" lon="11.7573113"><ele>193.0</ele><time>2026-04-09T12:59:15.433Z</time></trkpt><trkpt lat="45.803358" lon="11.757229"><ele>193.0</ele><time>2026-04-09T12:59:16.444Z</time></trkpt><trkpt lat="45.8035052" lon="11.7571405"><ele>193.0</ele><time>2026-04-09T12:59:17.441Z</time></trkpt><trkpt lat="45.8036663" lon="11.7570444"><ele>193.33333333333331</ele><time>2026-04-09T12:59:18.446Z</time></trkpt><trkpt lat="45.8038285" lon="11.7569479"><ele>193.66666666666669</ele><time>2026-04-09T12:59:19.437Z</time></trkpt><trkpt lat="45.803978" lon="11.7568571"><ele>194.0</ele><time>2026-04-09T12:59:20.451Z</time></trkpt><trkpt lat="45.8041179" lon="11.7567615"><ele>196.33333333333334</ele><time>2026-04-09T12:59:21.446Z</time></trkpt><trkpt lat="45.8042479" lon="11.7566399"><ele>198.66666666666669</ele><time>2026-04-09T12:59:22.456Z</time></trkpt><trkpt lat="45.804367" lon="11.7565019"><ele>201.0</ele><time>2026-04-09T12:59:23.468Z</time></trkpt><trkpt lat="45.8044921" lon="11.756381"><ele>203.66666666666669</ele><time>2026-04-09T12:59:24.456Z</time></trkpt><trkpt lat="45.804634" lon="11.7563102"><ele>206.33333333333334</ele><time>2026-04-09T12:59:25.439Z</time></trkpt><trkpt lat="45.8047901" lon="11.7562977"><ele>209.0</ele><time>2026-04-09T12:59:26.438Z</time></trkpt><trkpt lat="45.8049544" lon="11.7563361"><ele>209.0</ele><time>2026-04-09T12:59:27.445Z</time></trkpt><trkpt lat="45.8051266" lon="11.7564026"><ele>209.0</ele><time>2026-04-09T12:59:28.457Z</time></trkpt><trkpt lat="45.8053024" lon="11.7564758"><ele>209.0</ele><time>2026-04-09T12:59:29.432Z</time></trkpt><trkpt lat="45.8054776" lon="11.7565449"><ele>214.0</ele><time>2026-04-09T12:59:30.437Z</time></trkpt><trkpt lat="45.8056535" lon="11.7565985"><ele>219.0</ele><time>2026-04-09T12:59:31.434Z</time></trkpt><trkpt lat="45.8058326" lon="11.7566327"><ele>224.0</ele><time>2026-04-09T12:59:32.435Z</time></trkpt><trkpt lat="45.8060124" lon="11.7566562"><ele>228.66666666666669</ele><time>2026-04-09T12:59:33.44Z</time></trkpt><trkpt lat="45.806192" lon="11.7566829"><ele>233.33333333333331</ele><time>2026-04-09T12:59:34.452Z</time></trkpt><trkpt lat="45.8063749" lon="11.7567203"><ele>238.0</ele><time>2026-04-09T12:59:35.437Z</time></trkpt><trkpt lat="45.8065693" lon="11.7567507"><ele>238.0</ele><time>2026-04-09T12:59:36.448Z</time></trkpt><trkpt lat="45.8067592" lon="11.756767"><ele>238.0</ele><time>2026-04-09T12:59:37.455Z</time></trkpt><trkpt lat="45.8069375" lon="11.7567838"><ele>238.0</ele><time>2026-04-09T12:59:38.441Z</time></trkpt><trkpt lat="45.807079" lon="11.7567804"><ele>239.25</ele><time>2026-04-09T12:59:39.437Z</time></trkpt><trkpt lat="45.8072119" lon="11.7567693"><ele>240.5</ele><time>2026-04-09T12:59:40.449Z</time></trkpt><trkpt lat="45.8073403" lon="11.7567656"><ele>241.75</ele><time>2026-04-09T12:59:41.436Z</time></trkpt><trkpt lat="45.807462" lon="11.7567674"><ele>243.0</ele><time>2026-04-09T12:59:42.437Z</time></trkpt><trkpt lat="45.8075589" lon="11.756821"><ele>243.0</ele><time>2026-04-09T12:59:43.446Z</time></trkpt><trkpt lat="45.80764" lon="11.7568583"><ele>243.0</ele><time>2026-04-09T12:59:44.444Z</time></trkpt><trkpt lat="45.8077177" lon="11.7568848"><ele>243.0</ele><time>2026-04-09T12:59:45.45Z</time></trkpt><trkpt lat="45.8077755" lon="11.7568488"><ele>243.0</ele><time>2026-04-09T12:59:46.463Z</time></trkpt><trkpt lat="45.8077798" lon="11.7566781"><ele>243.0</ele><time>2026-04-09T12:59:48.437Z</time></trkpt><trkpt lat="45.8077164" lon="11.7566096"><ele>243.0</ele><time>2026-04-09T12:59:49.441Z</time></trkpt><trkpt lat="45.8076131" lon="11.7565717"><ele>243.0</ele><time>2026-04-09T12:59:50.432Z</time></trkpt><trkpt lat="45.807488" lon="11.756529"><ele>243.0</ele><time>2026-04-09T12:59:51.435Z</time></trkpt><trkpt lat="45.8073248" lon="11.7565156"><ele>243.0</ele><time>2026-04-09T12:59:52.442Z</time></trkpt><trkpt lat="45.8071424" lon="11.7564664"><ele>243.0</ele><time>2026-04-09T12:59:53.432Z</time></trkpt><trkpt lat="45.8069497" lon="11.7564262"><ele>243.0</ele><time>2026-04-09T12:59:54.436Z</time></trkpt><trkpt lat="45.8067649" lon="11.7563626"><ele>243.0</ele><time>2026-04-09T12:59:55.437Z</time></trkpt><trkpt lat="45.8065827" lon="11.7562845"><ele>241.33333333333331</ele><time>2026-04-09T12:59:56.438Z</time></trkpt><trkpt lat="45.8063937" lon="11.7561741"><ele>239.66666666666666</ele><time>2026-04-09T12:59:57.44Z</time></trkpt><trkpt lat="45.8061962" lon="11.7560505"><ele>238.0</ele><time>2026-04-09T12:59:58.434Z</time></trkpt><trkpt lat="45.8059938" lon="11.7559242"><ele>246.66666666666666</ele><time>2026-04-09T12:59:59.434Z</time></trkpt><trkpt lat="45.8057876" lon="11.7558059"><ele>255.33333333333331</ele><time>2026-04-09T13:00:00.521Z</time></trkpt><trkpt lat="45.8056073" lon="11.7556603"><ele>264.0</ele><time>2026-04-09T13:00:01.437Z</time></trkpt><trkpt lat="45.8054436" lon="11.7554952"><ele>264.0</ele><time>2026-04-09T13:00:02.442Z</time></trkpt><trkpt lat="45.8052783" lon="11.7553585"><ele>264.0</ele><time>2026-04-09T13:00:03.434Z</time></trkpt><trkpt lat="45.8051307" lon="11.755157"><ele>264.0</ele><time>2026-04-09T13:00:04.436Z</time></trkpt><trkpt lat="45.8049758" lon="11.7549327"><ele>267.6666666666667</ele><time>2026-04-09T13:00:05.438Z</time></trkpt><trkpt lat="45.8048158" lon="11.7547111"><ele>271.33333333333337</ele><time>2026-04-09T13:00:06.44Z</time></trkpt><trkpt lat="45.804655" lon="11.7545003"><ele>275.0</ele><time>2026-04-09T13:00:07.438Z</time></trkpt><trkpt lat="45.8044988" lon="11.7542893"><ele>273.6666666666667</ele><time>2026-04-09T13:00:08.433Z</time></trkpt><trkpt lat="45.8043481" lon="11.7540732"><ele>272.3333333333333</ele><time>2026-04-09T13:00:09.436Z</time></trkpt><trkpt lat="45.8041984" lon="11.7538535"><ele>271.0</ele><time>2026-04-09T13:00:10.438Z</time></trkpt><trkpt lat="45.8040592" lon="11.7536184"><ele>281.0</ele><time>2026-04-09T13:00:11.441Z</time></trkpt><trkpt lat="45.8039197" lon="11.7533726"><ele>291.0</ele><time>2026-04-09T13:00:12.433Z</time></trkpt><trkpt lat="45.8037836" lon="11.7531346"><ele>301.0</ele><time>2026-04-09T13:00:13.456Z</time></trkpt><trkpt lat="45.8036503" lon="11.752912"><ele>296.0</ele><time>2026-04-09T13:00:14.439Z</time></trkpt><trkpt lat="45.8035254" lon="11.752686"><ele>291.0</ele><time>2026-04-09T13:00:15.433Z</time></trkpt><trkpt lat="45.8034136" lon="11.7524562"><ele>286.0</ele><time>2026-04-09T13:00:16.448Z</time></trkpt><trkpt lat="45.8033129" lon="11.7522112"><ele>286.0</ele><time>2026-04-09T13:00:17.442Z</time></trkpt><trkpt lat="45.8032187" lon="11.751948"><ele>286.0</ele><time>2026-04-09T13:00:18.433Z</time></trkpt><trkpt lat="45.8031237" lon="11.7516726"><ele>286.0</ele><time>2026-04-09T13:00:19.432Z</time></trkpt><trkpt lat="45.8030262" lon="11.7513823"><ele>304.0</ele><time>2026-04-09T13:00:20.437Z</time></trkpt><trkpt lat="45.802927" lon="11.7510796"><ele>322.0</ele><time>2026-04-09T13:00:21.446Z</time></trkpt><trkpt lat="45.8028287" lon="11.7507829"><ele>321.0</ele><time>2026-04-09T13:00:22.432Z</time></trkpt><trkpt lat="45.8027388" lon="11.7505102"><ele>320.0</ele><time>2026-04-09T13:00:23.439Z</time></trkpt><trkpt lat="45.8026672" lon="11.7502763"><ele>319.0</ele><time>2026-04-09T13:00:24.435Z</time></trkpt><trkpt lat="45.8026054" lon="11.7500738"><ele>319.0</ele><time>2026-04-09T13:00:25.433Z</time></trkpt><trkpt lat="45.8025434" lon="11.7498919"><ele>319.0</ele><time>2026-04-09T13:00:26.436Z</time></trkpt><trkpt lat="45.8024778" lon="11.7497375"><ele>319.0</ele><time>2026-04-09T13:00:27.43Z</time></trkpt><trkpt lat="45.802372" lon="11.7496192"><ele>319.0</ele><time>2026-04-09T13:00:28.433Z</time></trkpt><trkpt lat="45.8022343" lon="11.7495314"><ele>319.0</ele><time>2026-04-09T13:00:29.427Z</time></trkpt><trkpt lat="45.8020811" lon="11.7494607"><ele>319.0</ele><time>2026-04-09T13:00:30.43Z</time></trkpt><trkpt lat="45.8019244" lon="11.7493781"><ele>319.0</ele><time>2026-04-09T13:00:31.437Z</time></trkpt><trkpt lat="45.8017774" lon="11.7492803"><ele>321.3333333333333</ele><time>2026-04-09T13:00:32.437Z</time></trkpt><trkpt lat="45.8016389" lon="11.749157"><ele>323.6666666666667</ele><time>2026-04-09T13:00:33.428Z</time></trkpt><trkpt lat="45.8015187" lon="11.7489934"><ele>326.0</ele><time>2026-04-09T13:00:34.437Z</time></trkpt><trkpt lat="45.8014186" lon="11.748782"><ele>326.0</ele><time>2026-04-09T13:00:35.435Z</time></trkpt><trkpt lat="45.801309" lon="11.7485619"><ele>326.0</ele><time>2026-04-09T13:00:36.438Z</time></trkpt><trkpt lat="45.8011957" lon="11.748343"><ele>326.0</ele><time>2026-04-09T13:00:37.438Z</time></trkpt><trkpt lat="45.8010879" lon="11.7481158"><ele>325.0</ele><time>2026-04-09T13:00:38.44Z</time></trkpt><trkpt lat="45.800984" lon="11.7478974"><ele>324.0</ele><time>2026-04-09T13:00:39.435Z</time></trkpt><trkpt lat="45.8008838" lon="11.7476817"><ele>323.0</ele><time>2026-04-09T13:00:40.434Z</time></trkpt><trkpt lat="45.8007874" lon="11.747495"><ele>328.0</ele><time>2026-04-09T13:00:41.438Z</time></trkpt><trkpt lat="45.8007019" lon="11.7473373"><ele>333.0</ele><time>2026-04-09T13:00:42.434Z</time></trkpt><trkpt lat="45.8006284" lon="11.7472236"><ele>338.0</ele><time>2026-04-09T13:00:43.442Z</time></trkpt><trkpt lat="45.8005608" lon="11.747154"><ele>343.0</ele><time>2026-04-09T13:00:44.439Z</time></trkpt><trkpt lat="45.8005079" lon="11.7470954"><ele>348.0</ele><time>2026-04-09T13:00:45.433Z</time></trkpt><trkpt lat="45.8005078" lon="11.7469435"><ele>348.0</ele><time>2026-04-09T13:00:47.434Z</time></trkpt><trkpt lat="45.800637" lon="11.7469024"><ele>348.0</ele><time>2026-04-09T13:00:49.439Z</time></trkpt><trkpt lat="45.8007248" lon="11.7469955"><ele>348.0</ele><time>2026-04-09T13:00:50.442Z</time></trkpt><trkpt lat="45.8008202" lon="11.747158"><ele>348.0</ele><time>2026-04-09T13:00:51.442Z</time></trkpt><trkpt lat="45.8009489" lon="11.7473505"><ele>353.3333333333333</ele><time>2026-04-09T13:00:52.435Z</time></trkpt><trkpt lat="45.80108" lon="11.7475335"><ele>358.66666666666663</ele><time>2026-04-09T13:00:53.44Z</time></trkpt><trkpt lat="45.8012325" lon="11.7477601"><ele>364.0</ele><time>2026-04-09T13:00:54.442Z</time></trkpt><trkpt lat="45.8013647" lon="11.7479399"><ele>364.0</ele><time>2026-04-09T13:00:55.443Z</time></trkpt><trkpt lat="45.8015267" lon="11.748125"><ele>364.0</ele><time>2026-04-09T13:00:56.438Z</time></trkpt><trkpt lat="45.8016548" lon="11.7482895"><ele>364.0</ele><time>2026-04-09T13:00:57.438Z</time></trkpt><trkpt lat="45.801781" lon="11.7484386"><ele>361.0</ele><time>2026-04-09T13:00:58.435Z</time></trkpt><trkpt lat="45.8019149" lon="11.7485733"><ele>358.0</ele><time>2026-04-09T13:00:59.44Z</time></trkpt><trkpt lat="45.8020785" lon="11.7486794"><ele>355.0</ele><time>2026-04-09T13:01:00.454Z</time></trkpt><trkpt lat="45.8022426" lon="11.7487467"><ele>355.0</ele><time>2026-04-09T13:01:01.428Z</time></trkpt><trkpt lat="45.8024256" lon="11.7487746"><ele>355.0</ele><time>2026-04-09T13:01:02.429Z</time></trkpt><trkpt lat="45.8026043" lon="11.7487492"><ele>355.0</ele><time>2026-04-09T13:01:03.443Z</time></trkpt><trkpt lat="45.8027674" lon="11.7487362"><ele>364.0</ele><time>2026-04-09T13:01:04.436Z</time></trkpt><trkpt lat="45.8029047" lon="11.7487565"><ele>373.0</ele><time>2026-04-09T13:01:05.43Z</time></trkpt><trkpt lat="45.8030179" lon="11.748762"><ele>382.0</ele><time>2026-04-09T13:01:06.435Z</time></trkpt><trkpt lat="45.8031142" lon="11.7488748"><ele>391.0</ele><time>2026-04-09T13:01:07.439Z</time></trkpt><trkpt lat="45.803199" lon="11.74904"><ele>391.0</ele><time>2026-04-09T13:01:08.429Z</time></trkpt><trkpt lat="45.8033096" lon="11.7492328"><ele>391.0</ele><time>2026-04-09T13:01:09.435Z</time></trkpt><trkpt lat="45.8034061" lon="11.7494391"><ele>391.0</ele><time>2026-04-09T13:01:10.436Z</time></trkpt><trkpt lat="45.8035214" lon="11.74964"><ele>393.0</ele><time>2026-04-09T13:01:11.43Z</time></trkpt><trkpt lat="45.8036314" lon="11.7498718"><ele>395.0</ele><time>2026-04-09T13:01:12.439Z</time></trkpt><trkpt lat="45.803744" lon="11.7501033"><ele>397.0</ele><time>2026-04-09T13:01:13.446Z</time></trkpt><trkpt lat="45.8038568" lon="11.7503427"><ele>397.0</ele><time>2026-04-09T13:01:14.44Z</time></trkpt><trkpt lat="45.8039665" lon="11.7505812"><ele>397.0</ele><time>2026-04-09T13:01:15.437Z</time></trkpt><trkpt lat="45.8040664" lon="11.7507983"><ele>397.0</ele><time>2026-04-09T13:01:16.463Z</time></trkpt><trkpt lat="45.8041507" lon="11.7509929"><ele>401.5</ele><time>2026-04-09T13:01:17.436Z</time></trkpt><trkpt lat="45.8042319" lon="11.7511838"><ele>406.0</ele><time>2026-04-09T13:01:18.437Z</time></trkpt><trkpt lat="45.8043095" lon="11.7513528"><ele>410.5</ele><time>2026-04-09T13:01:19.441Z</time></trkpt><trkpt lat="45.8044059" lon="11.7515057"><ele>415.0</ele><time>2026-04-09T13:01:20.436Z</time></trkpt><trkpt lat="45.8045324" lon="11.7516388"><ele>415.0</ele><time>2026-04-09T13:01:21.437Z</time></trkpt><trkpt lat="45.8046747" lon="11.7517631"><ele>415.0</ele><time>2026-04-09T13:01:22.425Z</time></trkpt><trkpt lat="45.8048232" lon="11.7518839"><ele>415.0</ele><time>2026-04-09T13:01:23.436Z</time></trkpt><trkpt lat="45.8049885" lon="11.7520064"><ele>416.6666666666667</ele><time>2026-04-09T13:01:24.438Z</time></trkpt><trkpt lat="45.8051592" lon="11.7521403"><ele>418.33333333333337</ele><time>2026-04-09T13:01:25.432Z</time></trkpt><trkpt lat="45.8053364" lon="11.7522641"><ele>420.0</ele><time>2026-04-09T13:01:26.434Z</time></trkpt><trkpt lat="45.8055097" lon="11.7524024"><ele>420.0</ele><time>2026-04-09T13:01:27.433Z</time></trkpt><trkpt lat="45.8056863" lon="11.752551"><ele>420.0</ele><time>2026-04-09T13:01:28.439Z</time></trkpt><trkpt lat="45.8058616" lon="11.7526978"><ele>420.0</ele><time>2026-04-09T13:01:29.439Z</time></trkpt><trkpt lat="45.8060396" lon="11.7528494"><ele>416.66666666666663</ele><time>2026-04-09T13:01:30.443Z</time></trkpt><trkpt lat="45.8062136" lon="11.7529922"><ele>413.3333333333333</ele><time>2026-04-09T13:01:31.432Z</time></trkpt><trkpt lat="45.806382" lon="11.7531244"><ele>410.0</ele><time>2026-04-09T13:01:32.439Z</time></trkpt><trkpt lat="45.80653" lon="11.753242"><ele>410.0</ele><time>2026-04-09T13:01:33.434Z</time></trkpt><trkpt lat="45.8066641" lon="11.7533277"><ele>410.0</ele><time>2026-04-09T13:01:34.438Z</time></trkpt><trkpt lat="45.8068253" lon="11.7533751"><ele>410.0</ele><time>2026-04-09T13:01:35.437Z</time></trkpt><trkpt lat="45.8069824" lon="11.7533961"><ele>416.66666666666663</ele><time>2026-04-09T13:01:36.437Z</time></trkpt><trkpt lat="45.8071333" lon="11.7533918"><ele>423.33333333333337</ele><time>2026-04-09T13:01:37.435Z</time></trkpt><trkpt lat="45.8072949" lon="11.7533438"><ele>430.0</ele><time>2026-04-09T13:01:38.443Z</time></trkpt><trkpt lat="45.8074502" lon="11.7532734"><ele>430.0</ele><time>2026-04-09T13:01:39.432Z</time></trkpt><trkpt lat="45.8076272" lon="11.7532566"><ele>430.0</ele><time>2026-04-09T13:01:40.433Z</time></trkpt><trkpt lat="45.807804" lon="11.7532291"><ele>430.0</ele><time>2026-04-09T13:01:41.434Z</time></trkpt><trkpt lat="45.8079834" lon="11.7531751"><ele>427.0</ele><time>2026-04-09T13:01:42.437Z</time></trkpt><trkpt lat="45.8081601" lon="11.7531347"><ele>424.0</ele><time>2026-04-09T13:01:43.438Z</time></trkpt><trkpt lat="45.8083397" lon="11.7530601"><ele>421.0</ele><time>2026-04-09T13:01:44.442Z</time></trkpt><trkpt lat="45.8085056" lon="11.7530007"><ele>419.0</ele><time>2026-04-09T13:01:45.43Z</time></trkpt><trkpt lat="45.8086893" lon="11.7529416"><ele>417.0</ele><time>2026-04-09T13:01:46.434Z</time></trkpt><trkpt lat="45.8088553" lon="11.7528547"><ele>415.0</ele><time>2026-04-09T13:01:47.438Z</time></trkpt><trkpt lat="45.8090118" lon="11.7527935"><ele>415.0</ele><time>2026-04-09T13:01:48.435Z</time></trkpt><trkpt lat="45.8091708" lon="11.7527361"><ele>415.0</ele><time>2026-04-09T13:01:49.436Z</time></trkpt><trkpt lat="45.8093223" lon="11.7526598"><ele>415.0</ele><time>2026-04-09T13:01:50.465Z</time></trkpt><trkpt lat="45.809461" lon="11.7526063"><ele>420.75</ele><time>2026-04-09T13:01:51.445Z</time></trkpt><trkpt lat="45.8095912" lon="11.7525441"><ele>426.5</ele><time>2026-04-09T13:01:52.428Z</time></trkpt><trkpt lat="45.8097069" lon="11.7524396"><ele>432.25</ele><time>2026-04-09T13:01:53.434Z</time></trkpt><trkpt lat="45.8098098" lon="11.7523235"><ele>438.0</ele><time>2026-04-09T13:01:54.434Z</time></trkpt><trkpt lat="45.809887" lon="11.7522018"><ele>438.0</ele><time>2026-04-09T13:01:55.439Z</time></trkpt><trkpt lat="45.8099584" lon="11.7520934"><ele>437.99999999999994</ele><time>2026-04-09T13:01:56.434Z</time></trkpt><trkpt lat="45.810038" lon="11.7520064"><ele>437.99999999999994</ele><time>2026-04-09T13:01:57.442Z</time></trkpt><trkpt lat="45.8101371" lon="11.7519494"><ele>438.0</ele><time>2026-04-09T13:01:58.435Z</time></trkpt><trkpt lat="45.8102637" lon="11.7519314"><ele>438.0</ele><time>2026-04-09T13:01:59.443Z</time></trkpt><trkpt lat="45.8103724" lon="11.7519272"><ele>440.8333333333333</ele><time>2026-04-09T13:02:00.432Z</time></trkpt><trkpt lat="45.8104658" lon="11.751913"><ele>443.66666666666663</ele><time>2026-04-09T13:02:01.439Z</time></trkpt><trkpt lat="45.8105503" lon="11.7519068"><ele>446.5</ele><time>2026-04-09T13:02:02.447Z</time></trkpt><trkpt lat="45.8106285" lon="11.7518951"><ele>449.3333333333333</ele><time>2026-04-09T13:02:03.437Z</time></trkpt><trkpt lat="45.8106945" lon="11.751884"><ele>452.16666666666663</ele><time>2026-04-09T13:02:04.434Z</time></trkpt><trkpt lat="45.8107228" lon="11.7517302"><ele>455.0</ele><time>2026-04-09T13:02:06.437Z</time></trkpt><trkpt lat="45.8106081" lon="11.7516924"><ele>455.0</ele><time>2026-04-09T13:02:08.432Z</time></trkpt><trkpt lat="45.8105274" lon="11.7517183"><ele>455.0</ele><time>2026-04-09T13:02:09.441Z</time></trkpt><trkpt lat="45.8104336" lon="11.7517459"><ele>455.0</ele><time>2026-04-09T13:02:10.433Z</time></trkpt><trkpt lat="45.8103312" lon="11.7517808"><ele>455.0</ele><time>2026-04-09T13:02:11.435Z</time></trkpt><trkpt lat="45.810234" lon="11.7518081"><ele>455.0</ele><time>2026-04-09T13:02:12.431Z</time></trkpt><trkpt lat="45.8101361" lon="11.7518467"><ele>450.75</ele><time>2026-04-09T13:02:13.433Z</time></trkpt><trkpt lat="45.8100159" lon="11.7518574"><ele>446.5</ele><time>2026-04-09T13:02:14.436Z</time></trkpt><trkpt lat="45.8098956" lon="11.7518764"><ele>442.25</ele><time>2026-04-09T13:02:15.437Z</time></trkpt><trkpt lat="45.8097655" lon="11.7519616"><ele>438.0</ele><time>2026-04-09T13:02:16.434Z</time></trkpt><trkpt lat="45.8096421" lon="11.7520723"><ele>438.0</ele><time>2026-04-09T13:02:17.44Z</time></trkpt><trkpt lat="45.8095089" lon="11.7521501"><ele>438.0</ele><time>2026-04-09T13:02:18.434Z</time></trkpt><trkpt lat="45.8093751" lon="11.7522073"><ele>438.0</ele><time>2026-04-09T13:02:19.428Z</time></trkpt><trkpt lat="45.8092239" lon="11.7522469"><ele>438.0</ele><time>2026-04-09T13:02:20.432Z</time></trkpt><trkpt lat="45.8090607" lon="11.7522502"><ele>444.33333333333337</ele><time>2026-04-09T13:02:21.441Z</time></trkpt><trkpt lat="45.8088955" lon="11.7522795"><ele>450.6666666666667</ele><time>2026-04-09T13:02:22.441Z</time></trkpt><trkpt lat="45.8087376" lon="11.7523212"><ele>457.0</ele><time>2026-04-09T13:02:23.427Z</time></trkpt><trkpt lat="45.8085662" lon="11.752348"><ele>460.6666666666667</ele><time>2026-04-09T13:02:24.428Z</time></trkpt><trkpt lat="45.8083976" lon="11.7523624"><ele>464.33333333333337</ele><time>2026-04-09T13:02:25.436Z</time></trkpt><trkpt lat="45.8082244" lon="11.7523607"><ele>468.0</ele><time>2026-04-09T13:02:26.432Z</time></trkpt><trkpt lat="45.8080511" lon="11.7523529"><ele>468.0</ele><time>2026-04-09T13:02:27.433Z</time></trkpt><trkpt lat="45.8078786" lon="11.7523287"><ele>468.0</ele><time>2026-04-09T13:02:28.462Z</time></trkpt><trkpt lat="45.8077024" lon="11.7523058"><ele>468.0</ele><time>2026-04-09T13:02:29.438Z</time></trkpt><trkpt lat="45.8075364" lon="11.7522836"><ele>467.75</ele><time>2026-04-09T13:02:30.437Z</time></trkpt><trkpt lat="45.8073929" lon="11.7522644"><ele>467.5</ele><time>2026-04-09T13:02:31.43Z</time></trkpt><trkpt lat="45.8072666" lon="11.7522341"><ele>467.25</ele><time>2026-04-09T13:02:32.435Z</time></trkpt><trkpt lat="45.8071412" lon="11.7521959"><ele>467.0</ele><time>2026-04-09T13:02:33.434Z</time></trkpt><trkpt lat="45.8070264" lon="11.7521161"><ele>466.99999999999994</ele><time>2026-04-09T13:02:34.43Z</time></trkpt><trkpt lat="45.8069309" lon="11.7520288"><ele>467.0</ele><time>2026-04-09T13:02:35.437Z</time></trkpt><trkpt lat="45.8068476" lon="11.7519596"><ele>467.0</ele><time>2026-04-09T13:02:36.439Z</time></trkpt><trkpt lat="45.8067897" lon="11.751909"><ele>467.0</ele><time>2026-04-09T13:02:37.435Z</time></trkpt><trkpt lat="45.8067372" lon="11.7518516"><ele>466.99999999999994</ele><time>2026-04-09T13:02:38.429Z</time></trkpt><trkpt lat="45.8066802" lon="11.7517921"><ele>467.0</ele><time>2026-04-09T13:02:39.436Z</time></trkpt><trkpt lat="45.8066166" lon="11.7517281"><ele>473.75</ele><time>2026-04-09T13:02:40.446Z</time></trkpt><trkpt lat="45.8065658" lon="11.7516111"><ele>480.5</ele><time>2026-04-09T13:02:41.437Z</time></trkpt><trkpt lat="45.8065153" lon="11.7514811"><ele>487.25</ele><time>2026-04-09T13:02:42.441Z</time></trkpt><trkpt lat="45.8064524" lon="11.7513353"><ele>494.0</ele><time>2026-04-09T13:02:43.431Z</time></trkpt><trkpt lat="45.8063731" lon="11.7511812"><ele>504.3333333333333</ele><time>2026-04-09T13:02:44.43Z</time></trkpt><trkpt lat="45.8062839" lon="11.7510131"><ele>514.6666666666666</ele><time>2026-04-09T13:02:45.438Z</time></trkpt><trkpt lat="45.806184" lon="11.7508421"><ele>525.0</ele><time>2026-04-09T13:02:46.43Z</time></trkpt><trkpt lat="45.8060727" lon="11.7506813"><ele>513.0</ele><time>2026-04-09T13:02:47.438Z</time></trkpt><trkpt lat="45.8059503" lon="11.7505422"><ele>501.0</ele><time>2026-04-09T13:02:48.442Z</time></trkpt><trkpt lat="45.8058216" lon="11.7504245"><ele>489.0</ele><time>2026-04-09T13:02:49.441Z</time></trkpt><trkpt lat="45.8057006" lon="11.7503112"><ele>489.0</ele><time>2026-04-09T13:02:50.43Z</time></trkpt><trkpt lat="45.8055997" lon="11.7502193"><ele>489.0</ele><time>2026-04-09T13:02:51.437Z</time></trkpt><trkpt lat="45.8055133" lon="11.7501177"><ele>489.0</ele><time>2026-04-09T13:02:52.435Z</time></trkpt><trkpt lat="45.8054505" lon="11.7499839"><ele>489.0</ele><time>2026-04-09T13:02:53.441Z</time></trkpt><trkpt lat="45.8054129" lon="11.7498182"><ele>497.25</ele><time>2026-04-09T13:02:54.439Z</time></trkpt><trkpt lat="45.8053761" lon="11.7496383"><ele>505.5</ele><time>2026-04-09T13:02:55.436Z</time></trkpt><trkpt lat="45.8053293" lon="11.7494513"><ele>513.75</ele><time>2026-04-09T13:02:56.437Z</time></trkpt><trkpt lat="45.8052702" lon="11.7492595"><ele>522.0</ele><time>2026-04-09T13:02:57.432Z</time></trkpt><trkpt lat="45.8052091" lon="11.7490568"><ele>522.0</ele><time>2026-04-09T13:02:58.436Z</time></trkpt><trkpt lat="45.8051408" lon="11.7488337"><ele>522.0</ele><time>2026-04-09T13:02:59.436Z</time></trkpt><trkpt lat="45.8050775" lon="11.7486131"><ele>522.0</ele><time>2026-04-09T13:03:00.452Z</time></trkpt><trkpt lat="45.8050068" lon="11.748389"><ele>522.0</ele><time>2026-04-09T13:03:01.439Z</time></trkpt><trkpt lat="45.8049333" lon="11.7481591"><ele>522.0</ele><time>2026-04-09T13:03:02.437Z</time></trkpt><trkpt lat="45.8048648" lon="11.747933"><ele>522.0</ele><time>2026-04-09T13:03:03.441Z</time></trkpt><trkpt lat="45.8047901" lon="11.7477111"><ele>530.3333333333334</ele><time>2026-04-09T13:03:04.434Z</time></trkpt><trkpt lat="45.8047018" lon="11.7474994"><ele>538.6666666666667</ele><time>2026-04-09T13:03:05.437Z</time></trkpt><trkpt lat="45.8046018" lon="11.7472945"><ele>547.0</ele><time>2026-04-09T13:03:06.437Z</time></trkpt><trkpt lat="45.8044858" lon="11.7470937"><ele>547.0</ele><time>2026-04-09T13:03:07.435Z</time></trkpt><trkpt lat="45.8043547" lon="11.7468903"><ele>547.0</ele><time>2026-04-09T13:03:08.429Z</time></trkpt><trkpt lat="45.8042247" lon="11.7466931"><ele>547.0</ele><time>2026-04-09T13:03:09.434Z</time></trkpt><trkpt lat="45.8041044" lon="11.7465157"><ele>547.3333333333334</ele><time>2026-04-09T13:03:10.433Z</time></trkpt><trkpt lat="45.8039952" lon="11.746348"><ele>547.6666666666666</ele><time>2026-04-09T13:03:11.441Z</time></trkpt><trkpt lat="45.8038897" lon="11.7461802"><ele>548.0</ele><time>2026-04-09T13:03:12.432Z</time></trkpt><trkpt lat="45.8038154" lon="11.7459836"><ele>548.0</ele><time>2026-04-09T13:03:13.442Z</time></trkpt><trkpt lat="45.8037655" lon="11.7458077"><ele>548.0</ele><time>2026-04-09T13:03:14.437Z</time></trkpt><trkpt lat="45.803753" lon="11.7456279"><ele>548.0</ele><time>2026-04-09T13:03:15.431Z</time></trkpt><trkpt lat="45.8037761" lon="11.7454396"><ele>548.0</ele><time>2026-04-09T13:03:16.43Z</time></trkpt><trkpt lat="45.803827" lon="11.745259"><ele>550.5</ele><time>2026-04-09T13:03:17.431Z</time></trkpt><trkpt lat="45.8038799" lon="11.745067"><ele>553.0</ele><time>2026-04-09T13:03:18.435Z</time></trkpt><trkpt lat="45.8039147" lon="11.7448711"><ele>555.5</ele><time>2026-04-09T13:03:19.439Z</time></trkpt><trkpt lat="45.8039261" lon="11.7447073"><ele>558.0</ele><time>2026-04-09T13:03:20.439Z</time></trkpt><trkpt lat="45.8039218" lon="11.7445748"><ele>558.0</ele><time>2026-04-09T13:03:21.442Z</time></trkpt><trkpt lat="45.803889" lon="11.7444746"><ele>558.0</ele><time>2026-04-09T13:03:22.433Z</time></trkpt><trkpt lat="45.8038492" lon="11.7443913"><ele>558.0</ele><time>2026-04-09T13:03:23.438Z</time></trkpt><trkpt lat="45.8037592" lon="11.7444015"><ele>558.0</ele><time>2026-04-09T13:03:24.447Z</time></trkpt><trkpt lat="45.8036579" lon="11.7444311"><ele>558.0</ele><time>2026-04-09T13:03:25.439Z</time></trkpt><trkpt lat="45.8035583" lon="11.7445084"><ele>557.0</ele><time>2026-04-09T13:03:26.434Z</time></trkpt><trkpt lat="45.8034571" lon="11.7445853"><ele>556.0</ele><time>2026-04-09T13:03:27.438Z</time></trkpt><trkpt lat="45.8033515" lon="11.744528"><ele>555.0</ele><time>2026-04-09T13:03:28.441Z</time></trkpt><trkpt lat="45.8032477" lon="11.7444241"><ele>554.0</ele><time>2026-04-09T13:03:29.439Z</time></trkpt><trkpt lat="45.8031334" lon="11.7443001"><ele>554.0</ele><time>2026-04-09T13:03:30.435Z</time></trkpt><trkpt lat="45.8030361" lon="11.7441869"><ele>554.0</ele><time>2026-04-09T13:03:31.437Z</time></trkpt><trkpt lat="45.8029226" lon="11.7440917"><ele>554.0</ele><time>2026-04-09T13:03:32.441Z</time></trkpt><trkpt lat="45.8028339" lon="11.7440367"><ele>554.0</ele><time>2026-04-09T13:03:33.444Z</time></trkpt><trkpt lat="45.8027644" lon="11.743988"><ele>554.0</ele><time>2026-04-09T13:03:34.438Z</time></trkpt><trkpt lat="45.8027418" lon="11.743835"><ele>554.0</ele><time>2026-04-09T13:03:36.438Z</time></trkpt><trkpt lat="45.8028369" lon="11.7437139"><ele>554.0</ele><time>2026-04-09T13:03:38.433Z</time></trkpt><trkpt lat="45.8029456" lon="11.7437895"><ele>554.0</ele><time>2026-04-09T13:03:39.441Z</time></trkpt><trkpt lat="45.8030667" lon="11.7438488"><ele>554.0</ele><time>2026-04-09T13:03:40.438Z</time></trkpt><trkpt lat="45.8031971" lon="11.7439355"><ele>554.0</ele><time>2026-04-09T13:03:41.45Z</time></trkpt><trkpt lat="45.8033312" lon="11.7440077"><ele>554.0</ele><time>2026-04-09T13:03:42.437Z</time></trkpt><trkpt lat="45.8034793" lon="11.7440146"><ele>554.0</ele><time>2026-04-09T13:03:43.442Z</time></trkpt><trkpt lat="45.8036412" lon="11.7439702"><ele>557.3333333333333</ele><time>2026-04-09T13:03:44.44Z</time></trkpt><trkpt lat="45.8038033" lon="11.7438869"><ele>560.6666666666666</ele><time>2026-04-09T13:03:45.435Z</time></trkpt><trkpt lat="45.8039512" lon="11.7438074"><ele>564.0</ele><time>2026-04-09T13:03:46.437Z</time></trkpt><trkpt lat="45.8040755" lon="11.74374"><ele>564.0</ele><time>2026-04-09T13:03:47.444Z</time></trkpt><trkpt lat="45.8041764" lon="11.7436904"><ele>564.0</ele><time>2026-04-09T13:03:48.433Z</time></trkpt><trkpt lat="45.8042625" lon="11.7436775"><ele>564.0</ele><time>2026-04-09T13:03:49.431Z</time></trkpt><trkpt lat="45.804336" lon="11.7436599"><ele>564.0</ele><time>2026-04-09T13:03:50.441Z</time></trkpt><trkpt lat="45.8044068" lon="11.7437534"><ele>564.0</ele><time>2026-04-09T13:03:51.444Z</time></trkpt><trkpt lat="45.8044257" lon="11.7438971"><ele>571.25</ele><time>2026-04-09T13:03:52.429Z</time></trkpt><trkpt lat="45.8044336" lon="11.7440598"><ele>578.5</ele><time>2026-04-09T13:03:53.442Z</time></trkpt><trkpt lat="45.8044471" lon="11.7442812"><ele>585.75</ele><time>2026-04-09T13:03:54.434Z</time></trkpt><trkpt lat="45.8044747" lon="11.7444808"><ele>593.0</ele><time>2026-04-09T13:03:55.432Z</time></trkpt><trkpt lat="45.8045105" lon="11.7446904"><ele>593.0</ele><time>2026-04-09T13:03:56.44Z</time></trkpt><trkpt lat="45.8045912" lon="11.7448876"><ele>593.0</ele><time>2026-04-09T13:03:57.444Z</time></trkpt><trkpt lat="45.8046807" lon="11.7450776"><ele>593.0</ele><time>2026-04-09T13:03:58.435Z</time></trkpt><trkpt lat="45.8047822" lon="11.7452776"><ele>590.6666666666666</ele><time>2026-04-09T13:03:59.437Z</time></trkpt><trkpt lat="45.8048666" lon="11.7454893"><ele>588.3333333333334</ele><time>2026-04-09T13:04:00.435Z</time></trkpt><trkpt lat="45.8049287" lon="11.7457274"><ele>586.0</ele><time>2026-04-09T13:04:01.442Z</time></trkpt><trkpt lat="45.8049833" lon="11.7459586"><ele>581.3333333333334</ele><time>2026-04-09T13:04:02.469Z</time></trkpt><trkpt lat="45.8050374" lon="11.74619"><ele>576.6666666666666</ele><time>2026-04-09T13:04:03.437Z</time></trkpt><trkpt lat="45.8051003" lon="11.7464017"><ele>572.0</ele><time>2026-04-09T13:04:04.437Z</time></trkpt><trkpt lat="45.8051746" lon="11.7465842"><ele>578.0</ele><time>2026-04-09T13:04:05.439Z</time></trkpt><trkpt lat="45.8052621" lon="11.7467452"><ele>584.0</ele><time>2026-04-09T13:04:06.439Z</time></trkpt><trkpt lat="45.805347" lon="11.7469062"><ele>590.0</ele><time>2026-04-09T13:04:07.437Z</time></trkpt><trkpt lat="45.805417" lon="11.7470823"><ele>596.0</ele><time>2026-04-09T13:04:08.443Z</time></trkpt><trkpt lat="45.8054797" lon="11.7472743"><ele>596.0</ele><time>2026-04-09T13:04:09.441Z</time></trkpt><trkpt lat="45.8055495" lon="11.7474706"><ele>596.0</ele><time>2026-04-09T13:04:10.438Z</time></trkpt><trkpt lat="45.805629" lon="11.7476507"><ele>596.0</ele><time>2026-04-09T13:04:11.435Z</time></trkpt><trkpt lat="45.8057317" lon="11.7478174"><ele>597.0</ele><time>2026-04-09T13:04:12.437Z</time></trkpt><trkpt lat="45.8058539" lon="11.7479681"><ele>598.0</ele><time>2026-04-09T13:04:13.44Z</time></trkpt><trkpt lat="45.8059743" lon="11.748104"><ele>599.0</ele><time>2026-04-09T13:04:14.442Z</time></trkpt><trkpt lat="45.8060812" lon="11.7482229"><ele>599.0</ele><time>2026-04-09T13:04:15.433Z</time></trkpt><trkpt lat="45.8061727" lon="11.7483223"><ele>599.0</ele><time>2026-04-09T13:04:16.44Z</time></trkpt><trkpt lat="45.8062546" lon="11.7483927"><ele>599.0</ele><time>2026-04-09T13:04:17.436Z</time></trkpt><trkpt lat="45.8063331" lon="11.7484153"><ele>599.0</ele><time>2026-04-09T13:04:18.437Z</time></trkpt><trkpt lat="45.8064041" lon="11.7483779"><ele>599.0</ele><time>2026-04-09T13:04:19.44Z</time></trkpt><trkpt lat="45.8064462" lon="11.7482896"><ele>599.0</ele><time>2026-04-09T13:04:20.438Z</time></trkpt><trkpt lat="45.8064441" lon="11.7481827"><ele>599.0</ele><time>2026-04-09T13:04:21.466Z</time></trkpt><trkpt lat="45.8063943" lon="11.7480803"><ele>599.0</ele><time>2026-04-09T13:04:22.442Z</time></trkpt><trkpt lat="45.8063294" lon="11.7479644"><ele>599.0</ele><time>2026-04-09T13:04:23.434Z</time></trkpt><trkpt lat="45.8062045" lon="11.7478738"><ele>599.0</ele><time>2026-04-09T13:04:24.435Z</time></trkpt><trkpt lat="45.8060861" lon="11.7477264"><ele>598.0</ele><time>2026-04-09T13:04:25.436Z</time></trkpt><trkpt lat="45.8059922" lon="11.7475194"><ele>597.0</ele><time>2026-04-09T13:04:26.439Z</time></trkpt><trkpt lat="45.8059106" lon="11.7472952"><ele>596.0</ele><time>2026-04-09T13:04:27.435Z</time></trkpt><trkpt lat="45.8058344" lon="11.7470551"><ele>602.0</ele><time>2026-04-09T13:04:28.441Z</time></trkpt><trkpt lat="45.8057767" lon="11.7467986"><ele>608.0</ele><time>2026-04-09T13:04:29.432Z</time></trkpt><trkpt lat="45.8057255" lon="11.7465485"><ele>614.0</ele><time>2026-04-09T13:04:30.435Z</time></trkpt><trkpt lat="45.8057185" lon="11.7462742"><ele>615.6666666666666</ele><time>2026-04-09T13:04:31.434Z</time></trkpt><trkpt lat="45.8057295" lon="11.7460171"><ele>617.3333333333334</ele><time>2026-04-09T13:04:32.492Z</time></trkpt><trkpt lat="45.8057602" lon="11.74579"><ele>619.0</ele><time>2026-04-09T13:04:33.445Z</time></trkpt><trkpt lat="45.8057969" lon="11.7455855"><ele>619.0</ele><time>2026-04-09T13:04:34.438Z</time></trkpt><trkpt lat="45.8058235" lon="11.7453797"><ele>619.0</ele><time>2026-04-09T13:04:35.437Z</time></trkpt><trkpt lat="45.8058534" lon="11.7451746"><ele>619.0</ele><time>2026-04-09T13:04:36.438Z</time></trkpt><trkpt lat="45.8058152" lon="11.7449594"><ele>619.0</ele><time>2026-04-09T13:04:37.443Z</time></trkpt><trkpt lat="45.8057601" lon="11.7447285"><ele>621.0</ele><time>2026-04-09T13:04:38.445Z</time></trkpt><trkpt lat="45.8057261" lon="11.7444903"><ele>623.0</ele><time>2026-04-09T13:04:39.436Z</time></trkpt><trkpt lat="45.8057057" lon="11.7442298"><ele>625.0</ele><time>2026-04-09T13:04:40.437Z</time></trkpt><trkpt lat="45.8057229" lon="11.7439793"><ele>627.3333333333334</ele><time>2026-04-09T13:04:41.441Z</time></trkpt><trkpt lat="45.8057587" lon="11.743729"><ele>629.6666666666666</ele><time>2026-04-09T13:04:42.443Z</time></trkpt><trkpt lat="45.805813" lon="11.7434866"><ele>632.0</ele><time>2026-04-09T13:04:43.446Z</time></trkpt><trkpt lat="45.80589" lon="11.743248"><ele>632.0</ele><time>2026-04-09T13:04:44.442Z</time></trkpt><trkpt lat="45.8059593" lon="11.7430232"><ele>632.0</ele><time>2026-04-09T13:04:45.44Z</time></trkpt><trkpt lat="45.8060166" lon="11.7428217"><ele>632.0</ele><time>2026-04-09T13:04:46.439Z</time></trkpt><trkpt lat="45.8060612" lon="11.7426557"><ele>632.0</ele><time>2026-04-09T13:04:47.442Z</time></trkpt><trkpt lat="45.8060908" lon="11.7425281"><ele>637.3333333333333</ele><time>2026-04-09T13:04:48.438Z</time></trkpt><trkpt lat="45.8061179" lon="11.7424375"><ele>642.6666666666666</ele><time>2026-04-09T13:04:49.44Z</time></trkpt><trkpt lat="45.8062025" lon="11.7423535"><ele>648.0</ele><time>2026-04-09T13:04:51.445Z</time></trkpt><trkpt lat="45.8062587" lon="11.7424084"><ele>653.3333333333334</ele><time>2026-04-09T13:04:52.445Z</time></trkpt><trkpt lat="45.8062427" lon="11.7425283"><ele>658.6666666666667</ele><time>2026-04-09T13:04:53.438Z</time></trkpt><trkpt lat="45.8062136" lon="11.7426535"><ele>664.0</ele><time>2026-04-09T13:04:54.435Z</time></trkpt><trkpt lat="45.806167" lon="11.7428087"><ele>664.0</ele><time>2026-04-09T13:04:55.432Z</time></trkpt><trkpt lat="45.8061195" lon="11.7429827"><ele>664.0</ele><time>2026-04-09T13:04:56.447Z</time></trkpt><trkpt lat="45.8061018" lon="11.7431649"><ele>664.0</ele><time>2026-04-09T13:04:57.439Z</time></trkpt><trkpt lat="45.8061053" lon="11.7433615"><ele>664.0</ele><time>2026-04-09T13:04:58.442Z</time></trkpt><trkpt lat="45.8061386" lon="11.743566"><ele>662.0</ele><time>2026-04-09T13:04:59.434Z</time></trkpt><trkpt lat="45.8062048" lon="11.7437755"><ele>660.0</ele><time>2026-04-09T13:05:00.445Z</time></trkpt><trkpt lat="45.8062833" lon="11.743989"><ele>658.0</ele><time>2026-04-09T13:05:01.445Z</time></trkpt><trkpt lat="45.8063686" lon="11.744188"><ele>658.0</ele><time>2026-04-09T13:05:02.432Z</time></trkpt><trkpt lat="45.8064707" lon="11.7443673"><ele>658.0</ele><time>2026-04-09T13:05:03.445Z</time></trkpt><trkpt lat="45.8065895" lon="11.7445245"><ele>658.0</ele><time>2026-04-09T13:05:04.428Z</time></trkpt><trkpt lat="45.8067244" lon="11.7446514"><ele>659.0</ele><time>2026-04-09T13:05:05.431Z</time></trkpt><trkpt lat="45.8068693" lon="11.7447366"><ele>660.0</ele><time>2026-04-09T13:05:06.431Z</time></trkpt><trkpt lat="45.8070249" lon="11.7447836"><ele>661.0</ele><time>2026-04-09T13:05:07.436Z</time></trkpt><trkpt lat="45.807184" lon="11.7447928"><ele>661.0</ele><time>2026-04-09T13:05:08.488Z</time></trkpt><trkpt lat="45.8073416" lon="11.7447508"><ele>661.0</ele><time>2026-04-09T13:05:09.49Z</time></trkpt><trkpt lat="45.8074923" lon="11.7446583"><ele>661.0</ele><time>2026-04-09T13:05:10.438Z</time></trkpt><trkpt lat="45.8076404" lon="11.7445201"><ele>663.6666666666667</ele><time>2026-04-09T13:05:11.435Z</time></trkpt><trkpt lat="45.8077807" lon="11.7443626"><ele>666.3333333333334</ele><time>2026-04-09T13:05:12.464Z</time></trkpt><trkpt lat="45.8079144" lon="11.7442071"><ele>669.0</ele><time>2026-04-09T13:05:13.443Z</time></trkpt><trkpt lat="45.8080493" lon="11.7440517"><ele>669.0</ele><time>2026-04-09T13:05:14.438Z</time></trkpt><trkpt lat="45.8081834" lon="11.7438985"><ele>669.0</ele><time>2026-04-09T13:05:15.436Z</time></trkpt><trkpt lat="45.8083177" lon="11.7437511"><ele>669.0</ele><time>2026-04-09T13:05:16.435Z</time></trkpt><trkpt lat="45.8084568" lon="11.7436185"><ele>676.6666666666666</ele><time>2026-04-09T13:05:17.437Z</time></trkpt><trkpt lat="45.8085871" lon="11.7434898"><ele>684.3333333333333</ele><time>2026-04-09T13:05:18.432Z</time></trkpt><trkpt lat="45.8087489" lon="11.7433886"><ele>692.0</ele><time>2026-04-09T13:05:19.437Z</time></trkpt><trkpt lat="45.8089159" lon="11.7433214"><ele>692.0</ele><time>2026-04-09T13:05:20.456Z</time></trkpt><trkpt lat="45.8090771" lon="11.7432671"><ele>692.0</ele><time>2026-04-09T13:05:21.439Z</time></trkpt><trkpt lat="45.8092234" lon="11.7432316"><ele>692.0</ele><time>2026-04-09T13:05:22.437Z</time></trkpt><trkpt lat="45.8093465" lon="11.7432208"><ele>692.0</ele><time>2026-04-09T13:05:23.437Z</time></trkpt><trkpt lat="45.8094389" lon="11.7432329"><ele>694.0</ele><time>2026-04-09T13:05:24.443Z</time></trkpt><trkpt lat="45.8095183" lon="11.743257"><ele>696.0</ele><time>2026-04-09T13:05:25.444Z</time></trkpt><trkpt lat="45.8095951" lon="11.7433385"><ele>698.0</ele><time>2026-04-09T13:05:26.446Z</time></trkpt><trkpt lat="45.8096236" lon="11.7435181"><ele>700.0</ele><time>2026-04-09T13:05:27.434Z</time></trkpt><trkpt lat="45.8096409" lon="11.7437092"><ele>702.0</ele><time>2026-04-09T13:05:28.428Z</time></trkpt><trkpt lat="45.8096701" lon="11.7439013"><ele>702.0</ele><time>2026-04-09T13:05:29.444Z</time></trkpt><trkpt lat="45.8097354" lon="11.7440789"><ele>702.0</ele><time>2026-04-09T13:05:30.443Z</time></trkpt><trkpt lat="45.8098386" lon="11.7442341"><ele>702.0</ele><time>2026-04-09T13:05:31.432Z</time></trkpt><trkpt lat="45.8099451" lon="11.7443724"><ele>702.0</ele><time>2026-04-09T13:05:32.433Z</time></trkpt><trkpt lat="45.8100381" lon="11.7444823"><ele>700.75</ele><time>2026-04-09T13:05:33.433Z</time></trkpt><trkpt lat="45.8101002" lon="11.7446239"><ele>699.5</ele><time>2026-04-09T13:05:34.427Z</time></trkpt><trkpt lat="45.8100995" lon="11.7448051"><ele>698.25</ele><time>2026-04-09T13:05:35.434Z</time></trkpt><trkpt lat="45.8100731" lon="11.7449854"><ele>697.0</ele><time>2026-04-09T13:05:36.442Z</time></trkpt><trkpt lat="45.8100469" lon="11.7451744"><ele>696.75</ele><time>2026-04-09T13:05:37.434Z</time></trkpt><trkpt lat="45.810052" lon="11.7453666"><ele>696.5</ele><time>2026-04-09T13:05:38.441Z</time></trkpt><trkpt lat="45.8101038" lon="11.745559"><ele>696.25</ele><time>2026-04-09T13:05:39.442Z</time></trkpt><trkpt lat="45.8101879" lon="11.7457377"><ele>696.0</ele><time>2026-04-09T13:05:40.443Z</time></trkpt><trkpt lat="45.8102946" lon="11.7458708"><ele>699.5</ele><time>2026-04-09T13:05:41.441Z</time></trkpt><trkpt lat="45.8104036" lon="11.7459666"><ele>703.0</ele><time>2026-04-09T13:05:42.456Z</time></trkpt><trkpt lat="45.8105403" lon="11.7460009"><ele>706.5</ele><time>2026-04-09T13:05:43.449Z</time></trkpt><trkpt lat="45.8107076" lon="11.7459959"><ele>710.0</ele><time>2026-04-09T13:05:44.437Z</time></trkpt><trkpt lat="45.810888" lon="11.745976"><ele>712.6666666666666</ele><time>2026-04-09T13:05:45.446Z</time></trkpt><trkpt lat="45.8110849" lon="11.745941"><ele>715.3333333333334</ele><time>2026-04-09T13:05:46.452Z</time></trkpt><trkpt lat="45.8112875" lon="11.7459099"><ele>718.0</ele><time>2026-04-09T13:05:47.448Z</time></trkpt><trkpt lat="45.8114973" lon="11.74589"><ele>718.0</ele><time>2026-04-09T13:05:48.441Z</time></trkpt><trkpt lat="45.8117165" lon="11.7458786"><ele>718.0</ele><time>2026-04-09T13:05:49.45Z</time></trkpt><trkpt lat="45.8119312" lon="11.7458694"><ele>718.0</ele><time>2026-04-09T13:05:50.443Z</time></trkpt><trkpt lat="45.8121449" lon="11.7458641"><ele>721.0</ele><time>2026-04-09T13:05:51.472Z</time></trkpt><trkpt lat="45.8123435" lon="11.7458715"><ele>724.0</ele><time>2026-04-09T13:05:52.436Z</time></trkpt><trkpt lat="45.8125482" lon="11.7458946"><ele>727.0</ele><time>2026-04-09T13:05:53.515Z</time></trkpt><trkpt lat="45.8127307" lon="11.7459283"><ele>728.6666666666667</ele><time>2026-04-09T13:05:54.443Z</time></trkpt><trkpt lat="45.8129094" lon="11.7459447"><ele>730.3333333333334</ele><time>2026-04-09T13:05:55.447Z</time></trkpt><trkpt lat="45.813062" lon="11.7459171"><ele>732.0</ele><time>2026-04-09T13:05:56.446Z</time></trkpt><trkpt lat="45.8131975" lon="11.7458696"><ele>732.0</ele><time>2026-04-09T13:05:57.449Z</time></trkpt><trkpt lat="45.8132948" lon="11.7457987"><ele>732.0</ele><time>2026-04-09T13:05:58.446Z</time></trkpt><trkpt lat="45.8133894" lon="11.7457479"><ele>732.0</ele><time>2026-04-09T13:05:59.461Z</time></trkpt><trkpt lat="45.8134884" lon="11.7457281"><ele>732.0</ele><time>2026-04-09T13:06:00.438Z</time></trkpt><trkpt lat="45.8136135" lon="11.7457422"><ele>732.0</ele><time>2026-04-09T13:06:01.441Z</time></trkpt><trkpt lat="45.8137503" lon="11.7457796"><ele>730.4000000000001</ele><time>2026-04-09T13:06:02.45Z</time></trkpt><trkpt lat="45.8138896" lon="11.7458301"><ele>728.8000000000001</ele><time>2026-04-09T13:06:03.44Z</time></trkpt><trkpt lat="45.8140064" lon="11.7458825"><ele>727.2</ele><time>2026-04-09T13:06:04.447Z</time></trkpt><trkpt lat="45.814099" lon="11.7459397"><ele>725.6</ele><time>2026-04-09T13:06:05.446Z</time></trkpt><trkpt lat="45.8141692" lon="11.7459745"><ele>724.0</ele><time>2026-04-09T13:06:06.438Z</time></trkpt><trkpt lat="45.8142614" lon="11.7459144"><ele>724.0</ele><time>2026-04-09T13:06:08.438Z</time></trkpt><trkpt lat="45.8142527" lon="11.745814"><ele>724.0</ele><time>2026-04-09T13:06:09.44Z</time></trkpt><trkpt lat="45.8141979" lon="11.7457356"><ele>724.0</ele><time>2026-04-09T13:06:10.437Z</time></trkpt><trkpt lat="45.8141005" lon="11.7456993"><ele>724.0</ele><time>2026-04-09T13:06:11.442Z</time></trkpt><trkpt lat="45.8139981" lon="11.7456838"><ele>724.0</ele><time>2026-04-09T13:06:12.436Z</time></trkpt><trkpt lat="45.8138665" lon="11.7456685"><ele>724.0</ele><time>2026-04-09T13:06:13.44Z</time></trkpt><trkpt lat="45.8137351" lon="11.7456239"><ele>724.0</ele><time>2026-04-09T13:06:14.44Z</time></trkpt><trkpt lat="45.8135957" lon="11.7455646"><ele>724.0</ele><time>2026-04-09T13:06:15.441Z</time></trkpt><trkpt lat="45.8134431" lon="11.7455207"><ele>724.0</ele><time>2026-04-09T13:06:16.44Z</time></trkpt><trkpt lat="45.8132827" lon="11.7454911"><ele>726.6666666666667</ele><time>2026-04-09T13:06:17.434Z</time></trkpt><trkpt lat="45.8131297" lon="11.7454562"><ele>729.3333333333334</ele><time>2026-04-09T13:06:18.434Z</time></trkpt><trkpt lat="45.8129878" lon="11.7453957"><ele>732.0</ele><time>2026-04-09T13:06:19.429Z</time></trkpt><trkpt lat="45.8128483" lon="11.7453069"><ele>739.0</ele><time>2026-04-09T13:06:20.435Z</time></trkpt><trkpt lat="45.8127085" lon="11.7452018"><ele>746.0</ele><time>2026-04-09T13:06:21.435Z</time></trkpt><trkpt lat="45.8125637" lon="11.7450968"><ele>753.0</ele><time>2026-04-09T13:06:22.44Z</time></trkpt><trkpt lat="45.812417" lon="11.7449932"><ele>753.0</ele><time>2026-04-09T13:06:23.438Z</time></trkpt><trkpt lat="45.8122695" lon="11.7448939"><ele>753.0</ele><time>2026-04-09T13:06:24.477Z</time></trkpt><trkpt lat="45.8121514" lon="11.7448105"><ele>753.0</ele><time>2026-04-09T13:06:25.439Z</time></trkpt><trkpt lat="45.8120313" lon="11.7447282"><ele>753.0</ele><time>2026-04-09T13:06:26.445Z</time></trkpt><trkpt lat="45.8119245" lon="11.744627"><ele>753.0</ele><time>2026-04-09T13:06:27.436Z</time></trkpt><trkpt lat="45.8118284" lon="11.7445015"><ele>753.0</ele><time>2026-04-09T13:06:28.442Z</time></trkpt><trkpt lat="45.8117436" lon="11.7443665"><ele>753.0</ele><time>2026-04-09T13:06:29.431Z</time></trkpt><trkpt lat="45.811707" lon="11.7441896"><ele>753.0</ele><time>2026-04-09T13:06:30.446Z</time></trkpt><trkpt lat="45.8116903" lon="11.7439895"><ele>753.75</ele><time>2026-04-09T13:06:31.447Z</time></trkpt><trkpt lat="45.8116911" lon="11.743783"><ele>754.5</ele><time>2026-04-09T13:06:32.431Z</time></trkpt><trkpt lat="45.8117047" lon="11.7436009"><ele>755.25</ele><time>2026-04-09T13:06:33.434Z</time></trkpt><trkpt lat="45.8117352" lon="11.7434372"><ele>756.0</ele><time>2026-04-09T13:06:34.456Z</time></trkpt><trkpt lat="45.81178" lon="11.7432855"><ele>759.5</ele><time>2026-04-09T13:06:35.438Z</time></trkpt><trkpt lat="45.8118288" lon="11.743123"><ele>763.0</ele><time>2026-04-09T13:06:36.447Z</time></trkpt><trkpt lat="45.8118454" lon="11.742939"><ele>766.5</ele><time>2026-04-09T13:06:37.429Z</time></trkpt><trkpt lat="45.8118263" lon="11.7427545"><ele>770.0</ele><time>2026-04-09T13:06:38.444Z</time></trkpt><trkpt lat="45.8117581" lon="11.7425657"><ele>770.0</ele><time>2026-04-09T13:06:39.443Z</time></trkpt><trkpt lat="45.8116688" lon="11.7423768"><ele>770.0</ele><time>2026-04-09T13:06:40.434Z</time></trkpt><trkpt lat="45.8115804" lon="11.7421876"><ele>770.0</ele><time>2026-04-09T13:06:41.449Z</time></trkpt><trkpt lat="45.8115053" lon="11.74201"><ele>771.5</ele><time>2026-04-09T13:06:42.446Z</time></trkpt><trkpt lat="45.8114602" lon="11.7418375"><ele>773.0</ele><time>2026-04-09T13:06:43.439Z</time></trkpt><trkpt lat="45.8114348" lon="11.7416763"><ele>774.5</ele><time>2026-04-09T13:06:44.442Z</time></trkpt><trkpt lat="45.8114411" lon="11.7414989"><ele>776.0</ele><time>2026-04-09T13:06:45.438Z</time></trkpt><trkpt lat="45.8114695" lon="11.7413188"><ele>776.0</ele><time>2026-04-09T13:06:46.445Z</time></trkpt><trkpt lat="45.8115436" lon="11.7411525"><ele>776.0</ele><time>2026-04-09T13:06:47.441Z</time></trkpt><trkpt lat="45.8116531" lon="11.7409851"><ele>776.0</ele><time>2026-04-09T13:06:48.438Z</time></trkpt><trkpt lat="45.8117643" lon="11.740821"><ele>780.25</ele><time>2026-04-09T13:06:49.441Z</time></trkpt><trkpt lat="45.8118635" lon="11.740679"><ele>784.5</ele><time>2026-04-09T13:06:50.441Z</time></trkpt><trkpt lat="45.8119577" lon="11.7405785"><ele>788.75</ele><time>2026-04-09T13:06:51.434Z</time></trkpt><trkpt lat="45.8120717" lon="11.7404975"><ele>793.0</ele><time>2026-04-09T13:06:52.448Z</time></trkpt><trkpt lat="45.8121972" lon="11.7404772"><ele>793.0</ele><time>2026-04-09T13:06:53.449Z</time></trkpt><trkpt lat="45.8123285" lon="11.7404951"><ele>793.0</ele><time>2026-04-09T13:06:54.437Z</time></trkpt><trkpt lat="45.8124685" lon="11.7405459"><ele>793.0</ele><time>2026-04-09T13:06:55.435Z</time></trkpt><trkpt lat="45.8126153" lon="11.7406237"><ele>793.0</ele><time>2026-04-09T13:06:56.439Z</time></trkpt><trkpt lat="45.8127667" lon="11.7407264"><ele>792.6666666666666</ele><time>2026-04-09T13:06:57.435Z</time></trkpt><trkpt lat="45.8129246" lon="11.7408393"><ele>792.3333333333333</ele><time>2026-04-09T13:06:58.436Z</time></trkpt><trkpt lat="45.8130766" lon="11.7409681"><ele>792.0</ele><time>2026-04-09T13:06:59.442Z</time></trkpt><trkpt lat="45.8132327" lon="11.7410834"><ele>786.0</ele><time>2026-04-09T13:07:00.438Z</time></trkpt><trkpt lat="45.8133885" lon="11.7411861"><ele>780.0</ele><time>2026-04-09T13:07:01.44Z</time></trkpt><trkpt lat="45.8135479" lon="11.7412346"><ele>774.0</ele><time>2026-04-09T13:07:02.45Z</time></trkpt><trkpt lat="45.8137161" lon="11.7412506"><ele>773.0</ele><time>2026-04-09T13:07:03.493Z</time></trkpt><trkpt lat="45.8138845" lon="11.7412424"><ele>772.0</ele><time>2026-04-09T13:07:04.439Z</time></trkpt><trkpt lat="45.8140597" lon="11.7411983"><ele>771.0</ele><time>2026-04-09T13:07:05.438Z</time></trkpt><trkpt lat="45.8142239" lon="11.7411316"><ele>773.6666666666667</ele><time>2026-04-09T13:07:06.45Z</time></trkpt><trkpt lat="45.8143693" lon="11.7410378"><ele>776.3333333333334</ele><time>2026-04-09T13:07:07.448Z</time></trkpt><trkpt lat="45.814486" lon="11.7408894"><ele>779.0</ele><time>2026-04-09T13:07:08.436Z</time></trkpt><trkpt lat="45.8145922" lon="11.7407155"><ele>779.0</ele><time>2026-04-09T13:07:09.435Z</time></trkpt><trkpt lat="45.8146934" lon="11.7405153"><ele>779.0</ele><time>2026-04-09T13:07:10.441Z</time></trkpt><trkpt lat="45.8147903" lon="11.7403242"><ele>779.0</ele><time>2026-04-09T13:07:11.438Z</time></trkpt><trkpt lat="45.8148855" lon="11.7401533"><ele>781.5</ele><time>2026-04-09T13:07:12.437Z</time></trkpt><trkpt lat="45.814982" lon="11.7400114"><ele>784.0</ele><time>2026-04-09T13:07:13.441Z</time></trkpt><trkpt lat="45.815093" lon="11.7399028"><ele>786.5</ele><time>2026-04-09T13:07:14.437Z</time></trkpt><trkpt lat="45.8152154" lon="11.7398344"><ele>789.0</ele><time>2026-04-09T13:07:15.445Z</time></trkpt><trkpt lat="45.8153414" lon="11.7397794"><ele>791.75</ele><time>2026-04-09T13:07:16.434Z</time></trkpt><trkpt lat="45.8154648" lon="11.7398185"><ele>794.5</ele><time>2026-04-09T13:07:17.434Z</time></trkpt><trkpt lat="45.81556" lon="11.7398903"><ele>797.25</ele><time>2026-04-09T13:07:18.437Z</time></trkpt><trkpt lat="45.8156502" lon="11.7399995"><ele>800.0</ele><time>2026-04-09T13:07:19.437Z</time></trkpt><trkpt lat="45.8156825" lon="11.7401578"><ele>801.0</ele><time>2026-04-09T13:07:20.438Z</time></trkpt><trkpt lat="45.8156971" lon="11.7403477"><ele>802.0</ele><time>2026-04-09T13:07:21.439Z</time></trkpt><trkpt lat="45.8157211" lon="11.7405484"><ele>803.0</ele><time>2026-04-09T13:07:22.444Z</time></trkpt><trkpt lat="45.8157377" lon="11.7407529"><ele>804.0</ele><time>2026-04-09T13:07:23.448Z</time></trkpt><trkpt lat="45.8157488" lon="11.7409447"><ele>803.0</ele><time>2026-04-09T13:07:24.437Z</time></trkpt><trkpt lat="45.8157354" lon="11.7411097"><ele>802.0</ele><time>2026-04-09T13:07:25.433Z</time></trkpt><trkpt lat="45.815725" lon="11.7412669"><ele>801.0</ele><time>2026-04-09T13:07:26.446Z</time></trkpt><trkpt lat="45.815741" lon="11.7414282"><ele>800.0</ele><time>2026-04-09T13:07:27.442Z</time></trkpt><trkpt lat="45.8157934" lon="11.7415918"><ele>800.0</ele><time>2026-04-09T13:07:28.44Z</time></trkpt><trkpt lat="45.8158563" lon="11.7417499"><ele>800.0</ele><time>2026-04-09T13:07:29.445Z</time></trkpt><trkpt lat="45.8159098" lon="11.7418835"><ele>800.0</ele><time>2026-04-09T13:07:30.437Z</time></trkpt><trkpt lat="45.8159657" lon="11.7419979"><ele>800.0</ele><time>2026-04-09T13:07:31.445Z</time></trkpt><trkpt lat="45.8160565" lon="11.7420615"><ele>800.0</ele><time>2026-04-09T13:07:32.435Z</time></trkpt><trkpt lat="45.8161676" lon="11.7420864"><ele>797.25</ele><time>2026-04-09T13:07:33.437Z</time></trkpt><trkpt lat="45.816297" lon="11.7420955"><ele>794.5</ele><time>2026-04-09T13:07:34.433Z</time></trkpt><trkpt lat="45.8164303" lon="11.7421107"><ele>791.75</ele><time>2026-04-09T13:07:35.436Z</time></trkpt><trkpt lat="45.8165692" lon="11.7421304"><ele>789.0</ele><time>2026-04-09T13:07:36.436Z</time></trkpt><trkpt lat="45.8166959" lon="11.7421475"><ele>789.0</ele><time>2026-04-09T13:07:37.445Z</time></trkpt><trkpt lat="45.8168031" lon="11.7421423"><ele>789.0</ele><time>2026-04-09T13:07:38.441Z</time></trkpt><trkpt lat="45.8168985" lon="11.7420986"><ele>789.0</ele><time>2026-04-09T13:07:39.443Z</time></trkpt><trkpt lat="45.8169815" lon="11.7420078"><ele>789.0</ele><time>2026-04-09T13:07:40.445Z</time></trkpt><trkpt lat="45.8170529" lon="11.741883"><ele>789.0</ele><time>2026-04-09T13:07:41.429Z</time></trkpt><trkpt lat="45.8171138" lon="11.7417327"><ele>794.2</ele><time>2026-04-09T13:07:42.435Z</time></trkpt><trkpt lat="45.8171748" lon="11.7415763"><ele>799.4000000000001</ele><time>2026-04-09T13:07:43.441Z</time></trkpt><trkpt lat="45.8172328" lon="11.7414399"><ele>804.6</ele><time>2026-04-09T13:07:44.441Z</time></trkpt><trkpt lat="45.8172941" lon="11.7413246"><ele>809.8</ele><time>2026-04-09T13:07:45.433Z</time></trkpt><trkpt lat="45.8173467" lon="11.7412086"><ele>815.0</ele><time>2026-04-09T13:07:46.429Z</time></trkpt><trkpt lat="45.8174396" lon="11.7411706"><ele>815.0</ele><time>2026-04-09T13:07:47.44Z</time></trkpt><trkpt lat="45.8175496" lon="11.7411892"><ele>815.0</ele><time>2026-04-09T13:07:48.435Z</time></trkpt><trkpt lat="45.8176658" lon="11.7412432"><ele>815.0</ele><time>2026-04-09T13:07:49.435Z</time></trkpt><trkpt lat="45.8177773" lon="11.7412955"><ele>815.0</ele><time>2026-04-09T13:07:50.445Z</time></trkpt><trkpt lat="45.8178797" lon="11.7414023"><ele>816.2</ele><time>2026-04-09T13:07:51.445Z</time></trkpt><trkpt lat="45.8179651" lon="11.7415174"><ele>817.4</ele><time>2026-04-09T13:07:52.442Z</time></trkpt><trkpt lat="45.8180457" lon="11.7416328"><ele>818.5999999999999</ele><time>2026-04-09T13:07:53.434Z</time></trkpt><trkpt lat="45.8181171" lon="11.7417497"><ele>819.8</ele><time>2026-04-09T13:07:54.442Z</time></trkpt><trkpt lat="45.81817" lon="11.7418101"><ele>821.0</ele><time>2026-04-09T13:07:55.437Z</time></trkpt><trkpt lat="45.8182524" lon="11.7418254"><ele>821.0</ele><time>2026-04-09T13:07:56.43Z</time></trkpt><trkpt lat="45.818347" lon="11.7417596"><ele>821.0</ele><time>2026-04-09T13:07:57.424Z</time></trkpt><trkpt lat="45.8184459" lon="11.7416154"><ele>821.0</ele><time>2026-04-09T13:07:58.43Z</time></trkpt><trkpt lat="45.8185473" lon="11.7414724"><ele>821.0</ele><time>2026-04-09T13:07:59.433Z</time></trkpt><trkpt lat="45.8186614" lon="11.7413085"><ele>819.75</ele><time>2026-04-09T13:08:00.439Z</time></trkpt><trkpt lat="45.8187771" lon="11.7411626"><ele>818.5</ele><time>2026-04-09T13:08:01.448Z</time></trkpt><trkpt lat="45.8188696" lon="11.7410479"><ele>817.25</ele><time>2026-04-09T13:08:02.438Z</time></trkpt><trkpt lat="45.81897" lon="11.7409777"><ele>816.0</ele><time>2026-04-09T13:08:03.436Z</time></trkpt><trkpt lat="45.8190932" lon="11.7409687"><ele>819.25</ele><time>2026-04-09T13:08:04.435Z</time></trkpt><trkpt lat="45.8192338" lon="11.7409907"><ele>822.5</ele><time>2026-04-09T13:08:05.437Z</time></trkpt><trkpt lat="45.8193799" lon="11.7410228"><ele>825.75</ele><time>2026-04-09T13:08:06.458Z</time></trkpt><trkpt lat="45.8195141" lon="11.7410644"><ele>829.0</ele><time>2026-04-09T13:08:07.454Z</time></trkpt><trkpt lat="45.819627" lon="11.7411236"><ele>830.75</ele><time>2026-04-09T13:08:08.436Z</time></trkpt><trkpt lat="45.8197247" lon="11.7412234"><ele>832.5</ele><time>2026-04-09T13:08:09.436Z</time></trkpt><trkpt lat="45.8198098" lon="11.7413594"><ele>834.25</ele><time>2026-04-09T13:08:10.442Z</time></trkpt><trkpt lat="45.8198891" lon="11.7415115"><ele>836.0</ele><time>2026-04-09T13:08:11.439Z</time></trkpt><trkpt lat="45.8199575" lon="11.7416446"><ele>836.0</ele><time>2026-04-09T13:08:12.439Z</time></trkpt><trkpt lat="45.8200345" lon="11.7417456"><ele>836.0</ele><time>2026-04-09T13:08:13.452Z</time></trkpt><trkpt lat="45.8201088" lon="11.7418376"><ele>836.0</ele><time>2026-04-09T13:08:14.442Z</time></trkpt><trkpt lat="45.8202183" lon="11.7418591"><ele>836.0</ele><time>2026-04-09T13:08:15.435Z</time></trkpt><trkpt lat="45.8203363" lon="11.7418685"><ele>836.0</ele><time>2026-04-09T13:08:16.442Z</time></trkpt><trkpt lat="45.8204615" lon="11.7418989"><ele>833.75</ele><time>2026-04-09T13:08:17.438Z</time></trkpt><trkpt lat="45.8205843" lon="11.7419658"><ele>831.5</ele><time>2026-04-09T13:08:18.441Z</time></trkpt><trkpt lat="45.8207035" lon="11.7420546"><ele>829.25</ele><time>2026-04-09T13:08:19.441Z</time></trkpt><trkpt lat="45.8208214" lon="11.7421311"><ele>827.0</ele><time>2026-04-09T13:08:20.434Z</time></trkpt><trkpt lat="45.8209442" lon="11.7421645"><ele>832.25</ele><time>2026-04-09T13:08:21.432Z</time></trkpt><trkpt lat="45.8210599" lon="11.7421798"><ele>837.5</ele><time>2026-04-09T13:08:22.44Z</time></trkpt><trkpt lat="45.8211699" lon="11.7420968"><ele>842.75</ele><time>2026-04-09T13:08:23.438Z</time></trkpt><trkpt lat="45.8212668" lon="11.7420182"><ele>848.0</ele><time>2026-04-09T13:08:24.434Z</time></trkpt><trkpt lat="45.821365" lon="11.7419515"><ele>848.0</ele><time>2026-04-09T13:08:25.434Z</time></trkpt><trkpt lat="45.8214713" lon="11.7420026"><ele>848.0</ele><time>2026-04-09T13:08:26.438Z</time></trkpt><trkpt lat="45.8215731" lon="11.742095"><ele>848.0</ele><time>2026-04-09T13:08:27.43Z</time></trkpt><trkpt lat="45.8216664" lon="11.7421921"><ele>848.0</ele><time>2026-04-09T13:08:28.435Z</time></trkpt><trkpt lat="45.8217784" lon="11.7422338"><ele>850.0</ele><time>2026-04-09T13:08:29.434Z</time></trkpt><trkpt lat="45.8219027" lon="11.7422329"><ele>852.0</ele><time>2026-04-09T13:08:30.431Z</time></trkpt><trkpt lat="45.8220356" lon="11.7422336"><ele>854.0</ele><time>2026-04-09T13:08:31.432Z</time></trkpt><trkpt lat="45.8221699" lon="11.7422811"><ele>856.0</ele><time>2026-04-09T13:08:32.429Z</time></trkpt><trkpt lat="45.8222997" lon="11.7423717"><ele>856.0</ele><time>2026-04-09T13:08:33.431Z</time></trkpt><trkpt lat="45.8224326" lon="11.7424776"><ele>856.0</ele><time>2026-04-09T13:08:34.435Z</time></trkpt><trkpt lat="45.8225635" lon="11.7425644"><ele>856.0</ele><time>2026-04-09T13:08:35.432Z</time></trkpt><trkpt lat="45.8226802" lon="11.7426408"><ele>856.0</ele><time>2026-04-09T13:08:36.429Z</time></trkpt><trkpt lat="45.8228062" lon="11.742687"><ele>857.25</ele><time>2026-04-09T13:08:37.444Z</time></trkpt><trkpt lat="45.8229395" lon="11.742755"><ele>858.5</ele><time>2026-04-09T13:08:38.44Z</time></trkpt><trkpt lat="45.8230774" lon="11.7427343"><ele>859.75</ele><time>2026-04-09T13:08:39.431Z</time></trkpt><trkpt lat="45.8231985" lon="11.7427367"><ele>861.0</ele><time>2026-04-09T13:08:40.431Z</time></trkpt><trkpt lat="45.8233056" lon="11.742692"><ele>861.0</ele><time>2026-04-09T13:08:41.453Z</time></trkpt><trkpt lat="45.8233905" lon="11.7426058"><ele>861.0</ele><time>2026-04-09T13:08:42.453Z</time></trkpt><trkpt lat="45.8234727" lon="11.7424662"><ele>861.0</ele><time>2026-04-09T13:08:43.443Z</time></trkpt><trkpt lat="45.8235492" lon="11.7422936"><ele>861.0</ele><time>2026-04-09T13:08:44.438Z</time></trkpt><trkpt lat="45.8236343" lon="11.7421063"><ele>856.3333333333333</ele><time>2026-04-09T13:08:45.438Z</time></trkpt><trkpt lat="45.8237305" lon="11.7419198"><ele>851.6666666666666</ele><time>2026-04-09T13:08:46.452Z</time></trkpt><trkpt lat="45.8238323" lon="11.7417409"><ele>847.0</ele><time>2026-04-09T13:08:47.44Z</time></trkpt><trkpt lat="45.8239126" lon="11.7415422"><ele>847.0</ele><time>2026-04-09T13:08:48.439Z</time></trkpt><trkpt lat="45.8239953" lon="11.7413252"><ele>847.0</ele><time>2026-04-09T13:08:49.442Z</time></trkpt><trkpt lat="45.8240474" lon="11.7410646"><ele>847.0</ele><time>2026-04-09T13:08:50.449Z</time></trkpt><trkpt lat="45.8240548" lon="11.7407864"><ele>847.6666666666666</ele><time>2026-04-09T13:08:51.43Z</time></trkpt><trkpt lat="45.8240625" lon="11.7405048"><ele>848.3333333333333</ele><time>2026-04-09T13:08:52.446Z</time></trkpt><trkpt lat="45.8241057" lon="11.7402255"><ele>849.0</ele><time>2026-04-09T13:08:53.466Z</time></trkpt><trkpt lat="45.8241506" lon="11.7399506"><ele>852.0</ele><time>2026-04-09T13:08:54.444Z</time></trkpt><trkpt lat="45.824188" lon="11.7396635"><ele>855.0</ele><time>2026-04-09T13:08:55.437Z</time></trkpt><trkpt lat="45.8242024" lon="11.7393552"><ele>858.0</ele><time>2026-04-09T13:08:56.442Z</time></trkpt><trkpt lat="45.8242158" lon="11.7390632"><ele>858.75</ele><time>2026-04-09T13:08:57.437Z</time></trkpt><trkpt lat="45.8242547" lon="11.7388292"><ele>859.5</ele><time>2026-04-09T13:08:58.438Z</time></trkpt><trkpt lat="45.8243098" lon="11.7386291"><ele>860.25</ele><time>2026-04-09T13:08:59.443Z</time></trkpt><trkpt lat="45.8243456" lon="11.7384495"><ele>861.0</ele><time>2026-04-09T13:09:00.433Z</time></trkpt><trkpt lat="45.8243532" lon="11.7382817"><ele>861.0</ele><time>2026-04-09T13:09:01.436Z</time></trkpt><trkpt lat="45.824348" lon="11.7380936"><ele>861.0</ele><time>2026-04-09T13:09:02.44Z</time></trkpt><trkpt lat="45.8242758" lon="11.7379148"><ele>861.0</ele><time>2026-04-09T13:09:03.449Z</time></trkpt><trkpt lat="45.8241744" lon="11.7377607"><ele>861.0</ele><time>2026-04-09T13:09:04.44Z</time></trkpt><trkpt lat="45.8240632" lon="11.7376064"><ele>860.0</ele><time>2026-04-09T13:09:05.446Z</time></trkpt><trkpt lat="45.8239677" lon="11.7375056"><ele>858.9999999999999</ele><time>2026-04-09T13:09:06.435Z</time></trkpt><trkpt lat="45.8238806" lon="11.7374136"><ele>857.9999999999999</ele><time>2026-04-09T13:09:07.433Z</time></trkpt><trkpt lat="45.8238405" lon="11.7373217"><ele>857.0</ele><time>2026-04-09T13:09:08.438Z</time></trkpt><trkpt lat="45.8238508" lon="11.7371916"><ele>856.0</ele><time>2026-04-09T13:09:09.434Z</time></trkpt><trkpt lat="45.8238818" lon="11.7370893"><ele>856.0</ele><time>2026-04-09T13:09:10.432Z</time></trkpt><trkpt lat="45.8239775" lon="11.7370095"><ele>856.0</ele><time>2026-04-09T13:09:11.432Z</time></trkpt><trkpt lat="45.8241002" lon="11.7369449"><ele>856.0</ele><time>2026-04-09T13:09:12.439Z</time></trkpt><trkpt lat="45.8242127" lon="11.7369063"><ele>856.0</ele><time>2026-04-09T13:09:13.444Z</time></trkpt><trkpt lat="45.8243268" lon="11.736889"><ele>856.6666666666666</ele><time>2026-04-09T13:09:14.435Z</time></trkpt><trkpt lat="45.824454" lon="11.7369815"><ele>857.3333333333333</ele><time>2026-04-09T13:09:15.436Z</time></trkpt><trkpt lat="45.824595" lon="11.7371053"><ele>858.0</ele><time>2026-04-09T13:09:16.432Z</time></trkpt><trkpt lat="45.824744" lon="11.7372301"><ele>858.0</ele><time>2026-04-09T13:09:17.43Z</time></trkpt><trkpt lat="45.8248852" lon="11.7373693"><ele>858.0</ele><time>2026-04-09T13:09:18.427Z</time></trkpt><trkpt lat="45.8250022" lon="11.7375085"><ele>858.0</ele><time>2026-04-09T13:09:19.441Z</time></trkpt><trkpt lat="45.8250901" lon="11.7376812"><ele>862.25</ele><time>2026-04-09T13:09:20.442Z</time></trkpt><trkpt lat="45.8251561" lon="11.7378662"><ele>866.5</ele><time>2026-04-09T13:09:21.448Z</time></trkpt><trkpt lat="45.825233" lon="11.7380256"><ele>870.75</ele><time>2026-04-09T13:09:22.435Z</time></trkpt><trkpt lat="45.8253086" lon="11.7381313"><ele>875.0</ele><time>2026-04-09T13:09:23.439Z</time></trkpt><trkpt lat="45.82539" lon="11.7381995"><ele>875.0</ele><time>2026-04-09T13:09:24.435Z</time></trkpt><trkpt lat="45.8254781" lon="11.7382525"><ele>875.0</ele><time>2026-04-09T13:09:25.435Z</time></trkpt><trkpt lat="45.8255722" lon="11.7383169"><ele>875.0</ele><time>2026-04-09T13:09:26.435Z</time></trkpt><trkpt lat="45.8256486" lon="11.7384121"><ele>875.0</ele><time>2026-04-09T13:09:27.437Z</time></trkpt><trkpt lat="45.8257096" lon="11.7385339"><ele>875.0</ele><time>2026-04-09T13:09:28.435Z</time></trkpt><trkpt lat="45.8257618" lon="11.738682"><ele>874.25</ele><time>2026-04-09T13:09:29.434Z</time></trkpt><trkpt lat="45.8258142" lon="11.7388466"><ele>873.5</ele><time>2026-04-09T13:09:30.437Z</time></trkpt><trkpt lat="45.8258938" lon="11.7389999"><ele>872.75</ele><time>2026-04-09T13:09:31.437Z</time></trkpt><trkpt lat="45.825973" lon="11.7391422"><ele>872.0</ele><time>2026-04-09T13:09:32.436Z</time></trkpt><trkpt lat="45.8260413" lon="11.7392985"><ele>881.25</ele><time>2026-04-09T13:09:33.43Z</time></trkpt><trkpt lat="45.8260778" lon="11.7394819"><ele>890.5</ele><time>2026-04-09T13:09:34.435Z</time></trkpt><trkpt lat="45.826087" lon="11.7396758"><ele>899.75</ele><time>2026-04-09T13:09:35.442Z</time></trkpt><trkpt lat="45.8260959" lon="11.7398764"><ele>909.0</ele><time>2026-04-09T13:09:36.436Z</time></trkpt><trkpt lat="45.8261099" lon="11.740082"><ele>910.0</ele><time>2026-04-09T13:09:37.441Z</time></trkpt><trkpt lat="45.8261322" lon="11.7402976"><ele>911.0</ele><time>2026-04-09T13:09:38.441Z</time></trkpt><trkpt lat="45.8261588" lon="11.7405231"><ele>912.0</ele><time>2026-04-09T13:09:39.43Z</time></trkpt><trkpt lat="45.8261889" lon="11.7407512"><ele>912.0</ele><time>2026-04-09T13:09:40.436Z</time></trkpt><trkpt lat="45.8262195" lon="11.7409883"><ele>912.0</ele><time>2026-04-09T13:09:41.436Z</time></trkpt><trkpt lat="45.826254" lon="11.741217"><ele>912.0</ele><time>2026-04-09T13:09:42.426Z</time></trkpt><trkpt lat="45.826323" lon="11.7414248"><ele>909.6666666666667</ele><time>2026-04-09T13:09:43.435Z</time></trkpt><trkpt lat="45.8263966" lon="11.7416354"><ele>907.3333333333334</ele><time>2026-04-09T13:09:44.463Z</time></trkpt><trkpt lat="45.8264761" lon="11.7418402"><ele>905.0</ele><time>2026-04-09T13:09:45.446Z</time></trkpt><trkpt lat="45.8265571" lon="11.7420255"><ele>906.25</ele><time>2026-04-09T13:09:46.43Z</time></trkpt><trkpt lat="45.8266373" lon="11.7421913"><ele>907.5</ele><time>2026-04-09T13:09:47.449Z</time></trkpt><trkpt lat="45.826742" lon="11.7423348"><ele>908.75</ele><time>2026-04-09T13:09:48.438Z</time></trkpt><trkpt lat="45.8268526" lon="11.7424754"><ele>910.0</ele><time>2026-04-09T13:09:49.435Z</time></trkpt><trkpt lat="45.8269879" lon="11.742577"><ele>910.0</ele><time>2026-04-09T13:09:50.43Z</time></trkpt><trkpt lat="45.8271407" lon="11.7426449"><ele>910.0</ele><time>2026-04-09T13:09:51.43Z</time></trkpt><trkpt lat="45.8273024" lon="11.7426855"><ele>910.0</ele><time>2026-04-09T13:09:52.433Z</time></trkpt><trkpt lat="45.827473" lon="11.7426664"><ele>910.0</ele><time>2026-04-09T13:09:53.429Z</time></trkpt><trkpt lat="45.8276409" lon="11.742628"><ele>910.0</ele><time>2026-04-09T13:09:54.431Z</time></trkpt><trkpt lat="45.8278083" lon="11.7425918"><ele>910.0</ele><time>2026-04-09T13:09:55.428Z</time></trkpt><trkpt lat="45.8279491" lon="11.7425135"><ele>914.0</ele><time>2026-04-09T13:09:56.429Z</time></trkpt><trkpt lat="45.8280626" lon="11.7424534"><ele>918.0</ele><time>2026-04-09T13:09:57.429Z</time></trkpt><trkpt lat="45.8282066" lon="11.7424476"><ele>922.0</ele><time>2026-04-09T13:09:58.435Z</time></trkpt><trkpt lat="45.8283311" lon="11.7425185"><ele>926.0</ele><time>2026-04-09T13:09:59.43Z</time></trkpt><trkpt lat="45.828423" lon="11.7426685"><ele>925.0</ele><time>2026-04-09T13:10:00.431Z</time></trkpt><trkpt lat="45.8284563" lon="11.7428624"><ele>924.0</ele><time>2026-04-09T13:10:01.439Z</time></trkpt><trkpt lat="45.8284683" lon="11.7430793"><ele>923.0</ele><time>2026-04-09T13:10:02.437Z</time></trkpt><trkpt lat="45.8284931" lon="11.7433119"><ele>922.6666666666667</ele><time>2026-04-09T13:10:03.434Z</time></trkpt><trkpt lat="45.8284932" lon="11.7435503"><ele>922.3333333333333</ele><time>2026-04-09T13:10:04.438Z</time></trkpt><trkpt lat="45.8284779" lon="11.7437984"><ele>922.0</ele><time>2026-04-09T13:10:05.441Z</time></trkpt><trkpt lat="45.8284614" lon="11.7440382"><ele>922.0</ele><time>2026-04-09T13:10:06.433Z</time></trkpt><trkpt lat="45.8284728" lon="11.7442663"><ele>922.0</ele><time>2026-04-09T13:10:07.446Z</time></trkpt><trkpt lat="45.8285131" lon="11.7444793"><ele>922.0</ele><time>2026-04-09T13:10:08.434Z</time></trkpt><trkpt lat="45.8285666" lon="11.7446858"><ele>921.5</ele><time>2026-04-09T13:10:09.447Z</time></trkpt><trkpt lat="45.8286375" lon="11.7448556"><ele>921.0</ele><time>2026-04-09T13:10:10.466Z</time></trkpt><trkpt lat="45.8287275" lon="11.7450031"><ele>920.5</ele><time>2026-04-09T13:10:11.439Z</time></trkpt><trkpt lat="45.8288323" lon="11.745136"><ele>920.0</ele><time>2026-04-09T13:10:12.433Z</time></trkpt><trkpt lat="45.8289554" lon="11.7452311"><ele>920.0</ele><time>2026-04-09T13:10:13.441Z</time></trkpt><trkpt lat="45.8290864" lon="11.7453062"><ele>920.0</ele><time>2026-04-09T13:10:14.446Z</time></trkpt><trkpt lat="45.8292249" lon="11.7453378"><ele>920.0</ele><time>2026-04-09T13:10:15.431Z</time></trkpt><trkpt lat="45.8293827" lon="11.7453434"><ele>920.0</ele><time>2026-04-09T13:10:16.438Z</time></trkpt><trkpt lat="45.8295248" lon="11.7453321"><ele>922.4</ele><time>2026-04-09T13:10:17.437Z</time></trkpt><trkpt lat="45.829638" lon="11.7453302"><ele>924.8</ele><time>2026-04-09T13:10:18.432Z</time></trkpt><trkpt lat="45.8297232" lon="11.7453526"><ele>927.2</ele><time>2026-04-09T13:10:19.437Z</time></trkpt><trkpt lat="45.8297936" lon="11.7453954"><ele>929.6</ele><time>2026-04-09T13:10:20.439Z</time></trkpt><trkpt lat="45.8298607" lon="11.7454217"><ele>932.0</ele><time>2026-04-09T13:10:21.437Z</time></trkpt><trkpt lat="45.8299719" lon="11.7453523"><ele>932.0</ele><time>2026-04-09T13:10:23.442Z</time></trkpt><trkpt lat="45.8299739" lon="11.745259"><ele>932.0</ele><time>2026-04-09T13:10:24.434Z</time></trkpt><trkpt lat="45.8299204" lon="11.7451811"><ele>932.0</ele><time>2026-04-09T13:10:25.44Z</time></trkpt><trkpt lat="45.8298424" lon="11.7451238"><ele>932.0</ele><time>2026-04-09T13:10:26.435Z</time></trkpt><trkpt lat="45.8297248" lon="11.7451132"><ele>932.0</ele><time>2026-04-09T13:10:27.44Z</time></trkpt><trkpt lat="45.8295978" lon="11.7450957"><ele>935.0</ele><time>2026-04-09T13:10:28.429Z</time></trkpt><trkpt lat="45.8294618" lon="11.7450488"><ele>938.0</ele><time>2026-04-09T13:10:29.435Z</time></trkpt><trkpt lat="45.8293263" lon="11.7449844"><ele>941.0</ele><time>2026-04-09T13:10:30.434Z</time></trkpt><trkpt lat="45.8291906" lon="11.744898"><ele>944.0</ele><time>2026-04-09T13:10:31.432Z</time></trkpt><trkpt lat="45.8290739" lon="11.7447812"><ele>944.0</ele><time>2026-04-09T13:10:32.432Z</time></trkpt><trkpt lat="45.8289874" lon="11.7446666"><ele>944.0</ele><time>2026-04-09T13:10:33.434Z</time></trkpt><trkpt lat="45.8289558" lon="11.7445156"><ele>944.0</ele><time>2026-04-09T13:10:34.437Z</time></trkpt><trkpt lat="45.8289705" lon="11.7443304"><ele>944.0</ele><time>2026-04-09T13:10:35.43Z</time></trkpt><trkpt lat="45.8289858" lon="11.7441305"><ele>950.0</ele><time>2026-04-09T13:10:36.437Z</time></trkpt><trkpt lat="45.8289987" lon="11.7439066"><ele>956.0</ele><time>2026-04-09T13:10:37.436Z</time></trkpt><trkpt lat="45.8290118" lon="11.7436666"><ele>962.0</ele><time>2026-04-09T13:10:38.431Z</time></trkpt><trkpt lat="45.8290412" lon="11.7434133"><ele>962.6666666666667</ele><time>2026-04-09T13:10:39.431Z</time></trkpt><trkpt lat="45.8290832" lon="11.7431749"><ele>963.3333333333333</ele><time>2026-04-09T13:10:40.435Z</time></trkpt><trkpt lat="45.8291372" lon="11.7429614"><ele>964.0</ele><time>2026-04-09T13:10:41.44Z</time></trkpt><trkpt lat="45.8291953" lon="11.7427498"><ele>962.6666666666666</ele><time>2026-04-09T13:10:42.442Z</time></trkpt><trkpt lat="45.8292787" lon="11.7425494"><ele>961.3333333333333</ele><time>2026-04-09T13:10:43.44Z</time></trkpt><trkpt lat="45.8293473" lon="11.7423423"><ele>960.0</ele><time>2026-04-09T13:10:44.482Z</time></trkpt><trkpt lat="45.829408" lon="11.7421404"><ele>970.6666666666667</ele><time>2026-04-09T13:10:45.438Z</time></trkpt><trkpt lat="45.8294571" lon="11.741926"><ele>981.3333333333334</ele><time>2026-04-09T13:10:46.434Z</time></trkpt><trkpt lat="45.8295113" lon="11.7417028"><ele>992.0</ele><time>2026-04-09T13:10:47.441Z</time></trkpt><trkpt lat="45.8295849" lon="11.7415081"><ele>992.0</ele><time>2026-04-09T13:10:48.433Z</time></trkpt><trkpt lat="45.8296525" lon="11.7413598"><ele>992.0</ele><time>2026-04-09T13:10:49.432Z</time></trkpt><trkpt lat="45.8297172" lon="11.741228"><ele>992.0</ele><time>2026-04-09T13:10:50.433Z</time></trkpt><trkpt lat="45.8297783" lon="11.7411002"><ele>992.0</ele><time>2026-04-09T13:10:51.431Z</time></trkpt><trkpt lat="45.8297884" lon="11.7409638"><ele>992.0</ele><time>2026-04-09T13:10:52.438Z</time></trkpt><trkpt lat="45.8297867" lon="11.7408393"><ele>991.25</ele><time>2026-04-09T13:10:53.432Z</time></trkpt><trkpt lat="45.8297104" lon="11.740764"><ele>990.5</ele><time>2026-04-09T13:10:54.444Z</time></trkpt><trkpt lat="45.8295996" lon="11.7407395"><ele>989.75</ele><time>2026-04-09T13:10:55.434Z</time></trkpt><trkpt lat="45.8294771" lon="11.7407196"><ele>989.0</ele><time>2026-04-09T13:10:56.433Z</time></trkpt><trkpt lat="45.8293296" lon="11.7407296"><ele>984.0</ele><time>2026-04-09T13:10:57.436Z</time></trkpt><trkpt lat="45.829169" lon="11.7407289"><ele>979.0</ele><time>2026-04-09T13:10:58.436Z</time></trkpt><trkpt lat="45.8289572" lon="11.740694"><ele>974.0</ele><time>2026-04-09T13:10:59.433Z</time></trkpt><trkpt lat="45.8287606" lon="11.740674"><ele>974.0</ele><time>2026-04-09T13:11:00.441Z</time></trkpt><trkpt lat="45.8285901" lon="11.7406526"><ele>974.0</ele><time>2026-04-09T13:11:01.44Z</time></trkpt><trkpt lat="45.8284489" lon="11.7406327"><ele>974.0</ele><time>2026-04-09T13:11:02.447Z</time></trkpt><trkpt lat="45.8283367" lon="11.7406045"><ele>974.0</ele><time>2026-04-09T13:11:03.432Z</time></trkpt><trkpt lat="45.8282409" lon="11.7405639"><ele>973.8000000000001</ele><time>2026-04-09T13:11:04.445Z</time></trkpt><trkpt lat="45.8281712" lon="11.7404802"><ele>973.6000000000001</ele><time>2026-04-09T13:11:05.444Z</time></trkpt><trkpt lat="45.8281244" lon="11.7403487"><ele>973.4</ele><time>2026-04-09T13:11:06.434Z</time></trkpt><trkpt lat="45.8281023" lon="11.7401857"><ele>973.2</ele><time>2026-04-09T13:11:07.441Z</time></trkpt><trkpt lat="45.8281102" lon="11.7400134"><ele>973.0</ele><time>2026-04-09T13:11:08.439Z</time></trkpt><trkpt lat="45.8281598" lon="11.7398424"><ele>975.25</ele><time>2026-04-09T13:11:09.448Z</time></trkpt><trkpt lat="45.8282377" lon="11.7397011"><ele>977.5</ele><time>2026-04-09T13:11:10.437Z</time></trkpt><trkpt lat="45.8283215" lon="11.7395625"><ele>979.75</ele><time>2026-04-09T13:11:11.432Z</time></trkpt><trkpt lat="45.828373" lon="11.7394016"><ele>982.0</ele><time>2026-04-09T13:11:12.441Z</time></trkpt><trkpt lat="45.8283892" lon="11.7392127"><ele>983.75</ele><time>2026-04-09T13:11:13.441Z</time></trkpt><trkpt lat="45.8283719" lon="11.7390173"><ele>985.5</ele><time>2026-04-09T13:11:14.438Z</time></trkpt><trkpt lat="45.8283556" lon="11.7388167"><ele>987.25</ele><time>2026-04-09T13:11:15.448Z</time></trkpt><trkpt lat="45.8283104" lon="11.738628"><ele>989.0</ele><time>2026-04-09T13:11:16.452Z</time></trkpt><trkpt lat="45.8282386" lon="11.7384149"><ele>992.3333333333334</ele><time>2026-04-09T13:11:17.453Z</time></trkpt><trkpt lat="45.828194" lon="11.7381872"><ele>995.6666666666667</ele><time>2026-04-09T13:11:18.441Z</time></trkpt><trkpt lat="45.8281561" lon="11.7379532"><ele>999.0</ele><time>2026-04-09T13:11:19.44Z</time></trkpt><trkpt lat="45.828144" lon="11.7376891"><ele>999.75</ele><time>2026-04-09T13:11:20.449Z</time></trkpt><trkpt lat="45.8281721" lon="11.7374528"><ele>1000.5</ele><time>2026-04-09T13:11:21.442Z</time></trkpt><trkpt lat="45.8282218" lon="11.737251"><ele>1001.25</ele><time>2026-04-09T13:11:22.439Z</time></trkpt><trkpt lat="45.8282766" lon="11.7370913"><ele>1002.0</ele><time>2026-04-09T13:11:23.486Z</time></trkpt><trkpt lat="45.828342" lon="11.7369652"><ele>1001.75</ele><time>2026-04-09T13:11:24.44Z</time></trkpt><trkpt lat="45.8284339" lon="11.7368576"><ele>1001.5</ele><time>2026-04-09T13:11:25.44Z</time></trkpt><trkpt lat="45.8285406" lon="11.736788"><ele>1001.25</ele><time>2026-04-09T13:11:26.434Z</time></trkpt><trkpt lat="45.8286687" lon="11.7367496"><ele>1001.0</ele><time>2026-04-09T13:11:27.439Z</time></trkpt><trkpt lat="45.8288081" lon="11.7367325"><ele>1001.0</ele><time>2026-04-09T13:11:28.444Z</time></trkpt><trkpt lat="45.8289646" lon="11.7367326"><ele>1001.0</ele><time>2026-04-09T13:11:29.44Z</time></trkpt><trkpt lat="45.8291296" lon="11.7367432"><ele>1001.0</ele><time>2026-04-09T13:11:30.439Z</time></trkpt><trkpt lat="45.8293054" lon="11.7367723"><ele>999.0</ele><time>2026-04-09T13:11:31.443Z</time></trkpt><trkpt lat="45.8294925" lon="11.7368233"><ele>997.0</ele><time>2026-04-09T13:11:32.444Z</time></trkpt><trkpt lat="45.8296808" lon="11.7368684"><ele>995.0</ele><time>2026-04-09T13:11:33.452Z</time></trkpt><trkpt lat="45.8298678" lon="11.7369046"><ele>1004.6666666666667</ele><time>2026-04-09T13:11:34.442Z</time></trkpt><trkpt lat="45.8300512" lon="11.7369382"><ele>1014.3333333333333</ele><time>2026-04-09T13:11:35.448Z</time></trkpt><trkpt lat="45.8302297" lon="11.7369773"><ele>1024.0</ele><time>2026-04-09T13:11:36.455Z</time></trkpt><trkpt lat="45.8303956" lon="11.7370052"><ele>1026.3333333333333</ele><time>2026-04-09T13:11:37.463Z</time></trkpt><trkpt lat="45.8305582" lon="11.7370049"><ele>1028.6666666666667</ele><time>2026-04-09T13:11:38.444Z</time></trkpt><trkpt lat="45.8307232" lon="11.736974"><ele>1031.0</ele><time>2026-04-09T13:11:39.436Z</time></trkpt><trkpt lat="45.830884" lon="11.7369366"><ele>1028.0</ele><time>2026-04-09T13:11:40.444Z</time></trkpt><trkpt lat="45.8310321" lon="11.7369039"><ele>1025.0</ele><time>2026-04-09T13:11:41.441Z</time></trkpt><trkpt lat="45.8311632" lon="11.7368993"><ele>1022.0</ele><time>2026-04-09T13:11:42.445Z</time></trkpt><trkpt lat="45.8312862" lon="11.7369153"><ele>1019.0</ele><time>2026-04-09T13:11:43.445Z</time></trkpt><trkpt lat="45.8314103" lon="11.7368723"><ele>1019.0</ele><time>2026-04-09T13:11:44.438Z</time></trkpt><trkpt lat="45.8315119" lon="11.7367864"><ele>1019.0</ele><time>2026-04-09T13:11:45.436Z</time></trkpt><trkpt lat="45.8315816" lon="11.7366379"><ele>1019.0</ele><time>2026-04-09T13:11:46.442Z</time></trkpt><trkpt lat="45.8316313" lon="11.7364688"><ele>1019.0</ele><time>2026-04-09T13:11:47.438Z</time></trkpt><trkpt lat="45.8316685" lon="11.7363104"><ele>1019.0000000000001</ele><time>2026-04-09T13:11:48.433Z</time></trkpt><trkpt lat="45.8317074" lon="11.7361747"><ele>1019.0</ele><time>2026-04-09T13:11:49.437Z</time></trkpt><trkpt lat="45.8317575" lon="11.7360676"><ele>1019.0</ele><time>2026-04-09T13:11:50.449Z</time></trkpt><trkpt lat="45.8318178" lon="11.7359731"><ele>1019.0</ele><time>2026-04-09T13:11:51.428Z</time></trkpt><trkpt lat="45.8318893" lon="11.7359405"><ele>1019.0000000000001</ele><time>2026-04-09T13:11:52.441Z</time></trkpt><trkpt lat="45.8319638" lon="11.7359526"><ele>1019.0</ele><time>2026-04-09T13:11:53.446Z</time></trkpt><trkpt lat="45.8320436" lon="11.7359873"><ele>1019.5000000000001</ele><time>2026-04-09T13:11:54.434Z</time></trkpt><trkpt lat="45.832126" lon="11.7359865"><ele>1020.0</ele><time>2026-04-09T13:11:55.432Z</time></trkpt><trkpt lat="45.832209" lon="11.7359729"><ele>1020.5</ele><time>2026-04-09T13:11:56.451Z</time></trkpt><trkpt lat="45.8323048" lon="11.7359606"><ele>1021.0</ele><time>2026-04-09T13:11:57.44Z</time></trkpt><trkpt lat="45.832389" lon="11.7359384"><ele>1021.5000000000001</ele><time>2026-04-09T13:11:58.433Z</time></trkpt><trkpt lat="45.8324681" lon="11.7359071"><ele>1022.0</ele><time>2026-04-09T13:11:59.442Z</time></trkpt><trkpt lat="45.8325429" lon="11.7358556"><ele>1022.0000000000001</ele><time>2026-04-09T13:12:00.449Z</time></trkpt><trkpt lat="45.8326177" lon="11.7357954"><ele>1022.0</ele><time>2026-04-09T13:12:01.444Z</time></trkpt><trkpt lat="45.8326734" lon="11.735705"><ele>1022.0</ele><time>2026-04-09T13:12:02.439Z</time></trkpt><trkpt lat="45.8327163" lon="11.7356063"><ele>1022.0</ele><time>2026-04-09T13:12:03.44Z</time></trkpt><trkpt lat="45.8327513" lon="11.7355086"><ele>1022.0000000000001</ele><time>2026-04-09T13:12:04.441Z</time></trkpt><trkpt lat="45.8327841" lon="11.7354196"><ele>1022.0</ele><time>2026-04-09T13:12:05.455Z</time></trkpt><trkpt lat="45.8328259" lon="11.735337"><ele>1021.5000000000001</ele><time>2026-04-09T13:12:06.447Z</time></trkpt><trkpt lat="45.832883" lon="11.7352644"><ele>1021.0</ele><time>2026-04-09T13:12:07.445Z</time></trkpt><trkpt lat="45.8329472" lon="11.7352158"><ele>1020.5</ele><time>2026-04-09T13:12:08.455Z</time></trkpt><trkpt lat="45.8330158" lon="11.7351843"><ele>1020.0</ele><time>2026-04-09T13:12:09.441Z</time></trkpt><trkpt lat="45.8330991" lon="11.7351705"><ele>1019.5000000000001</ele><time>2026-04-09T13:12:10.434Z</time></trkpt><trkpt lat="45.8331959" lon="11.735146"><ele>1019.0</ele><time>2026-04-09T13:12:11.445Z</time></trkpt><trkpt lat="45.8332955" lon="11.7351127"><ele>1019.0</ele><time>2026-04-09T13:12:12.45Z</time></trkpt><trkpt lat="45.8333987" lon="11.7350806"><ele>1019.0000000000001</ele><time>2026-04-09T13:12:13.438Z</time></trkpt><trkpt lat="45.8335048" lon="11.7350522"><ele>1019.0000000000001</ele><time>2026-04-09T13:12:14.432Z</time></trkpt><trkpt lat="45.8336093" lon="11.7350062"><ele>1019.0</ele><time>2026-04-09T13:12:15.435Z</time></trkpt><trkpt lat="45.8337115" lon="11.7349409"><ele>1019.0</ele><time>2026-04-09T13:12:16.437Z</time></trkpt><trkpt lat="45.8338053" lon="11.7348584"><ele>1019.6</ele><time>2026-04-09T13:12:17.435Z</time></trkpt><trkpt lat="45.8338884" lon="11.7347717"><ele>1020.2</ele><time>2026-04-09T13:12:18.44Z</time></trkpt><trkpt lat="45.8339633" lon="11.7346852"><ele>1020.8000000000001</ele><time>2026-04-09T13:12:19.436Z</time></trkpt><trkpt lat="45.8340315" lon="11.7345953"><ele>1021.4000000000001</ele><time>2026-04-09T13:12:20.437Z</time></trkpt><trkpt lat="45.8340931" lon="11.7345089"><ele>1022.0</ele><time>2026-04-09T13:12:21.45Z</time></trkpt><trkpt lat="45.8341483" lon="11.7344303"><ele>1022.0</ele><time>2026-04-09T13:12:22.437Z</time></trkpt><trkpt lat="45.8342064" lon="11.7343533"><ele>1022.0</ele><time>2026-04-09T13:12:23.447Z</time></trkpt><trkpt lat="45.8342622" lon="11.7342753"><ele>1022.0</ele><time>2026-04-09T13:12:24.437Z</time></trkpt><trkpt lat="45.834318" lon="11.7342082"><ele>1022.0</ele><time>2026-04-09T13:12:25.437Z</time></trkpt><trkpt lat="45.8344143" lon="11.7341094"><ele>1022.0</ele><time>2026-04-09T13:12:27.44Z</time></trkpt><trkpt lat="45.8345085" lon="11.7339712"><ele>1022.0</ele><time>2026-04-09T13:12:29.484Z</time></trkpt><trkpt lat="45.8345514" lon="11.7338658"><ele>1022.0</ele><time>2026-04-09T13:12:30.439Z</time></trkpt><trkpt lat="45.8346035" lon="11.7337602"><ele>1022.0</ele><time>2026-04-09T13:12:31.438Z</time></trkpt><trkpt lat="45.834635" lon="11.7336274"><ele>1022.0</ele><time>2026-04-09T13:12:32.448Z</time></trkpt><trkpt lat="45.834638" lon="11.7334799"><ele>1022.0</ele><time>2026-04-09T13:12:33.457Z</time></trkpt><trkpt lat="45.8346348" lon="11.7333303"><ele>1023.8</ele><time>2026-04-09T13:12:34.444Z</time></trkpt><trkpt lat="45.8346422" lon="11.7331932"><ele>1025.6</ele><time>2026-04-09T13:12:35.446Z</time></trkpt><trkpt lat="45.8346697" lon="11.7330616"><ele>1027.3999999999999</ele><time>2026-04-09T13:12:36.452Z</time></trkpt><trkpt lat="45.8347046" lon="11.7329255"><ele>1029.2</ele><time>2026-04-09T13:12:37.441Z</time></trkpt><trkpt lat="45.8347763" lon="11.7328189"><ele>1031.0</ele><time>2026-04-09T13:12:38.447Z</time></trkpt><trkpt lat="45.83488" lon="11.7327508"><ele>1031.8</ele><time>2026-04-09T13:12:39.437Z</time></trkpt><trkpt lat="45.8349538" lon="11.7326151"><ele>1032.6</ele><time>2026-04-09T13:12:40.446Z</time></trkpt><trkpt lat="45.8350019" lon="11.7324602"><ele>1033.4</ele><time>2026-04-09T13:12:41.438Z</time></trkpt><trkpt lat="45.8350115" lon="11.7323339"><ele>1034.2</ele><time>2026-04-09T13:12:42.442Z</time></trkpt><trkpt lat="45.8350452" lon="11.7322008"><ele>1035.0</ele><time>2026-04-09T13:12:43.444Z</time></trkpt><trkpt lat="45.8350964" lon="11.732082"><ele>1035.0</ele><time>2026-04-09T13:12:44.461Z</time></trkpt><trkpt lat="45.8351197" lon="11.7319767"><ele>1035.0</ele><time>2026-04-09T13:12:45.445Z</time></trkpt><trkpt lat="45.8351548" lon="11.7318331"><ele>1035.0</ele><time>2026-04-09T13:12:46.443Z</time></trkpt><trkpt lat="45.8351789" lon="11.7316965"><ele>1035.0</ele><time>2026-04-09T13:12:47.453Z</time></trkpt><trkpt lat="45.8352012" lon="11.7315801"><ele>1035.0</ele><time>2026-04-09T13:12:48.457Z</time></trkpt><trkpt lat="45.8352269" lon="11.7314772"><ele>1035.0</ele><time>2026-04-09T13:12:49.45Z</time></trkpt><trkpt lat="45.8352489" lon="11.7313734"><ele>1036.857142857143</ele><time>2026-04-09T13:12:50.44Z</time></trkpt><trkpt lat="45.8352865" lon="11.7312709"><ele>1038.7142857142858</ele><time>2026-04-09T13:12:51.45Z</time></trkpt><trkpt lat="45.8353151" lon="11.7311862"><ele>1040.5714285714287</ele><time>2026-04-09T13:12:52.45Z</time></trkpt><trkpt lat="45.8353504" lon="11.7311071"><ele>1042.4285714285716</ele><time>2026-04-09T13:12:53.435Z</time></trkpt><trkpt lat="45.8353912" lon="11.7310327"><ele>1044.2857142857144</ele><time>2026-04-09T13:12:54.433Z</time></trkpt><trkpt lat="45.8354439" lon="11.7309829"><ele>1046.142857142857</ele><time>2026-04-09T13:12:55.457Z</time></trkpt><trkpt lat="45.8355035" lon="11.7309302"><ele>1048.0</ele><time>2026-04-09T13:12:56.447Z</time></trkpt><trkpt lat="45.8355822" lon="11.7309198"><ele>1048.0</ele><time>2026-04-09T13:12:57.444Z</time></trkpt><trkpt lat="45.8356735" lon="11.7309371"><ele>1048.0</ele><time>2026-04-09T13:12:58.439Z</time></trkpt><trkpt lat="45.8357848" lon="11.7309501"><ele>1048.0</ele><time>2026-04-09T13:12:59.439Z</time></trkpt><trkpt lat="45.8358983" lon="11.7309244"><ele>1048.0</ele><time>2026-04-09T13:13:00.446Z</time></trkpt><trkpt lat="45.8360015" lon="11.7308798"><ele>1048.0</ele><time>2026-04-09T13:13:01.433Z</time></trkpt><trkpt lat="45.8360979" lon="11.7308485"><ele>1054.2</ele><time>2026-04-09T13:13:02.435Z</time></trkpt><trkpt lat="45.8361673" lon="11.7308181"><ele>1060.4</ele><time>2026-04-09T13:13:03.438Z</time></trkpt><trkpt lat="45.8362451" lon="11.7307654"><ele>1066.6000000000001</ele><time>2026-04-09T13:13:04.437Z</time></trkpt><trkpt lat="45.8363303" lon="11.7306601"><ele>1072.8</ele><time>2026-04-09T13:13:05.462Z</time></trkpt><trkpt lat="45.836387" lon="11.7304752"><ele>1079.0</ele><time>2026-04-09T13:13:06.441Z</time></trkpt><trkpt lat="45.8364241" lon="11.7302878"><ele>1075.5</ele><time>2026-04-09T13:13:07.442Z</time></trkpt><trkpt lat="45.8364757" lon="11.7301126"><ele>1072.0</ele><time>2026-04-09T13:13:08.454Z</time></trkpt><trkpt lat="45.8365198" lon="11.7299454"><ele>1068.5</ele><time>2026-04-09T13:13:09.441Z</time></trkpt><trkpt lat="45.8365673" lon="11.7297861"><ele>1065.0</ele><time>2026-04-09T13:13:10.438Z</time></trkpt><trkpt lat="45.8366221" lon="11.729633"><ele>1065.0</ele><time>2026-04-09T13:13:11.451Z</time></trkpt><trkpt lat="45.8367026" lon="11.7294773"><ele>1065.0</ele><time>2026-04-09T13:13:12.447Z</time></trkpt><trkpt lat="45.8367748" lon="11.72933"><ele>1065.0</ele><time>2026-04-09T13:13:13.444Z</time></trkpt><trkpt lat="45.8368701" lon="11.7292132"><ele>1065.0</ele><time>2026-04-09T13:13:14.449Z</time></trkpt><trkpt lat="45.836961" lon="11.7290914"><ele>1067.25</ele><time>2026-04-09T13:13:15.446Z</time></trkpt><trkpt lat="45.8370554" lon="11.7289663"><ele>1069.5</ele><time>2026-04-09T13:13:16.433Z</time></trkpt><trkpt lat="45.8371562" lon="11.7288386"><ele>1071.75</ele><time>2026-04-09T13:13:17.445Z</time></trkpt><trkpt lat="45.8372396" lon="11.7287063"><ele>1074.0</ele><time>2026-04-09T13:13:18.433Z</time></trkpt><trkpt lat="45.837321" lon="11.7285379"><ele>1074.0</ele><time>2026-04-09T13:13:19.434Z</time></trkpt><trkpt lat="45.837394" lon="11.7283842"><ele>1074.0</ele><time>2026-04-09T13:13:20.446Z</time></trkpt><trkpt lat="45.8374577" lon="11.7282505"><ele>1074.0</ele><time>2026-04-09T13:13:21.444Z</time></trkpt><trkpt lat="45.8375029" lon="11.7281606"><ele>1074.0</ele><time>2026-04-09T13:13:22.431Z</time></trkpt><trkpt lat="45.8375414" lon="11.7280866"><ele>1074.0</ele><time>2026-04-09T13:13:23.441Z</time></trkpt><trkpt lat="45.8375955" lon="11.7279364"><ele>1074.0</ele><time>2026-04-09T13:13:25.437Z</time></trkpt><trkpt lat="45.8376247" lon="11.7278188"><ele>1074.0</ele><time>2026-04-09T13:13:27.439Z</time></trkpt><trkpt lat="45.8376509" lon="11.7277259"><ele>1074.0</ele><time>2026-04-09T13:13:29.45Z</time></trkpt><trkpt lat="45.837676" lon="11.7276321"><ele>1074.0</ele><time>2026-04-09T13:13:31.435Z</time></trkpt><trkpt lat="45.8376971" lon="11.7275312"><ele>1074.0</ele><time>2026-04-09T13:13:33.438Z</time></trkpt><trkpt lat="45.837723" lon="11.7274279"><ele>1074.0</ele><time>2026-04-09T13:13:35.434Z</time></trkpt><trkpt lat="45.8377518" lon="11.7272912"><ele>1074.6666666666667</ele><time>2026-04-09T13:13:37.434Z</time></trkpt><trkpt lat="45.837816" lon="11.727143"><ele>1075.3333333333333</ele><time>2026-04-09T13:13:39.437Z</time></trkpt><trkpt lat="45.8378583" lon="11.727074"><ele>1076.0</ele><time>2026-04-09T13:13:40.437Z</time></trkpt><trkpt lat="45.8379237" lon="11.7270194"><ele>1076.6666666666665</ele><time>2026-04-09T13:13:41.441Z</time></trkpt><trkpt lat="45.837996" lon="11.7269643"><ele>1077.3333333333333</ele><time>2026-04-09T13:13:42.444Z</time></trkpt><trkpt lat="45.8380671" lon="11.7269095"><ele>1078.0</ele><time>2026-04-09T13:13:43.427Z</time></trkpt><trkpt lat="45.8381443" lon="11.7268488"><ele>1078.0</ele><time>2026-04-09T13:13:44.434Z</time></trkpt><trkpt lat="45.8382163" lon="11.7267963"><ele>1078.0</ele><time>2026-04-09T13:13:45.437Z</time></trkpt><trkpt lat="45.8382838" lon="11.7267419"><ele>1078.0</ele><time>2026-04-09T13:13:46.428Z</time></trkpt><trkpt lat="45.8383617" lon="11.7266685"><ele>1078.0</ele><time>2026-04-09T13:13:47.435Z</time></trkpt><trkpt lat="45.8384363" lon="11.7265881"><ele>1078.0</ele><time>2026-04-09T13:13:48.431Z</time></trkpt><trkpt lat="45.8385048" lon="11.7265036"><ele>1078.0</ele><time>2026-04-09T13:13:49.429Z</time></trkpt><trkpt lat="45.8385675" lon="11.7264141"><ele>1078.5</ele><time>2026-04-09T13:13:50.433Z</time></trkpt><trkpt lat="45.8386198" lon="11.7263271"><ele>1079.0</ele><time>2026-04-09T13:13:51.43Z</time></trkpt><trkpt lat="45.8386702" lon="11.726241"><ele>1079.5</ele><time>2026-04-09T13:13:52.429Z</time></trkpt><trkpt lat="45.8387176" lon="11.7261531"><ele>1080.0</ele><time>2026-04-09T13:13:53.438Z</time></trkpt><trkpt lat="45.838751" lon="11.7260621"><ele>1080.5</ele><time>2026-04-09T13:13:54.441Z</time></trkpt><trkpt lat="45.8387855" lon="11.7259708"><ele>1081.0</ele><time>2026-04-09T13:13:55.43Z</time></trkpt><trkpt lat="45.8388135" lon="11.7258787"><ele>1081.0</ele><time>2026-04-09T13:13:56.44Z</time></trkpt><trkpt lat="45.8388355" lon="11.7257857"><ele>1081.0</ele><time>2026-04-09T13:13:57.438Z</time></trkpt><trkpt lat="45.838858" lon="11.7256575"><ele>1081.0</ele><time>2026-04-09T13:13:59.438Z</time></trkpt><trkpt lat="45.8389002" lon="11.7255795"><ele>1081.0</ele><time>2026-04-09T13:14:01.452Z</time></trkpt><trkpt lat="45.8389741" lon="11.7255761"><ele>1081.0</ele><time>2026-04-09T13:14:03.448Z</time></trkpt><trkpt lat="45.8390251" lon="11.7256309"><ele>1081.0</ele><time>2026-04-09T13:14:04.447Z</time></trkpt><trkpt lat="45.8390976" lon="11.7257035"><ele>1081.0</ele><time>2026-04-09T13:14:05.446Z</time></trkpt><trkpt lat="45.8391768" lon="11.7257721"><ele>1081.0</ele><time>2026-04-09T13:14:06.441Z</time></trkpt><trkpt lat="45.8392522" lon="11.7258358"><ele>1081.0</ele><time>2026-04-09T13:14:07.443Z</time></trkpt><trkpt lat="45.8393309" lon="11.7258847"><ele>1081.0</ele><time>2026-04-09T13:14:08.437Z</time></trkpt><trkpt lat="45.8394079" lon="11.7259185"><ele>1081.0</ele><time>2026-04-09T13:14:09.451Z</time></trkpt><trkpt lat="45.8395017" lon="11.7259329"><ele>1081.0</ele><time>2026-04-09T13:14:10.448Z</time></trkpt><trkpt lat="45.839596" lon="11.7259359"><ele>1081.2</ele><time>2026-04-09T13:14:11.436Z</time></trkpt><trkpt lat="45.8396919" lon="11.7259413"><ele>1081.3999999999999</ele><time>2026-04-09T13:14:12.437Z</time></trkpt><trkpt lat="45.8397937" lon="11.725949"><ele>1081.6</ele><time>2026-04-09T13:14:13.44Z</time></trkpt><trkpt lat="45.8398929" lon="11.7259576"><ele>1081.8</ele><time>2026-04-09T13:14:14.434Z</time></trkpt><trkpt lat="45.8399935" lon="11.7259638"><ele>1082.0</ele><time>2026-04-09T13:14:15.434Z</time></trkpt><trkpt lat="45.8400929" lon="11.7259735"><ele>1082.1666666666667</ele><time>2026-04-09T13:14:16.436Z</time></trkpt><trkpt lat="45.8401858" lon="11.7259812"><ele>1082.3333333333335</ele><time>2026-04-09T13:14:17.435Z</time></trkpt><trkpt lat="45.8402705" lon="11.7259899"><ele>1082.5</ele><time>2026-04-09T13:14:18.435Z</time></trkpt><trkpt lat="45.8403454" lon="11.7259948"><ele>1082.6666666666667</ele><time>2026-04-09T13:14:19.443Z</time></trkpt><trkpt lat="45.8404196" lon="11.7260055"><ele>1082.8333333333333</ele><time>2026-04-09T13:14:20.439Z</time></trkpt><trkpt lat="45.840485" lon="11.726037"><ele>1083.0</ele><time>2026-04-09T13:14:21.437Z</time></trkpt><trkpt lat="45.8405811" lon="11.7261502"><ele>1083.0</ele><time>2026-04-09T13:14:23.442Z</time></trkpt><trkpt lat="45.8406231" lon="11.7262348"><ele>1083.0</ele><time>2026-04-09T13:14:24.435Z</time></trkpt><trkpt lat="45.8406531" lon="11.7263369"><ele>1083.0</ele><time>2026-04-09T13:14:25.443Z</time></trkpt><trkpt lat="45.8406747" lon="11.7264719"><ele>1083.0</ele><time>2026-04-09T13:14:26.434Z</time></trkpt><trkpt lat="45.840687" lon="11.7266064"><ele>1083.0</ele><time>2026-04-09T13:14:27.436Z</time></trkpt><trkpt lat="45.8406973" lon="11.726721"><ele>1083.0</ele><time>2026-04-09T13:14:28.449Z</time></trkpt><trkpt lat="45.8407159" lon="11.7268191"><ele>1084.3333333333333</ele><time>2026-04-09T13:14:29.439Z</time></trkpt><trkpt lat="45.840731" lon="11.7269182"><ele>1085.6666666666667</ele><time>2026-04-09T13:14:30.437Z</time></trkpt><trkpt lat="45.8407753" lon="11.7269889"><ele>1087.0</ele><time>2026-04-09T13:14:31.434Z</time></trkpt><trkpt lat="45.8408424" lon="11.727025"><ele>1088.3333333333335</ele><time>2026-04-09T13:14:32.436Z</time></trkpt><trkpt lat="45.8409278" lon="11.7270406"><ele>1089.6666666666667</ele><time>2026-04-09T13:14:33.433Z</time></trkpt><trkpt lat="45.8410123" lon="11.7270463"><ele>1091.0</ele><time>2026-04-09T13:14:34.429Z</time></trkpt><trkpt lat="45.8410918" lon="11.7270642"><ele>1091.0</ele><time>2026-04-09T13:14:35.441Z</time></trkpt><trkpt lat="45.8411471" lon="11.727121"><ele>1091.0</ele><time>2026-04-09T13:14:36.436Z</time></trkpt><trkpt lat="45.8412008" lon="11.7272125"><ele>1091.0</ele><time>2026-04-09T13:14:37.445Z</time></trkpt><trkpt lat="45.8412514" lon="11.7273076"><ele>1091.0</ele><time>2026-04-09T13:14:38.445Z</time></trkpt><trkpt lat="45.8412975" lon="11.7274025"><ele>1091.0</ele><time>2026-04-09T13:14:39.441Z</time></trkpt><trkpt lat="45.8413543" lon="11.727465"><ele>1091.0</ele><time>2026-04-09T13:14:40.442Z</time></trkpt><trkpt lat="45.8414655" lon="11.7274847"><ele>1091.0</ele><time>2026-04-09T13:14:42.431Z</time></trkpt><trkpt lat="45.841572" lon="11.727403"><ele>1091.0</ele><time>2026-04-09T13:14:44.439Z</time></trkpt><trkpt lat="45.8416214" lon="11.7273212"><ele>1091.0</ele><time>2026-04-09T13:14:45.437Z</time></trkpt><trkpt lat="45.8416649" lon="11.7272153"><ele>1091.0</ele><time>2026-04-09T13:14:46.436Z</time></trkpt><trkpt lat="45.8417081" lon="11.7271063"><ele>1091.0</ele><time>2026-04-09T13:14:47.438Z</time></trkpt><trkpt lat="45.8417467" lon="11.7270025"><ele>1091.0</ele><time>2026-04-09T13:14:48.431Z</time></trkpt><trkpt lat="45.8417834" lon="11.7268992"><ele>1091.0</ele><time>2026-04-09T13:14:49.442Z</time></trkpt><trkpt lat="45.8418161" lon="11.72679"><ele>1091.0</ele><time>2026-04-09T13:14:50.439Z</time></trkpt><trkpt lat="45.8418267" lon="11.7266771"><ele>1091.0</ele><time>2026-04-09T13:14:51.427Z</time></trkpt><trkpt lat="45.8418226" lon="11.7265611"><ele>1091.0</ele><time>2026-04-09T13:14:52.446Z</time></trkpt><trkpt lat="45.8418122" lon="11.7264264"><ele>1091.0</ele><time>2026-04-09T13:14:53.434Z</time></trkpt><trkpt lat="45.8418001" lon="11.7262974"><ele>1089.3999999999999</ele><time>2026-04-09T13:14:54.43Z</time></trkpt><trkpt lat="45.8418048" lon="11.7261798"><ele>1087.8</ele><time>2026-04-09T13:14:55.437Z</time></trkpt><trkpt lat="45.8418299" lon="11.7260942"><ele>1086.1999999999998</ele><time>2026-04-09T13:14:56.432Z</time></trkpt><trkpt lat="45.8418891" lon="11.7259721"><ele>1084.6</ele><time>2026-04-09T13:14:58.429Z</time></trkpt><trkpt lat="45.8420302" lon="11.7259446"><ele>1083.0</ele><time>2026-04-09T13:15:00.439Z</time></trkpt><trkpt lat="45.8421221" lon="11.7259446"><ele>1083.0</ele><time>2026-04-09T13:15:01.432Z</time></trkpt><trkpt lat="45.8422242" lon="11.7259287"><ele>1083.0</ele><time>2026-04-09T13:15:02.438Z</time></trkpt><trkpt lat="45.8423245" lon="11.7259184"><ele>1083.0</ele><time>2026-04-09T13:15:03.434Z</time></trkpt><trkpt lat="45.84243" lon="11.7259095"><ele>1083.0</ele><time>2026-04-09T13:15:04.432Z</time></trkpt><trkpt lat="45.8425333" lon="11.7258995"><ele>1083.0</ele><time>2026-04-09T13:15:05.439Z</time></trkpt><trkpt lat="45.8426423" lon="11.7258959"><ele>1085.6</ele><time>2026-04-09T13:15:06.446Z</time></trkpt><trkpt lat="45.8427438" lon="11.725888"><ele>1088.1999999999998</ele><time>2026-04-09T13:15:07.43Z</time></trkpt><trkpt lat="45.8428531" lon="11.7258864"><ele>1090.8</ele><time>2026-04-09T13:15:08.433Z</time></trkpt><trkpt lat="45.8429564" lon="11.7258796"><ele>1093.3999999999999</ele><time>2026-04-09T13:15:09.435Z</time></trkpt><trkpt lat="45.8430636" lon="11.7258588"><ele>1096.0</ele><time>2026-04-09T13:15:10.432Z</time></trkpt><trkpt lat="45.843154" lon="11.7258429"><ele>1096.0</ele><time>2026-04-09T13:15:11.433Z</time></trkpt><trkpt lat="45.8432319" lon="11.7258288"><ele>1096.0</ele><time>2026-04-09T13:15:12.433Z</time></trkpt><trkpt lat="45.8432975" lon="11.7258113"><ele>1096.0</ele><time>2026-04-09T13:15:13.439Z</time></trkpt><trkpt lat="45.8433584" lon="11.725788"><ele>1096.0</ele><time>2026-04-09T13:15:14.445Z</time></trkpt><trkpt lat="45.843405" lon="11.7257094"><ele>1096.0</ele><time>2026-04-09T13:15:15.433Z</time></trkpt><trkpt lat="45.8434356" lon="11.725589"><ele>1096.0</ele><time>2026-04-09T13:15:16.43Z</time></trkpt><trkpt lat="45.8434247" lon="11.7254639"><ele>1096.0</ele><time>2026-04-09T13:15:17.437Z</time></trkpt><trkpt lat="45.8434042" lon="11.7253283"><ele>1096.0</ele><time>2026-04-09T13:15:18.448Z</time></trkpt><trkpt lat="45.8433705" lon="11.7251949"><ele>1096.0</ele><time>2026-04-09T13:15:19.434Z</time></trkpt><trkpt lat="45.8433228" lon="11.7250737"><ele>1096.0</ele><time>2026-04-09T13:15:20.444Z</time></trkpt><trkpt lat="45.8432759" lon="11.7249555"><ele>1096.0</ele><time>2026-04-09T13:15:21.439Z</time></trkpt><trkpt lat="45.8432256" lon="11.7248269"><ele>1095.2</ele><time>2026-04-09T13:15:22.43Z</time></trkpt><trkpt lat="45.8431676" lon="11.7247035"><ele>1094.3999999999999</ele><time>2026-04-09T13:15:23.524Z</time></trkpt><trkpt lat="45.8431121" lon="11.7245873"><ele>1093.6</ele><time>2026-04-09T13:15:24.442Z</time></trkpt><trkpt lat="45.8430518" lon="11.7244653"><ele>1092.8</ele><time>2026-04-09T13:15:25.436Z</time></trkpt><trkpt lat="45.8429923" lon="11.724351"><ele>1092.0</ele><time>2026-04-09T13:15:26.437Z</time></trkpt><trkpt lat="45.8429498" lon="11.7242664"><ele>1092.0</ele><time>2026-04-09T13:15:27.432Z</time></trkpt><trkpt lat="45.8429136" lon="11.7241908"><ele>1092.0</ele><time>2026-04-09T13:15:28.429Z</time></trkpt><trkpt lat="45.8428783" lon="11.7241007"><ele>1092.0</ele><time>2026-04-09T13:15:29.438Z</time></trkpt><trkpt lat="45.8428612" lon="11.7239823"><ele>1092.0</ele><time>2026-04-09T13:15:30.438Z</time></trkpt><trkpt lat="45.8428606" lon="11.7238703"><ele>1092.0</ele><time>2026-04-09T13:15:31.438Z</time></trkpt><trkpt lat="45.8428758" lon="11.723751"><ele>1092.0</ele><time>2026-04-09T13:15:32.445Z</time></trkpt><trkpt lat="45.8429089" lon="11.723612"><ele>1090.6</ele><time>2026-04-09T13:15:33.452Z</time></trkpt><trkpt lat="45.8429426" lon="11.7234739"><ele>1089.2</ele><time>2026-04-09T13:15:34.441Z</time></trkpt><trkpt lat="45.8429729" lon="11.723341"><ele>1087.8</ele><time>2026-04-09T13:15:35.449Z</time></trkpt><trkpt lat="45.8429965" lon="11.7232283"><ele>1086.4</ele><time>2026-04-09T13:15:36.447Z</time></trkpt><trkpt lat="45.843023" lon="11.7231416"><ele>1085.0</ele><time>2026-04-09T13:15:37.446Z</time></trkpt><trkpt lat="45.8431092" lon="11.7230391"><ele>1085.0</ele><time>2026-04-09T13:15:39.447Z</time></trkpt><trkpt lat="45.8432173" lon="11.7230177"><ele>1085.0</ele><time>2026-04-09T13:15:41.441Z</time></trkpt><trkpt lat="45.8432924" lon="11.723038"><ele>1085.0</ele><time>2026-04-09T13:15:42.441Z</time></trkpt><trkpt lat="45.8433768" lon="11.723071"><ele>1085.0</ele><time>2026-04-09T13:15:43.432Z</time></trkpt><trkpt lat="45.843463" lon="11.7231085"><ele>1085.0</ele><time>2026-04-09T13:15:44.434Z</time></trkpt><trkpt lat="45.8435489" lon="11.7231638"><ele>1086.5</ele><time>2026-04-09T13:15:45.434Z</time></trkpt><trkpt lat="45.8436287" lon="11.7232286"><ele>1088.0</ele><time>2026-04-09T13:15:46.435Z</time></trkpt><trkpt lat="45.8437067" lon="11.7233051"><ele>1089.5</ele><time>2026-04-09T13:15:47.435Z</time></trkpt><trkpt lat="45.8437728" lon="11.7233522"><ele>1091.0</ele><time>2026-04-09T13:15:48.433Z</time></trkpt><trkpt lat="45.8438358" lon="11.7233678"><ele>1092.5</ele><time>2026-04-09T13:15:49.437Z</time></trkpt><trkpt lat="45.8439008" lon="11.7233775"><ele>1094.0</ele><time>2026-04-09T13:15:50.424Z</time></trkpt><trkpt lat="45.8439652" lon="11.7233234"><ele>1094.0</ele><time>2026-04-09T13:15:51.435Z</time></trkpt><trkpt lat="45.8440338" lon="11.7232505"><ele>1094.0</ele><time>2026-04-09T13:15:52.433Z</time></trkpt><trkpt lat="45.8441043" lon="11.7231688"><ele>1094.0</ele><time>2026-04-09T13:15:53.434Z</time></trkpt><trkpt lat="45.8441723" lon="11.7230985"><ele>1094.0</ele><time>2026-04-09T13:15:54.434Z</time></trkpt><trkpt lat="45.8442355" lon="11.7230384"><ele>1094.0</ele><time>2026-04-09T13:15:55.433Z</time></trkpt><trkpt lat="45.8442995" lon="11.7229829"><ele>1094.0</ele><time>2026-04-09T13:15:56.437Z</time></trkpt><trkpt lat="45.8443784" lon="11.7229305"><ele>1096.1666666666667</ele><time>2026-04-09T13:15:57.428Z</time></trkpt><trkpt lat="45.844453" lon="11.7228797"><ele>1098.3333333333335</ele><time>2026-04-09T13:15:58.439Z</time></trkpt><trkpt lat="45.8445214" lon="11.7228577"><ele>1100.5</ele><time>2026-04-09T13:15:59.432Z</time></trkpt><trkpt lat="45.844611" lon="11.7227965"><ele>1102.6666666666667</ele><time>2026-04-09T13:16:01.441Z</time></trkpt><trkpt lat="45.844623" lon="11.7226565"><ele>1104.8333333333333</ele><time>2026-04-09T13:16:03.441Z</time></trkpt><trkpt lat="45.8445776" lon="11.7225713"><ele>1107.0</ele><time>2026-04-09T13:16:04.431Z</time></trkpt><trkpt lat="45.8445138" lon="11.7224763"><ele>1107.8</ele><time>2026-04-09T13:16:05.43Z</time></trkpt><trkpt lat="45.8444369" lon="11.7223679"><ele>1108.6</ele><time>2026-04-09T13:16:06.439Z</time></trkpt><trkpt lat="45.8443634" lon="11.7222605"><ele>1109.3999999999999</ele><time>2026-04-09T13:16:07.436Z</time></trkpt><trkpt lat="45.8443043" lon="11.7221209"><ele>1110.2</ele><time>2026-04-09T13:16:08.434Z</time></trkpt><trkpt lat="45.8442376" lon="11.7219922"><ele>1111.0</ele><time>2026-04-09T13:16:09.43Z</time></trkpt><trkpt lat="45.8441778" lon="11.7218642"><ele>1106.3999999999999</ele><time>2026-04-09T13:16:10.434Z</time></trkpt><trkpt lat="45.844122" lon="11.7217381"><ele>1101.8</ele><time>2026-04-09T13:16:11.431Z</time></trkpt><trkpt lat="45.8440701" lon="11.7216187"><ele>1097.1999999999998</ele><time>2026-04-09T13:16:12.432Z</time></trkpt><trkpt lat="45.844018" lon="11.721496"><ele>1092.6</ele><time>2026-04-09T13:16:13.454Z</time></trkpt><trkpt lat="45.8439656" lon="11.7213703"><ele>1088.0</ele><time>2026-04-09T13:16:14.439Z</time></trkpt><trkpt lat="45.8439107" lon="11.7212371"><ele>1088.0</ele><time>2026-04-09T13:16:15.43Z</time></trkpt><trkpt lat="45.843855" lon="11.7211046"><ele>1088.0</ele><time>2026-04-09T13:16:16.44Z</time></trkpt><trkpt lat="45.8438061" lon="11.7209836"><ele>1088.0</ele><time>2026-04-09T13:16:17.442Z</time></trkpt><trkpt lat="45.8437581" lon="11.7208578"><ele>1088.0</ele><time>2026-04-09T13:16:18.434Z</time></trkpt><trkpt lat="45.8437077" lon="11.7207339"><ele>1088.0</ele><time>2026-04-09T13:16:19.458Z</time></trkpt><trkpt lat="45.8436527" lon="11.7206068"><ele>1089.5</ele><time>2026-04-09T13:16:20.442Z</time></trkpt><trkpt lat="45.8436005" lon="11.7204875"><ele>1091.0</ele><time>2026-04-09T13:16:21.431Z</time></trkpt><trkpt lat="45.8435618" lon="11.7203803"><ele>1092.5</ele><time>2026-04-09T13:16:22.436Z</time></trkpt><trkpt lat="45.8435393" lon="11.7202865"><ele>1094.0</ele><time>2026-04-09T13:16:23.443Z</time></trkpt><trkpt lat="45.8435517" lon="11.7201203"><ele>1095.5</ele><time>2026-04-09T13:16:25.438Z</time></trkpt><trkpt lat="45.8435703" lon="11.7200263"><ele>1097.0</ele><time>2026-04-09T13:16:26.443Z</time></trkpt><trkpt lat="45.8436125" lon="11.7199342"><ele>1097.0</ele><time>2026-04-09T13:16:27.431Z</time></trkpt><trkpt lat="45.8436457" lon="11.719824"><ele>1097.0</ele><time>2026-04-09T13:16:28.436Z</time></trkpt><trkpt lat="45.8436651" lon="11.7196906"><ele>1097.0</ele><time>2026-04-09T13:16:29.437Z</time></trkpt><trkpt lat="45.8436807" lon="11.7195783"><ele>1097.0</ele><time>2026-04-09T13:16:30.433Z</time></trkpt><trkpt lat="45.8437165" lon="11.7194288"><ele>1097.0</ele><time>2026-04-09T13:16:32.431Z</time></trkpt><trkpt lat="45.8437702" lon="11.7193749"><ele>1097.0</ele><time>2026-04-09T13:16:33.435Z</time></trkpt><trkpt lat="45.8438726" lon="11.719351"><ele>1097.0</ele><time>2026-04-09T13:16:35.436Z</time></trkpt><trkpt lat="45.8439682" lon="11.7194354"><ele>1097.0</ele><time>2026-04-09T13:16:37.433Z</time></trkpt><trkpt lat="45.8440436" lon="11.7195062"><ele>1097.0</ele><time>2026-04-09T13:16:38.438Z</time></trkpt><trkpt lat="45.8441327" lon="11.7195876"><ele>1097.0</ele><time>2026-04-09T13:16:39.433Z</time></trkpt><trkpt lat="45.8442344" lon="11.7196621"><ele>1097.0</ele><time>2026-04-09T13:16:40.441Z</time></trkpt><trkpt lat="45.8443244" lon="11.7197321"><ele>1096.8</ele><time>2026-04-09T13:16:41.445Z</time></trkpt><trkpt lat="45.8444275" lon="11.7197968"><ele>1096.6</ele><time>2026-04-09T13:16:42.436Z</time></trkpt><trkpt lat="45.8445113" lon="11.7198612"><ele>1096.3999999999999</ele><time>2026-04-09T13:16:43.437Z</time></trkpt><trkpt lat="45.8445846" lon="11.7199263"><ele>1096.2</ele><time>2026-04-09T13:16:44.434Z</time></trkpt><trkpt lat="45.8446497" lon="11.7200015"><ele>1096.0</ele><time>2026-04-09T13:16:45.433Z</time></trkpt><trkpt lat="45.844712" lon="11.720074"><ele>1096.0</ele><time>2026-04-09T13:16:46.429Z</time></trkpt><trkpt lat="45.844771" lon="11.7201193"><ele>1096.0</ele><time>2026-04-09T13:16:47.433Z</time></trkpt><trkpt lat="45.8448541" lon="11.720133"><ele>1096.0</ele><time>2026-04-09T13:16:48.44Z</time></trkpt><trkpt lat="45.8449418" lon="11.7201284"><ele>1096.0</ele><time>2026-04-09T13:16:49.432Z</time></trkpt><trkpt lat="45.8450506" lon="11.7201032"><ele>1096.0</ele><time>2026-04-09T13:16:50.43Z</time></trkpt><trkpt lat="45.8451586" lon="11.7200427"><ele>1100.75</ele><time>2026-04-09T13:16:51.433Z</time></trkpt><trkpt lat="45.8452867" lon="11.7199684"><ele>1105.5</ele><time>2026-04-09T13:16:52.43Z</time></trkpt><trkpt lat="45.8454164" lon="11.7198912"><ele>1110.25</ele><time>2026-04-09T13:16:53.43Z</time></trkpt><trkpt lat="45.845528" lon="11.7198085"><ele>1115.0</ele><time>2026-04-09T13:16:54.426Z</time></trkpt><trkpt lat="45.8456412" lon="11.7197186"><ele>1115.0</ele><time>2026-04-09T13:16:55.434Z</time></trkpt><trkpt lat="45.8457429" lon="11.7196338"><ele>1115.0</ele><time>2026-04-09T13:16:56.433Z</time></trkpt><trkpt lat="45.8458338" lon="11.7195598"><ele>1115.0</ele><time>2026-04-09T13:16:57.426Z</time></trkpt><trkpt lat="45.8459074" lon="11.7195012"><ele>1115.0</ele><time>2026-04-09T13:16:58.44Z</time></trkpt><trkpt lat="45.845977" lon="11.7194217"><ele>1115.0</ele><time>2026-04-09T13:16:59.434Z</time></trkpt><trkpt lat="45.8460313" lon="11.7193094"><ele>1116.2</ele><time>2026-04-09T13:17:00.43Z</time></trkpt><trkpt lat="45.846064" lon="11.7191575"><ele>1117.4</ele><time>2026-04-09T13:17:01.441Z</time></trkpt><trkpt lat="45.8460892" lon="11.7190062"><ele>1118.6</ele><time>2026-04-09T13:17:02.437Z</time></trkpt><trkpt lat="45.8461077" lon="11.7188486"><ele>1119.8</ele><time>2026-04-09T13:17:03.436Z</time></trkpt><trkpt lat="45.8461167" lon="11.7186925"><ele>1121.0</ele><time>2026-04-09T13:17:04.436Z</time></trkpt><trkpt lat="45.8461176" lon="11.7185324"><ele>1117.3999999999999</ele><time>2026-04-09T13:17:05.434Z</time></trkpt><trkpt lat="45.8461155" lon="11.7183775"><ele>1113.8</ele><time>2026-04-09T13:17:06.43Z</time></trkpt><trkpt lat="45.8461132" lon="11.7182311"><ele>1110.1999999999998</ele><time>2026-04-09T13:17:07.434Z</time></trkpt><trkpt lat="45.8461165" lon="11.7181016"><ele>1106.6</ele><time>2026-04-09T13:17:08.434Z</time></trkpt><trkpt lat="45.8461199" lon="11.7179841"><ele>1103.0</ele><time>2026-04-09T13:17:09.428Z</time></trkpt><trkpt lat="45.8461295" lon="11.7178879"><ele>1099.3333333333335</ele><time>2026-04-09T13:17:10.425Z</time></trkpt><trkpt lat="45.8461866" lon="11.7177342"><ele>1095.6666666666667</ele><time>2026-04-09T13:17:12.431Z</time></trkpt><trkpt lat="45.8462393" lon="11.7176737"><ele>1092.0</ele><time>2026-04-09T13:17:13.445Z</time></trkpt><trkpt lat="45.8463051" lon="11.7176359"><ele>1088.3333333333333</ele><time>2026-04-09T13:17:14.431Z</time></trkpt><trkpt lat="45.8463712" lon="11.7175945"><ele>1084.6666666666665</ele><time>2026-04-09T13:17:15.436Z</time></trkpt><trkpt lat="45.8464829" lon="11.7175442"><ele>1081.0</ele><time>2026-04-09T13:17:17.437Z</time></trkpt><trkpt lat="45.8465467" lon="11.7175401"><ele>1081.0</ele><time>2026-04-09T13:17:18.436Z</time></trkpt><trkpt lat="45.846619" lon="11.7175649"><ele>1081.0</ele><time>2026-04-09T13:17:19.431Z</time></trkpt><trkpt lat="45.8466966" lon="11.717595"><ele>1081.0</ele><time>2026-04-09T13:17:20.442Z</time></trkpt><trkpt lat="45.8467701" lon="11.7176617"><ele>1081.0</ele><time>2026-04-09T13:17:21.444Z</time></trkpt><trkpt lat="45.8468441" lon="11.7177422"><ele>1081.0</ele><time>2026-04-09T13:17:22.441Z</time></trkpt><trkpt lat="45.8469179" lon="11.7178204"><ele>1081.0</ele><time>2026-04-09T13:17:23.435Z</time></trkpt><trkpt lat="45.8469927" lon="11.7178998"><ele>1086.5</ele><time>2026-04-09T13:17:24.439Z</time></trkpt><trkpt lat="45.8470671" lon="11.717962"><ele>1092.0</ele><time>2026-04-09T13:17:25.433Z</time></trkpt><trkpt lat="45.8471488" lon="11.7179717"><ele>1097.5</ele><time>2026-04-09T13:17:26.433Z</time></trkpt><trkpt lat="45.8472318" lon="11.7179478"><ele>1103.0</ele><time>2026-04-09T13:17:27.441Z</time></trkpt><trkpt lat="45.84732" lon="11.7178962"><ele>1108.5</ele><time>2026-04-09T13:17:28.436Z</time></trkpt><trkpt lat="45.8474043" lon="11.7178465"><ele>1114.0</ele><time>2026-04-09T13:17:29.432Z</time></trkpt><trkpt lat="45.8474537" lon="11.7177696"><ele>1115.0</ele><time>2026-04-09T13:17:30.43Z</time></trkpt><trkpt lat="45.8475146" lon="11.7176556"><ele>1116.0</ele><time>2026-04-09T13:17:31.435Z</time></trkpt><trkpt lat="45.8475703" lon="11.7175171"><ele>1117.0</ele><time>2026-04-09T13:17:32.432Z</time></trkpt><trkpt lat="45.8476208" lon="11.7173724"><ele>1118.0</ele><time>2026-04-09T13:17:33.437Z</time></trkpt><trkpt lat="45.847667" lon="11.7172295"><ele>1119.0</ele><time>2026-04-09T13:17:34.438Z</time></trkpt><trkpt lat="45.8477084" lon="11.7170964"><ele>1119.0</ele><time>2026-04-09T13:17:35.431Z</time></trkpt><trkpt lat="45.8477475" lon="11.7169755"><ele>1119.0</ele><time>2026-04-09T13:17:36.436Z</time></trkpt><trkpt lat="45.8477878" lon="11.7168755"><ele>1119.0</ele><time>2026-04-09T13:17:37.451Z</time></trkpt><trkpt lat="45.8478262" lon="11.7167801"><ele>1119.0</ele><time>2026-04-09T13:17:38.43Z</time></trkpt><trkpt lat="45.8478934" lon="11.7167144"><ele>1119.0</ele><time>2026-04-09T13:17:39.432Z</time></trkpt><trkpt lat="45.8479737" lon="11.7166666"><ele>1119.0</ele><time>2026-04-09T13:17:40.434Z</time></trkpt><trkpt lat="45.8480593" lon="11.7166267"><ele>1116.8</ele><time>2026-04-09T13:17:41.432Z</time></trkpt><trkpt lat="45.8481462" lon="11.7165904"><ele>1114.6000000000001</ele><time>2026-04-09T13:17:42.432Z</time></trkpt><trkpt lat="45.848241" lon="11.7165647"><ele>1112.4</ele><time>2026-04-09T13:17:43.431Z</time></trkpt><trkpt lat="45.8483376" lon="11.7165429"><ele>1110.2</ele><time>2026-04-09T13:17:44.449Z</time></trkpt><trkpt lat="45.8484275" lon="11.7165292"><ele>1108.0</ele><time>2026-04-09T13:17:45.442Z</time></trkpt><trkpt lat="45.8485253" lon="11.7165337"><ele>1108.0</ele><time>2026-04-09T13:17:46.437Z</time></trkpt><trkpt lat="45.848618" lon="11.7165472"><ele>1108.0</ele><time>2026-04-09T13:17:47.435Z</time></trkpt><trkpt lat="45.8487074" lon="11.716573"><ele>1108.0</ele><time>2026-04-09T13:17:48.435Z</time></trkpt><trkpt lat="45.8487932" lon="11.716605"><ele>1108.0</ele><time>2026-04-09T13:17:49.435Z</time></trkpt><trkpt lat="45.8488708" lon="11.7166391"><ele>1108.0</ele><time>2026-04-09T13:17:50.442Z</time></trkpt><trkpt lat="45.8489434" lon="11.7166526"><ele>1108.0</ele><time>2026-04-09T13:17:51.436Z</time></trkpt><trkpt lat="45.8490103" lon="11.7166604"><ele>1108.0</ele><time>2026-04-09T13:17:52.43Z</time></trkpt><trkpt lat="45.8490679" lon="11.7166178"><ele>1108.0</ele><time>2026-04-09T13:17:53.435Z</time></trkpt><trkpt lat="45.8491287" lon="11.7165718"><ele>1108.0</ele><time>2026-04-09T13:17:54.441Z</time></trkpt><trkpt lat="45.8491785" lon="11.7164763"><ele>1108.0</ele><time>2026-04-09T13:17:55.432Z</time></trkpt><trkpt lat="45.8492332" lon="11.7163725"><ele>1108.0</ele><time>2026-04-09T13:17:56.444Z</time></trkpt><trkpt lat="45.8492869" lon="11.7162653"><ele>1108.0</ele><time>2026-04-09T13:17:57.428Z</time></trkpt><trkpt lat="45.8493405" lon="11.71616"><ele>1108.0</ele><time>2026-04-09T13:17:58.436Z</time></trkpt><trkpt lat="45.8493977" lon="11.716056"><ele>1108.0</ele><time>2026-04-09T13:17:59.428Z</time></trkpt><trkpt lat="45.8494541" lon="11.7159607"><ele>1108.0</ele><time>2026-04-09T13:18:00.432Z</time></trkpt><trkpt lat="45.8495162" lon="11.7158823"><ele>1108.0</ele><time>2026-04-09T13:18:01.44Z</time></trkpt><trkpt lat="45.849585" lon="11.7158211"><ele>1108.0</ele><time>2026-04-09T13:18:02.437Z</time></trkpt><trkpt lat="45.8496595" lon="11.7157722"><ele>1108.0</ele><time>2026-04-09T13:18:03.433Z</time></trkpt><trkpt lat="45.8497406" lon="11.7157385"><ele>1108.0</ele><time>2026-04-09T13:18:04.427Z</time></trkpt><trkpt lat="45.8498264" lon="11.7157194"><ele>1108.0</ele><time>2026-04-09T13:18:05.433Z</time></trkpt><trkpt lat="45.8499145" lon="11.7157042"><ele>1108.0</ele><time>2026-04-09T13:18:06.438Z</time></trkpt><trkpt lat="45.849995" lon="11.715692"><ele>1108.0</ele><time>2026-04-09T13:18:07.431Z</time></trkpt><trkpt lat="45.8500696" lon="11.7156772"><ele>1108.0</ele><time>2026-04-09T13:18:08.43Z</time></trkpt><trkpt lat="45.8501324" lon="11.7156429"><ele>1108.0</ele><time>2026-04-09T13:18:09.438Z</time></trkpt><trkpt lat="45.8501815" lon="11.7155832"><ele>1109.7142857142858</ele><time>2026-04-09T13:18:10.43Z</time></trkpt><trkpt lat="45.8502327" lon="11.7155173"><ele>1111.4285714285713</ele><time>2026-04-09T13:18:11.437Z</time></trkpt><trkpt lat="45.850249" lon="11.7154248"><ele>1113.142857142857</ele><time>2026-04-09T13:18:12.437Z</time></trkpt><trkpt lat="45.8502556" lon="11.7153264"><ele>1114.857142857143</ele><time>2026-04-09T13:18:13.437Z</time></trkpt><trkpt lat="45.8502661" lon="11.7152303"><ele>1116.5714285714284</ele><time>2026-04-09T13:18:14.44Z</time></trkpt><trkpt lat="45.8502939" lon="11.7151427"><ele>1118.2857142857142</ele><time>2026-04-09T13:18:15.448Z</time></trkpt><trkpt lat="45.850339" lon="11.7150717"><ele>1120.0</ele><time>2026-04-09T13:18:16.43Z</time></trkpt><trkpt lat="45.8503988" lon="11.7150188"><ele>1120.0</ele><time>2026-04-09T13:18:17.449Z</time></trkpt><trkpt lat="45.8504597" lon="11.7149796"><ele>1120.0</ele><time>2026-04-09T13:18:18.442Z</time></trkpt><trkpt lat="45.8505123" lon="11.7149286"><ele>1120.0</ele><time>2026-04-09T13:18:19.432Z</time></trkpt><trkpt lat="45.8505688" lon="11.7147602"><ele>1120.0</ele><time>2026-04-09T13:18:21.431Z</time></trkpt><trkpt lat="45.8505673" lon="11.7146555"><ele>1120.0</ele><time>2026-04-09T13:18:22.429Z</time></trkpt><trkpt lat="45.8505485" lon="11.7145449"><ele>1120.0</ele><time>2026-04-09T13:18:23.442Z</time></trkpt><trkpt lat="45.8505231" lon="11.7144307"><ele>1120.857142857143</ele><time>2026-04-09T13:18:24.433Z</time></trkpt><trkpt lat="45.8504926" lon="11.7143274"><ele>1121.7142857142858</ele><time>2026-04-09T13:18:25.429Z</time></trkpt><trkpt lat="45.8504535" lon="11.7142355"><ele>1122.5714285714284</ele><time>2026-04-09T13:18:26.433Z</time></trkpt><trkpt lat="45.8503921" lon="11.7141399"><ele>1123.4285714285716</ele><time>2026-04-09T13:18:28.433Z</time></trkpt><trkpt lat="45.8503436" lon="11.7140723"><ele>1124.2857142857142</ele><time>2026-04-09T13:20:18.441Z</time></trkpt><trkpt lat="45.8502925" lon="11.7140185"><ele>1125.142857142857</ele><time>2026-04-09T13:20:19.443Z</time></trkpt><trkpt lat="45.850232" lon="11.7139591"><ele>1126.0</ele><time>2026-04-09T13:20:20.442Z</time></trkpt><trkpt lat="45.8501641" lon="11.7138994"><ele>1122.1666666666665</ele><time>2026-04-09T13:20:21.445Z</time></trkpt><trkpt lat="45.8500925" lon="11.7138447"><ele>1118.3333333333333</ele><time>2026-04-09T13:20:22.441Z</time></trkpt><trkpt lat="45.8500194" lon="11.7137926"><ele>1114.5</ele><time>2026-04-09T13:20:23.44Z</time></trkpt><trkpt lat="45.8499468" lon="11.7137419"><ele>1110.6666666666667</ele><time>2026-04-09T13:20:24.44Z</time></trkpt><trkpt lat="45.8498758" lon="11.7136893"><ele>1106.8333333333335</ele><time>2026-04-09T13:20:25.45Z</time></trkpt><trkpt lat="45.8498078" lon="11.7136351"><ele>1103.0</ele><time>2026-04-09T13:20:26.431Z</time></trkpt><trkpt lat="45.8497391" lon="11.7135766"><ele>1106.3333333333335</ele><time>2026-04-09T13:20:27.443Z</time></trkpt><trkpt lat="45.8496731" lon="11.713514"><ele>1109.6666666666667</ele><time>2026-04-09T13:20:28.447Z</time></trkpt><trkpt lat="45.8496148" lon="11.7134497"><ele>1113.0</ele><time>2026-04-09T13:20:29.434Z</time></trkpt><trkpt lat="45.8495622" lon="11.7133916"><ele>1116.3333333333333</ele><time>2026-04-09T13:20:30.443Z</time></trkpt><trkpt lat="45.8494895" lon="11.7132919"><ele>1119.6666666666665</ele><time>2026-04-09T13:20:32.435Z</time></trkpt><trkpt lat="45.8494128" lon="11.7131581"><ele>1123.0</ele><time>2026-04-09T13:20:34.435Z</time></trkpt><trkpt lat="45.8493792" lon="11.7130763"><ele>1122.9999999999998</ele><time>2026-04-09T13:20:35.438Z</time></trkpt><trkpt lat="45.8493456" lon="11.7129948"><ele>1123.0</ele><time>2026-04-09T13:20:36.449Z</time></trkpt><trkpt lat="45.8493318" lon="11.7128993"><ele>1123.0</ele><time>2026-04-09T13:20:37.439Z</time></trkpt><trkpt lat="45.8493278" lon="11.7127977"><ele>1123.0</ele><time>2026-04-09T13:20:38.434Z</time></trkpt><trkpt lat="45.8493395" lon="11.7126962"><ele>1123.0</ele><time>2026-04-09T13:20:39.44Z</time></trkpt><trkpt lat="45.849355" lon="11.7125848"><ele>1122.9999999999998</ele><time>2026-04-09T13:20:40.438Z</time></trkpt><trkpt lat="45.8493723" lon="11.7124684"><ele>1123.0</ele><time>2026-04-09T13:20:41.442Z</time></trkpt><trkpt lat="45.8493827" lon="11.7123556"><ele>1123.142857142857</ele><time>2026-04-09T13:20:42.443Z</time></trkpt><trkpt lat="45.8493858" lon="11.7122398"><ele>1123.2857142857142</ele><time>2026-04-09T13:20:43.436Z</time></trkpt><trkpt lat="45.8493884" lon="11.712124"><ele>1123.4285714285716</ele><time>2026-04-09T13:20:44.437Z</time></trkpt><trkpt lat="45.8493744" lon="11.7120172"><ele>1123.5714285714284</ele><time>2026-04-09T13:20:45.446Z</time></trkpt><trkpt lat="45.8493443" lon="11.7119291"><ele>1123.7142857142858</ele><time>2026-04-09T13:20:46.433Z</time></trkpt><trkpt lat="45.8493143" lon="11.7118453"><ele>1123.857142857143</ele><time>2026-04-09T13:20:47.45Z</time></trkpt><trkpt lat="45.8492684" lon="11.7117741"><ele>1124.0</ele><time>2026-04-09T13:20:48.441Z</time></trkpt><trkpt lat="45.8492163" lon="11.7117024"><ele>1124.0</ele><time>2026-04-09T13:20:49.444Z</time></trkpt><trkpt lat="45.8491579" lon="11.7116289"><ele>1124.0</ele><time>2026-04-09T13:20:50.437Z</time></trkpt><trkpt lat="45.8490816" lon="11.7115454"><ele>1124.0</ele><time>2026-04-09T13:20:51.435Z</time></trkpt><trkpt lat="45.849013" lon="11.7114732"><ele>1124.0</ele><time>2026-04-09T13:20:52.436Z</time></trkpt><trkpt lat="45.848957" lon="11.7114164"><ele>1124.0</ele><time>2026-04-09T13:20:53.442Z</time></trkpt><trkpt lat="45.848881" lon="11.7112909"><ele>1124.0</ele><time>2026-04-09T13:20:55.442Z</time></trkpt><trkpt lat="45.848862" lon="11.7111669"><ele>1124.0</ele><time>2026-04-09T13:20:57.439Z</time></trkpt><trkpt lat="45.8489198" lon="11.7110592"><ele>1124.0</ele><time>2026-04-09T13:20:59.444Z</time></trkpt><trkpt lat="45.8490258" lon="11.710951"><ele>1124.0</ele><time>2026-04-09T13:21:01.438Z</time></trkpt><trkpt lat="45.8490869" lon="11.7108712"><ele>1124.0</ele><time>2026-04-09T13:21:02.432Z</time></trkpt><trkpt lat="45.849142" lon="11.7107898"><ele>1124.0</ele><time>2026-04-09T13:21:03.445Z</time></trkpt><trkpt lat="45.8492023" lon="11.710707"><ele>1124.0</ele><time>2026-04-09T13:21:04.439Z</time></trkpt><trkpt lat="45.8492675" lon="11.7106357"><ele>1124.0</ele><time>2026-04-09T13:21:05.437Z</time></trkpt><trkpt lat="45.8493386" lon="11.7105761"><ele>1124.0</ele><time>2026-04-09T13:21:06.447Z</time></trkpt><trkpt lat="45.8494174" lon="11.7105212"><ele>1124.0</ele><time>2026-04-09T13:21:07.438Z</time></trkpt><trkpt lat="45.8494955" lon="11.7104677"><ele>1124.0</ele><time>2026-04-09T13:21:08.444Z</time></trkpt><trkpt lat="45.8495707" lon="11.710435"><ele>1124.0</ele><time>2026-04-09T13:21:09.442Z</time></trkpt><trkpt lat="45.8496374" lon="11.7104123"><ele>1127.2857142857144</ele><time>2026-04-09T13:21:10.435Z</time></trkpt><trkpt lat="45.8497051" lon="11.7103998"><ele>1130.5714285714287</ele><time>2026-04-09T13:21:11.445Z</time></trkpt><trkpt lat="45.849768" lon="11.7103905"><ele>1133.857142857143</ele><time>2026-04-09T13:21:12.439Z</time></trkpt><trkpt lat="45.8498406" lon="11.7104084"><ele>1137.1428571428573</ele><time>2026-04-09T13:21:13.437Z</time></trkpt><trkpt lat="45.8499151" lon="11.7104292"><ele>1140.4285714285716</ele><time>2026-04-09T13:21:14.439Z</time></trkpt><trkpt lat="45.8499882" lon="11.7104454"><ele>1143.7142857142858</ele><time>2026-04-09T13:21:15.431Z</time></trkpt><trkpt lat="45.8500548" lon="11.7104411"><ele>1147.0</ele><time>2026-04-09T13:21:16.436Z</time></trkpt><trkpt lat="45.8501176" lon="11.7104263"><ele>1146.8333333333333</ele><time>2026-04-09T13:21:17.431Z</time></trkpt><trkpt lat="45.8501832" lon="11.7103874"><ele>1146.6666666666665</ele><time>2026-04-09T13:21:18.435Z</time></trkpt><trkpt lat="45.8502532" lon="11.7103436"><ele>1146.5</ele><time>2026-04-09T13:21:19.433Z</time></trkpt><trkpt lat="45.8503266" lon="11.7102723"><ele>1146.3333333333333</ele><time>2026-04-09T13:21:20.443Z</time></trkpt><trkpt lat="45.8504032" lon="11.7101998"><ele>1146.1666666666667</ele><time>2026-04-09T13:21:21.441Z</time></trkpt><trkpt lat="45.8504724" lon="11.7101196"><ele>1146.0</ele><time>2026-04-09T13:21:22.437Z</time></trkpt><trkpt lat="45.8505347" lon="11.710028"><ele>1146.0</ele><time>2026-04-09T13:21:23.444Z</time></trkpt><trkpt lat="45.8505916" lon="11.709926"><ele>1146.0</ele><time>2026-04-09T13:21:24.435Z</time></trkpt><trkpt lat="45.8506424" lon="11.7098215"><ele>1146.0</ele><time>2026-04-09T13:21:25.441Z</time></trkpt><trkpt lat="45.8506897" lon="11.7097148"><ele>1146.0</ele><time>2026-04-09T13:21:26.427Z</time></trkpt><trkpt lat="45.850729" lon="11.7096078"><ele>1146.0</ele><time>2026-04-09T13:21:27.442Z</time></trkpt><trkpt lat="45.8507677" lon="11.7095163"><ele>1146.0</ele><time>2026-04-09T13:21:28.436Z</time></trkpt><trkpt lat="45.8508106" lon="11.709436"><ele>1145.7142857142858</ele><time>2026-04-09T13:21:29.448Z</time></trkpt><trkpt lat="45.8508524" lon="11.7093615"><ele>1145.4285714285716</ele><time>2026-04-09T13:21:30.442Z</time></trkpt><trkpt lat="45.8509097" lon="11.7093037"><ele>1145.142857142857</ele><time>2026-04-09T13:21:31.445Z</time></trkpt><trkpt lat="45.8509814" lon="11.7092652"><ele>1144.857142857143</ele><time>2026-04-09T13:21:32.435Z</time></trkpt><trkpt lat="45.8510538" lon="11.709229"><ele>1144.5714285714284</ele><time>2026-04-09T13:21:33.444Z</time></trkpt><trkpt lat="45.8511265" lon="11.7092266"><ele>1144.2857142857142</ele><time>2026-04-09T13:21:34.435Z</time></trkpt><trkpt lat="45.851193" lon="11.7092509"><ele>1144.0</ele><time>2026-04-09T13:21:35.44Z</time></trkpt><trkpt lat="45.8512608" lon="11.7092778"><ele>1144.0</ele><time>2026-04-09T13:21:36.449Z</time></trkpt><trkpt lat="45.8513194" lon="11.7093441"><ele>1144.0</ele><time>2026-04-09T13:21:37.432Z</time></trkpt><trkpt lat="45.8514283" lon="11.7094132"><ele>1144.0</ele><time>2026-04-09T13:21:39.437Z</time></trkpt><trkpt lat="45.8515314" lon="11.7093938"><ele>1144.0</ele><time>2026-04-09T13:21:41.43Z</time></trkpt><trkpt lat="45.8515925" lon="11.7092649"><ele>1144.0</ele><time>2026-04-09T13:21:43.431Z</time></trkpt><trkpt lat="45.8516321" lon="11.7091737"><ele>1144.0</ele><time>2026-04-09T13:21:44.442Z</time></trkpt><trkpt lat="45.8516731" lon="11.7090759"><ele>1144.0</ele><time>2026-04-09T13:21:45.437Z</time></trkpt><trkpt lat="45.8517358" lon="11.7089756"><ele>1144.0</ele><time>2026-04-09T13:21:46.436Z</time></trkpt><trkpt lat="45.8517976" lon="11.7088678"><ele>1144.0</ele><time>2026-04-09T13:21:47.436Z</time></trkpt><trkpt lat="45.8518434" lon="11.708745"><ele>1144.0</ele><time>2026-04-09T13:21:48.431Z</time></trkpt><trkpt lat="45.851887" lon="11.7086247"><ele>1149.8</ele><time>2026-04-09T13:21:49.433Z</time></trkpt><trkpt lat="45.8519076" lon="11.7084875"><ele>1155.6000000000001</ele><time>2026-04-09T13:21:50.438Z</time></trkpt><trkpt lat="45.851907" lon="11.7083473"><ele>1161.4</ele><time>2026-04-09T13:21:51.43Z</time></trkpt><trkpt lat="45.8519043" lon="11.7082012"><ele>1167.2</ele><time>2026-04-09T13:21:52.432Z</time></trkpt><trkpt lat="45.8519064" lon="11.7080264"><ele>1173.0</ele><time>2026-04-09T13:21:53.431Z</time></trkpt><trkpt lat="45.8519021" lon="11.7078531"><ele>1171.4</ele><time>2026-04-09T13:21:54.44Z</time></trkpt><trkpt lat="45.8518905" lon="11.7076808"><ele>1169.8</ele><time>2026-04-09T13:21:55.446Z</time></trkpt><trkpt lat="45.8518854" lon="11.7075138"><ele>1168.2</ele><time>2026-04-09T13:21:56.433Z</time></trkpt><trkpt lat="45.8518878" lon="11.7073578"><ele>1166.6</ele><time>2026-04-09T13:21:57.424Z</time></trkpt><trkpt lat="45.8518959" lon="11.707215"><ele>1165.0</ele><time>2026-04-09T13:21:58.432Z</time></trkpt><trkpt lat="45.8519145" lon="11.7070771"><ele>1165.0</ele><time>2026-04-09T13:21:59.437Z</time></trkpt><trkpt lat="45.8519434" lon="11.706959"><ele>1165.0</ele><time>2026-04-09T13:22:00.433Z</time></trkpt><trkpt lat="45.8519878" lon="11.7068416"><ele>1165.0</ele><time>2026-04-09T13:22:01.429Z</time></trkpt><trkpt lat="45.8520343" lon="11.7067212"><ele>1165.0</ele><time>2026-04-09T13:22:02.441Z</time></trkpt><trkpt lat="45.8520998" lon="11.7066003"><ele>1165.0</ele><time>2026-04-09T13:22:03.433Z</time></trkpt><trkpt lat="45.8521647" lon="11.7065033"><ele>1161.5</ele><time>2026-04-09T13:22:04.434Z</time></trkpt><trkpt lat="45.8522237" lon="11.706419"><ele>1158.0</ele><time>2026-04-09T13:22:05.428Z</time></trkpt><trkpt lat="45.8522958" lon="11.7063639"><ele>1154.5</ele><time>2026-04-09T13:22:06.434Z</time></trkpt><trkpt lat="45.8523728" lon="11.706354"><ele>1151.0</ele><time>2026-04-09T13:22:07.436Z</time></trkpt><trkpt lat="45.8524423" lon="11.7063501"><ele>1147.5</ele><time>2026-04-09T13:22:08.436Z</time></trkpt><trkpt lat="45.8525239" lon="11.7063774"><ele>1144.0</ele><time>2026-04-09T13:22:09.443Z</time></trkpt><trkpt lat="45.8526118" lon="11.7064158"><ele>1142.6666666666665</ele><time>2026-04-09T13:22:10.432Z</time></trkpt><trkpt lat="45.8527063" lon="11.7064623"><ele>1141.3333333333333</ele><time>2026-04-09T13:22:11.423Z</time></trkpt><trkpt lat="45.8527995" lon="11.7065117"><ele>1140.0</ele><time>2026-04-09T13:22:12.43Z</time></trkpt><trkpt lat="45.8528874" lon="11.7065581"><ele>1138.6666666666667</ele><time>2026-04-09T13:22:13.441Z</time></trkpt><trkpt lat="45.8529636" lon="11.7066019"><ele>1137.3333333333335</ele><time>2026-04-09T13:22:14.436Z</time></trkpt><trkpt lat="45.8530231" lon="11.7066398"><ele>1136.0</ele><time>2026-04-09T13:22:15.43Z</time></trkpt><trkpt lat="45.853099" lon="11.7066852"><ele>1136.0</ele><time>2026-04-09T13:22:16.432Z</time></trkpt><trkpt lat="45.8531847" lon="11.7067497"><ele>1136.0</ele><time>2026-04-09T13:22:17.439Z</time></trkpt><trkpt lat="45.8532553" lon="11.7068379"><ele>1136.0</ele><time>2026-04-09T13:22:18.435Z</time></trkpt><trkpt lat="45.8533197" lon="11.7069061"><ele>1136.0</ele><time>2026-04-09T13:22:19.434Z</time></trkpt><trkpt lat="45.8533905" lon="11.706968"><ele>1136.0</ele><time>2026-04-09T13:22:20.441Z</time></trkpt><trkpt lat="45.8534765" lon="11.7070033"><ele>1136.0</ele><time>2026-04-09T13:22:21.433Z</time></trkpt><trkpt lat="45.8535414" lon="11.7070302"><ele>1138.0</ele><time>2026-04-09T13:22:22.433Z</time></trkpt><trkpt lat="45.8536051" lon="11.707046"><ele>1140.0</ele><time>2026-04-09T13:22:23.425Z</time></trkpt><trkpt lat="45.8536796" lon="11.7070298"><ele>1142.0</ele><time>2026-04-09T13:22:24.428Z</time></trkpt><trkpt lat="45.8537509" lon="11.70697"><ele>1144.0</ele><time>2026-04-09T13:22:25.44Z</time></trkpt><trkpt lat="45.8538045" lon="11.7068668"><ele>1146.0</ele><time>2026-04-09T13:22:26.442Z</time></trkpt><trkpt lat="45.8538683" lon="11.7067551"><ele>1148.0</ele><time>2026-04-09T13:22:27.443Z</time></trkpt><trkpt lat="45.8539319" lon="11.7066863"><ele>1148.0</ele><time>2026-04-09T13:22:28.443Z</time></trkpt><trkpt lat="45.8539971" lon="11.7066113"><ele>1148.0</ele><time>2026-04-09T13:22:29.447Z</time></trkpt><trkpt lat="45.8540905" lon="11.7065635"><ele>1148.0</ele><time>2026-04-09T13:22:30.438Z</time></trkpt><trkpt lat="45.854182" lon="11.7065062"><ele>1148.0</ele><time>2026-04-09T13:22:31.435Z</time></trkpt><trkpt lat="45.8542589" lon="11.7064368"><ele>1148.0</ele><time>2026-04-09T13:22:32.436Z</time></trkpt><trkpt lat="45.8543423" lon="11.7063714"><ele>1150.6666666666667</ele><time>2026-04-09T13:22:33.432Z</time></trkpt><trkpt lat="45.8544233" lon="11.7063085"><ele>1153.3333333333335</ele><time>2026-04-09T13:22:34.433Z</time></trkpt><trkpt lat="45.8544969" lon="11.7062608"><ele>1156.0</ele><time>2026-04-09T13:22:35.434Z</time></trkpt><trkpt lat="45.8545504" lon="11.7062128"><ele>1158.6666666666667</ele><time>2026-04-09T13:22:36.427Z</time></trkpt><trkpt lat="45.8545975" lon="11.7061429"><ele>1161.3333333333333</ele><time>2026-04-09T13:22:37.429Z</time></trkpt><trkpt lat="45.8546377" lon="11.7060662"><ele>1164.0</ele><time>2026-04-09T13:22:38.435Z</time></trkpt><trkpt lat="45.8546874" lon="11.7059078"><ele>1164.0</ele><time>2026-04-09T13:22:40.432Z</time></trkpt><trkpt lat="45.8547088" lon="11.7057863"><ele>1164.0</ele><time>2026-04-09T13:22:41.431Z</time></trkpt><trkpt lat="45.8547181" lon="11.7056535"><ele>1164.0</ele><time>2026-04-09T13:22:42.445Z</time></trkpt><trkpt lat="45.8547161" lon="11.7055151"><ele>1164.0</ele><time>2026-04-09T13:22:43.436Z</time></trkpt><trkpt lat="45.854715" lon="11.7053618"><ele>1164.0</ele><time>2026-04-09T13:22:44.432Z</time></trkpt><trkpt lat="45.8547133" lon="11.7052119"><ele>1162.0</ele><time>2026-04-09T13:22:45.442Z</time></trkpt><trkpt lat="45.8547036" lon="11.7050516"><ele>1160.0</ele><time>2026-04-09T13:22:46.439Z</time></trkpt><trkpt lat="45.8546917" lon="11.7049009"><ele>1158.0</ele><time>2026-04-09T13:22:47.434Z</time></trkpt><trkpt lat="45.8546874" lon="11.7047675"><ele>1156.0</ele><time>2026-04-09T13:22:48.438Z</time></trkpt><trkpt lat="45.8546893" lon="11.7046526"><ele>1154.0</ele><time>2026-04-09T13:22:49.434Z</time></trkpt><trkpt lat="45.8547004" lon="11.7045467"><ele>1154.0</ele><time>2026-04-09T13:22:50.441Z</time></trkpt><trkpt lat="45.8547123" lon="11.7044559"><ele>1154.0</ele><time>2026-04-09T13:22:51.431Z</time></trkpt><trkpt lat="45.8547734" lon="11.7043262"><ele>1154.0</ele><time>2026-04-09T13:22:53.431Z</time></trkpt><trkpt lat="45.8548519" lon="11.7042776"><ele>1154.0</ele><time>2026-04-09T13:22:55.446Z</time></trkpt><trkpt lat="45.8549202" lon="11.7043275"><ele>1154.0</ele><time>2026-04-09T13:22:57.433Z</time></trkpt><trkpt lat="45.8549883" lon="11.7044641"><ele>1154.0</ele><time>2026-04-09T13:22:59.429Z</time></trkpt><trkpt lat="45.8550187" lon="11.7045485"><ele>1154.0</ele><time>2026-04-09T13:23:00.423Z</time></trkpt><trkpt lat="45.8550533" lon="11.7046278"><ele>1154.0</ele><time>2026-04-09T13:23:01.438Z</time></trkpt><trkpt lat="45.8550984" lon="11.7046937"><ele>1154.0</ele><time>2026-04-09T13:23:02.427Z</time></trkpt><trkpt lat="45.8551603" lon="11.7047377"><ele>1154.0</ele><time>2026-04-09T13:23:03.436Z</time></trkpt><trkpt lat="45.8552372" lon="11.7047598"><ele>1154.0</ele><time>2026-04-09T13:23:04.433Z</time></trkpt><trkpt lat="45.8553309" lon="11.7047768"><ele>1154.0</ele><time>2026-04-09T13:23:05.437Z</time></trkpt><trkpt lat="45.8554245" lon="11.7047814"><ele>1162.6000000000001</ele><time>2026-04-09T13:23:06.426Z</time></trkpt><trkpt lat="45.8555126" lon="11.7047923"><ele>1171.2</ele><time>2026-04-09T13:23:07.429Z</time></trkpt><trkpt lat="45.8556008" lon="11.7047729"><ele>1179.8000000000002</ele><time>2026-04-09T13:23:08.43Z</time></trkpt><trkpt lat="45.8556844" lon="11.7047228"><ele>1188.4</ele><time>2026-04-09T13:23:09.43Z</time></trkpt><trkpt lat="45.855759" lon="11.704638"><ele>1197.0</ele><time>2026-04-09T13:23:10.427Z</time></trkpt><trkpt lat="45.8558262" lon="11.7045335"><ele>1197.0</ele><time>2026-04-09T13:23:11.427Z</time></trkpt><trkpt lat="45.8558851" lon="11.7044365"><ele>1197.0</ele><time>2026-04-09T13:23:12.432Z</time></trkpt><trkpt lat="45.8559439" lon="11.70434"><ele>1197.0</ele><time>2026-04-09T13:23:13.431Z</time></trkpt><trkpt lat="45.8559895" lon="11.7042435"><ele>1197.0</ele><time>2026-04-09T13:23:14.431Z</time></trkpt><trkpt lat="45.8560389" lon="11.7041533"><ele>1197.0</ele><time>2026-04-09T13:23:15.432Z</time></trkpt><trkpt lat="45.8560868" lon="11.7040713"><ele>1197.0</ele><time>2026-04-09T13:23:16.434Z</time></trkpt><trkpt lat="45.8561446" lon="11.7040129"><ele>1196.6666666666667</ele><time>2026-04-09T13:23:17.429Z</time></trkpt><trkpt lat="45.8562137" lon="11.7039647"><ele>1196.3333333333333</ele><time>2026-04-09T13:23:18.423Z</time></trkpt><trkpt lat="45.856283" lon="11.7038958"><ele>1196.0</ele><time>2026-04-09T13:23:19.445Z</time></trkpt><trkpt lat="45.856345" lon="11.7038109"><ele>1195.6666666666665</ele><time>2026-04-09T13:23:20.434Z</time></trkpt><trkpt lat="45.8564016" lon="11.7037349"><ele>1195.3333333333333</ele><time>2026-04-09T13:23:21.435Z</time></trkpt><trkpt lat="45.8564512" lon="11.7036696"><ele>1195.0</ele><time>2026-04-09T13:23:22.438Z</time></trkpt><trkpt lat="45.8565148" lon="11.7035314"><ele>1191.5</ele><time>2026-04-09T13:23:24.429Z</time></trkpt><trkpt lat="45.8565298" lon="11.7034341"><ele>1188.0</ele><time>2026-04-09T13:23:25.442Z</time></trkpt><trkpt lat="45.8565347" lon="11.7033177"><ele>1184.5</ele><time>2026-04-09T13:23:26.433Z</time></trkpt><trkpt lat="45.8565415" lon="11.7031867"><ele>1181.0</ele><time>2026-04-09T13:23:27.427Z</time></trkpt><trkpt lat="45.8565553" lon="11.7030484"><ele>1177.5</ele><time>2026-04-09T13:23:28.436Z</time></trkpt><trkpt lat="45.8565672" lon="11.7029164"><ele>1174.0</ele><time>2026-04-09T13:23:29.438Z</time></trkpt><trkpt lat="45.8565671" lon="11.702792"><ele>1172.6666666666665</ele><time>2026-04-09T13:23:30.436Z</time></trkpt><trkpt lat="45.8565727" lon="11.7026732"><ele>1171.3333333333333</ele><time>2026-04-09T13:23:31.431Z</time></trkpt><trkpt lat="45.8565695" lon="11.7025537"><ele>1170.0</ele><time>2026-04-09T13:23:32.43Z</time></trkpt><trkpt lat="45.856561" lon="11.7024624"><ele>1168.6666666666667</ele><time>2026-04-09T13:23:33.439Z</time></trkpt><trkpt lat="45.8565413" lon="11.7022869"><ele>1167.3333333333335</ele><time>2026-04-09T13:23:35.427Z</time></trkpt><trkpt lat="45.856539" lon="11.7021796"><ele>1166.0</ele><time>2026-04-09T13:23:36.434Z</time></trkpt><trkpt lat="45.8565421" lon="11.7020839"><ele>1166.0</ele><time>2026-04-09T13:23:37.431Z</time></trkpt><trkpt lat="45.8565837" lon="11.7019502"><ele>1166.0</ele><time>2026-04-09T13:23:39.438Z</time></trkpt><trkpt lat="45.8566632" lon="11.7018788"><ele>1166.0</ele><time>2026-04-09T13:23:41.436Z</time></trkpt><trkpt lat="45.8567671" lon="11.7018814"><ele>1166.0</ele><time>2026-04-09T13:23:43.43Z</time></trkpt><trkpt lat="45.8568785" lon="11.7019515"><ele>1166.0</ele><time>2026-04-09T13:23:45.429Z</time></trkpt><trkpt lat="45.8569804" lon="11.7020284"><ele>1171.0</ele><time>2026-04-09T13:23:47.441Z</time></trkpt><trkpt lat="45.857072" lon="11.7020062"><ele>1176.0</ele><time>2026-04-09T13:23:49.433Z</time></trkpt><trkpt lat="45.8571478" lon="11.7018991"><ele>1181.0</ele><time>2026-04-09T13:23:51.439Z</time></trkpt><trkpt lat="45.8571982" lon="11.7017276"><ele>1186.0</ele><time>2026-04-09T13:23:53.44Z</time></trkpt><trkpt lat="45.8572179" lon="11.70164"><ele>1191.0</ele><time>2026-04-09T13:23:54.443Z</time></trkpt><trkpt lat="45.8572372" lon="11.7015536"><ele>1191.0</ele><time>2026-04-09T13:23:55.44Z</time></trkpt><trkpt lat="45.8572609" lon="11.7014612"><ele>1191.0</ele><time>2026-04-09T13:23:56.44Z</time></trkpt><trkpt lat="45.8572867" lon="11.701366"><ele>1191.0</ele><time>2026-04-09T13:23:57.439Z</time></trkpt><trkpt lat="45.8573189" lon="11.7012871"><ele>1191.0</ele><time>2026-04-09T13:23:58.438Z</time></trkpt><trkpt lat="45.8573934" lon="11.701189"><ele>1191.0</ele><time>2026-04-09T13:24:00.442Z</time></trkpt><trkpt lat="45.8574988" lon="11.7011184"><ele>1191.0</ele><time>2026-04-09T13:24:02.443Z</time></trkpt><trkpt lat="45.8575721" lon="11.7010732"><ele>1195.5</ele><time>2026-04-09T13:24:03.441Z</time></trkpt><trkpt lat="45.8576487" lon="11.7010303"><ele>1200.0</ele><time>2026-04-09T13:24:04.451Z</time></trkpt><trkpt lat="45.8577202" lon="11.7009791"><ele>1204.5</ele><time>2026-04-09T13:24:05.431Z</time></trkpt><trkpt lat="45.8577885" lon="11.7009105"><ele>1209.0</ele><time>2026-04-09T13:24:06.441Z</time></trkpt><trkpt lat="45.8578626" lon="11.7008313"><ele>1213.5</ele><time>2026-04-09T13:24:07.436Z</time></trkpt><trkpt lat="45.8579398" lon="11.7007346"><ele>1218.0</ele><time>2026-04-09T13:24:08.428Z</time></trkpt><trkpt lat="45.8580066" lon="11.7006214"><ele>1218.0</ele><time>2026-04-09T13:24:09.432Z</time></trkpt><trkpt lat="45.8580569" lon="11.7005162"><ele>1218.0</ele><time>2026-04-09T13:24:10.429Z</time></trkpt><trkpt lat="45.8581071" lon="11.700409"><ele>1218.0</ele><time>2026-04-09T13:24:11.449Z</time></trkpt><trkpt lat="45.8581338" lon="11.7002712"><ele>1218.0</ele><time>2026-04-09T13:24:12.438Z</time></trkpt><trkpt lat="45.8581555" lon="11.7001142"><ele>1218.0</ele><time>2026-04-09T13:24:13.442Z</time></trkpt><trkpt lat="45.858176" lon="11.6999512"><ele>1215.4</ele><time>2026-04-09T13:24:14.435Z</time></trkpt><trkpt lat="45.8581917" lon="11.699795"><ele>1212.8</ele><time>2026-04-09T13:24:15.435Z</time></trkpt><trkpt lat="45.8582042" lon="11.699668"><ele>1210.2</ele><time>2026-04-09T13:24:16.425Z</time></trkpt><trkpt lat="45.8582109" lon="11.6995621"><ele>1207.6</ele><time>2026-04-09T13:24:17.438Z</time></trkpt><trkpt lat="45.8581839" lon="11.6993887"><ele>1205.0</ele><time>2026-04-09T13:24:19.433Z</time></trkpt><trkpt lat="45.8581317" lon="11.6992893"><ele>1205.0</ele><time>2026-04-09T13:24:20.422Z</time></trkpt><trkpt lat="45.8580764" lon="11.6991706"><ele>1205.0</ele><time>2026-04-09T13:24:21.434Z</time></trkpt><trkpt lat="45.8580255" lon="11.6990416"><ele>1205.0</ele><time>2026-04-09T13:24:22.431Z</time></trkpt><trkpt lat="45.8579824" lon="11.6989045"><ele>1205.0</ele><time>2026-04-09T13:24:23.453Z</time></trkpt><trkpt lat="45.8579202" lon="11.6987844"><ele>1205.0</ele><time>2026-04-09T13:24:24.434Z</time></trkpt><trkpt lat="45.8578568" lon="11.6986656"><ele>1207.6666666666667</ele><time>2026-04-09T13:24:25.445Z</time></trkpt><trkpt lat="45.8578051" lon="11.6985534"><ele>1210.3333333333335</ele><time>2026-04-09T13:24:26.435Z</time></trkpt><trkpt lat="45.8577733" lon="11.698432"><ele>1213.0</ele><time>2026-04-09T13:24:27.445Z</time></trkpt><trkpt lat="45.857756" lon="11.6983141"><ele>1215.6666666666667</ele><time>2026-04-09T13:24:28.44Z</time></trkpt><trkpt lat="45.857732" lon="11.6981964"><ele>1218.3333333333333</ele><time>2026-04-09T13:24:29.449Z</time></trkpt><trkpt lat="45.857694" lon="11.6980756"><ele>1221.0</ele><time>2026-04-09T13:24:30.432Z</time></trkpt><trkpt lat="45.8576198" lon="11.6979657"><ele>1215.8</ele><time>2026-04-09T13:24:31.449Z</time></trkpt><trkpt lat="45.8575467" lon="11.6978822"><ele>1210.6</ele><time>2026-04-09T13:24:32.441Z</time></trkpt><trkpt lat="45.8574786" lon="11.6978109"><ele>1205.4</ele><time>2026-04-09T13:24:33.437Z</time></trkpt><trkpt lat="45.8573923" lon="11.6977212"><ele>1200.2</ele><time>2026-04-09T13:24:35.446Z</time></trkpt><trkpt lat="45.8573157" lon="11.6976168"><ele>1195.0</ele><time>2026-04-09T13:24:37.433Z</time></trkpt><trkpt lat="45.8573024" lon="11.6974698"><ele>1195.0</ele><time>2026-04-09T13:24:39.44Z</time></trkpt><trkpt lat="45.8573309" lon="11.6973085"><ele>1195.0</ele><time>2026-04-09T13:24:41.44Z</time></trkpt><trkpt lat="45.8573459" lon="11.6972134"><ele>1195.0</ele><time>2026-04-09T13:24:42.454Z</time></trkpt><trkpt lat="45.8573593" lon="11.6971154"><ele>1195.0</ele><time>2026-04-09T13:24:43.443Z</time></trkpt><trkpt lat="45.8573793" lon="11.6969857"><ele>1195.0</ele><time>2026-04-09T13:24:45.443Z</time></trkpt><trkpt lat="45.8573893" lon="11.6968781"><ele>1195.0</ele><time>2026-04-09T13:25:06.445Z</time></trkpt><trkpt lat="45.857411" lon="11.696709"><ele>1195.6666666666665</ele><time>2026-04-09T13:25:08.445Z</time></trkpt><trkpt lat="45.8574183" lon="11.6966067"><ele>1196.3333333333333</ele><time>2026-04-09T13:25:09.44Z</time></trkpt><trkpt lat="45.8574225" lon="11.6965089"><ele>1197.0</ele><time>2026-04-09T13:25:10.434Z</time></trkpt><trkpt lat="45.857424" lon="11.6963559"><ele>1197.6666666666667</ele><time>2026-04-09T13:25:12.46Z</time></trkpt><trkpt lat="45.857428" lon="11.6962598"><ele>1198.3333333333335</ele><time>2026-04-09T13:25:14.435Z</time></trkpt><trkpt lat="45.8574244" lon="11.6961594"><ele>1199.0</ele><time>2026-04-09T13:25:28.44Z</time></trkpt><trkpt lat="45.8573606" lon="11.6960481"><ele>1199.0</ele><time>2026-04-09T13:25:30.432Z</time></trkpt><trkpt lat="45.857279" lon="11.6959345"><ele>1199.0</ele><time>2026-04-09T13:25:32.43Z</time></trkpt><trkpt lat="45.8571981" lon="11.6958071"><ele>1199.0</ele><time>2026-04-09T13:25:34.433Z</time></trkpt><trkpt lat="45.8571198" lon="11.6956804"><ele>1199.0</ele><time>2026-04-09T13:25:36.448Z</time></trkpt><trkpt lat="45.8570674" lon="11.6955895"><ele>1199.0</ele><time>2026-04-09T13:25:38.441Z</time></trkpt><trkpt lat="45.8570205" lon="11.6955281"><ele>1199.0</ele><time>2026-04-09T13:25:52.451Z</time></trkpt><trkpt lat="45.8569714" lon="11.6954396"><ele>1199.0</ele><time>2026-04-09T13:25:54.432Z</time></trkpt><trkpt lat="45.8569311" lon="11.6953208"><ele>1199.0</ele><time>2026-04-09T13:25:56.442Z</time></trkpt><trkpt lat="45.8569379" lon="11.6951789"><ele>1199.0</ele><time>2026-04-09T13:25:58.459Z</time></trkpt><trkpt lat="45.8570085" lon="11.6950567"><ele>1199.0</ele><time>2026-04-09T13:26:00.437Z</time></trkpt><trkpt lat="45.8571106" lon="11.6949653"><ele>1197.4285714285716</ele><time>2026-04-09T13:26:02.446Z</time></trkpt><trkpt lat="45.8571698" lon="11.6949231"><ele>1195.8571428571427</ele><time>2026-04-09T13:26:03.433Z</time></trkpt><trkpt lat="45.8572298" lon="11.6948852"><ele>1194.2857142857142</ele><time>2026-04-09T13:26:04.433Z</time></trkpt><trkpt lat="45.8572884" lon="11.6948431"><ele>1192.7142857142858</ele><time>2026-04-09T13:26:05.436Z</time></trkpt><trkpt lat="45.8573461" lon="11.6948029"><ele>1191.1428571428573</ele><time>2026-04-09T13:26:06.438Z</time></trkpt><trkpt lat="45.8574058" lon="11.6947608"><ele>1189.5714285714287</ele><time>2026-04-09T13:26:07.431Z</time></trkpt><trkpt lat="45.857464" lon="11.6947187"><ele>1188.0</ele><time>2026-04-09T13:26:08.439Z</time></trkpt><trkpt lat="45.8575202" lon="11.6946769"><ele>1188.0</ele><time>2026-04-09T13:26:09.437Z</time></trkpt><trkpt lat="45.8575793" lon="11.6946269"><ele>1188.0</ele><time>2026-04-09T13:26:10.432Z</time></trkpt><trkpt lat="45.8576331" lon="11.6945722"><ele>1188.0</ele><time>2026-04-09T13:26:11.435Z</time></trkpt><trkpt lat="45.8576883" lon="11.6945149"><ele>1188.0</ele><time>2026-04-09T13:26:12.434Z</time></trkpt><trkpt lat="45.8577424" lon="11.694452"><ele>1188.0</ele><time>2026-04-09T13:26:13.43Z</time></trkpt><trkpt lat="45.8577943" lon="11.6943874"><ele>1188.0</ele><time>2026-04-09T13:26:14.447Z</time></trkpt><trkpt lat="45.8578453" lon="11.6943185"><ele>1188.0</ele><time>2026-04-09T13:26:15.44Z</time></trkpt><trkpt lat="45.8578995" lon="11.6942497"><ele>1189.7142857142858</ele><time>2026-04-09T13:26:16.437Z</time></trkpt><trkpt lat="45.8579575" lon="11.6941836"><ele>1191.4285714285716</ele><time>2026-04-09T13:26:17.429Z</time></trkpt><trkpt lat="45.8580147" lon="11.6941183"><ele>1193.142857142857</ele><time>2026-04-09T13:26:18.423Z</time></trkpt><trkpt lat="45.8580711" lon="11.6940504"><ele>1194.857142857143</ele><time>2026-04-09T13:26:19.432Z</time></trkpt><trkpt lat="45.8581193" lon="11.6939901"><ele>1196.5714285714284</ele><time>2026-04-09T13:26:20.432Z</time></trkpt><trkpt lat="45.8581619" lon="11.6939207"><ele>1198.2857142857142</ele><time>2026-04-09T13:26:21.427Z</time></trkpt><trkpt lat="45.8582093" lon="11.6938281"><ele>1200.0</ele><time>2026-04-09T13:26:22.426Z</time></trkpt><trkpt lat="45.8582494" lon="11.6937266"><ele>1200.0</ele><time>2026-04-09T13:26:23.443Z</time></trkpt><trkpt lat="45.8582889" lon="11.6936245"><ele>1200.0</ele><time>2026-04-09T13:26:24.443Z</time></trkpt><trkpt lat="45.8583185" lon="11.693522"><ele>1200.0</ele><time>2026-04-09T13:26:25.433Z</time></trkpt><trkpt lat="45.8583411" lon="11.6934342"><ele>1200.0</ele><time>2026-04-09T13:26:26.438Z</time></trkpt><trkpt lat="45.8583757" lon="11.6932911"><ele>1200.0</ele><time>2026-04-09T13:26:28.439Z</time></trkpt><trkpt lat="45.8584465" lon="11.6931835"><ele>1200.0</ele><time>2026-04-09T13:26:30.435Z</time></trkpt><trkpt lat="45.8585473" lon="11.6930861"><ele>1201.3333333333333</ele><time>2026-04-09T13:26:32.43Z</time></trkpt><trkpt lat="45.8586081" lon="11.6930356"><ele>1202.6666666666667</ele><time>2026-04-09T13:26:33.426Z</time></trkpt><trkpt lat="45.8586639" lon="11.6929885"><ele>1204.0</ele><time>2026-04-09T13:26:34.43Z</time></trkpt><trkpt lat="45.8587452" lon="11.6928628"><ele>1205.3333333333335</ele><time>2026-04-09T13:26:36.425Z</time></trkpt><trkpt lat="45.8587641" lon="11.6927743"><ele>1206.6666666666667</ele><time>2026-04-09T13:26:37.435Z</time></trkpt><trkpt lat="45.8587696" lon="11.6926809"><ele>1208.0</ele><time>2026-04-09T13:26:38.434Z</time></trkpt><trkpt lat="45.8587709" lon="11.6925795"><ele>1208.0</ele><time>2026-04-09T13:26:39.424Z</time></trkpt><trkpt lat="45.8587704" lon="11.6924729"><ele>1208.0</ele><time>2026-04-09T13:26:40.431Z</time></trkpt><trkpt lat="45.8587702" lon="11.6923636"><ele>1208.0</ele><time>2026-04-09T13:26:41.432Z</time></trkpt><trkpt lat="45.8587757" lon="11.6922555"><ele>1208.0</ele><time>2026-04-09T13:26:42.44Z</time></trkpt><trkpt lat="45.8587789" lon="11.6921488"><ele>1208.0</ele><time>2026-04-09T13:26:43.451Z</time></trkpt><trkpt lat="45.8587824" lon="11.692033"><ele>1208.0</ele><time>2026-04-09T13:26:44.432Z</time></trkpt><trkpt lat="45.8587803" lon="11.6919225"><ele>1206.6666666666667</ele><time>2026-04-09T13:26:45.431Z</time></trkpt><trkpt lat="45.8587734" lon="11.6918065"><ele>1205.3333333333335</ele><time>2026-04-09T13:26:46.433Z</time></trkpt><trkpt lat="45.8587629" lon="11.6916922"><ele>1204.0</ele><time>2026-04-09T13:26:47.429Z</time></trkpt><trkpt lat="45.8587448" lon="11.6915828"><ele>1202.6666666666667</ele><time>2026-04-09T13:26:48.425Z</time></trkpt><trkpt lat="45.858726" lon="11.6914732"><ele>1201.3333333333333</ele><time>2026-04-09T13:26:49.436Z</time></trkpt><trkpt lat="45.8587069" lon="11.6913607"><ele>1200.0</ele><time>2026-04-09T13:26:50.441Z</time></trkpt><trkpt lat="45.8586944" lon="11.6912632"><ele>1200.0</ele><time>2026-04-09T13:26:51.438Z</time></trkpt><trkpt lat="45.8586881" lon="11.6911711"><ele>1200.0</ele><time>2026-04-09T13:26:52.429Z</time></trkpt><trkpt lat="45.8586897" lon="11.6909903"><ele>1200.0</ele><time>2026-04-09T13:26:54.43Z</time></trkpt><trkpt lat="45.858727" lon="11.6908938"><ele>1200.0</ele><time>2026-04-09T13:26:55.443Z</time></trkpt><trkpt lat="45.8587638" lon="11.6907998"><ele>1200.0</ele><time>2026-04-09T13:26:56.45Z</time></trkpt><trkpt lat="45.858809" lon="11.6907041"><ele>1200.0</ele><time>2026-04-09T13:26:57.437Z</time></trkpt><trkpt lat="45.8588534" lon="11.6906118"><ele>1198.2857142857142</ele><time>2026-04-09T13:26:58.443Z</time></trkpt><trkpt lat="45.8588973" lon="11.6905172"><ele>1196.5714285714284</ele><time>2026-04-09T13:26:59.463Z</time></trkpt><trkpt lat="45.8589413" lon="11.6904308"><ele>1194.857142857143</ele><time>2026-04-09T13:27:00.428Z</time></trkpt><trkpt lat="45.8589812" lon="11.6903545"><ele>1193.142857142857</ele><time>2026-04-09T13:27:01.452Z</time></trkpt><trkpt lat="45.8590305" lon="11.6902978"><ele>1191.4285714285716</ele><time>2026-04-09T13:27:02.501Z</time></trkpt><trkpt lat="45.8590861" lon="11.6902507"><ele>1189.7142857142858</ele><time>2026-04-09T13:27:03.447Z</time></trkpt><trkpt lat="45.8591521" lon="11.6902081"><ele>1188.0</ele><time>2026-04-09T13:27:04.433Z</time></trkpt><trkpt lat="45.8592248" lon="11.6901699"><ele>1188.3333333333333</ele><time>2026-04-09T13:27:05.438Z</time></trkpt><trkpt lat="45.859295" lon="11.6901336"><ele>1188.6666666666667</ele><time>2026-04-09T13:27:06.433Z</time></trkpt><trkpt lat="45.8593789" lon="11.6900924"><ele>1189.0</ele><time>2026-04-09T13:27:07.431Z</time></trkpt><trkpt lat="45.859459" lon="11.6900554"><ele>1189.3333333333335</ele><time>2026-04-09T13:27:08.433Z</time></trkpt><trkpt lat="45.8595356" lon="11.6899972"><ele>1189.6666666666667</ele><time>2026-04-09T13:27:09.449Z</time></trkpt><trkpt lat="45.8596139" lon="11.6899375"><ele>1190.0</ele><time>2026-04-09T13:27:10.438Z</time></trkpt><trkpt lat="45.8596888" lon="11.6898556"><ele>1190.0</ele><time>2026-04-09T13:27:11.435Z</time></trkpt><trkpt lat="45.8597592" lon="11.6897793"><ele>1190.0</ele><time>2026-04-09T13:27:12.428Z</time></trkpt><trkpt lat="45.8598286" lon="11.6897058"><ele>1190.0</ele><time>2026-04-09T13:27:13.432Z</time></trkpt><trkpt lat="45.8598962" lon="11.689631"><ele>1190.0</ele><time>2026-04-09T13:27:14.438Z</time></trkpt><trkpt lat="45.859965" lon="11.6895574"><ele>1190.0</ele><time>2026-04-09T13:27:15.431Z</time></trkpt><trkpt lat="45.8600158" lon="11.6894595"><ele>1190.0</ele><time>2026-04-09T13:27:16.428Z</time></trkpt><trkpt lat="45.8600626" lon="11.6893612"><ele>1191.5</ele><time>2026-04-09T13:27:17.431Z</time></trkpt><trkpt lat="45.8600974" lon="11.6892503"><ele>1193.0</ele><time>2026-04-09T13:27:18.444Z</time></trkpt><trkpt lat="45.8601222" lon="11.6891442"><ele>1194.5</ele><time>2026-04-09T13:27:19.431Z</time></trkpt><trkpt lat="45.8601441" lon="11.6890362"><ele>1196.0</ele><time>2026-04-09T13:27:20.426Z</time></trkpt><trkpt lat="45.8601478" lon="11.6889202"><ele>1197.5</ele><time>2026-04-09T13:27:21.445Z</time></trkpt><trkpt lat="45.8601443" lon="11.6888004"><ele>1199.0</ele><time>2026-04-09T13:27:22.432Z</time></trkpt><trkpt lat="45.8601338" lon="11.6886789"><ele>1194.6666666666667</ele><time>2026-04-09T13:27:23.441Z</time></trkpt><trkpt lat="45.86012" lon="11.688562"><ele>1190.3333333333335</ele><time>2026-04-09T13:27:24.425Z</time></trkpt><trkpt lat="45.8601058" lon="11.6884622"><ele>1186.0</ele><time>2026-04-09T13:27:25.439Z</time></trkpt><trkpt lat="45.8600971" lon="11.6883079"><ele>1181.6666666666667</ele><time>2026-04-09T13:27:27.435Z</time></trkpt><trkpt lat="45.8601395" lon="11.6882224"><ele>1177.3333333333333</ele><time>2026-04-09T13:27:29.438Z</time></trkpt><trkpt lat="45.860239" lon="11.6882038"><ele>1173.0</ele><time>2026-04-09T13:27:31.447Z</time></trkpt><trkpt lat="45.8603641" lon="11.6882133"><ele>1173.0</ele><time>2026-04-09T13:27:33.44Z</time></trkpt><trkpt lat="45.8604707" lon="11.6882171"><ele>1173.0</ele><time>2026-04-09T13:27:35.441Z</time></trkpt><trkpt lat="45.8605882" lon="11.6882164"><ele>1173.0</ele><time>2026-04-09T13:27:37.43Z</time></trkpt><trkpt lat="45.8606928" lon="11.688234"><ele>1173.0</ele><time>2026-04-09T13:27:39.444Z</time></trkpt><trkpt lat="45.8607732" lon="11.6882461"><ele>1173.0</ele><time>2026-04-09T13:27:41.43Z</time></trkpt><trkpt lat="45.8608604" lon="11.6882532"><ele>1173.0</ele><time>2026-04-09T13:28:16.435Z</time></trkpt><trkpt lat="45.8609331" lon="11.6882725"><ele>1173.0</ele><time>2026-04-09T13:28:50.429Z</time></trkpt><trkpt lat="45.8610659" lon="11.6882811"><ele>1173.0</ele><time>2026-04-09T13:28:52.444Z</time></trkpt><trkpt lat="45.86115" lon="11.6882883"><ele>1173.0</ele><time>2026-04-09T13:28:53.426Z</time></trkpt><trkpt lat="45.861236" lon="11.688288"><ele>1173.0</ele><time>2026-04-09T13:28:54.438Z</time></trkpt><trkpt lat="45.8613237" lon="11.688274"><ele>1172.7142857142858</ele><time>2026-04-09T13:28:55.429Z</time></trkpt><trkpt lat="45.8614044" lon="11.6882576"><ele>1172.4285714285716</ele><time>2026-04-09T13:28:56.425Z</time></trkpt><trkpt lat="45.8614865" lon="11.6882413"><ele>1172.142857142857</ele><time>2026-04-09T13:28:57.43Z</time></trkpt><trkpt lat="45.8615566" lon="11.6882257"><ele>1171.857142857143</ele><time>2026-04-09T13:28:58.431Z</time></trkpt><trkpt lat="45.8616261" lon="11.6881998"><ele>1171.5714285714284</ele><time>2026-04-09T13:28:59.426Z</time></trkpt><trkpt lat="45.8616915" lon="11.6881717"><ele>1171.2857142857142</ele><time>2026-04-09T13:29:00.433Z</time></trkpt><trkpt lat="45.8617545" lon="11.6881548"><ele>1171.0</ele><time>2026-04-09T13:29:01.427Z</time></trkpt><trkpt lat="45.8618548" lon="11.6881725"><ele>1171.0</ele><time>2026-04-09T13:29:03.454Z</time></trkpt><trkpt lat="45.8619212" lon="11.6882505"><ele>1171.0</ele><time>2026-04-09T13:29:05.446Z</time></trkpt><trkpt lat="45.8619512" lon="11.6883671"><ele>1171.0</ele><time>2026-04-09T13:29:07.434Z</time></trkpt><trkpt lat="45.8619806" lon="11.6882822"><ele>1171.0</ele><time>2026-04-09T13:29:18.434Z</time></trkpt><trkpt lat="45.8619956" lon="11.6881364"><ele>1171.0</ele><time>2026-04-09T13:29:20.444Z</time></trkpt><trkpt lat="45.8620085" lon="11.6880045"><ele>1171.0</ele><time>2026-04-09T13:29:22.433Z</time></trkpt><trkpt lat="45.8620316" lon="11.6878992"><ele>1171.0</ele><time>2026-04-09T13:29:24.434Z</time></trkpt><trkpt lat="45.8620673" lon="11.6877812"><ele>1171.0</ele><time>2026-04-09T13:29:26.433Z</time></trkpt><trkpt lat="45.8620855" lon="11.6876596"><ele>1171.0</ele><time>2026-04-09T13:29:28.429Z</time></trkpt><trkpt lat="45.8621109" lon="11.6875685"><ele>1171.0</ele><time>2026-04-09T13:29:30.427Z</time></trkpt><trkpt lat="45.8621689" lon="11.6875089"><ele>1171.0</ele><time>2026-04-09T13:29:32.431Z</time></trkpt><trkpt lat="45.8622536" lon="11.6874694"><ele>1171.0</ele><time>2026-04-09T13:29:34.439Z</time></trkpt><trkpt lat="45.8623585" lon="11.6874477"><ele>1169.1666666666665</ele><time>2026-04-09T13:29:36.448Z</time></trkpt><trkpt lat="45.8624572" lon="11.6874469"><ele>1167.3333333333333</ele><time>2026-04-09T13:29:38.426Z</time></trkpt><trkpt lat="45.8625425" lon="11.6874692"><ele>1165.5</ele><time>2026-04-09T13:29:40.431Z</time></trkpt><trkpt lat="45.8626222" lon="11.6875153"><ele>1163.6666666666667</ele><time>2026-04-09T13:29:42.444Z</time></trkpt><trkpt lat="45.8626873" lon="11.6875789"><ele>1161.8333333333335</ele><time>2026-04-09T13:29:44.44Z</time></trkpt><trkpt lat="45.8627365" lon="11.6876578"><ele>1160.0</ele><time>2026-04-09T13:29:46.455Z</time></trkpt><trkpt lat="45.8627619" lon="11.6877441"><ele>1158.0</ele><time>2026-04-09T13:29:48.446Z</time></trkpt><trkpt lat="45.8627791" lon="11.6878395"><ele>1156.0</ele><time>2026-04-09T13:29:50.43Z</time></trkpt><trkpt lat="45.8628051" lon="11.687929"><ele>1154.0</ele><time>2026-04-09T13:29:52.428Z</time></trkpt><trkpt lat="45.862885" lon="11.6879723"><ele>1152.0</ele><time>2026-04-09T13:29:55.47Z</time></trkpt><trkpt lat="45.8629535" lon="11.6879121"><ele>1150.0</ele><time>2026-04-09T13:29:58.444Z</time></trkpt><trkpt lat="45.8629875" lon="11.6878259"><ele>1148.0</ele><time>2026-04-09T13:30:00.443Z</time></trkpt><trkpt lat="45.8630234" lon="11.6877372"><ele>1146.0</ele><time>2026-04-09T13:30:02.441Z</time></trkpt><trkpt lat="45.8630696" lon="11.6876342"><ele>1146.0</ele><time>2026-04-09T13:30:04.435Z</time></trkpt><trkpt lat="45.8631123" lon="11.6875284"><ele>1146.0</ele><time>2026-04-09T13:30:06.431Z</time></trkpt><trkpt lat="45.8631519" lon="11.6874251"><ele>1146.0</ele><time>2026-04-09T13:30:08.439Z</time></trkpt><trkpt lat="45.8631996" lon="11.6873228"><ele>1146.0</ele><time>2026-04-09T13:30:10.426Z</time></trkpt><trkpt lat="45.8632439" lon="11.6872222"><ele>1146.0</ele><time>2026-04-09T13:30:12.432Z</time></trkpt><trkpt lat="45.8632834" lon="11.6871412"><ele>1146.0</ele><time>2026-04-09T13:30:14.43Z</time></trkpt><trkpt lat="45.8633219" lon="11.687057"><ele>1146.0</ele><time>2026-04-09T13:30:16.441Z</time></trkpt><trkpt lat="45.8633655" lon="11.6869909"><ele>1146.0</ele><time>2026-04-09T13:30:18.429Z</time></trkpt><trkpt lat="45.8634259" lon="11.6869354"><ele>1146.0</ele><time>2026-04-09T13:30:20.44Z</time></trkpt><trkpt lat="45.8635078" lon="11.6869005"><ele>1146.0</ele><time>2026-04-09T13:30:23.436Z</time></trkpt><trkpt lat="45.8635666" lon="11.6869722"><ele>1146.0</ele><time>2026-04-09T13:30:26.432Z</time></trkpt><trkpt lat="45.8635771" lon="11.6870879"><ele>1146.0</ele><time>2026-04-09T13:30:29.443Z</time></trkpt><trkpt lat="45.8635722" lon="11.6872357"><ele>1140.0</ele><time>2026-04-09T13:30:32.454Z</time></trkpt><trkpt lat="45.8635693" lon="11.6873598"><ele>1134.0</ele><time>2026-04-09T13:30:34.439Z</time></trkpt><trkpt lat="45.8635725" lon="11.6874941"><ele>1128.0</ele><time>2026-04-09T13:30:36.442Z</time></trkpt><trkpt lat="45.8635848" lon="11.6876258"><ele>1122.0</ele><time>2026-04-09T13:30:38.435Z</time></trkpt><trkpt lat="45.8636049" lon="11.687768"><ele>1116.0</ele><time>2026-04-09T13:30:40.432Z</time></trkpt><trkpt lat="45.8636181" lon="11.6879122"><ele>1115.0</ele><time>2026-04-09T13:30:42.438Z</time></trkpt><trkpt lat="45.8636171" lon="11.6880566"><ele>1114.0</ele><time>2026-04-09T13:30:44.433Z</time></trkpt><trkpt lat="45.863615" lon="11.688173"><ele>1113.0</ele><time>2026-04-09T13:30:46.445Z</time></trkpt><trkpt lat="45.8636099" lon="11.6882633"><ele>1112.0</ele><time>2026-04-09T13:30:48.431Z</time></trkpt><trkpt lat="45.8636305" lon="11.6883714"><ele>1111.0</ele><time>2026-04-09T13:30:50.433Z</time></trkpt><trkpt lat="45.8636929" lon="11.6884375"><ele>1110.0</ele><time>2026-04-09T13:30:52.428Z</time></trkpt><trkpt lat="45.863794" lon="11.6885294"><ele>1112.0</ele><time>2026-04-09T13:30:54.431Z</time></trkpt><trkpt lat="45.8638937" lon="11.6886318"><ele>1114.0</ele><time>2026-04-09T13:30:56.435Z</time></trkpt><trkpt lat="45.8639458" lon="11.6886878"><ele>1116.0</ele><time>2026-04-09T13:30:57.432Z</time></trkpt><trkpt lat="45.8640079" lon="11.6887504"><ele>1118.0</ele><time>2026-04-09T13:30:58.427Z</time></trkpt><trkpt lat="45.8640619" lon="11.6888224"><ele>1120.0</ele><time>2026-04-09T13:30:59.423Z</time></trkpt><trkpt lat="45.8641121" lon="11.6889064"><ele>1122.0</ele><time>2026-04-09T13:31:00.428Z</time></trkpt><trkpt lat="45.8641494" lon="11.6890131"><ele>1122.0</ele><time>2026-04-09T13:31:01.435Z</time></trkpt><trkpt lat="45.8641686" lon="11.6891284"><ele>1122.0</ele><time>2026-04-09T13:31:02.426Z</time></trkpt><trkpt lat="45.864189" lon="11.6892424"><ele>1122.0</ele><time>2026-04-09T13:31:03.429Z</time></trkpt><trkpt lat="45.8642153" lon="11.6893533"><ele>1122.0</ele><time>2026-04-09T13:31:04.427Z</time></trkpt><trkpt lat="45.8642371" lon="11.6894556"><ele>1122.0</ele><time>2026-04-09T13:31:05.433Z</time></trkpt><trkpt lat="45.8642595" lon="11.6895795"><ele>1122.0</ele><time>2026-04-09T13:31:07.439Z</time></trkpt><trkpt lat="45.8642511" lon="11.6896705"><ele>1122.4</ele><time>2026-04-09T13:31:09.44Z</time></trkpt><trkpt lat="45.864195" lon="11.6897384"><ele>1122.8000000000002</ele><time>2026-04-09T13:31:11.434Z</time></trkpt><trkpt lat="45.8641111" lon="11.6898114"><ele>1123.2</ele><time>2026-04-09T13:31:13.433Z</time></trkpt><trkpt lat="45.8640441" lon="11.6899058"><ele>1123.6000000000001</ele><time>2026-04-09T13:31:15.433Z</time></trkpt><trkpt lat="45.8640363" lon="11.6900471"><ele>1124.0</ele><time>2026-04-09T13:31:17.422Z</time></trkpt><trkpt lat="45.8640757" lon="11.6901652"><ele>1124.0</ele><time>2026-04-09T13:31:19.428Z</time></trkpt><trkpt lat="45.8641274" lon="11.6902199"><ele>1124.0</ele><time>2026-04-09T13:31:20.429Z</time></trkpt><trkpt lat="45.8641834" lon="11.6902716"><ele>1124.0</ele><time>2026-04-09T13:31:21.428Z</time></trkpt><trkpt lat="45.8642705" lon="11.6903144"><ele>1124.0</ele><time>2026-04-09T13:31:22.422Z</time></trkpt><trkpt lat="45.8643674" lon="11.690373"><ele>1124.0</ele><time>2026-04-09T13:31:23.433Z</time></trkpt><trkpt lat="45.8644594" lon="11.6904348"><ele>1124.0</ele><time>2026-04-09T13:31:24.427Z</time></trkpt><trkpt lat="45.8645365" lon="11.6904973"><ele>1123.6666666666667</ele><time>2026-04-09T13:31:25.437Z</time></trkpt><trkpt lat="45.8646153" lon="11.6905503"><ele>1123.3333333333335</ele><time>2026-04-09T13:31:26.424Z</time></trkpt><trkpt lat="45.8647011" lon="11.6906139"><ele>1123.0</ele><time>2026-04-09T13:31:27.434Z</time></trkpt><trkpt lat="45.8647801" lon="11.6906768"><ele>1122.6666666666667</ele><time>2026-04-09T13:31:28.44Z</time></trkpt><trkpt lat="45.864848" lon="11.69074"><ele>1122.3333333333333</ele><time>2026-04-09T13:31:29.425Z</time></trkpt><trkpt lat="45.8649096" lon="11.6908064"><ele>1122.0</ele><time>2026-04-09T13:31:30.428Z</time></trkpt><trkpt lat="45.8649725" lon="11.6908699"><ele>1122.0</ele><time>2026-04-09T13:31:31.433Z</time></trkpt><trkpt lat="45.8650493" lon="11.6909768"><ele>1122.0</ele><time>2026-04-09T13:31:33.434Z</time></trkpt><trkpt lat="45.8651083" lon="11.6911334"><ele>1122.0</ele><time>2026-04-09T13:31:35.432Z</time></trkpt><trkpt lat="45.8651151" lon="11.6912355"><ele>1122.0</ele><time>2026-04-09T13:31:36.428Z</time></trkpt><trkpt lat="45.8651184" lon="11.6913529"><ele>1122.0</ele><time>2026-04-09T13:31:37.445Z</time></trkpt><trkpt lat="45.8651261" lon="11.6914745"><ele>1122.6666666666667</ele><time>2026-04-09T13:31:38.43Z</time></trkpt><trkpt lat="45.865123" lon="11.6915923"><ele>1123.3333333333333</ele><time>2026-04-09T13:31:39.431Z</time></trkpt><trkpt lat="45.865117" lon="11.6917146"><ele>1124.0</ele><time>2026-04-09T13:31:40.435Z</time></trkpt><trkpt lat="45.8651143" lon="11.6918085"><ele>1124.6666666666665</ele><time>2026-04-09T13:31:41.43Z</time></trkpt><trkpt lat="45.8650882" lon="11.6919642"><ele>1125.3333333333333</ele><time>2026-04-09T13:31:43.429Z</time></trkpt><trkpt lat="45.8650321" lon="11.6920833"><ele>1126.0</ele><time>2026-04-09T13:31:45.436Z</time></trkpt><trkpt lat="45.8649823" lon="11.692148"><ele>1126.0</ele><time>2026-04-09T13:31:46.427Z</time></trkpt><trkpt lat="45.8649331" lon="11.6922209"><ele>1126.0</ele><time>2026-04-09T13:31:47.432Z</time></trkpt><trkpt lat="45.8649077" lon="11.692315"><ele>1126.0</ele><time>2026-04-09T13:31:48.429Z</time></trkpt><trkpt lat="45.8648988" lon="11.6924313"><ele>1126.0</ele><time>2026-04-09T13:31:49.425Z</time></trkpt><trkpt lat="45.8649006" lon="11.6925547"><ele>1126.0</ele><time>2026-04-09T13:31:50.425Z</time></trkpt><trkpt lat="45.8649016" lon="11.6926864"><ele>1126.0</ele><time>2026-04-09T13:31:51.431Z</time></trkpt><trkpt lat="45.8648806" lon="11.6928112"><ele>1123.3333333333333</ele><time>2026-04-09T13:31:52.43Z</time></trkpt><trkpt lat="45.8648591" lon="11.692939"><ele>1120.6666666666665</ele><time>2026-04-09T13:31:53.422Z</time></trkpt><trkpt lat="45.8648566" lon="11.6930689"><ele>1118.0</ele><time>2026-04-09T13:31:54.428Z</time></trkpt><trkpt lat="45.8648484" lon="11.6931881"><ele>1115.3333333333333</ele><time>2026-04-09T13:31:55.425Z</time></trkpt><trkpt lat="45.8648426" lon="11.6932838"><ele>1112.6666666666667</ele><time>2026-04-09T13:31:56.423Z</time></trkpt><trkpt lat="45.8648203" lon="11.6933778"><ele>1110.0</ele><time>2026-04-09T13:31:57.428Z</time></trkpt><trkpt lat="45.8647912" lon="11.6934732"><ele>1110.0</ele><time>2026-04-09T13:31:58.429Z</time></trkpt><trkpt lat="45.8647613" lon="11.6935659"><ele>1110.0</ele><time>2026-04-09T13:31:59.426Z</time></trkpt><trkpt lat="45.8647263" lon="11.6936474"><ele>1110.0</ele><time>2026-04-09T13:32:00.437Z</time></trkpt><trkpt lat="45.8646883" lon="11.6937214"><ele>1110.0</ele><time>2026-04-09T13:32:01.428Z</time></trkpt><trkpt lat="45.8646502" lon="11.6938024"><ele>1110.0</ele><time>2026-04-09T13:32:02.428Z</time></trkpt><trkpt lat="45.8646441" lon="11.6939627"><ele>1110.0</ele><time>2026-04-09T13:32:04.433Z</time></trkpt><trkpt lat="45.8647227" lon="11.6940751"><ele>1109.0</ele><time>2026-04-09T13:32:06.425Z</time></trkpt><trkpt lat="45.8647803" lon="11.6941207"><ele>1108.0</ele><time>2026-04-09T13:32:07.425Z</time></trkpt><trkpt lat="45.8648484" lon="11.694183"><ele>1107.0</ele><time>2026-04-09T13:32:08.43Z</time></trkpt><trkpt lat="45.8649256" lon="11.6942659"><ele>1106.0</ele><time>2026-04-09T13:32:09.435Z</time></trkpt><trkpt lat="45.8649961" lon="11.6943522"><ele>1105.0</ele><time>2026-04-09T13:32:10.427Z</time></trkpt><trkpt lat="45.8650717" lon="11.6944423"><ele>1104.0</ele><time>2026-04-09T13:32:11.428Z</time></trkpt><trkpt lat="45.8651338" lon="11.6945368"><ele>1104.0</ele><time>2026-04-09T13:32:12.422Z</time></trkpt><trkpt lat="45.865177" lon="11.6946165"><ele>1104.0</ele><time>2026-04-09T13:32:13.437Z</time></trkpt><trkpt lat="45.865224" lon="11.6947069"><ele>1104.0</ele><time>2026-04-09T13:32:14.434Z</time></trkpt><trkpt lat="45.8652697" lon="11.6947959"><ele>1104.0</ele><time>2026-04-09T13:32:15.423Z</time></trkpt><trkpt lat="45.8653034" lon="11.6948973"><ele>1104.0</ele><time>2026-04-09T13:32:16.432Z</time></trkpt><trkpt lat="45.8653272" lon="11.695008"><ele>1104.0</ele><time>2026-04-09T13:32:17.431Z</time></trkpt><trkpt lat="45.8653393" lon="11.6951238"><ele>1104.0</ele><time>2026-04-09T13:32:18.432Z</time></trkpt><trkpt lat="45.8653472" lon="11.6952395"><ele>1104.0</ele><time>2026-04-09T13:32:19.424Z</time></trkpt><trkpt lat="45.8653484" lon="11.6953688"><ele>1104.0</ele><time>2026-04-09T13:32:20.425Z</time></trkpt><trkpt lat="45.8653452" lon="11.695498"><ele>1104.0</ele><time>2026-04-09T13:32:21.424Z</time></trkpt><trkpt lat="45.8653453" lon="11.6956291"><ele>1104.0</ele><time>2026-04-09T13:32:22.423Z</time></trkpt><trkpt lat="45.8653414" lon="11.6957719"><ele>1103.3333333333333</ele><time>2026-04-09T13:32:23.431Z</time></trkpt><trkpt lat="45.8653372" lon="11.6958957"><ele>1102.6666666666667</ele><time>2026-04-09T13:32:24.433Z</time></trkpt><trkpt lat="45.8653321" lon="11.6960104"><ele>1102.0</ele><time>2026-04-09T13:32:25.428Z</time></trkpt><trkpt lat="45.8653201" lon="11.6961244"><ele>1101.3333333333335</ele><time>2026-04-09T13:32:26.429Z</time></trkpt><trkpt lat="45.8652929" lon="11.6962499"><ele>1100.6666666666667</ele><time>2026-04-09T13:32:27.436Z</time></trkpt><trkpt lat="45.8652564" lon="11.6963687"><ele>1100.0</ele><time>2026-04-09T13:32:28.424Z</time></trkpt><trkpt lat="45.8652164" lon="11.6965029"><ele>1098.8</ele><time>2026-04-09T13:32:29.443Z</time></trkpt><trkpt lat="45.8651722" lon="11.6966487"><ele>1097.6</ele><time>2026-04-09T13:32:30.429Z</time></trkpt><trkpt lat="45.8651314" lon="11.6967905"><ele>1096.4</ele><time>2026-04-09T13:32:31.428Z</time></trkpt><trkpt lat="45.8650908" lon="11.6969194"><ele>1095.2</ele><time>2026-04-09T13:32:32.43Z</time></trkpt><trkpt lat="45.8650318" lon="11.6970356"><ele>1094.0</ele><time>2026-04-09T13:32:33.424Z</time></trkpt><trkpt lat="45.8649779" lon="11.6971338"><ele>1096.5</ele><time>2026-04-09T13:32:34.427Z</time></trkpt><trkpt lat="45.8649212" lon="11.6972224"><ele>1099.0</ele><time>2026-04-09T13:32:35.427Z</time></trkpt><trkpt lat="45.8648594" lon="11.6972942"><ele>1101.5</ele><time>2026-04-09T13:32:36.422Z</time></trkpt><trkpt lat="45.8647976" lon="11.6973663"><ele>1104.0</ele><time>2026-04-09T13:32:37.418Z</time></trkpt><trkpt lat="45.8647365" lon="11.6974273"><ele>1106.5</ele><time>2026-04-09T13:32:38.431Z</time></trkpt><trkpt lat="45.8646765" lon="11.6974905"><ele>1109.0</ele><time>2026-04-09T13:32:39.432Z</time></trkpt><trkpt lat="45.8646366" lon="11.6975924"><ele>1109.0</ele><time>2026-04-09T13:32:40.423Z</time></trkpt><trkpt lat="45.8645984" lon="11.6976854"><ele>1109.0</ele><time>2026-04-09T13:32:41.433Z</time></trkpt><trkpt lat="45.8645904" lon="11.697789"><ele>1109.0</ele><time>2026-04-09T13:32:42.425Z</time></trkpt><trkpt lat="45.8645799" lon="11.6979422"><ele>1109.0</ele><time>2026-04-09T13:32:44.427Z</time></trkpt><trkpt lat="45.8644925" lon="11.6980409"><ele>1109.0</ele><time>2026-04-09T13:32:46.431Z</time></trkpt><trkpt lat="45.8644313" lon="11.6980657"><ele>1109.0</ele><time>2026-04-09T13:32:47.43Z</time></trkpt><trkpt lat="45.8643666" lon="11.6980919"><ele>1107.4</ele><time>2026-04-09T13:32:48.426Z</time></trkpt><trkpt lat="45.8642615" lon="11.6981488"><ele>1105.8000000000002</ele><time>2026-04-09T13:32:50.422Z</time></trkpt><trkpt lat="45.8642027" lon="11.6982562"><ele>1104.1999999999998</ele><time>2026-04-09T13:32:52.432Z</time></trkpt><trkpt lat="45.8641955" lon="11.69839"><ele>1102.6</ele><time>2026-04-09T13:32:54.435Z</time></trkpt><trkpt lat="45.8642205" lon="11.6985095"><ele>1101.0</ele><time>2026-04-09T13:32:56.433Z</time></trkpt><trkpt lat="45.8643244" lon="11.698564"><ele>1101.5</ele><time>2026-04-09T13:32:58.428Z</time></trkpt><trkpt lat="45.8643962" lon="11.6985964"><ele>1102.0</ele><time>2026-04-09T13:32:59.428Z</time></trkpt><trkpt lat="45.8644688" lon="11.6986297"><ele>1102.5</ele><time>2026-04-09T13:33:00.425Z</time></trkpt><trkpt lat="45.8645407" lon="11.6986679"><ele>1103.0</ele><time>2026-04-09T13:33:01.427Z</time></trkpt><trkpt lat="45.86461" lon="11.6987064"><ele>1103.5</ele><time>2026-04-09T13:33:02.428Z</time></trkpt><trkpt lat="45.8646785" lon="11.6987604"><ele>1104.0</ele><time>2026-04-09T13:33:03.437Z</time></trkpt><trkpt lat="45.8647458" lon="11.6988252"><ele>1104.0</ele><time>2026-04-09T13:33:04.427Z</time></trkpt><trkpt lat="45.8647794" lon="11.6989204"><ele>1104.0</ele><time>2026-04-09T13:33:05.426Z</time></trkpt><trkpt lat="45.8648147" lon="11.6990107"><ele>1104.0</ele><time>2026-04-09T13:33:06.434Z</time></trkpt><trkpt lat="45.8648426" lon="11.6991096"><ele>1104.0</ele><time>2026-04-09T13:33:07.429Z</time></trkpt><trkpt lat="45.8648708" lon="11.6992022"><ele>1104.0</ele><time>2026-04-09T13:33:08.426Z</time></trkpt><trkpt lat="45.8649034" lon="11.6992898"><ele>1104.0</ele><time>2026-04-09T13:33:09.427Z</time></trkpt><trkpt lat="45.8649332" lon="11.6993734"><ele>1104.0</ele><time>2026-04-09T13:33:10.439Z</time></trkpt><trkpt lat="45.8649947" lon="11.6995051"><ele>1106.0</ele><time>2026-04-09T13:33:12.429Z</time></trkpt><trkpt lat="45.8650558" lon="11.6996339"><ele>1108.0</ele><time>2026-04-09T13:33:14.43Z</time></trkpt><trkpt lat="45.8650974" lon="11.6997892"><ele>1110.0</ele><time>2026-04-09T13:33:16.432Z</time></trkpt><trkpt lat="45.8651249" lon="11.6999697"><ele>1112.0</ele><time>2026-04-09T13:33:18.436Z</time></trkpt><trkpt lat="45.8651541" lon="11.7000589"><ele>1114.0</ele><time>2026-04-09T13:33:19.429Z</time></trkpt><trkpt lat="45.8651952" lon="11.7001326"><ele>1114.0</ele><time>2026-04-09T13:33:20.429Z</time></trkpt><trkpt lat="45.8652938" lon="11.7002345"><ele>1114.0</ele><time>2026-04-09T13:33:22.424Z</time></trkpt><trkpt lat="45.8654105" lon="11.7002391"><ele>1114.0</ele><time>2026-04-09T13:33:24.429Z</time></trkpt><trkpt lat="45.8654796" lon="11.7001988"><ele>1114.0</ele><time>2026-04-09T13:33:25.423Z</time></trkpt><trkpt lat="45.865543" lon="11.7001612"><ele>1114.0</ele><time>2026-04-09T13:33:26.431Z</time></trkpt><trkpt lat="45.8656066" lon="11.700133"><ele>1114.0</ele><time>2026-04-09T13:33:27.432Z</time></trkpt><trkpt lat="45.8656742" lon="11.7001115"><ele>1114.0</ele><time>2026-04-09T13:33:28.424Z</time></trkpt><trkpt lat="45.8657442" lon="11.7000919"><ele>1114.0</ele><time>2026-04-09T13:33:29.441Z</time></trkpt><trkpt lat="45.8658234" lon="11.7000739"><ele>1114.0</ele><time>2026-04-09T13:33:30.433Z</time></trkpt><trkpt lat="45.8659068" lon="11.7000641"><ele>1114.0</ele><time>2026-04-09T13:33:31.432Z</time></trkpt><trkpt lat="45.8659905" lon="11.7000688"><ele>1114.0</ele><time>2026-04-09T13:33:32.444Z</time></trkpt><trkpt lat="45.8660814" lon="11.7000667"><ele>1114.0</ele><time>2026-04-09T13:33:33.433Z</time></trkpt><trkpt lat="45.8661744" lon="11.7000628"><ele>1116.6000000000001</ele><time>2026-04-09T13:33:34.429Z</time></trkpt><trkpt lat="45.8662691" lon="11.7000494"><ele>1119.2</ele><time>2026-04-09T13:33:35.434Z</time></trkpt><trkpt lat="45.8663661" lon="11.7000337"><ele>1121.8000000000002</ele><time>2026-04-09T13:33:36.435Z</time></trkpt><trkpt lat="45.8664641" lon="11.700019"><ele>1124.4</ele><time>2026-04-09T13:33:37.427Z</time></trkpt><trkpt lat="45.8665721" lon="11.6999963"><ele>1127.0</ele><time>2026-04-09T13:33:38.428Z</time></trkpt><trkpt lat="45.8666816" lon="11.699954"><ele>1127.0</ele><time>2026-04-09T13:33:39.436Z</time></trkpt><trkpt lat="45.8667769" lon="11.6998891"><ele>1127.0</ele><time>2026-04-09T13:33:40.433Z</time></trkpt><trkpt lat="45.866872" lon="11.6998324"><ele>1127.0</ele><time>2026-04-09T13:33:41.422Z</time></trkpt><trkpt lat="45.8669632" lon="11.6997782"><ele>1127.0</ele><time>2026-04-09T13:33:42.434Z</time></trkpt><trkpt lat="45.867046" lon="11.6997258"><ele>1127.0</ele><time>2026-04-09T13:33:43.427Z</time></trkpt><trkpt lat="45.8671227" lon="11.6996834"><ele>1128.1666666666667</ele><time>2026-04-09T13:33:44.423Z</time></trkpt><trkpt lat="45.8671942" lon="11.6996573"><ele>1129.3333333333335</ele><time>2026-04-09T13:33:45.435Z</time></trkpt><trkpt lat="45.8672643" lon="11.6996564"><ele>1130.5</ele><time>2026-04-09T13:33:46.434Z</time></trkpt><trkpt lat="45.8673442" lon="11.6996866"><ele>1131.6666666666667</ele><time>2026-04-09T13:33:47.43Z</time></trkpt><trkpt lat="45.8674167" lon="11.6997374"><ele>1132.8333333333333</ele><time>2026-04-09T13:33:48.432Z</time></trkpt><trkpt lat="45.8674953" lon="11.6998184"><ele>1134.0</ele><time>2026-04-09T13:33:49.433Z</time></trkpt><trkpt lat="45.8675719" lon="11.6999108"><ele>1134.8333333333333</ele><time>2026-04-09T13:33:50.436Z</time></trkpt><trkpt lat="45.8676455" lon="11.6999987"><ele>1135.6666666666667</ele><time>2026-04-09T13:33:51.43Z</time></trkpt><trkpt lat="45.8677108" lon="11.7000771"><ele>1136.5</ele><time>2026-04-09T13:33:52.422Z</time></trkpt><trkpt lat="45.8677747" lon="11.7001423"><ele>1137.3333333333335</ele><time>2026-04-09T13:33:53.429Z</time></trkpt><trkpt lat="45.8678304" lon="11.7002146"><ele>1138.1666666666667</ele><time>2026-04-09T13:33:54.434Z</time></trkpt><trkpt lat="45.8678804" lon="11.7002944"><ele>1139.0</ele><time>2026-04-09T13:33:55.427Z</time></trkpt><trkpt lat="45.8679144" lon="11.7003817"><ele>1139.0</ele><time>2026-04-09T13:33:56.432Z</time></trkpt><trkpt lat="45.8679309" lon="11.7004698"><ele>1139.0</ele><time>2026-04-09T13:33:57.432Z</time></trkpt><trkpt lat="45.867938" lon="11.7005636"><ele>1139.0</ele><time>2026-04-09T13:33:58.424Z</time></trkpt><trkpt lat="45.8679496" lon="11.7006535"><ele>1139.0</ele><time>2026-04-09T13:33:59.428Z</time></trkpt><trkpt lat="45.8679783" lon="11.7007935"><ele>1139.0</ele><time>2026-04-09T13:34:01.426Z</time></trkpt><trkpt lat="45.8680825" lon="11.7008938"><ele>1139.0</ele><time>2026-04-09T13:34:03.448Z</time></trkpt><trkpt lat="45.8681554" lon="11.7009209"><ele>1139.0</ele><time>2026-04-09T13:34:04.429Z</time></trkpt><trkpt lat="45.8682423" lon="11.7009597"><ele>1139.0</ele><time>2026-04-09T13:34:05.431Z</time></trkpt><trkpt lat="45.8683159" lon="11.7009999"><ele>1139.0</ele><time>2026-04-09T13:34:06.427Z</time></trkpt><trkpt lat="45.8683834" lon="11.7010532"><ele>1139.0</ele><time>2026-04-09T13:34:07.426Z</time></trkpt><trkpt lat="45.8684419" lon="11.7011248"><ele>1139.0</ele><time>2026-04-09T13:34:08.427Z</time></trkpt><trkpt lat="45.8684937" lon="11.7012048"><ele>1139.0</ele><time>2026-04-09T13:34:09.43Z</time></trkpt><trkpt lat="45.8685521" lon="11.7012814"><ele>1144.5</ele><time>2026-04-09T13:34:10.436Z</time></trkpt><trkpt lat="45.8686114" lon="11.7013553"><ele>1150.0</ele><time>2026-04-09T13:34:11.431Z</time></trkpt><trkpt lat="45.8686721" lon="11.7014205"><ele>1155.5</ele><time>2026-04-09T13:34:12.422Z</time></trkpt><trkpt lat="45.8687305" lon="11.701455"><ele>1161.0</ele><time>2026-04-09T13:34:13.427Z</time></trkpt><trkpt lat="45.8688612" lon="11.7014042"><ele>1166.5</ele><time>2026-04-09T13:34:15.427Z</time></trkpt><trkpt lat="45.8689347" lon="11.7013506"><ele>1172.0</ele><time>2026-04-09T13:34:16.429Z</time></trkpt><trkpt lat="45.869011" lon="11.7013012"><ele>1172.0</ele><time>2026-04-09T13:34:17.448Z</time></trkpt><trkpt lat="45.8690872" lon="11.7012489"><ele>1172.0</ele><time>2026-04-09T13:34:18.427Z</time></trkpt><trkpt lat="45.869159" lon="11.70119"><ele>1172.0</ele><time>2026-04-09T13:34:19.434Z</time></trkpt><trkpt lat="45.8692267" lon="11.7011277"><ele>1172.0</ele><time>2026-04-09T13:34:20.432Z</time></trkpt><trkpt lat="45.8692872" lon="11.7010536"><ele>1172.0</ele><time>2026-04-09T13:34:21.455Z</time></trkpt><trkpt lat="45.8693413" lon="11.7009647"><ele>1172.0</ele><time>2026-04-09T13:34:22.429Z</time></trkpt><trkpt lat="45.8693885" lon="11.7008819"><ele>1174.6</ele><time>2026-04-09T13:34:23.425Z</time></trkpt><trkpt lat="45.8694612" lon="11.7007547"><ele>1177.2</ele><time>2026-04-09T13:34:25.431Z</time></trkpt><trkpt lat="45.8695214" lon="11.7006281"><ele>1179.8</ele><time>2026-04-09T13:34:27.426Z</time></trkpt><trkpt lat="45.8695824" lon="11.7004936"><ele>1182.4</ele><time>2026-04-09T13:34:29.434Z</time></trkpt><trkpt lat="45.8695537" lon="11.7003903"><ele>1185.0</ele><time>2026-04-09T13:34:51.43Z</time></trkpt><trkpt lat="45.8695522" lon="11.7005027"><ele>1185.0</ele><time>2026-04-09T13:34:57.432Z</time></trkpt><trkpt lat="45.8695221" lon="11.700594"><ele>1185.0</ele><time>2026-04-09T13:34:58.436Z</time></trkpt><trkpt lat="45.8694849" lon="11.7007051"><ele>1185.0</ele><time>2026-04-09T13:34:59.444Z</time></trkpt><trkpt lat="45.8694445" lon="11.7008127"><ele>1185.0</ele><time>2026-04-09T13:35:00.424Z</time></trkpt><trkpt lat="45.8693965" lon="11.7009064"><ele>1185.0</ele><time>2026-04-09T13:35:01.429Z</time></trkpt><trkpt lat="45.869349" lon="11.700977"><ele>1185.0</ele><time>2026-04-09T13:35:02.425Z</time></trkpt><trkpt lat="45.8692953" lon="11.7010545"><ele>1182.8333333333333</ele><time>2026-04-09T13:35:03.429Z</time></trkpt><trkpt lat="45.8692432" lon="11.7011236"><ele>1180.6666666666667</ele><time>2026-04-09T13:35:04.433Z</time></trkpt><trkpt lat="45.869184" lon="11.7011839"><ele>1178.5</ele><time>2026-04-09T13:35:05.445Z</time></trkpt><trkpt lat="45.8691029" lon="11.7012495"><ele>1176.3333333333335</ele><time>2026-04-09T13:35:06.428Z</time></trkpt><trkpt lat="45.8690296" lon="11.7013085"><ele>1174.1666666666667</ele><time>2026-04-09T13:35:07.432Z</time></trkpt><trkpt lat="45.8689655" lon="11.7013538"><ele>1172.0</ele><time>2026-04-09T13:35:08.42Z</time></trkpt><trkpt lat="45.8689054" lon="11.7014015"><ele>1172.0</ele><time>2026-04-09T13:35:09.439Z</time></trkpt><trkpt lat="45.8688024" lon="11.7014507"><ele>1172.0</ele><time>2026-04-09T13:35:11.422Z</time></trkpt><trkpt lat="45.8687031" lon="11.7014322"><ele>1172.0</ele><time>2026-04-09T13:35:13.437Z</time></trkpt><trkpt lat="45.8686157" lon="11.7013422"><ele>1172.0</ele><time>2026-04-09T13:35:15.437Z</time></trkpt><trkpt lat="45.8685478" lon="11.701272"><ele>1172.0</ele><time>2026-04-09T13:35:17.432Z</time></trkpt><trkpt lat="45.8685123" lon="11.7011947"><ele>1172.0</ele><time>2026-04-09T13:35:55.437Z</time></trkpt><trkpt lat="45.8685787" lon="11.7011738"><ele>1172.0</ele><time>2026-04-09T13:35:59.423Z</time></trkpt><trkpt lat="45.8686508" lon="11.7012253"><ele>1172.0</ele><time>2026-04-09T13:36:01.434Z</time></trkpt><trkpt lat="45.8687637" lon="11.7012263"><ele>1172.0</ele><time>2026-04-09T13:36:03.422Z</time></trkpt><trkpt lat="45.868835" lon="11.7011816"><ele>1172.0</ele><time>2026-04-09T13:36:04.418Z</time></trkpt><trkpt lat="45.8689036" lon="11.701116"><ele>1172.0</ele><time>2026-04-09T13:36:05.43Z</time></trkpt><trkpt lat="45.8689716" lon="11.7010419"><ele>1167.4</ele><time>2026-04-09T13:36:06.419Z</time></trkpt><trkpt lat="45.8690366" lon="11.7009615"><ele>1162.8000000000002</ele><time>2026-04-09T13:36:07.423Z</time></trkpt><trkpt lat="45.8690979" lon="11.7008711"><ele>1158.2</ele><time>2026-04-09T13:36:08.43Z</time></trkpt><trkpt lat="45.869139" lon="11.700755"><ele>1153.6000000000001</ele><time>2026-04-09T13:36:09.431Z</time></trkpt><trkpt lat="45.8691708" lon="11.7006216"><ele>1149.0</ele><time>2026-04-09T13:36:10.423Z</time></trkpt><trkpt lat="45.8691993" lon="11.700491"><ele>1149.0</ele><time>2026-04-09T13:36:11.429Z</time></trkpt><trkpt lat="45.8692196" lon="11.7003664"><ele>1149.0</ele><time>2026-04-09T13:36:12.43Z</time></trkpt><trkpt lat="45.8692404" lon="11.7002449"><ele>1149.0</ele><time>2026-04-09T13:36:13.423Z</time></trkpt><trkpt lat="45.8692534" lon="11.7001368"><ele>1149.0</ele><time>2026-04-09T13:36:14.434Z</time></trkpt><trkpt lat="45.8692672" lon="11.7000227"><ele>1149.0</ele><time>2026-04-09T13:36:15.428Z</time></trkpt><trkpt lat="45.8692869" lon="11.6998952"><ele>1149.0</ele><time>2026-04-09T13:36:16.443Z</time></trkpt><trkpt lat="45.8693214" lon="11.6997634"><ele>1149.0</ele><time>2026-04-09T13:36:17.434Z</time></trkpt><trkpt lat="45.8693707" lon="11.6996412"><ele>1149.0</ele><time>2026-04-09T13:36:18.431Z</time></trkpt><trkpt lat="45.8694299" lon="11.6995213"><ele>1149.0</ele><time>2026-04-09T13:36:19.423Z</time></trkpt><trkpt lat="45.86949" lon="11.6994047"><ele>1149.0</ele><time>2026-04-09T13:36:20.441Z</time></trkpt><trkpt lat="45.8695439" lon="11.6992862"><ele>1149.0</ele><time>2026-04-09T13:36:21.438Z</time></trkpt><trkpt lat="45.8695895" lon="11.699155"><ele>1149.0</ele><time>2026-04-09T13:36:22.425Z</time></trkpt><trkpt lat="45.8696173" lon="11.6990232"><ele>1149.0</ele><time>2026-04-09T13:36:23.435Z</time></trkpt><trkpt lat="45.869639" lon="11.6989144"><ele>1149.0</ele><time>2026-04-09T13:36:24.426Z</time></trkpt><trkpt lat="45.8696714" lon="11.6988129"><ele>1149.0</ele><time>2026-04-09T13:36:25.423Z</time></trkpt><trkpt lat="45.8697023" lon="11.6987314"><ele>1149.0</ele><time>2026-04-09T13:36:26.427Z</time></trkpt><trkpt lat="45.8697607" lon="11.6986569"><ele>1149.0</ele><time>2026-04-09T13:36:27.434Z</time></trkpt><trkpt lat="45.8698256" lon="11.6985887"><ele>1145.8</ele><time>2026-04-09T13:36:28.419Z</time></trkpt><trkpt lat="45.8698953" lon="11.6985269"><ele>1142.6000000000001</ele><time>2026-04-09T13:36:29.422Z</time></trkpt><trkpt lat="45.8699802" lon="11.6984633"><ele>1139.4</ele><time>2026-04-09T13:36:30.435Z</time></trkpt><trkpt lat="45.8700719" lon="11.698413"><ele>1136.2</ele><time>2026-04-09T13:36:31.439Z</time></trkpt><trkpt lat="45.8701684" lon="11.6983637"><ele>1133.0</ele><time>2026-04-09T13:36:32.425Z</time></trkpt><trkpt lat="45.8702657" lon="11.6983018"><ele>1133.0</ele><time>2026-04-09T13:36:33.431Z</time></trkpt><trkpt lat="45.8703632" lon="11.6982423"><ele>1133.0</ele><time>2026-04-09T13:36:34.434Z</time></trkpt><trkpt lat="45.8704483" lon="11.6981768"><ele>1133.0</ele><time>2026-04-09T13:36:35.423Z</time></trkpt><trkpt lat="45.870526" lon="11.6981327"><ele>1133.0</ele><time>2026-04-09T13:36:36.428Z</time></trkpt><trkpt lat="45.8705994" lon="11.6981083"><ele>1133.0</ele><time>2026-04-09T13:36:37.43Z</time></trkpt><trkpt lat="45.8706701" lon="11.6980924"><ele>1133.0</ele><time>2026-04-09T13:36:38.434Z</time></trkpt><trkpt lat="45.8707319" lon="11.6981323"><ele>1133.0</ele><time>2026-04-09T13:36:39.422Z</time></trkpt><trkpt lat="45.8707974" lon="11.6981773"><ele>1133.0</ele><time>2026-04-09T13:36:40.433Z</time></trkpt><trkpt lat="45.8708603" lon="11.6982588"><ele>1133.0</ele><time>2026-04-09T13:36:41.427Z</time></trkpt><trkpt lat="45.8709338" lon="11.6983262"><ele>1133.0</ele><time>2026-04-09T13:36:42.427Z</time></trkpt><trkpt lat="45.8710202" lon="11.6983782"><ele>1133.0</ele><time>2026-04-09T13:36:43.423Z</time></trkpt><trkpt lat="45.8711068" lon="11.6984318"><ele>1133.0</ele><time>2026-04-09T13:36:44.433Z</time></trkpt><trkpt lat="45.8712012" lon="11.6984663"><ele>1131.4</ele><time>2026-04-09T13:36:45.421Z</time></trkpt><trkpt lat="45.8713008" lon="11.6984836"><ele>1129.8</ele><time>2026-04-09T13:36:46.425Z</time></trkpt><trkpt lat="45.8714006" lon="11.6984992"><ele>1128.2</ele><time>2026-04-09T13:36:47.423Z</time></trkpt><trkpt lat="45.871503" lon="11.6985035"><ele>1126.6</ele><time>2026-04-09T13:36:48.427Z</time></trkpt><trkpt lat="45.8715982" lon="11.698498"><ele>1125.0</ele><time>2026-04-09T13:36:49.433Z</time></trkpt><trkpt lat="45.8716757" lon="11.6984993"><ele>1125.0</ele><time>2026-04-09T13:36:50.434Z</time></trkpt><trkpt lat="45.8717479" lon="11.6985011"><ele>1125.0</ele><time>2026-04-09T13:36:51.434Z</time></trkpt><trkpt lat="45.87183" lon="11.6985142"><ele>1125.0</ele><time>2026-04-09T13:36:52.43Z</time></trkpt><trkpt lat="45.8719038" lon="11.6985553"><ele>1125.0</ele><time>2026-04-09T13:36:53.439Z</time></trkpt><trkpt lat="45.8719795" lon="11.6985883"><ele>1125.0</ele><time>2026-04-09T13:36:54.434Z</time></trkpt><trkpt lat="45.8720604" lon="11.6986425"><ele>1125.0</ele><time>2026-04-09T13:36:55.435Z</time></trkpt><trkpt lat="45.8721336" lon="11.6987003"><ele>1128.1666666666667</ele><time>2026-04-09T13:36:56.429Z</time></trkpt><trkpt lat="45.8722084" lon="11.6987574"><ele>1131.3333333333333</ele><time>2026-04-09T13:36:57.431Z</time></trkpt><trkpt lat="45.8722789" lon="11.6988193"><ele>1134.5</ele><time>2026-04-09T13:36:58.463Z</time></trkpt><trkpt lat="45.8723517" lon="11.6988762"><ele>1137.6666666666665</ele><time>2026-04-09T13:36:59.431Z</time></trkpt><trkpt lat="45.8724177" lon="11.6989332"><ele>1140.8333333333333</ele><time>2026-04-09T13:37:00.425Z</time></trkpt><trkpt lat="45.8724728" lon="11.6989798"><ele>1144.0</ele><time>2026-04-09T13:37:01.423Z</time></trkpt><trkpt lat="45.872582" lon="11.6989569"><ele>1141.8</ele><time>2026-04-09T13:37:03.426Z</time></trkpt><trkpt lat="45.8726295" lon="11.6988203"><ele>1139.6000000000001</ele><time>2026-04-09T13:37:05.438Z</time></trkpt><trkpt lat="45.872632" lon="11.6986306"><ele>1137.4</ele><time>2026-04-09T13:37:07.43Z</time></trkpt><trkpt lat="45.8726166" lon="11.6985158"><ele>1135.2</ele><time>2026-04-09T13:37:08.427Z</time></trkpt><trkpt lat="45.872611" lon="11.698425"><ele>1133.0</ele><time>2026-04-09T13:37:09.426Z</time></trkpt><trkpt lat="45.8726081" lon="11.6983003"><ele>1133.0</ele><time>2026-04-09T13:37:11.428Z</time></trkpt><trkpt lat="45.872658" lon="11.6982171"><ele>1133.0</ele><time>2026-04-09T13:37:13.438Z</time></trkpt><trkpt lat="45.8727284" lon="11.698176"><ele>1133.0</ele><time>2026-04-09T13:37:15.423Z</time></trkpt><trkpt lat="45.8728019" lon="11.6981642"><ele>1133.0</ele><time>2026-04-09T13:37:17.429Z</time></trkpt><trkpt lat="45.8728769" lon="11.6981534"><ele>1133.0</ele><time>2026-04-09T13:37:19.43Z</time></trkpt><trkpt lat="45.8729844" lon="11.6981542"><ele>1133.0</ele><time>2026-04-09T13:37:21.431Z</time></trkpt><trkpt lat="45.8730568" lon="11.6981556"><ele>1133.0</ele><time>2026-04-09T13:37:22.423Z</time></trkpt><trkpt lat="45.8731227" lon="11.6981608"><ele>1133.0</ele><time>2026-04-09T13:37:23.428Z</time></trkpt><trkpt lat="45.8732236" lon="11.6981682"><ele>1133.0</ele><time>2026-04-09T13:37:25.429Z</time></trkpt><trkpt lat="45.8733099" lon="11.6981556"><ele>1133.0</ele><time>2026-04-09T13:37:27.447Z</time></trkpt><trkpt lat="45.8734232" lon="11.6980908"><ele>1133.0</ele><time>2026-04-09T13:37:29.425Z</time></trkpt><trkpt lat="45.8735121" lon="11.6980536"><ele>1133.0</ele><time>2026-04-09T13:37:31.427Z</time></trkpt><trkpt lat="45.8736128" lon="11.6980499"><ele>1133.0</ele><time>2026-04-09T13:37:33.44Z</time></trkpt><trkpt lat="45.8737319" lon="11.6980762"><ele>1133.0</ele><time>2026-04-09T13:37:35.433Z</time></trkpt><trkpt lat="45.8738694" lon="11.6980699"><ele>1133.0</ele><time>2026-04-09T13:37:37.427Z</time></trkpt><trkpt lat="45.8739362" lon="11.6980481"><ele>1133.0</ele><time>2026-04-09T13:37:38.425Z</time></trkpt><trkpt lat="45.8740034" lon="11.6980283"><ele>1133.0</ele><time>2026-04-09T13:37:39.426Z</time></trkpt><trkpt lat="45.8741214" lon="11.6980001"><ele>1133.0</ele><time>2026-04-09T13:37:41.429Z</time></trkpt><trkpt lat="45.8742449" lon="11.6980175"><ele>1133.0</ele><time>2026-04-09T13:37:43.431Z</time></trkpt><trkpt lat="45.8743075" lon="11.6980465"><ele>1133.0</ele><time>2026-04-09T13:37:44.437Z</time></trkpt><trkpt lat="45.8743763" lon="11.6980811"><ele>1133.0</ele><time>2026-04-09T13:37:45.432Z</time></trkpt><trkpt lat="45.874448" lon="11.6981225"><ele>1131.5</ele><time>2026-04-09T13:37:46.424Z</time></trkpt><trkpt lat="45.8745251" lon="11.6981601"><ele>1130.0</ele><time>2026-04-09T13:37:47.429Z</time></trkpt><trkpt lat="45.874611" lon="11.6981992"><ele>1128.5</ele><time>2026-04-09T13:37:48.426Z</time></trkpt><trkpt lat="45.8746894" lon="11.6982366"><ele>1127.0</ele><time>2026-04-09T13:37:49.426Z</time></trkpt><trkpt lat="45.8747697" lon="11.6982644"><ele>1125.5</ele><time>2026-04-09T13:37:50.427Z</time></trkpt><trkpt lat="45.8748458" lon="11.6982813"><ele>1124.0</ele><time>2026-04-09T13:37:51.43Z</time></trkpt><trkpt lat="45.8749226" lon="11.6983064"><ele>1124.0</ele><time>2026-04-09T13:37:52.43Z</time></trkpt><trkpt lat="45.8749988" lon="11.6983323"><ele>1124.0</ele><time>2026-04-09T13:37:53.425Z</time></trkpt><trkpt lat="45.8750805" lon="11.6983501"><ele>1124.0</ele><time>2026-04-09T13:37:54.432Z</time></trkpt><trkpt lat="45.8751752" lon="11.6983481"><ele>1124.0</ele><time>2026-04-09T13:37:55.43Z</time></trkpt><trkpt lat="45.8752672" lon="11.6983202"><ele>1124.0</ele><time>2026-04-09T13:37:56.427Z</time></trkpt><trkpt lat="45.8753539" lon="11.6982877"><ele>1124.0</ele><time>2026-04-09T13:37:57.424Z</time></trkpt><trkpt lat="45.8754422" lon="11.6982561"><ele>1121.0</ele><time>2026-04-09T13:37:58.428Z</time></trkpt><trkpt lat="45.8755315" lon="11.6982291"><ele>1118.0</ele><time>2026-04-09T13:37:59.423Z</time></trkpt><trkpt lat="45.8756072" lon="11.6982043"><ele>1115.0</ele><time>2026-04-09T13:38:00.433Z</time></trkpt><trkpt lat="45.8756781" lon="11.6981772"><ele>1112.0</ele><time>2026-04-09T13:38:01.435Z</time></trkpt><trkpt lat="45.8757916" lon="11.6981478"><ele>1109.0</ele><time>2026-04-09T13:38:03.424Z</time></trkpt><trkpt lat="45.8758823" lon="11.6981803"><ele>1109.0</ele><time>2026-04-09T13:38:05.431Z</time></trkpt><trkpt lat="45.8759535" lon="11.6982849"><ele>1109.0</ele><time>2026-04-09T13:38:07.423Z</time></trkpt><trkpt lat="45.8759892" lon="11.6983642"><ele>1109.0</ele><time>2026-04-09T13:38:08.436Z</time></trkpt><trkpt lat="45.8760243" lon="11.6984707"><ele>1109.0</ele><time>2026-04-09T13:38:09.436Z</time></trkpt><trkpt lat="45.8760611" lon="11.6985797"><ele>1109.0</ele><time>2026-04-09T13:38:10.424Z</time></trkpt><trkpt lat="45.8761028" lon="11.6986918"><ele>1109.0</ele><time>2026-04-09T13:38:11.422Z</time></trkpt><trkpt lat="45.8761338" lon="11.698796"><ele>1109.0</ele><time>2026-04-09T13:38:12.433Z</time></trkpt><trkpt lat="45.8761694" lon="11.6989061"><ele>1109.0</ele><time>2026-04-09T13:38:13.422Z</time></trkpt><trkpt lat="45.8762148" lon="11.6989986"><ele>1109.0</ele><time>2026-04-09T13:38:14.43Z</time></trkpt><trkpt lat="45.8762815" lon="11.6990969"><ele>1109.0</ele><time>2026-04-09T13:38:15.446Z</time></trkpt><trkpt lat="45.8763581" lon="11.6991806"><ele>1109.0</ele><time>2026-04-09T13:38:16.428Z</time></trkpt><trkpt lat="45.876416" lon="11.6992548"><ele>1109.0</ele><time>2026-04-09T13:38:17.421Z</time></trkpt><trkpt lat="45.8764718" lon="11.6993132"><ele>1108.9999999999998</ele><time>2026-04-09T13:38:18.424Z</time></trkpt><trkpt lat="45.8765361" lon="11.6993763"><ele>1109.0</ele><time>2026-04-09T13:38:19.427Z</time></trkpt><trkpt lat="45.8765994" lon="11.6994191"><ele>1109.0</ele><time>2026-04-09T13:38:20.422Z</time></trkpt><trkpt lat="45.8766782" lon="11.6994349"><ele>1109.0</ele><time>2026-04-09T13:38:21.432Z</time></trkpt><trkpt lat="45.876748" lon="11.6994506"><ele>1109.0</ele><time>2026-04-09T13:38:22.427Z</time></trkpt><trkpt lat="45.8768253" lon="11.6994597"><ele>1108.9999999999998</ele><time>2026-04-09T13:38:23.422Z</time></trkpt><trkpt lat="45.8768922" lon="11.6994591"><ele>1109.0</ele><time>2026-04-09T13:38:24.427Z</time></trkpt><trkpt lat="45.8769691" lon="11.6994017"><ele>1109.0</ele><time>2026-04-09T13:38:25.434Z</time></trkpt><trkpt lat="45.8770517" lon="11.6993243"><ele>1109.0</ele><time>2026-04-09T13:38:26.422Z</time></trkpt><trkpt lat="45.8771311" lon="11.6992452"><ele>1109.0</ele><time>2026-04-09T13:38:27.425Z</time></trkpt><trkpt lat="45.877214" lon="11.6991888"><ele>1109.0</ele><time>2026-04-09T13:38:28.426Z</time></trkpt><trkpt lat="45.8772911" lon="11.699149"><ele>1109.0</ele><time>2026-04-09T13:38:29.426Z</time></trkpt><trkpt lat="45.877362" lon="11.6991337"><ele>1109.0</ele><time>2026-04-09T13:38:30.43Z</time></trkpt><trkpt lat="45.8774406" lon="11.6991069"><ele>1109.0</ele><time>2026-04-09T13:38:31.428Z</time></trkpt><trkpt lat="45.8775033" lon="11.6990424"><ele>1109.0</ele><time>2026-04-09T13:38:32.425Z</time></trkpt><trkpt lat="45.8775485" lon="11.6989519"><ele>1109.0</ele><time>2026-04-09T13:38:33.423Z</time></trkpt><trkpt lat="45.8775714" lon="11.6988378"><ele>1109.0</ele><time>2026-04-09T13:38:34.428Z</time></trkpt><trkpt lat="45.8775953" lon="11.6987006"><ele>1109.0</ele><time>2026-04-09T13:38:35.422Z</time></trkpt><trkpt lat="45.8776128" lon="11.6985923"><ele>1109.0</ele><time>2026-04-09T13:38:36.435Z</time></trkpt><trkpt lat="45.8776405" lon="11.6984983"><ele>1106.8333333333335</ele><time>2026-04-09T13:38:37.429Z</time></trkpt><trkpt lat="45.8776947" lon="11.6984305"><ele>1104.6666666666667</ele><time>2026-04-09T13:38:38.422Z</time></trkpt><trkpt lat="45.87777" lon="11.6983698"><ele>1102.5</ele><time>2026-04-09T13:38:39.428Z</time></trkpt><trkpt lat="45.8778577" lon="11.6983186"><ele>1100.3333333333333</ele><time>2026-04-09T13:38:40.426Z</time></trkpt><trkpt lat="45.8779496" lon="11.6982636"><ele>1098.1666666666665</ele><time>2026-04-09T13:38:41.425Z</time></trkpt><trkpt lat="45.8780378" lon="11.6982117"><ele>1096.0</ele><time>2026-04-09T13:38:42.432Z</time></trkpt><trkpt lat="45.8781091" lon="11.6981647"><ele>1096.0</ele><time>2026-04-09T13:38:43.44Z</time></trkpt><trkpt lat="45.8781739" lon="11.698129"><ele>1096.0</ele><time>2026-04-09T13:38:44.426Z</time></trkpt><trkpt lat="45.8782352" lon="11.6981083"><ele>1096.0</ele><time>2026-04-09T13:38:45.431Z</time></trkpt><trkpt lat="45.8783518" lon="11.6981003"><ele>1096.0</ele><time>2026-04-09T13:38:47.435Z</time></trkpt><trkpt lat="45.8784234" lon="11.6981203"><ele>1096.0</ele><time>2026-04-09T13:38:48.421Z</time></trkpt><trkpt lat="45.878487" lon="11.6981436"><ele>1096.0</ele><time>2026-04-09T13:38:49.42Z</time></trkpt><trkpt lat="45.878587" lon="11.6982007"><ele>1098.8</ele><time>2026-04-09T13:38:51.438Z</time></trkpt><trkpt lat="45.8786413" lon="11.6982521"><ele>1101.6</ele><time>2026-04-09T13:38:52.423Z</time></trkpt><trkpt lat="45.8787374" lon="11.6983986"><ele>1104.4</ele><time>2026-04-09T13:38:54.434Z</time></trkpt><trkpt lat="45.8787948" lon="11.6984756"><ele>1107.2</ele><time>2026-04-09T13:38:55.428Z</time></trkpt><trkpt lat="45.8788724" lon="11.6985561"><ele>1110.0</ele><time>2026-04-09T13:38:56.423Z</time></trkpt><trkpt lat="45.8789605" lon="11.6986344"><ele>1110.0</ele><time>2026-04-09T13:38:57.426Z</time></trkpt><trkpt lat="45.8790487" lon="11.6986994"><ele>1110.0</ele><time>2026-04-09T13:38:58.436Z</time></trkpt><trkpt lat="45.8791304" lon="11.6987529"><ele>1110.0</ele><time>2026-04-09T13:38:59.428Z</time></trkpt><trkpt lat="45.879208" lon="11.6987955"><ele>1110.0</ele><time>2026-04-09T13:39:00.423Z</time></trkpt><trkpt lat="45.8792792" lon="11.6988425"><ele>1110.0</ele><time>2026-04-09T13:39:01.432Z</time></trkpt><trkpt lat="45.879367" lon="11.6988743"><ele>1110.0</ele><time>2026-04-09T13:39:02.431Z</time></trkpt><trkpt lat="45.8794646" lon="11.6988969"><ele>1106.8</ele><time>2026-04-09T13:39:03.421Z</time></trkpt><trkpt lat="45.8795732" lon="11.6988864"><ele>1103.6</ele><time>2026-04-09T13:39:04.429Z</time></trkpt><trkpt lat="45.8796823" lon="11.6988824"><ele>1100.4</ele><time>2026-04-09T13:39:05.431Z</time></trkpt><trkpt lat="45.8797905" lon="11.6988584"><ele>1097.2</ele><time>2026-04-09T13:39:06.429Z</time></trkpt><trkpt lat="45.8798941" lon="11.6988373"><ele>1094.0</ele><time>2026-04-09T13:39:07.428Z</time></trkpt><trkpt lat="45.8799877" lon="11.6988248"><ele>1094.0</ele><time>2026-04-09T13:39:08.431Z</time></trkpt><trkpt lat="45.8800766" lon="11.6988077"><ele>1094.0</ele><time>2026-04-09T13:39:09.424Z</time></trkpt><trkpt lat="45.8801651" lon="11.698776"><ele>1094.0</ele><time>2026-04-09T13:39:10.419Z</time></trkpt><trkpt lat="45.8802575" lon="11.6987382"><ele>1094.0</ele><time>2026-04-09T13:39:11.431Z</time></trkpt><trkpt lat="45.8803362" lon="11.6987047"><ele>1094.0</ele><time>2026-04-09T13:39:12.432Z</time></trkpt><trkpt lat="45.8804002" lon="11.6986847"><ele>1094.0</ele><time>2026-04-09T13:39:13.425Z</time></trkpt><trkpt lat="45.8804645" lon="11.6986835"><ele>1088.6000000000001</ele><time>2026-04-09T13:39:14.431Z</time></trkpt><trkpt lat="45.8805731" lon="11.6987038"><ele>1083.2</ele><time>2026-04-09T13:39:16.431Z</time></trkpt><trkpt lat="45.8806534" lon="11.6988055"><ele>1077.8000000000002</ele><time>2026-04-09T13:39:18.448Z</time></trkpt><trkpt lat="45.8807009" lon="11.6989607"><ele>1072.4</ele><time>2026-04-09T13:39:20.435Z</time></trkpt><trkpt lat="45.8807104" lon="11.6990536"><ele>1067.0</ele><time>2026-04-09T13:39:21.446Z</time></trkpt><trkpt lat="45.8807202" lon="11.6991561"><ele>1067.0</ele><time>2026-04-09T13:39:22.439Z</time></trkpt><trkpt lat="45.8807218" lon="11.6992665"><ele>1067.0</ele><time>2026-04-09T13:39:23.449Z</time></trkpt><trkpt lat="45.8807243" lon="11.699379"><ele>1067.0</ele><time>2026-04-09T13:39:24.427Z</time></trkpt><trkpt lat="45.8807261" lon="11.6994936"><ele>1067.0</ele><time>2026-04-09T13:39:25.436Z</time></trkpt><trkpt lat="45.8807179" lon="11.6996137"><ele>1067.0</ele><time>2026-04-09T13:39:26.432Z</time></trkpt><trkpt lat="45.8807042" lon="11.6997248"><ele>1067.0</ele><time>2026-04-09T13:39:27.419Z</time></trkpt><trkpt lat="45.8806904" lon="11.6998337"><ele>1067.1666666666667</ele><time>2026-04-09T13:39:28.429Z</time></trkpt><trkpt lat="45.880675" lon="11.6999412"><ele>1067.3333333333335</ele><time>2026-04-09T13:39:29.428Z</time></trkpt><trkpt lat="45.8806595" lon="11.7000485"><ele>1067.5</ele><time>2026-04-09T13:39:30.43Z</time></trkpt><trkpt lat="45.880647" lon="11.7001506"><ele>1067.6666666666667</ele><time>2026-04-09T13:39:31.426Z</time></trkpt><trkpt lat="45.8806357" lon="11.7002577"><ele>1067.8333333333333</ele><time>2026-04-09T13:39:32.443Z</time></trkpt><trkpt lat="45.8806263" lon="11.7003759"><ele>1068.0</ele><time>2026-04-09T13:39:33.434Z</time></trkpt><trkpt lat="45.8806177" lon="11.7004811"><ele>1066.6666666666667</ele><time>2026-04-09T13:39:34.422Z</time></trkpt><trkpt lat="45.8806176" lon="11.7005839"><ele>1065.3333333333333</ele><time>2026-04-09T13:39:35.43Z</time></trkpt><trkpt lat="45.8806321" lon="11.7006861"><ele>1064.0</ele><time>2026-04-09T13:39:36.432Z</time></trkpt><trkpt lat="45.8806439" lon="11.7007886"><ele>1062.6666666666665</ele><time>2026-04-09T13:39:37.422Z</time></trkpt><trkpt lat="45.8806446" lon="11.7009029"><ele>1061.3333333333333</ele><time>2026-04-09T13:39:38.431Z</time></trkpt><trkpt lat="45.8806366" lon="11.7010222"><ele>1060.0</ele><time>2026-04-09T13:39:39.431Z</time></trkpt><trkpt lat="45.8806271" lon="11.7011387"><ele>1058.6666666666665</ele><time>2026-04-09T13:39:40.419Z</time></trkpt><trkpt lat="45.8806077" lon="11.701252"><ele>1057.3333333333333</ele><time>2026-04-09T13:39:41.432Z</time></trkpt><trkpt lat="45.880579" lon="11.7013524"><ele>1056.0</ele><time>2026-04-09T13:39:42.43Z</time></trkpt><trkpt lat="45.880542" lon="11.7014565"><ele>1054.6666666666667</ele><time>2026-04-09T13:39:43.421Z</time></trkpt><trkpt lat="45.8804863" lon="11.7015593"><ele>1053.3333333333335</ele><time>2026-04-09T13:39:44.432Z</time></trkpt><trkpt lat="45.8804438" lon="11.7016391"><ele>1052.0</ele><time>2026-04-09T13:39:45.428Z</time></trkpt><trkpt lat="45.8804007" lon="11.7017175"><ele>1052.0</ele><time>2026-04-09T13:39:46.425Z</time></trkpt><trkpt lat="45.8803523" lon="11.701803"><ele>1052.0</ele><time>2026-04-09T13:39:47.432Z</time></trkpt><trkpt lat="45.8802795" lon="11.7018891"><ele>1052.0</ele><time>2026-04-09T13:39:48.428Z</time></trkpt><trkpt lat="45.8802177" lon="11.7019676"><ele>1052.0</ele><time>2026-04-09T13:39:49.427Z</time></trkpt><trkpt lat="45.880159" lon="11.7020367"><ele>1052.0</ele><time>2026-04-09T13:39:50.436Z</time></trkpt><trkpt lat="45.880075" lon="11.7021192"><ele>1052.0</ele><time>2026-04-09T13:39:51.436Z</time></trkpt><trkpt lat="45.8799932" lon="11.7022002"><ele>1055.0</ele><time>2026-04-09T13:39:52.426Z</time></trkpt><trkpt lat="45.879902" lon="11.7022823"><ele>1058.0</ele><time>2026-04-09T13:39:53.43Z</time></trkpt><trkpt lat="45.8798008" lon="11.7023582"><ele>1061.0</ele><time>2026-04-09T13:39:54.427Z</time></trkpt><trkpt lat="45.8797008" lon="11.7024418"><ele>1064.0</ele><time>2026-04-09T13:39:55.427Z</time></trkpt><trkpt lat="45.8796082" lon="11.7025293"><ele>1067.0</ele><time>2026-04-09T13:39:56.431Z</time></trkpt><trkpt lat="45.8795325" lon="11.7026068"><ele>1067.0</ele><time>2026-04-09T13:39:57.431Z</time></trkpt><trkpt lat="45.879473" lon="11.7026733"><ele>1067.0</ele><time>2026-04-09T13:39:58.423Z</time></trkpt><trkpt lat="45.8793984" lon="11.7028007"><ele>1067.0</ele><time>2026-04-09T13:40:00.43Z</time></trkpt><trkpt lat="45.8794204" lon="11.7029294"><ele>1067.0</ele><time>2026-04-09T13:40:02.433Z</time></trkpt><trkpt lat="45.8795068" lon="11.7030186"><ele>1067.0</ele><time>2026-04-09T13:40:04.432Z</time></trkpt><trkpt lat="45.879579" lon="11.703045"><ele>1069.25</ele><time>2026-04-09T13:40:05.436Z</time></trkpt><trkpt lat="45.879689" lon="11.7030668"><ele>1071.5</ele><time>2026-04-09T13:40:06.426Z</time></trkpt><trkpt lat="45.8798015" lon="11.7030438"><ele>1073.75</ele><time>2026-04-09T13:40:07.421Z</time></trkpt><trkpt lat="45.879922" lon="11.703031"><ele>1076.0</ele><time>2026-04-09T13:40:08.433Z</time></trkpt><trkpt lat="45.8800302" lon="11.7030157"><ele>1077.8</ele><time>2026-04-09T13:40:09.427Z</time></trkpt><trkpt lat="45.8801394" lon="11.7029995"><ele>1079.6</ele><time>2026-04-09T13:40:10.422Z</time></trkpt><trkpt lat="45.8802442" lon="11.7029684"><ele>1081.4</ele><time>2026-04-09T13:40:11.435Z</time></trkpt><trkpt lat="45.880336" lon="11.7029414"><ele>1083.2</ele><time>2026-04-09T13:40:12.433Z</time></trkpt><trkpt lat="45.8804122" lon="11.7029208"><ele>1085.0</ele><time>2026-04-09T13:40:13.429Z</time></trkpt><trkpt lat="45.8804928" lon="11.7029105"><ele>1085.0</ele><time>2026-04-09T13:40:14.427Z</time></trkpt><trkpt lat="45.8805791" lon="11.7028957"><ele>1085.0</ele><time>2026-04-09T13:40:15.423Z</time></trkpt><trkpt lat="45.8806819" lon="11.7028752"><ele>1085.0</ele><time>2026-04-09T13:40:16.429Z</time></trkpt><trkpt lat="45.8807923" lon="11.7028419"><ele>1085.0</ele><time>2026-04-09T13:40:17.426Z</time></trkpt><trkpt lat="45.8808977" lon="11.7028085"><ele>1085.0</ele><time>2026-04-09T13:40:18.429Z</time></trkpt><trkpt lat="45.8810075" lon="11.7027765"><ele>1085.6</ele><time>2026-04-09T13:40:19.441Z</time></trkpt><trkpt lat="45.8811038" lon="11.7027537"><ele>1086.2</ele><time>2026-04-09T13:40:20.43Z</time></trkpt><trkpt lat="45.8811923" lon="11.7027405"><ele>1086.8</ele><time>2026-04-09T13:40:21.426Z</time></trkpt><trkpt lat="45.8812865" lon="11.7027399"><ele>1087.4</ele><time>2026-04-09T13:40:22.428Z</time></trkpt><trkpt lat="45.8813796" lon="11.7027498"><ele>1088.0</ele><time>2026-04-09T13:40:23.432Z</time></trkpt><trkpt lat="45.8814791" lon="11.7027582"><ele>1088.0</ele><time>2026-04-09T13:40:24.432Z</time></trkpt><trkpt lat="45.8815605" lon="11.7027806"><ele>1088.0</ele><time>2026-04-09T13:40:25.434Z</time></trkpt><trkpt lat="45.8816374" lon="11.7028159"><ele>1088.0</ele><time>2026-04-09T13:40:26.43Z</time></trkpt><trkpt lat="45.8817114" lon="11.7028328"><ele>1088.0</ele><time>2026-04-09T13:40:27.427Z</time></trkpt><trkpt lat="45.8817806" lon="11.7028437"><ele>1088.0</ele><time>2026-04-09T13:40:28.434Z</time></trkpt><trkpt lat="45.8818526" lon="11.702812"><ele>1088.0</ele><time>2026-04-09T13:40:29.43Z</time></trkpt><trkpt lat="45.8819075" lon="11.7027516"><ele>1081.75</ele><time>2026-04-09T13:40:30.437Z</time></trkpt><trkpt lat="45.8819998" lon="11.7026609"><ele>1075.5</ele><time>2026-04-09T13:40:32.436Z</time></trkpt><trkpt lat="45.88211" lon="11.7026424"><ele>1069.25</ele><time>2026-04-09T13:40:34.438Z</time></trkpt><trkpt lat="45.8822158" lon="11.7026007"><ele>1063.0</ele><time>2026-04-09T13:40:36.438Z</time></trkpt><trkpt lat="45.8822902" lon="11.7024689"><ele>1063.0</ele><time>2026-04-09T13:40:38.425Z</time></trkpt><trkpt lat="45.8823545" lon="11.7023533"><ele>1063.0</ele><time>2026-04-09T13:40:40.428Z</time></trkpt><trkpt lat="45.8824454" lon="11.7022725"><ele>1063.0</ele><time>2026-04-09T13:40:42.443Z</time></trkpt><trkpt lat="45.8825165" lon="11.7022311"><ele>1063.0</ele><time>2026-04-09T13:40:43.428Z</time></trkpt><trkpt lat="45.882598" lon="11.7021922"><ele>1063.0</ele><time>2026-04-09T13:40:44.433Z</time></trkpt><trkpt lat="45.8826857" lon="11.7021639"><ele>1064.4</ele><time>2026-04-09T13:40:45.426Z</time></trkpt><trkpt lat="45.8827708" lon="11.702146"><ele>1065.8</ele><time>2026-04-09T13:40:46.427Z</time></trkpt><trkpt lat="45.8828612" lon="11.7021255"><ele>1067.2</ele><time>2026-04-09T13:40:47.434Z</time></trkpt><trkpt lat="45.8829513" lon="11.7021094"><ele>1068.6</ele><time>2026-04-09T13:40:48.432Z</time></trkpt><trkpt lat="45.8830444" lon="11.7021045"><ele>1070.0</ele><time>2026-04-09T13:40:49.429Z</time></trkpt><trkpt lat="45.8831488" lon="11.7020832"><ele>1070.0</ele><time>2026-04-09T13:40:50.434Z</time></trkpt><trkpt lat="45.8832493" lon="11.7020601"><ele>1070.0</ele><time>2026-04-09T13:40:51.426Z</time></trkpt><trkpt lat="45.88335" lon="11.7020272"><ele>1070.0</ele><time>2026-04-09T13:40:52.433Z</time></trkpt><trkpt lat="45.8834574" lon="11.7019966"><ele>1070.0</ele><time>2026-04-09T13:40:53.423Z</time></trkpt><trkpt lat="45.8835663" lon="11.7019786"><ele>1070.0</ele><time>2026-04-09T13:40:54.43Z</time></trkpt><trkpt lat="45.8836678" lon="11.7019605"><ele>1070.2</ele><time>2026-04-09T13:40:55.428Z</time></trkpt><trkpt lat="45.8837704" lon="11.7019501"><ele>1070.4</ele><time>2026-04-09T13:40:56.431Z</time></trkpt><trkpt lat="45.8838662" lon="11.7019304"><ele>1070.6</ele><time>2026-04-09T13:40:57.434Z</time></trkpt><trkpt lat="45.883948" lon="11.7019045"><ele>1070.8</ele><time>2026-04-09T13:40:58.43Z</time></trkpt><trkpt lat="45.8840303" lon="11.7018885"><ele>1071.0</ele><time>2026-04-09T13:40:59.43Z</time></trkpt><trkpt lat="45.8841166" lon="11.7018846"><ele>1068.0</ele><time>2026-04-09T13:41:00.426Z</time></trkpt><trkpt lat="45.8841918" lon="11.7018931"><ele>1065.0</ele><time>2026-04-09T13:41:01.432Z</time></trkpt><trkpt lat="45.8842703" lon="11.7019208"><ele>1062.0</ele><time>2026-04-09T13:41:02.448Z</time></trkpt><trkpt lat="45.8843436" lon="11.7019643"><ele>1059.0</ele><time>2026-04-09T13:41:03.425Z</time></trkpt><trkpt lat="45.8844355" lon="11.7020422"><ele>1056.0</ele><time>2026-04-09T13:41:04.429Z</time></trkpt><trkpt lat="45.8845258" lon="11.7021109"><ele>1053.0</ele><time>2026-04-09T13:41:05.438Z</time></trkpt><trkpt lat="45.8846045" lon="11.7021733"><ele>1053.0</ele><time>2026-04-09T13:41:06.427Z</time></trkpt><trkpt lat="45.8846835" lon="11.7022362"><ele>1053.0</ele><time>2026-04-09T13:41:07.43Z</time></trkpt><trkpt lat="45.8847665" lon="11.7022992"><ele>1053.0</ele><time>2026-04-09T13:41:08.424Z</time></trkpt><trkpt lat="45.8848561" lon="11.7023591"><ele>1053.0</ele><time>2026-04-09T13:41:09.426Z</time></trkpt><trkpt lat="45.8849481" lon="11.7024241"><ele>1053.0</ele><time>2026-04-09T13:41:10.426Z</time></trkpt><trkpt lat="45.885035" lon="11.7024743"><ele>1055.0</ele><time>2026-04-09T13:41:11.436Z</time></trkpt><trkpt lat="45.8851224" lon="11.7025194"><ele>1057.0</ele><time>2026-04-09T13:41:12.431Z</time></trkpt><trkpt lat="45.8852005" lon="11.7025638"><ele>1059.0</ele><time>2026-04-09T13:41:13.436Z</time></trkpt><trkpt lat="45.885288" lon="11.7026238"><ele>1061.0</ele><time>2026-04-09T13:41:14.425Z</time></trkpt><trkpt lat="45.8853659" lon="11.7026802"><ele>1063.0</ele><time>2026-04-09T13:41:15.438Z</time></trkpt><trkpt lat="45.8854386" lon="11.7027493"><ele>1065.0</ele><time>2026-04-09T13:41:16.426Z</time></trkpt><trkpt lat="45.8855011" lon="11.7028128"><ele>1065.0</ele><time>2026-04-09T13:41:17.435Z</time></trkpt><trkpt lat="45.8855702" lon="11.7028843"><ele>1065.0</ele><time>2026-04-09T13:41:18.427Z</time></trkpt><trkpt lat="45.8856588" lon="11.702968"><ele>1065.0</ele><time>2026-04-09T13:41:20.43Z</time></trkpt><trkpt lat="45.885752" lon="11.7030043"><ele>1065.0</ele><time>2026-04-09T13:41:31.43Z</time></trkpt><trkpt lat="45.8858649" lon="11.7030134"><ele>1065.0</ele><time>2026-04-09T13:41:33.433Z</time></trkpt><trkpt lat="45.8859372" lon="11.7030323"><ele>1061.857142857143</ele><time>2026-04-09T13:41:34.423Z</time></trkpt><trkpt lat="45.8860147" lon="11.7030569"><ele>1058.7142857142858</ele><time>2026-04-09T13:41:35.444Z</time></trkpt><trkpt lat="45.8860828" lon="11.7030964"><ele>1055.5714285714284</ele><time>2026-04-09T13:41:36.443Z</time></trkpt><trkpt lat="45.8861415" lon="11.703145"><ele>1052.4285714285716</ele><time>2026-04-09T13:41:37.439Z</time></trkpt><trkpt lat="45.8862057" lon="11.7032011"><ele>1049.2857142857142</ele><time>2026-04-09T13:41:38.447Z</time></trkpt><trkpt lat="45.8862741" lon="11.7032608"><ele>1046.142857142857</ele><time>2026-04-09T13:41:39.443Z</time></trkpt><trkpt lat="45.8863312" lon="11.7033159"><ele>1043.0</ele><time>2026-04-09T13:41:40.428Z</time></trkpt><trkpt lat="45.8863827" lon="11.703375"><ele>1043.0</ele><time>2026-04-09T13:41:41.436Z</time></trkpt><trkpt lat="45.88646" lon="11.7034994"><ele>1043.0</ele><time>2026-04-09T13:41:43.432Z</time></trkpt><trkpt lat="45.8865459" lon="11.7036433"><ele>1043.0</ele><time>2026-04-09T13:41:45.429Z</time></trkpt><trkpt lat="45.8866226" lon="11.7037715"><ele>1043.0</ele><time>2026-04-09T13:41:47.431Z</time></trkpt><trkpt lat="45.8867143" lon="11.7038741"><ele>1047.0</ele><time>2026-04-09T13:41:49.426Z</time></trkpt><trkpt lat="45.886807" lon="11.7039286"><ele>1051.0</ele><time>2026-04-09T13:41:51.443Z</time></trkpt><trkpt lat="45.8869064" lon="11.7039656"><ele>1055.0</ele><time>2026-04-09T13:41:53.429Z</time></trkpt><trkpt lat="45.8870117" lon="11.7039728"><ele>1059.0</ele><time>2026-04-09T13:41:55.44Z</time></trkpt><trkpt lat="45.8871268" lon="11.7039458"><ele>1063.0</ele><time>2026-04-09T13:41:57.437Z</time></trkpt><trkpt lat="45.8872218" lon="11.703936"><ele>1063.0</ele><time>2026-04-09T13:41:59.43Z</time></trkpt><trkpt lat="45.8873145" lon="11.7040199"><ele>1063.0</ele><time>2026-04-09T13:42:01.445Z</time></trkpt><trkpt lat="45.8873919" lon="11.7041645"><ele>1063.0</ele><time>2026-04-09T13:42:03.443Z</time></trkpt><trkpt lat="45.88749" lon="11.7042416"><ele>1063.0</ele><time>2026-04-09T13:42:05.432Z</time></trkpt><trkpt lat="45.8875871" lon="11.7042837"><ele>1059.5</ele><time>2026-04-09T13:42:07.444Z</time></trkpt><trkpt lat="45.8876542" lon="11.7043571"><ele>1056.0</ele><time>2026-04-09T13:42:09.436Z</time></trkpt><trkpt lat="45.8877046" lon="11.7044741"><ele>1052.5</ele><time>2026-04-09T13:42:11.435Z</time></trkpt><trkpt lat="45.8877305" lon="11.7046285"><ele>1049.0</ele><time>2026-04-09T13:42:13.429Z</time></trkpt><trkpt lat="45.8877388" lon="11.7047235"><ele>1045.5</ele><time>2026-04-09T13:42:14.446Z</time></trkpt><trkpt lat="45.8877465" lon="11.7048321"><ele>1042.0</ele><time>2026-04-09T13:42:15.428Z</time></trkpt><trkpt lat="45.8877607" lon="11.7049391"><ele>1042.0</ele><time>2026-04-09T13:42:16.425Z</time></trkpt><trkpt lat="45.8877828" lon="11.7050365"><ele>1042.0</ele><time>2026-04-09T13:42:17.44Z</time></trkpt><trkpt lat="45.8878061" lon="11.7051211"><ele>1042.0</ele><time>2026-04-09T13:42:18.425Z</time></trkpt><trkpt lat="45.8878371" lon="11.7052162"><ele>1042.0</ele><time>2026-04-09T13:42:19.424Z</time></trkpt><trkpt lat="45.8878954" lon="11.7053599"><ele>1042.0</ele><time>2026-04-09T13:42:21.432Z</time></trkpt><trkpt lat="45.8879583" lon="11.7055284"><ele>1045.6666666666665</ele><time>2026-04-09T13:42:23.424Z</time></trkpt><trkpt lat="45.888" lon="11.7056202"><ele>1049.3333333333333</ele><time>2026-04-09T13:42:24.427Z</time></trkpt><trkpt lat="45.8880637" lon="11.7057328"><ele>1053.0</ele><time>2026-04-09T13:42:25.429Z</time></trkpt><trkpt lat="45.8881063" lon="11.7058298"><ele>1056.6666666666667</ele><time>2026-04-09T13:42:26.429Z</time></trkpt><trkpt lat="45.8881595" lon="11.7059165"><ele>1060.3333333333335</ele><time>2026-04-09T13:42:27.432Z</time></trkpt><trkpt lat="45.8882164" lon="11.7060023"><ele>1064.0</ele><time>2026-04-09T13:42:28.437Z</time></trkpt><trkpt lat="45.8882786" lon="11.70607"><ele>1060.4285714285713</ele><time>2026-04-09T13:42:29.429Z</time></trkpt><trkpt lat="45.8883341" lon="11.7061448"><ele>1056.857142857143</ele><time>2026-04-09T13:42:30.43Z</time></trkpt><trkpt lat="45.8883866" lon="11.7062238"><ele>1053.2857142857142</ele><time>2026-04-09T13:42:31.435Z</time></trkpt><trkpt lat="45.8884292" lon="11.7063003"><ele>1049.7142857142858</ele><time>2026-04-09T13:42:32.423Z</time></trkpt><trkpt lat="45.8884662" lon="11.7063846"><ele>1046.142857142857</ele><time>2026-04-09T13:42:33.428Z</time></trkpt><trkpt lat="45.8885004" lon="11.706482"><ele>1042.5714285714284</ele><time>2026-04-09T13:42:34.432Z</time></trkpt><trkpt lat="45.8885322" lon="11.7065834"><ele>1039.0</ele><time>2026-04-09T13:42:35.43Z</time></trkpt><trkpt lat="45.8885637" lon="11.7066836"><ele>1038.9999999999998</ele><time>2026-04-09T13:42:36.43Z</time></trkpt><trkpt lat="45.8885912" lon="11.7067785"><ele>1039.0</ele><time>2026-04-09T13:42:37.433Z</time></trkpt><trkpt lat="45.8886215" lon="11.706872"><ele>1039.0</ele><time>2026-04-09T13:42:38.433Z</time></trkpt><trkpt lat="45.8886493" lon="11.7069711"><ele>1039.0</ele><time>2026-04-09T13:42:39.432Z</time></trkpt><trkpt lat="45.8886731" lon="11.707059"><ele>1039.0</ele><time>2026-04-09T13:42:40.423Z</time></trkpt><trkpt lat="45.8886744" lon="11.7071548"><ele>1038.9999999999998</ele><time>2026-04-09T13:42:41.433Z</time></trkpt><trkpt lat="45.8886659" lon="11.707251"><ele>1039.0</ele><time>2026-04-09T13:42:42.422Z</time></trkpt><trkpt lat="45.8886603" lon="11.7074313"><ele>1043.8</ele><time>2026-04-09T13:42:44.432Z</time></trkpt><trkpt lat="45.8886937" lon="11.7076091"><ele>1048.6000000000001</ele><time>2026-04-09T13:42:46.425Z</time></trkpt><trkpt lat="45.8887211" lon="11.7076913"><ele>1053.4</ele><time>2026-04-09T13:42:47.43Z</time></trkpt><trkpt lat="45.8887818" lon="11.7078398"><ele>1058.2</ele><time>2026-04-09T13:42:49.43Z</time></trkpt><trkpt lat="45.8888228" lon="11.7079114"><ele>1063.0</ele><time>2026-04-09T13:42:50.436Z</time></trkpt><trkpt lat="45.8889027" lon="11.7080317"><ele>1068.1666666666665</ele><time>2026-04-09T13:42:52.424Z</time></trkpt><trkpt lat="45.8890188" lon="11.7080903"><ele>1073.3333333333333</ele><time>2026-04-09T13:42:54.437Z</time></trkpt><trkpt lat="45.8890916" lon="11.7080979"><ele>1078.5</ele><time>2026-04-09T13:42:55.443Z</time></trkpt><trkpt lat="45.8891674" lon="11.7081004"><ele>1083.6666666666667</ele><time>2026-04-09T13:42:56.44Z</time></trkpt><trkpt lat="45.8892372" lon="11.7080978"><ele>1088.8333333333335</ele><time>2026-04-09T13:42:57.431Z</time></trkpt><trkpt lat="45.8893084" lon="11.7081005"><ele>1094.0</ele><time>2026-04-09T13:42:58.434Z</time></trkpt><trkpt lat="45.8893909" lon="11.7080953"><ele>1094.0</ele><time>2026-04-09T13:42:59.433Z</time></trkpt><trkpt lat="45.8894741" lon="11.7080868"><ele>1094.0</ele><time>2026-04-09T13:43:00.43Z</time></trkpt><trkpt lat="45.8895537" lon="11.7080809"><ele>1094.0</ele><time>2026-04-09T13:43:01.428Z</time></trkpt><trkpt lat="45.8896208" lon="11.7080792"><ele>1094.0</ele><time>2026-04-09T13:43:02.432Z</time></trkpt><trkpt lat="45.8897531" lon="11.708077"><ele>1094.0</ele><time>2026-04-09T13:43:04.434Z</time></trkpt><trkpt lat="45.8898307" lon="11.7080589"><ele>1094.0</ele><time>2026-04-09T13:43:05.427Z</time></trkpt><trkpt lat="45.889909" lon="11.7080301"><ele>1094.0</ele><time>2026-04-09T13:43:06.429Z</time></trkpt><trkpt lat="45.8899808" lon="11.7079814"><ele>1094.0</ele><time>2026-04-09T13:43:07.429Z</time></trkpt><trkpt lat="45.8900457" lon="11.707921"><ele>1094.0</ele><time>2026-04-09T13:43:08.43Z</time></trkpt><trkpt lat="45.8901019" lon="11.7078631"><ele>1094.0</ele><time>2026-04-09T13:43:09.429Z</time></trkpt><trkpt lat="45.8901524" lon="11.7078079"><ele>1094.0</ele><time>2026-04-09T13:43:10.426Z</time></trkpt><trkpt lat="45.8902119" lon="11.7077529"><ele>1094.0</ele><time>2026-04-09T13:43:12.428Z</time></trkpt><trkpt lat="45.8903129" lon="11.7078498"><ele>1087.6666666666667</ele><time>2026-04-09T13:43:15.427Z</time></trkpt><trkpt lat="45.8903669" lon="11.7079078"><ele>1081.3333333333335</ele><time>2026-04-09T13:43:16.433Z</time></trkpt><trkpt lat="45.8904239" lon="11.7079631"><ele>1075.0</ele><time>2026-04-09T13:43:17.436Z</time></trkpt><trkpt lat="45.8904844" lon="11.7080063"><ele>1068.6666666666667</ele><time>2026-04-09T13:43:18.433Z</time></trkpt><trkpt lat="45.8905705" lon="11.708086"><ele>1062.3333333333333</ele><time>2026-04-09T13:43:20.43Z</time></trkpt><trkpt lat="45.8906296" lon="11.7082244"><ele>1056.0</ele><time>2026-04-09T13:43:22.43Z</time></trkpt><trkpt lat="45.8906647" lon="11.7083837"><ele>1056.0</ele><time>2026-04-09T13:43:24.426Z</time></trkpt><trkpt lat="45.8906858" lon="11.7085107"><ele>1056.0</ele><time>2026-04-09T13:43:26.429Z</time></trkpt><trkpt lat="45.8906525" lon="11.7086185"><ele>1056.0</ele><time>2026-04-09T13:43:28.435Z</time></trkpt><trkpt lat="45.890585" lon="11.7087299"><ele>1056.0</ele><time>2026-04-09T13:43:30.428Z</time></trkpt><trkpt lat="45.8905389" lon="11.7088561"><ele>1056.0</ele><time>2026-04-09T13:43:32.426Z</time></trkpt><trkpt lat="45.8905173" lon="11.7090122"><ele>1058.25</ele><time>2026-04-09T13:43:34.43Z</time></trkpt><trkpt lat="45.8905188" lon="11.7091895"><ele>1060.5</ele><time>2026-04-09T13:43:36.429Z</time></trkpt><trkpt lat="45.8905309" lon="11.709361"><ele>1062.75</ele><time>2026-04-09T13:43:38.43Z</time></trkpt><trkpt lat="45.8905383" lon="11.7095148"><ele>1065.0</ele><time>2026-04-09T13:43:40.427Z</time></trkpt><trkpt lat="45.8905693" lon="11.7096732"><ele>1052.0</ele><time>2026-04-09T13:43:42.435Z</time></trkpt><trkpt lat="45.8905864" lon="11.7098144"><ele>1039.0</ele><time>2026-04-09T13:43:44.426Z</time></trkpt><trkpt lat="45.8905586" lon="11.7099388"><ele>1026.0</ele><time>2026-04-09T13:43:46.442Z</time></trkpt><trkpt lat="45.8904905" lon="11.7100831"><ele>1013.0</ele><time>2026-04-09T13:43:48.423Z</time></trkpt><trkpt lat="45.8904158" lon="11.710197"><ele>1000.0</ele><time>2026-04-09T13:43:50.433Z</time></trkpt><trkpt lat="45.8903475" lon="11.7102605"><ele>1010.3333333333333</ele><time>2026-04-09T13:43:52.438Z</time></trkpt><trkpt lat="45.8902497" lon="11.7102583"><ele>1020.6666666666666</ele><time>2026-04-09T13:43:55.431Z</time></trkpt><trkpt lat="45.890133" lon="11.7102514"><ele>1031.0</ele><time>2026-04-09T13:43:57.433Z</time></trkpt><trkpt lat="45.8900638" lon="11.7102399"><ele>1041.3333333333333</ele><time>2026-04-09T13:43:58.419Z</time></trkpt><trkpt lat="45.8899871" lon="11.7102329"><ele>1051.6666666666667</ele><time>2026-04-09T13:43:59.435Z</time></trkpt><trkpt lat="45.8899182" lon="11.7102389"><ele>1062.0</ele><time>2026-04-09T13:44:00.437Z</time></trkpt><trkpt lat="45.8898522" lon="11.7102646"><ele>1062.0</ele><time>2026-04-09T13:44:01.419Z</time></trkpt><trkpt lat="45.8897891" lon="11.7103068"><ele>1062.0</ele><time>2026-04-09T13:44:02.426Z</time></trkpt><trkpt lat="45.8897272" lon="11.7103502"><ele>1062.0</ele><time>2026-04-09T13:44:03.428Z</time></trkpt><trkpt lat="45.8896695" lon="11.7104027"><ele>1062.0</ele><time>2026-04-09T13:44:04.421Z</time></trkpt><trkpt lat="45.8896173" lon="11.7104563"><ele>1062.0</ele><time>2026-04-09T13:44:05.422Z</time></trkpt><trkpt lat="45.8895648" lon="11.7105197"><ele>1062.0</ele><time>2026-04-09T13:44:06.439Z</time></trkpt><trkpt lat="45.889527" lon="11.710605"><ele>1062.0</ele><time>2026-04-09T13:44:07.422Z</time></trkpt><trkpt lat="45.8894743" lon="11.7107522"><ele>1062.0</ele><time>2026-04-09T13:44:09.434Z</time></trkpt><trkpt lat="45.8894567" lon="11.7108974"><ele>1062.0</ele><time>2026-04-09T13:44:11.423Z</time></trkpt><trkpt lat="45.8894114" lon="11.710985"><ele>1062.0</ele><time>2026-04-09T13:44:13.439Z</time></trkpt><trkpt lat="45.8893285" lon="11.7109581"><ele>1062.0</ele><time>2026-04-09T13:44:16.436Z</time></trkpt><trkpt lat="45.8892298" lon="11.7109182"><ele>1062.0</ele><time>2026-04-09T13:44:18.426Z</time></trkpt><trkpt lat="45.8891075" lon="11.7109285"><ele>1066.7142857142858</ele><time>2026-04-09T13:44:20.428Z</time></trkpt><trkpt lat="45.8890319" lon="11.710935"><ele>1071.4285714285716</ele><time>2026-04-09T13:44:21.43Z</time></trkpt><trkpt lat="45.8889559" lon="11.7109457"><ele>1076.142857142857</ele><time>2026-04-09T13:44:22.433Z</time></trkpt><trkpt lat="45.8888803" lon="11.7109559"><ele>1080.857142857143</ele><time>2026-04-09T13:44:23.427Z</time></trkpt><trkpt lat="45.888809" lon="11.7109602"><ele>1085.5714285714284</ele><time>2026-04-09T13:44:24.43Z</time></trkpt><trkpt lat="45.8887319" lon="11.710968"><ele>1090.2857142857142</ele><time>2026-04-09T13:44:25.427Z</time></trkpt><trkpt lat="45.8886671" lon="11.7109778"><ele>1095.0</ele><time>2026-04-09T13:44:26.429Z</time></trkpt><trkpt lat="45.8886007" lon="11.7110061"><ele>1094.9999999999998</ele><time>2026-04-09T13:44:27.426Z</time></trkpt><trkpt lat="45.8885358" lon="11.7110276"><ele>1095.0</ele><time>2026-04-09T13:44:28.434Z</time></trkpt><trkpt lat="45.8884729" lon="11.7110618"><ele>1095.0</ele><time>2026-04-09T13:44:29.429Z</time></trkpt><trkpt lat="45.8884104" lon="11.7111107"><ele>1095.0</ele><time>2026-04-09T13:44:30.425Z</time></trkpt><trkpt lat="45.8883524" lon="11.7111789"><ele>1095.0</ele><time>2026-04-09T13:44:31.423Z</time></trkpt><trkpt lat="45.8883078" lon="11.7112598"><ele>1094.9999999999998</ele><time>2026-04-09T13:44:32.424Z</time></trkpt><trkpt lat="45.8882664" lon="11.7113428"><ele>1095.0</ele><time>2026-04-09T13:44:33.425Z</time></trkpt><trkpt lat="45.8882261" lon="11.7114303"><ele>1095.6666666666667</ele><time>2026-04-09T13:44:34.428Z</time></trkpt><trkpt lat="45.8881925" lon="11.7115298"><ele>1096.3333333333333</ele><time>2026-04-09T13:44:35.42Z</time></trkpt><trkpt lat="45.8881548" lon="11.7116258"><ele>1097.0</ele><time>2026-04-09T13:44:36.424Z</time></trkpt><trkpt lat="45.8881202" lon="11.7117303"><ele>1097.6666666666665</ele><time>2026-04-09T13:44:37.425Z</time></trkpt><trkpt lat="45.888089" lon="11.7118338"><ele>1098.3333333333333</ele><time>2026-04-09T13:44:38.434Z</time></trkpt><trkpt lat="45.888053" lon="11.7119394"><ele>1099.0</ele><time>2026-04-09T13:44:39.431Z</time></trkpt><trkpt lat="45.888018" lon="11.7120404"><ele>1094.2</ele><time>2026-04-09T13:44:40.431Z</time></trkpt><trkpt lat="45.8879836" lon="11.7121331"><ele>1089.4</ele><time>2026-04-09T13:44:41.442Z</time></trkpt><trkpt lat="45.8879116" lon="11.7122726"><ele>1084.6</ele><time>2026-04-09T13:44:43.43Z</time></trkpt><trkpt lat="45.8878457" lon="11.712424"><ele>1079.8</ele><time>2026-04-09T13:44:45.427Z</time></trkpt><trkpt lat="45.8877771" lon="11.7125669"><ele>1075.0</ele><time>2026-04-09T13:44:47.428Z</time></trkpt><trkpt lat="45.8877382" lon="11.7126493"><ele>1074.1428571428573</ele><time>2026-04-09T13:44:48.438Z</time></trkpt><trkpt lat="45.887697" lon="11.7127414"><ele>1073.2857142857142</ele><time>2026-04-09T13:44:49.422Z</time></trkpt><trkpt lat="45.8876583" lon="11.7128229"><ele>1072.4285714285716</ele><time>2026-04-09T13:44:50.427Z</time></trkpt><trkpt lat="45.8876411" lon="11.7129114"><ele>1071.5714285714287</ele><time>2026-04-09T13:44:51.429Z</time></trkpt><trkpt lat="45.887623" lon="11.7130044"><ele>1070.7142857142858</ele><time>2026-04-09T13:44:52.426Z</time></trkpt><trkpt lat="45.8876186" lon="11.7131017"><ele>1069.857142857143</ele><time>2026-04-09T13:44:53.427Z</time></trkpt><trkpt lat="45.8876168" lon="11.7132074"><ele>1069.0</ele><time>2026-04-09T13:44:54.43Z</time></trkpt><trkpt lat="45.8876196" lon="11.7133071"><ele>1069.0</ele><time>2026-04-09T13:44:55.424Z</time></trkpt><trkpt lat="45.887629" lon="11.7134074"><ele>1069.0</ele><time>2026-04-09T13:44:56.427Z</time></trkpt><trkpt lat="45.8876436" lon="11.7134977"><ele>1069.0</ele><time>2026-04-09T13:44:57.423Z</time></trkpt><trkpt lat="45.887665" lon="11.7136625"><ele>1069.0</ele><time>2026-04-09T13:44:59.43Z</time></trkpt><trkpt lat="45.8876538" lon="11.7138204"><ele>1069.0</ele><time>2026-04-09T13:45:01.424Z</time></trkpt><trkpt lat="45.8876335" lon="11.7139105"><ele>1069.0</ele><time>2026-04-09T13:45:02.424Z</time></trkpt><trkpt lat="45.8876134" lon="11.7140067"><ele>1068.8333333333333</ele><time>2026-04-09T13:45:03.433Z</time></trkpt><trkpt lat="45.8876126" lon="11.7140996"><ele>1068.6666666666665</ele><time>2026-04-09T13:45:04.428Z</time></trkpt><trkpt lat="45.8876133" lon="11.7142057"><ele>1068.5</ele><time>2026-04-09T13:45:05.423Z</time></trkpt><trkpt lat="45.8876331" lon="11.714299"><ele>1068.3333333333333</ele><time>2026-04-09T13:45:06.427Z</time></trkpt><trkpt lat="45.8876402" lon="11.7144719"><ele>1068.1666666666667</ele><time>2026-04-09T13:45:08.428Z</time></trkpt><trkpt lat="45.8875957" lon="11.7146169"><ele>1068.0</ele><time>2026-04-09T13:45:10.425Z</time></trkpt><trkpt lat="45.8875382" lon="11.7147882"><ele>1078.5</ele><time>2026-04-09T13:45:12.432Z</time></trkpt><trkpt lat="45.887515" lon="11.7148866"><ele>1089.0</ele><time>2026-04-09T13:45:13.437Z</time></trkpt><trkpt lat="45.88749" lon="11.7149834"><ele>1099.5</ele><time>2026-04-09T13:45:14.435Z</time></trkpt><trkpt lat="45.8874696" lon="11.7150753"><ele>1110.0</ele><time>2026-04-09T13:45:15.424Z</time></trkpt><trkpt lat="45.8874477" lon="11.715178"><ele>1120.5</ele><time>2026-04-09T13:45:16.424Z</time></trkpt><trkpt lat="45.8874291" lon="11.7152747"><ele>1131.0</ele><time>2026-04-09T13:45:17.428Z</time></trkpt><trkpt lat="45.8874245" lon="11.7154461"><ele>1132.4285714285716</ele><time>2026-04-09T13:45:19.419Z</time></trkpt><trkpt lat="45.8874552" lon="11.7155331"><ele>1133.857142857143</ele><time>2026-04-09T13:45:20.431Z</time></trkpt><trkpt lat="45.8874966" lon="11.715614"><ele>1135.2857142857142</ele><time>2026-04-09T13:45:21.421Z</time></trkpt><trkpt lat="45.8875443" lon="11.7157029"><ele>1136.7142857142858</ele><time>2026-04-09T13:45:22.421Z</time></trkpt><trkpt lat="45.8875922" lon="11.7157918"><ele>1138.142857142857</ele><time>2026-04-09T13:45:23.424Z</time></trkpt><trkpt lat="45.887625" lon="11.7158795"><ele>1139.5714285714287</ele><time>2026-04-09T13:45:24.424Z</time></trkpt><trkpt lat="45.8876726" lon="11.7159597"><ele>1141.0</ele><time>2026-04-09T13:45:25.422Z</time></trkpt><trkpt lat="45.8877187" lon="11.7160471"><ele>1141.0</ele><time>2026-04-09T13:45:26.432Z</time></trkpt><trkpt lat="45.8877844" lon="11.716133"><ele>1141.0</ele><time>2026-04-09T13:45:27.435Z</time></trkpt><trkpt lat="45.8878483" lon="11.7162074"><ele>1141.0</ele><time>2026-04-09T13:45:28.426Z</time></trkpt><trkpt lat="45.8878968" lon="11.7162762"><ele>1141.0</ele><time>2026-04-09T13:45:29.429Z</time></trkpt><trkpt lat="45.8879446" lon="11.7163529"><ele>1141.0</ele><time>2026-04-09T13:45:30.423Z</time></trkpt><trkpt lat="45.8879928" lon="11.7164277"><ele>1141.0</ele><time>2026-04-09T13:45:31.423Z</time></trkpt><trkpt lat="45.8880379" lon="11.7165057"><ele>1141.0</ele><time>2026-04-09T13:45:32.425Z</time></trkpt><trkpt lat="45.8880805" lon="11.7165784"><ele>1141.0</ele><time>2026-04-09T13:45:33.419Z</time></trkpt><trkpt lat="45.8881856" lon="11.716646"><ele>1141.0</ele><time>2026-04-09T13:45:35.433Z</time></trkpt><trkpt lat="45.8882484" lon="11.7166352"><ele>1141.0</ele><time>2026-04-09T13:45:36.439Z</time></trkpt><trkpt lat="45.8883488" lon="11.7166481"><ele>1141.0</ele><time>2026-04-09T13:45:38.429Z</time></trkpt><trkpt lat="45.8884631" lon="11.7167053"><ele>1139.0</ele><time>2026-04-09T13:45:40.423Z</time></trkpt><trkpt lat="45.8885253" lon="11.7167359"><ele>1137.0</ele><time>2026-04-09T13:45:41.427Z</time></trkpt><trkpt lat="45.8886592" lon="11.7167907"><ele>1135.0</ele><time>2026-04-09T13:45:43.43Z</time></trkpt><trkpt lat="45.8887296" lon="11.716811"><ele>1133.0</ele><time>2026-04-09T13:45:44.432Z</time></trkpt><trkpt lat="45.8888013" lon="11.7168236"><ele>1131.0</ele><time>2026-04-09T13:45:45.425Z</time></trkpt><trkpt lat="45.8888677" lon="11.716827"><ele>1129.0</ele><time>2026-04-09T13:45:46.429Z</time></trkpt><trkpt lat="45.8889826" lon="11.7168357"><ele>1129.0</ele><time>2026-04-09T13:45:48.435Z</time></trkpt><trkpt lat="45.8890863" lon="11.71687"><ele>1129.0</ele><time>2026-04-09T13:45:50.43Z</time></trkpt><trkpt lat="45.8891931" lon="11.7169611"><ele>1129.0</ele><time>2026-04-09T13:45:52.442Z</time></trkpt><trkpt lat="45.889236" lon="11.7170341"><ele>1129.0</ele><time>2026-04-09T13:45:53.431Z</time></trkpt><trkpt lat="45.8892712" lon="11.7171143"><ele>1129.0</ele><time>2026-04-09T13:45:54.428Z</time></trkpt><trkpt lat="45.889305" lon="11.7171982"><ele>1129.0</ele><time>2026-04-09T13:45:55.43Z</time></trkpt><trkpt lat="45.8893577" lon="11.7173591"><ele>1130.5</ele><time>2026-04-09T13:45:57.425Z</time></trkpt><trkpt lat="45.8893982" lon="11.7174463"><ele>1132.0</ele><time>2026-04-09T13:45:58.434Z</time></trkpt><trkpt lat="45.889443" lon="11.7175178"><ele>1133.5</ele><time>2026-04-09T13:45:59.427Z</time></trkpt><trkpt lat="45.8894878" lon="11.7175876"><ele>1135.0</ele><time>2026-04-09T13:46:00.431Z</time></trkpt><trkpt lat="45.8895334" lon="11.7176571"><ele>1136.5</ele><time>2026-04-09T13:46:01.427Z</time></trkpt><trkpt lat="45.8896155" lon="11.7177836"><ele>1138.0</ele><time>2026-04-09T13:46:03.434Z</time></trkpt><trkpt lat="45.8896829" lon="11.7178613"><ele>1143.6666666666665</ele><time>2026-04-09T13:46:05.42Z</time></trkpt><trkpt lat="45.8897985" lon="11.717871"><ele>1149.3333333333333</ele><time>2026-04-09T13:46:07.437Z</time></trkpt><trkpt lat="45.8898747" lon="11.7179187"><ele>1155.0</ele><time>2026-04-09T13:46:09.431Z</time></trkpt><trkpt lat="45.8899207" lon="11.7180397"><ele>1160.6666666666667</ele><time>2026-04-09T13:46:11.429Z</time></trkpt><trkpt lat="45.8899475" lon="11.7181327"><ele>1166.3333333333335</ele><time>2026-04-09T13:46:13.429Z</time></trkpt><trkpt lat="45.8899712" lon="11.7182418"><ele>1172.0</ele><time>2026-04-09T13:46:15.43Z</time></trkpt><trkpt lat="45.8900476" lon="11.7183406"><ele>1167.6</ele><time>2026-04-09T13:46:17.424Z</time></trkpt><trkpt lat="45.8901295" lon="11.718386"><ele>1163.2</ele><time>2026-04-09T13:46:19.422Z</time></trkpt><trkpt lat="45.8902284" lon="11.7184225"><ele>1158.8</ele><time>2026-04-09T13:46:21.449Z</time></trkpt><trkpt lat="45.8903223" lon="11.7184807"><ele>1154.4</ele><time>2026-04-09T13:46:23.436Z</time></trkpt><trkpt lat="45.8904457" lon="11.7185288"><ele>1150.0</ele><time>2026-04-09T13:46:25.42Z</time></trkpt><trkpt lat="45.8905145" lon="11.7185411"><ele>1150.0</ele><time>2026-04-09T13:46:26.431Z</time></trkpt><trkpt lat="45.890583" lon="11.7185558"><ele>1150.0</ele><time>2026-04-09T13:46:27.431Z</time></trkpt><trkpt lat="45.890649" lon="11.7185877"><ele>1150.0</ele><time>2026-04-09T13:46:28.419Z</time></trkpt><trkpt lat="45.8907048" lon="11.718631"><ele>1150.0</ele><time>2026-04-09T13:46:29.423Z</time></trkpt><trkpt lat="45.890764" lon="11.718682"><ele>1150.0</ele><time>2026-04-09T13:46:30.432Z</time></trkpt><trkpt lat="45.8908199" lon="11.7187352"><ele>1150.0</ele><time>2026-04-09T13:46:31.424Z</time></trkpt><trkpt lat="45.8908794" lon="11.7187917"><ele>1150.0</ele><time>2026-04-09T13:46:32.426Z</time></trkpt><trkpt lat="45.8909524" lon="11.7188504"><ele>1154.5</ele><time>2026-04-09T13:46:33.433Z</time></trkpt><trkpt lat="45.8910071" lon="11.7188997"><ele>1159.0</ele><time>2026-04-09T13:46:34.432Z</time></trkpt><trkpt lat="45.8910638" lon="11.7189497"><ele>1163.5</ele><time>2026-04-09T13:46:35.431Z</time></trkpt><trkpt lat="45.8911681" lon="11.7190584"><ele>1168.0</ele><time>2026-04-09T13:46:37.421Z</time></trkpt><trkpt lat="45.8912238" lon="11.7191143"><ele>1172.5</ele><time>2026-04-09T13:46:38.431Z</time></trkpt><trkpt lat="45.8912922" lon="11.7191607"><ele>1177.0</ele><time>2026-04-09T13:46:39.427Z</time></trkpt><trkpt lat="45.8913635" lon="11.7192037"><ele>1177.0</ele><time>2026-04-09T13:46:40.426Z</time></trkpt><trkpt lat="45.891439" lon="11.7192411"><ele>1177.0</ele><time>2026-04-09T13:46:41.446Z</time></trkpt><trkpt lat="45.8915061" lon="11.7192753"><ele>1177.0</ele><time>2026-04-09T13:46:42.427Z</time></trkpt><trkpt lat="45.8915829" lon="11.7192986"><ele>1177.0</ele><time>2026-04-09T13:46:43.423Z</time></trkpt><trkpt lat="45.891658" lon="11.7193166"><ele>1177.0</ele><time>2026-04-09T13:46:44.428Z</time></trkpt><trkpt lat="45.8917447" lon="11.7193175"><ele>1177.0</ele><time>2026-04-09T13:46:45.43Z</time></trkpt><trkpt lat="45.8918309" lon="11.7193023"><ele>1177.6666666666665</ele><time>2026-04-09T13:46:46.427Z</time></trkpt><trkpt lat="45.8919165" lon="11.719283"><ele>1178.3333333333333</ele><time>2026-04-09T13:46:47.429Z</time></trkpt><trkpt lat="45.8919985" lon="11.7192565"><ele>1179.0</ele><time>2026-04-09T13:46:48.429Z</time></trkpt><trkpt lat="45.8920715" lon="11.719225"><ele>1179.6666666666667</ele><time>2026-04-09T13:46:49.423Z</time></trkpt><trkpt lat="45.8921319" lon="11.7191942"><ele>1180.3333333333335</ele><time>2026-04-09T13:46:50.43Z</time></trkpt><trkpt lat="45.8922415" lon="11.7191621"><ele>1181.0</ele><time>2026-04-09T13:46:52.425Z</time></trkpt><trkpt lat="45.8923092" lon="11.7191709"><ele>1181.0</ele><time>2026-04-09T13:46:53.44Z</time></trkpt><trkpt lat="45.8923763" lon="11.7191982"><ele>1181.0</ele><time>2026-04-09T13:46:54.434Z</time></trkpt><trkpt lat="45.8924447" lon="11.719232"><ele>1181.0</ele><time>2026-04-09T13:46:55.427Z</time></trkpt><trkpt lat="45.8925111" lon="11.7192682"><ele>1181.0</ele><time>2026-04-09T13:46:56.427Z</time></trkpt><trkpt lat="45.8925737" lon="11.7193195"><ele>1181.0</ele><time>2026-04-09T13:46:57.433Z</time></trkpt><trkpt lat="45.8926533" lon="11.7194076"><ele>1181.0</ele><time>2026-04-09T13:46:59.436Z</time></trkpt><trkpt lat="45.8926348" lon="11.7195105"><ele>1184.5</ele><time>2026-04-09T13:47:02.43Z</time></trkpt><trkpt lat="45.8925628" lon="11.7195341"><ele>1188.0</ele><time>2026-04-09T13:47:04.423Z</time></trkpt><trkpt lat="45.8924772" lon="11.719486"><ele>1191.5</ele><time>2026-04-09T13:47:06.429Z</time></trkpt><trkpt lat="45.8923597" lon="11.7194685"><ele>1195.0</ele><time>2026-04-09T13:47:08.431Z</time></trkpt><trkpt lat="45.892293" lon="11.7194805"><ele>1198.5</ele><time>2026-04-09T13:47:09.442Z</time></trkpt><trkpt lat="45.8922254" lon="11.7194947"><ele>1202.0</ele><time>2026-04-09T13:47:10.429Z</time></trkpt><trkpt lat="45.8921546" lon="11.7195314"><ele>1202.0</ele><time>2026-04-09T13:47:11.426Z</time></trkpt><trkpt lat="45.8920798" lon="11.7195708"><ele>1202.0</ele><time>2026-04-09T13:47:12.427Z</time></trkpt><trkpt lat="45.8920057" lon="11.7196202"><ele>1202.0</ele><time>2026-04-09T13:47:13.436Z</time></trkpt><trkpt lat="45.8919326" lon="11.7196644"><ele>1202.0</ele><time>2026-04-09T13:47:14.439Z</time></trkpt><trkpt lat="45.8918606" lon="11.7197032"><ele>1202.0</ele><time>2026-04-09T13:47:15.43Z</time></trkpt><trkpt lat="45.8917808" lon="11.7197325"><ele>1202.0</ele><time>2026-04-09T13:47:16.432Z</time></trkpt><trkpt lat="45.8916962" lon="11.7197584"><ele>1205.6666666666667</ele><time>2026-04-09T13:47:17.451Z</time></trkpt><trkpt lat="45.8916165" lon="11.7197769"><ele>1209.3333333333335</ele><time>2026-04-09T13:47:18.425Z</time></trkpt><trkpt lat="45.8915355" lon="11.7197925"><ele>1213.0</ele><time>2026-04-09T13:47:19.431Z</time></trkpt><trkpt lat="45.8914589" lon="11.7197967"><ele>1216.6666666666667</ele><time>2026-04-09T13:47:20.441Z</time></trkpt><trkpt lat="45.8913862" lon="11.719781"><ele>1220.3333333333333</ele><time>2026-04-09T13:47:21.438Z</time></trkpt><trkpt lat="45.8913125" lon="11.7197623"><ele>1224.0</ele><time>2026-04-09T13:47:22.423Z</time></trkpt><trkpt lat="45.8912299" lon="11.7197242"><ele>1224.0</ele><time>2026-04-09T13:47:23.428Z</time></trkpt><trkpt lat="45.8911578" lon="11.7196884"><ele>1224.0</ele><time>2026-04-09T13:47:24.43Z</time></trkpt><trkpt lat="45.8910951" lon="11.7196355"><ele>1224.0</ele><time>2026-04-09T13:47:25.432Z</time></trkpt><trkpt lat="45.8910393" lon="11.7195771"><ele>1224.0</ele><time>2026-04-09T13:47:26.425Z</time></trkpt><trkpt lat="45.890981" lon="11.7195197"><ele>1224.0</ele><time>2026-04-09T13:47:27.431Z</time></trkpt><trkpt lat="45.8909117" lon="11.7194638"><ele>1224.0</ele><time>2026-04-09T13:47:28.436Z</time></trkpt><trkpt lat="45.8908412" lon="11.7194247"><ele>1224.0</ele><time>2026-04-09T13:47:29.431Z</time></trkpt><trkpt lat="45.8907719" lon="11.7193867"><ele>1220.0</ele><time>2026-04-09T13:47:30.425Z</time></trkpt><trkpt lat="45.8906916" lon="11.7193455"><ele>1216.0</ele><time>2026-04-09T13:47:31.448Z</time></trkpt><trkpt lat="45.8906182" lon="11.7193307"><ele>1212.0</ele><time>2026-04-09T13:47:32.432Z</time></trkpt><trkpt lat="45.8905443" lon="11.7193129"><ele>1208.0</ele><time>2026-04-09T13:47:33.427Z</time></trkpt><trkpt lat="45.8904684" lon="11.7192958"><ele>1204.0</ele><time>2026-04-09T13:47:34.431Z</time></trkpt><trkpt lat="45.8903937" lon="11.7192805"><ele>1200.0</ele><time>2026-04-09T13:47:35.433Z</time></trkpt><trkpt lat="45.8903194" lon="11.7192724"><ele>1199.9999999999998</ele><time>2026-04-09T13:47:36.423Z</time></trkpt><trkpt lat="45.8902551" lon="11.7192746"><ele>1200.0</ele><time>2026-04-09T13:47:37.438Z</time></trkpt><trkpt lat="45.8901836" lon="11.7192749"><ele>1200.0</ele><time>2026-04-09T13:47:38.437Z</time></trkpt><trkpt lat="45.8901126" lon="11.7192799"><ele>1200.0</ele><time>2026-04-09T13:47:39.424Z</time></trkpt><trkpt lat="45.8900424" lon="11.7192922"><ele>1200.0</ele><time>2026-04-09T13:47:40.434Z</time></trkpt><trkpt lat="45.8899749" lon="11.7193124"><ele>1199.9999999999998</ele><time>2026-04-09T13:47:41.439Z</time></trkpt><trkpt lat="45.889899" lon="11.7193095"><ele>1200.0</ele><time>2026-04-09T13:47:42.448Z</time></trkpt><trkpt lat="45.8898219" lon="11.7192928"><ele>1202.7142857142856</ele><time>2026-04-09T13:47:43.44Z</time></trkpt><trkpt lat="45.8897513" lon="11.719256"><ele>1205.4285714285713</ele><time>2026-04-09T13:47:44.441Z</time></trkpt><trkpt lat="45.8896846" lon="11.7192141"><ele>1208.142857142857</ele><time>2026-04-09T13:47:45.451Z</time></trkpt><trkpt lat="45.8896211" lon="11.7191486"><ele>1210.8571428571427</ele><time>2026-04-09T13:47:46.434Z</time></trkpt><trkpt lat="45.8895719" lon="11.719068"><ele>1213.5714285714284</ele><time>2026-04-09T13:47:47.426Z</time></trkpt><trkpt lat="45.8895277" lon="11.7190003"><ele>1216.2857142857142</ele><time>2026-04-09T13:47:48.432Z</time></trkpt><trkpt lat="45.8894711" lon="11.718926"><ele>1219.0</ele><time>2026-04-09T13:47:49.425Z</time></trkpt><trkpt lat="45.8894126" lon="11.718856"><ele>1219.0</ele><time>2026-04-09T13:47:50.42Z</time></trkpt><trkpt lat="45.8893543" lon="11.7187906"><ele>1219.0</ele><time>2026-04-09T13:47:51.427Z</time></trkpt><trkpt lat="45.8892923" lon="11.7187393"><ele>1219.0</ele><time>2026-04-09T13:47:52.429Z</time></trkpt><trkpt lat="45.8892261" lon="11.7186929"><ele>1219.0</ele><time>2026-04-09T13:47:53.423Z</time></trkpt><trkpt lat="45.8891575" lon="11.7186557"><ele>1219.0</ele><time>2026-04-09T13:47:54.432Z</time></trkpt><trkpt lat="45.8890977" lon="11.7186212"><ele>1219.0</ele><time>2026-04-09T13:47:55.425Z</time></trkpt><trkpt lat="45.8890385" lon="11.7185756"><ele>1219.0</ele><time>2026-04-09T13:47:56.429Z</time></trkpt><trkpt lat="45.8889604" lon="11.7184787"><ele>1218.3333333333333</ele><time>2026-04-09T13:47:58.424Z</time></trkpt><trkpt lat="45.8888693" lon="11.7184165"><ele>1217.6666666666665</ele><time>2026-04-09T13:48:00.434Z</time></trkpt><trkpt lat="45.8888026" lon="11.7184151"><ele>1217.0</ele><time>2026-04-09T13:48:01.436Z</time></trkpt><trkpt lat="45.8887356" lon="11.7184087"><ele>1216.3333333333333</ele><time>2026-04-09T13:48:02.453Z</time></trkpt><trkpt lat="45.8886622" lon="11.7184157"><ele>1215.6666666666667</ele><time>2026-04-09T13:48:03.438Z</time></trkpt><trkpt lat="45.8885919" lon="11.7184287"><ele>1215.0</ele><time>2026-04-09T13:48:04.435Z</time></trkpt><trkpt lat="45.8885169" lon="11.7184399"><ele>1215.0</ele><time>2026-04-09T13:48:05.424Z</time></trkpt><trkpt lat="45.88844" lon="11.7184468"><ele>1215.0</ele><time>2026-04-09T13:48:06.45Z</time></trkpt><trkpt lat="45.8883717" lon="11.7184434"><ele>1215.0</ele><time>2026-04-09T13:48:07.43Z</time></trkpt><trkpt lat="45.8882727" lon="11.7184402"><ele>1215.0</ele><time>2026-04-09T13:48:09.436Z</time></trkpt><trkpt lat="45.8882089" lon="11.718525"><ele>1215.0</ele><time>2026-04-09T13:48:11.439Z</time></trkpt><trkpt lat="45.8881771" lon="11.7186521"><ele>1215.0</ele><time>2026-04-09T13:48:13.449Z</time></trkpt><trkpt lat="45.8881686" lon="11.7187937"><ele>1221.0</ele><time>2026-04-09T13:48:15.442Z</time></trkpt><trkpt lat="45.8881522" lon="11.7189375"><ele>1227.0</ele><time>2026-04-09T13:48:17.442Z</time></trkpt><trkpt lat="45.8881337" lon="11.7190852"><ele>1233.0</ele><time>2026-04-09T13:48:19.437Z</time></trkpt><trkpt lat="45.8881207" lon="11.7192605"><ele>1239.0</ele><time>2026-04-09T13:48:21.438Z</time></trkpt><trkpt lat="45.8881254" lon="11.7193564"><ele>1245.0</ele><time>2026-04-09T13:48:22.439Z</time></trkpt><trkpt lat="45.8881333" lon="11.7195234"><ele>1245.0</ele><time>2026-04-09T13:48:24.438Z</time></trkpt><trkpt lat="45.8881291" lon="11.7196755"><ele>1245.0</ele><time>2026-04-09T13:48:26.443Z</time></trkpt><trkpt lat="45.8881276" lon="11.7197794"><ele>1245.0</ele><time>2026-04-09T13:48:27.429Z</time></trkpt><trkpt lat="45.8881243" lon="11.7198791"><ele>1245.0</ele><time>2026-04-09T13:48:28.435Z</time></trkpt><trkpt lat="45.888121" lon="11.7199736"><ele>1245.0</ele><time>2026-04-09T13:48:29.436Z</time></trkpt><trkpt lat="45.8881131" lon="11.7201485"><ele>1245.0</ele><time>2026-04-09T13:48:31.436Z</time></trkpt><trkpt lat="45.8881028" lon="11.7203059"><ele>1243.8</ele><time>2026-04-09T13:48:33.434Z</time></trkpt><trkpt lat="45.8880926" lon="11.7204659"><ele>1242.6</ele><time>2026-04-09T13:48:35.441Z</time></trkpt><trkpt lat="45.8880887" lon="11.7206043"><ele>1241.4</ele><time>2026-04-09T13:48:37.427Z</time></trkpt><trkpt lat="45.8880806" lon="11.7207204"><ele>1240.2</ele><time>2026-04-09T13:48:39.434Z</time></trkpt><trkpt lat="45.888075" lon="11.7208222"><ele>1239.0</ele><time>2026-04-09T13:48:41.434Z</time></trkpt><trkpt lat="45.888079" lon="11.7209595"><ele>1238.4</ele><time>2026-04-09T13:48:44.443Z</time></trkpt><trkpt lat="45.888086" lon="11.7210938"><ele>1237.8000000000002</ele><time>2026-04-09T13:48:46.428Z</time></trkpt><trkpt lat="45.8880823" lon="11.7212273"><ele>1237.1999999999998</ele><time>2026-04-09T13:48:48.454Z</time></trkpt><trkpt lat="45.8880367" lon="11.7213351"><ele>1236.6</ele><time>2026-04-09T13:48:51.451Z</time></trkpt><trkpt lat="45.8879315" lon="11.7213615"><ele>1236.0</ele><time>2026-04-09T13:48:53.431Z</time></trkpt><trkpt lat="45.8878545" lon="11.7213587"><ele>1236.0</ele><time>2026-04-09T13:48:54.44Z</time></trkpt><trkpt lat="45.8877692" lon="11.7213544"><ele>1236.0</ele><time>2026-04-09T13:48:55.433Z</time></trkpt><trkpt lat="45.887676" lon="11.7213571"><ele>1236.0</ele><time>2026-04-09T13:48:56.437Z</time></trkpt><trkpt lat="45.8875867" lon="11.7213651"><ele>1236.0</ele><time>2026-04-09T13:48:57.429Z</time></trkpt><trkpt lat="45.8875013" lon="11.7213769"><ele>1236.0</ele><time>2026-04-09T13:48:58.438Z</time></trkpt><trkpt lat="45.887421" lon="11.7213908"><ele>1236.0</ele><time>2026-04-09T13:48:59.435Z</time></trkpt><trkpt lat="45.8873461" lon="11.7214078"><ele>1235.1428571428573</ele><time>2026-04-09T13:49:00.435Z</time></trkpt><trkpt lat="45.8872763" lon="11.7214266"><ele>1234.2857142857142</ele><time>2026-04-09T13:49:01.427Z</time></trkpt><trkpt lat="45.8872061" lon="11.7214426"><ele>1233.4285714285716</ele><time>2026-04-09T13:49:02.436Z</time></trkpt><trkpt lat="45.8871341" lon="11.7214503"><ele>1232.5714285714287</ele><time>2026-04-09T13:49:03.438Z</time></trkpt><trkpt lat="45.8870621" lon="11.7214487"><ele>1231.7142857142858</ele><time>2026-04-09T13:49:04.429Z</time></trkpt><trkpt lat="45.8869898" lon="11.7214341"><ele>1230.857142857143</ele><time>2026-04-09T13:49:05.448Z</time></trkpt><trkpt lat="45.8869193" lon="11.7214089"><ele>1230.0</ele><time>2026-04-09T13:49:06.433Z</time></trkpt><trkpt lat="45.8868511" lon="11.7213747"><ele>1230.0</ele><time>2026-04-09T13:49:07.426Z</time></trkpt><trkpt lat="45.8867858" lon="11.7213403"><ele>1230.0</ele><time>2026-04-09T13:49:08.438Z</time></trkpt><trkpt lat="45.8867212" lon="11.7213066"><ele>1230.0</ele><time>2026-04-09T13:49:09.434Z</time></trkpt><trkpt lat="45.8866543" lon="11.7212731"><ele>1230.0</ele><time>2026-04-09T13:49:10.432Z</time></trkpt><trkpt lat="45.8865843" lon="11.7212373"><ele>1230.0</ele><time>2026-04-09T13:49:11.427Z</time></trkpt><trkpt lat="45.8865084" lon="11.7211978"><ele>1230.0</ele><time>2026-04-09T13:49:12.435Z</time></trkpt><trkpt lat="45.886427" lon="11.7211567"><ele>1230.4</ele><time>2026-04-09T13:49:13.436Z</time></trkpt><trkpt lat="45.886344" lon="11.7211115"><ele>1230.8</ele><time>2026-04-09T13:49:14.431Z</time></trkpt><trkpt lat="45.8862593" lon="11.721058"><ele>1231.2</ele><time>2026-04-09T13:49:15.43Z</time></trkpt><trkpt lat="45.8861748" lon="11.7209982"><ele>1231.6</ele><time>2026-04-09T13:49:16.432Z</time></trkpt><trkpt lat="45.8860922" lon="11.7209326"><ele>1232.0</ele><time>2026-04-09T13:49:17.437Z</time></trkpt><trkpt lat="45.8860122" lon="11.7208614"><ele>1232.0</ele><time>2026-04-09T13:49:18.43Z</time></trkpt><trkpt lat="45.885934" lon="11.7207842"><ele>1232.0</ele><time>2026-04-09T13:49:19.443Z</time></trkpt><trkpt lat="45.8858608" lon="11.7206953"><ele>1232.0</ele><time>2026-04-09T13:49:20.438Z</time></trkpt><trkpt lat="45.8857975" lon="11.7205929"><ele>1232.0</ele><time>2026-04-09T13:49:21.428Z</time></trkpt><trkpt lat="45.8857393" lon="11.7204817"><ele>1232.0</ele><time>2026-04-09T13:49:22.426Z</time></trkpt><trkpt lat="45.8856828" lon="11.7203693"><ele>1231.0</ele><time>2026-04-09T13:49:23.44Z</time></trkpt><trkpt lat="45.8856253" lon="11.7202572"><ele>1230.0</ele><time>2026-04-09T13:49:24.432Z</time></trkpt><trkpt lat="45.8855656" lon="11.7201462"><ele>1229.0</ele><time>2026-04-09T13:49:25.428Z</time></trkpt><trkpt lat="45.8855075" lon="11.7200347"><ele>1228.0</ele><time>2026-04-09T13:49:26.432Z</time></trkpt><trkpt lat="45.8854469" lon="11.7199269"><ele>1227.0</ele><time>2026-04-09T13:49:27.433Z</time></trkpt><trkpt lat="45.8853877" lon="11.7198192"><ele>1227.0</ele><time>2026-04-09T13:49:28.427Z</time></trkpt><trkpt lat="45.8853259" lon="11.7197113"><ele>1227.0</ele><time>2026-04-09T13:49:29.439Z</time></trkpt><trkpt lat="45.8852649" lon="11.7196077"><ele>1227.0</ele><time>2026-04-09T13:49:30.438Z</time></trkpt><trkpt lat="45.8852044" lon="11.7195035"><ele>1227.0</ele><time>2026-04-09T13:49:31.429Z</time></trkpt><trkpt lat="45.8851441" lon="11.7193981"><ele>1227.0</ele><time>2026-04-09T13:49:32.438Z</time></trkpt><trkpt lat="45.8850827" lon="11.719295"><ele>1225.0</ele><time>2026-04-09T13:49:33.432Z</time></trkpt><trkpt lat="45.8850215" lon="11.7191924"><ele>1223.0</ele><time>2026-04-09T13:49:34.435Z</time></trkpt><trkpt lat="45.8849606" lon="11.7190906"><ele>1221.0</ele><time>2026-04-09T13:49:35.445Z</time></trkpt><trkpt lat="45.8848993" lon="11.7189901"><ele>1219.0</ele><time>2026-04-09T13:49:36.434Z</time></trkpt><trkpt lat="45.8848374" lon="11.7188919"><ele>1217.0</ele><time>2026-04-09T13:49:37.428Z</time></trkpt><trkpt lat="45.8847755" lon="11.7187919"><ele>1217.0</ele><time>2026-04-09T13:49:38.429Z</time></trkpt><trkpt lat="45.8847075" lon="11.718703"><ele>1217.0</ele><time>2026-04-09T13:49:39.437Z</time></trkpt><trkpt lat="45.8846403" lon="11.7186192"><ele>1217.0</ele><time>2026-04-09T13:49:40.435Z</time></trkpt><trkpt lat="45.8845735" lon="11.7185331"><ele>1217.0</ele><time>2026-04-09T13:49:41.427Z</time></trkpt><trkpt lat="45.884506" lon="11.7184423"><ele>1217.0</ele><time>2026-04-09T13:49:42.436Z</time></trkpt><trkpt lat="45.8844372" lon="11.7183571"><ele>1216.4</ele><time>2026-04-09T13:49:43.431Z</time></trkpt><trkpt lat="45.8843609" lon="11.7182803"><ele>1215.8000000000002</ele><time>2026-04-09T13:49:44.428Z</time></trkpt><trkpt lat="45.8842782" lon="11.7182261"><ele>1215.2</ele><time>2026-04-09T13:49:45.431Z</time></trkpt><trkpt lat="45.8841867" lon="11.7181945"><ele>1214.6000000000001</ele><time>2026-04-09T13:49:46.428Z</time></trkpt><trkpt lat="45.8840871" lon="11.7181836"><ele>1214.0</ele><time>2026-04-09T13:49:47.434Z</time></trkpt><trkpt lat="45.8839838" lon="11.7181737"><ele>1214.0</ele><time>2026-04-09T13:49:48.447Z</time></trkpt><trkpt lat="45.8838703" lon="11.7181863"><ele>1214.0</ele><time>2026-04-09T13:49:49.433Z</time></trkpt><trkpt lat="45.8837541" lon="11.7181976"><ele>1214.0</ele><time>2026-04-09T13:49:50.43Z</time></trkpt><trkpt lat="45.8836358" lon="11.7182265"><ele>1214.0</ele><time>2026-04-09T13:49:51.44Z</time></trkpt><trkpt lat="45.8835117" lon="11.7182576"><ele>1214.0</ele><time>2026-04-09T13:49:52.435Z</time></trkpt><trkpt lat="45.8833816" lon="11.7183174"><ele>1214.0</ele><time>2026-04-09T13:49:53.443Z</time></trkpt><trkpt lat="45.8832501" lon="11.7183799"><ele>1214.0</ele><time>2026-04-09T13:49:54.428Z</time></trkpt><trkpt lat="45.8831181" lon="11.7184423"><ele>1214.0</ele><time>2026-04-09T13:49:55.431Z</time></trkpt><trkpt lat="45.8829884" lon="11.7185112"><ele>1213.5</ele><time>2026-04-09T13:49:56.437Z</time></trkpt><trkpt lat="45.8828615" lon="11.7185877"><ele>1213.0</ele><time>2026-04-09T13:49:57.443Z</time></trkpt><trkpt lat="45.8827377" lon="11.7186756"><ele>1212.5</ele><time>2026-04-09T13:49:58.434Z</time></trkpt><trkpt lat="45.8826158" lon="11.7187645"><ele>1212.0</ele><time>2026-04-09T13:49:59.431Z</time></trkpt><trkpt lat="45.8824923" lon="11.7188487"><ele>1211.5</ele><time>2026-04-09T13:50:00.438Z</time></trkpt><trkpt lat="45.882367" lon="11.7189274"><ele>1211.0</ele><time>2026-04-09T13:50:01.441Z</time></trkpt><trkpt lat="45.8822409" lon="11.7190014"><ele>1210.5</ele><time>2026-04-09T13:50:02.487Z</time></trkpt><trkpt lat="45.8821191" lon="11.719065"><ele>1210.0</ele><time>2026-04-09T13:50:03.432Z</time></trkpt><trkpt lat="45.8820022" lon="11.7191115"><ele>1210.0</ele><time>2026-04-09T13:50:04.439Z</time></trkpt><trkpt lat="45.8818813" lon="11.7191382"><ele>1210.0</ele><time>2026-04-09T13:50:05.431Z</time></trkpt><trkpt lat="45.8817612" lon="11.7191475"><ele>1210.0</ele><time>2026-04-09T13:50:06.429Z</time></trkpt><trkpt lat="45.8816509" lon="11.7191439"><ele>1210.0</ele><time>2026-04-09T13:50:07.434Z</time></trkpt><trkpt lat="45.8815459" lon="11.7191427"><ele>1209.0</ele><time>2026-04-09T13:50:08.433Z</time></trkpt><trkpt lat="45.8814396" lon="11.7191633"><ele>1208.0</ele><time>2026-04-09T13:50:09.425Z</time></trkpt><trkpt lat="45.8813274" lon="11.7192199"><ele>1207.0</ele><time>2026-04-09T13:50:10.436Z</time></trkpt><trkpt lat="45.8812085" lon="11.7192836"><ele>1206.0</ele><time>2026-04-09T13:50:11.431Z</time></trkpt><trkpt lat="45.8810825" lon="11.7193432"><ele>1206.0</ele><time>2026-04-09T13:50:12.425Z</time></trkpt><trkpt lat="45.8809577" lon="11.7193994"><ele>1206.0</ele><time>2026-04-09T13:50:13.436Z</time></trkpt><trkpt lat="45.8808387" lon="11.7194706"><ele>1206.0</ele><time>2026-04-09T13:50:14.427Z</time></trkpt><trkpt lat="45.8807295" lon="11.7195647"><ele>1206.0</ele><time>2026-04-09T13:50:15.426Z</time></trkpt><trkpt lat="45.8806277" lon="11.7196796"><ele>1207.0</ele><time>2026-04-09T13:50:16.433Z</time></trkpt><trkpt lat="45.880532" lon="11.7198074"><ele>1208.0</ele><time>2026-04-09T13:50:17.429Z</time></trkpt><trkpt lat="45.8804418" lon="11.7199338"><ele>1209.0</ele><time>2026-04-09T13:50:18.43Z</time></trkpt><trkpt lat="45.8803486" lon="11.7200534"><ele>1210.0</ele><time>2026-04-09T13:50:19.43Z</time></trkpt><trkpt lat="45.880238" lon="11.7201499"><ele>1210.0</ele><time>2026-04-09T13:50:20.431Z</time></trkpt><trkpt lat="45.8801169" lon="11.720219"><ele>1210.0</ele><time>2026-04-09T13:50:21.422Z</time></trkpt><trkpt lat="45.8799883" lon="11.7202709"><ele>1210.0</ele><time>2026-04-09T13:50:22.437Z</time></trkpt><trkpt lat="45.8798533" lon="11.7203119"><ele>1210.0</ele><time>2026-04-09T13:50:23.435Z</time></trkpt><trkpt lat="45.8797165" lon="11.720344"><ele>1208.25</ele><time>2026-04-09T13:50:24.422Z</time></trkpt><trkpt lat="45.8795789" lon="11.7203712"><ele>1206.5</ele><time>2026-04-09T13:50:25.428Z</time></trkpt><trkpt lat="45.8794414" lon="11.7203955"><ele>1204.75</ele><time>2026-04-09T13:50:26.43Z</time></trkpt><trkpt lat="45.879304" lon="11.7204193"><ele>1203.0</ele><time>2026-04-09T13:50:27.425Z</time></trkpt><trkpt lat="45.8791629" lon="11.7204334"><ele>1201.5</ele><time>2026-04-09T13:50:28.436Z</time></trkpt><trkpt lat="45.8790186" lon="11.7204337"><ele>1200.0</ele><time>2026-04-09T13:50:29.427Z</time></trkpt><trkpt lat="45.8788739" lon="11.7204203"><ele>1198.5</ele><time>2026-04-09T13:50:30.422Z</time></trkpt><trkpt lat="45.8787282" lon="11.7204022"><ele>1197.0</ele><time>2026-04-09T13:50:31.433Z</time></trkpt><trkpt lat="45.8785825" lon="11.7203856"><ele>1197.0</ele><time>2026-04-09T13:50:32.44Z</time></trkpt><trkpt lat="45.8784366" lon="11.7203707"><ele>1197.0</ele><time>2026-04-09T13:50:33.427Z</time></trkpt><trkpt lat="45.8782944" lon="11.7203595"><ele>1197.0</ele><time>2026-04-09T13:50:34.422Z</time></trkpt><trkpt lat="45.878161" lon="11.720351"><ele>1197.0</ele><time>2026-04-09T13:50:35.434Z</time></trkpt><trkpt lat="45.8780356" lon="11.7203414"><ele>1197.25</ele><time>2026-04-09T13:50:36.428Z</time></trkpt><trkpt lat="45.877918" lon="11.7203222"><ele>1197.5</ele><time>2026-04-09T13:50:37.424Z</time></trkpt><trkpt lat="45.877802" lon="11.7202832"><ele>1197.75</ele><time>2026-04-09T13:50:38.425Z</time></trkpt><trkpt lat="45.8776911" lon="11.7202203"><ele>1198.0</ele><time>2026-04-09T13:50:39.435Z</time></trkpt><trkpt lat="45.8775838" lon="11.7201594"><ele>1197.0</ele><time>2026-04-09T13:50:40.429Z</time></trkpt><trkpt lat="45.8774863" lon="11.7200838"><ele>1196.0</ele><time>2026-04-09T13:50:41.429Z</time></trkpt><trkpt lat="45.8773925" lon="11.7200022"><ele>1195.0</ele><time>2026-04-09T13:50:42.442Z</time></trkpt><trkpt lat="45.8772899" lon="11.7199303"><ele>1194.0</ele><time>2026-04-09T13:50:43.426Z</time></trkpt><trkpt lat="45.8771815" lon="11.7198744"><ele>1194.0</ele><time>2026-04-09T13:50:44.437Z</time></trkpt><trkpt lat="45.8770664" lon="11.7198277"><ele>1194.0</ele><time>2026-04-09T13:50:45.426Z</time></trkpt><trkpt lat="45.8769437" lon="11.7197886"><ele>1194.0</ele><time>2026-04-09T13:50:46.428Z</time></trkpt><trkpt lat="45.8768243" lon="11.7197554"><ele>1194.0</ele><time>2026-04-09T13:50:47.43Z</time></trkpt><trkpt lat="45.8767055" lon="11.7197279"><ele>1193.5</ele><time>2026-04-09T13:50:48.438Z</time></trkpt><trkpt lat="45.8765831" lon="11.7197022"><ele>1193.0</ele><time>2026-04-09T13:50:49.428Z</time></trkpt><trkpt lat="45.8764577" lon="11.7196824"><ele>1192.5</ele><time>2026-04-09T13:50:50.44Z</time></trkpt><trkpt lat="45.8763315" lon="11.7196702"><ele>1192.0</ele><time>2026-04-09T13:50:51.44Z</time></trkpt><trkpt lat="45.8762041" lon="11.7196719"><ele>1192.0</ele><time>2026-04-09T13:50:52.43Z</time></trkpt><trkpt lat="45.8760769" lon="11.7196791"><ele>1192.0</ele><time>2026-04-09T13:50:53.43Z</time></trkpt><trkpt lat="45.8759528" lon="11.7196953"><ele>1192.0</ele><time>2026-04-09T13:50:54.433Z</time></trkpt><trkpt lat="45.875838" lon="11.7197202"><ele>1192.0</ele><time>2026-04-09T13:50:55.434Z</time></trkpt><trkpt lat="45.8757322" lon="11.7197534"><ele>1192.0</ele><time>2026-04-09T13:50:56.436Z</time></trkpt><trkpt lat="45.8756249" lon="11.7198023"><ele>1192.0</ele><time>2026-04-09T13:50:57.431Z</time></trkpt><trkpt lat="45.8755199" lon="11.7198733"><ele>1192.0</ele><time>2026-04-09T13:50:58.427Z</time></trkpt><trkpt lat="45.8754252" lon="11.7199727"><ele>1192.0</ele><time>2026-04-09T13:50:59.43Z</time></trkpt><trkpt lat="45.8753409" lon="11.7200953"><ele>1192.0</ele><time>2026-04-09T13:51:00.431Z</time></trkpt><trkpt lat="45.8752527" lon="11.7202179"><ele>1192.0</ele><time>2026-04-09T13:51:01.443Z</time></trkpt><trkpt lat="45.8751518" lon="11.7203264"><ele>1192.0</ele><time>2026-04-09T13:51:02.426Z</time></trkpt><trkpt lat="45.8750399" lon="11.7204114"><ele>1192.0</ele><time>2026-04-09T13:51:03.434Z</time></trkpt><trkpt lat="45.8749215" lon="11.720474"><ele>1191.0</ele><time>2026-04-09T13:51:04.43Z</time></trkpt><trkpt lat="45.8748026" lon="11.7205248"><ele>1190.0</ele><time>2026-04-09T13:51:05.44Z</time></trkpt><trkpt lat="45.87469" lon="11.720561"><ele>1189.0</ele><time>2026-04-09T13:51:06.427Z</time></trkpt><trkpt lat="45.8745832" lon="11.7205682"><ele>1188.0</ele><time>2026-04-09T13:51:07.442Z</time></trkpt><trkpt lat="45.8744826" lon="11.7205742"><ele>1187.0</ele><time>2026-04-09T13:51:08.429Z</time></trkpt><trkpt lat="45.8743805" lon="11.7205087"><ele>1187.0</ele><time>2026-04-09T13:51:09.427Z</time></trkpt><trkpt lat="45.8742776" lon="11.7204246"><ele>1187.0</ele><time>2026-04-09T13:51:10.431Z</time></trkpt><trkpt lat="45.8741666" lon="11.720344"><ele>1187.0</ele><time>2026-04-09T13:51:11.444Z</time></trkpt><trkpt lat="45.8740521" lon="11.7202671"><ele>1187.0</ele><time>2026-04-09T13:51:12.427Z</time></trkpt><trkpt lat="45.8739405" lon="11.720194"><ele>1186.2</ele><time>2026-04-09T13:51:13.435Z</time></trkpt><trkpt lat="45.8738367" lon="11.7201291"><ele>1185.4</ele><time>2026-04-09T13:51:14.429Z</time></trkpt><trkpt lat="45.8737365" lon="11.7200757"><ele>1184.6</ele><time>2026-04-09T13:51:15.422Z</time></trkpt><trkpt lat="45.8736402" lon="11.7200375"><ele>1183.8</ele><time>2026-04-09T13:51:16.448Z</time></trkpt><trkpt lat="45.8735372" lon="11.7200213"><ele>1183.0</ele><time>2026-04-09T13:51:17.429Z</time></trkpt><trkpt lat="45.8734268" lon="11.7200356"><ele>1183.0</ele><time>2026-04-09T13:51:18.425Z</time></trkpt><trkpt lat="45.8733126" lon="11.7200837"><ele>1183.0</ele><time>2026-04-09T13:51:19.435Z</time></trkpt><trkpt lat="45.8731967" lon="11.7201519"><ele>1183.0</ele><time>2026-04-09T13:51:20.43Z</time></trkpt><trkpt lat="45.8730772" lon="11.7202238"><ele>1183.0</ele><time>2026-04-09T13:51:21.419Z</time></trkpt><trkpt lat="45.8729488" lon="11.7202934"><ele>1182.5</ele><time>2026-04-09T13:51:22.425Z</time></trkpt><trkpt lat="45.8728119" lon="11.7203549"><ele>1182.0</ele><time>2026-04-09T13:51:23.433Z</time></trkpt><trkpt lat="45.8726682" lon="11.7203975"><ele>1181.5</ele><time>2026-04-09T13:51:24.429Z</time></trkpt><trkpt lat="45.8725241" lon="11.7204385"><ele>1181.0</ele><time>2026-04-09T13:51:25.433Z</time></trkpt><trkpt lat="45.8723805" lon="11.7204848"><ele>1179.5</ele><time>2026-04-09T13:51:26.431Z</time></trkpt><trkpt lat="45.8722549" lon="11.7205378"><ele>1178.0</ele><time>2026-04-09T13:51:27.432Z</time></trkpt><trkpt lat="45.872153" lon="11.7206054"><ele>1176.5</ele><time>2026-04-09T13:51:28.431Z</time></trkpt><trkpt lat="45.8720641" lon="11.7207087"><ele>1175.0</ele><time>2026-04-09T13:51:29.432Z</time></trkpt><trkpt lat="45.8719909" lon="11.7208478"><ele>1175.0</ele><time>2026-04-09T13:51:30.43Z</time></trkpt><trkpt lat="45.8719273" lon="11.7210048"><ele>1175.0</ele><time>2026-04-09T13:51:31.429Z</time></trkpt><trkpt lat="45.8718709" lon="11.7211569"><ele>1175.0</ele><time>2026-04-09T13:51:32.433Z</time></trkpt><trkpt lat="45.8718161" lon="11.7212958"><ele>1175.0</ele><time>2026-04-09T13:51:33.423Z</time></trkpt><trkpt lat="45.8717554" lon="11.7214073"><ele>1173.2</ele><time>2026-04-09T13:51:34.464Z</time></trkpt><trkpt lat="45.8716738" lon="11.7214881"><ele>1171.4</ele><time>2026-04-09T13:51:35.437Z</time></trkpt><trkpt lat="45.8715692" lon="11.7215253"><ele>1169.6</ele><time>2026-04-09T13:51:36.432Z</time></trkpt><trkpt lat="45.87147" lon="11.7215593"><ele>1167.8</ele><time>2026-04-09T13:51:37.439Z</time></trkpt><trkpt lat="45.8713689" lon="11.7215311"><ele>1166.0</ele><time>2026-04-09T13:51:38.426Z</time></trkpt><trkpt lat="45.8712559" lon="11.7215043"><ele>1166.0</ele><time>2026-04-09T13:51:39.42Z</time></trkpt><trkpt lat="45.8711389" lon="11.7215029"><ele>1166.0</ele><time>2026-04-09T13:51:40.433Z</time></trkpt><trkpt lat="45.8710373" lon="11.7215175"><ele>1166.0</ele><time>2026-04-09T13:51:41.431Z</time></trkpt><trkpt lat="45.8709438" lon="11.7215307"><ele>1166.0</ele><time>2026-04-09T13:51:42.423Z</time></trkpt><trkpt lat="45.8708749" lon="11.7216059"><ele>1166.0</ele><time>2026-04-09T13:51:43.419Z</time></trkpt><trkpt lat="45.8708084" lon="11.7217188"><ele>1164.6</ele><time>2026-04-09T13:51:44.434Z</time></trkpt><trkpt lat="45.8707445" lon="11.7218341"><ele>1163.1999999999998</ele><time>2026-04-09T13:51:45.439Z</time></trkpt><trkpt lat="45.8706723" lon="11.7219286"><ele>1161.8000000000002</ele><time>2026-04-09T13:51:46.429Z</time></trkpt><trkpt lat="45.8706046" lon="11.7220156"><ele>1160.4</ele><time>2026-04-09T13:51:47.437Z</time></trkpt><trkpt lat="45.8705219" lon="11.72206"><ele>1159.0</ele><time>2026-04-09T13:51:48.42Z</time></trkpt><trkpt lat="45.8704289" lon="11.7220603"><ele>1158.75</ele><time>2026-04-09T13:51:49.422Z</time></trkpt><trkpt lat="45.8703215" lon="11.7220306"><ele>1158.5</ele><time>2026-04-09T13:51:50.444Z</time></trkpt><trkpt lat="45.8702009" lon="11.722009"><ele>1158.25</ele><time>2026-04-09T13:51:51.435Z</time></trkpt><trkpt lat="45.8700875" lon="11.7220187"><ele>1158.0</ele><time>2026-04-09T13:51:52.436Z</time></trkpt><trkpt lat="45.8699736" lon="11.7220623"><ele>1155.0</ele><time>2026-04-09T13:51:53.427Z</time></trkpt><trkpt lat="45.8698565" lon="11.7221084"><ele>1152.0</ele><time>2026-04-09T13:51:54.432Z</time></trkpt><trkpt lat="45.8697489" lon="11.722205"><ele>1149.0</ele><time>2026-04-09T13:51:55.433Z</time></trkpt><trkpt lat="45.8696494" lon="11.7223173"><ele>1146.0</ele><time>2026-04-09T13:51:56.43Z</time></trkpt><trkpt lat="45.8695525" lon="11.7224429"><ele>1146.0</ele><time>2026-04-09T13:51:57.435Z</time></trkpt><trkpt lat="45.8694507" lon="11.7225781"><ele>1146.0</ele><time>2026-04-09T13:51:58.436Z</time></trkpt><trkpt lat="45.8693506" lon="11.7227075"><ele>1146.0</ele><time>2026-04-09T13:51:59.434Z</time></trkpt><trkpt lat="45.8692563" lon="11.7228317"><ele>1146.0</ele><time>2026-04-09T13:52:00.447Z</time></trkpt><trkpt lat="45.869166" lon="11.7229514"><ele>1145.0</ele><time>2026-04-09T13:52:01.446Z</time></trkpt><trkpt lat="45.8690791" lon="11.7230646"><ele>1144.0</ele><time>2026-04-09T13:52:02.437Z</time></trkpt><trkpt lat="45.8689997" lon="11.7231853"><ele>1143.0</ele><time>2026-04-09T13:52:03.43Z</time></trkpt><trkpt lat="45.868936" lon="11.7233188"><ele>1142.0</ele><time>2026-04-09T13:52:04.443Z</time></trkpt><trkpt lat="45.868894" lon="11.7234742"><ele>1142.5</ele><time>2026-04-09T13:52:05.437Z</time></trkpt><trkpt lat="45.8688766" lon="11.7236487"><ele>1143.0</ele><time>2026-04-09T13:52:06.432Z</time></trkpt><trkpt lat="45.8688738" lon="11.7238378"><ele>1143.5</ele><time>2026-04-09T13:52:07.451Z</time></trkpt><trkpt lat="45.8688773" lon="11.7240354"><ele>1144.0</ele><time>2026-04-09T13:52:08.437Z</time></trkpt><trkpt lat="45.868885" lon="11.7242357"><ele>1144.75</ele><time>2026-04-09T13:52:09.43Z</time></trkpt><trkpt lat="45.8688923" lon="11.7244274"><ele>1145.5</ele><time>2026-04-09T13:52:10.432Z</time></trkpt><trkpt lat="45.8688927" lon="11.7246107"><ele>1146.25</ele><time>2026-04-09T13:52:11.443Z</time></trkpt><trkpt lat="45.8688736" lon="11.724787"><ele>1147.0</ele><time>2026-04-09T13:52:12.435Z</time></trkpt><trkpt lat="45.868831" lon="11.724948"><ele>1147.0</ele><time>2026-04-09T13:52:13.427Z</time></trkpt><trkpt lat="45.8687735" lon="11.7250805"><ele>1147.0</ele><time>2026-04-09T13:52:14.455Z</time></trkpt><trkpt lat="45.8687056" lon="11.7251813"><ele>1147.0</ele><time>2026-04-09T13:52:15.443Z</time></trkpt><trkpt lat="45.8686167" lon="11.7252429"><ele>1147.0</ele><time>2026-04-09T13:52:16.431Z</time></trkpt><trkpt lat="45.8685138" lon="11.7252527"><ele>1147.0</ele><time>2026-04-09T13:52:17.439Z</time></trkpt><trkpt lat="45.8683965" lon="11.7252266"><ele>1145.25</ele><time>2026-04-09T13:52:18.444Z</time></trkpt><trkpt lat="45.868277" lon="11.7251952"><ele>1143.5</ele><time>2026-04-09T13:52:19.424Z</time></trkpt><trkpt lat="45.8681498" lon="11.7251817"><ele>1141.75</ele><time>2026-04-09T13:52:20.44Z</time></trkpt><trkpt lat="45.8680307" lon="11.7251835"><ele>1140.0</ele><time>2026-04-09T13:52:21.448Z</time></trkpt><trkpt lat="45.8679235" lon="11.7252088"><ele>1141.25</ele><time>2026-04-09T13:52:22.432Z</time></trkpt><trkpt lat="45.8678214" lon="11.7252767"><ele>1142.5</ele><time>2026-04-09T13:52:23.431Z</time></trkpt><trkpt lat="45.8677254" lon="11.7253862"><ele>1143.75</ele><time>2026-04-09T13:52:24.433Z</time></trkpt><trkpt lat="45.8676329" lon="11.7255216"><ele>1145.0</ele><time>2026-04-09T13:52:25.437Z</time></trkpt><trkpt lat="45.8675392" lon="11.7256632"><ele>1144.0</ele><time>2026-04-09T13:52:26.432Z</time></trkpt><trkpt lat="45.8674442" lon="11.7258034"><ele>1143.0</ele><time>2026-04-09T13:52:27.442Z</time></trkpt><trkpt lat="45.8673533" lon="11.725936"><ele>1142.0</ele><time>2026-04-09T13:52:28.432Z</time></trkpt><trkpt lat="45.867266" lon="11.7260547"><ele>1141.0</ele><time>2026-04-09T13:52:29.425Z</time></trkpt><trkpt lat="45.8671741" lon="11.7261478"><ele>1141.0</ele><time>2026-04-09T13:52:30.438Z</time></trkpt><trkpt lat="45.8670883" lon="11.7262346"><ele>1141.0</ele><time>2026-04-09T13:52:31.442Z</time></trkpt><trkpt lat="45.8669749" lon="11.7262584"><ele>1141.0</ele><time>2026-04-09T13:52:32.451Z</time></trkpt><trkpt lat="45.8668614" lon="11.7262458"><ele>1141.0</ele><time>2026-04-09T13:52:33.424Z</time></trkpt><trkpt lat="45.8667567" lon="11.7262022"><ele>1141.0</ele><time>2026-04-09T13:52:34.427Z</time></trkpt><trkpt lat="45.8666651" lon="11.7261193"><ele>1137.8</ele><time>2026-04-09T13:52:35.437Z</time></trkpt><trkpt lat="45.8665896" lon="11.7259983"><ele>1134.6</ele><time>2026-04-09T13:52:36.439Z</time></trkpt><trkpt lat="45.8665182" lon="11.7258707"><ele>1131.4</ele><time>2026-04-09T13:52:37.436Z</time></trkpt><trkpt lat="45.8664516" lon="11.7257582"><ele>1128.2</ele><time>2026-04-09T13:52:38.431Z</time></trkpt><trkpt lat="45.8663727" lon="11.7256705"><ele>1125.0</ele><time>2026-04-09T13:52:39.429Z</time></trkpt><trkpt lat="45.8662833" lon="11.7256178"><ele>1125.0</ele><time>2026-04-09T13:52:40.446Z</time></trkpt><trkpt lat="45.8661759" lon="11.7256136"><ele>1125.0</ele><time>2026-04-09T13:52:41.435Z</time></trkpt><trkpt lat="45.8660605" lon="11.7256462"><ele>1125.0</ele><time>2026-04-09T13:52:42.433Z</time></trkpt><trkpt lat="45.8659412" lon="11.7256821"><ele>1125.0</ele><time>2026-04-09T13:52:43.428Z</time></trkpt><trkpt lat="45.8658181" lon="11.7256853"><ele>1123.25</ele><time>2026-04-09T13:52:44.435Z</time></trkpt><trkpt lat="45.865698" lon="11.7256547"><ele>1121.5</ele><time>2026-04-09T13:52:45.424Z</time></trkpt><trkpt lat="45.8655825" lon="11.7256293"><ele>1119.75</ele><time>2026-04-09T13:52:46.425Z</time></trkpt><trkpt lat="45.8654704" lon="11.7256051"><ele>1118.0</ele><time>2026-04-09T13:52:47.434Z</time></trkpt><trkpt lat="45.865365" lon="11.7256502"><ele>1118.0</ele><time>2026-04-09T13:52:48.425Z</time></trkpt><trkpt lat="45.8652651" lon="11.7256985"><ele>1118.0</ele><time>2026-04-09T13:52:49.435Z</time></trkpt><trkpt lat="45.8651862" lon="11.7257188"><ele>1118.0</ele><time>2026-04-09T13:52:50.433Z</time></trkpt><trkpt lat="45.865113" lon="11.7257389"><ele>1118.0</ele><time>2026-04-09T13:52:51.428Z</time></trkpt><trkpt lat="45.8650382" lon="11.725702"><ele>1118.0</ele><time>2026-04-09T13:52:52.425Z</time></trkpt><trkpt lat="45.8649629" lon="11.7256516"><ele>1118.0</ele><time>2026-04-09T13:52:53.434Z</time></trkpt><trkpt lat="45.8648812" lon="11.725607"><ele>1116.6</ele><time>2026-04-09T13:52:54.425Z</time></trkpt><trkpt lat="45.8647883" lon="11.7255802"><ele>1115.1999999999998</ele><time>2026-04-09T13:52:55.429Z</time></trkpt><trkpt lat="45.8646884" lon="11.7255583"><ele>1113.8</ele><time>2026-04-09T13:52:56.464Z</time></trkpt><trkpt lat="45.8645845" lon="11.7256174"><ele>1112.3999999999999</ele><time>2026-04-09T13:52:57.433Z</time></trkpt><trkpt lat="45.86448" lon="11.7257125"><ele>1111.0</ele><time>2026-04-09T13:52:58.446Z</time></trkpt><trkpt lat="45.8643809" lon="11.725828"><ele>1110.0</ele><time>2026-04-09T13:52:59.438Z</time></trkpt><trkpt lat="45.8642771" lon="11.7259599"><ele>1109.0</ele><time>2026-04-09T13:53:00.534Z</time></trkpt><trkpt lat="45.8641748" lon="11.7261036"><ele>1108.0</ele><time>2026-04-09T13:53:01.458Z</time></trkpt><trkpt lat="45.8640837" lon="11.7262514"><ele>1107.0</ele><time>2026-04-09T13:53:02.437Z</time></trkpt><trkpt lat="45.864007" lon="11.7264008"><ele>1107.0</ele><time>2026-04-09T13:53:03.449Z</time></trkpt><trkpt lat="45.8639292" lon="11.7265506"><ele>1107.0</ele><time>2026-04-09T13:53:04.447Z</time></trkpt><trkpt lat="45.8638553" lon="11.7267005"><ele>1107.0</ele><time>2026-04-09T13:53:05.438Z</time></trkpt><trkpt lat="45.8637769" lon="11.7268322"><ele>1107.0</ele><time>2026-04-09T13:53:06.425Z</time></trkpt><trkpt lat="45.8636897" lon="11.7269546"><ele>1107.0</ele><time>2026-04-09T13:53:07.461Z</time></trkpt><trkpt lat="45.8636072" lon="11.7270822"><ele>1107.0</ele><time>2026-04-09T13:53:08.485Z</time></trkpt><trkpt lat="45.8635428" lon="11.7272166"><ele>1107.0</ele><time>2026-04-09T13:53:09.428Z</time></trkpt><trkpt lat="45.8634868" lon="11.7273499"><ele>1107.0</ele><time>2026-04-09T13:53:10.443Z</time></trkpt><trkpt lat="45.863428" lon="11.7274674"><ele>1107.0</ele><time>2026-04-09T13:53:11.459Z</time></trkpt><trkpt lat="45.8633551" lon="11.7275565"><ele>1105.0</ele><time>2026-04-09T13:53:12.475Z</time></trkpt><trkpt lat="45.8632662" lon="11.7276139"><ele>1103.0</ele><time>2026-04-09T13:53:13.459Z</time></trkpt><trkpt lat="45.8631746" lon="11.7276718"><ele>1101.0</ele><time>2026-04-09T13:53:14.455Z</time></trkpt><trkpt lat="45.8630672" lon="11.7276911"><ele>1099.0</ele><time>2026-04-09T13:53:15.45Z</time></trkpt><trkpt lat="45.8629506" lon="11.7276729"><ele>1097.0</ele><time>2026-04-09T13:53:16.441Z</time></trkpt><trkpt lat="45.8628334" lon="11.7276331"><ele>1097.0</ele><time>2026-04-09T13:53:17.454Z</time></trkpt><trkpt lat="45.8627062" lon="11.727562"><ele>1097.0</ele><time>2026-04-09T13:53:18.445Z</time></trkpt><trkpt lat="45.8625872" lon="11.7274849"><ele>1097.0</ele><time>2026-04-09T13:53:19.444Z</time></trkpt><trkpt lat="45.86246" lon="11.7274345"><ele>1097.0</ele><time>2026-04-09T13:53:20.439Z</time></trkpt><trkpt lat="45.8623439" lon="11.7273901"><ele>1096.4</ele><time>2026-04-09T13:53:21.432Z</time></trkpt><trkpt lat="45.8622491" lon="11.7273646"><ele>1095.8000000000002</ele><time>2026-04-09T13:53:22.455Z</time></trkpt><trkpt lat="45.8621574" lon="11.727342"><ele>1095.2</ele><time>2026-04-09T13:53:23.445Z</time></trkpt><trkpt lat="45.8620787" lon="11.7273978"><ele>1094.6000000000001</ele><time>2026-04-09T13:53:24.442Z</time></trkpt><trkpt lat="45.8620109" lon="11.7274953"><ele>1094.0</ele><time>2026-04-09T13:53:25.43Z</time></trkpt><trkpt lat="45.8619463" lon="11.7276158"><ele>1094.0</ele><time>2026-04-09T13:53:26.443Z</time></trkpt><trkpt lat="45.8618636" lon="11.7277264"><ele>1094.0</ele><time>2026-04-09T13:53:27.454Z</time></trkpt><trkpt lat="45.8617631" lon="11.7278127"><ele>1094.0</ele><time>2026-04-09T13:53:28.432Z</time></trkpt><trkpt lat="45.8616361" lon="11.727857"><ele>1094.0</ele><time>2026-04-09T13:53:29.431Z</time></trkpt><trkpt lat="45.8615009" lon="11.7278902"><ele>1094.75</ele><time>2026-04-09T13:53:30.433Z</time></trkpt><trkpt lat="45.8613705" lon="11.727938"><ele>1095.5</ele><time>2026-04-09T13:53:31.432Z</time></trkpt><trkpt lat="45.8612331" lon="11.7279882"><ele>1096.25</ele><time>2026-04-09T13:53:32.44Z</time></trkpt><trkpt lat="45.861097" lon="11.7280883"><ele>1097.0</ele><time>2026-04-09T13:53:33.46Z</time></trkpt><trkpt lat="45.8609605" lon="11.728205"><ele>1094.6666666666667</ele><time>2026-04-09T13:53:34.439Z</time></trkpt><trkpt lat="45.8608344" lon="11.7283551"><ele>1092.3333333333333</ele><time>2026-04-09T13:53:35.429Z</time></trkpt><trkpt lat="45.8607202" lon="11.7285135"><ele>1090.0</ele><time>2026-04-09T13:53:36.462Z</time></trkpt><trkpt lat="45.860611" lon="11.7286572"><ele>1089.6</ele><time>2026-04-09T13:53:37.438Z</time></trkpt><trkpt lat="45.8605352" lon="11.7287889"><ele>1089.2</ele><time>2026-04-09T13:53:38.431Z</time></trkpt><trkpt lat="45.8604666" lon="11.7289083"><ele>1088.8</ele><time>2026-04-09T13:53:39.441Z</time></trkpt><trkpt lat="45.8604345" lon="11.7290545"><ele>1088.4</ele><time>2026-04-09T13:53:40.429Z</time></trkpt><trkpt lat="45.8604107" lon="11.7292051"><ele>1088.0</ele><time>2026-04-09T13:53:41.424Z</time></trkpt><trkpt lat="45.8604442" lon="11.7293795"><ele>1088.25</ele><time>2026-04-09T13:53:42.426Z</time></trkpt><trkpt lat="45.8604387" lon="11.7295672"><ele>1088.5</ele><time>2026-04-09T13:53:43.429Z</time></trkpt><trkpt lat="45.8603895" lon="11.7297444"><ele>1088.75</ele><time>2026-04-09T13:53:44.421Z</time></trkpt><trkpt lat="45.8603121" lon="11.7298948"><ele>1089.0</ele><time>2026-04-09T13:53:45.433Z</time></trkpt><trkpt lat="45.8602132" lon="11.7300185"><ele>1085.75</ele><time>2026-04-09T13:53:46.431Z</time></trkpt><trkpt lat="45.8600964" lon="11.7301058"><ele>1082.5</ele><time>2026-04-09T13:53:47.423Z</time></trkpt><trkpt lat="45.8599639" lon="11.7301605"><ele>1079.25</ele><time>2026-04-09T13:53:48.429Z</time></trkpt><trkpt lat="45.8598262" lon="11.7302044"><ele>1076.0</ele><time>2026-04-09T13:53:49.449Z</time></trkpt><trkpt lat="45.8596896" lon="11.7302516"><ele>1075.5</ele><time>2026-04-09T13:53:50.432Z</time></trkpt><trkpt lat="45.8595587" lon="11.7303054"><ele>1075.0</ele><time>2026-04-09T13:53:51.436Z</time></trkpt><trkpt lat="45.8594387" lon="11.7303855"><ele>1074.5</ele><time>2026-04-09T13:53:52.436Z</time></trkpt><trkpt lat="45.8593187" lon="11.7304861"><ele>1074.0</ele><time>2026-04-09T13:53:53.437Z</time></trkpt><trkpt lat="45.8592033" lon="11.7306153"><ele>1073.3333333333333</ele><time>2026-04-09T13:53:54.443Z</time></trkpt><trkpt lat="45.8590849" lon="11.730753"><ele>1072.6666666666665</ele><time>2026-04-09T13:53:55.443Z</time></trkpt><trkpt lat="45.8589783" lon="11.7309183"><ele>1072.0</ele><time>2026-04-09T13:53:56.438Z</time></trkpt><trkpt lat="45.8588612" lon="11.7310641"><ele>1072.0</ele><time>2026-04-09T13:53:57.424Z</time></trkpt><trkpt lat="45.8587607" lon="11.7311998"><ele>1072.0</ele><time>2026-04-09T13:53:58.434Z</time></trkpt><trkpt lat="45.8586726" lon="11.7313226"><ele>1072.0</ele><time>2026-04-09T13:53:59.431Z</time></trkpt><trkpt lat="45.858594" lon="11.7314295"><ele>1072.0</ele><time>2026-04-09T13:54:00.432Z</time></trkpt><trkpt lat="45.8585309" lon="11.7315136"><ele>1072.0</ele><time>2026-04-09T13:54:01.426Z</time></trkpt><trkpt lat="45.8584859" lon="11.7315772"><ele>1072.0</ele><time>2026-04-09T13:54:02.431Z</time></trkpt><trkpt lat="45.8584192" lon="11.731656"><ele>1072.0</ele><time>2026-04-09T13:54:04.428Z</time></trkpt><trkpt lat="45.8584216" lon="11.7317605"><ele>1072.0</ele><time>2026-04-09T13:54:25.463Z</time></trkpt><trkpt lat="45.8584979" lon="11.7316844"><ele>1072.0</ele><time>2026-04-09T13:54:27.448Z</time></trkpt><trkpt lat="45.8585488" lon="11.7316019"><ele>1072.0</ele><time>2026-04-09T13:54:28.422Z</time></trkpt><trkpt lat="45.8586095" lon="11.7315057"><ele>1072.0</ele><time>2026-04-09T13:54:29.449Z</time></trkpt><trkpt lat="45.8586742" lon="11.7313998"><ele>1072.0</ele><time>2026-04-09T13:54:30.428Z</time></trkpt><trkpt lat="45.858751" lon="11.7312928"><ele>1072.0</ele><time>2026-04-09T13:54:31.431Z</time></trkpt><trkpt lat="45.8588376" lon="11.7311679"><ele>1072.0</ele><time>2026-04-09T13:54:32.429Z</time></trkpt><trkpt lat="45.8589195" lon="11.7310542"><ele>1072.0</ele><time>2026-04-09T13:54:33.424Z</time></trkpt><trkpt lat="45.8590042" lon="11.7309376"><ele>1072.5</ele><time>2026-04-09T13:54:34.424Z</time></trkpt><trkpt lat="45.8590918" lon="11.7308119"><ele>1073.0</ele><time>2026-04-09T13:54:35.424Z</time></trkpt><trkpt lat="45.8591801" lon="11.7306849"><ele>1073.5</ele><time>2026-04-09T13:54:36.431Z</time></trkpt><trkpt lat="45.8592735" lon="11.7305612"><ele>1074.0</ele><time>2026-04-09T13:54:37.427Z</time></trkpt><trkpt lat="45.8593743" lon="11.7304567"><ele>1074.0</ele><time>2026-04-09T13:54:38.428Z</time></trkpt><trkpt lat="45.8594734" lon="11.730382"><ele>1074.0</ele><time>2026-04-09T13:54:39.489Z</time></trkpt><trkpt lat="45.8595645" lon="11.7303334"><ele>1074.0</ele><time>2026-04-09T13:54:40.437Z</time></trkpt><trkpt lat="45.8596394" lon="11.7303164"><ele>1074.0</ele><time>2026-04-09T13:54:41.431Z</time></trkpt><trkpt lat="45.8597074" lon="11.7303049"><ele>1074.0</ele><time>2026-04-09T13:54:43.437Z</time></trkpt><trkpt lat="45.8596044" lon="11.7302733"><ele>1074.0</ele><time>2026-04-09T13:54:53.457Z</time></trkpt><trkpt lat="45.8595343" lon="11.7302937"><ele>1074.0</ele><time>2026-04-09T13:54:54.432Z</time></trkpt><trkpt lat="45.8594536" lon="11.7303541"><ele>1074.0</ele><time>2026-04-09T13:54:55.427Z</time></trkpt><trkpt lat="45.8593603" lon="11.7304374"><ele>1074.0</ele><time>2026-04-09T13:54:56.427Z</time></trkpt><trkpt lat="45.8592611" lon="11.730542"><ele>1074.0</ele><time>2026-04-09T13:54:57.436Z</time></trkpt><trkpt lat="45.8591631" lon="11.7306662"><ele>1073.5</ele><time>2026-04-09T13:54:58.431Z</time></trkpt><trkpt lat="45.8590635" lon="11.7308005"><ele>1073.0</ele><time>2026-04-09T13:54:59.428Z</time></trkpt><trkpt lat="45.8589631" lon="11.7309442"><ele>1072.5</ele><time>2026-04-09T13:55:00.435Z</time></trkpt><trkpt lat="45.858861" lon="11.7310856"><ele>1072.0</ele><time>2026-04-09T13:55:01.44Z</time></trkpt><trkpt lat="45.8587648" lon="11.7312216"><ele>1072.0</ele><time>2026-04-09T13:55:02.431Z</time></trkpt><trkpt lat="45.858673" lon="11.7313452"><ele>1072.0</ele><time>2026-04-09T13:55:03.425Z</time></trkpt><trkpt lat="45.8585923" lon="11.7314528"><ele>1072.0</ele><time>2026-04-09T13:55:04.428Z</time></trkpt><trkpt lat="45.8585249" lon="11.7315437"><ele>1072.0</ele><time>2026-04-09T13:55:05.432Z</time></trkpt><trkpt lat="45.8584645" lon="11.7316338"><ele>1072.0</ele><time>2026-04-09T13:55:06.439Z</time></trkpt><trkpt lat="45.8584295" lon="11.7317425"><ele>1071.3333333333333</ele><time>2026-04-09T13:55:07.425Z</time></trkpt><trkpt lat="45.8584047" lon="11.7318619"><ele>1070.6666666666665</ele><time>2026-04-09T13:55:08.428Z</time></trkpt><trkpt lat="45.8583914" lon="11.7319881"><ele>1070.0</ele><time>2026-04-09T13:55:09.427Z</time></trkpt><trkpt lat="45.858387" lon="11.7321013"><ele>1069.3333333333333</ele><time>2026-04-09T13:55:10.427Z</time></trkpt><trkpt lat="45.8583698" lon="11.7322346"><ele>1068.6666666666667</ele><time>2026-04-09T13:55:12.418Z</time></trkpt><trkpt lat="45.8584038" lon="11.732326"><ele>1068.0</ele><time>2026-04-09T13:55:15.432Z</time></trkpt><trkpt lat="45.8585013" lon="11.732341"><ele>1069.3333333333333</ele><time>2026-04-09T13:55:17.432Z</time></trkpt><trkpt lat="45.8585701" lon="11.732345"><ele>1070.6666666666667</ele><time>2026-04-09T13:55:18.428Z</time></trkpt><trkpt lat="45.8586423" lon="11.7323465"><ele>1072.0</ele><time>2026-04-09T13:55:19.422Z</time></trkpt><trkpt lat="45.858726" lon="11.7323983"><ele>1073.3333333333335</ele><time>2026-04-09T13:55:20.427Z</time></trkpt><trkpt lat="45.8588146" lon="11.732459"><ele>1074.6666666666667</ele><time>2026-04-09T13:55:21.429Z</time></trkpt><trkpt lat="45.8588887" lon="11.7325667"><ele>1076.0</ele><time>2026-04-09T13:55:22.429Z</time></trkpt><trkpt lat="45.8589651" lon="11.7326879"><ele>1076.2</ele><time>2026-04-09T13:55:23.438Z</time></trkpt><trkpt lat="45.8590418" lon="11.732819"><ele>1076.3999999999999</ele><time>2026-04-09T13:55:24.428Z</time></trkpt><trkpt lat="45.8591152" lon="11.7329448"><ele>1076.6</ele><time>2026-04-09T13:55:25.428Z</time></trkpt><trkpt lat="45.8591625" lon="11.7330562"><ele>1076.8</ele><time>2026-04-09T13:55:26.422Z</time></trkpt><trkpt lat="45.8591956" lon="11.7331746"><ele>1077.0</ele><time>2026-04-09T13:55:27.427Z</time></trkpt><trkpt lat="45.8591687" lon="11.7333183"><ele>1077.0</ele><time>2026-04-09T13:55:28.43Z</time></trkpt><trkpt lat="45.8590999" lon="11.7334231"><ele>1077.0</ele><time>2026-04-09T13:55:29.433Z</time></trkpt><trkpt lat="45.8590219" lon="11.7335075"><ele>1077.0</ele><time>2026-04-09T13:55:30.427Z</time></trkpt><trkpt lat="45.8589318" lon="11.733594"><ele>1077.0</ele><time>2026-04-09T13:55:31.437Z</time></trkpt><trkpt lat="45.8588906" lon="11.73372"><ele>1077.0</ele><time>2026-04-09T13:55:32.434Z</time></trkpt><trkpt lat="45.8588701" lon="11.7338729"><ele>1079.75</ele><time>2026-04-09T13:55:33.424Z</time></trkpt><trkpt lat="45.8588497" lon="11.7340242"><ele>1082.5</ele><time>2026-04-09T13:55:34.429Z</time></trkpt><trkpt lat="45.8588288" lon="11.7341859"><ele>1085.25</ele><time>2026-04-09T13:55:35.432Z</time></trkpt><trkpt lat="45.8588012" lon="11.7343532"><ele>1088.0</ele><time>2026-04-09T13:55:36.427Z</time></trkpt><trkpt lat="45.8587615" lon="11.7345277"><ele>1091.5</ele><time>2026-04-09T13:55:37.427Z</time></trkpt><trkpt lat="45.8587106" lon="11.7347083"><ele>1095.0</ele><time>2026-04-09T13:55:38.431Z</time></trkpt><trkpt lat="45.8586608" lon="11.7348866"><ele>1098.5</ele><time>2026-04-09T13:55:39.433Z</time></trkpt><trkpt lat="45.8586153" lon="11.7350782"><ele>1102.0</ele><time>2026-04-09T13:55:40.429Z</time></trkpt><trkpt lat="45.8585671" lon="11.7352648"><ele>1103.75</ele><time>2026-04-09T13:55:41.435Z</time></trkpt><trkpt lat="45.8585206" lon="11.735446"><ele>1105.5</ele><time>2026-04-09T13:55:42.427Z</time></trkpt><trkpt lat="45.8584807" lon="11.7356093"><ele>1107.25</ele><time>2026-04-09T13:55:43.423Z</time></trkpt><trkpt lat="45.8584468" lon="11.7357694"><ele>1109.0</ele><time>2026-04-09T13:55:44.434Z</time></trkpt><trkpt lat="45.8584287" lon="11.7359209"><ele>1109.5</ele><time>2026-04-09T13:55:45.433Z</time></trkpt><trkpt lat="45.8584313" lon="11.7360863"><ele>1110.0</ele><time>2026-04-09T13:55:46.421Z</time></trkpt><trkpt lat="45.8584441" lon="11.73625"><ele>1110.5</ele><time>2026-04-09T13:55:47.436Z</time></trkpt><trkpt lat="45.8584669" lon="11.7364229"><ele>1111.0</ele><time>2026-04-09T13:55:48.433Z</time></trkpt><trkpt lat="45.858487" lon="11.7365954"><ele>1111.0</ele><time>2026-04-09T13:55:49.429Z</time></trkpt><trkpt lat="45.8584979" lon="11.7367722"><ele>1111.0</ele><time>2026-04-09T13:55:50.431Z</time></trkpt><trkpt lat="45.8584936" lon="11.73694"><ele>1111.0</ele><time>2026-04-09T13:55:51.423Z</time></trkpt><trkpt lat="45.8584852" lon="11.7370963"><ele>1111.0</ele><time>2026-04-09T13:55:52.427Z</time></trkpt><trkpt lat="45.8584239" lon="11.7372187"><ele>1109.6</ele><time>2026-04-09T13:55:53.433Z</time></trkpt><trkpt lat="45.8583453" lon="11.7373127"><ele>1108.1999999999998</ele><time>2026-04-09T13:55:54.43Z</time></trkpt><trkpt lat="45.8582645" lon="11.7374088"><ele>1106.8000000000002</ele><time>2026-04-09T13:55:55.429Z</time></trkpt><trkpt lat="45.8581797" lon="11.7375"><ele>1105.4</ele><time>2026-04-09T13:55:56.426Z</time></trkpt><trkpt lat="45.8581263" lon="11.737632"><ele>1104.0</ele><time>2026-04-09T13:55:57.426Z</time></trkpt><trkpt lat="45.8580941" lon="11.7377939"><ele>1104.0</ele><time>2026-04-09T13:55:58.422Z</time></trkpt><trkpt lat="45.8580677" lon="11.7379707"><ele>1104.0</ele><time>2026-04-09T13:55:59.421Z</time></trkpt><trkpt lat="45.858042" lon="11.738157"><ele>1104.0</ele><time>2026-04-09T13:56:00.432Z</time></trkpt><trkpt lat="45.8580155" lon="11.7383213"><ele>1104.0</ele><time>2026-04-09T13:56:01.442Z</time></trkpt><trkpt lat="45.8580005" lon="11.7384758"><ele>1104.25</ele><time>2026-04-09T13:56:02.42Z</time></trkpt><trkpt lat="45.8580154" lon="11.7386331"><ele>1104.5</ele><time>2026-04-09T13:56:03.437Z</time></trkpt><trkpt lat="45.8580562" lon="11.7387918"><ele>1104.75</ele><time>2026-04-09T13:56:04.437Z</time></trkpt><trkpt lat="45.8580983" lon="11.7389535"><ele>1105.0</ele><time>2026-04-09T13:56:05.429Z</time></trkpt><trkpt lat="45.8581596" lon="11.7391093"><ele>1105.0</ele><time>2026-04-09T13:56:06.43Z</time></trkpt><trkpt lat="45.8582142" lon="11.7392744"><ele>1105.0</ele><time>2026-04-09T13:56:07.437Z</time></trkpt><trkpt lat="45.8582396" lon="11.739448"><ele>1105.0</ele><time>2026-04-09T13:56:08.426Z</time></trkpt><trkpt lat="45.8582718" lon="11.7396157"><ele>1105.0</ele><time>2026-04-09T13:56:09.435Z</time></trkpt><trkpt lat="45.8583418" lon="11.7397747"><ele>1103.0</ele><time>2026-04-09T13:56:10.437Z</time></trkpt><trkpt lat="45.8584203" lon="11.7399362"><ele>1101.0</ele><time>2026-04-09T13:56:11.422Z</time></trkpt><trkpt lat="45.8585033" lon="11.7401017"><ele>1099.0</ele><time>2026-04-09T13:56:12.431Z</time></trkpt><trkpt lat="45.8585873" lon="11.7402484"><ele>1097.0</ele><time>2026-04-09T13:56:13.43Z</time></trkpt><trkpt lat="45.8586853" lon="11.7403824"><ele>1101.25</ele><time>2026-04-09T13:56:14.422Z</time></trkpt><trkpt lat="45.8587974" lon="11.7404916"><ele>1105.5</ele><time>2026-04-09T13:56:15.43Z</time></trkpt><trkpt lat="45.8589009" lon="11.7405826"><ele>1109.75</ele><time>2026-04-09T13:56:16.43Z</time></trkpt><trkpt lat="45.858985" lon="11.7406673"><ele>1114.0</ele><time>2026-04-09T13:56:17.422Z</time></trkpt><trkpt lat="45.8590542" lon="11.7407694"><ele>1114.0</ele><time>2026-04-09T13:56:18.426Z</time></trkpt><trkpt lat="45.8590923" lon="11.7408976"><ele>1114.0</ele><time>2026-04-09T13:56:19.434Z</time></trkpt><trkpt lat="45.8590934" lon="11.7410378"><ele>1114.0</ele><time>2026-04-09T13:56:20.446Z</time></trkpt><trkpt lat="45.8590854" lon="11.7411753"><ele>1114.0</ele><time>2026-04-09T13:56:21.444Z</time></trkpt><trkpt lat="45.8590968" lon="11.7413059"><ele>1114.0</ele><time>2026-04-09T13:56:22.43Z</time></trkpt><trkpt lat="45.8591387" lon="11.7414166"><ele>1112.8</ele><time>2026-04-09T13:56:23.43Z</time></trkpt><trkpt lat="45.8591791" lon="11.741522"><ele>1111.6000000000001</ele><time>2026-04-09T13:56:24.432Z</time></trkpt><trkpt lat="45.8592392" lon="11.7416122"><ele>1110.4</ele><time>2026-04-09T13:56:25.427Z</time></trkpt><trkpt lat="45.8593006" lon="11.7417139"><ele>1109.2</ele><time>2026-04-09T13:56:26.428Z</time></trkpt><trkpt lat="45.85935" lon="11.7418328"><ele>1108.0</ele><time>2026-04-09T13:56:27.44Z</time></trkpt><trkpt lat="45.8593966" lon="11.7419728"><ele>1113.75</ele><time>2026-04-09T13:56:28.433Z</time></trkpt><trkpt lat="45.8594491" lon="11.742114"><ele>1119.5</ele><time>2026-04-09T13:56:29.438Z</time></trkpt><trkpt lat="45.859506" lon="11.7422541"><ele>1125.25</ele><time>2026-04-09T13:56:30.435Z</time></trkpt><trkpt lat="45.8595831" lon="11.7423813"><ele>1131.0</ele><time>2026-04-09T13:56:31.438Z</time></trkpt><trkpt lat="45.8596791" lon="11.7425054"><ele>1131.0</ele><time>2026-04-09T13:56:32.437Z</time></trkpt><trkpt lat="45.8597844" lon="11.7426274"><ele>1131.0</ele><time>2026-04-09T13:56:33.428Z</time></trkpt><trkpt lat="45.8598875" lon="11.7427488"><ele>1131.0</ele><time>2026-04-09T13:56:34.426Z</time></trkpt><trkpt lat="45.8599796" lon="11.7428942"><ele>1131.0</ele><time>2026-04-09T13:56:35.426Z</time></trkpt><trkpt lat="45.8600584" lon="11.743058"><ele>1137.25</ele><time>2026-04-09T13:56:36.419Z</time></trkpt><trkpt lat="45.8601226" lon="11.743232"><ele>1143.5</ele><time>2026-04-09T13:56:37.428Z</time></trkpt><trkpt lat="45.8601809" lon="11.743412"><ele>1149.75</ele><time>2026-04-09T13:56:38.43Z</time></trkpt><trkpt lat="45.8602324" lon="11.7435843"><ele>1156.0</ele><time>2026-04-09T13:56:39.427Z</time></trkpt><trkpt lat="45.8602696" lon="11.7437442"><ele>1156.0</ele><time>2026-04-09T13:56:40.43Z</time></trkpt><trkpt lat="45.860309" lon="11.7438779"><ele>1156.0</ele><time>2026-04-09T13:56:41.437Z</time></trkpt><trkpt lat="45.8603327" lon="11.743995"><ele>1156.0</ele><time>2026-04-09T13:56:42.423Z</time></trkpt><trkpt lat="45.8603545" lon="11.7441063"><ele>1156.0</ele><time>2026-04-09T13:56:43.422Z</time></trkpt><trkpt lat="45.8603701" lon="11.7442129"><ele>1156.0</ele><time>2026-04-09T13:56:44.433Z</time></trkpt><trkpt lat="45.8603786" lon="11.7443173"><ele>1156.0</ele><time>2026-04-09T13:56:45.427Z</time></trkpt><trkpt lat="45.8603635" lon="11.7444074"><ele>1154.5</ele><time>2026-04-09T13:56:46.433Z</time></trkpt><trkpt lat="45.860302" lon="11.7444969"><ele>1153.0</ele><time>2026-04-09T13:56:48.435Z</time></trkpt><trkpt lat="45.8602379" lon="11.7444426"><ele>1151.5</ele><time>2026-04-09T13:56:49.437Z</time></trkpt><trkpt lat="45.8601818" lon="11.7443898"><ele>1150.0</ele><time>2026-04-09T13:56:50.436Z</time></trkpt><trkpt lat="45.8601863" lon="11.7444848"><ele>1148.5</ele><time>2026-04-09T13:56:56.446Z</time></trkpt><trkpt lat="45.8602776" lon="11.7445831"><ele>1147.0</ele><time>2026-04-09T13:56:58.437Z</time></trkpt><trkpt lat="45.8603474" lon="11.7447007"><ele>1147.0</ele><time>2026-04-09T13:57:00.443Z</time></trkpt><trkpt lat="45.8603982" lon="11.7448055"><ele>1147.0</ele><time>2026-04-09T13:57:02.431Z</time></trkpt><trkpt lat="45.8604604" lon="11.7447855"><ele>1147.0</ele><time>2026-04-09T13:57:06.43Z</time></trkpt><trkpt lat="45.8604038" lon="11.7446909"><ele>1147.0</ele><time>2026-04-09T13:57:08.429Z</time></trkpt><trkpt lat="45.8603486" lon="11.7446168"><ele>1147.0</ele><time>2026-04-09T13:57:09.445Z</time></trkpt><trkpt lat="45.8602837" lon="11.7445201"><ele>1147.0</ele><time>2026-04-09T13:57:10.44Z</time></trkpt><trkpt lat="45.8602128" lon="11.7444146"><ele>1148.8</ele><time>2026-04-09T13:57:11.43Z</time></trkpt><trkpt lat="45.8601342" lon="11.7443113"><ele>1150.6</ele><time>2026-04-09T13:57:12.44Z</time></trkpt><trkpt lat="45.8600559" lon="11.7442095"><ele>1152.3999999999999</ele><time>2026-04-09T13:57:13.427Z</time></trkpt><trkpt lat="45.859966" lon="11.7441399"><ele>1154.2</ele><time>2026-04-09T13:57:14.441Z</time></trkpt><trkpt lat="45.8598511" lon="11.7441445"><ele>1156.0</ele><time>2026-04-09T13:57:15.429Z</time></trkpt><trkpt lat="45.8597299" lon="11.7441878"><ele>1154.5</ele><time>2026-04-09T13:57:16.448Z</time></trkpt><trkpt lat="45.8596064" lon="11.7442383"><ele>1153.0</ele><time>2026-04-09T13:57:17.436Z</time></trkpt><trkpt lat="45.8594796" lon="11.7442935"><ele>1151.5</ele><time>2026-04-09T13:57:18.431Z</time></trkpt><trkpt lat="45.8593537" lon="11.7443463"><ele>1150.0</ele><time>2026-04-09T13:57:19.426Z</time></trkpt><trkpt lat="45.8592209" lon="11.7443931"><ele>1150.0</ele><time>2026-04-09T13:57:20.43Z</time></trkpt><trkpt lat="45.8590927" lon="11.7444261"><ele>1150.0</ele><time>2026-04-09T13:57:21.434Z</time></trkpt><trkpt lat="45.8589685" lon="11.7444522"><ele>1150.0</ele><time>2026-04-09T13:57:22.425Z</time></trkpt><trkpt lat="45.8588575" lon="11.7444733"><ele>1150.0</ele><time>2026-04-09T13:57:23.434Z</time></trkpt><trkpt lat="45.8587551" lon="11.7445058"><ele>1150.0</ele><time>2026-04-09T13:57:24.426Z</time></trkpt><trkpt lat="45.8586687" lon="11.7445748"><ele>1150.0</ele><time>2026-04-09T13:57:25.428Z</time></trkpt><trkpt lat="45.8586004" lon="11.7446832"><ele>1150.0</ele><time>2026-04-09T13:57:26.434Z</time></trkpt><trkpt lat="45.8585294" lon="11.7448"><ele>1150.0</ele><time>2026-04-09T13:57:27.432Z</time></trkpt><trkpt lat="45.8585132" lon="11.7449638"><ele>1150.0</ele><time>2026-04-09T13:57:28.426Z</time></trkpt><trkpt lat="45.8585018" lon="11.7451377"><ele>1148.5</ele><time>2026-04-09T13:57:29.426Z</time></trkpt><trkpt lat="45.8584863" lon="11.7453218"><ele>1147.0</ele><time>2026-04-09T13:57:30.426Z</time></trkpt><trkpt lat="45.8584678" lon="11.7455113"><ele>1145.5</ele><time>2026-04-09T13:57:31.425Z</time></trkpt><trkpt lat="45.8584524" lon="11.7457065"><ele>1144.0</ele><time>2026-04-09T13:57:32.426Z</time></trkpt><trkpt lat="45.8584467" lon="11.7459218"><ele>1145.6666666666665</ele><time>2026-04-09T13:57:33.441Z</time></trkpt><trkpt lat="45.8584466" lon="11.746166"><ele>1147.3333333333333</ele><time>2026-04-09T13:57:34.428Z</time></trkpt><trkpt lat="45.858436" lon="11.7464247"><ele>1149.0</ele><time>2026-04-09T13:57:35.43Z</time></trkpt><trkpt lat="45.8584181" lon="11.7466988"><ele>1150.3333333333333</ele><time>2026-04-09T13:57:36.446Z</time></trkpt><trkpt lat="45.8583999" lon="11.7469757"><ele>1151.6666666666665</ele><time>2026-04-09T13:57:37.444Z</time></trkpt><trkpt lat="45.8583819" lon="11.7472427"><ele>1153.0</ele><time>2026-04-09T13:57:38.431Z</time></trkpt><trkpt lat="45.858361" lon="11.7474853"><ele>1153.0</ele><time>2026-04-09T13:57:39.442Z</time></trkpt><trkpt lat="45.8583393" lon="11.7476954"><ele>1153.0</ele><time>2026-04-09T13:57:40.48Z</time></trkpt><trkpt lat="45.858315" lon="11.7479053"><ele>1153.0</ele><time>2026-04-09T13:57:41.435Z</time></trkpt><trkpt lat="45.8583066" lon="11.7481168"><ele>1153.0</ele><time>2026-04-09T13:57:42.431Z</time></trkpt><trkpt lat="45.8583221" lon="11.748344"><ele>1156.3333333333333</ele><time>2026-04-09T13:57:43.426Z</time></trkpt><trkpt lat="45.8583475" lon="11.7485793"><ele>1159.6666666666667</ele><time>2026-04-09T13:57:44.43Z</time></trkpt><trkpt lat="45.858371" lon="11.7487911"><ele>1163.0</ele><time>2026-04-09T13:57:45.436Z</time></trkpt><trkpt lat="45.8583994" lon="11.7489973"><ele>1170.25</ele><time>2026-04-09T13:57:46.433Z</time></trkpt><trkpt lat="45.8584607" lon="11.7491753"><ele>1177.5</ele><time>2026-04-09T13:57:47.435Z</time></trkpt><trkpt lat="45.8585418" lon="11.7493453"><ele>1184.75</ele><time>2026-04-09T13:57:48.428Z</time></trkpt><trkpt lat="45.8586089" lon="11.749511"><ele>1192.0</ele><time>2026-04-09T13:57:49.43Z</time></trkpt><trkpt lat="45.8586717" lon="11.7496708"><ele>1193.0</ele><time>2026-04-09T13:57:50.436Z</time></trkpt><trkpt lat="45.8586837" lon="11.7498538"><ele>1194.0</ele><time>2026-04-09T13:57:51.438Z</time></trkpt><trkpt lat="45.8586543" lon="11.7500362"><ele>1195.0</ele><time>2026-04-09T13:57:52.434Z</time></trkpt><trkpt lat="45.8586135" lon="11.750255"><ele>1196.0</ele><time>2026-04-09T13:57:53.427Z</time></trkpt><trkpt lat="45.8586052" lon="11.7504825"><ele>1197.25</ele><time>2026-04-09T13:57:54.432Z</time></trkpt><trkpt lat="45.8586129" lon="11.7507012"><ele>1198.5</ele><time>2026-04-09T13:57:55.425Z</time></trkpt><trkpt lat="45.8586209" lon="11.7509014"><ele>1199.75</ele><time>2026-04-09T13:57:56.425Z</time></trkpt><trkpt lat="45.8586357" lon="11.7510876"><ele>1201.0</ele><time>2026-04-09T13:57:57.419Z</time></trkpt><trkpt lat="45.8586384" lon="11.751281"><ele>1202.0</ele><time>2026-04-09T13:57:58.424Z</time></trkpt><trkpt lat="45.8585763" lon="11.7514403"><ele>1203.0</ele><time>2026-04-09T13:57:59.429Z</time></trkpt><trkpt lat="45.8585201" lon="11.7516122"><ele>1204.0</ele><time>2026-04-09T13:58:00.422Z</time></trkpt><trkpt lat="45.8584515" lon="11.7517959"><ele>1205.0</ele><time>2026-04-09T13:58:01.426Z</time></trkpt><trkpt lat="45.858394" lon="11.7519856"><ele>1197.3333333333335</ele><time>2026-04-09T13:58:02.427Z</time></trkpt><trkpt lat="45.8583646" lon="11.7521971"><ele>1189.6666666666667</ele><time>2026-04-09T13:58:03.442Z</time></trkpt><trkpt lat="45.8583555" lon="11.7524131"><ele>1182.0</ele><time>2026-04-09T13:58:04.426Z</time></trkpt><trkpt lat="45.8583538" lon="11.7526417"><ele>1183.6666666666667</ele><time>2026-04-09T13:58:05.429Z</time></trkpt><trkpt lat="45.8583517" lon="11.7528675"><ele>1185.3333333333335</ele><time>2026-04-09T13:58:06.426Z</time></trkpt><trkpt lat="45.8583776" lon="11.7531028"><ele>1187.0</ele><time>2026-04-09T13:58:07.424Z</time></trkpt><trkpt lat="45.8584153" lon="11.753354"><ele>1201.6666666666667</ele><time>2026-04-09T13:58:08.43Z</time></trkpt><trkpt lat="45.858458" lon="11.7536103"><ele>1216.3333333333333</ele><time>2026-04-09T13:58:09.443Z</time></trkpt><trkpt lat="45.8584977" lon="11.7538702"><ele>1231.0</ele><time>2026-04-09T13:58:10.447Z</time></trkpt><trkpt lat="45.8585402" lon="11.7541333"><ele>1232.3333333333333</ele><time>2026-04-09T13:58:11.425Z</time></trkpt><trkpt lat="45.8585771" lon="11.7543979"><ele>1233.6666666666667</ele><time>2026-04-09T13:58:12.426Z</time></trkpt><trkpt lat="45.8586159" lon="11.7546565"><ele>1235.0</ele><time>2026-04-09T13:58:13.431Z</time></trkpt><trkpt lat="45.8586517" lon="11.7549182"><ele>1235.0</ele><time>2026-04-09T13:58:14.43Z</time></trkpt><trkpt lat="45.8587004" lon="11.7551836"><ele>1235.0</ele><time>2026-04-09T13:58:15.435Z</time></trkpt><trkpt lat="45.8587451" lon="11.7554415"><ele>1235.0</ele><time>2026-04-09T13:58:16.432Z</time></trkpt><trkpt lat="45.8587924" lon="11.7556794"><ele>1234.0</ele><time>2026-04-09T13:58:17.421Z</time></trkpt><trkpt lat="45.8588291" lon="11.75592"><ele>1233.0</ele><time>2026-04-09T13:58:18.423Z</time></trkpt><trkpt lat="45.8588588" lon="11.7561538"><ele>1232.0</ele><time>2026-04-09T13:58:19.439Z</time></trkpt><trkpt lat="45.8588628" lon="11.7563867"><ele>1230.6666666666667</ele><time>2026-04-09T13:58:20.455Z</time></trkpt><trkpt lat="45.8588757" lon="11.756617"><ele>1229.3333333333333</ele><time>2026-04-09T13:58:21.424Z</time></trkpt><trkpt lat="45.8588965" lon="11.7568469"><ele>1228.0</ele><time>2026-04-09T13:58:22.425Z</time></trkpt><trkpt lat="45.8589286" lon="11.7570681"><ele>1226.75</ele><time>2026-04-09T13:58:23.445Z</time></trkpt><trkpt lat="45.8589674" lon="11.757283"><ele>1225.5</ele><time>2026-04-09T13:58:24.436Z</time></trkpt><trkpt lat="45.8589904" lon="11.7574839"><ele>1224.25</ele><time>2026-04-09T13:58:25.431Z</time></trkpt><trkpt lat="45.8590092" lon="11.7576717"><ele>1223.0</ele><time>2026-04-09T13:58:26.428Z</time></trkpt><trkpt lat="45.8590019" lon="11.757837"><ele>1222.5</ele><time>2026-04-09T13:58:27.429Z</time></trkpt><trkpt lat="45.8590067" lon="11.7579986"><ele>1222.0</ele><time>2026-04-09T13:58:28.427Z</time></trkpt><trkpt lat="45.8590624" lon="11.7581627"><ele>1221.5</ele><time>2026-04-09T13:58:29.444Z</time></trkpt><trkpt lat="45.8591306" lon="11.7583335"><ele>1221.0</ele><time>2026-04-09T13:58:30.433Z</time></trkpt><trkpt lat="45.8592378" lon="11.7585086"><ele>1228.6666666666667</ele><time>2026-04-09T13:58:31.434Z</time></trkpt><trkpt lat="45.8593354" lon="11.7586934"><ele>1236.3333333333335</ele><time>2026-04-09T13:58:32.441Z</time></trkpt><trkpt lat="45.8594462" lon="11.7588649"><ele>1244.0</ele><time>2026-04-09T13:58:33.426Z</time></trkpt><trkpt lat="45.8595499" lon="11.7590326"><ele>1244.0</ele><time>2026-04-09T13:58:34.475Z</time></trkpt><trkpt lat="45.8596465" lon="11.7592165"><ele>1244.0</ele><time>2026-04-09T13:58:35.432Z</time></trkpt><trkpt lat="45.8597292" lon="11.7594046"><ele>1244.0</ele><time>2026-04-09T13:58:36.479Z</time></trkpt><trkpt lat="45.8598144" lon="11.7595852"><ele>1241.0</ele><time>2026-04-09T13:58:37.46Z</time></trkpt><trkpt lat="45.8598981" lon="11.7597537"><ele>1238.0</ele><time>2026-04-09T13:58:38.425Z</time></trkpt><trkpt lat="45.8599656" lon="11.7599372"><ele>1235.0</ele><time>2026-04-09T13:58:39.483Z</time></trkpt><trkpt lat="45.8600193" lon="11.7601332"><ele>1232.0</ele><time>2026-04-09T13:58:40.475Z</time></trkpt><trkpt lat="45.8600857" lon="11.7603151"><ele>1235.5</ele><time>2026-04-09T13:58:41.422Z</time></trkpt><trkpt lat="45.8601693" lon="11.7604796"><ele>1239.0</ele><time>2026-04-09T13:58:42.416Z</time></trkpt><trkpt lat="45.8602712" lon="11.7606291"><ele>1242.5</ele><time>2026-04-09T13:58:43.43Z</time></trkpt><trkpt lat="45.8603609" lon="11.7607727"><ele>1246.0</ele><time>2026-04-09T13:58:44.424Z</time></trkpt><trkpt lat="45.8604503" lon="11.7608922"><ele>1246.0</ele><time>2026-04-09T13:58:45.428Z</time></trkpt><trkpt lat="45.8605338" lon="11.7609874"><ele>1246.0</ele><time>2026-04-09T13:58:46.426Z</time></trkpt><trkpt lat="45.8606316" lon="11.7610353"><ele>1246.0</ele><time>2026-04-09T13:58:47.427Z</time></trkpt><trkpt lat="45.860729" lon="11.7610454"><ele>1246.0</ele><time>2026-04-09T13:58:48.423Z</time></trkpt><trkpt lat="45.860831" lon="11.7610301"><ele>1246.0</ele><time>2026-04-09T13:58:49.429Z</time></trkpt><trkpt lat="45.8609342" lon="11.7610109"><ele>1245.2</ele><time>2026-04-09T13:58:50.421Z</time></trkpt><trkpt lat="45.8610355" lon="11.7609953"><ele>1244.3999999999999</ele><time>2026-04-09T13:58:51.436Z</time></trkpt><trkpt lat="45.8611401" lon="11.7609812"><ele>1243.6</ele><time>2026-04-09T13:58:52.432Z</time></trkpt><trkpt lat="45.8612365" lon="11.7610061"><ele>1242.8</ele><time>2026-04-09T13:58:53.44Z</time></trkpt><trkpt lat="45.8613367" lon="11.7610407"><ele>1242.0</ele><time>2026-04-09T13:58:54.425Z</time></trkpt><trkpt lat="45.8614357" lon="11.7610794"><ele>1242.0</ele><time>2026-04-09T13:58:55.432Z</time></trkpt><trkpt lat="45.8615162" lon="11.7611478"><ele>1242.0</ele><time>2026-04-09T13:58:56.439Z</time></trkpt><trkpt lat="45.8615725" lon="11.7612491"><ele>1242.0</ele><time>2026-04-09T13:58:57.419Z</time></trkpt><trkpt lat="45.8616157" lon="11.7613628"><ele>1242.0</ele><time>2026-04-09T13:58:58.434Z</time></trkpt><trkpt lat="45.8616726" lon="11.7614592"><ele>1242.0</ele><time>2026-04-09T13:58:59.427Z</time></trkpt><trkpt lat="45.8617354" lon="11.7615425"><ele>1242.0</ele><time>2026-04-09T13:59:00.43Z</time></trkpt><trkpt lat="45.8618207" lon="11.761551"><ele>1244.0</ele><time>2026-04-09T13:59:01.436Z</time></trkpt><trkpt lat="45.8619083" lon="11.7615247"><ele>1246.0</ele><time>2026-04-09T13:59:02.438Z</time></trkpt><trkpt lat="45.862007" lon="11.7615066"><ele>1248.0</ele><time>2026-04-09T13:59:03.43Z</time></trkpt><trkpt lat="45.8621067" lon="11.7615022"><ele>1250.0</ele><time>2026-04-09T13:59:04.428Z</time></trkpt><trkpt lat="45.8622086" lon="11.7615143"><ele>1252.0</ele><time>2026-04-09T13:59:05.419Z</time></trkpt><trkpt lat="45.862296" lon="11.7615515"><ele>1252.0</ele><time>2026-04-09T13:59:06.423Z</time></trkpt><trkpt lat="45.8623592" lon="11.7616198"><ele>1252.0</ele><time>2026-04-09T13:59:07.449Z</time></trkpt><trkpt lat="45.862397" lon="11.7616932"><ele>1252.0</ele><time>2026-04-09T13:59:08.427Z</time></trkpt><trkpt lat="45.8624383" lon="11.7617968"><ele>1252.0</ele><time>2026-04-09T13:59:10.426Z</time></trkpt><trkpt lat="45.8625083" lon="11.7618544"><ele>1252.0</ele><time>2026-04-09T13:59:13.425Z</time></trkpt><trkpt lat="45.8625463" lon="11.761776"><ele>1252.0</ele><time>2026-04-09T13:59:17.436Z</time></trkpt><trkpt lat="45.8624654" lon="11.7616565"><ele>1252.0</ele><time>2026-04-09T13:59:19.437Z</time></trkpt><trkpt lat="45.8624069" lon="11.7615771"><ele>1252.0</ele><time>2026-04-09T13:59:20.43Z</time></trkpt><trkpt lat="45.8623387" lon="11.7615145"><ele>1252.0</ele><time>2026-04-09T13:59:21.433Z</time></trkpt><trkpt lat="45.8622543" lon="11.7614766"><ele>1252.0</ele><time>2026-04-09T13:59:22.44Z</time></trkpt><trkpt lat="45.8621646" lon="11.7614688"><ele>1252.0</ele><time>2026-04-09T13:59:23.433Z</time></trkpt><trkpt lat="45.8620775" lon="11.761472"><ele>1252.0</ele><time>2026-04-09T13:59:24.432Z</time></trkpt><trkpt lat="45.8619911" lon="11.761482"><ele>1252.0</ele><time>2026-04-09T13:59:25.429Z</time></trkpt><trkpt lat="45.8619027" lon="11.7614941"><ele>1252.0</ele><time>2026-04-09T13:59:26.425Z</time></trkpt><trkpt lat="45.8618203" lon="11.7614989"><ele>1252.0</ele><time>2026-04-09T13:59:27.429Z</time></trkpt><trkpt lat="45.8617445" lon="11.7614788"><ele>1252.0</ele><time>2026-04-09T13:59:28.437Z</time></trkpt><trkpt lat="45.8616812" lon="11.7614198"><ele>1252.0</ele><time>2026-04-09T13:59:29.427Z</time></trkpt><trkpt lat="45.8616135" lon="11.7613409"><ele>1252.0</ele><time>2026-04-09T13:59:30.427Z</time></trkpt><trkpt lat="45.8615736" lon="11.7612163"><ele>1253.2</ele><time>2026-04-09T13:59:31.431Z</time></trkpt><trkpt lat="45.8615149" lon="11.7611018"><ele>1254.4</ele><time>2026-04-09T13:59:32.435Z</time></trkpt><trkpt lat="45.8614562" lon="11.7609941"><ele>1255.6</ele><time>2026-04-09T13:59:33.431Z</time></trkpt><trkpt lat="45.8613664" lon="11.760956"><ele>1256.8</ele><time>2026-04-09T13:59:34.43Z</time></trkpt><trkpt lat="45.8612649" lon="11.7609314"><ele>1258.0</ele><time>2026-04-09T13:59:35.424Z</time></trkpt><trkpt lat="45.8611579" lon="11.760924"><ele>1258.0</ele><time>2026-04-09T13:59:36.432Z</time></trkpt><trkpt lat="45.8610581" lon="11.7609303"><ele>1258.0</ele><time>2026-04-09T13:59:37.429Z</time></trkpt><trkpt lat="45.8609673" lon="11.7609503"><ele>1258.0</ele><time>2026-04-09T13:59:38.429Z</time></trkpt><trkpt lat="45.8608769" lon="11.7609705"><ele>1258.0</ele><time>2026-04-09T13:59:39.43Z</time></trkpt><trkpt lat="45.8607953" lon="11.7609864"><ele>1258.0</ele><time>2026-04-09T13:59:40.429Z</time></trkpt><trkpt lat="45.8607179" lon="11.7609926"><ele>1258.0</ele><time>2026-04-09T13:59:41.425Z</time></trkpt><trkpt lat="45.8606368" lon="11.7609757"><ele>1255.6</ele><time>2026-04-09T13:59:42.429Z</time></trkpt><trkpt lat="45.8605517" lon="11.7609378"><ele>1253.1999999999998</ele><time>2026-04-09T13:59:43.428Z</time></trkpt><trkpt lat="45.8604729" lon="11.7608701"><ele>1250.8</ele><time>2026-04-09T13:59:44.426Z</time></trkpt><trkpt lat="45.8603989" lon="11.7607829"><ele>1248.3999999999999</ele><time>2026-04-09T13:59:45.429Z</time></trkpt><trkpt lat="45.8603263" lon="11.7606889"><ele>1246.0</ele><time>2026-04-09T13:59:46.431Z</time></trkpt><trkpt lat="45.860253" lon="11.760596"><ele>1246.0</ele><time>2026-04-09T13:59:47.433Z</time></trkpt><trkpt lat="45.8601793" lon="11.7604998"><ele>1246.0</ele><time>2026-04-09T13:59:48.427Z</time></trkpt><trkpt lat="45.8601191" lon="11.7603918"><ele>1246.0</ele><time>2026-04-09T13:59:49.434Z</time></trkpt><trkpt lat="45.8600736" lon="11.760267"><ele>1246.0</ele><time>2026-04-09T13:59:50.428Z</time></trkpt><trkpt lat="45.8600316" lon="11.7601381"><ele>1246.0</ele><time>2026-04-09T13:59:51.422Z</time></trkpt><trkpt lat="45.8599947" lon="11.7600153"><ele>1243.2</ele><time>2026-04-09T13:59:52.428Z</time></trkpt><trkpt lat="45.8599474" lon="11.7598923"><ele>1240.3999999999999</ele><time>2026-04-09T13:59:53.427Z</time></trkpt><trkpt lat="45.8598929" lon="11.759773"><ele>1237.6</ele><time>2026-04-09T13:59:54.434Z</time></trkpt><trkpt lat="45.8598379" lon="11.75966"><ele>1234.8</ele><time>2026-04-09T13:59:55.444Z</time></trkpt><trkpt lat="45.8597893" lon="11.7595587"><ele>1232.0</ele><time>2026-04-09T13:59:56.427Z</time></trkpt><trkpt lat="45.8597465" lon="11.7594571"><ele>1234.0</ele><time>2026-04-09T13:59:57.431Z</time></trkpt><trkpt lat="45.859705" lon="11.759348"><ele>1236.0</ele><time>2026-04-09T13:59:58.439Z</time></trkpt><trkpt lat="45.8596601" lon="11.7592347"><ele>1238.0</ele><time>2026-04-09T13:59:59.435Z</time></trkpt><trkpt lat="45.8596114" lon="11.7591256"><ele>1240.0</ele><time>2026-04-09T14:00:00.423Z</time></trkpt><trkpt lat="45.8595626" lon="11.7590239"><ele>1242.0</ele><time>2026-04-09T14:00:01.427Z</time></trkpt><trkpt lat="45.8595165" lon="11.7589312"><ele>1244.0</ele><time>2026-04-09T14:00:02.426Z</time></trkpt><trkpt lat="45.8594748" lon="11.758858"><ele>1244.0</ele><time>2026-04-09T14:00:03.436Z</time></trkpt><trkpt lat="45.8594102" lon="11.7587799"><ele>1244.0</ele><time>2026-04-09T14:00:05.427Z</time></trkpt><trkpt lat="45.8593679" lon="11.7588665"><ele>1244.0</ele><time>2026-04-09T14:00:10.446Z</time></trkpt><trkpt lat="45.8594236" lon="11.758959"><ele>1244.0</ele><time>2026-04-09T14:00:12.423Z</time></trkpt><trkpt lat="45.8594738" lon="11.7590708"><ele>1244.0</ele><time>2026-04-09T14:00:14.427Z</time></trkpt><trkpt lat="45.8595161" lon="11.7592181"><ele>1244.0</ele><time>2026-04-09T14:00:16.428Z</time></trkpt><trkpt lat="45.8595323" lon="11.7593218"><ele>1242.0</ele><time>2026-04-09T14:00:17.426Z</time></trkpt><trkpt lat="45.8595502" lon="11.7594288"><ele>1240.0</ele><time>2026-04-09T14:00:18.429Z</time></trkpt><trkpt lat="45.8595691" lon="11.7595257"><ele>1238.0</ele><time>2026-04-09T14:00:19.45Z</time></trkpt><trkpt lat="45.8595937" lon="11.7596431"><ele>1236.0</ele><time>2026-04-09T14:00:20.434Z</time></trkpt><trkpt lat="45.8596234" lon="11.7597668"><ele>1234.0</ele><time>2026-04-09T14:00:21.44Z</time></trkpt><trkpt lat="45.8596471" lon="11.7599002"><ele>1232.0</ele><time>2026-04-09T14:00:22.434Z</time></trkpt><trkpt lat="45.859675" lon="11.7600342"><ele>1232.0</ele><time>2026-04-09T14:00:23.434Z</time></trkpt><trkpt lat="45.859704" lon="11.7601669"><ele>1232.0</ele><time>2026-04-09T14:00:24.423Z</time></trkpt><trkpt lat="45.8597328" lon="11.7602989"><ele>1232.0</ele><time>2026-04-09T14:00:25.423Z</time></trkpt><trkpt lat="45.8597581" lon="11.7604185"><ele>1232.0</ele><time>2026-04-09T14:00:26.434Z</time></trkpt><trkpt lat="45.859774" lon="11.7605454"><ele>1232.0</ele><time>2026-04-09T14:00:27.447Z</time></trkpt><trkpt lat="45.8597781" lon="11.7606771"><ele>1230.5</ele><time>2026-04-09T14:00:28.421Z</time></trkpt><trkpt lat="45.8597723" lon="11.7608014"><ele>1229.0</ele><time>2026-04-09T14:00:29.443Z</time></trkpt><trkpt lat="45.8597614" lon="11.7609262"><ele>1227.5</ele><time>2026-04-09T14:00:30.433Z</time></trkpt><trkpt lat="45.8597549" lon="11.76104"><ele>1226.0</ele><time>2026-04-09T14:00:31.425Z</time></trkpt><trkpt lat="45.8597591" lon="11.7611396"><ele>1224.5</ele><time>2026-04-09T14:00:32.426Z</time></trkpt><trkpt lat="45.8597966" lon="11.7612838"><ele>1223.0</ele><time>2026-04-09T14:00:34.438Z</time></trkpt><trkpt lat="45.8598716" lon="11.7613575"><ele>1221.1666666666667</ele><time>2026-04-09T14:00:36.438Z</time></trkpt><trkpt lat="45.8599336" lon="11.7614304"><ele>1219.3333333333335</ele><time>2026-04-09T14:00:38.426Z</time></trkpt><trkpt lat="45.8599528" lon="11.7615264"><ele>1217.5</ele><time>2026-04-09T14:00:40.437Z</time></trkpt><trkpt lat="45.8598958" lon="11.7615905"><ele>1215.6666666666667</ele><time>2026-04-09T14:00:42.442Z</time></trkpt><trkpt lat="45.8597946" lon="11.7616225"><ele>1213.8333333333333</ele><time>2026-04-09T14:00:44.428Z</time></trkpt><trkpt lat="45.8597316" lon="11.7616223"><ele>1212.0</ele><time>2026-04-09T14:00:45.443Z</time></trkpt><trkpt lat="45.8596661" lon="11.7616357"><ele>1212.0</ele><time>2026-04-09T14:00:46.441Z</time></trkpt><trkpt lat="45.8595634" lon="11.7617122"><ele>1212.0</ele><time>2026-04-09T14:00:48.432Z</time></trkpt><trkpt lat="45.8594929" lon="11.7618489"><ele>1212.0</ele><time>2026-04-09T14:00:50.437Z</time></trkpt><trkpt lat="45.85947" lon="11.7619405"><ele>1212.0</ele><time>2026-04-09T14:00:51.433Z</time></trkpt><trkpt lat="45.8594499" lon="11.7620336"><ele>1212.0</ele><time>2026-04-09T14:00:52.433Z</time></trkpt><trkpt lat="45.8594329" lon="11.7621211"><ele>1212.0</ele><time>2026-04-09T14:00:53.433Z</time></trkpt><trkpt lat="45.8593969" lon="11.7622101"><ele>1213.0</ele><time>2026-04-09T14:00:54.448Z</time></trkpt><trkpt lat="45.8593633" lon="11.7622897"><ele>1214.0</ele><time>2026-04-09T14:00:55.491Z</time></trkpt><trkpt lat="45.8592704" lon="11.7624012"><ele>1215.0</ele><time>2026-04-09T14:00:57.43Z</time></trkpt><trkpt lat="45.8591755" lon="11.7624973"><ele>1216.0</ele><time>2026-04-09T14:00:59.428Z</time></trkpt><trkpt lat="45.8591346" lon="11.7625751"><ele>1217.0</ele><time>2026-04-09T14:01:00.428Z</time></trkpt><trkpt lat="45.8590982" lon="11.7626649"><ele>1218.0</ele><time>2026-04-09T14:01:01.428Z</time></trkpt><trkpt lat="45.8590591" lon="11.7627555"><ele>1216.142857142857</ele><time>2026-04-09T14:01:02.436Z</time></trkpt><trkpt lat="45.8590133" lon="11.7628329"><ele>1214.2857142857142</ele><time>2026-04-09T14:01:03.429Z</time></trkpt><trkpt lat="45.8589675" lon="11.7629092"><ele>1212.4285714285716</ele><time>2026-04-09T14:01:04.452Z</time></trkpt><trkpt lat="45.8589174" lon="11.7629669"><ele>1210.5714285714284</ele><time>2026-04-09T14:01:05.472Z</time></trkpt><trkpt lat="45.8588657" lon="11.7630301"><ele>1208.7142857142858</ele><time>2026-04-09T14:01:06.435Z</time></trkpt><trkpt lat="45.8588146" lon="11.7631067"><ele>1206.857142857143</ele><time>2026-04-09T14:01:07.427Z</time></trkpt><trkpt lat="45.85877" lon="11.7631896"><ele>1205.0</ele><time>2026-04-09T14:01:08.43Z</time></trkpt><trkpt lat="45.8587255" lon="11.7632812"><ele>1205.0</ele><time>2026-04-09T14:01:09.432Z</time></trkpt><trkpt lat="45.8586812" lon="11.7633689"><ele>1205.0</ele><time>2026-04-09T14:01:10.439Z</time></trkpt><trkpt lat="45.858633" lon="11.7634454"><ele>1205.0</ele><time>2026-04-09T14:01:11.444Z</time></trkpt><trkpt lat="45.8585782" lon="11.7635231"><ele>1205.0</ele><time>2026-04-09T14:01:12.428Z</time></trkpt><trkpt lat="45.8585266" lon="11.7636128"><ele>1205.0</ele><time>2026-04-09T14:01:13.429Z</time></trkpt><trkpt lat="45.8584814" lon="11.7637086"><ele>1205.0</ele><time>2026-04-09T14:01:14.438Z</time></trkpt><trkpt lat="45.8584365" lon="11.7638101"><ele>1204.1666666666667</ele><time>2026-04-09T14:01:15.429Z</time></trkpt><trkpt lat="45.8583892" lon="11.7639133"><ele>1203.3333333333335</ele><time>2026-04-09T14:01:16.426Z</time></trkpt><trkpt lat="45.8583489" lon="11.7640012"><ele>1202.5</ele><time>2026-04-09T14:01:17.436Z</time></trkpt><trkpt lat="45.8583124" lon="11.7640796"><ele>1201.6666666666667</ele><time>2026-04-09T14:01:18.432Z</time></trkpt><trkpt lat="45.8582503" lon="11.7641787"><ele>1200.8333333333333</ele><time>2026-04-09T14:01:20.443Z</time></trkpt><trkpt lat="45.8581922" lon="11.7642914"><ele>1200.0</ele><time>2026-04-09T14:01:22.441Z</time></trkpt><trkpt lat="45.8581473" lon="11.7644301"><ele>1200.0</ele><time>2026-04-09T14:01:24.433Z</time></trkpt><trkpt lat="45.8581135" lon="11.764576"><ele>1200.0</ele><time>2026-04-09T14:01:26.423Z</time></trkpt><trkpt lat="45.858041" lon="11.7646861"><ele>1200.0</ele><time>2026-04-09T14:01:28.429Z</time></trkpt><trkpt lat="45.8579528" lon="11.7647585"><ele>1200.0</ele><time>2026-04-09T14:01:30.432Z</time></trkpt><trkpt lat="45.8578828" lon="11.7647866"><ele>1200.0</ele><time>2026-04-09T14:01:31.433Z</time></trkpt><trkpt lat="45.857809" lon="11.7648081"><ele>1199.9999999999998</ele><time>2026-04-09T14:01:32.427Z</time></trkpt><trkpt lat="45.8577408" lon="11.7648267"><ele>1200.0</ele><time>2026-04-09T14:01:33.433Z</time></trkpt><trkpt lat="45.8576761" lon="11.7648479"><ele>1200.0</ele><time>2026-04-09T14:01:34.459Z</time></trkpt><trkpt lat="45.8576091" lon="11.7648701"><ele>1200.0</ele><time>2026-04-09T14:01:35.436Z</time></trkpt><trkpt lat="45.8575567" lon="11.7649267"><ele>1200.0</ele><time>2026-04-09T14:01:36.425Z</time></trkpt><trkpt lat="45.8575094" lon="11.7649964"><ele>1199.9999999999998</ele><time>2026-04-09T14:01:37.438Z</time></trkpt><trkpt lat="45.8574649" lon="11.7650679"><ele>1200.0</ele><time>2026-04-09T14:01:38.426Z</time></trkpt><trkpt lat="45.8574208" lon="11.7651474"><ele>1200.1666666666667</ele><time>2026-04-09T14:01:39.429Z</time></trkpt><trkpt lat="45.857377" lon="11.7652215"><ele>1200.3333333333333</ele><time>2026-04-09T14:01:40.422Z</time></trkpt><trkpt lat="45.8573155" lon="11.7652924"><ele>1200.5</ele><time>2026-04-09T14:01:41.435Z</time></trkpt><trkpt lat="45.8572558" lon="11.7653593"><ele>1200.6666666666665</ele><time>2026-04-09T14:01:42.436Z</time></trkpt><trkpt lat="45.8571915" lon="11.7654372"><ele>1200.8333333333333</ele><time>2026-04-09T14:01:43.43Z</time></trkpt><trkpt lat="45.8571279" lon="11.7655127"><ele>1201.0</ele><time>2026-04-09T14:01:44.423Z</time></trkpt><trkpt lat="45.8570615" lon="11.7655816"><ele>1201.0</ele><time>2026-04-09T14:01:45.431Z</time></trkpt><trkpt lat="45.8569889" lon="11.7656415"><ele>1201.0</ele><time>2026-04-09T14:01:46.43Z</time></trkpt><trkpt lat="45.8569143" lon="11.7656979"><ele>1201.0</ele><time>2026-04-09T14:01:47.425Z</time></trkpt><trkpt lat="45.8568397" lon="11.765749"><ele>1201.0</ele><time>2026-04-09T14:01:48.427Z</time></trkpt><trkpt lat="45.8567691" lon="11.7657972"><ele>1201.0</ele><time>2026-04-09T14:01:49.443Z</time></trkpt><trkpt lat="45.8566948" lon="11.7658299"><ele>1201.0</ele><time>2026-04-09T14:01:50.431Z</time></trkpt><trkpt lat="45.8566044" lon="11.7658539"><ele>1201.0</ele><time>2026-04-09T14:01:51.427Z</time></trkpt><trkpt lat="45.8565157" lon="11.7658588"><ele>1201.0</ele><time>2026-04-09T14:01:52.425Z</time></trkpt><trkpt lat="45.8564307" lon="11.765863"><ele>1201.0</ele><time>2026-04-09T14:01:53.424Z</time></trkpt><trkpt lat="45.8563449" lon="11.7658561"><ele>1201.0</ele><time>2026-04-09T14:01:54.424Z</time></trkpt><trkpt lat="45.8562494" lon="11.7658559"><ele>1201.0</ele><time>2026-04-09T14:01:55.429Z</time></trkpt><trkpt lat="45.8561598" lon="11.7658583"><ele>1201.0</ele><time>2026-04-09T14:01:56.425Z</time></trkpt><trkpt lat="45.8560596" lon="11.7658814"><ele>1201.0</ele><time>2026-04-09T14:01:57.418Z</time></trkpt><trkpt lat="45.8559574" lon="11.7659154"><ele>1201.0</ele><time>2026-04-09T14:01:58.425Z</time></trkpt><trkpt lat="45.8558639" lon="11.765952"><ele>1201.0</ele><time>2026-04-09T14:01:59.43Z</time></trkpt><trkpt lat="45.8557765" lon="11.7659853"><ele>1201.0</ele><time>2026-04-09T14:02:00.425Z</time></trkpt><trkpt lat="45.8556893" lon="11.7660207"><ele>1201.0</ele><time>2026-04-09T14:02:01.431Z</time></trkpt><trkpt lat="45.8556065" lon="11.7660474"><ele>1202.3333333333333</ele><time>2026-04-09T14:02:02.424Z</time></trkpt><trkpt lat="45.8555204" lon="11.7660678"><ele>1203.6666666666665</ele><time>2026-04-09T14:02:03.42Z</time></trkpt><trkpt lat="45.8554251" lon="11.7660588"><ele>1205.0</ele><time>2026-04-09T14:02:04.425Z</time></trkpt><trkpt lat="45.8553511" lon="11.7660425"><ele>1206.3333333333333</ele><time>2026-04-09T14:02:05.422Z</time></trkpt><trkpt lat="45.8552891" lon="11.7660181"><ele>1207.6666666666667</ele><time>2026-04-09T14:02:06.423Z</time></trkpt><trkpt lat="45.8552006" lon="11.7659697"><ele>1209.0</ele><time>2026-04-09T14:02:08.433Z</time></trkpt><trkpt lat="45.8551597" lon="11.765882"><ele>1209.0</ele><time>2026-04-09T14:02:10.432Z</time></trkpt><trkpt lat="45.855157" lon="11.7657499"><ele>1209.0</ele><time>2026-04-09T14:02:12.429Z</time></trkpt><trkpt lat="45.855234" lon="11.7656545"><ele>1209.0</ele><time>2026-04-09T14:02:14.428Z</time></trkpt><trkpt lat="45.8553127" lon="11.765638"><ele>1209.0</ele><time>2026-04-09T14:02:15.424Z</time></trkpt><trkpt lat="45.8554011" lon="11.7656212"><ele>1209.0</ele><time>2026-04-09T14:02:16.431Z</time></trkpt><trkpt lat="45.8555068" lon="11.7655939"><ele>1209.0</ele><time>2026-04-09T14:02:17.423Z</time></trkpt><trkpt lat="45.8556084" lon="11.7655434"><ele>1209.0</ele><time>2026-04-09T14:02:18.433Z</time></trkpt><trkpt lat="45.8557006" lon="11.7654664"><ele>1209.0</ele><time>2026-04-09T14:02:19.427Z</time></trkpt><trkpt lat="45.8557772" lon="11.765407"><ele>1209.0</ele><time>2026-04-09T14:02:20.432Z</time></trkpt><trkpt lat="45.8558571" lon="11.7653516"><ele>1209.0</ele><time>2026-04-09T14:02:21.436Z</time></trkpt><trkpt lat="45.8559359" lon="11.7652948"><ele>1208.8333333333333</ele><time>2026-04-09T14:02:22.428Z</time></trkpt><trkpt lat="45.8560082" lon="11.7652719"><ele>1208.6666666666667</ele><time>2026-04-09T14:02:23.424Z</time></trkpt><trkpt lat="45.856076" lon="11.7652524"><ele>1208.5</ele><time>2026-04-09T14:02:24.44Z</time></trkpt><trkpt lat="45.8561817" lon="11.765216"><ele>1208.3333333333335</ele><time>2026-04-09T14:02:26.425Z</time></trkpt><trkpt lat="45.8562404" lon="11.7651402"><ele>1208.1666666666667</ele><time>2026-04-09T14:02:28.43Z</time></trkpt><trkpt lat="45.8561713" lon="11.7650502"><ele>1208.0</ele><time>2026-04-09T14:02:31.428Z</time></trkpt><trkpt lat="45.8560707" lon="11.7650475"><ele>1208.0000000000002</ele><time>2026-04-09T14:02:33.425Z</time></trkpt><trkpt lat="45.8560042" lon="11.7650523"><ele>1208.0</ele><time>2026-04-09T14:02:34.423Z</time></trkpt><trkpt lat="45.855932" lon="11.7650521"><ele>1208.0</ele><time>2026-04-09T14:02:35.42Z</time></trkpt><trkpt lat="45.8558527" lon="11.7650538"><ele>1208.0</ele><time>2026-04-09T14:02:36.421Z</time></trkpt><trkpt lat="45.8557763" lon="11.7650643"><ele>1208.0</ele><time>2026-04-09T14:02:37.421Z</time></trkpt><trkpt lat="45.8557003" lon="11.7650772"><ele>1208.0000000000002</ele><time>2026-04-09T14:02:38.439Z</time></trkpt><trkpt lat="45.8556249" lon="11.7650959"><ele>1208.0</ele><time>2026-04-09T14:02:39.435Z</time></trkpt><trkpt lat="45.855541" lon="11.7651329"><ele>1209.6666666666667</ele><time>2026-04-09T14:02:40.421Z</time></trkpt><trkpt lat="45.8554577" lon="11.7651594"><ele>1211.3333333333335</ele><time>2026-04-09T14:02:41.438Z</time></trkpt><trkpt lat="45.8553789" lon="11.7651833"><ele>1213.0</ele><time>2026-04-09T14:02:42.438Z</time></trkpt><trkpt lat="45.8553073" lon="11.7651887"><ele>1214.6666666666667</ele><time>2026-04-09T14:02:43.43Z</time></trkpt><trkpt lat="45.8552294" lon="11.7651839"><ele>1216.3333333333333</ele><time>2026-04-09T14:02:44.443Z</time></trkpt><trkpt lat="45.8551421" lon="11.765174"><ele>1218.0</ele><time>2026-04-09T14:02:45.43Z</time></trkpt><trkpt lat="45.8550495" lon="11.7651589"><ele>1220.0</ele><time>2026-04-09T14:02:46.425Z</time></trkpt><trkpt lat="45.8549486" lon="11.76512"><ele>1222.0</ele><time>2026-04-09T14:02:47.437Z</time></trkpt><trkpt lat="45.8548516" lon="11.7650811"><ele>1224.0</ele><time>2026-04-09T14:02:48.43Z</time></trkpt><trkpt lat="45.8547362" lon="11.76504"><ele>1226.0</ele><time>2026-04-09T14:02:49.428Z</time></trkpt><trkpt lat="45.8546477" lon="11.7650113"><ele>1228.0</ele><time>2026-04-09T14:02:50.433Z</time></trkpt><trkpt lat="45.8545579" lon="11.7649846"><ele>1228.0</ele><time>2026-04-09T14:02:51.428Z</time></trkpt><trkpt lat="45.8544722" lon="11.7649625"><ele>1228.0</ele><time>2026-04-09T14:02:52.42Z</time></trkpt><trkpt lat="45.8543826" lon="11.764949"><ele>1228.0</ele><time>2026-04-09T14:02:53.422Z</time></trkpt><trkpt lat="45.854287" lon="11.7649395"><ele>1228.0</ele><time>2026-04-09T14:02:54.425Z</time></trkpt><trkpt lat="45.8541995" lon="11.7649228"><ele>1228.0</ele><time>2026-04-09T14:02:55.432Z</time></trkpt><trkpt lat="45.8541187" lon="11.7649093"><ele>1228.0</ele><time>2026-04-09T14:02:56.441Z</time></trkpt><trkpt lat="45.8539938" lon="11.7649386"><ele>1228.6</ele><time>2026-04-09T14:02:58.432Z</time></trkpt><trkpt lat="45.8539326" lon="11.7650797"><ele>1229.1999999999998</ele><time>2026-04-09T14:03:00.439Z</time></trkpt><trkpt lat="45.8539273" lon="11.7652533"><ele>1229.8</ele><time>2026-04-09T14:03:02.432Z</time></trkpt><trkpt lat="45.8538947" lon="11.7653782"><ele>1230.3999999999999</ele><time>2026-04-09T14:03:04.439Z</time></trkpt><trkpt lat="45.8537911" lon="11.7654388"><ele>1231.0</ele><time>2026-04-09T14:03:06.44Z</time></trkpt><trkpt lat="45.8537098" lon="11.7654597"><ele>1231.0</ele><time>2026-04-09T14:03:07.45Z</time></trkpt><trkpt lat="45.8536131" lon="11.7654819"><ele>1231.0</ele><time>2026-04-09T14:03:08.425Z</time></trkpt><trkpt lat="45.853525" lon="11.7654994"><ele>1231.0</ele><time>2026-04-09T14:03:09.438Z</time></trkpt><trkpt lat="45.8534495" lon="11.7655093"><ele>1231.0</ele><time>2026-04-09T14:03:10.436Z</time></trkpt><trkpt lat="45.8533793" lon="11.765507"><ele>1231.0</ele><time>2026-04-09T14:03:11.441Z</time></trkpt><trkpt lat="45.8533074" lon="11.7654862"><ele>1231.0</ele><time>2026-04-09T14:03:12.434Z</time></trkpt><trkpt lat="45.8532311" lon="11.7654444"><ele>1232.2</ele><time>2026-04-09T14:03:13.439Z</time></trkpt><trkpt lat="45.8531454" lon="11.7653927"><ele>1233.3999999999999</ele><time>2026-04-09T14:03:14.45Z</time></trkpt><trkpt lat="45.8530563" lon="11.7653384"><ele>1234.6</ele><time>2026-04-09T14:03:15.425Z</time></trkpt><trkpt lat="45.8529625" lon="11.7652844"><ele>1235.8</ele><time>2026-04-09T14:03:16.429Z</time></trkpt><trkpt lat="45.8528737" lon="11.7652391"><ele>1237.0</ele><time>2026-04-09T14:03:17.435Z</time></trkpt><trkpt lat="45.852781" lon="11.7651934"><ele>1238.2</ele><time>2026-04-09T14:03:18.428Z</time></trkpt><trkpt lat="45.8526834" lon="11.7651706"><ele>1239.4</ele><time>2026-04-09T14:03:19.431Z</time></trkpt><trkpt lat="45.8525859" lon="11.7651527"><ele>1240.6</ele><time>2026-04-09T14:03:20.436Z</time></trkpt><trkpt lat="45.8524971" lon="11.7651346"><ele>1241.8</ele><time>2026-04-09T14:03:21.43Z</time></trkpt><trkpt lat="45.8524155" lon="11.7651291"><ele>1243.0</ele><time>2026-04-09T14:03:22.424Z</time></trkpt><trkpt lat="45.852334" lon="11.7651407"><ele>1244.1666666666665</ele><time>2026-04-09T14:03:23.435Z</time></trkpt><trkpt lat="45.8522538" lon="11.7651549"><ele>1245.3333333333333</ele><time>2026-04-09T14:03:24.438Z</time></trkpt><trkpt lat="45.8521743" lon="11.7651907"><ele>1246.5</ele><time>2026-04-09T14:03:25.432Z</time></trkpt><trkpt lat="45.8520906" lon="11.7652244"><ele>1247.6666666666667</ele><time>2026-04-09T14:03:26.445Z</time></trkpt><trkpt lat="45.8520109" lon="11.7652519"><ele>1248.8333333333335</ele><time>2026-04-09T14:03:27.431Z</time></trkpt><trkpt lat="45.8519402" lon="11.7652647"><ele>1250.0</ele><time>2026-04-09T14:03:28.43Z</time></trkpt><trkpt lat="45.8518287" lon="11.7652588"><ele>1248.8333333333335</ele><time>2026-04-09T14:03:30.441Z</time></trkpt><trkpt lat="45.8517372" lon="11.7652021"><ele>1247.6666666666667</ele><time>2026-04-09T14:03:32.435Z</time></trkpt><trkpt lat="45.8516574" lon="11.7651124"><ele>1246.5</ele><time>2026-04-09T14:03:34.437Z</time></trkpt><trkpt lat="45.8515972" lon="11.765"><ele>1245.3333333333333</ele><time>2026-04-09T14:03:36.435Z</time></trkpt><trkpt lat="45.8515638" lon="11.764909"><ele>1244.1666666666665</ele><time>2026-04-09T14:03:38.434Z</time></trkpt><trkpt lat="45.8515089" lon="11.7648637"><ele>1243.0</ele><time>2026-04-09T14:03:41.437Z</time></trkpt><trkpt lat="45.8514924" lon="11.7649751"><ele>1243.0</ele><time>2026-04-09T14:03:51.438Z</time></trkpt><trkpt lat="45.851532" lon="11.7650989"><ele>1243.0</ele><time>2026-04-09T14:03:53.432Z</time></trkpt><trkpt lat="45.851613" lon="11.7652459"><ele>1243.0</ele><time>2026-04-09T14:03:55.441Z</time></trkpt><trkpt lat="45.8516564" lon="11.7653201"><ele>1243.0</ele><time>2026-04-09T14:03:56.437Z</time></trkpt><trkpt lat="45.8517163" lon="11.7654589"><ele>1243.0</ele><time>2026-04-09T14:03:58.429Z</time></trkpt><trkpt lat="45.8517308" lon="11.7655974"><ele>1243.0</ele><time>2026-04-09T14:04:00.429Z</time></trkpt><trkpt lat="45.8516811" lon="11.7657378"><ele>1243.0</ele><time>2026-04-09T14:04:02.43Z</time></trkpt><trkpt lat="45.8515843" lon="11.7658574"><ele>1243.0</ele><time>2026-04-09T14:04:04.446Z</time></trkpt><trkpt lat="45.8515194" lon="11.7659169"><ele>1243.0</ele><time>2026-04-09T14:04:05.437Z</time></trkpt><trkpt lat="45.851452" lon="11.7659668"><ele>1243.0</ele><time>2026-04-09T14:04:06.449Z</time></trkpt><trkpt lat="45.8513828" lon="11.7660008"><ele>1242.3333333333333</ele><time>2026-04-09T14:04:07.445Z</time></trkpt><trkpt lat="45.8513137" lon="11.7660289"><ele>1241.6666666666665</ele><time>2026-04-09T14:04:08.427Z</time></trkpt><trkpt lat="45.8512397" lon="11.7660532"><ele>1241.0</ele><time>2026-04-09T14:04:09.444Z</time></trkpt><trkpt lat="45.8511649" lon="11.7660716"><ele>1240.3333333333333</ele><time>2026-04-09T14:04:10.428Z</time></trkpt><trkpt lat="45.8510894" lon="11.7660811"><ele>1239.6666666666667</ele><time>2026-04-09T14:04:11.427Z</time></trkpt><trkpt lat="45.8510205" lon="11.7660904"><ele>1239.0</ele><time>2026-04-09T14:04:12.437Z</time></trkpt><trkpt lat="45.8509116" lon="11.7661126"><ele>1239.0</ele><time>2026-04-09T14:04:14.429Z</time></trkpt><trkpt lat="45.8508097" lon="11.7661873"><ele>1239.0</ele><time>2026-04-09T14:04:16.433Z</time></trkpt><trkpt lat="45.8507634" lon="11.7662549"><ele>1239.0</ele><time>2026-04-09T14:04:17.427Z</time></trkpt><trkpt lat="45.85071" lon="11.7663276"><ele>1239.0</ele><time>2026-04-09T14:04:18.434Z</time></trkpt><trkpt lat="45.8506504" lon="11.766404"><ele>1239.0</ele><time>2026-04-09T14:04:19.436Z</time></trkpt><trkpt lat="45.850584" lon="11.7664933"><ele>1239.0</ele><time>2026-04-09T14:04:20.425Z</time></trkpt><trkpt lat="45.8505289" lon="11.766604"><ele>1239.0</ele><time>2026-04-09T14:04:21.426Z</time></trkpt><trkpt lat="45.8504728" lon="11.7667016"><ele>1239.0</ele><time>2026-04-09T14:04:22.429Z</time></trkpt><trkpt lat="45.8504301" lon="11.7667866"><ele>1239.0</ele><time>2026-04-09T14:04:23.432Z</time></trkpt><trkpt lat="45.8503937" lon="11.7668613"><ele>1239.0</ele><time>2026-04-09T14:04:24.421Z</time></trkpt><trkpt lat="45.8503581" lon="11.7669441"><ele>1239.0</ele><time>2026-04-09T14:04:25.423Z</time></trkpt><trkpt lat="45.8503459" lon="11.7670526"><ele>1239.0</ele><time>2026-04-09T14:04:26.423Z</time></trkpt><trkpt lat="45.850334" lon="11.7671695"><ele>1239.5</ele><time>2026-04-09T14:04:27.427Z</time></trkpt><trkpt lat="45.8503364" lon="11.7672865"><ele>1240.0</ele><time>2026-04-09T14:04:28.434Z</time></trkpt><trkpt lat="45.8503465" lon="11.7673988"><ele>1240.5</ele><time>2026-04-09T14:04:29.428Z</time></trkpt><trkpt lat="45.8503604" lon="11.7675085"><ele>1241.0</ele><time>2026-04-09T14:04:30.436Z</time></trkpt><trkpt lat="45.8504077" lon="11.7676228"><ele>1241.5</ele><time>2026-04-09T14:04:31.427Z</time></trkpt><trkpt lat="45.8504487" lon="11.7677396"><ele>1242.0</ele><time>2026-04-09T14:04:32.44Z</time></trkpt><trkpt lat="45.8504876" lon="11.7678596"><ele>1239.5</ele><time>2026-04-09T14:04:33.446Z</time></trkpt><trkpt lat="45.8505267" lon="11.7679671"><ele>1237.0</ele><time>2026-04-09T14:04:34.443Z</time></trkpt><trkpt lat="45.8505565" lon="11.768059"><ele>1234.5</ele><time>2026-04-09T14:04:35.432Z</time></trkpt><trkpt lat="45.8506165" lon="11.7681932"><ele>1232.0</ele><time>2026-04-09T14:04:37.435Z</time></trkpt><trkpt lat="45.8506758" lon="11.7682609"><ele>1229.5</ele><time>2026-04-09T14:04:38.428Z</time></trkpt><trkpt lat="45.8507325" lon="11.7683196"><ele>1227.0</ele><time>2026-04-09T14:04:39.436Z</time></trkpt><trkpt lat="45.8507913" lon="11.7683933"><ele>1227.0</ele><time>2026-04-09T14:04:40.436Z</time></trkpt><trkpt lat="45.8508347" lon="11.7684714"><ele>1227.0</ele><time>2026-04-09T14:04:41.428Z</time></trkpt><trkpt lat="45.8508645" lon="11.7685574"><ele>1227.0</ele><time>2026-04-09T14:04:42.441Z</time></trkpt><trkpt lat="45.850861" lon="11.7687084"><ele>1227.0</ele><time>2026-04-09T14:04:44.44Z</time></trkpt><trkpt lat="45.8507563" lon="11.7688226"><ele>1227.0</ele><time>2026-04-09T14:04:46.432Z</time></trkpt><trkpt lat="45.8506705" lon="11.7688634"><ele>1228.2</ele><time>2026-04-09T14:04:47.431Z</time></trkpt><trkpt lat="45.850579" lon="11.7689024"><ele>1229.4</ele><time>2026-04-09T14:04:48.43Z</time></trkpt><trkpt lat="45.8504885" lon="11.7689439"><ele>1230.6</ele><time>2026-04-09T14:04:49.452Z</time></trkpt><trkpt lat="45.8503993" lon="11.7689913"><ele>1231.8</ele><time>2026-04-09T14:04:50.429Z</time></trkpt><trkpt lat="45.850315" lon="11.7690301"><ele>1233.0</ele><time>2026-04-09T14:04:51.426Z</time></trkpt><trkpt lat="45.8502272" lon="11.7690732"><ele>1233.0</ele><time>2026-04-09T14:04:52.425Z</time></trkpt><trkpt lat="45.8501394" lon="11.7691063"><ele>1233.0</ele><time>2026-04-09T14:04:53.437Z</time></trkpt><trkpt lat="45.8500569" lon="11.7691337"><ele>1233.0</ele><time>2026-04-09T14:04:54.424Z</time></trkpt><trkpt lat="45.849973" lon="11.7691712"><ele>1233.0</ele><time>2026-04-09T14:04:55.424Z</time></trkpt><trkpt lat="45.8498905" lon="11.7692053"><ele>1233.0</ele><time>2026-04-09T14:04:56.438Z</time></trkpt><trkpt lat="45.8498096" lon="11.7692381"><ele>1233.0</ele><time>2026-04-09T14:04:57.431Z</time></trkpt><trkpt lat="45.8497218" lon="11.7692763"><ele>1233.8333333333333</ele><time>2026-04-09T14:04:58.423Z</time></trkpt><trkpt lat="45.8496347" lon="11.7693146"><ele>1234.6666666666667</ele><time>2026-04-09T14:04:59.437Z</time></trkpt><trkpt lat="45.849548" lon="11.7693518"><ele>1235.5</ele><time>2026-04-09T14:05:00.425Z</time></trkpt><trkpt lat="45.8494662" lon="11.7693895"><ele>1236.3333333333335</ele><time>2026-04-09T14:05:01.427Z</time></trkpt><trkpt lat="45.8493976" lon="11.769439"><ele>1237.1666666666667</ele><time>2026-04-09T14:05:02.445Z</time></trkpt><trkpt lat="45.8493316" lon="11.7694974"><ele>1238.0</ele><time>2026-04-09T14:05:03.445Z</time></trkpt><trkpt lat="45.849273" lon="11.7695621"><ele>1230.2</ele><time>2026-04-09T14:05:04.43Z</time></trkpt><trkpt lat="45.8492109" lon="11.7696459"><ele>1222.4</ele><time>2026-04-09T14:05:05.434Z</time></trkpt><trkpt lat="45.8491515" lon="11.769742"><ele>1214.6000000000001</ele><time>2026-04-09T14:05:06.434Z</time></trkpt><trkpt lat="45.8491131" lon="11.769843"><ele>1206.8</ele><time>2026-04-09T14:05:07.426Z</time></trkpt><trkpt lat="45.8490911" lon="11.7699637"><ele>1199.0</ele><time>2026-04-09T14:05:08.447Z</time></trkpt><trkpt lat="45.8490682" lon="11.7701166"><ele>1201.0</ele><time>2026-04-09T14:05:09.432Z</time></trkpt><trkpt lat="45.8490335" lon="11.7702549"><ele>1203.0</ele><time>2026-04-09T14:05:10.426Z</time></trkpt><trkpt lat="45.8489961" lon="11.7703722"><ele>1205.0</ele><time>2026-04-09T14:05:11.468Z</time></trkpt><trkpt lat="45.8489598" lon="11.7704702"><ele>1207.0</ele><time>2026-04-09T14:05:12.433Z</time></trkpt><trkpt lat="45.8489261" lon="11.7705645"><ele>1209.0</ele><time>2026-04-09T14:05:13.423Z</time></trkpt><trkpt lat="45.8489023" lon="11.7706675"><ele>1211.0</ele><time>2026-04-09T14:05:14.432Z</time></trkpt><trkpt lat="45.8488852" lon="11.7707941"><ele>1211.0</ele><time>2026-04-09T14:05:15.443Z</time></trkpt><trkpt lat="45.848869" lon="11.7709213"><ele>1211.0</ele><time>2026-04-09T14:05:16.43Z</time></trkpt><trkpt lat="45.8488612" lon="11.7710627"><ele>1211.0</ele><time>2026-04-09T14:05:17.438Z</time></trkpt><trkpt lat="45.8488605" lon="11.7712043"><ele>1211.0</ele><time>2026-04-09T14:05:18.434Z</time></trkpt><trkpt lat="45.8488556" lon="11.7713562"><ele>1211.0</ele><time>2026-04-09T14:05:19.438Z</time></trkpt><trkpt lat="45.8488526" lon="11.771516"><ele>1209.8</ele><time>2026-04-09T14:05:20.446Z</time></trkpt><trkpt lat="45.8488523" lon="11.7716789"><ele>1208.6</ele><time>2026-04-09T14:05:21.434Z</time></trkpt><trkpt lat="45.8488551" lon="11.771837"><ele>1207.4</ele><time>2026-04-09T14:05:22.436Z</time></trkpt><trkpt lat="45.8488589" lon="11.7719889"><ele>1206.2</ele><time>2026-04-09T14:05:23.444Z</time></trkpt><trkpt lat="45.8488634" lon="11.7721234"><ele>1205.0</ele><time>2026-04-09T14:05:24.442Z</time></trkpt><trkpt lat="45.84886" lon="11.7722516"><ele>1204.1666666666667</ele><time>2026-04-09T14:05:25.427Z</time></trkpt><trkpt lat="45.8488473" lon="11.7723718"><ele>1203.3333333333335</ele><time>2026-04-09T14:05:26.438Z</time></trkpt><trkpt lat="45.8488404" lon="11.7724889"><ele>1202.5</ele><time>2026-04-09T14:05:27.43Z</time></trkpt><trkpt lat="45.8488435" lon="11.7725987"><ele>1201.6666666666667</ele><time>2026-04-09T14:05:28.421Z</time></trkpt><trkpt lat="45.8488478" lon="11.772689"><ele>1200.8333333333333</ele><time>2026-04-09T14:05:29.432Z</time></trkpt><trkpt lat="45.8488721" lon="11.7728379"><ele>1200.0</ele><time>2026-04-09T14:05:31.425Z</time></trkpt><trkpt lat="45.8489401" lon="11.7729647"><ele>1199.6666666666667</ele><time>2026-04-09T14:05:33.435Z</time></trkpt><trkpt lat="45.8489623" lon="11.7730541"><ele>1199.3333333333333</ele><time>2026-04-09T14:05:34.449Z</time></trkpt><trkpt lat="45.8489735" lon="11.7731713"><ele>1199.0</ele><time>2026-04-09T14:05:35.433Z</time></trkpt><trkpt lat="45.8489797" lon="11.7733086"><ele>1198.6666666666665</ele><time>2026-04-09T14:05:36.442Z</time></trkpt><trkpt lat="45.8489797" lon="11.7734303"><ele>1198.3333333333333</ele><time>2026-04-09T14:05:37.431Z</time></trkpt><trkpt lat="45.8489799" lon="11.7735578"><ele>1198.0</ele><time>2026-04-09T14:05:38.427Z</time></trkpt><trkpt lat="45.8489708" lon="11.7736748"><ele>1197.5</ele><time>2026-04-09T14:05:39.424Z</time></trkpt><trkpt lat="45.8489596" lon="11.7737751"><ele>1197.0</ele><time>2026-04-09T14:05:40.438Z</time></trkpt><trkpt lat="45.8489659" lon="11.77387"><ele>1196.5</ele><time>2026-04-09T14:05:41.43Z</time></trkpt><trkpt lat="45.8490016" lon="11.77398"><ele>1196.0</ele><time>2026-04-09T14:05:42.427Z</time></trkpt><trkpt lat="45.8490454" lon="11.7740983"><ele>1195.5</ele><time>2026-04-09T14:05:43.434Z</time></trkpt><trkpt lat="45.8490957" lon="11.774243"><ele>1195.0</ele><time>2026-04-09T14:05:44.434Z</time></trkpt><trkpt lat="45.8491381" lon="11.7743867"><ele>1192.8</ele><time>2026-04-09T14:05:45.42Z</time></trkpt><trkpt lat="45.8491821" lon="11.7745198"><ele>1190.6</ele><time>2026-04-09T14:05:46.431Z</time></trkpt><trkpt lat="45.849233" lon="11.77463"><ele>1188.4</ele><time>2026-04-09T14:05:47.428Z</time></trkpt><trkpt lat="45.8492962" lon="11.7747286"><ele>1186.2</ele><time>2026-04-09T14:05:48.426Z</time></trkpt><trkpt lat="45.8493724" lon="11.7748255"><ele>1184.0</ele><time>2026-04-09T14:05:49.434Z</time></trkpt><trkpt lat="45.8494585" lon="11.77491"><ele>1188.0</ele><time>2026-04-09T14:05:50.427Z</time></trkpt><trkpt lat="45.8495511" lon="11.7749977"><ele>1192.0</ele><time>2026-04-09T14:05:51.443Z</time></trkpt><trkpt lat="45.8496465" lon="11.7750676"><ele>1196.0</ele><time>2026-04-09T14:05:52.423Z</time></trkpt><trkpt lat="45.8497351" lon="11.7751358"><ele>1200.0</ele><time>2026-04-09T14:05:53.43Z</time></trkpt><trkpt lat="45.8498206" lon="11.7752064"><ele>1204.0</ele><time>2026-04-09T14:05:54.434Z</time></trkpt><trkpt lat="45.8498952" lon="11.7752855"><ele>1204.0</ele><time>2026-04-09T14:05:55.42Z</time></trkpt><trkpt lat="45.8499614" lon="11.7753666"><ele>1204.0</ele><time>2026-04-09T14:05:56.421Z</time></trkpt><trkpt lat="45.8500198" lon="11.7754679"><ele>1204.0</ele><time>2026-04-09T14:05:57.427Z</time></trkpt><trkpt lat="45.8500463" lon="11.7755983"><ele>1204.0</ele><time>2026-04-09T14:05:58.421Z</time></trkpt><trkpt lat="45.8500732" lon="11.7757264"><ele>1204.0</ele><time>2026-04-09T14:05:59.439Z</time></trkpt><trkpt lat="45.8501021" lon="11.7758427"><ele>1210.6666666666665</ele><time>2026-04-09T14:06:00.425Z</time></trkpt><trkpt lat="45.8501441" lon="11.775944"><ele>1217.3333333333333</ele><time>2026-04-09T14:06:01.423Z</time></trkpt><trkpt lat="45.8501931" lon="11.776045"><ele>1224.0</ele><time>2026-04-09T14:06:02.426Z</time></trkpt><trkpt lat="45.8502516" lon="11.7761482"><ele>1230.6666666666667</ele><time>2026-04-09T14:06:03.436Z</time></trkpt><trkpt lat="45.8503153" lon="11.7762455"><ele>1237.3333333333335</ele><time>2026-04-09T14:06:04.426Z</time></trkpt><trkpt lat="45.8503673" lon="11.7763479"><ele>1244.0</ele><time>2026-04-09T14:06:05.423Z</time></trkpt><trkpt lat="45.8503977" lon="11.7764587"><ele>1244.0</ele><time>2026-04-09T14:06:06.424Z</time></trkpt><trkpt lat="45.8504223" lon="11.7765791"><ele>1244.0</ele><time>2026-04-09T14:06:07.43Z</time></trkpt><trkpt lat="45.8504334" lon="11.7767149"><ele>1244.0</ele><time>2026-04-09T14:06:08.44Z</time></trkpt><trkpt lat="45.8504405" lon="11.7768498"><ele>1244.0</ele><time>2026-04-09T14:06:09.426Z</time></trkpt><trkpt lat="45.850473" lon="11.7769811"><ele>1244.0</ele><time>2026-04-09T14:06:10.438Z</time></trkpt><trkpt lat="45.8505185" lon="11.7771048"><ele>1241.6000000000001</ele><time>2026-04-09T14:06:11.447Z</time></trkpt><trkpt lat="45.8505605" lon="11.7772193"><ele>1239.2</ele><time>2026-04-09T14:06:12.43Z</time></trkpt><trkpt lat="45.8505979" lon="11.7773364"><ele>1236.8000000000002</ele><time>2026-04-09T14:06:13.428Z</time></trkpt><trkpt lat="45.850644" lon="11.7774577"><ele>1234.4</ele><time>2026-04-09T14:06:14.436Z</time></trkpt><trkpt lat="45.8507026" lon="11.7775679"><ele>1232.0</ele><time>2026-04-09T14:06:15.433Z</time></trkpt><trkpt lat="45.8507696" lon="11.7776363"><ele>1230.0</ele><time>2026-04-09T14:06:16.431Z</time></trkpt><trkpt lat="45.8508495" lon="11.7776895"><ele>1228.0</ele><time>2026-04-09T14:06:17.421Z</time></trkpt><trkpt lat="45.8509143" lon="11.7777393"><ele>1226.0</ele><time>2026-04-09T14:06:18.421Z</time></trkpt><trkpt lat="45.85097" lon="11.7778154"><ele>1224.0</ele><time>2026-04-09T14:06:19.43Z</time></trkpt><trkpt lat="45.85101" lon="11.7779091"><ele>1222.0</ele><time>2026-04-09T14:06:20.424Z</time></trkpt><trkpt lat="45.8510348" lon="11.778005"><ele>1220.0</ele><time>2026-04-09T14:06:21.425Z</time></trkpt><trkpt lat="45.851047" lon="11.7781187"><ele>1226.4</ele><time>2026-04-09T14:06:22.433Z</time></trkpt><trkpt lat="45.851051" lon="11.7782675"><ele>1232.8</ele><time>2026-04-09T14:06:23.431Z</time></trkpt><trkpt lat="45.8510545" lon="11.778393"><ele>1239.2</ele><time>2026-04-09T14:06:24.422Z</time></trkpt><trkpt lat="45.8510809" lon="11.7785086"><ele>1245.6</ele><time>2026-04-09T14:06:25.426Z</time></trkpt><trkpt lat="45.8511218" lon="11.7786311"><ele>1252.0</ele><time>2026-04-09T14:06:26.428Z</time></trkpt><trkpt lat="45.8511743" lon="11.7787688"><ele>1252.0</ele><time>2026-04-09T14:06:27.428Z</time></trkpt><trkpt lat="45.8512221" lon="11.7788769"><ele>1252.0</ele><time>2026-04-09T14:06:28.427Z</time></trkpt><trkpt lat="45.851287" lon="11.7789598"><ele>1252.0</ele><time>2026-04-09T14:06:29.438Z</time></trkpt><trkpt lat="45.851357" lon="11.7790392"><ele>1252.0</ele><time>2026-04-09T14:06:30.434Z</time></trkpt><trkpt lat="45.8514283" lon="11.779123"><ele>1252.0</ele><time>2026-04-09T14:06:31.429Z</time></trkpt><trkpt lat="45.8514942" lon="11.7792032"><ele>1252.0</ele><time>2026-04-09T14:06:32.427Z</time></trkpt><trkpt lat="45.8515391" lon="11.7792833"><ele>1255.1666666666665</ele><time>2026-04-09T14:06:33.426Z</time></trkpt><trkpt lat="45.8515617" lon="11.7793735"><ele>1258.3333333333333</ele><time>2026-04-09T14:06:34.428Z</time></trkpt><trkpt lat="45.8515732" lon="11.7794793"><ele>1261.5</ele><time>2026-04-09T14:06:35.428Z</time></trkpt><trkpt lat="45.851618" lon="11.7796324"><ele>1264.6666666666667</ele><time>2026-04-09T14:06:37.439Z</time></trkpt><trkpt lat="45.8517184" lon="11.7797156"><ele>1267.8333333333335</ele><time>2026-04-09T14:06:39.432Z</time></trkpt><trkpt lat="45.8517901" lon="11.7797451"><ele>1271.0</ele><time>2026-04-09T14:06:40.427Z</time></trkpt><trkpt lat="45.8518623" lon="11.7797724"><ele>1271.0</ele><time>2026-04-09T14:06:41.434Z</time></trkpt><trkpt lat="45.8519379" lon="11.7797916"><ele>1271.0</ele><time>2026-04-09T14:06:42.434Z</time></trkpt><trkpt lat="45.8520009" lon="11.7798231"><ele>1271.0</ele><time>2026-04-09T14:06:43.425Z</time></trkpt><trkpt lat="45.8520504" lon="11.7798965"><ele>1271.0</ele><time>2026-04-09T14:06:44.428Z</time></trkpt><trkpt lat="45.8521016" lon="11.7799942"><ele>1271.0</ele><time>2026-04-09T14:06:45.436Z</time></trkpt><trkpt lat="45.8521603" lon="11.7800983"><ele>1271.0</ele><time>2026-04-09T14:06:46.43Z</time></trkpt><trkpt lat="45.8522113" lon="11.7801969"><ele>1267.5</ele><time>2026-04-09T14:06:47.439Z</time></trkpt><trkpt lat="45.8522623" lon="11.7802899"><ele>1264.0</ele><time>2026-04-09T14:06:48.427Z</time></trkpt><trkpt lat="45.8523275" lon="11.7803613"><ele>1260.5</ele><time>2026-04-09T14:06:49.441Z</time></trkpt><trkpt lat="45.8523936" lon="11.780436"><ele>1257.0</ele><time>2026-04-09T14:06:50.439Z</time></trkpt><trkpt lat="45.8524534" lon="11.7805024"><ele>1253.5</ele><time>2026-04-09T14:06:51.432Z</time></trkpt><trkpt lat="45.8524941" lon="11.7805799"><ele>1250.0</ele><time>2026-04-09T14:06:52.428Z</time></trkpt><trkpt lat="45.8525204" lon="11.780683"><ele>1250.0</ele><time>2026-04-09T14:06:53.43Z</time></trkpt><trkpt lat="45.8525436" lon="11.780781"><ele>1250.0</ele><time>2026-04-09T14:06:54.432Z</time></trkpt><trkpt lat="45.8526267" lon="11.7808875"><ele>1250.0</ele><time>2026-04-09T14:06:56.432Z</time></trkpt><trkpt lat="45.8527492" lon="11.7809857"><ele>1250.0</ele><time>2026-04-09T14:06:58.42Z</time></trkpt><trkpt lat="45.8528491" lon="11.7810403"><ele>1250.0</ele><time>2026-04-09T14:06:59.433Z</time></trkpt><trkpt lat="45.8529515" lon="11.7810825"><ele>1252.0</ele><time>2026-04-09T14:07:00.434Z</time></trkpt><trkpt lat="45.8530413" lon="11.7811061"><ele>1254.0</ele><time>2026-04-09T14:07:01.423Z</time></trkpt><trkpt lat="45.8531138" lon="11.7811262"><ele>1256.0</ele><time>2026-04-09T14:07:02.428Z</time></trkpt><trkpt lat="45.853178" lon="11.7811497"><ele>1258.0</ele><time>2026-04-09T14:07:03.432Z</time></trkpt><trkpt lat="45.8532308" lon="11.781199"><ele>1260.0</ele><time>2026-04-09T14:07:04.43Z</time></trkpt><trkpt lat="45.85328" lon="11.7812814"><ele>1262.0</ele><time>2026-04-09T14:07:05.428Z</time></trkpt><trkpt lat="45.8533253" lon="11.7813959"><ele>1262.0</ele><time>2026-04-09T14:07:06.428Z</time></trkpt><trkpt lat="45.8533801" lon="11.7815032"><ele>1262.0</ele><time>2026-04-09T14:07:07.432Z</time></trkpt><trkpt lat="45.8534481" lon="11.781609"><ele>1262.0</ele><time>2026-04-09T14:07:08.426Z</time></trkpt><trkpt lat="45.8535107" lon="11.7817185"><ele>1262.0</ele><time>2026-04-09T14:07:09.428Z</time></trkpt><trkpt lat="45.8535868" lon="11.7817951"><ele>1262.0</ele><time>2026-04-09T14:07:10.437Z</time></trkpt><trkpt lat="45.8536746" lon="11.7818616"><ele>1263.4</ele><time>2026-04-09T14:07:11.441Z</time></trkpt><trkpt lat="45.8537754" lon="11.7819219"><ele>1264.8000000000002</ele><time>2026-04-09T14:07:12.432Z</time></trkpt><trkpt lat="45.8538749" lon="11.7819798"><ele>1266.2</ele><time>2026-04-09T14:07:13.432Z</time></trkpt><trkpt lat="45.8539729" lon="11.782036"><ele>1267.6000000000001</ele><time>2026-04-09T14:07:14.43Z</time></trkpt><trkpt lat="45.8540634" lon="11.7820987"><ele>1269.0</ele><time>2026-04-09T14:07:15.441Z</time></trkpt><trkpt lat="45.8541483" lon="11.782168"><ele>1269.0</ele><time>2026-04-09T14:07:16.427Z</time></trkpt><trkpt lat="45.8542252" lon="11.7822317"><ele>1269.0</ele><time>2026-04-09T14:07:17.427Z</time></trkpt><trkpt lat="45.8542889" lon="11.7823115"><ele>1269.0</ele><time>2026-04-09T14:07:18.426Z</time></trkpt><trkpt lat="45.8543565" lon="11.7823992"><ele>1269.0</ele><time>2026-04-09T14:07:19.432Z</time></trkpt><trkpt lat="45.8544313" lon="11.7824741"><ele>1269.0</ele><time>2026-04-09T14:07:20.428Z</time></trkpt><trkpt lat="45.8545129" lon="11.7825395"><ele>1269.0</ele><time>2026-04-09T14:07:21.425Z</time></trkpt><trkpt lat="45.8545943" lon="11.7826066"><ele>1271.4</ele><time>2026-04-09T14:07:22.426Z</time></trkpt><trkpt lat="45.8546704" lon="11.7826687"><ele>1273.8000000000002</ele><time>2026-04-09T14:07:23.429Z</time></trkpt><trkpt lat="45.8547289" lon="11.7827597"><ele>1276.1999999999998</ele><time>2026-04-09T14:07:24.422Z</time></trkpt><trkpt lat="45.8547863" lon="11.782857"><ele>1278.6</ele><time>2026-04-09T14:07:25.432Z</time></trkpt><trkpt lat="45.8548266" lon="11.7829915"><ele>1281.0</ele><time>2026-04-09T14:07:26.436Z</time></trkpt><trkpt lat="45.8548735" lon="11.7831324"><ele>1281.0</ele><time>2026-04-09T14:07:27.432Z</time></trkpt><trkpt lat="45.8549182" lon="11.7832687"><ele>1281.0</ele><time>2026-04-09T14:07:28.427Z</time></trkpt><trkpt lat="45.8549466" lon="11.7834006"><ele>1281.0</ele><time>2026-04-09T14:07:29.443Z</time></trkpt><trkpt lat="45.8549715" lon="11.7835336"><ele>1281.0</ele><time>2026-04-09T14:07:30.443Z</time></trkpt><trkpt lat="45.8549909" lon="11.7836509"><ele>1281.0</ele><time>2026-04-09T14:07:31.43Z</time></trkpt><trkpt lat="45.8550083" lon="11.7837554"><ele>1282.8</ele><time>2026-04-09T14:07:32.436Z</time></trkpt><trkpt lat="45.8550384" lon="11.7838895"><ele>1284.6</ele><time>2026-04-09T14:07:34.429Z</time></trkpt><trkpt lat="45.8551103" lon="11.7839261"><ele>1286.4</ele><time>2026-04-09T14:07:37.435Z</time></trkpt><trkpt lat="45.8551562" lon="11.7838249"><ele>1288.2</ele><time>2026-04-09T14:07:40.431Z</time></trkpt><trkpt lat="45.8551771" lon="11.7836957"><ele>1290.0</ele><time>2026-04-09T14:07:42.436Z</time></trkpt><trkpt lat="45.8552189" lon="11.7835134"><ele>1291.8333333333333</ele><time>2026-04-09T14:07:44.435Z</time></trkpt><trkpt lat="45.8552514" lon="11.7834242"><ele>1293.6666666666667</ele><time>2026-04-09T14:07:45.441Z</time></trkpt><trkpt lat="45.8552955" lon="11.7833142"><ele>1295.5</ele><time>2026-04-09T14:07:47.446Z</time></trkpt><trkpt lat="45.8553517" lon="11.7832323"><ele>1297.3333333333335</ele><time>2026-04-09T14:08:02.443Z</time></trkpt><trkpt lat="45.8554269" lon="11.7831544"><ele>1299.1666666666667</ele><time>2026-04-09T14:08:04.432Z</time></trkpt><trkpt lat="45.855529" lon="11.7831403"><ele>1301.0</ele><time>2026-04-09T14:08:06.431Z</time></trkpt><trkpt lat="45.8555925" lon="11.783175"><ele>1301.0</ele><time>2026-04-09T14:08:07.434Z</time></trkpt><trkpt lat="45.8556529" lon="11.7832318"><ele>1301.0</ele><time>2026-04-09T14:08:08.427Z</time></trkpt><trkpt lat="45.8557184" lon="11.7832929"><ele>1301.0</ele><time>2026-04-09T14:08:09.429Z</time></trkpt><trkpt lat="45.8557731" lon="11.7833788"><ele>1301.0</ele><time>2026-04-09T14:08:10.441Z</time></trkpt><trkpt lat="45.8558121" lon="11.7834701"><ele>1301.0</ele><time>2026-04-09T14:08:11.426Z</time></trkpt><trkpt lat="45.8558519" lon="11.7835476"><ele>1301.0</ele><time>2026-04-09T14:08:12.433Z</time></trkpt><trkpt lat="45.8559104" lon="11.7836588"><ele>1298.8</ele><time>2026-04-09T14:08:14.429Z</time></trkpt><trkpt lat="45.8559432" lon="11.7837563"><ele>1296.6</ele><time>2026-04-09T14:08:21.437Z</time></trkpt><trkpt lat="45.8560026" lon="11.7838688"><ele>1294.4</ele><time>2026-04-09T14:08:23.428Z</time></trkpt><trkpt lat="45.8560702" lon="11.7840368"><ele>1292.2</ele><time>2026-04-09T14:08:25.433Z</time></trkpt><trkpt lat="45.8561048" lon="11.7841385"><ele>1290.0</ele><time>2026-04-09T14:08:26.43Z</time></trkpt><trkpt lat="45.8561444" lon="11.7842368"><ele>1292.6666666666667</ele><time>2026-04-09T14:08:27.431Z</time></trkpt><trkpt lat="45.8561842" lon="11.7843338"><ele>1295.3333333333333</ele><time>2026-04-09T14:08:28.445Z</time></trkpt><trkpt lat="45.8562205" lon="11.7844221"><ele>1298.0</ele><time>2026-04-09T14:08:29.43Z</time></trkpt><trkpt lat="45.8562903" lon="11.7845509"><ele>1300.6666666666665</ele><time>2026-04-09T14:08:31.433Z</time></trkpt><trkpt lat="45.8563948" lon="11.784613"><ele>1303.3333333333333</ele><time>2026-04-09T14:08:33.433Z</time></trkpt><trkpt lat="45.8564661" lon="11.7846216"><ele>1306.0</ele><time>2026-04-09T14:08:34.431Z</time></trkpt><trkpt lat="45.8565431" lon="11.784628"><ele>1306.0</ele><time>2026-04-09T14:08:35.431Z</time></trkpt><trkpt lat="45.8566207" lon="11.7846351"><ele>1306.0</ele><time>2026-04-09T14:08:36.438Z</time></trkpt><trkpt lat="45.8566975" lon="11.7846514"><ele>1306.0</ele><time>2026-04-09T14:08:37.429Z</time></trkpt><trkpt lat="45.8567724" lon="11.7846869"><ele>1306.0</ele><time>2026-04-09T14:08:38.442Z</time></trkpt><trkpt lat="45.8568505" lon="11.7847258"><ele>1306.0</ele><time>2026-04-09T14:08:39.431Z</time></trkpt><trkpt lat="45.8569362" lon="11.7847895"><ele>1306.0</ele><time>2026-04-09T14:08:40.431Z</time></trkpt><trkpt lat="45.8570299" lon="11.7848521"><ele>1311.0</ele><time>2026-04-09T14:08:41.441Z</time></trkpt><trkpt lat="45.8571192" lon="11.7849148"><ele>1316.0</ele><time>2026-04-09T14:08:42.431Z</time></trkpt><trkpt lat="45.857203" lon="11.7849791"><ele>1321.0</ele><time>2026-04-09T14:08:43.428Z</time></trkpt><trkpt lat="45.8572877" lon="11.7850563"><ele>1326.0</ele><time>2026-04-09T14:08:44.436Z</time></trkpt><trkpt lat="45.8573551" lon="11.7851322"><ele>1331.0</ele><time>2026-04-09T14:08:45.434Z</time></trkpt><trkpt lat="45.8574139" lon="11.785202"><ele>1331.0</ele><time>2026-04-09T14:08:46.422Z</time></trkpt><trkpt lat="45.8574682" lon="11.7852672"><ele>1331.0</ele><time>2026-04-09T14:08:47.444Z</time></trkpt><trkpt lat="45.8575102" lon="11.7853384"><ele>1331.0</ele><time>2026-04-09T14:08:48.444Z</time></trkpt><trkpt lat="45.8575333" lon="11.7854232"><ele>1331.0</ele><time>2026-04-09T14:08:49.432Z</time></trkpt><trkpt lat="45.8575259" lon="11.7855197"><ele>1331.0</ele><time>2026-04-09T14:08:50.44Z</time></trkpt><trkpt lat="45.8575049" lon="11.7856062"><ele>1331.0</ele><time>2026-04-09T14:08:51.431Z</time></trkpt><trkpt lat="45.8574726" lon="11.7856945"><ele>1331.0</ele><time>2026-04-09T14:08:52.426Z</time></trkpt><trkpt lat="45.8574382" lon="11.7857842"><ele>1331.0</ele><time>2026-04-09T14:08:53.432Z</time></trkpt><trkpt lat="45.8573913" lon="11.7858701"><ele>1331.0</ele><time>2026-04-09T14:08:54.431Z</time></trkpt><trkpt lat="45.8573363" lon="11.7859542"><ele>1331.0</ele><time>2026-04-09T14:08:55.429Z</time></trkpt><trkpt lat="45.8572797" lon="11.7860382"><ele>1331.0</ele><time>2026-04-09T14:08:56.431Z</time></trkpt><trkpt lat="45.8572284" lon="11.7861228"><ele>1331.0</ele><time>2026-04-09T14:08:57.432Z</time></trkpt><trkpt lat="45.8571936" lon="11.786271"><ele>1331.0</ele><time>2026-04-09T14:08:59.444Z</time></trkpt><trkpt lat="45.8572022" lon="11.7863955"><ele>1332.4</ele><time>2026-04-09T14:09:01.434Z</time></trkpt><trkpt lat="45.8572857" lon="11.7864847"><ele>1333.8</ele><time>2026-04-09T14:09:03.436Z</time></trkpt><trkpt lat="45.8573869" lon="11.7865673"><ele>1335.2</ele><time>2026-04-09T14:09:05.434Z</time></trkpt><trkpt lat="45.8574606" lon="11.7866908"><ele>1336.6000000000001</ele><time>2026-04-09T14:09:07.425Z</time></trkpt><trkpt lat="45.8574558" lon="11.7868423"><ele>1338.0</ele><time>2026-04-09T14:09:09.503Z</time></trkpt><trkpt lat="45.8574204" lon="11.7869893"><ele>1338.0</ele><time>2026-04-09T14:09:11.47Z</time></trkpt><trkpt lat="45.8574209" lon="11.7871009"><ele>1338.0</ele><time>2026-04-09T14:09:13.439Z</time></trkpt><trkpt lat="45.8574842" lon="11.7871532"><ele>1338.0</ele><time>2026-04-09T14:09:16.446Z</time></trkpt><trkpt lat="45.8575318" lon="11.7870935"><ele>1338.0</ele><time>2026-04-09T14:09:18.437Z</time></trkpt><trkpt lat="45.8575349" lon="11.7869205"><ele>1338.0</ele><time>2026-04-09T14:09:20.434Z</time></trkpt><trkpt lat="45.8575358" lon="11.786814"><ele>1338.0</ele><time>2026-04-09T14:09:21.428Z</time></trkpt><trkpt lat="45.8575386" lon="11.786699"><ele>1338.0</ele><time>2026-04-09T14:09:22.43Z</time></trkpt><trkpt lat="45.8575336" lon="11.7865933"><ele>1338.0</ele><time>2026-04-09T14:09:23.428Z</time></trkpt><trkpt lat="45.8575305" lon="11.7864941"><ele>1338.0</ele><time>2026-04-09T14:09:24.436Z</time></trkpt><trkpt lat="45.857537" lon="11.7863474"><ele>1338.0</ele><time>2026-04-09T14:09:26.429Z</time></trkpt><trkpt lat="45.8575595" lon="11.7862316"><ele>1338.0</ele><time>2026-04-09T14:09:28.442Z</time></trkpt><trkpt lat="45.8576533" lon="11.786122"><ele>1344.5</ele><time>2026-04-09T14:09:30.441Z</time></trkpt><trkpt lat="45.8577059" lon="11.7860479"><ele>1351.0</ele><time>2026-04-09T14:09:31.426Z</time></trkpt><trkpt lat="45.857762" lon="11.785967"><ele>1357.5</ele><time>2026-04-09T14:09:32.427Z</time></trkpt><trkpt lat="45.8578182" lon="11.785884"><ele>1364.0</ele><time>2026-04-09T14:09:33.441Z</time></trkpt><trkpt lat="45.857872" lon="11.785801"><ele>1370.5</ele><time>2026-04-09T14:09:34.424Z</time></trkpt><trkpt lat="45.8579148" lon="11.7857034"><ele>1377.0</ele><time>2026-04-09T14:09:35.427Z</time></trkpt><trkpt lat="45.857944" lon="11.7855965"><ele>1377.0</ele><time>2026-04-09T14:09:36.436Z</time></trkpt><trkpt lat="45.8579761" lon="11.7854868"><ele>1377.0</ele><time>2026-04-09T14:09:37.436Z</time></trkpt><trkpt lat="45.8580143" lon="11.7853826"><ele>1377.0</ele><time>2026-04-09T14:09:38.424Z</time></trkpt><trkpt lat="45.8580448" lon="11.785281"><ele>1377.0</ele><time>2026-04-09T14:09:39.424Z</time></trkpt><trkpt lat="45.8580684" lon="11.7851787"><ele>1377.0</ele><time>2026-04-09T14:09:40.427Z</time></trkpt><trkpt lat="45.8580784" lon="11.7850713"><ele>1377.0</ele><time>2026-04-09T14:09:41.423Z</time></trkpt><trkpt lat="45.8580734" lon="11.7849564"><ele>1376.1666666666667</ele><time>2026-04-09T14:09:42.428Z</time></trkpt><trkpt lat="45.8580616" lon="11.7848402"><ele>1375.3333333333333</ele><time>2026-04-09T14:09:43.436Z</time></trkpt><trkpt lat="45.8580446" lon="11.7847309"><ele>1374.5</ele><time>2026-04-09T14:09:44.424Z</time></trkpt><trkpt lat="45.858012" lon="11.7846215"><ele>1373.6666666666665</ele><time>2026-04-09T14:09:45.422Z</time></trkpt><trkpt lat="45.8579706" lon="11.7845115"><ele>1372.8333333333333</ele><time>2026-04-09T14:09:46.44Z</time></trkpt><trkpt lat="45.8579314" lon="11.7844081"><ele>1372.0</ele><time>2026-04-09T14:09:47.436Z</time></trkpt><trkpt lat="45.8578917" lon="11.7843043"><ele>1374.8333333333333</ele><time>2026-04-09T14:09:48.434Z</time></trkpt><trkpt lat="45.857851" lon="11.7842005"><ele>1377.6666666666665</ele><time>2026-04-09T14:09:49.432Z</time></trkpt><trkpt lat="45.8578122" lon="11.7840975"><ele>1380.5</ele><time>2026-04-09T14:09:50.429Z</time></trkpt><trkpt lat="45.8577738" lon="11.7839975"><ele>1383.3333333333333</ele><time>2026-04-09T14:09:51.437Z</time></trkpt><trkpt lat="45.8577328" lon="11.7838869"><ele>1386.1666666666667</ele><time>2026-04-09T14:09:52.432Z</time></trkpt><trkpt lat="45.8576889" lon="11.7837794"><ele>1389.0</ele><time>2026-04-09T14:09:53.44Z</time></trkpt><trkpt lat="45.8576408" lon="11.7836674"><ele>1387.0</ele><time>2026-04-09T14:09:54.432Z</time></trkpt><trkpt lat="45.8575928" lon="11.7835573"><ele>1385.0</ele><time>2026-04-09T14:09:55.43Z</time></trkpt><trkpt lat="45.85755" lon="11.7834508"><ele>1383.0</ele><time>2026-04-09T14:09:56.422Z</time></trkpt><trkpt lat="45.8575098" lon="11.7833463"><ele>1381.0</ele><time>2026-04-09T14:09:57.429Z</time></trkpt><trkpt lat="45.8574567" lon="11.7832461"><ele>1379.0</ele><time>2026-04-09T14:09:58.426Z</time></trkpt><trkpt lat="45.857398" lon="11.7831524"><ele>1377.0</ele><time>2026-04-09T14:09:59.422Z</time></trkpt><trkpt lat="45.8573378" lon="11.7830639"><ele>1377.0</ele><time>2026-04-09T14:10:00.421Z</time></trkpt><trkpt lat="45.8572863" lon="11.7829764"><ele>1377.0</ele><time>2026-04-09T14:10:01.433Z</time></trkpt><trkpt lat="45.85724" lon="11.782899"><ele>1377.0</ele><time>2026-04-09T14:10:02.423Z</time></trkpt><trkpt lat="45.857216" lon="11.7828118"><ele>1377.0</ele><time>2026-04-09T14:10:03.446Z</time></trkpt><trkpt lat="45.8572058" lon="11.7827216"><ele>1377.0</ele><time>2026-04-09T14:10:04.44Z</time></trkpt><trkpt lat="45.857207" lon="11.7826223"><ele>1377.0</ele><time>2026-04-09T14:10:05.426Z</time></trkpt><trkpt lat="45.8572022" lon="11.7825219"><ele>1377.0</ele><time>2026-04-09T14:10:06.438Z</time></trkpt><trkpt lat="45.8571789" lon="11.7824259"><ele>1380.8333333333333</ele><time>2026-04-09T14:10:07.432Z</time></trkpt><trkpt lat="45.8571689" lon="11.7823212"><ele>1384.6666666666667</ele><time>2026-04-09T14:10:08.437Z</time></trkpt><trkpt lat="45.8571278" lon="11.7822232"><ele>1388.5</ele><time>2026-04-09T14:10:09.431Z</time></trkpt><trkpt lat="45.8570866" lon="11.782125"><ele>1392.3333333333335</ele><time>2026-04-09T14:10:10.429Z</time></trkpt><trkpt lat="45.8570477" lon="11.7820293"><ele>1396.1666666666667</ele><time>2026-04-09T14:10:11.429Z</time></trkpt><trkpt lat="45.8570177" lon="11.7819432"><ele>1400.0</ele><time>2026-04-09T14:10:12.433Z</time></trkpt><trkpt lat="45.8569548" lon="11.7818203"><ele>1400.0</ele><time>2026-04-09T14:10:14.434Z</time></trkpt><trkpt lat="45.8569404" lon="11.7817318"><ele>1400.0</ele><time>2026-04-09T14:10:16.459Z</time></trkpt><trkpt lat="45.8570218" lon="11.7817475"><ele>1400.0</ele><time>2026-04-09T14:10:20.439Z</time></trkpt><trkpt lat="45.8570763" lon="11.7818769"><ele>1400.0</ele><time>2026-04-09T14:10:22.437Z</time></trkpt><trkpt lat="45.8571147" lon="11.7819575"><ele>1400.0</ele><time>2026-04-09T14:10:23.432Z</time></trkpt><trkpt lat="45.8571611" lon="11.7820374"><ele>1400.0</ele><time>2026-04-09T14:10:24.435Z</time></trkpt><trkpt lat="45.8572136" lon="11.7821122"><ele>1400.0</ele><time>2026-04-09T14:10:25.427Z</time></trkpt><trkpt lat="45.857271" lon="11.7821838"><ele>1400.0</ele><time>2026-04-09T14:10:26.427Z</time></trkpt><trkpt lat="45.8573289" lon="11.7822536"><ele>1400.0</ele><time>2026-04-09T14:10:27.434Z</time></trkpt><trkpt lat="45.8573838" lon="11.7823296"><ele>1400.0</ele><time>2026-04-09T14:10:28.435Z</time></trkpt><trkpt lat="45.8574361" lon="11.7824043"><ele>1400.0</ele><time>2026-04-09T14:10:29.429Z</time></trkpt><trkpt lat="45.8574846" lon="11.7824767"><ele>1400.0</ele><time>2026-04-09T14:10:30.436Z</time></trkpt><trkpt lat="45.8575657" lon="11.7825802"><ele>1401.8333333333335</ele><time>2026-04-09T14:10:32.435Z</time></trkpt><trkpt lat="45.857683" lon="11.7826344"><ele>1403.6666666666667</ele><time>2026-04-09T14:10:34.437Z</time></trkpt><trkpt lat="45.8577503" lon="11.7826672"><ele>1405.5</ele><time>2026-04-09T14:10:35.442Z</time></trkpt><trkpt lat="45.8578133" lon="11.7827168"><ele>1407.3333333333333</ele><time>2026-04-09T14:10:36.431Z</time></trkpt><trkpt lat="45.857871" lon="11.7827799"><ele>1409.1666666666665</ele><time>2026-04-09T14:10:37.435Z</time></trkpt><trkpt lat="45.8579286" lon="11.782843"><ele>1411.0</ele><time>2026-04-09T14:10:38.439Z</time></trkpt><trkpt lat="45.8579804" lon="11.782921"><ele>1411.0</ele><time>2026-04-09T14:10:39.437Z</time></trkpt><trkpt lat="45.8580367" lon="11.7830015"><ele>1411.0</ele><time>2026-04-09T14:10:40.43Z</time></trkpt><trkpt lat="45.8580911" lon="11.7830849"><ele>1411.0</ele><time>2026-04-09T14:10:41.429Z</time></trkpt><trkpt lat="45.8581426" lon="11.7831634"><ele>1411.0</ele><time>2026-04-09T14:10:42.432Z</time></trkpt><trkpt lat="45.8581986" lon="11.7832455"><ele>1411.0</ele><time>2026-04-09T14:10:43.44Z</time></trkpt><trkpt lat="45.8582549" lon="11.7833267"><ele>1411.0</ele><time>2026-04-09T14:10:44.438Z</time></trkpt><trkpt lat="45.8583091" lon="11.7834137"><ele>1411.0</ele><time>2026-04-09T14:10:45.432Z</time></trkpt><trkpt lat="45.8583601" lon="11.7834997"><ele>1411.0</ele><time>2026-04-09T14:10:46.434Z</time></trkpt><trkpt lat="45.8584063" lon="11.7835889"><ele>1411.0</ele><time>2026-04-09T14:10:47.436Z</time></trkpt><trkpt lat="45.8584508" lon="11.7836671"><ele>1411.0</ele><time>2026-04-09T14:10:48.433Z</time></trkpt><trkpt lat="45.8585181" lon="11.783783"><ele>1411.0</ele><time>2026-04-09T14:10:50.436Z</time></trkpt><trkpt lat="45.8585916" lon="11.7838084"><ele>1411.0</ele><time>2026-04-09T14:10:52.435Z</time></trkpt><trkpt lat="45.8586667" lon="11.7837586"><ele>1411.0</ele><time>2026-04-09T14:10:54.437Z</time></trkpt><trkpt lat="45.8587487" lon="11.7836508"><ele>1411.0</ele><time>2026-04-09T14:10:56.43Z</time></trkpt><trkpt lat="45.8588191" lon="11.7835463"><ele>1411.0</ele><time>2026-04-09T14:10:58.435Z</time></trkpt><trkpt lat="45.8589056" lon="11.7834546"><ele>1411.0</ele><time>2026-04-09T14:11:00.434Z</time></trkpt><trkpt lat="45.8590169" lon="11.7834214"><ele>1411.0</ele><time>2026-04-09T14:11:02.425Z</time></trkpt><trkpt lat="45.8590796" lon="11.7834371"><ele>1414.1666666666665</ele><time>2026-04-09T14:11:03.422Z</time></trkpt><trkpt lat="45.8591492" lon="11.7834651"><ele>1417.3333333333333</ele><time>2026-04-09T14:11:04.427Z</time></trkpt><trkpt lat="45.8592148" lon="11.7835006"><ele>1420.5</ele><time>2026-04-09T14:11:05.44Z</time></trkpt><trkpt lat="45.8593046" lon="11.7835717"><ele>1423.6666666666667</ele><time>2026-04-09T14:11:07.423Z</time></trkpt><trkpt lat="45.859402" lon="11.7836786"><ele>1426.8333333333335</ele><time>2026-04-09T14:11:09.435Z</time></trkpt><trkpt lat="45.8594535" lon="11.783751"><ele>1430.0</ele><time>2026-04-09T14:11:10.426Z</time></trkpt><trkpt lat="45.8594927" lon="11.7838356"><ele>1430.142857142857</ele><time>2026-04-09T14:11:11.43Z</time></trkpt><trkpt lat="45.8595285" lon="11.7839194"><ele>1430.2857142857142</ele><time>2026-04-09T14:11:12.435Z</time></trkpt><trkpt lat="45.8595721" lon="11.7839894"><ele>1430.4285714285713</ele><time>2026-04-09T14:11:13.435Z</time></trkpt><trkpt lat="45.8596272" lon="11.7840428"><ele>1430.5714285714284</ele><time>2026-04-09T14:11:14.44Z</time></trkpt><trkpt lat="45.8596913" lon="11.784077"><ele>1430.7142857142858</ele><time>2026-04-09T14:11:15.434Z</time></trkpt><trkpt lat="45.8597592" lon="11.7840879"><ele>1430.8571428571427</ele><time>2026-04-09T14:11:16.427Z</time></trkpt><trkpt lat="45.859831" lon="11.7840876"><ele>1431.0</ele><time>2026-04-09T14:11:17.441Z</time></trkpt><trkpt lat="45.8599017" lon="11.7840744"><ele>1430.9999999999998</ele><time>2026-04-09T14:11:18.437Z</time></trkpt><trkpt lat="45.8599717" lon="11.7840521"><ele>1431.0</ele><time>2026-04-09T14:11:19.431Z</time></trkpt><trkpt lat="45.8600427" lon="11.7840403"><ele>1431.0</ele><time>2026-04-09T14:11:20.435Z</time></trkpt><trkpt lat="45.8601151" lon="11.7840457"><ele>1431.0</ele><time>2026-04-09T14:11:21.438Z</time></trkpt><trkpt lat="45.8601902" lon="11.7840651"><ele>1431.0</ele><time>2026-04-09T14:11:22.465Z</time></trkpt><trkpt lat="45.8602635" lon="11.7841025"><ele>1430.9999999999998</ele><time>2026-04-09T14:11:23.431Z</time></trkpt><trkpt lat="45.8603355" lon="11.7841378"><ele>1431.0</ele><time>2026-04-09T14:11:24.428Z</time></trkpt><trkpt lat="45.8603987" lon="11.7841983"><ele>1432.8571428571427</ele><time>2026-04-09T14:11:25.435Z</time></trkpt><trkpt lat="45.860464" lon="11.7842606"><ele>1434.7142857142858</ele><time>2026-04-09T14:11:26.43Z</time></trkpt><trkpt lat="45.8605282" lon="11.7843243"><ele>1436.5714285714284</ele><time>2026-04-09T14:11:27.429Z</time></trkpt><trkpt lat="45.8605782" lon="11.7843955"><ele>1438.4285714285713</ele><time>2026-04-09T14:11:28.431Z</time></trkpt><trkpt lat="45.8606131" lon="11.7844805"><ele>1440.2857142857142</ele><time>2026-04-09T14:11:29.433Z</time></trkpt><trkpt lat="45.8606315" lon="11.7845825"><ele>1442.142857142857</ele><time>2026-04-09T14:11:30.426Z</time></trkpt><trkpt lat="45.8606404" lon="11.7846947"><ele>1444.0</ele><time>2026-04-09T14:11:31.433Z</time></trkpt><trkpt lat="45.8606549" lon="11.7848557"><ele>1444.0</ele><time>2026-04-09T14:11:33.429Z</time></trkpt><trkpt lat="45.860688" lon="11.7849692"><ele>1444.0</ele><time>2026-04-09T14:11:35.434Z</time></trkpt><trkpt lat="45.8607827" lon="11.7850359"><ele>1444.0</ele><time>2026-04-09T14:11:37.439Z</time></trkpt><trkpt lat="45.8608531" lon="11.7850735"><ele>1444.0</ele><time>2026-04-09T14:11:38.437Z</time></trkpt><trkpt lat="45.8609268" lon="11.7851165"><ele>1444.0</ele><time>2026-04-09T14:11:39.428Z</time></trkpt><trkpt lat="45.8610049" lon="11.7851658"><ele>1444.0</ele><time>2026-04-09T14:11:40.438Z</time></trkpt><trkpt lat="45.8610761" lon="11.7852368"><ele>1445.3333333333333</ele><time>2026-04-09T14:11:41.426Z</time></trkpt><trkpt lat="45.8611417" lon="11.7853204"><ele>1446.6666666666665</ele><time>2026-04-09T14:11:42.437Z</time></trkpt><trkpt lat="45.8612025" lon="11.7854129"><ele>1448.0</ele><time>2026-04-09T14:11:43.438Z</time></trkpt><trkpt lat="45.8612607" lon="11.7855134"><ele>1449.3333333333333</ele><time>2026-04-09T14:11:44.434Z</time></trkpt><trkpt lat="45.8613206" lon="11.7856101"><ele>1450.6666666666667</ele><time>2026-04-09T14:11:45.433Z</time></trkpt><trkpt lat="45.861379" lon="11.7857036"><ele>1452.0</ele><time>2026-04-09T14:11:46.436Z</time></trkpt><trkpt lat="45.8614295" lon="11.7858028"><ele>1452.0</ele><time>2026-04-09T14:11:47.45Z</time></trkpt><trkpt lat="45.861475" lon="11.7859062"><ele>1452.0</ele><time>2026-04-09T14:11:48.441Z</time></trkpt><trkpt lat="45.8615214" lon="11.7860059"><ele>1452.0</ele><time>2026-04-09T14:11:49.433Z</time></trkpt><trkpt lat="45.861573" lon="11.7860985"><ele>1452.0</ele><time>2026-04-09T14:11:50.438Z</time></trkpt><trkpt lat="45.8616254" lon="11.7861943"><ele>1452.0</ele><time>2026-04-09T14:11:51.444Z</time></trkpt><trkpt lat="45.8616773" lon="11.7862859"><ele>1452.0</ele><time>2026-04-09T14:11:52.426Z</time></trkpt><trkpt lat="45.8617286" lon="11.7863765"><ele>1453.3333333333333</ele><time>2026-04-09T14:11:53.431Z</time></trkpt><trkpt lat="45.8617733" lon="11.7864514"><ele>1454.6666666666667</ele><time>2026-04-09T14:11:54.432Z</time></trkpt><trkpt lat="45.8618137" lon="11.7865252"><ele>1456.0</ele><time>2026-04-09T14:11:55.432Z</time></trkpt><trkpt lat="45.8618794" lon="11.786627"><ele>1457.3333333333335</ele><time>2026-04-09T14:11:57.432Z</time></trkpt><trkpt lat="45.8619294" lon="11.7866841"><ele>1458.6666666666667</ele><time>2026-04-09T14:11:59.431Z</time></trkpt><trkpt lat="45.8620035" lon="11.7867154"><ele>1460.0</ele><time>2026-04-09T14:12:02.437Z</time></trkpt><trkpt lat="45.8620848" lon="11.786693"><ele>1461.3333333333335</ele><time>2026-04-09T14:12:05.44Z</time></trkpt><trkpt lat="45.8621481" lon="11.7865881"><ele>1462.6666666666667</ele><time>2026-04-09T14:12:07.429Z</time></trkpt><trkpt lat="45.8621724" lon="11.7864941"><ele>1464.0</ele><time>2026-04-09T14:12:08.438Z</time></trkpt><trkpt lat="45.8621926" lon="11.786404"><ele>1465.3333333333333</ele><time>2026-04-09T14:12:09.436Z</time></trkpt><trkpt lat="45.8622223" lon="11.7863168"><ele>1466.6666666666665</ele><time>2026-04-09T14:12:10.43Z</time></trkpt><trkpt lat="45.8622654" lon="11.7862368"><ele>1468.0</ele><time>2026-04-09T14:12:11.445Z</time></trkpt><trkpt lat="45.8623653" lon="11.7861412"><ele>1468.0</ele><time>2026-04-09T14:12:13.429Z</time></trkpt><trkpt lat="45.8624279" lon="11.7861223"><ele>1468.0</ele><time>2026-04-09T14:12:14.43Z</time></trkpt><trkpt lat="45.8624963" lon="11.7861028"><ele>1468.0</ele><time>2026-04-09T14:12:15.436Z</time></trkpt><trkpt lat="45.8625759" lon="11.7860912"><ele>1468.0</ele><time>2026-04-09T14:12:16.445Z</time></trkpt><trkpt lat="45.8626616" lon="11.7860745"><ele>1468.0</ele><time>2026-04-09T14:12:17.433Z</time></trkpt><trkpt lat="45.8627344" lon="11.7860617"><ele>1468.0</ele><time>2026-04-09T14:12:18.434Z</time></trkpt><trkpt lat="45.8628388" lon="11.7860551"><ele>1468.0</ele><time>2026-04-09T14:12:20.434Z</time></trkpt><trkpt lat="45.8629071" lon="11.7860653"><ele>1468.0</ele><time>2026-04-09T14:12:32.446Z</time></trkpt><trkpt lat="45.8628314" lon="11.7860341"><ele>1468.0</ele><time>2026-04-09T14:13:09.432Z</time></trkpt><trkpt lat="45.8626986" lon="11.7860527"><ele>1468.0</ele><time>2026-04-09T14:13:11.484Z</time></trkpt><trkpt lat="45.8626226" lon="11.7860684"><ele>1468.0</ele><time>2026-04-09T14:13:12.437Z</time></trkpt><trkpt lat="45.8625469" lon="11.7860821"><ele>1468.0</ele><time>2026-04-09T14:13:13.43Z</time></trkpt><trkpt lat="45.8624811" lon="11.7860904"><ele>1468.0</ele><time>2026-04-09T14:13:14.425Z</time></trkpt><trkpt lat="45.8623722" lon="11.7861114"><ele>1468.0</ele><time>2026-04-09T14:13:16.436Z</time></trkpt><trkpt lat="45.8622892" lon="11.7861644"><ele>1468.0</ele><time>2026-04-09T14:13:18.43Z</time></trkpt><trkpt lat="45.8622339" lon="11.7862644"><ele>1468.0</ele><time>2026-04-09T14:13:20.449Z</time></trkpt><trkpt lat="45.8622024" lon="11.7863619"><ele>1468.0</ele><time>2026-04-09T14:13:22.439Z</time></trkpt><trkpt lat="45.8621756" lon="11.7864651"><ele>1468.0</ele><time>2026-04-09T14:13:24.44Z</time></trkpt><trkpt lat="45.8621498" lon="11.7865764"><ele>1468.0</ele><time>2026-04-09T14:13:26.437Z</time></trkpt><trkpt lat="45.8621078" lon="11.7866555"><ele>1468.0</ele><time>2026-04-09T14:13:28.445Z</time></trkpt><trkpt lat="45.8620276" lon="11.7866963"><ele>1468.0</ele><time>2026-04-09T14:13:31.436Z</time></trkpt><trkpt lat="45.8619347" lon="11.7866653"><ele>1468.0</ele><time>2026-04-09T14:13:34.436Z</time></trkpt><trkpt lat="45.8618577" lon="11.7865955"><ele>1468.0</ele><time>2026-04-09T14:13:36.442Z</time></trkpt><trkpt lat="45.8618056" lon="11.7865017"><ele>1468.0</ele><time>2026-04-09T14:13:38.434Z</time></trkpt><trkpt lat="45.8617582" lon="11.7864135"><ele>1466.4</ele><time>2026-04-09T14:13:40.449Z</time></trkpt><trkpt lat="45.8617038" lon="11.786332"><ele>1464.8000000000002</ele><time>2026-04-09T14:13:42.431Z</time></trkpt><trkpt lat="45.8616565" lon="11.7862506"><ele>1463.2</ele><time>2026-04-09T14:13:44.443Z</time></trkpt><trkpt lat="45.8616181" lon="11.7861496"><ele>1461.6</ele><time>2026-04-09T14:14:27.435Z</time></trkpt><trkpt lat="45.8615632" lon="11.7860407"><ele>1460.0</ele><time>2026-04-09T14:14:29.469Z</time></trkpt><trkpt lat="45.8614896" lon="11.7858907"><ele>1458.6666666666667</ele><time>2026-04-09T14:14:31.433Z</time></trkpt><trkpt lat="45.8614477" lon="11.7858022"><ele>1457.3333333333335</ele><time>2026-04-09T14:14:32.436Z</time></trkpt><trkpt lat="45.8614011" lon="11.7857127"><ele>1456.0</ele><time>2026-04-09T14:14:33.439Z</time></trkpt><trkpt lat="45.8613474" lon="11.7856239"><ele>1454.6666666666667</ele><time>2026-04-09T14:14:34.431Z</time></trkpt><trkpt lat="45.8612908" lon="11.785536"><ele>1453.3333333333333</ele><time>2026-04-09T14:14:35.433Z</time></trkpt><trkpt lat="45.8612337" lon="11.7854452"><ele>1452.0</ele><time>2026-04-09T14:14:36.432Z</time></trkpt><trkpt lat="45.8611809" lon="11.7853585"><ele>1451.9999999999998</ele><time>2026-04-09T14:14:37.431Z</time></trkpt><trkpt lat="45.8611257" lon="11.7852808"><ele>1452.0</ele><time>2026-04-09T14:14:38.433Z</time></trkpt><trkpt lat="45.8610663" lon="11.7852141"><ele>1452.0</ele><time>2026-04-09T14:14:39.43Z</time></trkpt><trkpt lat="45.8610055" lon="11.785159"><ele>1452.0</ele><time>2026-04-09T14:14:40.436Z</time></trkpt><trkpt lat="45.860943" lon="11.785111"><ele>1452.0</ele><time>2026-04-09T14:14:41.431Z</time></trkpt><trkpt lat="45.8608741" lon="11.7850676"><ele>1451.9999999999998</ele><time>2026-04-09T14:14:42.434Z</time></trkpt><trkpt lat="45.8608108" lon="11.7850334"><ele>1452.0</ele><time>2026-04-09T14:14:43.435Z</time></trkpt><trkpt lat="45.8607146" lon="11.784965"><ele>1450.6</ele><time>2026-04-09T14:14:45.438Z</time></trkpt><trkpt lat="45.860664" lon="11.7848504"><ele>1449.1999999999998</ele><time>2026-04-09T14:14:47.445Z</time></trkpt><trkpt lat="45.8606423" lon="11.7847037"><ele>1447.8</ele><time>2026-04-09T14:14:49.424Z</time></trkpt><trkpt lat="45.8606241" lon="11.7845318"><ele>1446.4</ele><time>2026-04-09T14:14:51.428Z</time></trkpt><trkpt lat="45.8605607" lon="11.7843745"><ele>1445.0</ele><time>2026-04-09T14:14:53.428Z</time></trkpt><trkpt lat="45.860511" lon="11.7843146"><ele>1444.9999999999998</ele><time>2026-04-09T14:14:54.43Z</time></trkpt><trkpt lat="45.8604539" lon="11.7842572"><ele>1445.0</ele><time>2026-04-09T14:14:55.43Z</time></trkpt><trkpt lat="45.8603935" lon="11.7842011"><ele>1445.0</ele><time>2026-04-09T14:14:56.426Z</time></trkpt><trkpt lat="45.860339" lon="11.7841479"><ele>1445.0</ele><time>2026-04-09T14:14:57.427Z</time></trkpt><trkpt lat="45.8602821" lon="11.7841025"><ele>1445.0</ele><time>2026-04-09T14:14:58.422Z</time></trkpt><trkpt lat="45.8602184" lon="11.7840685"><ele>1444.9999999999998</ele><time>2026-04-09T14:14:59.422Z</time></trkpt><trkpt lat="45.8601477" lon="11.7840458"><ele>1445.0</ele><time>2026-04-09T14:15:00.431Z</time></trkpt><trkpt lat="45.860078" lon="11.7840341"><ele>1442.6666666666667</ele><time>2026-04-09T14:15:01.43Z</time></trkpt><trkpt lat="45.8600086" lon="11.7840367"><ele>1440.3333333333335</ele><time>2026-04-09T14:15:02.424Z</time></trkpt><trkpt lat="45.8599387" lon="11.7840504"><ele>1438.0</ele><time>2026-04-09T14:15:03.434Z</time></trkpt><trkpt lat="45.8598662" lon="11.7840642"><ele>1435.6666666666667</ele><time>2026-04-09T14:15:04.427Z</time></trkpt><trkpt lat="45.8597912" lon="11.7840717"><ele>1433.3333333333333</ele><time>2026-04-09T14:15:05.436Z</time></trkpt><trkpt lat="45.8597236" lon="11.7840643"><ele>1431.0</ele><time>2026-04-09T14:15:06.429Z</time></trkpt><trkpt lat="45.8596034" lon="11.7840143"><ele>1430.9999999999998</ele><time>2026-04-09T14:15:08.428Z</time></trkpt><trkpt lat="45.8595553" lon="11.7839531"><ele>1431.0</ele><time>2026-04-09T14:15:09.42Z</time></trkpt><trkpt lat="45.8595149" lon="11.7838722"><ele>1431.0</ele><time>2026-04-09T14:15:10.425Z</time></trkpt><trkpt lat="45.8594756" lon="11.7837916"><ele>1431.0</ele><time>2026-04-09T14:15:11.434Z</time></trkpt><trkpt lat="45.8594297" lon="11.7837181"><ele>1431.0</ele><time>2026-04-09T14:15:12.435Z</time></trkpt><trkpt lat="45.8593728" lon="11.7836426"><ele>1430.9999999999998</ele><time>2026-04-09T14:15:13.425Z</time></trkpt><trkpt lat="45.8593081" lon="11.7835814"><ele>1431.0</ele><time>2026-04-09T14:15:14.43Z</time></trkpt><trkpt lat="45.8592429" lon="11.7835296"><ele>1430.8333333333333</ele><time>2026-04-09T14:15:15.429Z</time></trkpt><trkpt lat="45.8591781" lon="11.7834886"><ele>1430.6666666666667</ele><time>2026-04-09T14:15:16.431Z</time></trkpt><trkpt lat="45.8591092" lon="11.7834562"><ele>1430.5</ele><time>2026-04-09T14:15:17.434Z</time></trkpt><trkpt lat="45.8589919" lon="11.7834289"><ele>1430.3333333333335</ele><time>2026-04-09T14:15:19.432Z</time></trkpt><trkpt lat="45.8589109" lon="11.7834587"><ele>1430.1666666666667</ele><time>2026-04-09T14:15:21.434Z</time></trkpt><trkpt lat="45.8588341" lon="11.7835348"><ele>1430.0</ele><time>2026-04-09T14:15:23.433Z</time></trkpt><trkpt lat="45.8587445" lon="11.7836358"><ele>1426.8333333333335</ele><time>2026-04-09T14:15:25.438Z</time></trkpt><trkpt lat="45.8586677" lon="11.7837337"><ele>1423.6666666666667</ele><time>2026-04-09T14:15:27.426Z</time></trkpt><trkpt lat="45.8585981" lon="11.7838066"><ele>1420.5</ele><time>2026-04-09T14:15:29.425Z</time></trkpt><trkpt lat="45.8585229" lon="11.7837817"><ele>1417.3333333333333</ele><time>2026-04-09T14:15:31.433Z</time></trkpt><trkpt lat="45.8584463" lon="11.7836666"><ele>1414.1666666666665</ele><time>2026-04-09T14:15:33.432Z</time></trkpt><trkpt lat="45.8584077" lon="11.7835859"><ele>1411.0</ele><time>2026-04-09T14:15:34.429Z</time></trkpt><trkpt lat="45.8583613" lon="11.7835065"><ele>1411.0</ele><time>2026-04-09T14:15:35.426Z</time></trkpt><trkpt lat="45.8583067" lon="11.7834274"><ele>1411.0</ele><time>2026-04-09T14:15:36.424Z</time></trkpt><trkpt lat="45.8582497" lon="11.7833452"><ele>1411.0</ele><time>2026-04-09T14:15:37.437Z</time></trkpt><trkpt lat="45.8581944" lon="11.7832616"><ele>1411.0</ele><time>2026-04-09T14:15:38.425Z</time></trkpt><trkpt lat="45.8581394" lon="11.7831745"><ele>1411.0</ele><time>2026-04-09T14:15:39.422Z</time></trkpt><trkpt lat="45.8580838" lon="11.7830839"><ele>1411.0</ele><time>2026-04-09T14:15:40.429Z</time></trkpt><trkpt lat="45.8580307" lon="11.7829967"><ele>1411.0000000000002</ele><time>2026-04-09T14:15:41.429Z</time></trkpt><trkpt lat="45.8579779" lon="11.782914"><ele>1411.0</ele><time>2026-04-09T14:15:42.427Z</time></trkpt><trkpt lat="45.8579279" lon="11.7828432"><ele>1411.0</ele><time>2026-04-09T14:15:43.43Z</time></trkpt><trkpt lat="45.8578815" lon="11.7827775"><ele>1411.0</ele><time>2026-04-09T14:15:44.422Z</time></trkpt><trkpt lat="45.8578291" lon="11.7827211"><ele>1411.0</ele><time>2026-04-09T14:15:45.427Z</time></trkpt><trkpt lat="45.8577706" lon="11.78268"><ele>1411.0000000000002</ele><time>2026-04-09T14:15:46.427Z</time></trkpt><trkpt lat="45.857703" lon="11.7826469"><ele>1411.0</ele><time>2026-04-09T14:15:47.44Z</time></trkpt><trkpt lat="45.8576394" lon="11.7826185"><ele>1409.1666666666665</ele><time>2026-04-09T14:15:48.424Z</time></trkpt><trkpt lat="45.8575303" lon="11.7825487"><ele>1407.3333333333333</ele><time>2026-04-09T14:15:50.423Z</time></trkpt><trkpt lat="45.8574482" lon="11.7824224"><ele>1405.5</ele><time>2026-04-09T14:15:52.422Z</time></trkpt><trkpt lat="45.8574009" lon="11.782361"><ele>1403.6666666666667</ele><time>2026-04-09T14:15:53.427Z</time></trkpt><trkpt lat="45.8573501" lon="11.782297"><ele>1401.8333333333335</ele><time>2026-04-09T14:15:54.433Z</time></trkpt><trkpt lat="45.8572994" lon="11.782233"><ele>1400.0</ele><time>2026-04-09T14:15:55.433Z</time></trkpt><trkpt lat="45.8572036" lon="11.7821205"><ele>1400.0</ele><time>2026-04-09T14:15:57.429Z</time></trkpt><trkpt lat="45.8571209" lon="11.7819996"><ele>1400.0</ele><time>2026-04-09T14:15:59.429Z</time></trkpt><trkpt lat="45.8570569" lon="11.7818668"><ele>1400.0</ele><time>2026-04-09T14:16:01.429Z</time></trkpt><trkpt lat="45.8570161" lon="11.781746"><ele>1400.0</ele><time>2026-04-09T14:16:03.433Z</time></trkpt><trkpt lat="45.8569749" lon="11.7816677"><ele>1400.0</ele><time>2026-04-09T14:16:05.434Z</time></trkpt><trkpt lat="45.8569124" lon="11.7816887"><ele>1400.0</ele><time>2026-04-09T14:16:08.439Z</time></trkpt><trkpt lat="45.8569299" lon="11.7818081"><ele>1400.0</ele><time>2026-04-09T14:16:11.439Z</time></trkpt><trkpt lat="45.8569841" lon="11.7819205"><ele>1400.0</ele><time>2026-04-09T14:16:13.432Z</time></trkpt><trkpt lat="45.8570367" lon="11.7820619"><ele>1400.0</ele><time>2026-04-09T14:16:15.445Z</time></trkpt><trkpt lat="45.8570864" lon="11.7822184"><ele>1400.0</ele><time>2026-04-09T14:16:17.44Z</time></trkpt><trkpt lat="45.8571497" lon="11.7823554"><ele>1400.0</ele><time>2026-04-09T14:16:19.448Z</time></trkpt><trkpt lat="45.8572025" lon="11.7824917"><ele>1400.0</ele><time>2026-04-09T14:16:21.456Z</time></trkpt><trkpt lat="45.857206" lon="11.7826579"><ele>1400.0</ele><time>2026-04-09T14:16:23.438Z</time></trkpt><trkpt lat="45.8572164" lon="11.7828213"><ele>1400.0</ele><time>2026-04-09T14:16:25.426Z</time></trkpt><trkpt lat="45.8572653" lon="11.7829692"><ele>1395.4</ele><time>2026-04-09T14:16:27.44Z</time></trkpt><trkpt lat="45.8573527" lon="11.7831103"><ele>1390.8</ele><time>2026-04-09T14:16:29.421Z</time></trkpt><trkpt lat="45.8573979" lon="11.7831757"><ele>1386.1999999999998</ele><time>2026-04-09T14:16:30.427Z</time></trkpt><trkpt lat="45.8574773" lon="11.7833152"><ele>1381.6</ele><time>2026-04-09T14:16:32.425Z</time></trkpt><trkpt lat="45.8575137" lon="11.783393"><ele>1377.0</ele><time>2026-04-09T14:16:33.425Z</time></trkpt><trkpt lat="45.85755" lon="11.7834766"><ele>1378.7142857142856</ele><time>2026-04-09T14:16:34.425Z</time></trkpt><trkpt lat="45.8575857" lon="11.7835602"><ele>1380.4285714285716</ele><time>2026-04-09T14:16:35.424Z</time></trkpt><trkpt lat="45.8576229" lon="11.7836452"><ele>1382.142857142857</ele><time>2026-04-09T14:16:36.43Z</time></trkpt><trkpt lat="45.8576591" lon="11.7837274"><ele>1383.8571428571427</ele><time>2026-04-09T14:16:37.434Z</time></trkpt><trkpt lat="45.8576927" lon="11.7838099"><ele>1385.5714285714284</ele><time>2026-04-09T14:16:38.43Z</time></trkpt><trkpt lat="45.8577268" lon="11.7838939"><ele>1387.2857142857142</ele><time>2026-04-09T14:16:39.422Z</time></trkpt><trkpt lat="45.8577601" lon="11.7839809"><ele>1389.0</ele><time>2026-04-09T14:16:40.426Z</time></trkpt><trkpt lat="45.8577912" lon="11.7840721"><ele>1388.9999999999998</ele><time>2026-04-09T14:16:41.426Z</time></trkpt><trkpt lat="45.8578211" lon="11.7841626"><ele>1389.0</ele><time>2026-04-09T14:16:42.433Z</time></trkpt><trkpt lat="45.8578588" lon="11.784257"><ele>1389.0</ele><time>2026-04-09T14:16:43.431Z</time></trkpt><trkpt lat="45.857892" lon="11.7843463"><ele>1389.0</ele><time>2026-04-09T14:16:44.428Z</time></trkpt><trkpt lat="45.857926" lon="11.7844351"><ele>1389.0</ele><time>2026-04-09T14:16:45.43Z</time></trkpt><trkpt lat="45.8579617" lon="11.7845196"><ele>1388.9999999999998</ele><time>2026-04-09T14:16:46.43Z</time></trkpt><trkpt lat="45.8579948" lon="11.7846069"><ele>1389.0</ele><time>2026-04-09T14:16:47.435Z</time></trkpt><trkpt lat="45.8580255" lon="11.7846938"><ele>1387.2857142857142</ele><time>2026-04-09T14:16:48.432Z</time></trkpt><trkpt lat="45.8580453" lon="11.7847877"><ele>1385.5714285714284</ele><time>2026-04-09T14:16:49.43Z</time></trkpt><trkpt lat="45.8580578" lon="11.7848835"><ele>1383.8571428571427</ele><time>2026-04-09T14:16:50.427Z</time></trkpt><trkpt lat="45.858065" lon="11.7849797"><ele>1382.142857142857</ele><time>2026-04-09T14:16:51.424Z</time></trkpt><trkpt lat="45.8580641" lon="11.785075"><ele>1380.4285714285716</ele><time>2026-04-09T14:16:52.427Z</time></trkpt><trkpt lat="45.8580509" lon="11.7851813"><ele>1378.7142857142856</ele><time>2026-04-09T14:16:53.424Z</time></trkpt><trkpt lat="45.8580232" lon="11.7852853"><ele>1377.0</ele><time>2026-04-09T14:16:54.442Z</time></trkpt><trkpt lat="45.8579908" lon="11.7853783"><ele>1377.0</ele><time>2026-04-09T14:16:55.425Z</time></trkpt><trkpt lat="45.8579607" lon="11.7854654"><ele>1377.0</ele><time>2026-04-09T14:16:56.427Z</time></trkpt><trkpt lat="45.8579354" lon="11.7855547"><ele>1377.0</ele><time>2026-04-09T14:16:57.422Z</time></trkpt><trkpt lat="45.857914" lon="11.7856509"><ele>1377.0</ele><time>2026-04-09T14:16:58.429Z</time></trkpt><trkpt lat="45.8578888" lon="11.7857398"><ele>1377.0</ele><time>2026-04-09T14:16:59.431Z</time></trkpt><trkpt lat="45.8578528" lon="11.7858213"><ele>1377.0</ele><time>2026-04-09T14:17:00.428Z</time></trkpt><trkpt lat="45.857805" lon="11.7859001"><ele>1377.0</ele><time>2026-04-09T14:17:01.431Z</time></trkpt><trkpt lat="45.8577555" lon="11.7859757"><ele>1378.3999999999999</ele><time>2026-04-09T14:17:02.423Z</time></trkpt><trkpt lat="45.8577032" lon="11.7860471"><ele>1379.8</ele><time>2026-04-09T14:17:03.429Z</time></trkpt><trkpt lat="45.857653" lon="11.7861146"><ele>1381.2</ele><time>2026-04-09T14:17:04.43Z</time></trkpt><trkpt lat="45.8575613" lon="11.786225"><ele>1382.6</ele><time>2026-04-09T14:17:06.432Z</time></trkpt><trkpt lat="45.8575074" lon="11.7863362"><ele>1384.0</ele><time>2026-04-09T14:17:08.428Z</time></trkpt><trkpt lat="45.8574964" lon="11.7864851"><ele>1375.8000000000002</ele><time>2026-04-09T14:17:10.434Z</time></trkpt><trkpt lat="45.8574983" lon="11.7866434"><ele>1367.6000000000001</ele><time>2026-04-09T14:17:12.424Z</time></trkpt><trkpt lat="45.8574983" lon="11.7868142"><ele>1359.4</ele><time>2026-04-09T14:17:14.435Z</time></trkpt><trkpt lat="45.857499" lon="11.7869636"><ele>1351.2</ele><time>2026-04-09T14:17:16.426Z</time></trkpt><trkpt lat="45.8575069" lon="11.7870821"><ele>1343.0</ele><time>2026-04-09T14:17:18.438Z</time></trkpt><trkpt lat="45.8574688" lon="11.78716"><ele>1343.0</ele><time>2026-04-09T14:17:47.464Z</time></trkpt><trkpt lat="45.857418" lon="11.7870534"><ele>1343.0</ele><time>2026-04-09T14:18:04.437Z</time></trkpt><trkpt lat="45.8574345" lon="11.7869325"><ele>1343.0</ele><time>2026-04-09T14:18:06.443Z</time></trkpt><trkpt lat="45.857453" lon="11.7868038"><ele>1343.0</ele><time>2026-04-09T14:18:08.445Z</time></trkpt><trkpt lat="45.8574345" lon="11.7866544"><ele>1343.0</ele><time>2026-04-09T14:18:10.441Z</time></trkpt><trkpt lat="45.8573713" lon="11.7865474"><ele>1342.0</ele><time>2026-04-09T14:18:12.432Z</time></trkpt><trkpt lat="45.8572916" lon="11.7864725"><ele>1341.0</ele><time>2026-04-09T14:18:14.447Z</time></trkpt><trkpt lat="45.8572207" lon="11.7863785"><ele>1340.0</ele><time>2026-04-09T14:18:16.425Z</time></trkpt><trkpt lat="45.8571833" lon="11.7862398"><ele>1339.0</ele><time>2026-04-09T14:18:18.432Z</time></trkpt><trkpt lat="45.8572" lon="11.7861"><ele>1338.0</ele><time>2026-04-09T14:18:20.431Z</time></trkpt><trkpt lat="45.8572746" lon="11.7859842"><ele>1336.25</ele><time>2026-04-09T14:18:22.435Z</time></trkpt><trkpt lat="45.8573671" lon="11.7858527"><ele>1334.5</ele><time>2026-04-09T14:18:24.428Z</time></trkpt><trkpt lat="45.857442" lon="11.7857206"><ele>1332.75</ele><time>2026-04-09T14:18:26.429Z</time></trkpt><trkpt lat="45.8574827" lon="11.7855657"><ele>1331.0</ele><time>2026-04-09T14:18:28.439Z</time></trkpt><trkpt lat="45.8574741" lon="11.7854048"><ele>1331.0</ele><time>2026-04-09T14:18:30.432Z</time></trkpt><trkpt lat="45.8574096" lon="11.785258"><ele>1331.0</ele><time>2026-04-09T14:18:32.441Z</time></trkpt><trkpt lat="45.8573682" lon="11.7851801"><ele>1331.0</ele><time>2026-04-09T14:18:33.431Z</time></trkpt><trkpt lat="45.8573133" lon="11.7851129"><ele>1331.0</ele><time>2026-04-09T14:18:34.432Z</time></trkpt><trkpt lat="45.8572551" lon="11.7850485"><ele>1331.0</ele><time>2026-04-09T14:18:35.427Z</time></trkpt><trkpt lat="45.8571947" lon="11.7849894"><ele>1331.0</ele><time>2026-04-09T14:18:36.443Z</time></trkpt><trkpt lat="45.8571309" lon="11.7849318"><ele>1331.4285714285716</ele><time>2026-04-09T14:18:37.433Z</time></trkpt><trkpt lat="45.8570654" lon="11.7848785"><ele>1331.857142857143</ele><time>2026-04-09T14:18:38.425Z</time></trkpt><trkpt lat="45.856992" lon="11.7848302"><ele>1332.2857142857142</ele><time>2026-04-09T14:18:39.448Z</time></trkpt><trkpt lat="45.8569209" lon="11.7847831"><ele>1332.7142857142858</ele><time>2026-04-09T14:18:40.437Z</time></trkpt><trkpt lat="45.8568551" lon="11.7847335"><ele>1333.142857142857</ele><time>2026-04-09T14:18:41.438Z</time></trkpt><trkpt lat="45.856794" lon="11.7846853"><ele>1333.5714285714287</ele><time>2026-04-09T14:18:42.431Z</time></trkpt><trkpt lat="45.8567367" lon="11.7846414"><ele>1334.0</ele><time>2026-04-09T14:18:43.433Z</time></trkpt><trkpt lat="45.856667" lon="11.7846143"><ele>1328.4</ele><time>2026-04-09T14:18:44.441Z</time></trkpt><trkpt lat="45.8565909" lon="11.7845986"><ele>1322.8000000000002</ele><time>2026-04-09T14:18:45.448Z</time></trkpt><trkpt lat="45.8565175" lon="11.7845899"><ele>1317.1999999999998</ele><time>2026-04-09T14:18:46.455Z</time></trkpt><trkpt lat="45.8563983" lon="11.7845769"><ele>1311.6</ele><time>2026-04-09T14:18:48.429Z</time></trkpt><trkpt lat="45.8562992" lon="11.7845354"><ele>1306.0</ele><time>2026-04-09T14:18:50.438Z</time></trkpt><trkpt lat="45.8562262" lon="11.7844329"><ele>1309.8</ele><time>2026-04-09T14:18:52.445Z</time></trkpt><trkpt lat="45.8561619" lon="11.7842783"><ele>1313.6</ele><time>2026-04-09T14:18:54.435Z</time></trkpt><trkpt lat="45.856125" lon="11.7841875"><ele>1317.4</ele><time>2026-04-09T14:18:55.436Z</time></trkpt><trkpt lat="45.8560904" lon="11.7841056"><ele>1321.2</ele><time>2026-04-09T14:18:56.447Z</time></trkpt><trkpt lat="45.8560321" lon="11.7839621"><ele>1325.0</ele><time>2026-04-09T14:18:58.451Z</time></trkpt><trkpt lat="45.8559946" lon="11.7838631"><ele>1320.2</ele><time>2026-04-09T14:19:00.445Z</time></trkpt><trkpt lat="45.855934" lon="11.7837345"><ele>1315.4</ele><time>2026-04-09T14:19:02.438Z</time></trkpt><trkpt lat="45.8558611" lon="11.7835932"><ele>1310.6</ele><time>2026-04-09T14:19:04.445Z</time></trkpt><trkpt lat="45.8558245" lon="11.783516"><ele>1305.8</ele><time>2026-04-09T14:19:05.447Z</time></trkpt><trkpt lat="45.8557882" lon="11.7834327"><ele>1301.0</ele><time>2026-04-09T14:19:06.442Z</time></trkpt><trkpt lat="45.8557272" lon="11.7832883"><ele>1301.0</ele><time>2026-04-09T14:19:08.439Z</time></trkpt><trkpt lat="45.8556331" lon="11.783177"><ele>1301.0</ele><time>2026-04-09T14:19:10.428Z</time></trkpt><trkpt lat="45.8555255" lon="11.783128"><ele>1301.0</ele><time>2026-04-09T14:19:12.442Z</time></trkpt><trkpt lat="45.8554366" lon="11.7831363"><ele>1301.0</ele><time>2026-04-09T14:19:14.445Z</time></trkpt><trkpt lat="45.8553628" lon="11.7831974"><ele>1301.0</ele><time>2026-04-09T14:19:16.443Z</time></trkpt><trkpt lat="45.8552984" lon="11.783341"><ele>1301.0</ele><time>2026-04-09T14:19:18.43Z</time></trkpt><trkpt lat="45.8552604" lon="11.7834308"><ele>1301.0</ele><time>2026-04-09T14:19:19.44Z</time></trkpt><trkpt lat="45.855225" lon="11.7835221"><ele>1301.0</ele><time>2026-04-09T14:19:20.441Z</time></trkpt><trkpt lat="45.8551986" lon="11.7836127"><ele>1301.0</ele><time>2026-04-09T14:19:21.429Z</time></trkpt><trkpt lat="45.8551714" lon="11.7837635"><ele>1301.0</ele><time>2026-04-09T14:19:23.439Z</time></trkpt><trkpt lat="45.855134" lon="11.7838733"><ele>1301.0</ele><time>2026-04-09T14:19:25.438Z</time></trkpt><trkpt lat="45.8550511" lon="11.7838615"><ele>1297.6666666666667</ele><time>2026-04-09T14:19:28.436Z</time></trkpt><trkpt lat="45.8550193" lon="11.7837567"><ele>1294.3333333333335</ele><time>2026-04-09T14:19:30.438Z</time></trkpt><trkpt lat="45.8549814" lon="11.7835933"><ele>1291.0</ele><time>2026-04-09T14:19:32.445Z</time></trkpt><trkpt lat="45.8549576" lon="11.7834927"><ele>1287.6666666666667</ele><time>2026-04-09T14:19:33.432Z</time></trkpt><trkpt lat="45.8549323" lon="11.7833915"><ele>1284.3333333333333</ele><time>2026-04-09T14:19:34.429Z</time></trkpt><trkpt lat="45.8549048" lon="11.7832896"><ele>1281.0</ele><time>2026-04-09T14:19:35.429Z</time></trkpt><trkpt lat="45.8548768" lon="11.7831951"><ele>1281.0</ele><time>2026-04-09T14:19:36.446Z</time></trkpt><trkpt lat="45.8548458" lon="11.7831008"><ele>1281.0</ele><time>2026-04-09T14:19:37.437Z</time></trkpt><trkpt lat="45.8548112" lon="11.7830016"><ele>1281.0</ele><time>2026-04-09T14:19:38.422Z</time></trkpt><trkpt lat="45.8547793" lon="11.7829069"><ele>1281.0</ele><time>2026-04-09T14:19:39.43Z</time></trkpt><trkpt lat="45.8547499" lon="11.7828253"><ele>1281.0</ele><time>2026-04-09T14:19:40.443Z</time></trkpt><trkpt lat="45.8547204" lon="11.782744"><ele>1281.0</ele><time>2026-04-09T14:19:41.433Z</time></trkpt><trkpt lat="45.854675" lon="11.782676"><ele>1281.0</ele><time>2026-04-09T14:19:42.438Z</time></trkpt><trkpt lat="45.8546082" lon="11.7826243"><ele>1279.0</ele><time>2026-04-09T14:19:43.423Z</time></trkpt><trkpt lat="45.8545428" lon="11.7825792"><ele>1277.0</ele><time>2026-04-09T14:19:44.439Z</time></trkpt><trkpt lat="45.8544713" lon="11.7825339"><ele>1275.0</ele><time>2026-04-09T14:19:45.43Z</time></trkpt><trkpt lat="45.8544104" lon="11.782476"><ele>1273.0</ele><time>2026-04-09T14:19:46.434Z</time></trkpt><trkpt lat="45.8543537" lon="11.7824067"><ele>1271.0</ele><time>2026-04-09T14:19:47.431Z</time></trkpt><trkpt lat="45.8543012" lon="11.7823281"><ele>1269.0</ele><time>2026-04-09T14:19:48.44Z</time></trkpt><trkpt lat="45.8542469" lon="11.7822497"><ele>1269.0</ele><time>2026-04-09T14:19:49.426Z</time></trkpt><trkpt lat="45.8541827" lon="11.7821741"><ele>1269.0</ele><time>2026-04-09T14:19:50.442Z</time></trkpt><trkpt lat="45.8541074" lon="11.7821167"><ele>1269.0</ele><time>2026-04-09T14:19:51.429Z</time></trkpt><trkpt lat="45.8540365" lon="11.7820628"><ele>1269.0</ele><time>2026-04-09T14:19:52.427Z</time></trkpt><trkpt lat="45.8539587" lon="11.7820142"><ele>1269.0</ele><time>2026-04-09T14:19:53.45Z</time></trkpt><trkpt lat="45.8538802" lon="11.7819684"><ele>1269.0</ele><time>2026-04-09T14:19:54.425Z</time></trkpt><trkpt lat="45.8537984" lon="11.7819211"><ele>1269.0</ele><time>2026-04-09T14:19:55.432Z</time></trkpt><trkpt lat="45.8537201" lon="11.7818769"><ele>1269.0</ele><time>2026-04-09T14:19:56.424Z</time></trkpt><trkpt lat="45.8536506" lon="11.7818296"><ele>1269.0</ele><time>2026-04-09T14:19:57.426Z</time></trkpt><trkpt lat="45.8535838" lon="11.7817752"><ele>1269.0</ele><time>2026-04-09T14:19:58.437Z</time></trkpt><trkpt lat="45.8535189" lon="11.7817207"><ele>1269.0</ele><time>2026-04-09T14:19:59.446Z</time></trkpt><trkpt lat="45.8534608" lon="11.7816585"><ele>1269.0</ele><time>2026-04-09T14:20:00.441Z</time></trkpt><trkpt lat="45.8534056" lon="11.7815705"><ele>1268.0</ele><time>2026-04-09T14:20:01.438Z</time></trkpt><trkpt lat="45.8533586" lon="11.7814767"><ele>1267.0</ele><time>2026-04-09T14:20:02.429Z</time></trkpt><trkpt lat="45.8533148" lon="11.7813813"><ele>1266.0</ele><time>2026-04-09T14:20:03.432Z</time></trkpt><trkpt lat="45.8532794" lon="11.7812939"><ele>1265.0</ele><time>2026-04-09T14:20:04.43Z</time></trkpt><trkpt lat="45.8532424" lon="11.7812207"><ele>1264.0</ele><time>2026-04-09T14:20:05.446Z</time></trkpt><trkpt lat="45.8532037" lon="11.7811468"><ele>1263.0</ele><time>2026-04-09T14:20:06.432Z</time></trkpt><trkpt lat="45.8531477" lon="11.7810908"><ele>1262.0</ele><time>2026-04-09T14:20:07.429Z</time></trkpt><trkpt lat="45.8530734" lon="11.7810658"><ele>1262.0</ele><time>2026-04-09T14:20:08.441Z</time></trkpt><trkpt lat="45.8529954" lon="11.7810493"><ele>1262.0</ele><time>2026-04-09T14:20:09.451Z</time></trkpt><trkpt lat="45.8529184" lon="11.7810313"><ele>1262.0</ele><time>2026-04-09T14:20:10.439Z</time></trkpt><trkpt lat="45.852852" lon="11.7810112"><ele>1262.0</ele><time>2026-04-09T14:20:11.426Z</time></trkpt><trkpt lat="45.852781" lon="11.7809733"><ele>1262.0</ele><time>2026-04-09T14:20:12.44Z</time></trkpt><trkpt lat="45.8527092" lon="11.7809413"><ele>1262.0</ele><time>2026-04-09T14:20:13.447Z</time></trkpt><trkpt lat="45.8526448" lon="11.7809168"><ele>1262.0</ele><time>2026-04-09T14:20:14.431Z</time></trkpt><trkpt lat="45.852556" lon="11.7808507"><ele>1260.0</ele><time>2026-04-09T14:20:16.429Z</time></trkpt><trkpt lat="45.8524988" lon="11.7806855"><ele>1258.0</ele><time>2026-04-09T14:20:18.437Z</time></trkpt><trkpt lat="45.8524698" lon="11.7805894"><ele>1256.0</ele><time>2026-04-09T14:20:19.426Z</time></trkpt><trkpt lat="45.8524344" lon="11.7804915"><ele>1254.0</ele><time>2026-04-09T14:20:20.431Z</time></trkpt><trkpt lat="45.8523859" lon="11.7803982"><ele>1252.0</ele><time>2026-04-09T14:20:21.429Z</time></trkpt><trkpt lat="45.8523211" lon="11.7803312"><ele>1250.0</ele><time>2026-04-09T14:20:22.431Z</time></trkpt><trkpt lat="45.8522599" lon="11.7802621"><ele>1253.0000000000002</ele><time>2026-04-09T14:20:23.43Z</time></trkpt><trkpt lat="45.8522108" lon="11.7801822"><ele>1256.0</ele><time>2026-04-09T14:20:24.431Z</time></trkpt><trkpt lat="45.852164" lon="11.7801"><ele>1259.0</ele><time>2026-04-09T14:20:25.424Z</time></trkpt><trkpt lat="45.8521163" lon="11.7800156"><ele>1262.0</ele><time>2026-04-09T14:20:26.422Z</time></trkpt><trkpt lat="45.852065" lon="11.7799326"><ele>1265.0</ele><time>2026-04-09T14:20:27.423Z</time></trkpt><trkpt lat="45.8520098" lon="11.7798716"><ele>1268.0000000000002</ele><time>2026-04-09T14:20:28.439Z</time></trkpt><trkpt lat="45.8519581" lon="11.7798133"><ele>1271.0</ele><time>2026-04-09T14:20:29.422Z</time></trkpt><trkpt lat="45.8518931" lon="11.7797723"><ele>1271.0</ele><time>2026-04-09T14:20:30.435Z</time></trkpt><trkpt lat="45.8518234" lon="11.7797472"><ele>1271.0</ele><time>2026-04-09T14:20:31.426Z</time></trkpt><trkpt lat="45.8517089" lon="11.7797"><ele>1271.0</ele><time>2026-04-09T14:20:33.429Z</time></trkpt><trkpt lat="45.8516189" lon="11.7796389"><ele>1271.0</ele><time>2026-04-09T14:20:35.422Z</time></trkpt><trkpt lat="45.8515569" lon="11.779532"><ele>1271.0</ele><time>2026-04-09T14:20:37.427Z</time></trkpt><trkpt lat="45.8515353" lon="11.7793894"><ele>1267.2</ele><time>2026-04-09T14:20:39.425Z</time></trkpt><trkpt lat="45.8514882" lon="11.7792377"><ele>1263.3999999999999</ele><time>2026-04-09T14:20:41.43Z</time></trkpt><trkpt lat="45.8514359" lon="11.7791697"><ele>1259.6</ele><time>2026-04-09T14:20:42.452Z</time></trkpt><trkpt lat="45.851343" lon="11.7790492"><ele>1255.8</ele><time>2026-04-09T14:20:44.424Z</time></trkpt><trkpt lat="45.8512914" lon="11.7789816"><ele>1252.0</ele><time>2026-04-09T14:20:45.438Z</time></trkpt><trkpt lat="45.8512396" lon="11.7789129"><ele>1252.0</ele><time>2026-04-09T14:20:46.424Z</time></trkpt><trkpt lat="45.8511926" lon="11.7788399"><ele>1252.0</ele><time>2026-04-09T14:20:47.425Z</time></trkpt><trkpt lat="45.8511514" lon="11.7787638"><ele>1252.0</ele><time>2026-04-09T14:20:48.428Z</time></trkpt><trkpt lat="45.8510909" lon="11.7786385"><ele>1252.0</ele><time>2026-04-09T14:20:50.434Z</time></trkpt><trkpt lat="45.8510609" lon="11.7785181"><ele>1252.0</ele><time>2026-04-09T14:20:52.429Z</time></trkpt><trkpt lat="45.8510391" lon="11.778348"><ele>1255.2</ele><time>2026-04-09T14:20:54.426Z</time></trkpt><trkpt lat="45.8510347" lon="11.7781898"><ele>1258.4</ele><time>2026-04-09T14:20:56.431Z</time></trkpt><trkpt lat="45.85102" lon="11.7780057"><ele>1261.6</ele><time>2026-04-09T14:20:58.427Z</time></trkpt><trkpt lat="45.8509993" lon="11.7779028"><ele>1264.8</ele><time>2026-04-09T14:20:59.422Z</time></trkpt><trkpt lat="45.8509498" lon="11.777829"><ele>1268.0</ele><time>2026-04-09T14:21:00.427Z</time></trkpt><trkpt lat="45.8508886" lon="11.7777693"><ele>1262.857142857143</ele><time>2026-04-09T14:21:01.435Z</time></trkpt><trkpt lat="45.8508272" lon="11.7777278"><ele>1257.7142857142858</ele><time>2026-04-09T14:21:02.428Z</time></trkpt><trkpt lat="45.8507727" lon="11.7776822"><ele>1252.5714285714284</ele><time>2026-04-09T14:21:03.431Z</time></trkpt><trkpt lat="45.8507208" lon="11.7776227"><ele>1247.4285714285716</ele><time>2026-04-09T14:21:04.423Z</time></trkpt><trkpt lat="45.850668" lon="11.777547"><ele>1242.2857142857142</ele><time>2026-04-09T14:21:05.423Z</time></trkpt><trkpt lat="45.8506163" lon="11.7774736"><ele>1237.142857142857</ele><time>2026-04-09T14:21:06.427Z</time></trkpt><trkpt lat="45.8505717" lon="11.7773861"><ele>1232.0</ele><time>2026-04-09T14:21:07.434Z</time></trkpt><trkpt lat="45.8505355" lon="11.777275"><ele>1232.0</ele><time>2026-04-09T14:21:08.422Z</time></trkpt><trkpt lat="45.8504872" lon="11.7771556"><ele>1232.0</ele><time>2026-04-09T14:21:09.429Z</time></trkpt><trkpt lat="45.8504477" lon="11.7770517"><ele>1232.0</ele><time>2026-04-09T14:21:10.424Z</time></trkpt><trkpt lat="45.8504113" lon="11.7769517"><ele>1232.0</ele><time>2026-04-09T14:21:11.422Z</time></trkpt><trkpt lat="45.8503792" lon="11.7768406"><ele>1232.0</ele><time>2026-04-09T14:21:12.428Z</time></trkpt><trkpt lat="45.8503613" lon="11.7767223"><ele>1232.0</ele><time>2026-04-09T14:21:13.428Z</time></trkpt><trkpt lat="45.8503481" lon="11.776608"><ele>1234.0</ele><time>2026-04-09T14:21:14.429Z</time></trkpt><trkpt lat="45.850345" lon="11.7765026"><ele>1236.0</ele><time>2026-04-09T14:21:15.426Z</time></trkpt><trkpt lat="45.8503302" lon="11.7764131"><ele>1238.0</ele><time>2026-04-09T14:21:16.423Z</time></trkpt><trkpt lat="45.8502808" lon="11.7762589"><ele>1240.0</ele><time>2026-04-09T14:21:18.428Z</time></trkpt><trkpt lat="45.8502326" lon="11.7761811"><ele>1242.0</ele><time>2026-04-09T14:21:19.43Z</time></trkpt><trkpt lat="45.8501666" lon="11.7760971"><ele>1244.0</ele><time>2026-04-09T14:21:20.42Z</time></trkpt><trkpt lat="45.8501101" lon="11.7760146"><ele>1237.3333333333335</ele><time>2026-04-09T14:21:21.422Z</time></trkpt><trkpt lat="45.8500581" lon="11.7759242"><ele>1230.6666666666667</ele><time>2026-04-09T14:21:22.442Z</time></trkpt><trkpt lat="45.8500323" lon="11.7758359"><ele>1224.0</ele><time>2026-04-09T14:21:23.428Z</time></trkpt><trkpt lat="45.8499953" lon="11.7757249"><ele>1217.3333333333333</ele><time>2026-04-09T14:21:24.422Z</time></trkpt><trkpt lat="45.8499554" lon="11.7755366"><ele>1210.6666666666665</ele><time>2026-04-09T14:21:26.429Z</time></trkpt><trkpt lat="45.8499245" lon="11.7754371"><ele>1204.0</ele><time>2026-04-09T14:21:27.423Z</time></trkpt><trkpt lat="45.8498809" lon="11.7753483"><ele>1204.0</ele><time>2026-04-09T14:21:28.426Z</time></trkpt><trkpt lat="45.8498152" lon="11.7752692"><ele>1204.0</ele><time>2026-04-09T14:21:29.419Z</time></trkpt><trkpt lat="45.8497423" lon="11.7752033"><ele>1204.0</ele><time>2026-04-09T14:21:30.421Z</time></trkpt><trkpt lat="45.8496667" lon="11.7751309"><ele>1204.0</ele><time>2026-04-09T14:21:31.424Z</time></trkpt><trkpt lat="45.8495879" lon="11.7750625"><ele>1204.0</ele><time>2026-04-09T14:21:32.42Z</time></trkpt><trkpt lat="45.8495126" lon="11.7749976"><ele>1204.0</ele><time>2026-04-09T14:21:33.425Z</time></trkpt><trkpt lat="45.8494369" lon="11.7749256"><ele>1201.142857142857</ele><time>2026-04-09T14:21:34.434Z</time></trkpt><trkpt lat="45.8493743" lon="11.7748561"><ele>1198.2857142857142</ele><time>2026-04-09T14:21:35.43Z</time></trkpt><trkpt lat="45.8493126" lon="11.7747877"><ele>1195.4285714285716</ele><time>2026-04-09T14:21:36.427Z</time></trkpt><trkpt lat="45.8492577" lon="11.7747201"><ele>1192.5714285714284</ele><time>2026-04-09T14:21:37.42Z</time></trkpt><trkpt lat="45.849215" lon="11.7746457"><ele>1189.7142857142858</ele><time>2026-04-09T14:21:38.426Z</time></trkpt><trkpt lat="45.8491762" lon="11.7745574"><ele>1186.857142857143</ele><time>2026-04-09T14:21:39.429Z</time></trkpt><trkpt lat="45.8491361" lon="11.7744726"><ele>1184.0</ele><time>2026-04-09T14:21:40.43Z</time></trkpt><trkpt lat="45.8491055" lon="11.7743636"><ele>1185.8333333333335</ele><time>2026-04-09T14:21:41.424Z</time></trkpt><trkpt lat="45.8490763" lon="11.7742551"><ele>1187.6666666666667</ele><time>2026-04-09T14:21:42.423Z</time></trkpt><trkpt lat="45.8490459" lon="11.774155"><ele>1189.5</ele><time>2026-04-09T14:21:43.431Z</time></trkpt><trkpt lat="45.8490162" lon="11.7740561"><ele>1191.3333333333333</ele><time>2026-04-09T14:21:44.422Z</time></trkpt><trkpt lat="45.8489907" lon="11.7739658"><ele>1193.1666666666665</ele><time>2026-04-09T14:21:45.426Z</time></trkpt><trkpt lat="45.8489584" lon="11.7738191"><ele>1195.0</ele><time>2026-04-09T14:21:47.429Z</time></trkpt><trkpt lat="45.8489374" lon="11.7736616"><ele>1195.0</ele><time>2026-04-09T14:21:49.425Z</time></trkpt><trkpt lat="45.848927" lon="11.7735614"><ele>1195.0</ele><time>2026-04-09T14:21:50.425Z</time></trkpt><trkpt lat="45.8489327" lon="11.7733872"><ele>1195.0</ele><time>2026-04-09T14:21:52.428Z</time></trkpt><trkpt lat="45.8489456" lon="11.77326"><ele>1195.0</ele><time>2026-04-09T14:21:54.43Z</time></trkpt><trkpt lat="45.8489642" lon="11.7731178"><ele>1195.0</ele><time>2026-04-09T14:21:56.434Z</time></trkpt><trkpt lat="45.8489602" lon="11.7729849"><ele>1195.5</ele><time>2026-04-09T14:21:58.426Z</time></trkpt><trkpt lat="45.8489253" lon="11.7728933"><ele>1196.0</ele><time>2026-04-09T14:22:00.456Z</time></trkpt><trkpt lat="45.8488561" lon="11.7728487"><ele>1196.5</ele><time>2026-04-09T14:22:14.433Z</time></trkpt><trkpt lat="45.8488136" lon="11.7727427"><ele>1197.0</ele><time>2026-04-09T14:22:16.467Z</time></trkpt><trkpt lat="45.8487861" lon="11.7725906"><ele>1197.5</ele><time>2026-04-09T14:22:18.434Z</time></trkpt><trkpt lat="45.8487761" lon="11.7724707"><ele>1198.0</ele><time>2026-04-09T14:22:19.421Z</time></trkpt><trkpt lat="45.848785" lon="11.7723387"><ele>1198.5</ele><time>2026-04-09T14:22:20.42Z</time></trkpt><trkpt lat="45.8487905" lon="11.7721768"><ele>1199.0</ele><time>2026-04-09T14:22:21.423Z</time></trkpt><trkpt lat="45.8487945" lon="11.7719787"><ele>1199.5</ele><time>2026-04-09T14:22:22.428Z</time></trkpt><trkpt lat="45.8487944" lon="11.7718023"><ele>1200.0</ele><time>2026-04-09T14:22:23.433Z</time></trkpt><trkpt lat="45.848798" lon="11.7716369"><ele>1201.0</ele><time>2026-04-09T14:22:24.435Z</time></trkpt><trkpt lat="45.8487968" lon="11.7714861"><ele>1202.0</ele><time>2026-04-09T14:22:25.423Z</time></trkpt><trkpt lat="45.8487942" lon="11.7713346"><ele>1203.0</ele><time>2026-04-09T14:22:26.426Z</time></trkpt><trkpt lat="45.8487938" lon="11.7711984"><ele>1204.0</ele><time>2026-04-09T14:22:27.444Z</time></trkpt><trkpt lat="45.8487981" lon="11.7710561"><ele>1205.0</ele><time>2026-04-09T14:22:28.432Z</time></trkpt><trkpt lat="45.8488143" lon="11.7709226"><ele>1206.0</ele><time>2026-04-09T14:22:29.435Z</time></trkpt><trkpt lat="45.8488289" lon="11.7707895"><ele>1207.0</ele><time>2026-04-09T14:22:30.452Z</time></trkpt><trkpt lat="45.8488432" lon="11.770674"><ele>1208.0</ele><time>2026-04-09T14:22:31.443Z</time></trkpt><trkpt lat="45.8488673" lon="11.7705634"><ele>1209.0</ele><time>2026-04-09T14:22:32.427Z</time></trkpt><trkpt lat="45.848901" lon="11.770446"><ele>1210.0</ele><time>2026-04-09T14:22:33.433Z</time></trkpt><trkpt lat="45.8489405" lon="11.7703182"><ele>1211.0</ele><time>2026-04-09T14:22:34.428Z</time></trkpt><trkpt lat="45.8489857" lon="11.7701991"><ele>1209.0</ele><time>2026-04-09T14:22:35.432Z</time></trkpt><trkpt lat="45.8490326" lon="11.7700788"><ele>1207.0</ele><time>2026-04-09T14:22:36.425Z</time></trkpt><trkpt lat="45.8490759" lon="11.7699701"><ele>1205.0</ele><time>2026-04-09T14:22:37.42Z</time></trkpt><trkpt lat="45.849118" lon="11.7698559"><ele>1203.0</ele><time>2026-04-09T14:22:38.437Z</time></trkpt><trkpt lat="45.8491599" lon="11.769759"><ele>1201.0</ele><time>2026-04-09T14:22:39.426Z</time></trkpt><trkpt lat="45.8492035" lon="11.7696698"><ele>1199.0</ele><time>2026-04-09T14:22:40.439Z</time></trkpt><trkpt lat="45.8492607" lon="11.7695853"><ele>1201.1666666666667</ele><time>2026-04-09T14:22:41.495Z</time></trkpt><trkpt lat="45.8493242" lon="11.7695022"><ele>1203.3333333333335</ele><time>2026-04-09T14:22:42.424Z</time></trkpt><trkpt lat="45.8493964" lon="11.7694285"><ele>1205.5</ele><time>2026-04-09T14:22:43.426Z</time></trkpt><trkpt lat="45.849471" lon="11.7693694"><ele>1207.6666666666667</ele><time>2026-04-09T14:22:44.438Z</time></trkpt><trkpt lat="45.849548" lon="11.7693143"><ele>1209.8333333333333</ele><time>2026-04-09T14:22:45.436Z</time></trkpt><trkpt lat="45.8496373" lon="11.769263"><ele>1212.0</ele><time>2026-04-09T14:22:46.422Z</time></trkpt><trkpt lat="45.8497395" lon="11.7692069"><ele>1212.0</ele><time>2026-04-09T14:22:47.426Z</time></trkpt><trkpt lat="45.8498426" lon="11.7691612"><ele>1212.0</ele><time>2026-04-09T14:22:48.423Z</time></trkpt><trkpt lat="45.8499574" lon="11.7691117"><ele>1212.0</ele><time>2026-04-09T14:22:49.425Z</time></trkpt><trkpt lat="45.8500646" lon="11.7690679"><ele>1212.0</ele><time>2026-04-09T14:22:50.445Z</time></trkpt><trkpt lat="45.8501805" lon="11.7690358"><ele>1216.2</ele><time>2026-04-09T14:22:51.434Z</time></trkpt><trkpt lat="45.8502888" lon="11.7690182"><ele>1220.4</ele><time>2026-04-09T14:22:52.428Z</time></trkpt><trkpt lat="45.8503851" lon="11.7689649"><ele>1224.6</ele><time>2026-04-09T14:22:53.44Z</time></trkpt><trkpt lat="45.8504955" lon="11.7689179"><ele>1228.8</ele><time>2026-04-09T14:22:54.428Z</time></trkpt><trkpt lat="45.8505952" lon="11.7688644"><ele>1233.0</ele><time>2026-04-09T14:22:55.43Z</time></trkpt><trkpt lat="45.8506921" lon="11.7688302"><ele>1233.0</ele><time>2026-04-09T14:22:56.43Z</time></trkpt><trkpt lat="45.8507721" lon="11.768783"><ele>1233.0</ele><time>2026-04-09T14:22:57.426Z</time></trkpt><trkpt lat="45.8508616" lon="11.7686855"><ele>1233.0</ele><time>2026-04-09T14:22:59.417Z</time></trkpt><trkpt lat="45.8508817" lon="11.7685402"><ele>1233.0</ele><time>2026-04-09T14:23:01.429Z</time></trkpt><trkpt lat="45.8508336" lon="11.768377"><ele>1233.0</ele><time>2026-04-09T14:23:03.433Z</time></trkpt><trkpt lat="45.8507739" lon="11.7682955"><ele>1232.0</ele><time>2026-04-09T14:23:04.423Z</time></trkpt><trkpt lat="45.8507059" lon="11.7682329"><ele>1231.0</ele><time>2026-04-09T14:23:05.425Z</time></trkpt><trkpt lat="45.8506507" lon="11.768179"><ele>1230.0</ele><time>2026-04-09T14:23:06.422Z</time></trkpt><trkpt lat="45.8506055" lon="11.7681002"><ele>1229.0</ele><time>2026-04-09T14:23:07.43Z</time></trkpt><trkpt lat="45.8505742" lon="11.767987"><ele>1228.0</ele><time>2026-04-09T14:23:08.431Z</time></trkpt><trkpt lat="45.8505325" lon="11.767865"><ele>1227.0</ele><time>2026-04-09T14:23:09.425Z</time></trkpt><trkpt lat="45.8504908" lon="11.7677349"><ele>1229.5</ele><time>2026-04-09T14:23:10.433Z</time></trkpt><trkpt lat="45.8504565" lon="11.7676255"><ele>1232.0</ele><time>2026-04-09T14:23:11.426Z</time></trkpt><trkpt lat="45.8504268" lon="11.7675276"><ele>1234.5</ele><time>2026-04-09T14:23:12.43Z</time></trkpt><trkpt lat="45.8503947" lon="11.7674088"><ele>1237.0</ele><time>2026-04-09T14:23:13.426Z</time></trkpt><trkpt lat="45.8503722" lon="11.767305"><ele>1239.5</ele><time>2026-04-09T14:23:14.431Z</time></trkpt><trkpt lat="45.8503652" lon="11.7672008"><ele>1242.0</ele><time>2026-04-09T14:23:15.44Z</time></trkpt><trkpt lat="45.8503655" lon="11.7670324"><ele>1241.5</ele><time>2026-04-09T14:23:17.431Z</time></trkpt><trkpt lat="45.8503974" lon="11.7668596"><ele>1241.0</ele><time>2026-04-09T14:23:19.428Z</time></trkpt><trkpt lat="45.8504373" lon="11.7667718"><ele>1240.5</ele><time>2026-04-09T14:23:20.427Z</time></trkpt><trkpt lat="45.8504847" lon="11.7666811"><ele>1240.0</ele><time>2026-04-09T14:23:21.428Z</time></trkpt><trkpt lat="45.8505375" lon="11.7665839"><ele>1239.5</ele><time>2026-04-09T14:23:22.431Z</time></trkpt><trkpt lat="45.8505897" lon="11.766497"><ele>1239.0</ele><time>2026-04-09T14:23:23.424Z</time></trkpt><trkpt lat="45.8506502" lon="11.7664116"><ele>1239.0</ele><time>2026-04-09T14:23:24.422Z</time></trkpt><trkpt lat="45.850709" lon="11.7663283"><ele>1239.0</ele><time>2026-04-09T14:23:25.425Z</time></trkpt><trkpt lat="45.8507622" lon="11.7662498"><ele>1239.0</ele><time>2026-04-09T14:23:26.432Z</time></trkpt><trkpt lat="45.8508144" lon="11.7661927"><ele>1239.0</ele><time>2026-04-09T14:23:27.44Z</time></trkpt><trkpt lat="45.8509116" lon="11.7661251"><ele>1239.0</ele><time>2026-04-09T14:23:29.43Z</time></trkpt><trkpt lat="45.8510296" lon="11.7660956"><ele>1239.8</ele><time>2026-04-09T14:23:31.426Z</time></trkpt><trkpt lat="45.8511147" lon="11.7660811"><ele>1240.6000000000001</ele><time>2026-04-09T14:23:32.423Z</time></trkpt><trkpt lat="45.8512065" lon="11.7660592"><ele>1241.4</ele><time>2026-04-09T14:23:33.429Z</time></trkpt><trkpt lat="45.8513023" lon="11.7660252"><ele>1242.2</ele><time>2026-04-09T14:23:34.426Z</time></trkpt><trkpt lat="45.8513886" lon="11.7659832"><ele>1243.0</ele><time>2026-04-09T14:23:35.423Z</time></trkpt><trkpt lat="45.8514721" lon="11.7659413"><ele>1243.0</ele><time>2026-04-09T14:23:36.432Z</time></trkpt><trkpt lat="45.8515429" lon="11.7658758"><ele>1243.0</ele><time>2026-04-09T14:23:37.427Z</time></trkpt><trkpt lat="45.8516051" lon="11.7658094"><ele>1243.0</ele><time>2026-04-09T14:23:38.434Z</time></trkpt><trkpt lat="45.8516581" lon="11.7657472"><ele>1243.0</ele><time>2026-04-09T14:23:39.429Z</time></trkpt><trkpt lat="45.8517097" lon="11.7655949"><ele>1243.0</ele><time>2026-04-09T14:23:41.426Z</time></trkpt><trkpt lat="45.8516838" lon="11.7654192"><ele>1243.0</ele><time>2026-04-09T14:23:43.433Z</time></trkpt><trkpt lat="45.8516423" lon="11.7653316"><ele>1243.0</ele><time>2026-04-09T14:23:44.43Z</time></trkpt><trkpt lat="45.8515889" lon="11.7652407"><ele>1243.0</ele><time>2026-04-09T14:23:45.429Z</time></trkpt><trkpt lat="45.8515442" lon="11.7651515"><ele>1243.0</ele><time>2026-04-09T14:23:46.427Z</time></trkpt><trkpt lat="45.8514927" lon="11.7650181"><ele>1243.0</ele><time>2026-04-09T14:23:48.428Z</time></trkpt><trkpt lat="45.8514894" lon="11.7648947"><ele>1243.0</ele><time>2026-04-09T14:23:51.44Z</time></trkpt><trkpt lat="45.8515527" lon="11.7649207"><ele>1243.0</ele><time>2026-04-09T14:23:54.481Z</time></trkpt><trkpt lat="45.8516092" lon="11.7650472"><ele>1243.0</ele><time>2026-04-09T14:23:56.429Z</time></trkpt><trkpt lat="45.8516575" lon="11.7651267"><ele>1243.0</ele><time>2026-04-09T14:23:57.433Z</time></trkpt><trkpt lat="45.8517149" lon="11.7651974"><ele>1243.0</ele><time>2026-04-09T14:23:58.432Z</time></trkpt><trkpt lat="45.8517833" lon="11.7652513"><ele>1243.0</ele><time>2026-04-09T14:23:59.425Z</time></trkpt><trkpt lat="45.8518526" lon="11.7652799"><ele>1243.0</ele><time>2026-04-09T14:24:00.431Z</time></trkpt><trkpt lat="45.8519261" lon="11.7652825"><ele>1244.0000000000002</ele><time>2026-04-09T14:24:01.424Z</time></trkpt><trkpt lat="45.8520027" lon="11.7652652"><ele>1245.0</ele><time>2026-04-09T14:24:02.44Z</time></trkpt><trkpt lat="45.8520815" lon="11.7652398"><ele>1246.0</ele><time>2026-04-09T14:24:03.434Z</time></trkpt><trkpt lat="45.8521565" lon="11.7652122"><ele>1247.0</ele><time>2026-04-09T14:24:04.444Z</time></trkpt><trkpt lat="45.852222" lon="11.7651827"><ele>1248.0</ele><time>2026-04-09T14:24:05.431Z</time></trkpt><trkpt lat="45.8522865" lon="11.7651589"><ele>1249.0000000000002</ele><time>2026-04-09T14:24:06.441Z</time></trkpt><trkpt lat="45.8523531" lon="11.765135"><ele>1250.0</ele><time>2026-04-09T14:24:07.431Z</time></trkpt><trkpt lat="45.8524278" lon="11.7651342"><ele>1250.0</ele><time>2026-04-09T14:24:08.436Z</time></trkpt><trkpt lat="45.8525053" lon="11.7651414"><ele>1250.0</ele><time>2026-04-09T14:24:09.434Z</time></trkpt><trkpt lat="45.8525847" lon="11.7651615"><ele>1250.0</ele><time>2026-04-09T14:24:10.433Z</time></trkpt><trkpt lat="45.8526642" lon="11.7651806"><ele>1250.0</ele><time>2026-04-09T14:24:11.434Z</time></trkpt><trkpt lat="45.8527466" lon="11.7652006"><ele>1250.0</ele><time>2026-04-09T14:24:12.436Z</time></trkpt><trkpt lat="45.8528229" lon="11.7652281"><ele>1250.0</ele><time>2026-04-09T14:24:13.429Z</time></trkpt><trkpt lat="45.8528959" lon="11.7652707"><ele>1247.8333333333335</ele><time>2026-04-09T14:24:14.438Z</time></trkpt><trkpt lat="45.8529712" lon="11.7653152"><ele>1245.6666666666667</ele><time>2026-04-09T14:24:15.43Z</time></trkpt><trkpt lat="45.8530479" lon="11.7653598"><ele>1243.5</ele><time>2026-04-09T14:24:16.425Z</time></trkpt><trkpt lat="45.8531163" lon="11.7653989"><ele>1241.3333333333333</ele><time>2026-04-09T14:24:17.431Z</time></trkpt><trkpt lat="45.853176" lon="11.7654336"><ele>1239.1666666666665</ele><time>2026-04-09T14:24:18.43Z</time></trkpt><trkpt lat="45.8532898" lon="11.7654949"><ele>1237.0</ele><time>2026-04-09T14:24:20.431Z</time></trkpt><trkpt lat="45.8534149" lon="11.7655235"><ele>1236.0</ele><time>2026-04-09T14:24:22.437Z</time></trkpt><trkpt lat="45.8534856" lon="11.7655201"><ele>1235.0</ele><time>2026-04-09T14:24:23.429Z</time></trkpt><trkpt lat="45.8535625" lon="11.7655047"><ele>1234.0</ele><time>2026-04-09T14:24:24.46Z</time></trkpt><trkpt lat="45.8536366" lon="11.7654863"><ele>1233.0</ele><time>2026-04-09T14:24:25.436Z</time></trkpt><trkpt lat="45.853706" lon="11.7654697"><ele>1232.0</ele><time>2026-04-09T14:24:26.437Z</time></trkpt><trkpt lat="45.8537679" lon="11.7654531"><ele>1231.0</ele><time>2026-04-09T14:24:27.446Z</time></trkpt><trkpt lat="45.8538635" lon="11.7654187"><ele>1231.0</ele><time>2026-04-09T14:24:29.425Z</time></trkpt><trkpt lat="45.8539242" lon="11.7653572"><ele>1231.0</ele><time>2026-04-09T14:24:31.432Z</time></trkpt><trkpt lat="45.8539393" lon="11.7651888"><ele>1231.0</ele><time>2026-04-09T14:24:33.435Z</time></trkpt><trkpt lat="45.8539435" lon="11.7650261"><ele>1231.0</ele><time>2026-04-09T14:24:35.432Z</time></trkpt><trkpt lat="45.8540015" lon="11.7649194"><ele>1231.0</ele><time>2026-04-09T14:24:37.423Z</time></trkpt><trkpt lat="45.8541243" lon="11.764897"><ele>1230.5</ele><time>2026-04-09T14:24:39.437Z</time></trkpt><trkpt lat="45.8542024" lon="11.7649033"><ele>1230.0</ele><time>2026-04-09T14:24:40.432Z</time></trkpt><trkpt lat="45.8542778" lon="11.7649106"><ele>1229.5</ele><time>2026-04-09T14:24:41.428Z</time></trkpt><trkpt lat="45.8543561" lon="11.7649142"><ele>1229.0</ele><time>2026-04-09T14:24:42.425Z</time></trkpt><trkpt lat="45.8544351" lon="11.7649218"><ele>1228.5</ele><time>2026-04-09T14:24:43.427Z</time></trkpt><trkpt lat="45.8545201" lon="11.7649375"><ele>1228.0</ele><time>2026-04-09T14:24:44.423Z</time></trkpt><trkpt lat="45.854608" lon="11.7649602"><ele>1228.0</ele><time>2026-04-09T14:24:45.428Z</time></trkpt><trkpt lat="45.8546959" lon="11.7649901"><ele>1228.0</ele><time>2026-04-09T14:24:46.428Z</time></trkpt><trkpt lat="45.8547833" lon="11.7650195"><ele>1228.0</ele><time>2026-04-09T14:24:47.424Z</time></trkpt><trkpt lat="45.8548696" lon="11.7650611"><ele>1228.0</ele><time>2026-04-09T14:24:48.427Z</time></trkpt><trkpt lat="45.854954" lon="11.7651013"><ele>1228.0</ele><time>2026-04-09T14:24:49.426Z</time></trkpt><trkpt lat="45.8550367" lon="11.7651371"><ele>1228.0</ele><time>2026-04-09T14:24:50.426Z</time></trkpt><trkpt lat="45.8551168" lon="11.7651582"><ele>1226.3333333333333</ele><time>2026-04-09T14:24:51.439Z</time></trkpt><trkpt lat="45.8552006" lon="11.7651865"><ele>1224.6666666666665</ele><time>2026-04-09T14:24:52.435Z</time></trkpt><trkpt lat="45.855281" lon="11.76521"><ele>1223.0</ele><time>2026-04-09T14:24:53.424Z</time></trkpt><trkpt lat="45.8553545" lon="11.7652258"><ele>1221.3333333333333</ele><time>2026-04-09T14:24:54.431Z</time></trkpt><trkpt lat="45.8554363" lon="11.7652336"><ele>1219.6666666666667</ele><time>2026-04-09T14:24:55.433Z</time></trkpt><trkpt lat="45.8555122" lon="11.7652264"><ele>1218.0</ele><time>2026-04-09T14:24:56.423Z</time></trkpt><trkpt lat="45.8555812" lon="11.7651928"><ele>1218.0</ele><time>2026-04-09T14:24:57.43Z</time></trkpt><trkpt lat="45.8556519" lon="11.7651521"><ele>1218.0</ele><time>2026-04-09T14:24:58.432Z</time></trkpt><trkpt lat="45.8557218" lon="11.7651157"><ele>1218.0</ele><time>2026-04-09T14:24:59.431Z</time></trkpt><trkpt lat="45.8557887" lon="11.7650845"><ele>1218.0</ele><time>2026-04-09T14:25:00.43Z</time></trkpt><trkpt lat="45.8558676" lon="11.7650745"><ele>1218.0</ele><time>2026-04-09T14:25:01.428Z</time></trkpt><trkpt lat="45.8559456" lon="11.7650721"><ele>1218.0</ele><time>2026-04-09T14:25:02.437Z</time></trkpt><trkpt lat="45.8560212" lon="11.76507"><ele>1216.3333333333333</ele><time>2026-04-09T14:25:03.426Z</time></trkpt><trkpt lat="45.8560962" lon="11.7650718"><ele>1214.6666666666667</ele><time>2026-04-09T14:25:04.432Z</time></trkpt><trkpt lat="45.8562012" lon="11.7650926"><ele>1213.0</ele><time>2026-04-09T14:25:06.427Z</time></trkpt><trkpt lat="45.8562492" lon="11.765168"><ele>1211.3333333333335</ele><time>2026-04-09T14:25:08.449Z</time></trkpt><trkpt lat="45.8561571" lon="11.7652655"><ele>1209.6666666666667</ele><time>2026-04-09T14:25:12.432Z</time></trkpt><trkpt lat="45.8560822" lon="11.7652915"><ele>1208.0</ele><time>2026-04-09T14:25:13.422Z</time></trkpt><trkpt lat="45.8559934" lon="11.7653169"><ele>1208.1666666666667</ele><time>2026-04-09T14:25:14.428Z</time></trkpt><trkpt lat="45.8559022" lon="11.7653575"><ele>1208.3333333333335</ele><time>2026-04-09T14:25:15.421Z</time></trkpt><trkpt lat="45.855822" lon="11.7653962"><ele>1208.5</ele><time>2026-04-09T14:25:16.426Z</time></trkpt><trkpt lat="45.8557463" lon="11.7654414"><ele>1208.6666666666667</ele><time>2026-04-09T14:25:17.421Z</time></trkpt><trkpt lat="45.8556692" lon="11.7654869"><ele>1208.8333333333333</ele><time>2026-04-09T14:25:18.428Z</time></trkpt><trkpt lat="45.8555816" lon="11.7655247"><ele>1209.0</ele><time>2026-04-09T14:25:19.427Z</time></trkpt><trkpt lat="45.8555018" lon="11.7655674"><ele>1209.0</ele><time>2026-04-09T14:25:20.436Z</time></trkpt><trkpt lat="45.8554213" lon="11.7656026"><ele>1209.0</ele><time>2026-04-09T14:25:21.428Z</time></trkpt><trkpt lat="45.8553053" lon="11.7656431"><ele>1209.0</ele><time>2026-04-09T14:25:23.434Z</time></trkpt><trkpt lat="45.8552024" lon="11.765726"><ele>1209.0</ele><time>2026-04-09T14:25:25.434Z</time></trkpt><trkpt lat="45.8551703" lon="11.7658591"><ele>1209.0</ele><time>2026-04-09T14:25:27.424Z</time></trkpt><trkpt lat="45.855202" lon="11.7659819"><ele>1210.4</ele><time>2026-04-09T14:25:29.421Z</time></trkpt><trkpt lat="45.8553142" lon="11.7660494"><ele>1211.8000000000002</ele><time>2026-04-09T14:25:31.429Z</time></trkpt><trkpt lat="45.8553907" lon="11.7660709"><ele>1213.1999999999998</ele><time>2026-04-09T14:25:32.422Z</time></trkpt><trkpt lat="45.8554746" lon="11.7660783"><ele>1214.6</ele><time>2026-04-09T14:25:33.432Z</time></trkpt><trkpt lat="45.8555628" lon="11.7660801"><ele>1216.0</ele><time>2026-04-09T14:25:34.421Z</time></trkpt><trkpt lat="45.8556526" lon="11.7660735"><ele>1216.0</ele><time>2026-04-09T14:25:35.427Z</time></trkpt><trkpt lat="45.855738" lon="11.7660608"><ele>1216.0</ele><time>2026-04-09T14:25:36.428Z</time></trkpt><trkpt lat="45.8558253" lon="11.7660139"><ele>1216.0</ele><time>2026-04-09T14:25:37.423Z</time></trkpt><trkpt lat="45.8559108" lon="11.7659692"><ele>1216.0</ele><time>2026-04-09T14:25:38.426Z</time></trkpt><trkpt lat="45.8559934" lon="11.7659295"><ele>1216.0</ele><time>2026-04-09T14:25:39.428Z</time></trkpt><trkpt lat="45.8560776" lon="11.7658949"><ele>1216.0</ele><time>2026-04-09T14:25:40.421Z</time></trkpt><trkpt lat="45.8561555" lon="11.7658643"><ele>1213.0</ele><time>2026-04-09T14:25:41.418Z</time></trkpt><trkpt lat="45.8562559" lon="11.7658558"><ele>1210.0</ele><time>2026-04-09T14:25:42.429Z</time></trkpt><trkpt lat="45.8563565" lon="11.7658546"><ele>1207.0</ele><time>2026-04-09T14:25:43.426Z</time></trkpt><trkpt lat="45.8564606" lon="11.7658747"><ele>1204.0</ele><time>2026-04-09T14:25:44.427Z</time></trkpt><trkpt lat="45.856554" lon="11.7658921"><ele>1201.0</ele><time>2026-04-09T14:25:45.424Z</time></trkpt><trkpt lat="45.856647" lon="11.7658801"><ele>1201.0</ele><time>2026-04-09T14:25:46.43Z</time></trkpt><trkpt lat="45.8567326" lon="11.7658504"><ele>1201.0</ele><time>2026-04-09T14:25:47.432Z</time></trkpt><trkpt lat="45.8568187" lon="11.7658056"><ele>1201.0</ele><time>2026-04-09T14:25:48.437Z</time></trkpt><trkpt lat="45.8568924" lon="11.7657478"><ele>1201.0</ele><time>2026-04-09T14:25:49.424Z</time></trkpt><trkpt lat="45.8569715" lon="11.7656871"><ele>1201.0</ele><time>2026-04-09T14:25:50.426Z</time></trkpt><trkpt lat="45.8570483" lon="11.765615"><ele>1201.0</ele><time>2026-04-09T14:25:51.43Z</time></trkpt><trkpt lat="45.8571202" lon="11.765535"><ele>1201.0</ele><time>2026-04-09T14:25:52.425Z</time></trkpt><trkpt lat="45.85719" lon="11.7654496"><ele>1201.0</ele><time>2026-04-09T14:25:53.422Z</time></trkpt><trkpt lat="45.8572558" lon="11.765369"><ele>1201.0</ele><time>2026-04-09T14:25:54.427Z</time></trkpt><trkpt lat="45.857325" lon="11.7652991"><ele>1201.0</ele><time>2026-04-09T14:25:55.423Z</time></trkpt><trkpt lat="45.8573868" lon="11.7652253"><ele>1201.0</ele><time>2026-04-09T14:25:56.425Z</time></trkpt><trkpt lat="45.8574492" lon="11.7651471"><ele>1201.0</ele><time>2026-04-09T14:25:57.43Z</time></trkpt><trkpt lat="45.8574984" lon="11.7650563"><ele>1200.8333333333333</ele><time>2026-04-09T14:25:58.426Z</time></trkpt><trkpt lat="45.8575456" lon="11.7649782"><ele>1200.6666666666665</ele><time>2026-04-09T14:25:59.425Z</time></trkpt><trkpt lat="45.8575916" lon="11.7649039"><ele>1200.5</ele><time>2026-04-09T14:26:00.423Z</time></trkpt><trkpt lat="45.8576563" lon="11.7648669"><ele>1200.3333333333333</ele><time>2026-04-09T14:26:01.437Z</time></trkpt><trkpt lat="45.8577358" lon="11.7648403"><ele>1200.1666666666667</ele><time>2026-04-09T14:26:02.426Z</time></trkpt><trkpt lat="45.8578189" lon="11.7648138"><ele>1200.0</ele><time>2026-04-09T14:26:03.428Z</time></trkpt><trkpt lat="45.8578941" lon="11.7647949"><ele>1199.9999999999998</ele><time>2026-04-09T14:26:04.429Z</time></trkpt><trkpt lat="45.8579613" lon="11.7647692"><ele>1200.0</ele><time>2026-04-09T14:26:05.43Z</time></trkpt><trkpt lat="45.8580315" lon="11.7647414"><ele>1200.0</ele><time>2026-04-09T14:26:06.437Z</time></trkpt><trkpt lat="45.8580914" lon="11.7646819"><ele>1200.0</ele><time>2026-04-09T14:26:07.428Z</time></trkpt><trkpt lat="45.8581344" lon="11.7645919"><ele>1200.0</ele><time>2026-04-09T14:26:08.421Z</time></trkpt><trkpt lat="45.8581567" lon="11.7644914"><ele>1199.9999999999998</ele><time>2026-04-09T14:26:09.432Z</time></trkpt><trkpt lat="45.8581727" lon="11.7643882"><ele>1200.0</ele><time>2026-04-09T14:26:10.424Z</time></trkpt><trkpt lat="45.8582004" lon="11.7643001"><ele>1199.3333333333333</ele><time>2026-04-09T14:26:11.433Z</time></trkpt><trkpt lat="45.8582282" lon="11.7642129"><ele>1198.6666666666667</ele><time>2026-04-09T14:26:12.44Z</time></trkpt><trkpt lat="45.8582781" lon="11.764134"><ele>1198.0</ele><time>2026-04-09T14:26:13.426Z</time></trkpt><trkpt lat="45.8583275" lon="11.764034"><ele>1197.3333333333335</ele><time>2026-04-09T14:26:14.426Z</time></trkpt><trkpt lat="45.8583827" lon="11.763936"><ele>1196.6666666666667</ele><time>2026-04-09T14:26:15.437Z</time></trkpt><trkpt lat="45.8584337" lon="11.7638216"><ele>1196.0</ele><time>2026-04-09T14:26:16.433Z</time></trkpt><trkpt lat="45.8584828" lon="11.7637091"><ele>1197.5</ele><time>2026-04-09T14:26:17.43Z</time></trkpt><trkpt lat="45.8585298" lon="11.7635985"><ele>1199.0</ele><time>2026-04-09T14:26:18.432Z</time></trkpt><trkpt lat="45.8585806" lon="11.7635037"><ele>1200.5</ele><time>2026-04-09T14:26:19.435Z</time></trkpt><trkpt lat="45.8586399" lon="11.7634271"><ele>1202.0</ele><time>2026-04-09T14:26:20.444Z</time></trkpt><trkpt lat="45.8586925" lon="11.7633374"><ele>1203.5</ele><time>2026-04-09T14:26:21.442Z</time></trkpt><trkpt lat="45.8587413" lon="11.7632364"><ele>1205.0</ele><time>2026-04-09T14:26:22.423Z</time></trkpt><trkpt lat="45.8587965" lon="11.7631345"><ele>1205.0</ele><time>2026-04-09T14:26:23.439Z</time></trkpt><trkpt lat="45.8588569" lon="11.7630406"><ele>1205.0</ele><time>2026-04-09T14:26:24.422Z</time></trkpt><trkpt lat="45.8589214" lon="11.7629598"><ele>1205.0</ele><time>2026-04-09T14:26:25.427Z</time></trkpt><trkpt lat="45.8589825" lon="11.7628817"><ele>1205.0</ele><time>2026-04-09T14:26:26.431Z</time></trkpt><trkpt lat="45.8590357" lon="11.7627902"><ele>1205.0</ele><time>2026-04-09T14:26:27.436Z</time></trkpt><trkpt lat="45.859086" lon="11.7626992"><ele>1205.0</ele><time>2026-04-09T14:26:28.432Z</time></trkpt><trkpt lat="45.8591238" lon="11.7626026"><ele>1204.5</ele><time>2026-04-09T14:26:29.423Z</time></trkpt><trkpt lat="45.8591645" lon="11.7625236"><ele>1204.0</ele><time>2026-04-09T14:26:30.424Z</time></trkpt><trkpt lat="45.8592468" lon="11.7624078"><ele>1203.5</ele><time>2026-04-09T14:26:32.422Z</time></trkpt><trkpt lat="45.8593054" lon="11.7623496"><ele>1203.0</ele><time>2026-04-09T14:26:33.436Z</time></trkpt><trkpt lat="45.8593678" lon="11.7622829"><ele>1202.5</ele><time>2026-04-09T14:26:34.441Z</time></trkpt><trkpt lat="45.8594223" lon="11.762202"><ele>1202.0</ele><time>2026-04-09T14:26:35.439Z</time></trkpt><trkpt lat="45.8594606" lon="11.7621067"><ele>1203.6666666666667</ele><time>2026-04-09T14:26:36.431Z</time></trkpt><trkpt lat="45.85946" lon="11.7619967"><ele>1205.3333333333335</ele><time>2026-04-09T14:26:37.434Z</time></trkpt><trkpt lat="45.8594782" lon="11.7619022"><ele>1207.0</ele><time>2026-04-09T14:26:38.439Z</time></trkpt><trkpt lat="45.8594946" lon="11.761814"><ele>1208.6666666666667</ele><time>2026-04-09T14:26:39.422Z</time></trkpt><trkpt lat="45.8595703" lon="11.7616795"><ele>1210.3333333333333</ele><time>2026-04-09T14:26:41.435Z</time></trkpt><trkpt lat="45.85968" lon="11.7616382"><ele>1212.0</ele><time>2026-04-09T14:26:43.425Z</time></trkpt><trkpt lat="45.8597445" lon="11.7616249"><ele>1212.0</ele><time>2026-04-09T14:26:44.436Z</time></trkpt><trkpt lat="45.8598562" lon="11.7616126"><ele>1212.0</ele><time>2026-04-09T14:26:46.442Z</time></trkpt><trkpt lat="45.8599288" lon="11.7615454"><ele>1212.0</ele><time>2026-04-09T14:26:48.443Z</time></trkpt><trkpt lat="45.8599308" lon="11.7614334"><ele>1212.0</ele><time>2026-04-09T14:26:50.433Z</time></trkpt><trkpt lat="45.8598677" lon="11.7613303"><ele>1212.0</ele><time>2026-04-09T14:26:52.435Z</time></trkpt><trkpt lat="45.8597805" lon="11.7612314"><ele>1212.0</ele><time>2026-04-09T14:26:54.432Z</time></trkpt><trkpt lat="45.8597555" lon="11.7610491"><ele>1212.0</ele><time>2026-04-09T14:26:56.437Z</time></trkpt><trkpt lat="45.8597509" lon="11.7609359"><ele>1212.0</ele><time>2026-04-09T14:26:57.435Z</time></trkpt><trkpt lat="45.8597684" lon="11.7608006"><ele>1212.0</ele><time>2026-04-09T14:26:58.428Z</time></trkpt><trkpt lat="45.8597809" lon="11.7606601"><ele>1212.0</ele><time>2026-04-09T14:26:59.425Z</time></trkpt><trkpt lat="45.8597826" lon="11.76052"><ele>1214.75</ele><time>2026-04-09T14:27:00.433Z</time></trkpt><trkpt lat="45.8597536" lon="11.7603672"><ele>1217.5</ele><time>2026-04-09T14:27:01.427Z</time></trkpt><trkpt lat="45.8597192" lon="11.7602092"><ele>1220.25</ele><time>2026-04-09T14:27:02.428Z</time></trkpt><trkpt lat="45.8596852" lon="11.7600513"><ele>1223.0</ele><time>2026-04-09T14:27:03.432Z</time></trkpt><trkpt lat="45.8596512" lon="11.7598954"><ele>1224.8</ele><time>2026-04-09T14:27:04.42Z</time></trkpt><trkpt lat="45.8596197" lon="11.7597491"><ele>1226.6</ele><time>2026-04-09T14:27:05.429Z</time></trkpt><trkpt lat="45.8595891" lon="11.7596079"><ele>1228.4</ele><time>2026-04-09T14:27:06.425Z</time></trkpt><trkpt lat="45.8595596" lon="11.7594786"><ele>1230.2</ele><time>2026-04-09T14:27:07.43Z</time></trkpt><trkpt lat="45.8595377" lon="11.7593559"><ele>1232.0</ele><time>2026-04-09T14:27:08.43Z</time></trkpt><trkpt lat="45.8595169" lon="11.7592454"><ele>1233.7142857142858</ele><time>2026-04-09T14:27:09.425Z</time></trkpt><trkpt lat="45.8594943" lon="11.75914"><ele>1235.4285714285716</ele><time>2026-04-09T14:27:10.427Z</time></trkpt><trkpt lat="45.8594692" lon="11.7590417"><ele>1237.142857142857</ele><time>2026-04-09T14:27:11.419Z</time></trkpt><trkpt lat="45.8594277" lon="11.7589662"><ele>1238.857142857143</ele><time>2026-04-09T14:27:12.425Z</time></trkpt><trkpt lat="45.8593859" lon="11.7588612"><ele>1240.5714285714287</ele><time>2026-04-09T14:27:14.439Z</time></trkpt><trkpt lat="45.8594546" lon="11.7588568"><ele>1242.2857142857142</ele><time>2026-04-09T14:27:19.43Z</time></trkpt><trkpt lat="45.859489" lon="11.7589358"><ele>1244.0</ele><time>2026-04-09T14:27:20.43Z</time></trkpt><trkpt lat="45.8595418" lon="11.7590413"><ele>1244.0</ele><time>2026-04-09T14:27:21.43Z</time></trkpt><trkpt lat="45.859596" lon="11.7591657"><ele>1244.0</ele><time>2026-04-09T14:27:22.422Z</time></trkpt><trkpt lat="45.8596574" lon="11.7593059"><ele>1244.0</ele><time>2026-04-09T14:27:23.425Z</time></trkpt><trkpt lat="45.8597172" lon="11.7594465"><ele>1244.0</ele><time>2026-04-09T14:27:24.426Z</time></trkpt><trkpt lat="45.8597868" lon="11.7595874"><ele>1241.0</ele><time>2026-04-09T14:27:25.482Z</time></trkpt><trkpt lat="45.8598631" lon="11.7597335"><ele>1238.0</ele><time>2026-04-09T14:27:26.436Z</time></trkpt><trkpt lat="45.8599261" lon="11.7598898"><ele>1235.0</ele><time>2026-04-09T14:27:27.462Z</time></trkpt><trkpt lat="45.8599777" lon="11.760055"><ele>1232.0</ele><time>2026-04-09T14:27:28.429Z</time></trkpt><trkpt lat="45.8600294" lon="11.7602167"><ele>1229.75</ele><time>2026-04-09T14:27:29.427Z</time></trkpt><trkpt lat="45.8600907" lon="11.7603701"><ele>1227.5</ele><time>2026-04-09T14:27:30.424Z</time></trkpt><trkpt lat="45.8601671" lon="11.7605109"><ele>1225.25</ele><time>2026-04-09T14:27:31.424Z</time></trkpt><trkpt lat="45.8602617" lon="11.7606429"><ele>1223.0</ele><time>2026-04-09T14:27:32.431Z</time></trkpt><trkpt lat="45.8603605" lon="11.7607729"><ele>1224.75</ele><time>2026-04-09T14:27:33.429Z</time></trkpt><trkpt lat="45.8604554" lon="11.7608958"><ele>1226.5</ele><time>2026-04-09T14:27:34.428Z</time></trkpt><trkpt lat="45.8605501" lon="11.7609882"><ele>1228.25</ele><time>2026-04-09T14:27:35.424Z</time></trkpt><trkpt lat="45.8606417" lon="11.761073"><ele>1230.0</ele><time>2026-04-09T14:27:36.43Z</time></trkpt><trkpt lat="45.8607576" lon="11.761067"><ele>1230.0</ele><time>2026-04-09T14:27:37.44Z</time></trkpt><trkpt lat="45.860881" lon="11.7610357"><ele>1230.0</ele><time>2026-04-09T14:27:38.428Z</time></trkpt><trkpt lat="45.8610107" lon="11.7610121"><ele>1230.0</ele><time>2026-04-09T14:27:39.428Z</time></trkpt><trkpt lat="45.8611436" lon="11.7610044"><ele>1230.0</ele><time>2026-04-09T14:27:40.423Z</time></trkpt><trkpt lat="45.8612769" lon="11.7610233"><ele>1232.4</ele><time>2026-04-09T14:27:41.426Z</time></trkpt><trkpt lat="45.8613901" lon="11.7610562"><ele>1234.8</ele><time>2026-04-09T14:27:42.42Z</time></trkpt><trkpt lat="45.8614913" lon="11.7610846"><ele>1237.2</ele><time>2026-04-09T14:27:43.427Z</time></trkpt><trkpt lat="45.8615704" lon="11.7611464"><ele>1239.6</ele><time>2026-04-09T14:27:44.423Z</time></trkpt><trkpt lat="45.8616284" lon="11.7612717"><ele>1242.0</ele><time>2026-04-09T14:27:45.428Z</time></trkpt><trkpt lat="45.8616812" lon="11.7613978"><ele>1242.0</ele><time>2026-04-09T14:27:46.431Z</time></trkpt><trkpt lat="45.8617711" lon="11.7614638"><ele>1242.0</ele><time>2026-04-09T14:27:47.429Z</time></trkpt><trkpt lat="45.8618731" lon="11.7615197"><ele>1242.0</ele><time>2026-04-09T14:27:48.426Z</time></trkpt><trkpt lat="45.8619973" lon="11.7614954"><ele>1242.0</ele><time>2026-04-09T14:27:49.427Z</time></trkpt><trkpt lat="45.8621241" lon="11.761482"><ele>1244.5</ele><time>2026-04-09T14:27:50.422Z</time></trkpt><trkpt lat="45.8622456" lon="11.7614912"><ele>1247.0</ele><time>2026-04-09T14:27:51.425Z</time></trkpt><trkpt lat="45.8623543" lon="11.7615547"><ele>1249.5</ele><time>2026-04-09T14:27:52.444Z</time></trkpt><trkpt lat="45.8624391" lon="11.7616546"><ele>1252.0</ele><time>2026-04-09T14:27:53.477Z</time></trkpt><trkpt lat="45.8625211" lon="11.7617476"><ele>1252.0</ele><time>2026-04-09T14:27:54.455Z</time></trkpt><trkpt lat="45.8626131" lon="11.7618283"><ele>1252.0</ele><time>2026-04-09T14:27:55.425Z</time></trkpt><trkpt lat="45.862718" lon="11.7619074"><ele>1252.0</ele><time>2026-04-09T14:27:56.436Z</time></trkpt><trkpt lat="45.8628315" lon="11.7619819"><ele>1252.0</ele><time>2026-04-09T14:27:57.427Z</time></trkpt><trkpt lat="45.8629317" lon="11.7620536"><ele>1254.0</ele><time>2026-04-09T14:27:58.427Z</time></trkpt><trkpt lat="45.8630132" lon="11.7621417"><ele>1256.0</ele><time>2026-04-09T14:27:59.426Z</time></trkpt><trkpt lat="45.8630927" lon="11.762234"><ele>1258.0</ele><time>2026-04-09T14:28:00.419Z</time></trkpt><trkpt lat="45.8631241" lon="11.7623918"><ele>1260.0</ele><time>2026-04-09T14:28:01.427Z</time></trkpt><trkpt lat="45.86315" lon="11.7625643"><ele>1262.0</ele><time>2026-04-09T14:28:02.425Z</time></trkpt><trkpt lat="45.8631791" lon="11.7627396"><ele>1262.0</ele><time>2026-04-09T14:28:03.429Z</time></trkpt><trkpt lat="45.8632225" lon="11.7629207"><ele>1262.0</ele><time>2026-04-09T14:28:04.446Z</time></trkpt><trkpt lat="45.8632824" lon="11.7630919"><ele>1262.0</ele><time>2026-04-09T14:28:05.429Z</time></trkpt><trkpt lat="45.8633471" lon="11.7632326"><ele>1262.0</ele><time>2026-04-09T14:28:06.432Z</time></trkpt><trkpt lat="45.8634196" lon="11.7633447"><ele>1267.0</ele><time>2026-04-09T14:28:07.421Z</time></trkpt><trkpt lat="45.8635085" lon="11.7634136"><ele>1272.0</ele><time>2026-04-09T14:28:08.432Z</time></trkpt><trkpt lat="45.863617" lon="11.763445"><ele>1277.0</ele><time>2026-04-09T14:28:09.43Z</time></trkpt><trkpt lat="45.8637389" lon="11.7634575"><ele>1282.0</ele><time>2026-04-09T14:28:10.429Z</time></trkpt><trkpt lat="45.8638563" lon="11.763478"><ele>1282.0</ele><time>2026-04-09T14:28:11.428Z</time></trkpt><trkpt lat="45.8639645" lon="11.763515"><ele>1282.0</ele><time>2026-04-09T14:28:12.423Z</time></trkpt><trkpt lat="45.8640604" lon="11.7635961"><ele>1282.0</ele><time>2026-04-09T14:28:13.421Z</time></trkpt><trkpt lat="45.8641398" lon="11.7637194"><ele>1282.0</ele><time>2026-04-09T14:28:14.432Z</time></trkpt><trkpt lat="45.8642162" lon="11.7638618"><ele>1284.0</ele><time>2026-04-09T14:28:15.434Z</time></trkpt><trkpt lat="45.864292" lon="11.7639956"><ele>1286.0</ele><time>2026-04-09T14:28:16.424Z</time></trkpt><trkpt lat="45.8643581" lon="11.7641134"><ele>1288.0</ele><time>2026-04-09T14:28:17.423Z</time></trkpt><trkpt lat="45.8644113" lon="11.764215"><ele>1290.0</ele><time>2026-04-09T14:28:18.432Z</time></trkpt><trkpt lat="45.8644384" lon="11.7643273"><ele>1292.0</ele><time>2026-04-09T14:28:19.423Z</time></trkpt><trkpt lat="45.8644164" lon="11.7644438"><ele>1292.0</ele><time>2026-04-09T14:28:20.423Z</time></trkpt><trkpt lat="45.8643535" lon="11.7645387"><ele>1292.0</ele><time>2026-04-09T14:28:21.422Z</time></trkpt><trkpt lat="45.8642652" lon="11.764609"><ele>1292.0</ele><time>2026-04-09T14:28:22.426Z</time></trkpt><trkpt lat="45.8641752" lon="11.764641"><ele>1292.0</ele><time>2026-04-09T14:28:23.421Z</time></trkpt><trkpt lat="45.8640859" lon="11.764611"><ele>1292.0</ele><time>2026-04-09T14:28:24.427Z</time></trkpt><trkpt lat="45.8639956" lon="11.7645799"><ele>1290.0</ele><time>2026-04-09T14:28:25.423Z</time></trkpt><trkpt lat="45.8639127" lon="11.7645117"><ele>1288.0</ele><time>2026-04-09T14:28:26.426Z</time></trkpt><trkpt lat="45.8637948" lon="11.7645064"><ele>1286.0</ele><time>2026-04-09T14:28:27.422Z</time></trkpt><trkpt lat="45.8636526" lon="11.7645411"><ele>1284.0</ele><time>2026-04-09T14:28:28.424Z</time></trkpt><trkpt lat="45.8635123" lon="11.7646023"><ele>1286.25</ele><time>2026-04-09T14:28:29.422Z</time></trkpt><trkpt lat="45.8633853" lon="11.764694"><ele>1288.5</ele><time>2026-04-09T14:28:30.428Z</time></trkpt><trkpt lat="45.8632808" lon="11.7648014"><ele>1290.75</ele><time>2026-04-09T14:28:31.425Z</time></trkpt><trkpt lat="45.863184" lon="11.7648789"><ele>1293.0</ele><time>2026-04-09T14:28:32.424Z</time></trkpt><trkpt lat="45.86309" lon="11.7648995"><ele>1293.0</ele><time>2026-04-09T14:28:33.422Z</time></trkpt><trkpt lat="45.8630042" lon="11.764913"><ele>1293.0</ele><time>2026-04-09T14:28:34.425Z</time></trkpt><trkpt lat="45.8629319" lon="11.7648131"><ele>1293.0</ele><time>2026-04-09T14:28:35.428Z</time></trkpt><trkpt lat="45.8628721" lon="11.7646827"><ele>1293.0</ele><time>2026-04-09T14:28:36.422Z</time></trkpt><trkpt lat="45.8628115" lon="11.7645915"><ele>1293.0</ele><time>2026-04-09T14:28:37.424Z</time></trkpt><trkpt lat="45.8627355" lon="11.7645404"><ele>1293.0</ele><time>2026-04-09T14:28:38.423Z</time></trkpt><trkpt lat="45.8626398" lon="11.7645413"><ele>1293.0</ele><time>2026-04-09T14:28:39.42Z</time></trkpt><trkpt lat="45.8625303" lon="11.764593"><ele>1293.0</ele><time>2026-04-09T14:28:40.427Z</time></trkpt><trkpt lat="45.8624148" lon="11.7646898"><ele>1293.0</ele><time>2026-04-09T14:28:41.434Z</time></trkpt><trkpt lat="45.8622941" lon="11.7648231"><ele>1293.25</ele><time>2026-04-09T14:28:42.425Z</time></trkpt><trkpt lat="45.8621694" lon="11.7649677"><ele>1293.5</ele><time>2026-04-09T14:28:43.478Z</time></trkpt><trkpt lat="45.8620471" lon="11.7650962"><ele>1293.75</ele><time>2026-04-09T14:28:44.421Z</time></trkpt><trkpt lat="45.8619345" lon="11.7652062"><ele>1294.0</ele><time>2026-04-09T14:28:45.427Z</time></trkpt><trkpt lat="45.8618377" lon="11.7653084"><ele>1295.5</ele><time>2026-04-09T14:28:46.434Z</time></trkpt><trkpt lat="45.8617573" lon="11.7654293"><ele>1297.0</ele><time>2026-04-09T14:28:47.449Z</time></trkpt><trkpt lat="45.8616942" lon="11.7655896"><ele>1298.5</ele><time>2026-04-09T14:28:48.427Z</time></trkpt><trkpt lat="45.8616412" lon="11.7657812"><ele>1300.0</ele><time>2026-04-09T14:28:49.44Z</time></trkpt><trkpt lat="45.8615797" lon="11.7659876"><ele>1302.75</ele><time>2026-04-09T14:28:50.434Z</time></trkpt><trkpt lat="45.8615034" lon="11.7661835"><ele>1305.5</ele><time>2026-04-09T14:28:51.426Z</time></trkpt><trkpt lat="45.8614233" lon="11.7663473"><ele>1308.25</ele><time>2026-04-09T14:28:52.438Z</time></trkpt><trkpt lat="45.8613573" lon="11.7664879"><ele>1311.0</ele><time>2026-04-09T14:28:53.435Z</time></trkpt><trkpt lat="45.8613158" lon="11.76663"><ele>1311.0</ele><time>2026-04-09T14:28:54.426Z</time></trkpt><trkpt lat="45.8612954" lon="11.7667867"><ele>1311.0</ele><time>2026-04-09T14:28:55.424Z</time></trkpt><trkpt lat="45.8612989" lon="11.7669377"><ele>1311.0</ele><time>2026-04-09T14:28:56.44Z</time></trkpt><trkpt lat="45.8613388" lon="11.767072"><ele>1311.0</ele><time>2026-04-09T14:28:57.428Z</time></trkpt><trkpt lat="45.8614186" lon="11.7671761"><ele>1311.0</ele><time>2026-04-09T14:28:58.431Z</time></trkpt><trkpt lat="45.8615241" lon="11.7672585"><ele>1310.0</ele><time>2026-04-09T14:28:59.446Z</time></trkpt><trkpt lat="45.8616473" lon="11.7673263"><ele>1309.0</ele><time>2026-04-09T14:29:00.428Z</time></trkpt><trkpt lat="45.8617785" lon="11.7673732"><ele>1308.0</ele><time>2026-04-09T14:29:01.429Z</time></trkpt><trkpt lat="45.8618974" lon="11.7674"><ele>1307.0</ele><time>2026-04-09T14:29:02.431Z</time></trkpt><trkpt lat="45.8619969" lon="11.7674336"><ele>1311.0</ele><time>2026-04-09T14:29:03.427Z</time></trkpt><trkpt lat="45.862069" lon="11.7674922"><ele>1315.0</ele><time>2026-04-09T14:29:04.44Z</time></trkpt><trkpt lat="45.8621012" lon="11.7675801"><ele>1319.0</ele><time>2026-04-09T14:29:05.445Z</time></trkpt><trkpt lat="45.8620984" lon="11.7676901"><ele>1323.0</ele><time>2026-04-09T14:29:06.422Z</time></trkpt><trkpt lat="45.8620848" lon="11.7678189"><ele>1327.0</ele><time>2026-04-09T14:29:07.432Z</time></trkpt><trkpt lat="45.862078" lon="11.7679601"><ele>1331.0</ele><time>2026-04-09T14:29:08.436Z</time></trkpt><trkpt lat="45.8620911" lon="11.7680995"><ele>1331.0</ele><time>2026-04-09T14:29:09.428Z</time></trkpt><trkpt lat="45.8621355" lon="11.7682334"><ele>1331.0</ele><time>2026-04-09T14:29:10.431Z</time></trkpt><trkpt lat="45.8622072" lon="11.7683492"><ele>1331.0</ele><time>2026-04-09T14:29:11.43Z</time></trkpt><trkpt lat="45.862274" lon="11.7684408"><ele>1331.0</ele><time>2026-04-09T14:29:12.434Z</time></trkpt><trkpt lat="45.8623295" lon="11.7685216"><ele>1331.0</ele><time>2026-04-09T14:29:13.431Z</time></trkpt><trkpt lat="45.8623185" lon="11.7686416"><ele>1333.1999999999998</ele><time>2026-04-09T14:29:14.444Z</time></trkpt><trkpt lat="45.862254" lon="11.7687431"><ele>1335.3999999999999</ele><time>2026-04-09T14:29:15.424Z</time></trkpt><trkpt lat="45.8621637" lon="11.7688234"><ele>1337.6</ele><time>2026-04-09T14:29:16.433Z</time></trkpt><trkpt lat="45.8620658" lon="11.7689143"><ele>1339.8</ele><time>2026-04-09T14:29:17.433Z</time></trkpt><trkpt lat="45.8619731" lon="11.7690095"><ele>1342.0</ele><time>2026-04-09T14:29:18.423Z</time></trkpt><trkpt lat="45.8619164" lon="11.7691199"><ele>1342.0</ele><time>2026-04-09T14:29:19.429Z</time></trkpt><trkpt lat="45.861898" lon="11.7692673"><ele>1342.0</ele><time>2026-04-09T14:29:20.427Z</time></trkpt><trkpt lat="45.8619182" lon="11.7694406"><ele>1342.0</ele><time>2026-04-09T14:29:21.425Z</time></trkpt><trkpt lat="45.8619615" lon="11.7696322"><ele>1342.0</ele><time>2026-04-09T14:29:22.424Z</time></trkpt><trkpt lat="45.8620043" lon="11.7697993"><ele>1345.0</ele><time>2026-04-09T14:29:23.428Z</time></trkpt><trkpt lat="45.8620229" lon="11.7699525"><ele>1348.0</ele><time>2026-04-09T14:29:24.417Z</time></trkpt><trkpt lat="45.8619992" lon="11.7701021"><ele>1351.0</ele><time>2026-04-09T14:29:25.436Z</time></trkpt><trkpt lat="45.8619318" lon="11.7702345"><ele>1354.0</ele><time>2026-04-09T14:29:26.424Z</time></trkpt><trkpt lat="45.8618473" lon="11.7703764"><ele>1351.0</ele><time>2026-04-09T14:29:27.432Z</time></trkpt><trkpt lat="45.8617732" lon="11.7705614"><ele>1348.0</ele><time>2026-04-09T14:29:28.432Z</time></trkpt><trkpt lat="45.8617077" lon="11.7707643"><ele>1345.0</ele><time>2026-04-09T14:29:29.436Z</time></trkpt><trkpt lat="45.8616533" lon="11.7709552"><ele>1342.0</ele><time>2026-04-09T14:29:30.436Z</time></trkpt><trkpt lat="45.8616079" lon="11.7711342"><ele>1342.0</ele><time>2026-04-09T14:29:31.423Z</time></trkpt><trkpt lat="45.8616104" lon="11.7713388"><ele>1342.0</ele><time>2026-04-09T14:29:32.425Z</time></trkpt><trkpt lat="45.8616143" lon="11.7715453"><ele>1342.0</ele><time>2026-04-09T14:29:33.438Z</time></trkpt><trkpt lat="45.8615827" lon="11.7717341"><ele>1342.0</ele><time>2026-04-09T14:29:34.43Z</time></trkpt><trkpt lat="45.8615472" lon="11.7718943"><ele>1343.75</ele><time>2026-04-09T14:29:35.43Z</time></trkpt><trkpt lat="45.8614962" lon="11.7720372"><ele>1345.5</ele><time>2026-04-09T14:29:36.437Z</time></trkpt><trkpt lat="45.8614803" lon="11.7722002"><ele>1347.25</ele><time>2026-04-09T14:29:37.429Z</time></trkpt><trkpt lat="45.8614795" lon="11.7723941"><ele>1349.0</ele><time>2026-04-09T14:29:38.432Z</time></trkpt><trkpt lat="45.8615007" lon="11.7726053"><ele>1350.0</ele><time>2026-04-09T14:29:39.426Z</time></trkpt><trkpt lat="45.8615417" lon="11.7728277"><ele>1351.0</ele><time>2026-04-09T14:29:40.429Z</time></trkpt><trkpt lat="45.8616084" lon="11.7730705"><ele>1352.0</ele><time>2026-04-09T14:29:41.423Z</time></trkpt><trkpt lat="45.8616746" lon="11.7733046"><ele>1352.0</ele><time>2026-04-09T14:29:42.434Z</time></trkpt><trkpt lat="45.8617363" lon="11.7735175"><ele>1352.0</ele><time>2026-04-09T14:29:43.425Z</time></trkpt><trkpt lat="45.8617892" lon="11.7737245"><ele>1352.0</ele><time>2026-04-09T14:29:44.423Z</time></trkpt><trkpt lat="45.8617826" lon="11.7739327"><ele>1352.6666666666667</ele><time>2026-04-09T14:29:45.429Z</time></trkpt><trkpt lat="45.8617591" lon="11.7741558"><ele>1353.3333333333333</ele><time>2026-04-09T14:29:46.444Z</time></trkpt><trkpt lat="45.8617324" lon="11.7743793"><ele>1354.0</ele><time>2026-04-09T14:29:47.432Z</time></trkpt><trkpt lat="45.8617087" lon="11.7745828"><ele>1355.0</ele><time>2026-04-09T14:29:48.444Z</time></trkpt><trkpt lat="45.8616896" lon="11.7747715"><ele>1356.0</ele><time>2026-04-09T14:29:49.44Z</time></trkpt><trkpt lat="45.8617134" lon="11.7749637"><ele>1357.0</ele><time>2026-04-09T14:29:50.429Z</time></trkpt><trkpt lat="45.8617691" lon="11.7751735"><ele>1358.0</ele><time>2026-04-09T14:29:51.43Z</time></trkpt><trkpt lat="45.8618281" lon="11.7753856"><ele>1361.0</ele><time>2026-04-09T14:29:52.433Z</time></trkpt><trkpt lat="45.8618813" lon="11.7755718"><ele>1364.0</ele><time>2026-04-09T14:29:53.427Z</time></trkpt><trkpt lat="45.8619335" lon="11.7757449"><ele>1367.0</ele><time>2026-04-09T14:29:54.45Z</time></trkpt><trkpt lat="45.8620081" lon="11.775912"><ele>1370.0</ele><time>2026-04-09T14:29:55.435Z</time></trkpt><trkpt lat="45.8620938" lon="11.7760839"><ele>1370.0</ele><time>2026-04-09T14:29:56.423Z</time></trkpt><trkpt lat="45.8622247" lon="11.776239"><ele>1370.0</ele><time>2026-04-09T14:29:57.431Z</time></trkpt><trkpt lat="45.8623662" lon="11.776407"><ele>1370.0</ele><time>2026-04-09T14:29:58.421Z</time></trkpt><trkpt lat="45.8625061" lon="11.7765816"><ele>1372.5</ele><time>2026-04-09T14:29:59.421Z</time></trkpt><trkpt lat="45.8626343" lon="11.7767426"><ele>1375.0</ele><time>2026-04-09T14:30:00.437Z</time></trkpt><trkpt lat="45.862737" lon="11.776884"><ele>1377.5</ele><time>2026-04-09T14:30:01.434Z</time></trkpt><trkpt lat="45.8628325" lon="11.7770023"><ele>1380.0</ele><time>2026-04-09T14:30:02.424Z</time></trkpt><trkpt lat="45.8629461" lon="11.7770901"><ele>1380.0</ele><time>2026-04-09T14:30:03.424Z</time></trkpt><trkpt lat="45.8630776" lon="11.7771423"><ele>1380.0</ele><time>2026-04-09T14:30:04.437Z</time></trkpt><trkpt lat="45.8632053" lon="11.7771802"><ele>1380.0</ele><time>2026-04-09T14:30:05.439Z</time></trkpt><trkpt lat="45.8633265" lon="11.777214"><ele>1380.0</ele><time>2026-04-09T14:30:06.425Z</time></trkpt><trkpt lat="45.863402" lon="11.7773345"><ele>1380.6</ele><time>2026-04-09T14:30:07.434Z</time></trkpt><trkpt lat="45.8634612" lon="11.7774627"><ele>1381.2</ele><time>2026-04-09T14:30:08.435Z</time></trkpt><trkpt lat="45.8635021" lon="11.7776081"><ele>1381.8000000000002</ele><time>2026-04-09T14:30:09.428Z</time></trkpt><trkpt lat="45.8635923" lon="11.7777075"><ele>1382.4</ele><time>2026-04-09T14:30:10.434Z</time></trkpt><trkpt lat="45.8636947" lon="11.7777837"><ele>1383.0</ele><time>2026-04-09T14:30:11.431Z</time></trkpt><trkpt lat="45.8638154" lon="11.777799"><ele>1383.0</ele><time>2026-04-09T14:30:12.428Z</time></trkpt><trkpt lat="45.8639453" lon="11.7777672"><ele>1383.0</ele><time>2026-04-09T14:30:13.434Z</time></trkpt><trkpt lat="45.8640841" lon="11.7777007"><ele>1383.0</ele><time>2026-04-09T14:30:14.436Z</time></trkpt><trkpt lat="45.8642285" lon="11.77759"><ele>1383.0</ele><time>2026-04-09T14:30:15.441Z</time></trkpt><trkpt lat="45.8643614" lon="11.7774349"><ele>1384.6666666666667</ele><time>2026-04-09T14:30:16.436Z</time></trkpt><trkpt lat="45.864493" lon="11.7772431"><ele>1386.3333333333335</ele><time>2026-04-09T14:30:17.43Z</time></trkpt><trkpt lat="45.8646268" lon="11.7770316"><ele>1388.0</ele><time>2026-04-09T14:30:18.436Z</time></trkpt><trkpt lat="45.8647646" lon="11.7768163"><ele>1391.6666666666667</ele><time>2026-04-09T14:30:19.433Z</time></trkpt><trkpt lat="45.8649086" lon="11.7766106"><ele>1395.3333333333333</ele><time>2026-04-09T14:30:20.424Z</time></trkpt><trkpt lat="45.8650586" lon="11.7764058"><ele>1399.0</ele><time>2026-04-09T14:30:21.441Z</time></trkpt><trkpt lat="45.8652131" lon="11.776205"><ele>1400.3333333333333</ele><time>2026-04-09T14:30:22.43Z</time></trkpt><trkpt lat="45.865371" lon="11.7759886"><ele>1401.6666666666667</ele><time>2026-04-09T14:30:23.452Z</time></trkpt><trkpt lat="45.8655198" lon="11.7757518"><ele>1403.0</ele><time>2026-04-09T14:30:24.429Z</time></trkpt><trkpt lat="45.8656568" lon="11.7755207"><ele>1403.0</ele><time>2026-04-09T14:30:25.428Z</time></trkpt><trkpt lat="45.8657883" lon="11.775298"><ele>1403.0</ele><time>2026-04-09T14:30:26.432Z</time></trkpt><trkpt lat="45.865911" lon="11.7750961"><ele>1403.0</ele><time>2026-04-09T14:30:27.427Z</time></trkpt><trkpt lat="45.866016" lon="11.7749086"><ele>1406.75</ele><time>2026-04-09T14:30:28.425Z</time></trkpt><trkpt lat="45.8661045" lon="11.7747225"><ele>1410.5</ele><time>2026-04-09T14:30:29.424Z</time></trkpt><trkpt lat="45.866179" lon="11.7745381"><ele>1414.25</ele><time>2026-04-09T14:30:30.421Z</time></trkpt><trkpt lat="45.8662364" lon="11.7743726"><ele>1418.0</ele><time>2026-04-09T14:30:31.429Z</time></trkpt><trkpt lat="45.8662802" lon="11.7742295"><ele>1420.0</ele><time>2026-04-09T14:30:32.424Z</time></trkpt><trkpt lat="45.8663239" lon="11.7741083"><ele>1422.0</ele><time>2026-04-09T14:30:33.43Z</time></trkpt><trkpt lat="45.8663734" lon="11.7740237"><ele>1424.0</ele><time>2026-04-09T14:30:34.429Z</time></trkpt><trkpt lat="45.8664429" lon="11.773994"><ele>1426.0</ele><time>2026-04-09T14:30:35.421Z</time></trkpt><trkpt lat="45.8665184" lon="11.7740202"><ele>1428.0</ele><time>2026-04-09T14:30:36.43Z</time></trkpt><trkpt lat="45.8665958" lon="11.7740938"><ele>1430.0</ele><time>2026-04-09T14:30:37.428Z</time></trkpt><trkpt lat="45.8666787" lon="11.7741972"><ele>1430.0</ele><time>2026-04-09T14:30:38.425Z</time></trkpt><trkpt lat="45.8667614" lon="11.7743419"><ele>1430.0</ele><time>2026-04-09T14:30:39.43Z</time></trkpt><trkpt lat="45.8668349" lon="11.7745207"><ele>1430.0</ele><time>2026-04-09T14:30:40.43Z</time></trkpt><trkpt lat="45.8668966" lon="11.7747269"><ele>1430.0</ele><time>2026-04-09T14:30:41.417Z</time></trkpt><trkpt lat="45.8669363" lon="11.7749631"><ele>1439.0</ele><time>2026-04-09T14:30:42.434Z</time></trkpt><trkpt lat="45.8669479" lon="11.7752274"><ele>1448.0</ele><time>2026-04-09T14:30:43.432Z</time></trkpt><trkpt lat="45.8669448" lon="11.7755072"><ele>1457.0</ele><time>2026-04-09T14:30:44.421Z</time></trkpt><trkpt lat="45.8669384" lon="11.7757911"><ele>1458.3333333333335</ele><time>2026-04-09T14:30:45.425Z</time></trkpt><trkpt lat="45.8669263" lon="11.7760675"><ele>1459.6666666666667</ele><time>2026-04-09T14:30:46.434Z</time></trkpt><trkpt lat="45.8668931" lon="11.7763367"><ele>1461.0</ele><time>2026-04-09T14:30:47.434Z</time></trkpt><trkpt lat="45.8668364" lon="11.7765954"><ele>1465.0</ele><time>2026-04-09T14:30:48.435Z</time></trkpt><trkpt lat="45.8667842" lon="11.776853"><ele>1469.0</ele><time>2026-04-09T14:30:49.445Z</time></trkpt><trkpt lat="45.8667492" lon="11.7771147"><ele>1473.0</ele><time>2026-04-09T14:30:50.437Z</time></trkpt><trkpt lat="45.866713" lon="11.7773747"><ele>1464.0</ele><time>2026-04-09T14:30:51.424Z</time></trkpt><trkpt lat="45.8666635" lon="11.7776066"><ele>1455.0</ele><time>2026-04-09T14:30:52.423Z</time></trkpt><trkpt lat="45.8666105" lon="11.7778211"><ele>1446.0</ele><time>2026-04-09T14:30:53.426Z</time></trkpt><trkpt lat="45.8665664" lon="11.7780387"><ele>1446.0</ele><time>2026-04-09T14:30:54.432Z</time></trkpt><trkpt lat="45.8665412" lon="11.7782752"><ele>1446.0</ele><time>2026-04-09T14:30:55.425Z</time></trkpt><trkpt lat="45.8665328" lon="11.7785375"><ele>1446.0</ele><time>2026-04-09T14:30:56.427Z</time></trkpt><trkpt lat="45.8665314" lon="11.7787983"><ele>1448.0</ele><time>2026-04-09T14:30:57.425Z</time></trkpt><trkpt lat="45.8665288" lon="11.7790295"><ele>1450.0</ele><time>2026-04-09T14:30:58.432Z</time></trkpt><trkpt lat="45.8665153" lon="11.7792276"><ele>1452.0</ele><time>2026-04-09T14:30:59.433Z</time></trkpt><trkpt lat="45.8664891" lon="11.7793963"><ele>1454.0</ele><time>2026-04-09T14:31:00.424Z</time></trkpt><trkpt lat="45.8664543" lon="11.7795556"><ele>1455.8000000000002</ele><time>2026-04-09T14:31:01.439Z</time></trkpt><trkpt lat="45.8663985" lon="11.7796882"><ele>1457.6000000000001</ele><time>2026-04-09T14:31:02.436Z</time></trkpt><trkpt lat="45.8663675" lon="11.7798335"><ele>1459.4</ele><time>2026-04-09T14:31:03.428Z</time></trkpt><trkpt lat="45.8663619" lon="11.7799928"><ele>1461.2</ele><time>2026-04-09T14:31:04.445Z</time></trkpt><trkpt lat="45.8663701" lon="11.7801661"><ele>1463.0</ele><time>2026-04-09T14:31:05.437Z</time></trkpt><trkpt lat="45.8663905" lon="11.7803559"><ele>1463.5</ele><time>2026-04-09T14:31:06.424Z</time></trkpt><trkpt lat="45.8664051" lon="11.7805536"><ele>1464.0</ele><time>2026-04-09T14:31:07.429Z</time></trkpt><trkpt lat="45.8664345" lon="11.7807638"><ele>1464.5</ele><time>2026-04-09T14:31:08.428Z</time></trkpt><trkpt lat="45.8664778" lon="11.7809628"><ele>1465.0</ele><time>2026-04-09T14:31:09.426Z</time></trkpt><trkpt lat="45.8665284" lon="11.7811373"><ele>1465.0</ele><time>2026-04-09T14:31:10.427Z</time></trkpt><trkpt lat="45.8665711" lon="11.78129"><ele>1465.0</ele><time>2026-04-09T14:31:11.441Z</time></trkpt><trkpt lat="45.8666102" lon="11.7814425"><ele>1465.0</ele><time>2026-04-09T14:31:12.424Z</time></trkpt><trkpt lat="45.8665901" lon="11.7816183"><ele>1465.0</ele><time>2026-04-09T14:31:13.445Z</time></trkpt><trkpt lat="45.866548" lon="11.7817793"><ele>1463.75</ele><time>2026-04-09T14:31:14.442Z</time></trkpt><trkpt lat="45.8665252" lon="11.7819377"><ele>1462.5</ele><time>2026-04-09T14:31:15.423Z</time></trkpt><trkpt lat="45.8665326" lon="11.7820916"><ele>1461.25</ele><time>2026-04-09T14:31:16.431Z</time></trkpt><trkpt lat="45.8665645" lon="11.7822572"><ele>1460.0</ele><time>2026-04-09T14:31:17.426Z</time></trkpt><trkpt lat="45.8666236" lon="11.7824141"><ele>1460.0</ele><time>2026-04-09T14:31:18.431Z</time></trkpt><trkpt lat="45.8667176" lon="11.7825501"><ele>1460.0</ele><time>2026-04-09T14:31:19.423Z</time></trkpt><trkpt lat="45.8668359" lon="11.782673"><ele>1460.0</ele><time>2026-04-09T14:31:20.423Z</time></trkpt><trkpt lat="45.8669668" lon="11.7828022"><ele>1460.0</ele><time>2026-04-09T14:31:21.423Z</time></trkpt><trkpt lat="45.8671078" lon="11.7829518"><ele>1465.0</ele><time>2026-04-09T14:31:22.426Z</time></trkpt><trkpt lat="45.8672504" lon="11.7831074"><ele>1470.0</ele><time>2026-04-09T14:31:23.432Z</time></trkpt><trkpt lat="45.8673797" lon="11.7832442"><ele>1475.0</ele><time>2026-04-09T14:31:24.429Z</time></trkpt><trkpt lat="45.8674956" lon="11.7833726"><ele>1475.0</ele><time>2026-04-09T14:31:25.422Z</time></trkpt><trkpt lat="45.8675982" lon="11.7834928"><ele>1475.0</ele><time>2026-04-09T14:31:26.425Z</time></trkpt><trkpt lat="45.86768" lon="11.7835881"><ele>1475.0</ele><time>2026-04-09T14:31:27.423Z</time></trkpt><trkpt lat="45.8677482" lon="11.7836771"><ele>1475.0</ele><time>2026-04-09T14:31:28.426Z</time></trkpt><trkpt lat="45.8678021" lon="11.7837707"><ele>1475.0</ele><time>2026-04-09T14:31:29.419Z</time></trkpt><trkpt lat="45.8678096" lon="11.783887"><ele>1475.3333333333335</ele><time>2026-04-09T14:31:30.427Z</time></trkpt><trkpt lat="45.8677699" lon="11.7839958"><ele>1475.6666666666667</ele><time>2026-04-09T14:31:31.423Z</time></trkpt><trkpt lat="45.8677095" lon="11.7840947"><ele>1476.0</ele><time>2026-04-09T14:31:32.423Z</time></trkpt><trkpt lat="45.8676422" lon="11.7841868"><ele>1476.3333333333333</ele><time>2026-04-09T14:31:33.427Z</time></trkpt><trkpt lat="45.8675781" lon="11.784272"><ele>1476.6666666666665</ele><time>2026-04-09T14:31:34.421Z</time></trkpt><trkpt lat="45.8675282" lon="11.7843681"><ele>1477.0</ele><time>2026-04-09T14:31:35.423Z</time></trkpt><trkpt lat="45.8675059" lon="11.7844776"><ele>1478.6</ele><time>2026-04-09T14:31:36.426Z</time></trkpt><trkpt lat="45.8675027" lon="11.7845959"><ele>1480.1999999999998</ele><time>2026-04-09T14:31:37.422Z</time></trkpt><trkpt lat="45.8675095" lon="11.7847296"><ele>1481.8</ele><time>2026-04-09T14:31:38.431Z</time></trkpt><trkpt lat="45.8675156" lon="11.7848778"><ele>1483.4</ele><time>2026-04-09T14:31:39.429Z</time></trkpt><trkpt lat="45.8675223" lon="11.7850367"><ele>1485.0</ele><time>2026-04-09T14:31:40.437Z</time></trkpt><trkpt lat="45.8675251" lon="11.7852047"><ele>1487.5</ele><time>2026-04-09T14:31:41.461Z</time></trkpt><trkpt lat="45.867525" lon="11.7853669"><ele>1490.0</ele><time>2026-04-09T14:31:42.462Z</time></trkpt><trkpt lat="45.8675205" lon="11.7855353"><ele>1492.5</ele><time>2026-04-09T14:31:43.431Z</time></trkpt><trkpt lat="45.8674666" lon="11.7856825"><ele>1495.0</ele><time>2026-04-09T14:31:44.422Z</time></trkpt><trkpt lat="45.867388" lon="11.7858114"><ele>1495.0</ele><time>2026-04-09T14:31:45.432Z</time></trkpt><trkpt lat="45.8673096" lon="11.7859565"><ele>1495.0</ele><time>2026-04-09T14:31:46.432Z</time></trkpt><trkpt lat="45.8672404" lon="11.7861126"><ele>1495.0</ele><time>2026-04-09T14:31:47.427Z</time></trkpt><trkpt lat="45.8671912" lon="11.7862813"><ele>1495.0</ele><time>2026-04-09T14:31:48.428Z</time></trkpt><trkpt lat="45.8671699" lon="11.7864576"><ele>1494.25</ele><time>2026-04-09T14:31:49.429Z</time></trkpt><trkpt lat="45.8671798" lon="11.7866405"><ele>1493.5</ele><time>2026-04-09T14:31:50.426Z</time></trkpt><trkpt lat="45.8672058" lon="11.7868255"><ele>1492.75</ele><time>2026-04-09T14:31:51.433Z</time></trkpt><trkpt lat="45.8672428" lon="11.786979"><ele>1492.0</ele><time>2026-04-09T14:31:52.431Z</time></trkpt><trkpt lat="45.867296" lon="11.7871195"><ele>1492.0</ele><time>2026-04-09T14:31:53.435Z</time></trkpt><trkpt lat="45.8673562" lon="11.7872191"><ele>1492.0</ele><time>2026-04-09T14:31:54.465Z</time></trkpt><trkpt lat="45.8674466" lon="11.7872881"><ele>1492.0</ele><time>2026-04-09T14:31:55.427Z</time></trkpt><trkpt lat="45.8675625" lon="11.7873299"><ele>1492.0</ele><time>2026-04-09T14:31:56.427Z</time></trkpt><trkpt lat="45.8677045" lon="11.7873498"><ele>1496.0</ele><time>2026-04-09T14:31:57.426Z</time></trkpt><trkpt lat="45.867862" lon="11.7873671"><ele>1500.0</ele><time>2026-04-09T14:31:58.428Z</time></trkpt><trkpt lat="45.8680267" lon="11.7873788"><ele>1504.0</ele><time>2026-04-09T14:31:59.431Z</time></trkpt><trkpt lat="45.8681787" lon="11.7873891"><ele>1504.0</ele><time>2026-04-09T14:32:00.427Z</time></trkpt><trkpt lat="45.8683062" lon="11.7874025"><ele>1504.0</ele><time>2026-04-09T14:32:01.426Z</time></trkpt><trkpt lat="45.868418" lon="11.7874401"><ele>1504.0</ele><time>2026-04-09T14:32:02.428Z</time></trkpt><trkpt lat="45.8685171" lon="11.7875249"><ele>1504.0</ele><time>2026-04-09T14:32:03.425Z</time></trkpt><trkpt lat="45.8686068" lon="11.7876445"><ele>1509.25</ele><time>2026-04-09T14:32:04.422Z</time></trkpt><trkpt lat="45.8686962" lon="11.7877711"><ele>1514.5</ele><time>2026-04-09T14:32:05.437Z</time></trkpt><trkpt lat="45.8687928" lon="11.7878979"><ele>1519.75</ele><time>2026-04-09T14:32:06.43Z</time></trkpt><trkpt lat="45.8688821" lon="11.7880183"><ele>1525.0</ele><time>2026-04-09T14:32:07.429Z</time></trkpt><trkpt lat="45.868955" lon="11.7881277"><ele>1525.0</ele><time>2026-04-09T14:32:08.424Z</time></trkpt><trkpt lat="45.869011" lon="11.7882363"><ele>1525.0</ele><time>2026-04-09T14:32:09.428Z</time></trkpt><trkpt lat="45.8690392" lon="11.7883558"><ele>1525.0</ele><time>2026-04-09T14:32:10.447Z</time></trkpt><trkpt lat="45.8690292" lon="11.7884863"><ele>1525.0</ele><time>2026-04-09T14:32:11.431Z</time></trkpt><trkpt lat="45.8690068" lon="11.7886184"><ele>1525.0</ele><time>2026-04-09T14:32:12.423Z</time></trkpt><trkpt lat="45.8689233" lon="11.788685"><ele>1526.6</ele><time>2026-04-09T14:32:13.425Z</time></trkpt><trkpt lat="45.8688229" lon="11.7887298"><ele>1528.2</ele><time>2026-04-09T14:32:14.436Z</time></trkpt><trkpt lat="45.8687145" lon="11.7887154"><ele>1529.8000000000002</ele><time>2026-04-09T14:32:15.43Z</time></trkpt><trkpt lat="45.8686128" lon="11.7887123"><ele>1531.4</ele><time>2026-04-09T14:32:16.44Z</time></trkpt><trkpt lat="45.8685384" lon="11.7887358"><ele>1533.0</ele><time>2026-04-09T14:32:17.441Z</time></trkpt><trkpt lat="45.8684708" lon="11.7887697"><ele>1533.0</ele><time>2026-04-09T14:32:18.425Z</time></trkpt><trkpt lat="45.8684553" lon="11.7889375"><ele>1533.0</ele><time>2026-04-09T14:32:20.44Z</time></trkpt><trkpt lat="45.8684862" lon="11.7890365"><ele>1533.0</ele><time>2026-04-09T14:32:21.438Z</time></trkpt><trkpt lat="45.8685691" lon="11.7890612"><ele>1533.0</ele><time>2026-04-09T14:32:22.43Z</time></trkpt><trkpt lat="45.8686593" lon="11.7890359"><ele>1533.0</ele><time>2026-04-09T14:32:23.434Z</time></trkpt><trkpt lat="45.8687591" lon="11.7889982"><ele>1533.0</ele><time>2026-04-09T14:32:24.441Z</time></trkpt><trkpt lat="45.8688667" lon="11.7889714"><ele>1533.0</ele><time>2026-04-09T14:32:25.434Z</time></trkpt><trkpt lat="45.8689886" lon="11.7889704"><ele>1533.0</ele><time>2026-04-09T14:32:26.433Z</time></trkpt><trkpt lat="45.8690939" lon="11.7889562"><ele>1533.0</ele><time>2026-04-09T14:32:27.438Z</time></trkpt><trkpt lat="45.8691804" lon="11.78891"><ele>1533.0</ele><time>2026-04-09T14:32:28.444Z</time></trkpt><trkpt lat="45.8692522" lon="11.7888172"><ele>1541.75</ele><time>2026-04-09T14:32:29.427Z</time></trkpt><trkpt lat="45.8692974" lon="11.7886737"><ele>1550.5</ele><time>2026-04-09T14:32:30.432Z</time></trkpt><trkpt lat="45.8693178" lon="11.788483"><ele>1559.25</ele><time>2026-04-09T14:32:31.432Z</time></trkpt><trkpt lat="45.8693297" lon="11.7882534"><ele>1568.0</ele><time>2026-04-09T14:32:32.441Z</time></trkpt><trkpt lat="45.8693425" lon="11.788033"><ele>1568.0</ele><time>2026-04-09T14:32:33.433Z</time></trkpt><trkpt lat="45.8693577" lon="11.7878538"><ele>1568.0</ele><time>2026-04-09T14:32:34.434Z</time></trkpt><trkpt lat="45.8693824" lon="11.787709"><ele>1568.0</ele><time>2026-04-09T14:32:35.433Z</time></trkpt><trkpt lat="45.8694243" lon="11.7875762"><ele>1568.0</ele><time>2026-04-09T14:32:36.424Z</time></trkpt><trkpt lat="45.8694796" lon="11.787455"><ele>1568.0</ele><time>2026-04-09T14:32:37.438Z</time></trkpt><trkpt lat="45.8695111" lon="11.7873263"><ele>1566.0</ele><time>2026-04-09T14:32:38.432Z</time></trkpt><trkpt lat="45.8695031" lon="11.7871734"><ele>1564.0</ele><time>2026-04-09T14:32:39.42Z</time></trkpt><trkpt lat="45.869468" lon="11.7869955"><ele>1562.0</ele><time>2026-04-09T14:32:40.431Z</time></trkpt><trkpt lat="45.8690392" lon="11.7883558"><ele>1556.1999999999998</ele><time>2026-04-09T14:32:10.447Z</time></trkpt><trkpt lat="45.8690292" lon="11.7884863"><ele>1550.4</ele><time>2026-04-09T14:32:11.431Z</time></trkpt><trkpt lat="45.8690068" lon="11.7886184"><ele>1544.6</ele><time>2026-04-09T14:32:12.423Z</time></trkpt><trkpt lat="45.8689233" lon="11.788685"><ele>1538.8000000000002</ele><time>2026-04-09T14:32:13.425Z</time></trkpt><trkpt lat="45.8688229" lon="11.7887298"><ele>1533.0</ele><time>2026-04-09T14:32:14.436Z</time></trkpt><trkpt lat="45.8687145" lon="11.7887154"><ele>1533.0</ele><time>2026-04-09T14:32:15.43Z</time></trkpt><trkpt lat="45.8686128" lon="11.7887123"><ele>1533.0</ele><time>2026-04-09T14:32:16.44Z</time></trkpt><trkpt lat="45.8685384" lon="11.7887358"><ele>1533.0</ele><time>2026-04-09T14:32:17.441Z</time></trkpt><trkpt lat="45.8684708" lon="11.7887697"><ele>1533.0</ele><time>2026-04-09T14:32:18.425Z</time></trkpt><trkpt lat="45.8684553" lon="11.7889375"><ele>1533.0</ele><time>2026-04-09T14:32:20.44Z</time></trkpt><trkpt lat="45.8684862" lon="11.7890365"><ele>1533.0</ele><time>2026-04-09T14:32:21.438Z</time></trkpt><trkpt lat="45.8685691" lon="11.7890612"><ele>1533.0</ele><time>2026-04-09T14:32:22.43Z</time></trkpt><trkpt lat="45.8686593" lon="11.7890359"><ele>1533.0</ele><time>2026-04-09T14:32:23.434Z</time></trkpt><trkpt lat="45.8687591" lon="11.7889982"><ele>1533.0</ele><time>2026-04-09T14:32:24.441Z</time></trkpt><trkpt lat="45.8688667" lon="11.7889714"><ele>1533.0</ele><time>2026-04-09T14:32:25.434Z</time></trkpt><trkpt lat="45.8689886" lon="11.7889704"><ele>1533.0</ele><time>2026-04-09T14:32:26.433Z</time></trkpt><trkpt lat="45.8690939" lon="11.7889562"><ele>1533.0</ele><time>2026-04-09T14:32:27.438Z</time></trkpt><trkpt lat="45.8691804" lon="11.78891"><ele>1533.0</ele><time>2026-04-09T14:32:28.444Z</time></trkpt><trkpt lat="45.8692522" lon="11.7888172"><ele>1533.0</ele><time>2026-04-09T14:32:29.427Z</time></trkpt><trkpt lat="45.8692974" lon="11.7886737"><ele>1533.0</ele><time>2026-04-09T14:32:30.432Z</time></trkpt><trkpt lat="45.8693178" lon="11.788483"><ele>1533.0</ele><time>2026-04-09T14:32:31.432Z</time></trkpt><trkpt lat="45.8693297" lon="11.7882534"><ele>1540.25</ele><time>2026-04-09T14:32:32.441Z</time></trkpt><trkpt lat="45.8693425" lon="11.788033"><ele>1547.5</ele><time>2026-04-09T14:32:33.433Z</time></trkpt><trkpt lat="45.8693577" lon="11.7878538"><ele>1554.75</ele><time>2026-04-09T14:32:34.434Z</time></trkpt><trkpt lat="45.8693824" lon="11.787709"><ele>1562.0</ele><time>2026-04-09T14:32:35.433Z</time></trkpt><trkpt lat="45.8694243" lon="11.7875762"><ele>1562.0</ele><time>2026-04-09T14:32:36.424Z</time></trkpt><trkpt lat="45.8694796" lon="11.787455"><ele>1562.0</ele><time>2026-04-09T14:32:37.438Z</time></trkpt><trkpt lat="45.8695111" lon="11.7873263"><ele>1562.0</ele><time>2026-04-09T14:32:38.432Z</time></trkpt><trkpt lat="45.8695031" lon="11.7871734"><ele>1562.0</ele><time>2026-04-09T14:32:39.42Z</time></trkpt><trkpt lat="45.869468" lon="11.7869955"><ele>1562.0</ele><time>2026-04-09T14:32:40.431Z</time></trkpt><trkpt lat="45.8694361" lon="11.7867946"><ele>1561.6</ele><time>2026-04-09T14:32:41.433Z</time></trkpt><trkpt lat="45.8694118" lon="11.7866051"><ele>1561.1999999999998</ele><time>2026-04-09T14:32:42.428Z</time></trkpt><trkpt lat="45.8693864" lon="11.786443"><ele>1560.8</ele><time>2026-04-09T14:32:43.433Z</time></trkpt><trkpt lat="45.8693572" lon="11.7863085"><ele>1560.4</ele><time>2026-04-09T14:32:44.435Z</time></trkpt><trkpt lat="45.8693307" lon="11.7862027"><ele>1560.0</ele><time>2026-04-09T14:32:45.419Z</time></trkpt><trkpt lat="45.8693093" lon="11.7861103"><ele>1560.0</ele><time>2026-04-09T14:32:46.436Z</time></trkpt><trkpt lat="45.8693432" lon="11.7859567"><ele>1560.0</ele><time>2026-04-09T14:32:48.483Z</time></trkpt><trkpt lat="45.8694543" lon="11.7859447"><ele>1560.0</ele><time>2026-04-09T14:32:50.429Z</time></trkpt><trkpt lat="45.8694905" lon="11.7860463"><ele>1560.0</ele><time>2026-04-09T14:32:51.433Z</time></trkpt><trkpt lat="45.8694883" lon="11.7861689"><ele>1560.0</ele><time>2026-04-09T14:32:52.427Z</time></trkpt><trkpt lat="45.8694907" lon="11.786312"><ele>1560.0</ele><time>2026-04-09T14:32:53.423Z</time></trkpt><trkpt lat="45.8695207" lon="11.7864842"><ele>1560.0</ele><time>2026-04-09T14:32:54.426Z</time></trkpt><trkpt lat="45.8695825" lon="11.7866617"><ele>1560.0</ele><time>2026-04-09T14:32:55.428Z</time></trkpt><trkpt lat="45.8696516" lon="11.7868405"><ele>1560.0</ele><time>2026-04-09T14:32:56.431Z</time></trkpt><trkpt lat="45.8697219" lon="11.7870145"><ele>1560.5</ele><time>2026-04-09T14:32:57.42Z</time></trkpt><trkpt lat="45.8697799" lon="11.7871621"><ele>1561.0</ele><time>2026-04-09T14:32:58.427Z</time></trkpt><trkpt lat="45.8698275" lon="11.7873018"><ele>1561.5</ele><time>2026-04-09T14:32:59.429Z</time></trkpt><trkpt lat="45.8698552" lon="11.7874586"><ele>1562.0</ele><time>2026-04-09T14:33:00.421Z</time></trkpt><trkpt lat="45.8698665" lon="11.7876436"><ele>1563.5</ele><time>2026-04-09T14:33:01.432Z</time></trkpt><trkpt lat="45.8698718" lon="11.787836"><ele>1565.0</ele><time>2026-04-09T14:33:02.431Z</time></trkpt><trkpt lat="45.8698852" lon="11.78804"><ele>1566.5</ele><time>2026-04-09T14:33:03.431Z</time></trkpt><trkpt lat="45.8699011" lon="11.7882536"><ele>1568.0</ele><time>2026-04-09T14:33:04.422Z</time></trkpt><trkpt lat="45.8699183" lon="11.7884821"><ele>1568.6666666666665</ele><time>2026-04-09T14:33:05.434Z</time></trkpt><trkpt lat="45.8699363" lon="11.7887156"><ele>1569.3333333333335</ele><time>2026-04-09T14:33:06.42Z</time></trkpt><trkpt lat="45.8699543" lon="11.7889543"><ele>1570.0</ele><time>2026-04-09T14:33:07.418Z</time></trkpt><trkpt lat="45.8699742" lon="11.7891912"><ele>1570.0</ele><time>2026-04-09T14:33:08.42Z</time></trkpt><trkpt lat="45.8699955" lon="11.7894328"><ele>1570.0</ele><time>2026-04-09T14:33:09.426Z</time></trkpt><trkpt lat="45.8700234" lon="11.7896702"><ele>1570.0</ele><time>2026-04-09T14:33:10.426Z</time></trkpt><trkpt lat="45.870056" lon="11.7899049"><ele>1570.0</ele><time>2026-04-09T14:33:11.488Z</time></trkpt><trkpt lat="45.8700962" lon="11.7901412"><ele>1570.0</ele><time>2026-04-09T14:33:12.426Z</time></trkpt><trkpt lat="45.8701352" lon="11.7903718"><ele>1570.0</ele><time>2026-04-09T14:33:13.42Z</time></trkpt><trkpt lat="45.8701717" lon="11.7905783"><ele>1580.0</ele><time>2026-04-09T14:33:14.422Z</time></trkpt><trkpt lat="45.8702031" lon="11.7907588"><ele>1590.0</ele><time>2026-04-09T14:33:15.42Z</time></trkpt><trkpt lat="45.8702266" lon="11.7909248"><ele>1600.0</ele><time>2026-04-09T14:33:16.425Z</time></trkpt><trkpt lat="45.8702407" lon="11.7910766"><ele>1610.0</ele><time>2026-04-09T14:33:17.425Z</time></trkpt><trkpt lat="45.8702442" lon="11.7912197"><ele>1610.6</ele><time>2026-04-09T14:33:18.421Z</time></trkpt><trkpt lat="45.8702002" lon="11.7913448"><ele>1611.2</ele><time>2026-04-09T14:33:19.421Z</time></trkpt><trkpt lat="45.8701406" lon="11.7914662"><ele>1611.8000000000002</ele><time>2026-04-09T14:33:20.432Z</time></trkpt><trkpt lat="45.8700549" lon="11.7915644"><ele>1612.4</ele><time>2026-04-09T14:33:21.423Z</time></trkpt><trkpt lat="45.8699511" lon="11.7916338"><ele>1613.0</ele><time>2026-04-09T14:33:22.42Z</time></trkpt><trkpt lat="45.8698375" lon="11.7917018"><ele>1610.25</ele><time>2026-04-09T14:33:23.43Z</time></trkpt><trkpt lat="45.8697152" lon="11.7917829"><ele>1607.5</ele><time>2026-04-09T14:33:24.427Z</time></trkpt><trkpt lat="45.8695976" lon="11.7918797"><ele>1604.75</ele><time>2026-04-09T14:33:25.42Z</time></trkpt><trkpt lat="45.8694711" lon="11.7919817"><ele>1602.0</ele><time>2026-04-09T14:33:26.424Z</time></trkpt><trkpt lat="45.8693383" lon="11.7920966"><ele>1599.6666666666665</ele><time>2026-04-09T14:33:27.436Z</time></trkpt><trkpt lat="45.8691967" lon="11.7922173"><ele>1597.3333333333333</ele><time>2026-04-09T14:33:28.428Z</time></trkpt><trkpt lat="45.8690501" lon="11.7923387"><ele>1595.0</ele><time>2026-04-09T14:33:29.421Z</time></trkpt><trkpt lat="45.8689083" lon="11.7924538"><ele>1595.0</ele><time>2026-04-09T14:33:30.434Z</time></trkpt><trkpt lat="45.8687819" lon="11.7925612"><ele>1595.0</ele><time>2026-04-09T14:33:31.444Z</time></trkpt><trkpt lat="45.8686809" lon="11.7926611"><ele>1595.0</ele><time>2026-04-09T14:33:32.43Z</time></trkpt><trkpt lat="45.8686035" lon="11.7927774"><ele>1595.0</ele><time>2026-04-09T14:33:33.426Z</time></trkpt><trkpt lat="45.8685497" lon="11.7929237"><ele>1596.25</ele><time>2026-04-09T14:33:34.426Z</time></trkpt><trkpt lat="45.8685128" lon="11.793092"><ele>1597.5</ele><time>2026-04-09T14:33:35.443Z</time></trkpt><trkpt lat="45.8684805" lon="11.7932752"><ele>1598.75</ele><time>2026-04-09T14:33:36.419Z</time></trkpt><trkpt lat="45.8684491" lon="11.7934673"><ele>1600.0</ele><time>2026-04-09T14:33:37.426Z</time></trkpt><trkpt lat="45.8684146" lon="11.7936668"><ele>1600.0</ele><time>2026-04-09T14:33:38.436Z</time></trkpt><trkpt lat="45.8683831" lon="11.7938711"><ele>1600.0</ele><time>2026-04-09T14:33:39.425Z</time></trkpt><trkpt lat="45.8683681" lon="11.7940786"><ele>1600.0</ele><time>2026-04-09T14:33:40.426Z</time></trkpt><trkpt lat="45.868369" lon="11.7942884"><ele>1600.0</ele><time>2026-04-09T14:33:41.431Z</time></trkpt><trkpt lat="45.8683752" lon="11.7945007"><ele>1603.0</ele><time>2026-04-09T14:33:42.428Z</time></trkpt><trkpt lat="45.8683832" lon="11.7946937"><ele>1606.0</ele><time>2026-04-09T14:33:43.426Z</time></trkpt><trkpt lat="45.8683886" lon="11.794866"><ele>1609.0</ele><time>2026-04-09T14:33:44.43Z</time></trkpt><trkpt lat="45.868385" lon="11.7950208"><ele>1612.0</ele><time>2026-04-09T14:33:45.421Z</time></trkpt><trkpt lat="45.8683553" lon="11.7951618"><ele>1615.75</ele><time>2026-04-09T14:33:46.422Z</time></trkpt><trkpt lat="45.8682929" lon="11.7952783"><ele>1619.5</ele><time>2026-04-09T14:33:47.437Z</time></trkpt><trkpt lat="45.8682021" lon="11.7953722"><ele>1623.25</ele><time>2026-04-09T14:33:48.436Z</time></trkpt><trkpt lat="45.8681063" lon="11.7954821"><ele>1627.0</ele><time>2026-04-09T14:33:49.421Z</time></trkpt><trkpt lat="45.86803" lon="11.7956251"><ele>1627.0</ele><time>2026-04-09T14:33:50.432Z</time></trkpt><trkpt lat="45.8679747" lon="11.7957895"><ele>1627.0</ele><time>2026-04-09T14:33:51.437Z</time></trkpt><trkpt lat="45.8679302" lon="11.7959456"><ele>1627.0</ele><time>2026-04-09T14:33:52.423Z</time></trkpt><trkpt lat="45.8678729" lon="11.7960911"><ele>1627.0</ele><time>2026-04-09T14:33:53.427Z</time></trkpt><trkpt lat="45.8677947" lon="11.7962291"><ele>1627.5</ele><time>2026-04-09T14:33:54.428Z</time></trkpt><trkpt lat="45.8677131" lon="11.7963709"><ele>1628.0</ele><time>2026-04-09T14:33:55.421Z</time></trkpt><trkpt lat="45.8676484" lon="11.7965421"><ele>1628.5</ele><time>2026-04-09T14:33:56.426Z</time></trkpt><trkpt lat="45.8675987" lon="11.7967461"><ele>1629.0</ele><time>2026-04-09T14:33:57.429Z</time></trkpt><trkpt lat="45.8675488" lon="11.7969757"><ele>1629.0</ele><time>2026-04-09T14:33:58.428Z</time></trkpt><trkpt lat="45.8675021" lon="11.797192"><ele>1629.0</ele><time>2026-04-09T14:33:59.423Z</time></trkpt><trkpt lat="45.8674592" lon="11.7973801"><ele>1629.0</ele><time>2026-04-09T14:34:00.421Z</time></trkpt><trkpt lat="45.8674061" lon="11.7975475"><ele>1629.0</ele><time>2026-04-09T14:34:01.43Z</time></trkpt><trkpt lat="45.8673497" lon="11.7977118"><ele>1635.75</ele><time>2026-04-09T14:34:02.427Z</time></trkpt><trkpt lat="45.8672385" lon="11.7978195"><ele>1642.5</ele><time>2026-04-09T14:34:03.423Z</time></trkpt><trkpt lat="45.8671057" lon="11.79792"><ele>1649.25</ele><time>2026-04-09T14:34:04.427Z</time></trkpt><trkpt lat="45.8669553" lon="11.7980083"><ele>1656.0</ele><time>2026-04-09T14:34:05.433Z</time></trkpt><trkpt lat="45.8668031" lon="11.798103"><ele>1651.0</ele><time>2026-04-09T14:34:06.431Z</time></trkpt><trkpt lat="45.8666512" lon="11.7981976"><ele>1646.0</ele><time>2026-04-09T14:34:07.423Z</time></trkpt><trkpt lat="45.866502" lon="11.7982944"><ele>1641.0</ele><time>2026-04-09T14:34:08.434Z</time></trkpt><trkpt lat="45.8663509" lon="11.7983832"><ele>1641.0</ele><time>2026-04-09T14:34:09.437Z</time></trkpt><trkpt lat="45.8662033" lon="11.7984484"><ele>1641.0</ele><time>2026-04-09T14:34:10.428Z</time></trkpt><trkpt lat="45.8660722" lon="11.7985044"><ele>1641.0</ele><time>2026-04-09T14:34:11.435Z</time></trkpt><trkpt lat="45.8659641" lon="11.7985651"><ele>1641.0</ele><time>2026-04-09T14:34:12.451Z</time></trkpt><trkpt lat="45.8658784" lon="11.7986493"><ele>1642.0</ele><time>2026-04-09T14:34:13.427Z</time></trkpt><trkpt lat="45.8658153" lon="11.7987685"><ele>1643.0</ele><time>2026-04-09T14:34:14.442Z</time></trkpt><trkpt lat="45.8657847" lon="11.7989206"><ele>1644.0</ele><time>2026-04-09T14:34:15.425Z</time></trkpt><trkpt lat="45.8657805" lon="11.7990979"><ele>1645.0</ele><time>2026-04-09T14:34:16.428Z</time></trkpt><trkpt lat="45.8657966" lon="11.7992885"><ele>1647.0</ele><time>2026-04-09T14:34:17.445Z</time></trkpt><trkpt lat="45.8658381" lon="11.7994676"><ele>1649.0</ele><time>2026-04-09T14:34:18.439Z</time></trkpt><trkpt lat="45.865912" lon="11.79962"><ele>1651.0</ele><time>2026-04-09T14:34:19.426Z</time></trkpt><trkpt lat="45.8660185" lon="11.7997409"><ele>1653.0</ele><time>2026-04-09T14:34:20.438Z</time></trkpt><trkpt lat="45.8661396" lon="11.7998314"><ele>1653.0</ele><time>2026-04-09T14:34:21.427Z</time></trkpt><trkpt lat="45.8662577" lon="11.7998949"><ele>1653.0</ele><time>2026-04-09T14:34:22.427Z</time></trkpt><trkpt lat="45.866373" lon="11.7999294"><ele>1653.0</ele><time>2026-04-09T14:34:23.439Z</time></trkpt><trkpt lat="45.8664969" lon="11.7999376"><ele>1653.0</ele><time>2026-04-09T14:34:24.439Z</time></trkpt><trkpt lat="45.8666279" lon="11.799934"><ele>1653.0</ele><time>2026-04-09T14:34:25.439Z</time></trkpt><trkpt lat="45.8667666" lon="11.7999264"><ele>1653.0</ele><time>2026-04-09T14:34:26.425Z</time></trkpt><trkpt lat="45.8669127" lon="11.7999105"><ele>1653.0</ele><time>2026-04-09T14:34:27.434Z</time></trkpt><trkpt lat="45.8670673" lon="11.7998883"><ele>1653.0</ele><time>2026-04-09T14:34:28.438Z</time></trkpt><trkpt lat="45.8672281" lon="11.7998658"><ele>1656.6666666666665</ele><time>2026-04-09T14:34:29.433Z</time></trkpt><trkpt lat="45.8673933" lon="11.7998553"><ele>1660.3333333333333</ele><time>2026-04-09T14:34:30.439Z</time></trkpt><trkpt lat="45.867562" lon="11.7998724"><ele>1664.0</ele><time>2026-04-09T14:34:31.435Z</time></trkpt><trkpt lat="45.8677323" lon="11.7999271"><ele>1662.3333333333333</ele><time>2026-04-09T14:34:32.425Z</time></trkpt><trkpt lat="45.8679046" lon="11.8000182"><ele>1660.6666666666665</ele><time>2026-04-09T14:34:33.431Z</time></trkpt><trkpt lat="45.8680712" lon="11.8001407"><ele>1659.0</ele><time>2026-04-09T14:34:34.438Z</time></trkpt><trkpt lat="45.8682279" lon="11.8002927"><ele>1659.0</ele><time>2026-04-09T14:34:35.444Z</time></trkpt><trkpt lat="45.8683742" lon="11.8004658"><ele>1659.0</ele><time>2026-04-09T14:34:36.42Z</time></trkpt><trkpt lat="45.8685099" lon="11.8006475"><ele>1659.0</ele><time>2026-04-09T14:34:37.427Z</time></trkpt><trkpt lat="45.8686309" lon="11.8008403"><ele>1667.0</ele><time>2026-04-09T14:34:38.478Z</time></trkpt><trkpt lat="45.8687603" lon="11.8010363"><ele>1675.0</ele><time>2026-04-09T14:34:39.42Z</time></trkpt><trkpt lat="45.8663509" lon="11.7983832"><ele>1671.75</ele><time>2026-04-09T14:34:09.437Z</time></trkpt><trkpt lat="45.8662033" lon="11.7984484"><ele>1668.5</ele><time>2026-04-09T14:34:10.428Z</time></trkpt><trkpt lat="45.8660722" lon="11.7985044"><ele>1665.25</ele><time>2026-04-09T14:34:11.435Z</time></trkpt><trkpt lat="45.8659641" lon="11.7985651"><ele>1662.0</ele><time>2026-04-09T14:34:12.451Z</time></trkpt><trkpt lat="45.8658784" lon="11.7986493"><ele>1657.75</ele><time>2026-04-09T14:34:13.427Z</time></trkpt><trkpt lat="45.8658153" lon="11.7987685"><ele>1653.5</ele><time>2026-04-09T14:34:14.442Z</time></trkpt><trkpt lat="45.8657847" lon="11.7989206"><ele>1649.25</ele><time>2026-04-09T14:34:15.425Z</time></trkpt><trkpt lat="45.8657805" lon="11.7990979"><ele>1645.0</ele><time>2026-04-09T14:34:16.428Z</time></trkpt><trkpt lat="45.8657966" lon="11.7992885"><ele>1647.0</ele><time>2026-04-09T14:34:17.445Z</time></trkpt><trkpt lat="45.8658381" lon="11.7994676"><ele>1649.0</ele><time>2026-04-09T14:34:18.439Z</time></trkpt><trkpt lat="45.865912" lon="11.79962"><ele>1651.0</ele><time>2026-04-09T14:34:19.426Z</time></trkpt><trkpt lat="45.8660185" lon="11.7997409"><ele>1653.0</ele><time>2026-04-09T14:34:20.438Z</time></trkpt><trkpt lat="45.8661396" lon="11.7998314"><ele>1653.0</ele><time>2026-04-09T14:34:21.427Z</time></trkpt><trkpt lat="45.8662577" lon="11.7998949"><ele>1653.0</ele><time>2026-04-09T14:34:22.427Z</time></trkpt><trkpt lat="45.866373" lon="11.7999294"><ele>1653.0</ele><time>2026-04-09T14:34:23.439Z</time></trkpt><trkpt lat="45.8664969" lon="11.7999376"><ele>1653.0</ele><time>2026-04-09T14:34:24.439Z</time></trkpt><trkpt lat="45.8666279" lon="11.799934"><ele>1653.0</ele><time>2026-04-09T14:34:25.439Z</time></trkpt><trkpt lat="45.8667666" lon="11.7999264"><ele>1653.0</ele><time>2026-04-09T14:34:26.425Z</time></trkpt><trkpt lat="45.8669127" lon="11.7999105"><ele>1653.0</ele><time>2026-04-09T14:34:27.434Z</time></trkpt><trkpt lat="45.8670673" lon="11.7998883"><ele>1653.0</ele><time>2026-04-09T14:34:28.438Z</time></trkpt><trkpt lat="45.8672281" lon="11.7998658"><ele>1656.6666666666665</ele><time>2026-04-09T14:34:29.433Z</time></trkpt><trkpt lat="45.8673933" lon="11.7998553"><ele>1660.3333333333333</ele><time>2026-04-09T14:34:30.439Z</time></trkpt><trkpt lat="45.867562" lon="11.7998724"><ele>1664.0</ele><time>2026-04-09T14:34:31.435Z</time></trkpt><trkpt lat="45.8677323" lon="11.7999271"><ele>1662.3333333333333</ele><time>2026-04-09T14:34:32.425Z</time></trkpt><trkpt lat="45.8679046" lon="11.8000182"><ele>1660.6666666666665</ele><time>2026-04-09T14:34:33.431Z</time></trkpt><trkpt lat="45.8680712" lon="11.8001407"><ele>1659.0</ele><time>2026-04-09T14:34:34.438Z</time></trkpt><trkpt lat="45.8682279" lon="11.8002927"><ele>1659.0</ele><time>2026-04-09T14:34:35.444Z</time></trkpt><trkpt lat="45.8683742" lon="11.8004658"><ele>1659.0</ele><time>2026-04-09T14:34:36.42Z</time></trkpt><trkpt lat="45.8685099" lon="11.8006475"><ele>1659.0</ele><time>2026-04-09T14:34:37.427Z</time></trkpt><trkpt lat="45.8686309" lon="11.8008403"><ele>1664.3333333333335</ele><time>2026-04-09T14:34:38.478Z</time></trkpt><trkpt lat="45.8687603" lon="11.8010363"><ele>1669.6666666666667</ele><time>2026-04-09T14:34:39.42Z</time></trkpt><trkpt lat="45.8688948" lon="11.8012164"><ele>1675.0</ele><time>2026-04-09T14:34:40.421Z</time></trkpt><trkpt lat="45.8690216" lon="11.8013742"><ele>1675.0</ele><time>2026-04-09T14:34:41.428Z</time></trkpt><trkpt lat="45.8691453" lon="11.801512"><ele>1675.0</ele><time>2026-04-09T14:34:42.438Z</time></trkpt><trkpt lat="45.8692602" lon="11.8016216"><ele>1675.0</ele><time>2026-04-09T14:34:43.426Z</time></trkpt><trkpt lat="45.8693747" lon="11.8016965"><ele>1675.0</ele><time>2026-04-09T14:34:44.424Z</time></trkpt><trkpt lat="45.8694985" lon="11.8017318"><ele>1679.3333333333335</ele><time>2026-04-09T14:34:45.43Z</time></trkpt><trkpt lat="45.8696333" lon="11.8017235"><ele>1683.6666666666665</ele><time>2026-04-09T14:34:46.426Z</time></trkpt><trkpt lat="45.86978" lon="11.8016778"><ele>1688.0</ele><time>2026-04-09T14:34:47.424Z</time></trkpt><trkpt lat="45.8699403" lon="11.8016186"><ele>1688.0</ele><time>2026-04-09T14:34:48.426Z</time></trkpt><trkpt lat="45.8701081" lon="11.8015643"><ele>1688.0</ele><time>2026-04-09T14:34:49.422Z</time></trkpt><trkpt lat="45.870269" lon="11.8015258"><ele>1688.0</ele><time>2026-04-09T14:34:50.425Z</time></trkpt><trkpt lat="45.8704137" lon="11.8015103"><ele>1688.75</ele><time>2026-04-09T14:34:51.428Z</time></trkpt><trkpt lat="45.870551" lon="11.8015254"><ele>1689.5</ele><time>2026-04-09T14:34:52.437Z</time></trkpt><trkpt lat="45.8706819" lon="11.8015568"><ele>1690.25</ele><time>2026-04-09T14:34:53.422Z</time></trkpt><trkpt lat="45.8708114" lon="11.801573"><ele>1691.0</ele><time>2026-04-09T14:34:54.446Z</time></trkpt><trkpt lat="45.8709382" lon="11.8015204"><ele>1690.5</ele><time>2026-04-09T14:34:55.436Z</time></trkpt><trkpt lat="45.8710586" lon="11.8014448"><ele>1690.0</ele><time>2026-04-09T14:34:56.421Z</time></trkpt><trkpt lat="45.8711716" lon="11.8013291"><ele>1689.5</ele><time>2026-04-09T14:34:57.419Z</time></trkpt><trkpt lat="45.8712826" lon="11.8012286"><ele>1689.0</ele><time>2026-04-09T14:34:58.423Z</time></trkpt><trkpt lat="45.8713923" lon="11.801153"><ele>1689.0</ele><time>2026-04-09T14:34:59.426Z</time></trkpt><trkpt lat="45.8715128" lon="11.8011095"><ele>1689.0</ele><time>2026-04-09T14:35:00.436Z</time></trkpt><trkpt lat="45.8716427" lon="11.8011129"><ele>1689.0</ele><time>2026-04-09T14:35:01.472Z</time></trkpt><trkpt lat="45.8717675" lon="11.8011423"><ele>1689.0</ele><time>2026-04-09T14:35:02.422Z</time></trkpt><trkpt lat="45.871894" lon="11.8011759"><ele>1693.75</ele><time>2026-04-09T14:35:03.435Z</time></trkpt><trkpt lat="45.8720201" lon="11.8012108"><ele>1698.5</ele><time>2026-04-09T14:35:04.428Z</time></trkpt><trkpt lat="45.8721335" lon="11.8012441"><ele>1703.25</ele><time>2026-04-09T14:35:05.426Z</time></trkpt><trkpt lat="45.8722409" lon="11.8012741"><ele>1708.0</ele><time>2026-04-09T14:35:06.417Z</time></trkpt><trkpt lat="45.8723447" lon="11.8013076"><ele>1708.0</ele><time>2026-04-09T14:35:07.427Z</time></trkpt><trkpt lat="45.8724505" lon="11.8013459"><ele>1708.0000000000002</ele><time>2026-04-09T14:35:08.422Z</time></trkpt><trkpt lat="45.8725525" lon="11.8014015"><ele>1708.0000000000002</ele><time>2026-04-09T14:35:09.429Z</time></trkpt><trkpt lat="45.8726434" lon="11.8014784"><ele>1708.0</ele><time>2026-04-09T14:35:10.418Z</time></trkpt><trkpt lat="45.8727241" lon="11.8015778"><ele>1708.0</ele><time>2026-04-09T14:35:11.422Z</time></trkpt><trkpt lat="45.8727958" lon="11.8016981"><ele>1711.5</ele><time>2026-04-09T14:35:12.442Z</time></trkpt><trkpt lat="45.8728604" lon="11.8018309"><ele>1715.0</ele><time>2026-04-09T14:35:13.43Z</time></trkpt><trkpt lat="45.8729162" lon="11.8019781"><ele>1718.5</ele><time>2026-04-09T14:35:14.45Z</time></trkpt><trkpt lat="45.8729614" lon="11.8021335"><ele>1722.0</ele><time>2026-04-09T14:35:15.42Z</time></trkpt><trkpt lat="45.8730005" lon="11.8022924"><ele>1722.0</ele><time>2026-04-09T14:35:16.43Z</time></trkpt><trkpt lat="45.8730344" lon="11.8024566"><ele>1722.0</ele><time>2026-04-09T14:35:17.424Z</time></trkpt><trkpt lat="45.8730539" lon="11.802627"><ele>1722.0</ele><time>2026-04-09T14:35:18.426Z</time></trkpt><trkpt lat="45.8730652" lon="11.8027999"><ele>1722.0</ele><time>2026-04-09T14:35:19.426Z</time></trkpt><trkpt lat="45.8730835" lon="11.8029677"><ele>1721.3999999999999</ele><time>2026-04-09T14:35:20.42Z</time></trkpt><trkpt lat="45.8731163" lon="11.8031236"><ele>1720.7999999999997</ele><time>2026-04-09T14:35:21.421Z</time></trkpt><trkpt lat="45.8731533" lon="11.8032575"><ele>1720.2</ele><time>2026-04-09T14:35:22.431Z</time></trkpt><trkpt lat="45.8731901" lon="11.8033738"><ele>1719.6</ele><time>2026-04-09T14:35:23.435Z</time></trkpt><trkpt lat="45.8732266" lon="11.8034675"><ele>1719.0</ele><time>2026-04-09T14:35:24.429Z</time></trkpt><trkpt lat="45.8733095" lon="11.8035814"><ele>1716.6</ele><time>2026-04-09T14:35:26.448Z</time></trkpt><trkpt lat="45.8733949" lon="11.8035769"><ele>1714.2</ele><time>2026-04-09T14:35:28.447Z</time></trkpt><trkpt lat="45.8734567" lon="11.80346"><ele>1711.7999999999997</ele><time>2026-04-09T14:35:30.454Z</time></trkpt><trkpt lat="45.8735007" lon="11.8032968"><ele>1709.3999999999999</ele><time>2026-04-09T14:35:32.434Z</time></trkpt><trkpt lat="45.8735211" lon="11.8032102"><ele>1707.0</ele><time>2026-04-09T14:35:33.437Z</time></trkpt><trkpt lat="45.8735543" lon="11.8030373"><ele>1706.1999999999998</ele><time>2026-04-09T14:35:35.437Z</time></trkpt><trkpt lat="45.8735744" lon="11.8028667"><ele>1705.3999999999999</ele><time>2026-04-09T14:35:37.449Z</time></trkpt><trkpt lat="45.8735739" lon="11.8027024"><ele>1704.6</ele><time>2026-04-09T14:35:39.459Z</time></trkpt><trkpt lat="45.8735725" lon="11.8025359"><ele>1703.8000000000002</ele><time>2026-04-09T14:35:41.445Z</time></trkpt><trkpt lat="45.8735729" lon="11.8024056"><ele>1703.0</ele><time>2026-04-09T14:35:43.426Z</time></trkpt><trkpt lat="45.8735222" lon="11.8023419"><ele>1702.9999999999998</ele><time>2026-04-09T14:35:45.439Z</time></trkpt><trkpt lat="45.8734781" lon="11.8024337"><ele>1703.0</ele><time>2026-04-09T14:35:47.44Z</time></trkpt><trkpt lat="45.873487" lon="11.8025561"><ele>1703.0</ele><time>2026-04-09T14:35:49.426Z</time></trkpt><trkpt lat="45.8735254" lon="11.8026607"><ele>1703.0</ele><time>2026-04-09T14:35:51.425Z</time></trkpt><trkpt lat="45.873556" lon="11.802748"><ele>1702.9999999999998</ele><time>2026-04-09T14:35:53.451Z</time></trkpt><trkpt lat="45.8734921" lon="11.8028348"><ele>1703.0</ele><time>2026-04-09T14:35:57.488Z</time></trkpt><trkpt lat="45.8734064" lon="11.8028154"><ele>1719.0</ele><time>2026-04-09T14:36:00.433Z</time></trkpt></trkseg><trkseg><trkpt lat="45.8684117" lon="11.8004475"><ele>1659.0</ele><time>2026-04-09T14:57:00.012Z</time></trkpt><trkpt lat="45.8683546" lon="11.8003366"><ele>1659.0</ele><time>2026-04-09T14:57:00.989Z</time></trkpt><trkpt lat="45.8682924" lon="11.8002258"><ele>1659.0</ele><time>2026-04-09T14:57:01.991Z</time></trkpt><trkpt lat="45.8681605" lon="11.8001037"><ele>1659.0</ele><time>2026-04-09T14:57:03.601Z</time></trkpt><trkpt lat="45.8680706" lon="11.8000353"><ele>1660.0</ele><time>2026-04-09T14:57:04.607Z</time></trkpt><trkpt lat="45.8679795" lon="11.7999695"><ele>1661.0</ele><time>2026-04-09T14:57:05.61Z</time></trkpt><trkpt lat="45.8678838" lon="11.7999109"><ele>1662.0</ele><time>2026-04-09T14:57:06.604Z</time></trkpt><trkpt lat="45.8677831" lon="11.7998571"><ele>1663.0</ele><time>2026-04-09T14:57:07.61Z</time></trkpt><trkpt lat="45.8676784" lon="11.7998155"><ele>1664.0</ele><time>2026-04-09T14:57:08.607Z</time></trkpt><trkpt lat="45.8675701" lon="11.7997866"><ele>1664.0</ele><time>2026-04-09T14:57:09.604Z</time></trkpt><trkpt lat="45.8674582" lon="11.799775"><ele>1664.0</ele><time>2026-04-09T14:57:10.609Z</time></trkpt><trkpt lat="45.8673457" lon="11.7997798"><ele>1664.0</ele><time>2026-04-09T14:57:11.608Z</time></trkpt><trkpt lat="45.867233" lon="11.7997982"><ele>1664.0</ele><time>2026-04-09T14:57:12.62Z</time></trkpt><trkpt lat="45.8671213" lon="11.7998271"><ele>1664.0</ele><time>2026-04-09T14:57:13.62Z</time></trkpt><trkpt lat="45.8670071" lon="11.7998564"><ele>1664.0</ele><time>2026-04-09T14:57:14.619Z</time></trkpt><trkpt lat="45.8668905" lon="11.7998766"><ele>1664.0</ele><time>2026-04-09T14:57:15.633Z</time></trkpt><trkpt lat="45.8667753" lon="11.799893"><ele>1664.0</ele><time>2026-04-09T14:57:16.625Z</time></trkpt><trkpt lat="45.8666611" lon="11.7999032"><ele>1661.8000000000002</ele><time>2026-04-09T14:57:17.626Z</time></trkpt><trkpt lat="45.866548" lon="11.7999082"><ele>1659.6000000000001</ele><time>2026-04-09T14:57:18.631Z</time></trkpt><trkpt lat="45.8664374" lon="11.7999006"><ele>1657.4</ele><time>2026-04-09T14:57:19.632Z</time></trkpt><trkpt lat="45.8663288" lon="11.7998726"><ele>1655.2</ele><time>2026-04-09T14:57:20.627Z</time></trkpt><trkpt lat="45.8662216" lon="11.7998217"><ele>1653.0</ele><time>2026-04-09T14:57:21.639Z</time></trkpt><trkpt lat="45.8661229" lon="11.79976"><ele>1653.0</ele><time>2026-04-09T14:57:22.625Z</time></trkpt><trkpt lat="45.8660349" lon="11.7996928"><ele>1653.0</ele><time>2026-04-09T14:57:23.626Z</time></trkpt><trkpt lat="45.8659573" lon="11.7996127"><ele>1653.0</ele><time>2026-04-09T14:57:24.638Z</time></trkpt><trkpt lat="45.8658933" lon="11.7995107"><ele>1653.0</ele><time>2026-04-09T14:57:25.63Z</time></trkpt><trkpt lat="45.8658488" lon="11.7993828"><ele>1653.0</ele><time>2026-04-09T14:57:26.634Z</time></trkpt><trkpt lat="45.8658223" lon="11.7992437"><ele>1651.4</ele><time>2026-04-09T14:57:27.63Z</time></trkpt><trkpt lat="45.8658138" lon="11.7991014"><ele>1649.8000000000002</ele><time>2026-04-09T14:57:28.639Z</time></trkpt><trkpt lat="45.8658155" lon="11.7989601"><ele>1648.2</ele><time>2026-04-09T14:57:29.631Z</time></trkpt><trkpt lat="45.8658226" lon="11.7988229"><ele>1646.6</ele><time>2026-04-09T14:57:30.644Z</time></trkpt><trkpt lat="45.8658486" lon="11.7987085"><ele>1645.0</ele><time>2026-04-09T14:57:31.642Z</time></trkpt><trkpt lat="45.8659034" lon="11.7986128"><ele>1644.2</ele><time>2026-04-09T14:57:32.635Z</time></trkpt><trkpt lat="45.8659895" lon="11.7985465"><ele>1643.4</ele><time>2026-04-09T14:57:33.7Z</time></trkpt><trkpt lat="45.8660826" lon="11.7985004"><ele>1642.6</ele><time>2026-04-09T14:57:34.637Z</time></trkpt><trkpt lat="45.866194" lon="11.7984563"><ele>1641.8</ele><time>2026-04-09T14:57:35.631Z</time></trkpt><trkpt lat="45.8663136" lon="11.7984022"><ele>1641.0</ele><time>2026-04-09T14:57:36.64Z</time></trkpt><trkpt lat="45.8664361" lon="11.7983367"><ele>1641.0</ele><time>2026-04-09T14:57:37.633Z</time></trkpt><trkpt lat="45.8665578" lon="11.7982625"><ele>1641.0</ele><time>2026-04-09T14:57:38.633Z</time></trkpt><trkpt lat="45.8666812" lon="11.7981861"><ele>1641.0</ele><time>2026-04-09T14:57:39.634Z</time></trkpt><trkpt lat="45.8668075" lon="11.7981095"><ele>1641.0</ele><time>2026-04-09T14:57:40.639Z</time></trkpt><trkpt lat="45.8669326" lon="11.7980354"><ele>1644.75</ele><time>2026-04-09T14:57:41.636Z</time></trkpt><trkpt lat="45.8670534" lon="11.7979637"><ele>1648.5</ele><time>2026-04-09T14:57:42.634Z</time></trkpt><trkpt lat="45.8671661" lon="11.7978954"><ele>1652.25</ele><time>2026-04-09T14:57:43.63Z</time></trkpt><trkpt lat="45.8672695" lon="11.7978225"><ele>1656.0</ele><time>2026-04-09T14:57:44.636Z</time></trkpt><trkpt lat="45.8673611" lon="11.7977254"><ele>1649.25</ele><time>2026-04-09T14:57:45.631Z</time></trkpt><trkpt lat="45.8674358" lon="11.7975884"><ele>1642.5</ele><time>2026-04-09T14:57:46.638Z</time></trkpt><trkpt lat="45.8674907" lon="11.7974216"><ele>1635.75</ele><time>2026-04-09T14:57:47.637Z</time></trkpt><trkpt lat="45.8675309" lon="11.7972403"><ele>1629.0</ele><time>2026-04-09T14:57:48.636Z</time></trkpt><trkpt lat="45.8675677" lon="11.7970526"><ele>1629.0</ele><time>2026-04-09T14:57:49.641Z</time></trkpt><trkpt lat="45.8676038" lon="11.7968693"><ele>1629.0</ele><time>2026-04-09T14:57:50.658Z</time></trkpt><trkpt lat="45.8676395" lon="11.7966997"><ele>1629.0</ele><time>2026-04-09T14:57:51.641Z</time></trkpt><trkpt lat="45.8676823" lon="11.7965426"><ele>1629.0</ele><time>2026-04-09T14:57:52.633Z</time></trkpt><trkpt lat="45.8677438" lon="11.7963992"><ele>1629.25</ele><time>2026-04-09T14:57:53.643Z</time></trkpt><trkpt lat="45.8678252" lon="11.7962706"><ele>1629.5</ele><time>2026-04-09T14:57:54.638Z</time></trkpt><trkpt lat="45.8679045" lon="11.7961328"><ele>1629.75</ele><time>2026-04-09T14:57:55.638Z</time></trkpt><trkpt lat="45.867964" lon="11.7959769"><ele>1630.0</ele><time>2026-04-09T14:57:56.641Z</time></trkpt><trkpt lat="45.8680081" lon="11.7958102"><ele>1629.25</ele><time>2026-04-09T14:57:57.634Z</time></trkpt><trkpt lat="45.8680595" lon="11.7956491"><ele>1628.5</ele><time>2026-04-09T14:57:58.651Z</time></trkpt><trkpt lat="45.8681316" lon="11.7955126"><ele>1627.75</ele><time>2026-04-09T14:57:59.635Z</time></trkpt><trkpt lat="45.8682188" lon="11.7954061"><ele>1627.0</ele><time>2026-04-09T14:58:00.626Z</time></trkpt><trkpt lat="45.8683068" lon="11.7953179"><ele>1627.0</ele><time>2026-04-09T14:58:01.632Z</time></trkpt><trkpt lat="45.8683792" lon="11.7952156"><ele>1627.0</ele><time>2026-04-09T14:58:02.629Z</time></trkpt><trkpt lat="45.8684216" lon="11.7950727"><ele>1627.0</ele><time>2026-04-09T14:58:03.631Z</time></trkpt><trkpt lat="45.8684313" lon="11.7949029"><ele>1627.0</ele><time>2026-04-09T14:58:04.642Z</time></trkpt><trkpt lat="45.8684226" lon="11.7947224"><ele>1623.25</ele><time>2026-04-09T14:58:05.628Z</time></trkpt><trkpt lat="45.868412" lon="11.7945355"><ele>1619.5</ele><time>2026-04-09T14:58:06.628Z</time></trkpt><trkpt lat="45.8684022" lon="11.7943449"><ele>1615.75</ele><time>2026-04-09T14:58:07.629Z</time></trkpt><trkpt lat="45.868398" lon="11.7941511"><ele>1612.0</ele><time>2026-04-09T14:58:08.642Z</time></trkpt><trkpt lat="45.8684101" lon="11.7939557"><ele>1611.25</ele><time>2026-04-09T14:58:09.63Z</time></trkpt><trkpt lat="45.8684396" lon="11.7937571"><ele>1610.5</ele><time>2026-04-09T14:58:10.629Z</time></trkpt><trkpt lat="45.8684749" lon="11.7935578"><ele>1609.75</ele><time>2026-04-09T14:58:11.629Z</time></trkpt><trkpt lat="45.8685067" lon="11.7933633"><ele>1609.0</ele><time>2026-04-09T14:58:12.631Z</time></trkpt><trkpt lat="45.8685347" lon="11.7931847"><ele>1609.0</ele><time>2026-04-09T14:58:13.632Z</time></trkpt><trkpt lat="45.8685633" lon="11.7930282"><ele>1609.0</ele><time>2026-04-09T14:58:14.627Z</time></trkpt><trkpt lat="45.8686013" lon="11.7928889"><ele>1609.0</ele><time>2026-04-09T14:58:15.629Z</time></trkpt><trkpt lat="45.8686595" lon="11.7927591"><ele>1609.0</ele><time>2026-04-09T14:58:16.628Z</time></trkpt><trkpt lat="45.8687448" lon="11.792641"><ele>1609.0</ele><time>2026-04-09T14:58:17.638Z</time></trkpt><trkpt lat="45.8688434" lon="11.7925269"><ele>1607.25</ele><time>2026-04-09T14:58:18.635Z</time></trkpt><trkpt lat="45.8689662" lon="11.7924298"><ele>1605.5</ele><time>2026-04-09T14:58:19.638Z</time></trkpt><trkpt lat="45.8690906" lon="11.7923318"><ele>1603.75</ele><time>2026-04-09T14:58:20.63Z</time></trkpt><trkpt lat="45.8692191" lon="11.7922271"><ele>1602.0</ele><time>2026-04-09T14:58:21.627Z</time></trkpt><trkpt lat="45.8693504" lon="11.7921168"><ele>1602.0</ele><time>2026-04-09T14:58:22.644Z</time></trkpt><trkpt lat="45.8694806" lon="11.7920088"><ele>1602.0</ele><time>2026-04-09T14:58:23.638Z</time></trkpt><trkpt lat="45.869608" lon="11.7919048"><ele>1602.0</ele><time>2026-04-09T14:58:24.643Z</time></trkpt><trkpt lat="45.8697303" lon="11.7918093"><ele>1602.0</ele><time>2026-04-09T14:58:25.628Z</time></trkpt><trkpt lat="45.8698479" lon="11.7917242"><ele>1604.1999999999998</ele><time>2026-04-09T14:58:26.652Z</time></trkpt><trkpt lat="45.8699529" lon="11.7916556"><ele>1606.4</ele><time>2026-04-09T14:58:27.632Z</time></trkpt><trkpt lat="45.87005" lon="11.791596"><ele>1608.6</ele><time>2026-04-09T14:58:28.635Z</time></trkpt><trkpt lat="45.8701376" lon="11.7915193"><ele>1610.8000000000002</ele><time>2026-04-09T14:58:29.631Z</time></trkpt><trkpt lat="45.8702107" lon="11.7914079"><ele>1613.0</ele><time>2026-04-09T14:58:30.629Z</time></trkpt><trkpt lat="45.8702575" lon="11.7912521"><ele>1613.0</ele><time>2026-04-09T14:58:31.634Z</time></trkpt><trkpt lat="45.8702574" lon="11.7910679"><ele>1613.0</ele><time>2026-04-09T14:58:32.632Z</time></trkpt><trkpt lat="45.8702426" lon="11.7908904"><ele>1613.0</ele><time>2026-04-09T14:58:33.632Z</time></trkpt><trkpt lat="45.8702141" lon="11.790708"><ele>1613.0</ele><time>2026-04-09T14:58:34.628Z</time></trkpt><trkpt lat="45.8701831" lon="11.7905225"><ele>1612.25</ele><time>2026-04-09T14:58:35.628Z</time></trkpt><trkpt lat="45.8701494" lon="11.7903337"><ele>1611.5</ele><time>2026-04-09T14:58:36.63Z</time></trkpt><trkpt lat="45.8701162" lon="11.7901473"><ele>1610.75</ele><time>2026-04-09T14:58:37.635Z</time></trkpt><trkpt lat="45.8700838" lon="11.7899613"><ele>1610.0</ele><time>2026-04-09T14:58:38.633Z</time></trkpt><trkpt lat="45.870058" lon="11.7897722"><ele>1600.0</ele><time>2026-04-09T14:58:39.632Z</time></trkpt><trkpt lat="45.8700367" lon="11.7895793"><ele>1590.0</ele><time>2026-04-09T14:58:40.631Z</time></trkpt><trkpt lat="45.870018" lon="11.7893812"><ele>1580.0</ele><time>2026-04-09T14:58:41.631Z</time></trkpt><trkpt lat="45.8700035" lon="11.7891853"><ele>1570.0</ele><time>2026-04-09T14:58:42.635Z</time></trkpt><trkpt lat="45.8699896" lon="11.7889888"><ele>1570.0</ele><time>2026-04-09T14:58:43.633Z</time></trkpt><trkpt lat="45.8699755" lon="11.7887911"><ele>1570.0</ele><time>2026-04-09T14:58:44.633Z</time></trkpt><trkpt lat="45.8699605" lon="11.7885978"><ele>1570.0</ele><time>2026-04-09T14:58:45.639Z</time></trkpt><trkpt lat="45.8699446" lon="11.7884071"><ele>1570.0</ele><time>2026-04-09T14:58:46.636Z</time></trkpt><trkpt lat="45.8699279" lon="11.7882177"><ele>1569.5</ele><time>2026-04-09T14:58:47.639Z</time></trkpt><trkpt lat="45.869914" lon="11.7880334"><ele>1569.0</ele><time>2026-04-09T14:58:48.638Z</time></trkpt><trkpt lat="45.8699063" lon="11.7878529"><ele>1568.5</ele><time>2026-04-09T14:58:49.634Z</time></trkpt><trkpt lat="45.8699044" lon="11.7876745"><ele>1568.0</ele><time>2026-04-09T14:58:50.635Z</time></trkpt><trkpt lat="45.8699024" lon="11.7874976"><ele>1566.5</ele><time>2026-04-09T14:58:51.632Z</time></trkpt><trkpt lat="45.8698787" lon="11.7873223"><ele>1565.0</ele><time>2026-04-09T14:58:52.629Z</time></trkpt><trkpt lat="45.869831" lon="11.7871592"><ele>1563.5</ele><time>2026-04-09T14:58:53.631Z</time></trkpt><trkpt lat="45.8697816" lon="11.786997"><ele>1562.0</ele><time>2026-04-09T14:58:54.638Z</time></trkpt><trkpt lat="45.8697224" lon="11.7868556"><ele>1561.6</ele><time>2026-04-09T14:58:55.629Z</time></trkpt><trkpt lat="45.8696677" lon="11.7867156"><ele>1561.1999999999998</ele><time>2026-04-09T14:58:56.644Z</time></trkpt><trkpt lat="45.8696175" lon="11.7865719"><ele>1560.8</ele><time>2026-04-09T14:58:57.635Z</time></trkpt><trkpt lat="45.8695791" lon="11.7864323"><ele>1560.4</ele><time>2026-04-09T14:58:58.639Z</time></trkpt><trkpt lat="45.8695542" lon="11.7862908"><ele>1560.0</ele><time>2026-04-09T14:58:59.634Z</time></trkpt><trkpt lat="45.8695446" lon="11.7861546"><ele>1560.0</ele><time>2026-04-09T14:59:00.641Z</time></trkpt><trkpt lat="45.8695327" lon="11.786029"><ele>1560.0</ele><time>2026-04-09T14:59:01.631Z</time></trkpt><trkpt lat="45.8695166" lon="11.7859171"><ele>1560.0</ele><time>2026-04-09T14:59:02.635Z</time></trkpt><trkpt lat="45.8694599" lon="11.7858543"><ele>1560.0</ele><time>2026-04-09T14:59:03.631Z</time></trkpt><trkpt lat="45.8693815" lon="11.7858316"><ele>1560.0</ele><time>2026-04-09T14:59:05.633Z</time></trkpt><trkpt lat="45.8693125" lon="11.7859309"><ele>1560.0</ele><time>2026-04-09T14:59:10.636Z</time></trkpt><trkpt lat="45.8693373" lon="11.7861264"><ele>1560.0</ele><time>2026-04-09T14:59:12.641Z</time></trkpt><trkpt lat="45.8693632" lon="11.7862441"><ele>1560.0</ele><time>2026-04-09T14:59:13.635Z</time></trkpt><trkpt lat="45.8693872" lon="11.7863718"><ele>1560.0</ele><time>2026-04-09T14:59:14.64Z</time></trkpt><trkpt lat="45.8694066" lon="11.7865139"><ele>1560.0</ele><time>2026-04-09T14:59:15.636Z</time></trkpt><trkpt lat="45.8694252" lon="11.7866567"><ele>1560.0</ele><time>2026-04-09T14:59:16.637Z</time></trkpt><trkpt lat="45.8694494" lon="11.7868068"><ele>1560.4</ele><time>2026-04-09T14:59:17.634Z</time></trkpt><trkpt lat="45.8694782" lon="11.7869572"><ele>1560.8</ele><time>2026-04-09T14:59:18.632Z</time></trkpt><trkpt lat="45.8695059" lon="11.7870907"><ele>1561.1999999999998</ele><time>2026-04-09T14:59:19.632Z</time></trkpt><trkpt lat="45.8695235" lon="11.7872145"><ele>1561.6</ele><time>2026-04-09T14:59:20.636Z</time></trkpt><trkpt lat="45.8695173" lon="11.7873312"><ele>1562.0</ele><time>2026-04-09T14:59:21.64Z</time></trkpt><trkpt lat="45.8694797" lon="11.787438"><ele>1562.0</ele><time>2026-04-09T14:59:22.633Z</time></trkpt><trkpt lat="45.8694286" lon="11.7875401"><ele>1562.0</ele><time>2026-04-09T14:59:23.636Z</time></trkpt><trkpt lat="45.8693741" lon="11.7876527"><ele>1562.0</ele><time>2026-04-09T14:59:24.63Z</time></trkpt><trkpt lat="45.8693523" lon="11.7877882"><ele>1562.0</ele><time>2026-04-09T14:59:25.639Z</time></trkpt><trkpt lat="45.8693399" lon="11.7879317"><ele>1562.0</ele><time>2026-04-09T14:59:26.632Z</time></trkpt><trkpt lat="45.8693343" lon="11.7880768"><ele>1563.1999999999998</ele><time>2026-04-09T14:59:27.633Z</time></trkpt><trkpt lat="45.8693254" lon="11.7882257"><ele>1564.4</ele><time>2026-04-09T14:59:28.637Z</time></trkpt><trkpt lat="45.8693183" lon="11.7883744"><ele>1565.6</ele><time>2026-04-09T14:59:29.637Z</time></trkpt><trkpt lat="45.8693076" lon="11.7885172"><ele>1566.8000000000002</ele><time>2026-04-09T14:59:30.635Z</time></trkpt><trkpt lat="45.8692899" lon="11.7886493"><ele>1568.0</ele><time>2026-04-09T14:59:31.636Z</time></trkpt><trkpt lat="45.8692526" lon="11.7887658"><ele>1561.0</ele><time>2026-04-09T14:59:32.636Z</time></trkpt><trkpt lat="45.869189" lon="11.7888595"><ele>1554.0</ele><time>2026-04-09T14:59:33.64Z</time></trkpt><trkpt lat="45.8691029" lon="11.7889094"><ele>1547.0</ele><time>2026-04-09T14:59:34.632Z</time></trkpt><trkpt lat="45.8690076" lon="11.788916"><ele>1540.0</ele><time>2026-04-09T14:59:35.634Z</time></trkpt><trkpt lat="45.8689134" lon="11.7889116"><ele>1533.0</ele><time>2026-04-09T14:59:36.693Z</time></trkpt><trkpt lat="45.8688174" lon="11.7889196"><ele>1533.0</ele><time>2026-04-09T14:59:37.644Z</time></trkpt><trkpt lat="45.8687283" lon="11.7889435"><ele>1533.0</ele><time>2026-04-09T14:59:38.642Z</time></trkpt><trkpt lat="45.8686512" lon="11.7889819"><ele>1533.0</ele><time>2026-04-09T14:59:39.639Z</time></trkpt><trkpt lat="45.8685842" lon="11.789006"><ele>1533.0</ele><time>2026-04-09T14:59:40.638Z</time></trkpt><trkpt lat="45.8685222" lon="11.7889872"><ele>1533.0</ele><time>2026-04-09T14:59:41.629Z</time></trkpt><trkpt lat="45.8684868" lon="11.7888347"><ele>1533.0</ele><time>2026-04-09T14:59:43.637Z</time></trkpt><trkpt lat="45.8685281" lon="11.7887649"><ele>1533.0</ele><time>2026-04-09T14:59:44.634Z</time></trkpt><trkpt lat="45.8685973" lon="11.7887317"><ele>1533.0</ele><time>2026-04-09T14:59:45.639Z</time></trkpt><trkpt lat="45.8686785" lon="11.7887237"><ele>1533.0</ele><time>2026-04-09T14:59:46.639Z</time></trkpt><trkpt lat="45.8687666" lon="11.7887266"><ele>1533.0</ele><time>2026-04-09T14:59:47.637Z</time></trkpt><trkpt lat="45.8688576" lon="11.7887224"><ele>1533.0</ele><time>2026-04-09T14:59:48.637Z</time></trkpt><trkpt lat="45.8689433" lon="11.7886815"><ele>1533.0</ele><time>2026-04-09T14:59:49.625Z</time></trkpt><trkpt lat="45.8690131" lon="11.7886001"><ele>1531.4</ele><time>2026-04-09T14:59:50.632Z</time></trkpt><trkpt lat="45.8690552" lon="11.7884845"><ele>1529.8000000000002</ele><time>2026-04-09T14:59:51.633Z</time></trkpt><trkpt lat="45.8690616" lon="11.7883487"><ele>1528.2</ele><time>2026-04-09T14:59:52.633Z</time></trkpt><trkpt lat="45.8690263" lon="11.7882071"><ele>1526.6</ele><time>2026-04-09T14:59:53.635Z</time></trkpt><trkpt lat="45.8689548" lon="11.7880798"><ele>1525.0</ele><time>2026-04-09T14:59:54.639Z</time></trkpt><trkpt lat="45.8688658" lon="11.7879564"><ele>1525.0</ele><time>2026-04-09T14:59:55.634Z</time></trkpt><trkpt lat="45.8687754" lon="11.7878263"><ele>1525.0</ele><time>2026-04-09T14:59:56.636Z</time></trkpt><trkpt lat="45.8686871" lon="11.7876929"><ele>1525.0</ele><time>2026-04-09T14:59:57.637Z</time></trkpt><trkpt lat="45.8685999" lon="11.7875725"><ele>1525.0</ele><time>2026-04-09T14:59:58.636Z</time></trkpt><trkpt lat="45.8685013" lon="11.7874705"><ele>1519.75</ele><time>2026-04-09T14:59:59.632Z</time></trkpt><trkpt lat="45.868388" lon="11.7874041"><ele>1514.5</ele><time>2026-04-09T15:00:00.634Z</time></trkpt><trkpt lat="45.8682673" lon="11.7873741"><ele>1509.25</ele><time>2026-04-09T15:00:01.628Z</time></trkpt><trkpt lat="45.8681439" lon="11.7873598"><ele>1504.0</ele><time>2026-04-09T15:00:02.644Z</time></trkpt><trkpt lat="45.8680208" lon="11.7873466"><ele>1504.0</ele><time>2026-04-09T15:00:03.633Z</time></trkpt><trkpt lat="45.8678991" lon="11.787334"><ele>1504.0</ele><time>2026-04-09T15:00:04.634Z</time></trkpt><trkpt lat="45.8677797" lon="11.7873213"><ele>1504.0</ele><time>2026-04-09T15:00:05.629Z</time></trkpt><trkpt lat="45.8676664" lon="11.787307"><ele>1504.0</ele><time>2026-04-09T15:00:06.628Z</time></trkpt><trkpt lat="45.8675628" lon="11.7872867"><ele>1503.6</ele><time>2026-04-09T15:00:07.635Z</time></trkpt><trkpt lat="45.8674643" lon="11.7872441"><ele>1503.2</ele><time>2026-04-09T15:00:08.631Z</time></trkpt><trkpt lat="45.8673755" lon="11.787169"><ele>1502.8</ele><time>2026-04-09T15:00:09.635Z</time></trkpt><trkpt lat="45.8673034" lon="11.7870641"><ele>1502.3999999999999</ele><time>2026-04-09T15:00:10.648Z</time></trkpt><trkpt lat="45.8672531" lon="11.7869368"><ele>1502.0</ele><time>2026-04-09T15:00:11.63Z</time></trkpt><trkpt lat="45.8672197" lon="11.7867976"><ele>1502.0</ele><time>2026-04-09T15:00:12.633Z</time></trkpt><trkpt lat="45.8671951" lon="11.7866542"><ele>1502.0</ele><time>2026-04-09T15:00:13.634Z</time></trkpt><trkpt lat="45.8671705" lon="11.7865089"><ele>1502.0</ele><time>2026-04-09T15:00:14.638Z</time></trkpt><trkpt lat="45.8671773" lon="11.7863635"><ele>1502.0</ele><time>2026-04-09T15:00:15.631Z</time></trkpt><trkpt lat="45.8672046" lon="11.7862222"><ele>1502.0</ele><time>2026-04-09T15:00:16.634Z</time></trkpt><trkpt lat="45.867248" lon="11.7860865"><ele>1500.25</ele><time>2026-04-09T15:00:17.637Z</time></trkpt><trkpt lat="45.8673041" lon="11.7859559"><ele>1498.5</ele><time>2026-04-09T15:00:18.641Z</time></trkpt><trkpt lat="45.8673776" lon="11.7858281"><ele>1496.75</ele><time>2026-04-09T15:00:19.634Z</time></trkpt><trkpt lat="45.867453" lon="11.785695"><ele>1495.0</ele><time>2026-04-09T15:00:20.633Z</time></trkpt><trkpt lat="45.8675073" lon="11.7855347"><ele>1495.0</ele><time>2026-04-09T15:00:21.63Z</time></trkpt><trkpt lat="45.8675314" lon="11.7853539"><ele>1495.0</ele><time>2026-04-09T15:00:22.631Z</time></trkpt><trkpt lat="45.8675344" lon="11.7851608"><ele>1495.0</ele><time>2026-04-09T15:00:23.627Z</time></trkpt><trkpt lat="45.8675272" lon="11.7849651"><ele>1495.0</ele><time>2026-04-09T15:00:24.634Z</time></trkpt><trkpt lat="45.8675179" lon="11.7847797"><ele>1495.6</ele><time>2026-04-09T15:00:25.633Z</time></trkpt><trkpt lat="45.8675129" lon="11.7846125"><ele>1496.2</ele><time>2026-04-09T15:00:26.637Z</time></trkpt><trkpt lat="45.8675252" lon="11.784468"><ele>1496.8000000000002</ele><time>2026-04-09T15:00:27.635Z</time></trkpt><trkpt lat="45.8675674" lon="11.7843318"><ele>1497.4</ele><time>2026-04-09T15:00:28.635Z</time></trkpt><trkpt lat="45.8676421" lon="11.7842111"><ele>1498.0</ele><time>2026-04-09T15:00:29.636Z</time></trkpt><trkpt lat="45.8677199" lon="11.7841055"><ele>1498.0</ele><time>2026-04-09T15:00:30.643Z</time></trkpt><trkpt lat="45.8677838" lon="11.7840017"><ele>1498.0</ele><time>2026-04-09T15:00:31.643Z</time></trkpt><trkpt lat="45.8678377" lon="11.7839071"><ele>1498.0</ele><time>2026-04-09T15:00:32.627Z</time></trkpt><trkpt lat="45.8678185" lon="11.7837865"><ele>1498.0</ele><time>2026-04-09T15:00:33.632Z</time></trkpt><trkpt lat="45.8677596" lon="11.7836635"><ele>1498.0</ele><time>2026-04-09T15:00:34.636Z</time></trkpt><trkpt lat="45.8676684" lon="11.783539"><ele>1492.25</ele><time>2026-04-09T15:00:35.638Z</time></trkpt><trkpt lat="45.8675615" lon="11.7834086"><ele>1486.5</ele><time>2026-04-09T15:00:36.634Z</time></trkpt><trkpt lat="45.8674412" lon="11.7832756"><ele>1480.75</ele><time>2026-04-09T15:00:37.629Z</time></trkpt><trkpt lat="45.8673148" lon="11.7831422"><ele>1475.0</ele><time>2026-04-09T15:00:38.632Z</time></trkpt><trkpt lat="45.8671939" lon="11.7830101"><ele>1475.0</ele><time>2026-04-09T15:00:39.629Z</time></trkpt><trkpt lat="45.8670791" lon="11.7828856"><ele>1475.0</ele><time>2026-04-09T15:00:40.632Z</time></trkpt><trkpt lat="45.8669695" lon="11.7827678"><ele>1475.0</ele><time>2026-04-09T15:00:41.633Z</time></trkpt><trkpt lat="45.8668644" lon="11.7826592"><ele>1475.0</ele><time>2026-04-09T15:00:42.629Z</time></trkpt><trkpt lat="45.8667658" lon="11.7825542"><ele>1471.25</ele><time>2026-04-09T15:00:43.637Z</time></trkpt><trkpt lat="45.8666787" lon="11.7824334"><ele>1467.5</ele><time>2026-04-09T15:00:44.633Z</time></trkpt><trkpt lat="45.8666093" lon="11.7822941"><ele>1463.75</ele><time>2026-04-09T15:00:45.633Z</time></trkpt><trkpt lat="45.8665651" lon="11.7821369"><ele>1460.0</ele><time>2026-04-09T15:00:46.627Z</time></trkpt><trkpt lat="45.8665566" lon="11.7819702"><ele>1461.25</ele><time>2026-04-09T15:00:47.647Z</time></trkpt><trkpt lat="45.8665806" lon="11.7818046"><ele>1462.5</ele><time>2026-04-09T15:00:48.634Z</time></trkpt><trkpt lat="45.8666111" lon="11.7816367"><ele>1463.75</ele><time>2026-04-09T15:00:49.633Z</time></trkpt><trkpt lat="45.8666144" lon="11.7814615"><ele>1465.0</ele><time>2026-04-09T15:00:50.631Z</time></trkpt><trkpt lat="45.8665824" lon="11.7812874"><ele>1465.0</ele><time>2026-04-09T15:00:51.635Z</time></trkpt><trkpt lat="45.8665295" lon="11.7811156"><ele>1465.0</ele><time>2026-04-09T15:00:52.658Z</time></trkpt><trkpt lat="45.8664828" lon="11.7809357"><ele>1465.0</ele><time>2026-04-09T15:00:53.665Z</time></trkpt><trkpt lat="45.8664477" lon="11.7807467"><ele>1465.0</ele><time>2026-04-09T15:00:54.627Z</time></trkpt><trkpt lat="45.8664217" lon="11.7805503"><ele>1465.0</ele><time>2026-04-09T15:00:55.632Z</time></trkpt><trkpt lat="45.8663996" lon="11.7803522"><ele>1465.0</ele><time>2026-04-09T15:00:56.631Z</time></trkpt><trkpt lat="45.8663807" lon="11.7801731"><ele>1465.0</ele><time>2026-04-09T15:00:57.624Z</time></trkpt><trkpt lat="45.8663673" lon="11.7800196"><ele>1465.0</ele><time>2026-04-09T15:00:58.629Z</time></trkpt><trkpt lat="45.8663706" lon="11.779874"><ele>1464.5</ele><time>2026-04-09T15:00:59.636Z</time></trkpt><trkpt lat="45.8663757" lon="11.7797209"><ele>1464.0</ele><time>2026-04-09T15:01:00.636Z</time></trkpt><trkpt lat="45.8664256" lon="11.7795688"><ele>1463.5</ele><time>2026-04-09T15:01:01.63Z</time></trkpt><trkpt lat="45.8664689" lon="11.7794006"><ele>1463.0</ele><time>2026-04-09T15:01:02.636Z</time></trkpt><trkpt lat="45.8664979" lon="11.7792155"><ele>1460.75</ele><time>2026-04-09T15:01:03.631Z</time></trkpt><trkpt lat="45.8665149" lon="11.7790197"><ele>1458.5</ele><time>2026-04-09T15:01:04.631Z</time></trkpt><trkpt lat="45.8665233" lon="11.7788199"><ele>1456.25</ele><time>2026-04-09T15:01:05.63Z</time></trkpt><trkpt lat="45.8665246" lon="11.7786151"><ele>1454.0</ele><time>2026-04-09T15:01:06.635Z</time></trkpt><trkpt lat="45.8665261" lon="11.7784183"><ele>1452.0</ele><time>2026-04-09T15:01:07.627Z</time></trkpt><trkpt lat="45.866537" lon="11.7782273"><ele>1450.0</ele><time>2026-04-09T15:01:08.628Z</time></trkpt><trkpt lat="45.8665641" lon="11.7780399"><ele>1448.0</ele><time>2026-04-09T15:01:09.635Z</time></trkpt><trkpt lat="45.8666066" lon="11.7778543"><ele>1446.0</ele><time>2026-04-09T15:01:10.632Z</time></trkpt><trkpt lat="45.8666523" lon="11.7776652"><ele>1444.25</ele><time>2026-04-09T15:01:11.626Z</time></trkpt><trkpt lat="45.8666921" lon="11.7774666"><ele>1442.5</ele><time>2026-04-09T15:01:12.626Z</time></trkpt><trkpt lat="45.8667238" lon="11.777262"><ele>1440.75</ele><time>2026-04-09T15:01:13.626Z</time></trkpt><trkpt lat="45.8667535" lon="11.7770552"><ele>1439.0</ele><time>2026-04-09T15:01:14.639Z</time></trkpt><trkpt lat="45.8667896" lon="11.776848"><ele>1446.3333333333335</ele><time>2026-04-09T15:01:15.638Z</time></trkpt><trkpt lat="45.8668329" lon="11.7766415"><ele>1453.6666666666667</ele><time>2026-04-09T15:01:16.627Z</time></trkpt><trkpt lat="45.8668758" lon="11.7764333"><ele>1461.0</ele><time>2026-04-09T15:01:17.625Z</time></trkpt><trkpt lat="45.8669112" lon="11.7762201"><ele>1459.6666666666667</ele><time>2026-04-09T15:01:18.626Z</time></trkpt><trkpt lat="45.8669323" lon="11.7759952"><ele>1458.3333333333335</ele><time>2026-04-09T15:01:19.642Z</time></trkpt><trkpt lat="45.8669421" lon="11.7757643"><ele>1457.0</ele><time>2026-04-09T15:01:20.628Z</time></trkpt><trkpt lat="45.8669473" lon="11.7755455"><ele>1457.0</ele><time>2026-04-09T15:01:21.629Z</time></trkpt><trkpt lat="45.8669513" lon="11.7753376"><ele>1457.0</ele><time>2026-04-09T15:01:22.635Z</time></trkpt><trkpt lat="45.8669524" lon="11.7751398"><ele>1457.0</ele><time>2026-04-09T15:01:23.633Z</time></trkpt><trkpt lat="45.8669416" lon="11.7749486"><ele>1457.0</ele><time>2026-04-09T15:01:24.638Z</time></trkpt><trkpt lat="45.8669118" lon="11.7747635"><ele>1456.5</ele><time>2026-04-09T15:01:25.627Z</time></trkpt><trkpt lat="45.8668633" lon="11.7745859"><ele>1456.0</ele><time>2026-04-09T15:01:26.629Z</time></trkpt><trkpt lat="45.8668019" lon="11.774417"><ele>1455.5</ele><time>2026-04-09T15:01:27.659Z</time></trkpt><trkpt lat="45.8667307" lon="11.7742676"><ele>1455.0</ele><time>2026-04-09T15:01:28.633Z</time></trkpt><trkpt lat="45.8666535" lon="11.7741466"><ele>1450.0</ele><time>2026-04-09T15:01:29.625Z</time></trkpt><trkpt lat="45.8665787" lon="11.7740553"><ele>1445.0</ele><time>2026-04-09T15:01:30.638Z</time></trkpt><trkpt lat="45.8665115" lon="11.7739837"><ele>1440.0</ele><time>2026-04-09T15:01:31.631Z</time></trkpt><trkpt lat="45.8664314" lon="11.7739809"><ele>1435.0</ele><time>2026-04-09T15:01:32.624Z</time></trkpt><trkpt lat="45.8663533" lon="11.7740464"><ele>1430.0</ele><time>2026-04-09T15:01:33.628Z</time></trkpt><trkpt lat="45.8662882" lon="11.7741555"><ele>1430.0</ele><time>2026-04-09T15:01:34.629Z</time></trkpt><trkpt lat="45.8662312" lon="11.774294"><ele>1430.0</ele><time>2026-04-09T15:01:35.636Z</time></trkpt><trkpt lat="45.8661737" lon="11.7744661"><ele>1430.0</ele><time>2026-04-09T15:01:36.63Z</time></trkpt><trkpt lat="45.8661033" lon="11.774653"><ele>1430.0</ele><time>2026-04-09T15:01:37.635Z</time></trkpt><trkpt lat="45.8660156" lon="11.7748414"><ele>1425.3333333333335</ele><time>2026-04-09T15:01:38.631Z</time></trkpt><trkpt lat="45.8659217" lon="11.7750196"><ele>1420.6666666666667</ele><time>2026-04-09T15:01:39.627Z</time></trkpt><trkpt lat="45.8658266" lon="11.7751834"><ele>1416.0</ele><time>2026-04-09T15:01:40.623Z</time></trkpt><trkpt lat="45.8657346" lon="11.7753575"><ele>1412.75</ele><time>2026-04-09T15:01:41.632Z</time></trkpt><trkpt lat="45.865642" lon="11.7755206"><ele>1409.5</ele><time>2026-04-09T15:01:42.634Z</time></trkpt><trkpt lat="45.8655435" lon="11.7756754"><ele>1406.25</ele><time>2026-04-09T15:01:43.632Z</time></trkpt><trkpt lat="45.8654476" lon="11.7758362"><ele>1403.0</ele><time>2026-04-09T15:01:44.639Z</time></trkpt><trkpt lat="45.8653461" lon="11.7759892"><ele>1402.25</ele><time>2026-04-09T15:01:45.676Z</time></trkpt><trkpt lat="45.8652403" lon="11.7761345"><ele>1401.5</ele><time>2026-04-09T15:01:46.635Z</time></trkpt><trkpt lat="45.8651309" lon="11.7762741"><ele>1400.75</ele><time>2026-04-09T15:01:47.635Z</time></trkpt><trkpt lat="45.865018" lon="11.7764093"><ele>1400.0</ele><time>2026-04-09T15:01:48.632Z</time></trkpt><trkpt lat="45.8649067" lon="11.77656"><ele>1399.75</ele><time>2026-04-09T15:01:49.634Z</time></trkpt><trkpt lat="45.8648041" lon="11.77671"><ele>1399.5</ele><time>2026-04-09T15:01:50.632Z</time></trkpt><trkpt lat="45.864709" lon="11.7768616"><ele>1399.25</ele><time>2026-04-09T15:01:51.627Z</time></trkpt><trkpt lat="45.8646177" lon="11.7770091"><ele>1399.0</ele><time>2026-04-09T15:01:52.635Z</time></trkpt><trkpt lat="45.8645237" lon="11.7771537"><ele>1396.5</ele><time>2026-04-09T15:01:53.635Z</time></trkpt><trkpt lat="45.8644299" lon="11.777287"><ele>1394.0</ele><time>2026-04-09T15:01:54.635Z</time></trkpt><trkpt lat="45.8643348" lon="11.7774149"><ele>1391.5</ele><time>2026-04-09T15:01:55.633Z</time></trkpt><trkpt lat="45.8642346" lon="11.7775258"><ele>1389.0</ele><time>2026-04-09T15:01:56.631Z</time></trkpt><trkpt lat="45.8641273" lon="11.7776205"><ele>1387.5</ele><time>2026-04-09T15:01:57.644Z</time></trkpt><trkpt lat="45.8640139" lon="11.7776887"><ele>1386.0</ele><time>2026-04-09T15:01:58.631Z</time></trkpt><trkpt lat="45.8638979" lon="11.7777317"><ele>1384.5</ele><time>2026-04-09T15:01:59.635Z</time></trkpt><trkpt lat="45.8637894" lon="11.7777444"><ele>1383.0</ele><time>2026-04-09T15:02:00.637Z</time></trkpt><trkpt lat="45.8636848" lon="11.7777174"><ele>1382.25</ele><time>2026-04-09T15:02:01.629Z</time></trkpt><trkpt lat="45.8635905" lon="11.7776461"><ele>1381.5</ele><time>2026-04-09T15:02:02.635Z</time></trkpt><trkpt lat="45.8635103" lon="11.7775303"><ele>1380.75</ele><time>2026-04-09T15:02:03.642Z</time></trkpt><trkpt lat="45.8634459" lon="11.7773854"><ele>1380.0</ele><time>2026-04-09T15:02:04.635Z</time></trkpt><trkpt lat="45.863369" lon="11.7772598"><ele>1380.0</ele><time>2026-04-09T15:02:05.628Z</time></trkpt><trkpt lat="45.8632701" lon="11.7771762"><ele>1380.0</ele><time>2026-04-09T15:02:06.627Z</time></trkpt><trkpt lat="45.8631544" lon="11.7771328"><ele>1380.0</ele><time>2026-04-09T15:02:07.63Z</time></trkpt><trkpt lat="45.8630392" lon="11.7770963"><ele>1380.0</ele><time>2026-04-09T15:02:08.627Z</time></trkpt><trkpt lat="45.8629304" lon="11.7770251"><ele>1380.0</ele><time>2026-04-09T15:02:09.627Z</time></trkpt><trkpt lat="45.8628261" lon="11.776911"><ele>1380.0</ele><time>2026-04-09T15:02:10.63Z</time></trkpt><trkpt lat="45.8627218" lon="11.7767739"><ele>1380.0</ele><time>2026-04-09T15:02:11.628Z</time></trkpt><trkpt lat="45.8626119" lon="11.7766286"><ele>1380.0</ele><time>2026-04-09T15:02:12.631Z</time></trkpt><trkpt lat="45.8624964" lon="11.7764903"><ele>1380.75</ele><time>2026-04-09T15:02:13.637Z</time></trkpt><trkpt lat="45.8623802" lon="11.7763563"><ele>1381.5</ele><time>2026-04-09T15:02:14.633Z</time></trkpt><trkpt lat="45.8622668" lon="11.7762236"><ele>1382.25</ele><time>2026-04-09T15:02:15.641Z</time></trkpt><trkpt lat="45.8621675" lon="11.7761031"><ele>1383.0</ele><time>2026-04-09T15:02:16.635Z</time></trkpt><trkpt lat="45.8620787" lon="11.7759825"><ele>1383.0</ele><time>2026-04-09T15:02:17.641Z</time></trkpt><trkpt lat="45.8620022" lon="11.775845"><ele>1383.0</ele><time>2026-04-09T15:02:18.635Z</time></trkpt><trkpt lat="45.8619396" lon="11.7756811"><ele>1383.0</ele><time>2026-04-09T15:02:19.64Z</time></trkpt><trkpt lat="45.8618854" lon="11.7755033"><ele>1383.0</ele><time>2026-04-09T15:02:20.634Z</time></trkpt><trkpt lat="45.8618314" lon="11.775322"><ele>1386.0</ele><time>2026-04-09T15:02:21.631Z</time></trkpt><trkpt lat="45.8617821" lon="11.7751538"><ele>1389.0</ele><time>2026-04-09T15:02:22.632Z</time></trkpt><trkpt lat="45.861742" lon="11.7749894"><ele>1392.0</ele><time>2026-04-09T15:02:23.631Z</time></trkpt><trkpt lat="45.8617201" lon="11.7748103"><ele>1395.0</ele><time>2026-04-09T15:02:24.637Z</time></trkpt><trkpt lat="45.8617247" lon="11.774619"><ele>1395.0</ele><time>2026-04-09T15:02:25.635Z</time></trkpt><trkpt lat="45.8617466" lon="11.7744239"><ele>1395.0</ele><time>2026-04-09T15:02:26.627Z</time></trkpt><trkpt lat="45.861772" lon="11.7742247"><ele>1395.0</ele><time>2026-04-09T15:02:27.629Z</time></trkpt><trkpt lat="45.8617924" lon="11.7740299"><ele>1395.0</ele><time>2026-04-09T15:02:28.637Z</time></trkpt><trkpt lat="45.8617994" lon="11.7738431"><ele>1384.75</ele><time>2026-04-09T15:02:29.629Z</time></trkpt><trkpt lat="45.8617791" lon="11.7736624"><ele>1374.5</ele><time>2026-04-09T15:02:30.627Z</time></trkpt><trkpt lat="45.8617351" lon="11.7734808"><ele>1364.25</ele><time>2026-04-09T15:02:31.627Z</time></trkpt><trkpt lat="45.8616809" lon="11.7732979"><ele>1354.0</ele><time>2026-04-09T15:02:32.645Z</time></trkpt><trkpt lat="45.8616245" lon="11.7731118"><ele>1353.5</ele><time>2026-04-09T15:02:33.628Z</time></trkpt><trkpt lat="45.861573" lon="11.7729199"><ele>1353.0</ele><time>2026-04-09T15:02:34.629Z</time></trkpt><trkpt lat="45.8615312" lon="11.7727228"><ele>1352.5</ele><time>2026-04-09T15:02:35.631Z</time></trkpt><trkpt lat="45.8615024" lon="11.7725259"><ele>1352.0</ele><time>2026-04-09T15:02:36.63Z</time></trkpt><trkpt lat="45.8614851" lon="11.7723469"><ele>1351.25</ele><time>2026-04-09T15:02:37.665Z</time></trkpt><trkpt lat="45.8614882" lon="11.7721771"><ele>1350.5</ele><time>2026-04-09T15:02:38.629Z</time></trkpt><trkpt lat="45.8615222" lon="11.7720068"><ele>1349.75</ele><time>2026-04-09T15:02:39.634Z</time></trkpt><trkpt lat="45.8615762" lon="11.771844"><ele>1349.0</ele><time>2026-04-09T15:02:40.631Z</time></trkpt><trkpt lat="45.8616172" lon="11.7716807"><ele>1347.25</ele><time>2026-04-09T15:02:41.627Z</time></trkpt><trkpt lat="45.8616312" lon="11.7715052"><ele>1345.5</ele><time>2026-04-09T15:02:42.633Z</time></trkpt><trkpt lat="45.8616375" lon="11.7713245"><ele>1343.75</ele><time>2026-04-09T15:02:43.637Z</time></trkpt><trkpt lat="45.8616483" lon="11.7711371"><ele>1342.0</ele><time>2026-04-09T15:02:44.631Z</time></trkpt><trkpt lat="45.8616813" lon="11.7709423"><ele>1339.75</ele><time>2026-04-09T15:02:45.639Z</time></trkpt><trkpt lat="45.8617097" lon="11.7707507"><ele>1337.5</ele><time>2026-04-09T15:02:46.639Z</time></trkpt><trkpt lat="45.861769" lon="11.7705726"><ele>1335.25</ele><time>2026-04-09T15:02:47.638Z</time></trkpt><trkpt lat="45.8618394" lon="11.7704182"><ele>1333.0</ele><time>2026-04-09T15:02:48.632Z</time></trkpt><trkpt lat="45.8619187" lon="11.7702913"><ele>1337.2</ele><time>2026-04-09T15:02:49.633Z</time></trkpt><trkpt lat="45.8619933" lon="11.7701786"><ele>1341.4</ele><time>2026-04-09T15:02:50.638Z</time></trkpt><trkpt lat="45.8620318" lon="11.7700531"><ele>1345.6000000000001</ele><time>2026-04-09T15:02:51.628Z</time></trkpt><trkpt lat="45.862034" lon="11.7699067"><ele>1349.8000000000002</ele><time>2026-04-09T15:02:52.641Z</time></trkpt><trkpt lat="45.8620108" lon="11.7697473"><ele>1354.0</ele><time>2026-04-09T15:02:53.634Z</time></trkpt><trkpt lat="45.8619739" lon="11.7695903"><ele>1354.0</ele><time>2026-04-09T15:02:54.634Z</time></trkpt><trkpt lat="45.8619384" lon="11.7694352"><ele>1354.0</ele><time>2026-04-09T15:02:55.632Z</time></trkpt><trkpt lat="45.8619219" lon="11.7693015"><ele>1354.0</ele><time>2026-04-09T15:02:56.636Z</time></trkpt><trkpt lat="45.8619334" lon="11.769153"><ele>1354.0</ele><time>2026-04-09T15:02:57.63Z</time></trkpt><trkpt lat="45.8619924" lon="11.7690253"><ele>1354.0</ele><time>2026-04-09T15:02:58.635Z</time></trkpt><trkpt lat="45.8620802" lon="11.7689261"><ele>1351.6</ele><time>2026-04-09T15:02:59.632Z</time></trkpt><trkpt lat="45.8621734" lon="11.7688185"><ele>1349.2</ele><time>2026-04-09T15:03:00.639Z</time></trkpt><trkpt lat="45.8622683" lon="11.7687369"><ele>1346.8</ele><time>2026-04-09T15:03:01.63Z</time></trkpt><trkpt lat="45.8623194" lon="11.7686591"><ele>1344.3999999999999</ele><time>2026-04-09T15:03:02.63Z</time></trkpt><trkpt lat="45.8623206" lon="11.7684845"><ele>1342.0</ele><time>2026-04-09T15:03:04.637Z</time></trkpt><trkpt lat="45.862271" lon="11.7684025"><ele>1339.8</ele><time>2026-04-09T15:03:05.638Z</time></trkpt><trkpt lat="45.8622044" lon="11.7683181"><ele>1337.6</ele><time>2026-04-09T15:03:06.637Z</time></trkpt><trkpt lat="45.8621442" lon="11.7682112"><ele>1335.3999999999999</ele><time>2026-04-09T15:03:07.631Z</time></trkpt><trkpt lat="45.8620911" lon="11.7680868"><ele>1333.1999999999998</ele><time>2026-04-09T15:03:08.631Z</time></trkpt><trkpt lat="45.862092" lon="11.7679339"><ele>1331.0</ele><time>2026-04-09T15:03:09.631Z</time></trkpt><trkpt lat="45.8621094" lon="11.7677811"><ele>1331.1666666666667</ele><time>2026-04-09T15:03:10.628Z</time></trkpt><trkpt lat="45.8621248" lon="11.7676503"><ele>1331.3333333333335</ele><time>2026-04-09T15:03:11.636Z</time></trkpt><trkpt lat="45.8621132" lon="11.7675402"><ele>1331.5</ele><time>2026-04-09T15:03:12.628Z</time></trkpt><trkpt lat="45.8620605" lon="11.7674537"><ele>1331.6666666666667</ele><time>2026-04-09T15:03:13.633Z</time></trkpt><trkpt lat="45.8619756" lon="11.7674"><ele>1331.8333333333333</ele><time>2026-04-09T15:03:14.628Z</time></trkpt><trkpt lat="45.8618788" lon="11.7673702"><ele>1332.0</ele><time>2026-04-09T15:03:15.631Z</time></trkpt><trkpt lat="45.8617773" lon="11.7673425"><ele>1327.0</ele><time>2026-04-09T15:03:16.635Z</time></trkpt><trkpt lat="45.8616733" lon="11.7673038"><ele>1322.0</ele><time>2026-04-09T15:03:17.63Z</time></trkpt><trkpt lat="45.8615721" lon="11.7672494"><ele>1317.0</ele><time>2026-04-09T15:03:18.625Z</time></trkpt><trkpt lat="45.861479" lon="11.7671839"><ele>1312.0</ele><time>2026-04-09T15:03:19.634Z</time></trkpt><trkpt lat="45.8613976" lon="11.7671084"><ele>1307.0</ele><time>2026-04-09T15:03:20.628Z</time></trkpt><trkpt lat="45.8613395" lon="11.7670113"><ele>1307.0</ele><time>2026-04-09T15:03:21.636Z</time></trkpt><trkpt lat="45.8613071" lon="11.7668833"><ele>1307.0</ele><time>2026-04-09T15:03:22.634Z</time></trkpt><trkpt lat="45.8613031" lon="11.7667406"><ele>1307.0</ele><time>2026-04-09T15:03:23.628Z</time></trkpt><trkpt lat="45.8613291" lon="11.7666"><ele>1307.0</ele><time>2026-04-09T15:03:24.627Z</time></trkpt><trkpt lat="45.861379" lon="11.7664651"><ele>1307.0</ele><time>2026-04-09T15:03:25.627Z</time></trkpt><trkpt lat="45.8614384" lon="11.7663324"><ele>1308.0</ele><time>2026-04-09T15:03:26.629Z</time></trkpt><trkpt lat="45.8615072" lon="11.7661978"><ele>1309.0</ele><time>2026-04-09T15:03:27.632Z</time></trkpt><trkpt lat="45.8615596" lon="11.7660552"><ele>1310.0</ele><time>2026-04-09T15:03:28.632Z</time></trkpt><trkpt lat="45.8616071" lon="11.7659047"><ele>1311.0</ele><time>2026-04-09T15:03:29.63Z</time></trkpt><trkpt lat="45.861653" lon="11.7657525"><ele>1311.5</ele><time>2026-04-09T15:03:30.636Z</time></trkpt><trkpt lat="45.8616978" lon="11.7656052"><ele>1312.0</ele><time>2026-04-09T15:03:31.639Z</time></trkpt><trkpt lat="45.8617584" lon="11.7654698"><ele>1312.5</ele><time>2026-04-09T15:03:32.63Z</time></trkpt><trkpt lat="45.8618355" lon="11.765345"><ele>1313.0</ele><time>2026-04-09T15:03:33.627Z</time></trkpt><trkpt lat="45.8619296" lon="11.7652355"><ele>1308.25</ele><time>2026-04-09T15:03:34.635Z</time></trkpt><trkpt lat="45.8620289" lon="11.7651335"><ele>1303.5</ele><time>2026-04-09T15:03:35.634Z</time></trkpt><trkpt lat="45.862127" lon="11.7650238"><ele>1298.75</ele><time>2026-04-09T15:03:36.634Z</time></trkpt><trkpt lat="45.8622245" lon="11.7649136"><ele>1294.0</ele><time>2026-04-09T15:03:37.64Z</time></trkpt><trkpt lat="45.8623179" lon="11.7648082"><ele>1294.0</ele><time>2026-04-09T15:03:38.627Z</time></trkpt><trkpt lat="45.8624049" lon="11.7647114"><ele>1294.0</ele><time>2026-04-09T15:03:39.638Z</time></trkpt><trkpt lat="45.8624899" lon="11.7646287"><ele>1294.0</ele><time>2026-04-09T15:03:40.629Z</time></trkpt><trkpt lat="45.8625798" lon="11.7645638"><ele>1294.0</ele><time>2026-04-09T15:03:41.629Z</time></trkpt><trkpt lat="45.8626743" lon="11.7645297"><ele>1294.0</ele><time>2026-04-09T15:03:42.627Z</time></trkpt><trkpt lat="45.8627631" lon="11.7645454"><ele>1293.8333333333333</ele><time>2026-04-09T15:03:43.633Z</time></trkpt><trkpt lat="45.8628367" lon="11.7646091"><ele>1293.6666666666665</ele><time>2026-04-09T15:03:44.627Z</time></trkpt><trkpt lat="45.8628945" lon="11.7647107"><ele>1293.5</ele><time>2026-04-09T15:03:45.633Z</time></trkpt><trkpt lat="45.8629462" lon="11.7648202"><ele>1293.3333333333333</ele><time>2026-04-09T15:03:46.632Z</time></trkpt><trkpt lat="45.8630041" lon="11.7649064"><ele>1293.1666666666667</ele><time>2026-04-09T15:03:47.638Z</time></trkpt><trkpt lat="45.8630628" lon="11.7649833"><ele>1293.0</ele><time>2026-04-09T15:03:48.627Z</time></trkpt><trkpt lat="45.8631404" lon="11.7649728"><ele>1293.0</ele><time>2026-04-09T15:03:49.636Z</time></trkpt><trkpt lat="45.863222" lon="11.7649129"><ele>1293.0</ele><time>2026-04-09T15:03:50.63Z</time></trkpt><trkpt lat="45.8633077" lon="11.7648153"><ele>1293.0</ele><time>2026-04-09T15:03:51.64Z</time></trkpt><trkpt lat="45.8634046" lon="11.7647238"><ele>1293.0</ele><time>2026-04-09T15:03:52.628Z</time></trkpt><trkpt lat="45.863515" lon="11.7646592"><ele>1293.0</ele><time>2026-04-09T15:03:53.634Z</time></trkpt><trkpt lat="45.8636343" lon="11.7646116"><ele>1291.2</ele><time>2026-04-09T15:03:54.635Z</time></trkpt><trkpt lat="45.8637507" lon="11.7645759"><ele>1289.4</ele><time>2026-04-09T15:03:55.627Z</time></trkpt><trkpt lat="45.8638676" lon="11.7645332"><ele>1287.6000000000001</ele><time>2026-04-09T15:03:56.628Z</time></trkpt><trkpt lat="45.8639552" lon="11.7645302"><ele>1285.8000000000002</ele><time>2026-04-09T15:03:57.631Z</time></trkpt><trkpt lat="45.8640313" lon="11.764608"><ele>1284.0</ele><time>2026-04-09T15:03:58.63Z</time></trkpt><trkpt lat="45.8641102" lon="11.7647092"><ele>1284.0</ele><time>2026-04-09T15:03:59.653Z</time></trkpt><trkpt lat="45.8641884" lon="11.7647326"><ele>1284.0</ele><time>2026-04-09T15:04:00.632Z</time></trkpt><trkpt lat="45.8642809" lon="11.7646778"><ele>1284.0</ele><time>2026-04-09T15:04:01.638Z</time></trkpt><trkpt lat="45.864363" lon="11.7646059"><ele>1284.0</ele><time>2026-04-09T15:04:02.634Z</time></trkpt><trkpt lat="45.8644218" lon="11.7645224"><ele>1284.0</ele><time>2026-04-09T15:04:03.628Z</time></trkpt><trkpt lat="45.8644369" lon="11.7644123"><ele>1284.0</ele><time>2026-04-09T15:04:04.626Z</time></trkpt><trkpt lat="45.8644158" lon="11.7642829"><ele>1281.25</ele><time>2026-04-09T15:04:05.626Z</time></trkpt><trkpt lat="45.8643609" lon="11.7641517"><ele>1278.5</ele><time>2026-04-09T15:04:06.635Z</time></trkpt><trkpt lat="45.8642889" lon="11.7640181"><ele>1275.75</ele><time>2026-04-09T15:04:07.637Z</time></trkpt><trkpt lat="45.8642175" lon="11.7638684"><ele>1273.0</ele><time>2026-04-09T15:04:08.635Z</time></trkpt><trkpt lat="45.8641414" lon="11.7637285"><ele>1273.0</ele><time>2026-04-09T15:04:09.641Z</time></trkpt><trkpt lat="45.8640581" lon="11.7636052"><ele>1273.0</ele><time>2026-04-09T15:04:10.634Z</time></trkpt><trkpt lat="45.8639658" lon="11.7635229"><ele>1273.0</ele><time>2026-04-09T15:04:11.631Z</time></trkpt><trkpt lat="45.8638599" lon="11.7634794"><ele>1273.0</ele><time>2026-04-09T15:04:12.633Z</time></trkpt><trkpt lat="45.8637494" lon="11.7634485"><ele>1274.8</ele><time>2026-04-09T15:04:13.629Z</time></trkpt><trkpt lat="45.8636332" lon="11.7634379"><ele>1276.6</ele><time>2026-04-09T15:04:14.633Z</time></trkpt><trkpt lat="45.8635355" lon="11.7634173"><ele>1278.3999999999999</ele><time>2026-04-09T15:04:15.631Z</time></trkpt><trkpt lat="45.8634532" lon="11.7633754"><ele>1280.1999999999998</ele><time>2026-04-09T15:04:16.628Z</time></trkpt><trkpt lat="45.8633782" lon="11.7632951"><ele>1282.0</ele><time>2026-04-09T15:04:17.632Z</time></trkpt><trkpt lat="45.863298" lon="11.7632042"><ele>1278.25</ele><time>2026-04-09T15:04:18.636Z</time></trkpt><trkpt lat="45.86324" lon="11.7630669"><ele>1274.5</ele><time>2026-04-09T15:04:19.625Z</time></trkpt><trkpt lat="45.8631919" lon="11.7629146"><ele>1270.75</ele><time>2026-04-09T15:04:20.633Z</time></trkpt><trkpt lat="45.8631584" lon="11.7627507"><ele>1267.0</ele><time>2026-04-09T15:04:21.635Z</time></trkpt><trkpt lat="45.8631345" lon="11.7625853"><ele>1267.0</ele><time>2026-04-09T15:04:22.635Z</time></trkpt><trkpt lat="45.8631108" lon="11.7624248"><ele>1267.0</ele><time>2026-04-09T15:04:23.632Z</time></trkpt><trkpt lat="45.8630809" lon="11.7622786"><ele>1267.0</ele><time>2026-04-09T15:04:24.628Z</time></trkpt><trkpt lat="45.8630209" lon="11.762151"><ele>1267.0</ele><time>2026-04-09T15:04:25.63Z</time></trkpt><trkpt lat="45.8629324" lon="11.7620537"><ele>1267.0</ele><time>2026-04-09T15:04:26.629Z</time></trkpt><trkpt lat="45.8628292" lon="11.7619843"><ele>1267.0</ele><time>2026-04-09T15:04:27.631Z</time></trkpt><trkpt lat="45.862724" lon="11.7619237"><ele>1267.0</ele><time>2026-04-09T15:04:28.626Z</time></trkpt><trkpt lat="45.8626234" lon="11.761855"><ele>1267.0</ele><time>2026-04-09T15:04:29.626Z</time></trkpt><trkpt lat="45.8625316" lon="11.7617628"><ele>1267.0</ele><time>2026-04-09T15:04:30.631Z</time></trkpt><trkpt lat="45.8624418" lon="11.7616711"><ele>1267.0</ele><time>2026-04-09T15:04:31.661Z</time></trkpt><trkpt lat="45.8623606" lon="11.7615661"><ele>1264.0</ele><time>2026-04-09T15:04:32.634Z</time></trkpt><trkpt lat="45.8622638" lon="11.7615014"><ele>1261.0</ele><time>2026-04-09T15:04:33.635Z</time></trkpt><trkpt lat="45.8621598" lon="11.7614835"><ele>1258.0</ele><time>2026-04-09T15:04:34.637Z</time></trkpt><trkpt lat="45.8620581" lon="11.761486"><ele>1255.0</ele><time>2026-04-09T15:04:35.63Z</time></trkpt><trkpt lat="45.8619558" lon="11.7614959"><ele>1252.0</ele><time>2026-04-09T15:04:36.635Z</time></trkpt><trkpt lat="45.861858" lon="11.7615092"><ele>1250.0</ele><time>2026-04-09T15:04:37.64Z</time></trkpt><trkpt lat="45.8617654" lon="11.7615006"><ele>1248.0</ele><time>2026-04-09T15:04:38.636Z</time></trkpt><trkpt lat="45.8616875" lon="11.7614489"><ele>1246.0</ele><time>2026-04-09T15:04:39.632Z</time></trkpt><trkpt lat="45.8616254" lon="11.7613538"><ele>1244.0</ele><time>2026-04-09T15:04:40.632Z</time></trkpt><trkpt lat="45.8615614" lon="11.7612535"><ele>1242.0</ele><time>2026-04-09T15:04:41.626Z</time></trkpt><trkpt lat="45.861507" lon="11.7611242"><ele>1246.0</ele><time>2026-04-09T15:04:42.629Z</time></trkpt><trkpt lat="45.8614417" lon="11.7610052"><ele>1250.0</ele><time>2026-04-09T15:04:43.629Z</time></trkpt><trkpt lat="45.8613267" lon="11.7609599"><ele>1254.0</ele><time>2026-04-09T15:04:44.624Z</time></trkpt><trkpt lat="45.861212" lon="11.7609206"><ele>1258.0</ele><time>2026-04-09T15:04:45.63Z</time></trkpt><trkpt lat="45.8610952" lon="11.7609194"><ele>1258.0</ele><time>2026-04-09T15:04:46.632Z</time></trkpt><trkpt lat="45.8609835" lon="11.7609491"><ele>1258.0</ele><time>2026-04-09T15:04:47.626Z</time></trkpt><trkpt lat="45.8608719" lon="11.7609734"><ele>1258.0</ele><time>2026-04-09T15:04:48.625Z</time></trkpt><trkpt lat="45.8607567" lon="11.7609904"><ele>1258.0</ele><time>2026-04-09T15:04:49.627Z</time></trkpt><trkpt lat="45.860645" lon="11.7609756"><ele>1255.0</ele><time>2026-04-09T15:04:50.637Z</time></trkpt><trkpt lat="45.8605403" lon="11.7609274"><ele>1252.0</ele><time>2026-04-09T15:04:51.637Z</time></trkpt><trkpt lat="45.8604464" lon="11.7608361"><ele>1249.0</ele><time>2026-04-09T15:04:52.627Z</time></trkpt><trkpt lat="45.8603487" lon="11.7607408"><ele>1246.0</ele><time>2026-04-09T15:04:53.635Z</time></trkpt><trkpt lat="45.8602559" lon="11.7606214"><ele>1246.0</ele><time>2026-04-09T15:04:54.627Z</time></trkpt><trkpt lat="45.8601651" lon="11.760487"><ele>1246.0</ele><time>2026-04-09T15:04:55.627Z</time></trkpt><trkpt lat="45.8600883" lon="11.760336"><ele>1246.0</ele><time>2026-04-09T15:04:56.633Z</time></trkpt><trkpt lat="45.8600264" lon="11.7601589"><ele>1246.0</ele><time>2026-04-09T15:04:57.627Z</time></trkpt><trkpt lat="45.8599687" lon="11.7599777"><ele>1245.5</ele><time>2026-04-09T15:04:58.627Z</time></trkpt><trkpt lat="45.8598985" lon="11.7598"><ele>1245.0</ele><time>2026-04-09T15:04:59.633Z</time></trkpt><trkpt lat="45.859816" lon="11.7596292"><ele>1244.5</ele><time>2026-04-09T15:05:00.628Z</time></trkpt><trkpt lat="45.8597345" lon="11.7594524"><ele>1244.0</ele><time>2026-04-09T15:05:01.63Z</time></trkpt><trkpt lat="45.8596548" lon="11.7592727"><ele>1244.0</ele><time>2026-04-09T15:05:02.631Z</time></trkpt><trkpt lat="45.8595716" lon="11.7590896"><ele>1244.0</ele><time>2026-04-09T15:05:03.631Z</time></trkpt><trkpt lat="45.8594806" lon="11.7589117"><ele>1244.0</ele><time>2026-04-09T15:05:04.626Z</time></trkpt><trkpt lat="45.8593854" lon="11.7587392"><ele>1244.0</ele><time>2026-04-09T15:05:05.628Z</time></trkpt><trkpt lat="45.8592943" lon="11.7585743"><ele>1244.0</ele><time>2026-04-09T15:05:06.63Z</time></trkpt><trkpt lat="45.859208" lon="11.7584165"><ele>1244.0</ele><time>2026-04-09T15:05:07.627Z</time></trkpt><trkpt lat="45.8591336" lon="11.7582703"><ele>1244.0</ele><time>2026-04-09T15:05:08.628Z</time></trkpt><trkpt lat="45.8590719" lon="11.7581315"><ele>1238.75</ele><time>2026-04-09T15:05:09.637Z</time></trkpt><trkpt lat="45.8590302" lon="11.7579891"><ele>1233.5</ele><time>2026-04-09T15:05:10.632Z</time></trkpt><trkpt lat="45.8589936" lon="11.7578429"><ele>1228.25</ele><time>2026-04-09T15:05:11.634Z</time></trkpt><trkpt lat="45.8589927" lon="11.7576813"><ele>1223.0</ele><time>2026-04-09T15:05:12.628Z</time></trkpt><trkpt lat="45.8589884" lon="11.7575002"><ele>1223.0</ele><time>2026-04-09T15:05:13.63Z</time></trkpt><trkpt lat="45.8589656" lon="11.7573131"><ele>1223.0</ele><time>2026-04-09T15:05:14.633Z</time></trkpt><trkpt lat="45.858931" lon="11.757118"><ele>1223.0</ele><time>2026-04-09T15:05:15.631Z</time></trkpt><trkpt lat="45.8588935" lon="11.7569301"><ele>1223.0</ele><time>2026-04-09T15:05:16.629Z</time></trkpt><trkpt lat="45.8588673" lon="11.7567332"><ele>1224.6666666666667</ele><time>2026-04-09T15:05:17.63Z</time></trkpt><trkpt lat="45.8588556" lon="11.7565261"><ele>1226.3333333333333</ele><time>2026-04-09T15:05:18.632Z</time></trkpt><trkpt lat="45.8588516" lon="11.756305"><ele>1228.0</ele><time>2026-04-09T15:05:19.636Z</time></trkpt><trkpt lat="45.858845" lon="11.7560863"><ele>1229.3333333333333</ele><time>2026-04-09T15:05:20.635Z</time></trkpt><trkpt lat="45.858826" lon="11.7558661"><ele>1230.6666666666667</ele><time>2026-04-09T15:05:21.631Z</time></trkpt><trkpt lat="45.8587947" lon="11.7556495"><ele>1232.0</ele><time>2026-04-09T15:05:22.631Z</time></trkpt><trkpt lat="45.8587534" lon="11.7554357"><ele>1232.0</ele><time>2026-04-09T15:05:23.631Z</time></trkpt><trkpt lat="45.858712" lon="11.7552218"><ele>1232.0</ele><time>2026-04-09T15:05:24.635Z</time></trkpt><trkpt lat="45.8586744" lon="11.7550069"><ele>1232.0</ele><time>2026-04-09T15:05:25.638Z</time></trkpt><trkpt lat="45.8586407" lon="11.7547902"><ele>1231.6666666666667</ele><time>2026-04-09T15:05:26.634Z</time></trkpt><trkpt lat="45.8586087" lon="11.7545735"><ele>1231.3333333333333</ele><time>2026-04-09T15:05:27.632Z</time></trkpt><trkpt lat="45.8585749" lon="11.754356"><ele>1231.0</ele><time>2026-04-09T15:05:28.633Z</time></trkpt><trkpt lat="45.8585443" lon="11.7541371"><ele>1231.0</ele><time>2026-04-09T15:05:29.636Z</time></trkpt><trkpt lat="45.8585152" lon="11.7539233"><ele>1231.0</ele><time>2026-04-09T15:05:30.63Z</time></trkpt><trkpt lat="45.8584796" lon="11.7537199"><ele>1231.0</ele><time>2026-04-09T15:05:31.634Z</time></trkpt><trkpt lat="45.8584426" lon="11.7535188"><ele>1231.0</ele><time>2026-04-09T15:05:32.635Z</time></trkpt><trkpt lat="45.858406" lon="11.7533261"><ele>1220.0</ele><time>2026-04-09T15:05:33.632Z</time></trkpt><trkpt lat="45.8583716" lon="11.753136"><ele>1209.0</ele><time>2026-04-09T15:05:34.636Z</time></trkpt><trkpt lat="45.858352" lon="11.7529281"><ele>1198.0</ele><time>2026-04-09T15:05:35.629Z</time></trkpt><trkpt lat="45.8583442" lon="11.7527227"><ele>1187.0</ele><time>2026-04-09T15:05:36.63Z</time></trkpt><trkpt lat="45.8583447" lon="11.7525242"><ele>1185.75</ele><time>2026-04-09T15:05:37.631Z</time></trkpt><trkpt lat="45.8583497" lon="11.7523216"><ele>1184.5</ele><time>2026-04-09T15:05:38.644Z</time></trkpt><trkpt lat="45.8583705" lon="11.752119"><ele>1183.25</ele><time>2026-04-09T15:05:39.632Z</time></trkpt><trkpt lat="45.8584134" lon="11.7519228"><ele>1182.0</ele><time>2026-04-09T15:05:40.637Z</time></trkpt><trkpt lat="45.8584643" lon="11.7517331"><ele>1186.75</ele><time>2026-04-09T15:05:41.631Z</time></trkpt><trkpt lat="45.8585227" lon="11.7515511"><ele>1191.5</ele><time>2026-04-09T15:05:42.633Z</time></trkpt><trkpt lat="45.858577" lon="11.7513759"><ele>1196.25</ele><time>2026-04-09T15:05:43.63Z</time></trkpt><trkpt lat="45.8586162" lon="11.7512005"><ele>1201.0</ele><time>2026-04-09T15:05:44.637Z</time></trkpt><trkpt lat="45.8586546" lon="11.7510322"><ele>1201.0</ele><time>2026-04-09T15:05:45.63Z</time></trkpt><trkpt lat="45.8586545" lon="11.7508615"><ele>1201.0</ele><time>2026-04-09T15:05:46.636Z</time></trkpt><trkpt lat="45.8586347" lon="11.7506598"><ele>1201.0</ele><time>2026-04-09T15:05:47.631Z</time></trkpt><trkpt lat="45.8586135" lon="11.7504638"><ele>1201.0</ele><time>2026-04-09T15:05:48.63Z</time></trkpt><trkpt lat="45.8586229" lon="11.7502716"><ele>1199.75</ele><time>2026-04-09T15:05:49.636Z</time></trkpt><trkpt lat="45.8586445" lon="11.7500876"><ele>1198.5</ele><time>2026-04-09T15:05:50.629Z</time></trkpt><trkpt lat="45.8586679" lon="11.749914"><ele>1197.25</ele><time>2026-04-09T15:05:51.629Z</time></trkpt><trkpt lat="45.8586909" lon="11.7497565"><ele>1196.0</ele><time>2026-04-09T15:05:52.633Z</time></trkpt><trkpt lat="45.8586872" lon="11.749586"><ele>1196.0</ele><time>2026-04-09T15:05:53.634Z</time></trkpt><trkpt lat="45.8586248" lon="11.7494097"><ele>1196.0</ele><time>2026-04-09T15:05:54.624Z</time></trkpt><trkpt lat="45.8585336" lon="11.7492598"><ele>1196.0</ele><time>2026-04-09T15:05:55.635Z</time></trkpt><trkpt lat="45.8584444" lon="11.7490707"><ele>1196.0</ele><time>2026-04-09T15:05:56.625Z</time></trkpt><trkpt lat="45.8583926" lon="11.7488943"><ele>1187.75</ele><time>2026-04-09T15:05:57.629Z</time></trkpt><trkpt lat="45.8583703" lon="11.7487102"><ele>1179.5</ele><time>2026-04-09T15:05:58.628Z</time></trkpt><trkpt lat="45.8583504" lon="11.7485238"><ele>1171.25</ele><time>2026-04-09T15:05:59.627Z</time></trkpt><trkpt lat="45.858329" lon="11.7483354"><ele>1163.0</ele><time>2026-04-09T15:06:00.631Z</time></trkpt><trkpt lat="45.8583194" lon="11.7481511"><ele>1162.25</ele><time>2026-04-09T15:06:01.629Z</time></trkpt><trkpt lat="45.8583279" lon="11.7479639"><ele>1161.5</ele><time>2026-04-09T15:06:02.662Z</time></trkpt><trkpt lat="45.8583451" lon="11.7477814"><ele>1160.75</ele><time>2026-04-09T15:06:03.638Z</time></trkpt><trkpt lat="45.8583671" lon="11.7475957"><ele>1160.0</ele><time>2026-04-09T15:06:04.631Z</time></trkpt><trkpt lat="45.8583824" lon="11.7474039"><ele>1158.25</ele><time>2026-04-09T15:06:05.636Z</time></trkpt><trkpt lat="45.8583957" lon="11.7472112"><ele>1156.5</ele><time>2026-04-09T15:06:06.627Z</time></trkpt><trkpt lat="45.8584074" lon="11.7470185"><ele>1154.75</ele><time>2026-04-09T15:06:07.635Z</time></trkpt><trkpt lat="45.858421" lon="11.7468266"><ele>1153.0</ele><time>2026-04-09T15:06:08.633Z</time></trkpt><trkpt lat="45.8584375" lon="11.7466378"><ele>1156.5</ele><time>2026-04-09T15:06:09.628Z</time></trkpt><trkpt lat="45.8584513" lon="11.7464474"><ele>1160.0</ele><time>2026-04-09T15:06:10.628Z</time></trkpt><trkpt lat="45.8584573" lon="11.7462589"><ele>1163.5</ele><time>2026-04-09T15:06:11.638Z</time></trkpt><trkpt lat="45.8584693" lon="11.7460619"><ele>1167.0</ele><time>2026-04-09T15:06:12.638Z</time></trkpt><trkpt lat="45.8584683" lon="11.7458629"><ele>1167.0</ele><time>2026-04-09T15:06:13.632Z</time></trkpt><trkpt lat="45.8584815" lon="11.7456728"><ele>1167.0</ele><time>2026-04-09T15:06:14.631Z</time></trkpt><trkpt lat="45.8584989" lon="11.745481"><ele>1167.0</ele><time>2026-04-09T15:06:15.638Z</time></trkpt><trkpt lat="45.8585204" lon="11.7453017"><ele>1167.0</ele><time>2026-04-09T15:06:16.633Z</time></trkpt><trkpt lat="45.8585344" lon="11.7451264"><ele>1163.6</ele><time>2026-04-09T15:06:17.639Z</time></trkpt><trkpt lat="45.858544" lon="11.7449598"><ele>1160.2</ele><time>2026-04-09T15:06:18.646Z</time></trkpt><trkpt lat="45.8585636" lon="11.7448168"><ele>1156.8</ele><time>2026-04-09T15:06:19.638Z</time></trkpt><trkpt lat="45.8586064" lon="11.7446964"><ele>1153.4</ele><time>2026-04-09T15:06:20.631Z</time></trkpt><trkpt lat="45.8586534" lon="11.7445924"><ele>1150.0</ele><time>2026-04-09T15:06:21.636Z</time></trkpt><trkpt lat="45.8587501" lon="11.7445357"><ele>1150.0</ele><time>2026-04-09T15:06:22.628Z</time></trkpt><trkpt lat="45.8588595" lon="11.7445045"><ele>1150.0</ele><time>2026-04-09T15:06:23.635Z</time></trkpt><trkpt lat="45.858985" lon="11.7444933"><ele>1150.0</ele><time>2026-04-09T15:06:24.627Z</time></trkpt><trkpt lat="45.8591202" lon="11.74447"><ele>1150.0</ele><time>2026-04-09T15:06:25.644Z</time></trkpt><trkpt lat="45.8592624" lon="11.7444272"><ele>1145.5</ele><time>2026-04-09T15:06:26.632Z</time></trkpt><trkpt lat="45.8594038" lon="11.7443689"><ele>1141.0</ele><time>2026-04-09T15:06:27.628Z</time></trkpt><trkpt lat="45.8595417" lon="11.7443078"><ele>1136.5</ele><time>2026-04-09T15:06:28.627Z</time></trkpt><trkpt lat="45.8596728" lon="11.7442559"><ele>1132.0</ele><time>2026-04-09T15:06:29.634Z</time></trkpt><trkpt lat="45.8597848" lon="11.7442217"><ele>1132.0</ele><time>2026-04-09T15:06:30.627Z</time></trkpt><trkpt lat="45.8598828" lon="11.7441926"><ele>1132.0</ele><time>2026-04-09T15:06:31.646Z</time></trkpt><trkpt lat="45.8599821" lon="11.7442071"><ele>1132.0</ele><time>2026-04-09T15:06:32.624Z</time></trkpt><trkpt lat="45.8600646" lon="11.7443045"><ele>1132.0</ele><time>2026-04-09T15:06:33.634Z</time></trkpt><trkpt lat="45.860141" lon="11.7444193"><ele>1132.0</ele><time>2026-04-09T15:06:34.633Z</time></trkpt><trkpt lat="45.860199" lon="11.7445056"><ele>1134.5</ele><time>2026-04-09T15:06:35.628Z</time></trkpt><trkpt lat="45.8602481" lon="11.744573"><ele>1137.0</ele><time>2026-04-09T15:06:36.629Z</time></trkpt><trkpt lat="45.8603581" lon="11.7445279"><ele>1139.5</ele><time>2026-04-09T15:06:38.632Z</time></trkpt><trkpt lat="45.8603827" lon="11.7444395"><ele>1142.0</ele><time>2026-04-09T15:06:39.63Z</time></trkpt><trkpt lat="45.8603708" lon="11.7443167"><ele>1144.5</ele><time>2026-04-09T15:06:40.637Z</time></trkpt><trkpt lat="45.860347" lon="11.7441749"><ele>1147.0</ele><time>2026-04-09T15:06:41.63Z</time></trkpt><trkpt lat="45.860319" lon="11.7440192"><ele>1149.25</ele><time>2026-04-09T15:06:42.635Z</time></trkpt><trkpt lat="45.8602793" lon="11.7438384"><ele>1151.5</ele><time>2026-04-09T15:06:43.628Z</time></trkpt><trkpt lat="45.8602344" lon="11.7436397"><ele>1153.75</ele><time>2026-04-09T15:06:44.637Z</time></trkpt><trkpt lat="45.8601817" lon="11.7434353"><ele>1156.0</ele><time>2026-04-09T15:06:45.628Z</time></trkpt><trkpt lat="45.86012" lon="11.7432263"><ele>1147.6666666666665</ele><time>2026-04-09T15:06:46.628Z</time></trkpt><trkpt lat="45.8600512" lon="11.7430315"><ele>1139.3333333333333</ele><time>2026-04-09T15:06:47.632Z</time></trkpt><trkpt lat="45.859969" lon="11.7428539"><ele>1131.0</ele><time>2026-04-09T15:06:48.628Z</time></trkpt><trkpt lat="45.8598652" lon="11.7426965"><ele>1131.0</ele><time>2026-04-09T15:06:49.63Z</time></trkpt><trkpt lat="45.8597418" lon="11.7425536"><ele>1131.0</ele><time>2026-04-09T15:06:50.639Z</time></trkpt><trkpt lat="45.8596185" lon="11.7424089"><ele>1131.0</ele><time>2026-04-09T15:06:51.629Z</time></trkpt><trkpt lat="45.8595053" lon="11.7422564"><ele>1131.0</ele><time>2026-04-09T15:06:52.635Z</time></trkpt><trkpt lat="45.8594116" lon="11.742095"><ele>1131.0</ele><time>2026-04-09T15:06:53.633Z</time></trkpt><trkpt lat="45.8593309" lon="11.7419207"><ele>1131.0</ele><time>2026-04-09T15:06:54.63Z</time></trkpt><trkpt lat="45.8592769" lon="11.7417366"><ele>1131.0</ele><time>2026-04-09T15:06:55.627Z</time></trkpt><trkpt lat="45.8592283" lon="11.7415724"><ele>1127.6</ele><time>2026-04-09T15:06:56.629Z</time></trkpt><trkpt lat="45.8591712" lon="11.741445"><ele>1124.1999999999998</ele><time>2026-04-09T15:06:57.629Z</time></trkpt><trkpt lat="45.8591127" lon="11.7413424"><ele>1120.8000000000002</ele><time>2026-04-09T15:06:58.633Z</time></trkpt><trkpt lat="45.8590742" lon="11.7412339"><ele>1117.4</ele><time>2026-04-09T15:06:59.633Z</time></trkpt><trkpt lat="45.8590654" lon="11.7411077"><ele>1114.0</ele><time>2026-04-09T15:07:00.629Z</time></trkpt><trkpt lat="45.8590796" lon="11.7409631"><ele>1114.0</ele><time>2026-04-09T15:07:01.646Z</time></trkpt><trkpt lat="45.8590723" lon="11.7408192"><ele>1114.0</ele><time>2026-04-09T15:07:02.631Z</time></trkpt><trkpt lat="45.8590127" lon="11.7406958"><ele>1114.0</ele><time>2026-04-09T15:07:03.63Z</time></trkpt><trkpt lat="45.8589219" lon="11.7405867"><ele>1114.0</ele><time>2026-04-09T15:07:04.639Z</time></trkpt><trkpt lat="45.8588053" lon="11.7404912"><ele>1114.0</ele><time>2026-04-09T15:07:05.633Z</time></trkpt><trkpt lat="45.8586885" lon="11.7403955"><ele>1114.0</ele><time>2026-04-09T15:07:06.628Z</time></trkpt><trkpt lat="45.858584" lon="11.7402722"><ele>1114.0</ele><time>2026-04-09T15:07:07.633Z</time></trkpt><trkpt lat="45.8584923" lon="11.7401146"><ele>1114.0</ele><time>2026-04-09T15:07:08.637Z</time></trkpt><trkpt lat="45.8584089" lon="11.7399366"><ele>1111.75</ele><time>2026-04-09T15:07:09.633Z</time></trkpt><trkpt lat="45.8583279" lon="11.7397601"><ele>1109.5</ele><time>2026-04-09T15:07:10.626Z</time></trkpt><trkpt lat="45.8582522" lon="11.7395969"><ele>1107.25</ele><time>2026-04-09T15:07:11.624Z</time></trkpt><trkpt lat="45.8581926" lon="11.739445"><ele>1105.0</ele><time>2026-04-09T15:07:12.635Z</time></trkpt><trkpt lat="45.8581749" lon="11.7392762"><ele>1105.0</ele><time>2026-04-09T15:07:13.63Z</time></trkpt><trkpt lat="45.8581567" lon="11.7390694"><ele>1105.0</ele><time>2026-04-09T15:07:14.632Z</time></trkpt><trkpt lat="45.8580994" lon="11.7388935"><ele>1105.0</ele><time>2026-04-09T15:07:15.654Z</time></trkpt><trkpt lat="45.8580509" lon="11.738749"><ele>1105.0</ele><time>2026-04-09T15:07:16.629Z</time></trkpt><trkpt lat="45.8580219" lon="11.7385848"><ele>1104.75</ele><time>2026-04-09T15:07:17.633Z</time></trkpt><trkpt lat="45.8580169" lon="11.7384491"><ele>1104.5</ele><time>2026-04-09T15:07:18.632Z</time></trkpt><trkpt lat="45.8580409" lon="11.7382906"><ele>1104.25</ele><time>2026-04-09T15:07:19.633Z</time></trkpt><trkpt lat="45.8580694" lon="11.7381168"><ele>1104.0</ele><time>2026-04-09T15:07:20.629Z</time></trkpt><trkpt lat="45.8581017" lon="11.7379329"><ele>1104.0</ele><time>2026-04-09T15:07:21.631Z</time></trkpt><trkpt lat="45.8581233" lon="11.7377749"><ele>1104.0</ele><time>2026-04-09T15:07:22.634Z</time></trkpt><trkpt lat="45.8581467" lon="11.737638"><ele>1104.0</ele><time>2026-04-09T15:07:23.626Z</time></trkpt><trkpt lat="45.8582115" lon="11.7375104"><ele>1104.0</ele><time>2026-04-09T15:07:24.632Z</time></trkpt><trkpt lat="45.8582993" lon="11.7373951"><ele>1104.0</ele><time>2026-04-09T15:07:25.634Z</time></trkpt><trkpt lat="45.8583916" lon="11.7372792"><ele>1105.75</ele><time>2026-04-09T15:07:26.636Z</time></trkpt><trkpt lat="45.8584613" lon="11.7371465"><ele>1107.5</ele><time>2026-04-09T15:07:27.629Z</time></trkpt><trkpt lat="45.8585032" lon="11.7369875"><ele>1109.25</ele><time>2026-04-09T15:07:28.63Z</time></trkpt><trkpt lat="45.8585173" lon="11.7368"><ele>1111.0</ele><time>2026-04-09T15:07:29.63Z</time></trkpt><trkpt lat="45.85853" lon="11.736601"><ele>1111.0</ele><time>2026-04-09T15:07:30.632Z</time></trkpt><trkpt lat="45.8585072" lon="11.7364207"><ele>1111.0</ele><time>2026-04-09T15:07:31.63Z</time></trkpt><trkpt lat="45.8584763" lon="11.7362422"><ele>1111.0</ele><time>2026-04-09T15:07:32.631Z</time></trkpt><trkpt lat="45.8584536" lon="11.7360765"><ele>1111.0</ele><time>2026-04-09T15:07:33.632Z</time></trkpt><trkpt lat="45.8584553" lon="11.7358984"><ele>1110.5</ele><time>2026-04-09T15:07:34.625Z</time></trkpt><trkpt lat="45.858458" lon="11.7357145"><ele>1110.0</ele><time>2026-04-09T15:07:35.631Z</time></trkpt><trkpt lat="45.8585061" lon="11.7355159"><ele>1109.5</ele><time>2026-04-09T15:07:36.629Z</time></trkpt><trkpt lat="45.8585526" lon="11.735311"><ele>1109.0</ele><time>2026-04-09T15:07:37.625Z</time></trkpt><trkpt lat="45.8586025" lon="11.7351109"><ele>1107.25</ele><time>2026-04-09T15:07:38.633Z</time></trkpt><trkpt lat="45.8586538" lon="11.7349075"><ele>1105.5</ele><time>2026-04-09T15:07:39.627Z</time></trkpt><trkpt lat="45.8587068" lon="11.7347029"><ele>1103.75</ele><time>2026-04-09T15:07:40.63Z</time></trkpt><trkpt lat="45.8587588" lon="11.734512"><ele>1102.0</ele><time>2026-04-09T15:07:41.63Z</time></trkpt><trkpt lat="45.8588027" lon="11.7343245"><ele>1098.5</ele><time>2026-04-09T15:07:42.629Z</time></trkpt><trkpt lat="45.8588491" lon="11.7341388"><ele>1095.0</ele><time>2026-04-09T15:07:43.628Z</time></trkpt><trkpt lat="45.8588756" lon="11.7339572"><ele>1091.5</ele><time>2026-04-09T15:07:44.638Z</time></trkpt><trkpt lat="45.8588928" lon="11.7337966"><ele>1088.0</ele><time>2026-04-09T15:07:45.629Z</time></trkpt><trkpt lat="45.8589349" lon="11.7336493"><ele>1085.8</ele><time>2026-04-09T15:07:46.627Z</time></trkpt><trkpt lat="45.8589739" lon="11.7335199"><ele>1083.6</ele><time>2026-04-09T15:07:47.628Z</time></trkpt><trkpt lat="45.8590458" lon="11.7334279"><ele>1081.4</ele><time>2026-04-09T15:07:48.628Z</time></trkpt><trkpt lat="45.8591144" lon="11.7333489"><ele>1079.2</ele><time>2026-04-09T15:07:49.631Z</time></trkpt><trkpt lat="45.8591591" lon="11.7332425"><ele>1077.0</ele><time>2026-04-09T15:07:50.628Z</time></trkpt><trkpt lat="45.8591585" lon="11.7331091"><ele>1077.0</ele><time>2026-04-09T15:07:51.628Z</time></trkpt><trkpt lat="45.8591157" lon="11.7329821"><ele>1077.0</ele><time>2026-04-09T15:07:52.632Z</time></trkpt><trkpt lat="45.8590516" lon="11.7328592"><ele>1077.0</ele><time>2026-04-09T15:07:53.627Z</time></trkpt><trkpt lat="45.8589784" lon="11.7327374"><ele>1077.0</ele><time>2026-04-09T15:07:54.627Z</time></trkpt><trkpt lat="45.8589064" lon="11.7326143"><ele>1077.0</ele><time>2026-04-09T15:07:55.627Z</time></trkpt><trkpt lat="45.8588328" lon="11.7325001"><ele>1076.8333333333333</ele><time>2026-04-09T15:07:56.627Z</time></trkpt><trkpt lat="45.8587639" lon="11.7324039"><ele>1076.6666666666667</ele><time>2026-04-09T15:07:57.63Z</time></trkpt><trkpt lat="45.8586956" lon="11.7323339"><ele>1076.5</ele><time>2026-04-09T15:07:58.629Z</time></trkpt><trkpt lat="45.8586164" lon="11.7322909"><ele>1076.3333333333335</ele><time>2026-04-09T15:07:59.627Z</time></trkpt><trkpt lat="45.8585331" lon="11.7322862"><ele>1076.1666666666667</ele><time>2026-04-09T15:08:00.625Z</time></trkpt><trkpt lat="45.8584555" lon="11.7323132"><ele>1076.0</ele><time>2026-04-09T15:08:01.631Z</time></trkpt><trkpt lat="45.858399" lon="11.7323846"><ele>1074.3333333333335</ele><time>2026-04-09T15:08:02.63Z</time></trkpt><trkpt lat="45.8583694" lon="11.7324883"><ele>1072.6666666666667</ele><time>2026-04-09T15:08:03.631Z</time></trkpt><trkpt lat="45.8583546" lon="11.7326101"><ele>1071.0</ele><time>2026-04-09T15:08:04.625Z</time></trkpt><trkpt lat="45.8583501" lon="11.7327368"><ele>1069.3333333333333</ele><time>2026-04-09T15:08:05.628Z</time></trkpt><trkpt lat="45.858345" lon="11.7328486"><ele>1067.6666666666665</ele><time>2026-04-09T15:08:06.643Z</time></trkpt><trkpt lat="45.8583344" lon="11.7329449"><ele>1066.0</ele><time>2026-04-09T15:08:07.631Z</time></trkpt><trkpt lat="45.858321" lon="11.7330386"><ele>1064.8</ele><time>2026-04-09T15:08:08.631Z</time></trkpt><trkpt lat="45.8582597" lon="11.7330879"><ele>1063.6</ele><time>2026-04-09T15:08:09.627Z</time></trkpt><trkpt lat="45.8581657" lon="11.733145"><ele>1062.4</ele><time>2026-04-09T15:08:10.633Z</time></trkpt><trkpt lat="45.8580769" lon="11.733196"><ele>1061.2</ele><time>2026-04-09T15:08:11.628Z</time></trkpt><trkpt lat="45.8579833" lon="11.7332551"><ele>1060.0</ele><time>2026-04-09T15:08:12.631Z</time></trkpt><trkpt lat="45.8578963" lon="11.7333326"><ele>1060.0</ele><time>2026-04-09T15:08:13.636Z</time></trkpt><trkpt lat="45.8578106" lon="11.733426"><ele>1060.0</ele><time>2026-04-09T15:08:14.634Z</time></trkpt><trkpt lat="45.8577297" lon="11.7335102"><ele>1060.0</ele><time>2026-04-09T15:08:15.64Z</time></trkpt><trkpt lat="45.8576424" lon="11.7335761"><ele>1060.0</ele><time>2026-04-09T15:08:16.632Z</time></trkpt><trkpt lat="45.8575404" lon="11.7336089"><ele>1060.0</ele><time>2026-04-09T15:08:17.632Z</time></trkpt><trkpt lat="45.8574351" lon="11.7335954"><ele>1059.8</ele><time>2026-04-09T15:08:18.632Z</time></trkpt><trkpt lat="45.8573335" lon="11.7335489"><ele>1059.6</ele><time>2026-04-09T15:08:19.631Z</time></trkpt><trkpt lat="45.8572448" lon="11.7334951"><ele>1059.4</ele><time>2026-04-09T15:08:20.629Z</time></trkpt><trkpt lat="45.857162" lon="11.7334735"><ele>1059.2</ele><time>2026-04-09T15:08:21.633Z</time></trkpt><trkpt lat="45.8570742" lon="11.7334566"><ele>1059.0</ele><time>2026-04-09T15:08:22.634Z</time></trkpt><trkpt lat="45.8569968" lon="11.7335373"><ele>1059.6000000000001</ele><time>2026-04-09T15:08:23.635Z</time></trkpt><trkpt lat="45.8569392" lon="11.7336469"><ele>1060.2</ele><time>2026-04-09T15:08:24.647Z</time></trkpt><trkpt lat="45.856883" lon="11.7337704"><ele>1060.8000000000002</ele><time>2026-04-09T15:08:25.638Z</time></trkpt><trkpt lat="45.8568268" lon="11.7338843"><ele>1061.4</ele><time>2026-04-09T15:08:26.635Z</time></trkpt><trkpt lat="45.856769" lon="11.7339946"><ele>1062.0</ele><time>2026-04-09T15:08:27.633Z</time></trkpt><trkpt lat="45.8566952" lon="11.7340765"><ele>1062.0</ele><time>2026-04-09T15:08:28.632Z</time></trkpt><trkpt lat="45.8565856" lon="11.734125"><ele>1062.0</ele><time>2026-04-09T15:08:29.641Z</time></trkpt><trkpt lat="45.8564816" lon="11.7341771"><ele>1062.0</ele><time>2026-04-09T15:08:30.636Z</time></trkpt><trkpt lat="45.8564068" lon="11.7343117"><ele>1062.0</ele><time>2026-04-09T15:08:31.627Z</time></trkpt><trkpt lat="45.8563542" lon="11.7344503"><ele>1060.0</ele><time>2026-04-09T15:08:32.632Z</time></trkpt><trkpt lat="45.8563069" lon="11.7345906"><ele>1058.0</ele><time>2026-04-09T15:08:33.634Z</time></trkpt><trkpt lat="45.8562436" lon="11.7347166"><ele>1056.0</ele><time>2026-04-09T15:08:34.637Z</time></trkpt><trkpt lat="45.856175" lon="11.7348248"><ele>1054.0</ele><time>2026-04-09T15:08:35.64Z</time></trkpt><trkpt lat="45.8561125" lon="11.7349299"><ele>1052.0</ele><time>2026-04-09T15:08:36.637Z</time></trkpt><trkpt lat="45.8560432" lon="11.7349935"><ele>1052.0</ele><time>2026-04-09T15:08:37.637Z</time></trkpt><trkpt lat="45.8559664" lon="11.7350454"><ele>1052.0</ele><time>2026-04-09T15:08:38.632Z</time></trkpt><trkpt lat="45.8558744" lon="11.7350795"><ele>1052.0</ele><time>2026-04-09T15:08:39.633Z</time></trkpt><trkpt lat="45.855771" lon="11.7350674"><ele>1052.0</ele><time>2026-04-09T15:08:40.634Z</time></trkpt><trkpt lat="45.8556534" lon="11.7350414"><ele>1052.0</ele><time>2026-04-09T15:08:41.635Z</time></trkpt><trkpt lat="45.855543" lon="11.7350091"><ele>1052.75</ele><time>2026-04-09T15:08:42.647Z</time></trkpt><trkpt lat="45.855436" lon="11.7349108"><ele>1053.5</ele><time>2026-04-09T15:08:43.638Z</time></trkpt><trkpt lat="45.8553296" lon="11.734817"><ele>1054.25</ele><time>2026-04-09T15:08:44.64Z</time></trkpt><trkpt lat="45.8552277" lon="11.7346998"><ele>1055.0</ele><time>2026-04-09T15:08:45.64Z</time></trkpt><trkpt lat="45.8551211" lon="11.7346219"><ele>1053.0</ele><time>2026-04-09T15:08:46.636Z</time></trkpt><trkpt lat="45.8550419" lon="11.7345558"><ele>1051.0</ele><time>2026-04-09T15:08:47.632Z</time></trkpt><trkpt lat="45.8549224" lon="11.7345325"><ele>1049.0</ele><time>2026-04-09T15:08:48.638Z</time></trkpt><trkpt lat="45.8548022" lon="11.73456"><ele>1047.0</ele><time>2026-04-09T15:08:49.638Z</time></trkpt><trkpt lat="45.8546964" lon="11.7346287"><ele>1047.0</ele><time>2026-04-09T15:08:50.633Z</time></trkpt><trkpt lat="45.8546178" lon="11.7347451"><ele>1047.0</ele><time>2026-04-09T15:08:51.635Z</time></trkpt><trkpt lat="45.8545343" lon="11.7348618"><ele>1047.0</ele><time>2026-04-09T15:08:52.641Z</time></trkpt><trkpt lat="45.8544443" lon="11.7349467"><ele>1047.0</ele><time>2026-04-09T15:08:53.638Z</time></trkpt><trkpt lat="45.8543463" lon="11.735022"><ele>1047.0</ele><time>2026-04-09T15:08:54.643Z</time></trkpt><trkpt lat="45.8542363" lon="11.7350495"><ele>1048.8</ele><time>2026-04-09T15:08:55.642Z</time></trkpt><trkpt lat="45.8541231" lon="11.7350416"><ele>1050.6</ele><time>2026-04-09T15:08:56.637Z</time></trkpt><trkpt lat="45.8540318" lon="11.7350866"><ele>1052.3999999999999</ele><time>2026-04-09T15:08:57.637Z</time></trkpt><trkpt lat="45.8539649" lon="11.7351536"><ele>1054.2</ele><time>2026-04-09T15:08:58.644Z</time></trkpt><trkpt lat="45.8539117" lon="11.7352602"><ele>1056.0</ele><time>2026-04-09T15:08:59.639Z</time></trkpt><trkpt lat="45.8538727" lon="11.7353788"><ele>1054.6</ele><time>2026-04-09T15:09:00.638Z</time></trkpt><trkpt lat="45.8538111" lon="11.7354629"><ele>1053.1999999999998</ele><time>2026-04-09T15:09:01.642Z</time></trkpt><trkpt lat="45.8537288" lon="11.7355259"><ele>1051.8000000000002</ele><time>2026-04-09T15:09:02.636Z</time></trkpt><trkpt lat="45.853629" lon="11.7355836"><ele>1050.4</ele><time>2026-04-09T15:09:03.645Z</time></trkpt><trkpt lat="45.8535121" lon="11.7356364"><ele>1049.0</ele><time>2026-04-09T15:09:04.633Z</time></trkpt><trkpt lat="45.8533948" lon="11.7357067"><ele>1049.0</ele><time>2026-04-09T15:09:05.64Z</time></trkpt><trkpt lat="45.8532737" lon="11.735767"><ele>1049.0</ele><time>2026-04-09T15:09:06.64Z</time></trkpt><trkpt lat="45.8531674" lon="11.7358841"><ele>1049.0</ele><time>2026-04-09T15:09:07.64Z</time></trkpt><trkpt lat="45.853056" lon="11.7360123"><ele>1049.0</ele><time>2026-04-09T15:09:08.649Z</time></trkpt><trkpt lat="45.8529487" lon="11.7361385"><ele>1047.5</ele><time>2026-04-09T15:09:09.633Z</time></trkpt><trkpt lat="45.8528326" lon="11.7362516"><ele>1046.0</ele><time>2026-04-09T15:09:10.64Z</time></trkpt><trkpt lat="45.852738" lon="11.7363486"><ele>1044.5</ele><time>2026-04-09T15:09:11.64Z</time></trkpt><trkpt lat="45.8526385" lon="11.7364278"><ele>1043.0</ele><time>2026-04-09T15:09:12.64Z</time></trkpt><trkpt lat="45.8525701" lon="11.7365113"><ele>1043.0</ele><time>2026-04-09T15:09:13.631Z</time></trkpt><trkpt lat="45.8525124" lon="11.7366034"><ele>1043.0</ele><time>2026-04-09T15:09:14.641Z</time></trkpt><trkpt lat="45.8524762" lon="11.7367188"><ele>1043.0</ele><time>2026-04-09T15:09:15.637Z</time></trkpt><trkpt lat="45.8524663" lon="11.7368525"><ele>1043.0</ele><time>2026-04-09T15:09:16.636Z</time></trkpt><trkpt lat="45.852472" lon="11.7370002"><ele>1043.0</ele><time>2026-04-09T15:09:17.635Z</time></trkpt><trkpt lat="45.8524821" lon="11.7371455"><ele>1041.8</ele><time>2026-04-09T15:09:18.633Z</time></trkpt><trkpt lat="45.8524896" lon="11.7372817"><ele>1040.6</ele><time>2026-04-09T15:09:19.636Z</time></trkpt><trkpt lat="45.8524986" lon="11.7374008"><ele>1039.4</ele><time>2026-04-09T15:09:20.634Z</time></trkpt><trkpt lat="45.8524911" lon="11.7375174"><ele>1038.2</ele><time>2026-04-09T15:09:21.63Z</time></trkpt><trkpt lat="45.8524642" lon="11.737637"><ele>1037.0</ele><time>2026-04-09T15:09:22.642Z</time></trkpt><trkpt lat="45.8523914" lon="11.7377607"><ele>1034.5</ele><time>2026-04-09T15:09:23.634Z</time></trkpt><trkpt lat="45.8522909" lon="11.7378588"><ele>1032.0</ele><time>2026-04-09T15:09:24.639Z</time></trkpt><trkpt lat="45.8521814" lon="11.737981"><ele>1029.5</ele><time>2026-04-09T15:09:25.633Z</time></trkpt><trkpt lat="45.8520774" lon="11.7381027"><ele>1027.0</ele><time>2026-04-09T15:09:26.635Z</time></trkpt><trkpt lat="45.8519738" lon="11.7381733"><ele>1027.0</ele><time>2026-04-09T15:09:27.638Z</time></trkpt><trkpt lat="45.8518786" lon="11.7382282"><ele>1027.0</ele><time>2026-04-09T15:09:28.638Z</time></trkpt><trkpt lat="45.851805" lon="11.7383022"><ele>1027.0</ele><time>2026-04-09T15:09:29.632Z</time></trkpt><trkpt lat="45.8517419" lon="11.7383905"><ele>1027.0</ele><time>2026-04-09T15:09:30.635Z</time></trkpt><trkpt lat="45.8517395" lon="11.7385305"><ele>1027.0</ele><time>2026-04-09T15:09:31.638Z</time></trkpt><trkpt lat="45.8517566" lon="11.7386619"><ele>1026.0</ele><time>2026-04-09T15:09:32.641Z</time></trkpt><trkpt lat="45.8518034" lon="11.7387958"><ele>1025.0</ele><time>2026-04-09T15:09:33.636Z</time></trkpt><trkpt lat="45.8518712" lon="11.7389341"><ele>1024.0</ele><time>2026-04-09T15:09:34.639Z</time></trkpt><trkpt lat="45.8519487" lon="11.7390795"><ele>1023.0</ele><time>2026-04-09T15:09:35.644Z</time></trkpt><trkpt lat="45.8520238" lon="11.7392289"><ele>1023.0</ele><time>2026-04-09T15:09:36.637Z</time></trkpt><trkpt lat="45.8520868" lon="11.7393631"><ele>1023.0</ele><time>2026-04-09T15:09:37.633Z</time></trkpt><trkpt lat="45.8521425" lon="11.7394933"><ele>1023.0</ele><time>2026-04-09T15:09:38.643Z</time></trkpt><trkpt lat="45.8521867" lon="11.7396137"><ele>1023.0</ele><time>2026-04-09T15:09:39.636Z</time></trkpt><trkpt lat="45.8522062" lon="11.7397539"><ele>1023.0</ele><time>2026-04-09T15:09:40.634Z</time></trkpt><trkpt lat="45.8522044" lon="11.739918"><ele>1021.75</ele><time>2026-04-09T15:09:41.634Z</time></trkpt><trkpt lat="45.852174" lon="11.7400971"><ele>1020.5</ele><time>2026-04-09T15:09:42.638Z</time></trkpt><trkpt lat="45.8521218" lon="11.7402827"><ele>1019.25</ele><time>2026-04-09T15:09:43.64Z</time></trkpt><trkpt lat="45.8520562" lon="11.7404702"><ele>1018.0</ele><time>2026-04-09T15:09:44.637Z</time></trkpt><trkpt lat="45.851973" lon="11.7406517"><ele>1018.6666666666666</ele><time>2026-04-09T15:09:45.643Z</time></trkpt><trkpt lat="45.8518646" lon="11.7408209"><ele>1019.3333333333333</ele><time>2026-04-09T15:09:46.637Z</time></trkpt><trkpt lat="45.8517527" lon="11.7409936"><ele>1020.0</ele><time>2026-04-09T15:09:47.633Z</time></trkpt><trkpt lat="45.8516338" lon="11.7411885"><ele>1020.0</ele><time>2026-04-09T15:09:48.64Z</time></trkpt><trkpt lat="45.8515359" lon="11.7414307"><ele>1020.0</ele><time>2026-04-09T15:09:49.636Z</time></trkpt><trkpt lat="45.8514484" lon="11.7416541"><ele>1020.0</ele><time>2026-04-09T15:09:50.643Z</time></trkpt><trkpt lat="45.851359" lon="11.7418587"><ele>1015.0</ele><time>2026-04-09T15:09:51.652Z</time></trkpt><trkpt lat="45.851278" lon="11.7420287"><ele>1010.0</ele><time>2026-04-09T15:09:52.66Z</time></trkpt><trkpt lat="45.8512095" lon="11.7421723"><ele>1005.0</ele><time>2026-04-09T15:09:53.638Z</time></trkpt><trkpt lat="45.8511343" lon="11.7423"><ele>1000.0</ele><time>2026-04-09T15:09:54.633Z</time></trkpt><trkpt lat="45.851037" lon="11.742415"><ele>998.3333333333333</ele><time>2026-04-09T15:09:55.637Z</time></trkpt><trkpt lat="45.8509063" lon="11.742524"><ele>996.6666666666667</ele><time>2026-04-09T15:09:56.634Z</time></trkpt><trkpt lat="45.8507512" lon="11.7426332"><ele>995.0</ele><time>2026-04-09T15:09:57.65Z</time></trkpt><trkpt lat="45.8506188" lon="11.7427246"><ele>995.0</ele><time>2026-04-09T15:09:58.63Z</time></trkpt><trkpt lat="45.8505124" lon="11.7427947"><ele>995.0</ele><time>2026-04-09T15:09:59.64Z</time></trkpt><trkpt lat="45.850411" lon="11.7428397"><ele>995.0</ele><time>2026-04-09T15:10:00.638Z</time></trkpt><trkpt lat="45.8503122" lon="11.7428846"><ele>995.0</ele><time>2026-04-09T15:10:01.637Z</time></trkpt><trkpt lat="45.8501905" lon="11.7428489"><ele>997.25</ele><time>2026-04-09T15:10:02.634Z</time></trkpt><trkpt lat="45.8500587" lon="11.7427786"><ele>999.5</ele><time>2026-04-09T15:10:03.632Z</time></trkpt><trkpt lat="45.8499249" lon="11.7427092"><ele>1001.75</ele><time>2026-04-09T15:10:04.631Z</time></trkpt><trkpt lat="45.8497865" lon="11.742704"><ele>1004.0</ele><time>2026-04-09T15:10:05.641Z</time></trkpt><trkpt lat="45.849647" lon="11.7427495"><ele>1004.0</ele><time>2026-04-09T15:10:06.638Z</time></trkpt><trkpt lat="45.8495034" lon="11.7428154"><ele>1004.0</ele><time>2026-04-09T15:10:07.637Z</time></trkpt><trkpt lat="45.849356" lon="11.742876"><ele>1004.0</ele><time>2026-04-09T15:10:08.631Z</time></trkpt><trkpt lat="45.8492053" lon="11.7429168"><ele>1007.6666666666667</ele><time>2026-04-09T15:10:09.636Z</time></trkpt><trkpt lat="45.8490508" lon="11.7429722"><ele>1011.3333333333333</ele><time>2026-04-09T15:10:10.638Z</time></trkpt><trkpt lat="45.8488714" lon="11.7430422"><ele>1015.0</ele><time>2026-04-09T15:10:11.642Z</time></trkpt><trkpt lat="45.8486983" lon="11.7432047"><ele>1015.0</ele><time>2026-04-09T15:10:12.632Z</time></trkpt><trkpt lat="45.8485541" lon="11.7433719"><ele>1015.0</ele><time>2026-04-09T15:10:13.637Z</time></trkpt><trkpt lat="45.8484134" lon="11.7435202"><ele>1015.0</ele><time>2026-04-09T15:10:14.634Z</time></trkpt><trkpt lat="45.8482688" lon="11.7436368"><ele>1012.0</ele><time>2026-04-09T15:10:15.639Z</time></trkpt><trkpt lat="45.8481194" lon="11.7437275"><ele>1009.0</ele><time>2026-04-09T15:10:16.662Z</time></trkpt><trkpt lat="45.8479839" lon="11.7437987"><ele>1006.0</ele><time>2026-04-09T15:10:17.65Z</time></trkpt><trkpt lat="45.8478648" lon="11.7438718"><ele>1003.0</ele><time>2026-04-09T15:10:18.634Z</time></trkpt><trkpt lat="45.8477598" lon="11.743944"><ele>1003.0</ele><time>2026-04-09T15:10:19.637Z</time></trkpt><trkpt lat="45.8476631" lon="11.7440035"><ele>1003.0</ele><time>2026-04-09T15:10:20.634Z</time></trkpt><trkpt lat="45.8475635" lon="11.7440234"><ele>1003.0</ele><time>2026-04-09T15:10:21.639Z</time></trkpt><trkpt lat="45.84747" lon="11.7439935"><ele>1003.0</ele><time>2026-04-09T15:10:22.629Z</time></trkpt><trkpt lat="45.8473726" lon="11.7439299"><ele>1003.0</ele><time>2026-04-09T15:10:23.646Z</time></trkpt><trkpt lat="45.8473179" lon="11.7438084"><ele>1004.5</ele><time>2026-04-09T15:10:24.644Z</time></trkpt><trkpt lat="45.8472685" lon="11.7436542"><ele>1006.0</ele><time>2026-04-09T15:10:25.632Z</time></trkpt><trkpt lat="45.8472031" lon="11.7435033"><ele>1007.5</ele><time>2026-04-09T15:10:26.631Z</time></trkpt><trkpt lat="45.8471099" lon="11.7433684"><ele>1009.0</ele><time>2026-04-09T15:10:27.636Z</time></trkpt><trkpt lat="45.8470241" lon="11.7432399"><ele>1010.6</ele><time>2026-04-09T15:10:28.633Z</time></trkpt><trkpt lat="45.8469242" lon="11.7431869"><ele>1012.2</ele><time>2026-04-09T15:10:29.634Z</time></trkpt><trkpt lat="45.8468235" lon="11.7431648"><ele>1013.8000000000001</ele><time>2026-04-09T15:10:30.633Z</time></trkpt><trkpt lat="45.846726" lon="11.7431592"><ele>1015.4000000000001</ele><time>2026-04-09T15:10:31.632Z</time></trkpt><trkpt lat="45.8466416" lon="11.7432385"><ele>1017.0</ele><time>2026-04-09T15:10:32.651Z</time></trkpt><trkpt lat="45.8465666" lon="11.7433407"><ele>1017.0</ele><time>2026-04-09T15:10:33.633Z</time></trkpt><trkpt lat="45.846501" lon="11.7434545"><ele>1017.0</ele><time>2026-04-09T15:10:34.634Z</time></trkpt><trkpt lat="45.8464434" lon="11.7436051"><ele>1017.0</ele><time>2026-04-09T15:10:35.639Z</time></trkpt><trkpt lat="45.8463822" lon="11.7437417"><ele>1017.0</ele><time>2026-04-09T15:10:36.633Z</time></trkpt><trkpt lat="45.8463161" lon="11.7438867"><ele>1019.75</ele><time>2026-04-09T15:10:37.642Z</time></trkpt><trkpt lat="45.8462371" lon="11.7440165"><ele>1022.5</ele><time>2026-04-09T15:10:38.637Z</time></trkpt><trkpt lat="45.846147" lon="11.7441386"><ele>1025.25</ele><time>2026-04-09T15:10:39.635Z</time></trkpt><trkpt lat="45.8460536" lon="11.7442609"><ele>1028.0</ele><time>2026-04-09T15:10:40.638Z</time></trkpt><trkpt lat="45.8459477" lon="11.7443756"><ele>1022.75</ele><time>2026-04-09T15:10:41.632Z</time></trkpt><trkpt lat="45.8458336" lon="11.7444775"><ele>1017.5</ele><time>2026-04-09T15:10:42.649Z</time></trkpt><trkpt lat="45.8457158" lon="11.7445645"><ele>1012.25</ele><time>2026-04-09T15:10:43.634Z</time></trkpt><trkpt lat="45.8455951" lon="11.7446529"><ele>1007.0</ele><time>2026-04-09T15:10:44.641Z</time></trkpt><trkpt lat="45.8454563" lon="11.7447385"><ele>1007.0</ele><time>2026-04-09T15:10:45.633Z</time></trkpt><trkpt lat="45.8453151" lon="11.7448369"><ele>1007.0</ele><time>2026-04-09T15:10:46.671Z</time></trkpt><trkpt lat="45.8451823" lon="11.7449318"><ele>1007.0</ele><time>2026-04-09T15:10:47.638Z</time></trkpt><trkpt lat="45.8450669" lon="11.745043"><ele>1007.0</ele><time>2026-04-09T15:10:48.632Z</time></trkpt><trkpt lat="45.844967" lon="11.7451241"><ele>1009.0</ele><time>2026-04-09T15:10:49.638Z</time></trkpt><trkpt lat="45.8448758" lon="11.7452018"><ele>1011.0</ele><time>2026-04-09T15:10:50.655Z</time></trkpt><trkpt lat="45.8447651" lon="11.7451806"><ele>1013.0</ele><time>2026-04-09T15:10:51.628Z</time></trkpt><trkpt lat="45.84465" lon="11.7451244"><ele>1015.0</ele><time>2026-04-09T15:10:52.633Z</time></trkpt><trkpt lat="45.8445254" lon="11.7450347"><ele>1015.0</ele><time>2026-04-09T15:10:53.646Z</time></trkpt><trkpt lat="45.8444055" lon="11.7449067"><ele>1015.0</ele><time>2026-04-09T15:10:54.636Z</time></trkpt><trkpt lat="45.8442726" lon="11.744761"><ele>1015.0</ele><time>2026-04-09T15:10:55.629Z</time></trkpt><trkpt lat="45.8441448" lon="11.744606"><ele>1017.6666666666666</ele><time>2026-04-09T15:10:56.641Z</time></trkpt><trkpt lat="45.8440151" lon="11.7444361"><ele>1020.3333333333333</ele><time>2026-04-09T15:10:57.642Z</time></trkpt><trkpt lat="45.8438864" lon="11.7442698"><ele>1023.0</ele><time>2026-04-09T15:10:58.633Z</time></trkpt><trkpt lat="45.8437623" lon="11.7440939"><ele>1023.0</ele><time>2026-04-09T15:10:59.648Z</time></trkpt><trkpt lat="45.8436461" lon="11.7439017"><ele>1023.0</ele><time>2026-04-09T15:11:00.646Z</time></trkpt><trkpt lat="45.8435395" lon="11.7436908"><ele>1023.0</ele><time>2026-04-09T15:11:01.633Z</time></trkpt><trkpt lat="45.8434315" lon="11.743495"><ele>1019.75</ele><time>2026-04-09T15:11:02.639Z</time></trkpt><trkpt lat="45.8433202" lon="11.7433183"><ele>1016.5</ele><time>2026-04-09T15:11:03.638Z</time></trkpt><trkpt lat="45.843217" lon="11.7431654"><ele>1013.25</ele><time>2026-04-09T15:11:04.633Z</time></trkpt><trkpt lat="45.8431272" lon="11.7430407"><ele>1010.0</ele><time>2026-04-09T15:11:05.63Z</time></trkpt><trkpt lat="45.8430491" lon="11.7429367"><ele>1010.0</ele><time>2026-04-09T15:11:06.637Z</time></trkpt><trkpt lat="45.8429822" lon="11.7428208"><ele>1010.0</ele><time>2026-04-09T15:11:07.632Z</time></trkpt><trkpt lat="45.842938" lon="11.742693"><ele>1010.0</ele><time>2026-04-09T15:11:08.639Z</time></trkpt><trkpt lat="45.8429333" lon="11.7425206"><ele>1010.0</ele><time>2026-04-09T15:11:09.634Z</time></trkpt><trkpt lat="45.8429604" lon="11.7423102"><ele>1014.3333333333334</ele><time>2026-04-09T15:11:10.654Z</time></trkpt><trkpt lat="45.8429676" lon="11.7420902"><ele>1018.6666666666667</ele><time>2026-04-09T15:11:11.636Z</time></trkpt><trkpt lat="45.8429486" lon="11.7418485"><ele>1023.0</ele><time>2026-04-09T15:11:12.64Z</time></trkpt><trkpt lat="45.842907" lon="11.7416002"><ele>1025.3333333333333</ele><time>2026-04-09T15:11:13.649Z</time></trkpt><trkpt lat="45.8428732" lon="11.741339"><ele>1027.6666666666665</ele><time>2026-04-09T15:11:14.637Z</time></trkpt><trkpt lat="45.8428452" lon="11.7410951"><ele>1030.0</ele><time>2026-04-09T15:11:15.637Z</time></trkpt><trkpt lat="45.8428284" lon="11.7408876"><ele>1031.6</ele><time>2026-04-09T15:11:16.636Z</time></trkpt><trkpt lat="45.8428062" lon="11.7407231"><ele>1033.2</ele><time>2026-04-09T15:11:17.637Z</time></trkpt><trkpt lat="45.8427757" lon="11.7405918"><ele>1034.8</ele><time>2026-04-09T15:11:18.631Z</time></trkpt><trkpt lat="45.842706" lon="11.7405023"><ele>1036.4</ele><time>2026-04-09T15:11:19.643Z</time></trkpt><trkpt lat="45.8425958" lon="11.7404649"><ele>1038.0</ele><time>2026-04-09T15:11:20.635Z</time></trkpt><trkpt lat="45.8424612" lon="11.7404775"><ele>1029.5</ele><time>2026-04-09T15:11:21.63Z</time></trkpt><trkpt lat="45.8423351" lon="11.7405052"><ele>1021.0</ele><time>2026-04-09T15:11:22.633Z</time></trkpt><trkpt lat="45.8422326" lon="11.7405097"><ele>1012.5</ele><time>2026-04-09T15:11:23.639Z</time></trkpt><trkpt lat="45.8420999" lon="11.7404304"><ele>1004.0</ele><time>2026-04-09T15:11:24.642Z</time></trkpt><trkpt lat="45.8419442" lon="11.7403361"><ele>1004.0</ele><time>2026-04-09T15:11:25.639Z</time></trkpt><trkpt lat="45.8418038" lon="11.7402264"><ele>1004.0</ele><time>2026-04-09T15:11:26.638Z</time></trkpt><trkpt lat="45.8416735" lon="11.7401213"><ele>1004.0</ele><time>2026-04-09T15:11:27.654Z</time></trkpt><trkpt lat="45.8415711" lon="11.7399731"><ele>1005.0</ele><time>2026-04-09T15:11:28.644Z</time></trkpt><trkpt lat="45.8414606" lon="11.7398019"><ele>1006.0</ele><time>2026-04-09T15:11:29.639Z</time></trkpt><trkpt lat="45.8413747" lon="11.7395913"><ele>1007.0</ele><time>2026-04-09T15:11:30.664Z</time></trkpt><trkpt lat="45.8412985" lon="11.7393846"><ele>1004.5</ele><time>2026-04-09T15:11:31.642Z</time></trkpt><trkpt lat="45.8412272" lon="11.7391968"><ele>1002.0</ele><time>2026-04-09T15:11:32.645Z</time></trkpt><trkpt lat="45.8411216" lon="11.7390634"><ele>999.5</ele><time>2026-04-09T15:11:33.641Z</time></trkpt><trkpt lat="45.8409826" lon="11.738954"><ele>997.0</ele><time>2026-04-09T15:11:34.66Z</time></trkpt><trkpt lat="45.8408525" lon="11.7388533"><ele>997.0</ele><time>2026-04-09T15:11:35.638Z</time></trkpt><trkpt lat="45.8407354" lon="11.7387329"><ele>997.0</ele><time>2026-04-09T15:11:36.634Z</time></trkpt><trkpt lat="45.8406276" lon="11.7385647"><ele>997.0</ele><time>2026-04-09T15:11:37.64Z</time></trkpt><trkpt lat="45.8405284" lon="11.7383343"><ele>1003.0</ele><time>2026-04-09T15:11:38.639Z</time></trkpt><trkpt lat="45.840425" lon="11.7380869"><ele>1009.0</ele><time>2026-04-09T15:11:39.643Z</time></trkpt><trkpt lat="45.8403117" lon="11.7378669"><ele>1015.0</ele><time>2026-04-09T15:11:40.632Z</time></trkpt><trkpt lat="45.8401904" lon="11.7376796"><ele>1011.0</ele><time>2026-04-09T15:11:41.634Z</time></trkpt><trkpt lat="45.8400463" lon="11.737527"><ele>1007.0</ele><time>2026-04-09T15:11:42.635Z</time></trkpt><trkpt lat="45.8398794" lon="11.7374023"><ele>1003.0</ele><time>2026-04-09T15:11:43.635Z</time></trkpt><trkpt lat="45.8397075" lon="11.7372656"><ele>1003.0</ele><time>2026-04-09T15:11:44.631Z</time></trkpt><trkpt lat="45.8395495" lon="11.7371149"><ele>1003.0</ele><time>2026-04-09T15:11:45.652Z</time></trkpt><trkpt lat="45.8394138" lon="11.7369729"><ele>1003.0</ele><time>2026-04-09T15:11:46.647Z</time></trkpt><trkpt lat="45.8392872" lon="11.736852"><ele>1001.0</ele><time>2026-04-09T15:11:47.639Z</time></trkpt><trkpt lat="45.8391394" lon="11.7367742"><ele>999.0</ele><time>2026-04-09T15:11:48.638Z</time></trkpt><trkpt lat="45.8389617" lon="11.7367415"><ele>997.0</ele><time>2026-04-09T15:11:49.635Z</time></trkpt><trkpt lat="45.8387574" lon="11.7367403"><ele>997.0</ele><time>2026-04-09T15:11:50.632Z</time></trkpt><trkpt lat="45.8385407" lon="11.7367435"><ele>997.0</ele><time>2026-04-09T15:11:51.636Z</time></trkpt><trkpt lat="45.8383448" lon="11.7367433"><ele>997.0</ele><time>2026-04-09T15:11:52.643Z</time></trkpt><trkpt lat="45.8381747" lon="11.7367394"><ele>997.75</ele><time>2026-04-09T15:11:53.635Z</time></trkpt><trkpt lat="45.838021" lon="11.7367324"><ele>998.5</ele><time>2026-04-09T15:11:54.634Z</time></trkpt><trkpt lat="45.8378768" lon="11.7367241"><ele>999.25</ele><time>2026-04-09T15:11:55.634Z</time></trkpt><trkpt lat="45.8377453" lon="11.7366279"><ele>1000.0</ele><time>2026-04-09T15:11:56.65Z</time></trkpt><trkpt lat="45.8376116" lon="11.7365057"><ele>1001.0</ele><time>2026-04-09T15:11:57.643Z</time></trkpt><trkpt lat="45.8374642" lon="11.7363999"><ele>1002.0</ele><time>2026-04-09T15:11:58.635Z</time></trkpt><trkpt lat="45.8372906" lon="11.7363048"><ele>1003.0</ele><time>2026-04-09T15:11:59.643Z</time></trkpt><trkpt lat="45.8371112" lon="11.7362159"><ele>1003.0</ele><time>2026-04-09T15:12:00.658Z</time></trkpt><trkpt lat="45.8369397" lon="11.7361173"><ele>1003.0</ele><time>2026-04-09T15:12:01.645Z</time></trkpt><trkpt lat="45.8367733" lon="11.7360333"><ele>1003.0</ele><time>2026-04-09T15:12:02.688Z</time></trkpt><trkpt lat="45.8366057" lon="11.7359826"><ele>1002.6666666666666</ele><time>2026-04-09T15:12:03.662Z</time></trkpt><trkpt lat="45.8364425" lon="11.7359365"><ele>1002.3333333333333</ele><time>2026-04-09T15:12:04.643Z</time></trkpt><trkpt lat="45.8362855" lon="11.7358639"><ele>1002.0</ele><time>2026-04-09T15:12:05.637Z</time></trkpt><trkpt lat="45.8361349" lon="11.7357531"><ele>1002.0</ele><time>2026-04-09T15:12:06.637Z</time></trkpt><trkpt lat="45.8359897" lon="11.7356045"><ele>1002.0</ele><time>2026-04-09T15:12:07.634Z</time></trkpt><trkpt lat="45.8358471" lon="11.7354261"><ele>1002.0</ele><time>2026-04-09T15:12:08.634Z</time></trkpt><trkpt lat="45.8356954" lon="11.7352333"><ele>1004.0</ele><time>2026-04-09T15:12:09.636Z</time></trkpt><trkpt lat="45.8355408" lon="11.7350662"><ele>1006.0</ele><time>2026-04-09T15:12:10.643Z</time></trkpt><trkpt lat="45.8354002" lon="11.7349275"><ele>1008.0</ele><time>2026-04-09T15:12:11.632Z</time></trkpt><trkpt lat="45.83528" lon="11.7348073"><ele>1008.0</ele><time>2026-04-09T15:12:12.635Z</time></trkpt><trkpt lat="45.8351808" lon="11.7346937"><ele>1008.0</ele><time>2026-04-09T15:12:13.632Z</time></trkpt><trkpt lat="45.835089" lon="11.7345822"><ele>1008.0</ele><time>2026-04-09T15:12:14.64Z</time></trkpt><trkpt lat="45.8350389" lon="11.7344099"><ele>1008.0</ele><time>2026-04-09T15:12:15.631Z</time></trkpt><trkpt lat="45.8350016" lon="11.7342384"><ele>1010.8</ele><time>2026-04-09T15:12:16.647Z</time></trkpt><trkpt lat="45.8349594" lon="11.734098"><ele>1013.5999999999999</ele><time>2026-04-09T15:12:17.635Z</time></trkpt><trkpt lat="45.8349015" lon="11.734005"><ele>1016.4000000000001</ele><time>2026-04-09T15:12:18.635Z</time></trkpt><trkpt lat="45.8348194" lon="11.7339507"><ele>1019.2</ele><time>2026-04-09T15:12:19.638Z</time></trkpt><trkpt lat="45.8347306" lon="11.7339175"><ele>1022.0</ele><time>2026-04-09T15:12:20.646Z</time></trkpt><trkpt lat="45.8346165" lon="11.7339489"><ele>1022.0</ele><time>2026-04-09T15:12:21.639Z</time></trkpt><trkpt lat="45.8344986" lon="11.7340066"><ele>1022.0</ele><time>2026-04-09T15:12:22.631Z</time></trkpt><trkpt lat="45.8343888" lon="11.734086"><ele>1022.0</ele><time>2026-04-09T15:12:23.672Z</time></trkpt><trkpt lat="45.834281" lon="11.7342048"><ele>1022.0</ele><time>2026-04-09T15:12:24.636Z</time></trkpt><trkpt lat="45.8341733" lon="11.7343499"><ele>1022.0</ele><time>2026-04-09T15:12:25.637Z</time></trkpt><trkpt lat="45.8340649" lon="11.7345021"><ele>1022.0</ele><time>2026-04-09T15:12:26.653Z</time></trkpt><trkpt lat="45.8339467" lon="11.7346563"><ele>1022.0</ele><time>2026-04-09T15:12:27.649Z</time></trkpt><trkpt lat="45.8338235" lon="11.7348045"><ele>1022.0</ele><time>2026-04-09T15:12:28.645Z</time></trkpt><trkpt lat="45.8336868" lon="11.7349305"><ele>1022.0</ele><time>2026-04-09T15:12:29.663Z</time></trkpt><trkpt lat="45.8335384" lon="11.7350193"><ele>1022.0</ele><time>2026-04-09T15:12:30.642Z</time></trkpt><trkpt lat="45.8333818" lon="11.7350753"><ele>1021.25</ele><time>2026-04-09T15:12:31.648Z</time></trkpt><trkpt lat="45.8332365" lon="11.7351177"><ele>1020.5</ele><time>2026-04-09T15:12:32.638Z</time></trkpt><trkpt lat="45.8331087" lon="11.7351412"><ele>1019.75</ele><time>2026-04-09T15:12:33.651Z</time></trkpt><trkpt lat="45.8329977" lon="11.7351545"><ele>1019.0</ele><time>2026-04-09T15:12:34.641Z</time></trkpt><trkpt lat="45.8329028" lon="11.7351894"><ele>1019.75</ele><time>2026-04-09T15:12:35.644Z</time></trkpt><trkpt lat="45.8328189" lon="11.735275"><ele>1020.5</ele><time>2026-04-09T15:12:36.636Z</time></trkpt><trkpt lat="45.8327528" lon="11.7354106"><ele>1021.25</ele><time>2026-04-09T15:12:37.64Z</time></trkpt><trkpt lat="45.8326871" lon="11.7355545"><ele>1022.0</ele><time>2026-04-09T15:12:38.643Z</time></trkpt><trkpt lat="45.8326122" lon="11.73571"><ele>1022.0</ele><time>2026-04-09T15:12:39.643Z</time></trkpt><trkpt lat="45.8325143" lon="11.7358235"><ele>1022.0</ele><time>2026-04-09T15:12:40.644Z</time></trkpt><trkpt lat="45.8324056" lon="11.7359353"><ele>1022.0</ele><time>2026-04-09T15:12:41.64Z</time></trkpt><trkpt lat="45.8322531" lon="11.7359664"><ele>1022.0</ele><time>2026-04-09T15:12:42.652Z</time></trkpt><trkpt lat="45.8321124" lon="11.7359753"><ele>1022.0</ele><time>2026-04-09T15:12:43.641Z</time></trkpt><trkpt lat="45.831988" lon="11.7359582"><ele>1022.0</ele><time>2026-04-09T15:12:44.644Z</time></trkpt><trkpt lat="45.8318825" lon="11.7359601"><ele>1022.0</ele><time>2026-04-09T15:12:45.65Z</time></trkpt><trkpt lat="45.8317886" lon="11.7360114"><ele>1022.0</ele><time>2026-04-09T15:12:46.646Z</time></trkpt><trkpt lat="45.8317151" lon="11.7361157"><ele>1022.0</ele><time>2026-04-09T15:12:47.641Z</time></trkpt><trkpt lat="45.8316606" lon="11.73628"><ele>1021.25</ele><time>2026-04-09T15:12:48.644Z</time></trkpt><trkpt lat="45.8316175" lon="11.7364746"><ele>1020.5</ele><time>2026-04-09T15:12:49.642Z</time></trkpt><trkpt lat="45.831567" lon="11.7366423"><ele>1019.75</ele><time>2026-04-09T15:12:50.64Z</time></trkpt><trkpt lat="45.8314943" lon="11.7367762"><ele>1019.0</ele><time>2026-04-09T15:12:51.642Z</time></trkpt><trkpt lat="45.8314067" lon="11.7369171"><ele>1023.0</ele><time>2026-04-09T15:12:52.644Z</time></trkpt><trkpt lat="45.8312645" lon="11.736958"><ele>1027.0</ele><time>2026-04-09T15:12:53.64Z</time></trkpt><trkpt lat="45.8310971" lon="11.7369658"><ele>1031.0</ele><time>2026-04-09T15:12:54.637Z</time></trkpt><trkpt lat="45.8309169" lon="11.7369753"><ele>1031.0</ele><time>2026-04-09T15:12:55.646Z</time></trkpt><trkpt lat="45.8307416" lon="11.7370104"><ele>1031.0</ele><time>2026-04-09T15:12:56.645Z</time></trkpt><trkpt lat="45.8305605" lon="11.7370442"><ele>1031.0</ele><time>2026-04-09T15:12:57.635Z</time></trkpt><trkpt lat="45.8303529" lon="11.736999"><ele>1028.6666666666667</ele><time>2026-04-09T15:12:58.651Z</time></trkpt><trkpt lat="45.8301335" lon="11.7369401"><ele>1026.3333333333333</ele><time>2026-04-09T15:12:59.647Z</time></trkpt><trkpt lat="45.8299228" lon="11.736895"><ele>1024.0</ele><time>2026-04-09T15:13:00.643Z</time></trkpt><trkpt lat="45.829726" lon="11.7368674"><ele>1012.5</ele><time>2026-04-09T15:13:01.654Z</time></trkpt><trkpt lat="45.8293737" lon="11.7367687"><ele>1001.0</ele><time>2026-04-09T15:13:03.645Z</time></trkpt><trkpt lat="45.8291989" lon="11.7367201"><ele>1001.0</ele><time>2026-04-09T15:13:04.648Z</time></trkpt><trkpt lat="45.8290294" lon="11.7367032"><ele>1001.0</ele><time>2026-04-09T15:13:05.671Z</time></trkpt><trkpt lat="45.8288762" lon="11.7367027"><ele>1001.0</ele><time>2026-04-09T15:13:06.644Z</time></trkpt><trkpt lat="45.8287412" lon="11.7367075"><ele>1001.0</ele><time>2026-04-09T15:13:07.645Z</time></trkpt><trkpt lat="45.828619" lon="11.7367169"><ele>1001.0</ele><time>2026-04-09T15:13:08.635Z</time></trkpt><trkpt lat="45.8285079" lon="11.736755"><ele>1001.0</ele><time>2026-04-09T15:13:09.634Z</time></trkpt><trkpt lat="45.8283987" lon="11.7368248"><ele>1001.0</ele><time>2026-04-09T15:13:10.636Z</time></trkpt><trkpt lat="45.8283054" lon="11.7369406"><ele>1001.3333333333334</ele><time>2026-04-09T15:13:11.638Z</time></trkpt><trkpt lat="45.8282279" lon="11.7371043"><ele>1001.6666666666667</ele><time>2026-04-09T15:13:12.635Z</time></trkpt><trkpt lat="45.8281695" lon="11.7373018"><ele>1002.0</ele><time>2026-04-09T15:13:13.648Z</time></trkpt><trkpt lat="45.8281187" lon="11.7375234"><ele>1001.0</ele><time>2026-04-09T15:13:14.637Z</time></trkpt><trkpt lat="45.8281092" lon="11.7377656"><ele>1000.0</ele><time>2026-04-09T15:13:15.633Z</time></trkpt><trkpt lat="45.8281233" lon="11.7380237"><ele>999.0</ele><time>2026-04-09T15:13:16.637Z</time></trkpt><trkpt lat="45.828153" lon="11.7382757"><ele>999.0</ele><time>2026-04-09T15:13:17.64Z</time></trkpt><trkpt lat="45.8282032" lon="11.7385019"><ele>999.0</ele><time>2026-04-09T15:13:18.644Z</time></trkpt><trkpt lat="45.8282637" lon="11.7386998"><ele>999.0</ele><time>2026-04-09T15:13:19.634Z</time></trkpt><trkpt lat="45.8283146" lon="11.7388851"><ele>996.5</ele><time>2026-04-09T15:13:20.658Z</time></trkpt><trkpt lat="45.8283503" lon="11.7390594"><ele>994.0</ele><time>2026-04-09T15:13:21.632Z</time></trkpt><trkpt lat="45.8283576" lon="11.7392268"><ele>991.5</ele><time>2026-04-09T15:13:22.641Z</time></trkpt><trkpt lat="45.828331" lon="11.7393939"><ele>989.0</ele><time>2026-04-09T15:13:23.645Z</time></trkpt><trkpt lat="45.8282912" lon="11.7395617"><ele>987.25</ele><time>2026-04-09T15:13:24.641Z</time></trkpt><trkpt lat="45.8282029" lon="11.7396836"><ele>985.5</ele><time>2026-04-09T15:13:25.645Z</time></trkpt><trkpt lat="45.8281254" lon="11.739798"><ele>983.75</ele><time>2026-04-09T15:13:26.638Z</time></trkpt><trkpt lat="45.8280684" lon="11.7399374"><ele>982.0</ele><time>2026-04-09T15:13:27.633Z</time></trkpt><trkpt lat="45.8280635" lon="11.7401092"><ele>980.2</ele><time>2026-04-09T15:13:28.64Z</time></trkpt><trkpt lat="45.8280819" lon="11.7402785"><ele>978.4000000000001</ele><time>2026-04-09T15:13:29.643Z</time></trkpt><trkpt lat="45.8281221" lon="11.7404192"><ele>976.5999999999999</ele><time>2026-04-09T15:13:30.639Z</time></trkpt><trkpt lat="45.8281823" lon="11.7405257"><ele>974.8</ele><time>2026-04-09T15:13:31.637Z</time></trkpt><trkpt lat="45.8282731" lon="11.740604"><ele>973.0</ele><time>2026-04-09T15:13:32.645Z</time></trkpt><trkpt lat="45.8283974" lon="11.7406535"><ele>973.3333333333333</ele><time>2026-04-09T15:13:33.636Z</time></trkpt><trkpt lat="45.8285367" lon="11.7407089"><ele>973.6666666666667</ele><time>2026-04-09T15:13:34.636Z</time></trkpt><trkpt lat="45.8287297" lon="11.740725"><ele>974.0</ele><time>2026-04-09T15:13:35.646Z</time></trkpt><trkpt lat="45.8289257" lon="11.7407367"><ele>974.0</ele><time>2026-04-09T15:13:36.635Z</time></trkpt><trkpt lat="45.8291146" lon="11.7407474"><ele>974.0</ele><time>2026-04-09T15:13:37.635Z</time></trkpt><trkpt lat="45.829284" lon="11.7407656"><ele>974.0</ele><time>2026-04-09T15:13:38.638Z</time></trkpt><trkpt lat="45.8294115" lon="11.7407638"><ele>977.0</ele><time>2026-04-09T15:13:39.634Z</time></trkpt><trkpt lat="45.8295214" lon="11.740771"><ele>980.0000000000001</ele><time>2026-04-09T15:13:40.633Z</time></trkpt><trkpt lat="45.829599" lon="11.7407574"><ele>983.0000000000001</ele><time>2026-04-09T15:13:41.635Z</time></trkpt><trkpt lat="45.8296734" lon="11.7407967"><ele>986.0</ele><time>2026-04-09T15:13:42.635Z</time></trkpt><trkpt lat="45.8297269" lon="11.7409207"><ele>989.0</ele><time>2026-04-09T15:13:43.642Z</time></trkpt><trkpt lat="45.8297552" lon="11.7410625"><ele>989.75</ele><time>2026-04-09T15:13:44.636Z</time></trkpt><trkpt lat="45.829709" lon="11.7412064"><ele>990.5</ele><time>2026-04-09T15:13:45.633Z</time></trkpt><trkpt lat="45.8296422" lon="11.7413453"><ele>991.25</ele><time>2026-04-09T15:13:46.637Z</time></trkpt><trkpt lat="45.8295663" lon="11.7415109"><ele>992.0</ele><time>2026-04-09T15:13:47.633Z</time></trkpt><trkpt lat="45.8295037" lon="11.7416913"><ele>994.3333333333334</ele><time>2026-04-09T15:13:48.629Z</time></trkpt><trkpt lat="45.8294428" lon="11.7418865"><ele>996.6666666666667</ele><time>2026-04-09T15:13:49.639Z</time></trkpt><trkpt lat="45.8293736" lon="11.7420862"><ele>999.0</ele><time>2026-04-09T15:13:50.632Z</time></trkpt><trkpt lat="45.8293185" lon="11.7423052"><ele>987.3333333333333</ele><time>2026-04-09T15:13:51.644Z</time></trkpt><trkpt lat="45.8292508" lon="11.7425225"><ele>975.6666666666666</ele><time>2026-04-09T15:13:52.634Z</time></trkpt><trkpt lat="45.8291744" lon="11.7427264"><ele>964.0</ele><time>2026-04-09T15:13:53.628Z</time></trkpt><trkpt lat="45.8291075" lon="11.7429576"><ele>964.0</ele><time>2026-04-09T15:13:54.635Z</time></trkpt><trkpt lat="45.8290583" lon="11.7431967"><ele>964.0</ele><time>2026-04-09T15:13:55.637Z</time></trkpt><trkpt lat="45.8290193" lon="11.7434442"><ele>964.0</ele><time>2026-04-09T15:13:56.653Z</time></trkpt><trkpt lat="45.8289954" lon="11.7436834"><ele>963.5</ele><time>2026-04-09T15:13:57.633Z</time></trkpt><trkpt lat="45.8289689" lon="11.7439133"><ele>963.0</ele><time>2026-04-09T15:13:58.637Z</time></trkpt><trkpt lat="45.8289635" lon="11.7441164"><ele>962.5</ele><time>2026-04-09T15:13:59.63Z</time></trkpt><trkpt lat="45.8289568" lon="11.7442961"><ele>962.0</ele><time>2026-04-09T15:14:00.632Z</time></trkpt><trkpt lat="45.828952" lon="11.744442"><ele>957.5</ele><time>2026-04-09T15:14:01.644Z</time></trkpt><trkpt lat="45.8289666" lon="11.7445886"><ele>953.0</ele><time>2026-04-09T15:14:02.636Z</time></trkpt><trkpt lat="45.8290216" lon="11.7447248"><ele>948.5</ele><time>2026-04-09T15:14:03.634Z</time></trkpt><trkpt lat="45.8291103" lon="11.7448453"><ele>944.0</ele><time>2026-04-09T15:14:04.631Z</time></trkpt><trkpt lat="45.8292253" lon="11.7449513"><ele>945.25</ele><time>2026-04-09T15:14:05.636Z</time></trkpt><trkpt lat="45.8293456" lon="11.7450479"><ele>946.5</ele><time>2026-04-09T15:14:06.634Z</time></trkpt><trkpt lat="45.8294724" lon="11.7451107"><ele>947.75</ele><time>2026-04-09T15:14:07.634Z</time></trkpt><trkpt lat="45.8295898" lon="11.7451617"><ele>949.0</ele><time>2026-04-09T15:14:08.635Z</time></trkpt><trkpt lat="45.8296928" lon="11.745199"><ele>948.9999999999999</ele><time>2026-04-09T15:14:09.63Z</time></trkpt><trkpt lat="45.8297778" lon="11.745211"><ele>949.0</ele><time>2026-04-09T15:14:10.636Z</time></trkpt><trkpt lat="45.8298471" lon="11.7452166"><ele>949.0</ele><time>2026-04-09T15:14:11.643Z</time></trkpt><trkpt lat="45.8299212" lon="11.7453212"><ele>949.0</ele><time>2026-04-09T15:14:13.642Z</time></trkpt><trkpt lat="45.8298707" lon="11.7454168"><ele>948.9999999999999</ele><time>2026-04-09T15:14:15.639Z</time></trkpt><trkpt lat="45.8297921" lon="11.7454057"><ele>949.0</ele><time>2026-04-09T15:14:16.638Z</time></trkpt><trkpt lat="45.829694" lon="11.7453653"><ele>944.75</ele><time>2026-04-09T15:14:17.632Z</time></trkpt><trkpt lat="45.8295943" lon="11.7453123"><ele>940.5</ele><time>2026-04-09T15:14:18.629Z</time></trkpt><trkpt lat="45.8294571" lon="11.745301"><ele>936.25</ele><time>2026-04-09T15:14:19.647Z</time></trkpt><trkpt lat="45.829312" lon="11.7453027"><ele>932.0</ele><time>2026-04-09T15:14:20.632Z</time></trkpt><trkpt lat="45.8291745" lon="11.7452912"><ele>929.0</ele><time>2026-04-09T15:14:21.634Z</time></trkpt><trkpt lat="45.8290502" lon="11.7452632"><ele>926.0</ele><time>2026-04-09T15:14:22.633Z</time></trkpt><trkpt lat="45.8289152" lon="11.7452165"><ele>923.0</ele><time>2026-04-09T15:14:23.632Z</time></trkpt><trkpt lat="45.8287994" lon="11.7451201"><ele>920.0</ele><time>2026-04-09T15:14:24.636Z</time></trkpt><trkpt lat="45.8287069" lon="11.7449789"><ele>920.5</ele><time>2026-04-09T15:14:25.637Z</time></trkpt><trkpt lat="45.8286208" lon="11.7448101"><ele>921.0</ele><time>2026-04-09T15:14:26.635Z</time></trkpt><trkpt lat="45.8285501" lon="11.7446202"><ele>921.5</ele><time>2026-04-09T15:14:27.632Z</time></trkpt><trkpt lat="45.8284892" lon="11.7444194"><ele>922.0</ele><time>2026-04-09T15:14:28.636Z</time></trkpt><trkpt lat="45.8284553" lon="11.7441875"><ele>922.0</ele><time>2026-04-09T15:14:29.635Z</time></trkpt><trkpt lat="45.8284136" lon="11.7439441"><ele>922.0</ele><time>2026-04-09T15:14:30.631Z</time></trkpt><trkpt lat="45.8284261" lon="11.7437165"><ele>922.0</ele><time>2026-04-09T15:14:31.635Z</time></trkpt><trkpt lat="45.8284419" lon="11.743482"><ele>922.25</ele><time>2026-04-09T15:14:32.637Z</time></trkpt><trkpt lat="45.8284453" lon="11.7432649"><ele>922.5</ele><time>2026-04-09T15:14:33.635Z</time></trkpt><trkpt lat="45.8284309" lon="11.7430682"><ele>922.75</ele><time>2026-04-09T15:14:34.633Z</time></trkpt><trkpt lat="45.8284119" lon="11.7428964"><ele>923.0</ele><time>2026-04-09T15:14:35.639Z</time></trkpt><trkpt lat="45.8283979" lon="11.7427389"><ele>923.5999999999999</ele><time>2026-04-09T15:14:36.638Z</time></trkpt><trkpt lat="45.8283498" lon="11.7426067"><ele>924.1999999999999</ele><time>2026-04-09T15:14:37.638Z</time></trkpt><trkpt lat="45.8282809" lon="11.7425119"><ele>924.8</ele><time>2026-04-09T15:14:38.638Z</time></trkpt><trkpt lat="45.8281861" lon="11.7424752"><ele>925.4</ele><time>2026-04-09T15:14:39.64Z</time></trkpt><trkpt lat="45.8280923" lon="11.7424359"><ele>926.0</ele><time>2026-04-09T15:14:40.63Z</time></trkpt><trkpt lat="45.8279635" lon="11.7424374"><ele>926.0</ele><time>2026-04-09T15:14:41.631Z</time></trkpt><trkpt lat="45.8278109" lon="11.742467"><ele>926.0</ele><time>2026-04-09T15:14:42.632Z</time></trkpt><trkpt lat="45.8276696" lon="11.7425431"><ele>926.0</ele><time>2026-04-09T15:14:43.638Z</time></trkpt><trkpt lat="45.8275217" lon="11.7425981"><ele>920.6666666666667</ele><time>2026-04-09T15:14:44.629Z</time></trkpt><trkpt lat="45.8273696" lon="11.7426178"><ele>915.3333333333333</ele><time>2026-04-09T15:14:45.634Z</time></trkpt><trkpt lat="45.8272097" lon="11.7425997"><ele>910.0</ele><time>2026-04-09T15:14:46.637Z</time></trkpt><trkpt lat="45.8270463" lon="11.7425378"><ele>910.0</ele><time>2026-04-09T15:14:47.634Z</time></trkpt><trkpt lat="45.8268896" lon="11.7424201"><ele>910.0</ele><time>2026-04-09T15:14:48.635Z</time></trkpt><trkpt lat="45.8267599" lon="11.742328"><ele>910.0</ele><time>2026-04-09T15:14:49.63Z</time></trkpt><trkpt lat="45.8266422" lon="11.7421812"><ele>908.3333333333333</ele><time>2026-04-09T15:14:50.642Z</time></trkpt><trkpt lat="45.8265472" lon="11.7419955"><ele>906.6666666666667</ele><time>2026-04-09T15:14:51.631Z</time></trkpt><trkpt lat="45.8264603" lon="11.7417694"><ele>905.0</ele><time>2026-04-09T15:14:52.634Z</time></trkpt><trkpt lat="45.8263754" lon="11.7415503"><ele>905.0</ele><time>2026-04-09T15:14:53.634Z</time></trkpt><trkpt lat="45.8262984" lon="11.7413341"><ele>905.0</ele><time>2026-04-09T15:14:54.63Z</time></trkpt><trkpt lat="45.826224" lon="11.741113"><ele>905.0</ele><time>2026-04-09T15:14:55.643Z</time></trkpt><trkpt lat="45.8261894" lon="11.7408702"><ele>906.3333333333334</ele><time>2026-04-09T15:14:56.634Z</time></trkpt><trkpt lat="45.8261596" lon="11.7406124"><ele>907.6666666666667</ele><time>2026-04-09T15:14:57.631Z</time></trkpt><trkpt lat="45.8261324" lon="11.74035"><ele>909.0</ele><time>2026-04-09T15:14:58.637Z</time></trkpt><trkpt lat="45.8261084" lon="11.740099"><ele>909.0</ele><time>2026-04-09T15:14:59.637Z</time></trkpt><trkpt lat="45.8261046" lon="11.7398551"><ele>909.0</ele><time>2026-04-09T15:15:00.643Z</time></trkpt><trkpt lat="45.8261018" lon="11.7396322"><ele>909.0</ele><time>2026-04-09T15:15:01.637Z</time></trkpt><trkpt lat="45.8260814" lon="11.7394315"><ele>908.25</ele><time>2026-04-09T15:15:02.639Z</time></trkpt><trkpt lat="45.8260242" lon="11.7392514"><ele>907.5</ele><time>2026-04-09T15:15:03.634Z</time></trkpt><trkpt lat="45.8259382" lon="11.739077"><ele>906.75</ele><time>2026-04-09T15:15:04.633Z</time></trkpt><trkpt lat="45.8258526" lon="11.7389036"><ele>906.0</ele><time>2026-04-09T15:15:05.636Z</time></trkpt><trkpt lat="45.8257618" lon="11.7387437"><ele>898.25</ele><time>2026-04-09T15:15:06.635Z</time></trkpt><trkpt lat="45.8256968" lon="11.738576"><ele>890.5</ele><time>2026-04-09T15:15:07.64Z</time></trkpt><trkpt lat="45.8256293" lon="11.7384077"><ele>882.75</ele><time>2026-04-09T15:15:08.634Z</time></trkpt><trkpt lat="45.8255465" lon="11.7382953"><ele>875.0</ele><time>2026-04-09T15:15:09.632Z</time></trkpt><trkpt lat="45.8254321" lon="11.7382181"><ele>875.0</ele><time>2026-04-09T15:15:10.639Z</time></trkpt><trkpt lat="45.8253159" lon="11.7381261"><ele>875.0</ele><time>2026-04-09T15:15:11.634Z</time></trkpt><trkpt lat="45.8252211" lon="11.7379873"><ele>875.0</ele><time>2026-04-09T15:15:12.633Z</time></trkpt><trkpt lat="45.8251454" lon="11.7378066"><ele>875.0</ele><time>2026-04-09T15:15:13.629Z</time></trkpt><trkpt lat="45.8250681" lon="11.7376217"><ele>869.3333333333334</ele><time>2026-04-09T15:15:14.637Z</time></trkpt><trkpt lat="45.8249683" lon="11.7374605"><ele>863.6666666666667</ele><time>2026-04-09T15:15:15.63Z</time></trkpt><trkpt lat="45.8248388" lon="11.7373216"><ele>858.0</ele><time>2026-04-09T15:15:16.637Z</time></trkpt><trkpt lat="45.8247026" lon="11.7371955"><ele>858.0</ele><time>2026-04-09T15:15:17.63Z</time></trkpt><trkpt lat="45.8245716" lon="11.7370835"><ele>858.0</ele><time>2026-04-09T15:15:18.633Z</time></trkpt><trkpt lat="45.8244455" lon="11.7369918"><ele>858.0</ele><time>2026-04-09T15:15:19.629Z</time></trkpt><trkpt lat="45.8243328" lon="11.7369245"><ele>858.0</ele><time>2026-04-09T15:15:20.631Z</time></trkpt><trkpt lat="45.8242162" lon="11.7369093"><ele>857.5999999999999</ele><time>2026-04-09T15:15:21.636Z</time></trkpt><trkpt lat="45.8240975" lon="11.7369411"><ele>857.1999999999999</ele><time>2026-04-09T15:15:22.633Z</time></trkpt><trkpt lat="45.8239824" lon="11.7370064"><ele>856.8</ele><time>2026-04-09T15:15:23.636Z</time></trkpt><trkpt lat="45.8238835" lon="11.7370732"><ele>856.4</ele><time>2026-04-09T15:15:24.634Z</time></trkpt><trkpt lat="45.8238128" lon="11.7371523"><ele>856.0</ele><time>2026-04-09T15:15:25.626Z</time></trkpt><trkpt lat="45.8237642" lon="11.7372429"><ele>856.0</ele><time>2026-04-09T15:15:26.631Z</time></trkpt><trkpt lat="45.8237753" lon="11.7373766"><ele>856.0</ele><time>2026-04-09T15:15:27.647Z</time></trkpt><trkpt lat="45.8237951" lon="11.7375265"><ele>856.0</ele><time>2026-04-09T15:15:28.633Z</time></trkpt><trkpt lat="45.8238976" lon="11.7376238"><ele>856.0</ele><time>2026-04-09T15:15:29.65Z</time></trkpt><trkpt lat="45.8240405" lon="11.7377571"><ele>855.0</ele><time>2026-04-09T15:15:30.637Z</time></trkpt><trkpt lat="45.8241732" lon="11.7379214"><ele>854.0</ele><time>2026-04-09T15:15:31.629Z</time></trkpt><trkpt lat="45.8242608" lon="11.7380741"><ele>853.0</ele><time>2026-04-09T15:15:32.645Z</time></trkpt><trkpt lat="45.8243113" lon="11.7382346"><ele>852.0</ele><time>2026-04-09T15:15:33.634Z</time></trkpt><trkpt lat="45.8243246" lon="11.7384113"><ele>855.0</ele><time>2026-04-09T15:15:34.651Z</time></trkpt><trkpt lat="45.8242887" lon="11.7386139"><ele>858.0</ele><time>2026-04-09T15:15:35.635Z</time></trkpt><trkpt lat="45.8242479" lon="11.7388393"><ele>861.0</ele><time>2026-04-09T15:15:36.632Z</time></trkpt><trkpt lat="45.8241989" lon="11.739105"><ele>859.5</ele><time>2026-04-09T15:15:37.635Z</time></trkpt><trkpt lat="45.8241646" lon="11.7394271"><ele>858.0</ele><time>2026-04-09T15:15:38.636Z</time></trkpt><trkpt lat="45.8241166" lon="11.7397905"><ele>858.0</ele><time>2026-04-09T15:15:39.64Z</time></trkpt><trkpt lat="45.8240742" lon="11.7401363"><ele>858.0</ele><time>2026-04-09T15:15:40.64Z</time></trkpt><trkpt lat="45.8240308" lon="11.7404581"><ele>855.0</ele><time>2026-04-09T15:15:41.631Z</time></trkpt><trkpt lat="45.8240004" lon="11.7407317"><ele>852.0</ele><time>2026-04-09T15:15:42.636Z</time></trkpt><trkpt lat="45.8239852" lon="11.7409719"><ele>849.0</ele><time>2026-04-09T15:15:43.659Z</time></trkpt><trkpt lat="45.8239652" lon="11.7412202"><ele>848.5</ele><time>2026-04-09T15:15:44.636Z</time></trkpt><trkpt lat="45.8239314" lon="11.7414186"><ele>848.0</ele><time>2026-04-09T15:15:45.638Z</time></trkpt><trkpt lat="45.8238844" lon="11.7416188"><ele>847.5</ele><time>2026-04-09T15:15:46.638Z</time></trkpt><trkpt lat="45.8238057" lon="11.7417966"><ele>847.0</ele><time>2026-04-09T15:15:47.647Z</time></trkpt><trkpt lat="45.8237117" lon="11.7419707"><ele>845.5</ele><time>2026-04-09T15:15:48.633Z</time></trkpt><trkpt lat="45.8236213" lon="11.7421474"><ele>844.0</ele><time>2026-04-09T15:15:49.639Z</time></trkpt><trkpt lat="45.8235462" lon="11.742308"><ele>842.5</ele><time>2026-04-09T15:15:50.631Z</time></trkpt><trkpt lat="45.8234689" lon="11.7424504"><ele>841.0</ele><time>2026-04-09T15:15:51.642Z</time></trkpt><trkpt lat="45.8234031" lon="11.7425791"><ele>846.0</ele><time>2026-04-09T15:15:52.635Z</time></trkpt><trkpt lat="45.8232897" lon="11.7426523"><ele>851.0</ele><time>2026-04-09T15:15:53.635Z</time></trkpt><trkpt lat="45.8231469" lon="11.7427188"><ele>856.0</ele><time>2026-04-09T15:15:54.638Z</time></trkpt><trkpt lat="45.822986" lon="11.7427276"><ele>861.0</ele><time>2026-04-09T15:15:55.636Z</time></trkpt><trkpt lat="45.8228426" lon="11.7427259"><ele>861.0</ele><time>2026-04-09T15:15:56.632Z</time></trkpt><trkpt lat="45.8226993" lon="11.7426743"><ele>861.0</ele><time>2026-04-09T15:15:57.634Z</time></trkpt><trkpt lat="45.8225427" lon="11.7425578"><ele>861.0</ele><time>2026-04-09T15:15:58.631Z</time></trkpt><trkpt lat="45.8223824" lon="11.7424382"><ele>859.75</ele><time>2026-04-09T15:15:59.631Z</time></trkpt><trkpt lat="45.8222524" lon="11.7423257"><ele>858.5</ele><time>2026-04-09T15:16:00.632Z</time></trkpt><trkpt lat="45.8221542" lon="11.7422452"><ele>857.25</ele><time>2026-04-09T15:16:01.636Z</time></trkpt><trkpt lat="45.8220269" lon="11.7422282"><ele>856.0</ele><time>2026-04-09T15:16:02.64Z</time></trkpt><trkpt lat="45.8219006" lon="11.7422308"><ele>854.0</ele><time>2026-04-09T15:16:03.632Z</time></trkpt><trkpt lat="45.8217699" lon="11.7422276"><ele>852.0</ele><time>2026-04-09T15:16:04.63Z</time></trkpt><trkpt lat="45.8216739" lon="11.7422245"><ele>850.0</ele><time>2026-04-09T15:16:05.633Z</time></trkpt><trkpt lat="45.8215668" lon="11.7421388"><ele>848.0</ele><time>2026-04-09T15:16:06.632Z</time></trkpt><trkpt lat="45.8214757" lon="11.7420439"><ele>848.0</ele><time>2026-04-09T15:16:07.64Z</time></trkpt><trkpt lat="45.821405" lon="11.7419588"><ele>848.0</ele><time>2026-04-09T15:16:08.639Z</time></trkpt><trkpt lat="45.8212983" lon="11.7419621"><ele>848.0</ele><time>2026-04-09T15:16:09.636Z</time></trkpt><trkpt lat="45.8211962" lon="11.7420125"><ele>848.0</ele><time>2026-04-09T15:16:10.631Z</time></trkpt><trkpt lat="45.8210973" lon="11.742075"><ele>848.0</ele><time>2026-04-09T15:16:11.634Z</time></trkpt><trkpt lat="45.8209755" lon="11.7421098"><ele>852.25</ele><time>2026-04-09T15:16:12.636Z</time></trkpt><trkpt lat="45.8208578" lon="11.7421438"><ele>856.5</ele><time>2026-04-09T15:16:13.642Z</time></trkpt><trkpt lat="45.820732" lon="11.7420625"><ele>860.75</ele><time>2026-04-09T15:16:14.638Z</time></trkpt><trkpt lat="45.8206177" lon="11.7419472"><ele>865.0</ele><time>2026-04-09T15:16:15.65Z</time></trkpt><trkpt lat="45.8204643" lon="11.7418542"><ele>865.0</ele><time>2026-04-09T15:16:16.638Z</time></trkpt><trkpt lat="45.8203124" lon="11.7418082"><ele>865.0</ele><time>2026-04-09T15:16:17.639Z</time></trkpt><trkpt lat="45.8201855" lon="11.7417899"><ele>865.0</ele><time>2026-04-09T15:16:18.637Z</time></trkpt><trkpt lat="45.8200844" lon="11.74177"><ele>865.0</ele><time>2026-04-09T15:16:19.636Z</time></trkpt><trkpt lat="45.819985" lon="11.7416842"><ele>857.75</ele><time>2026-04-09T15:16:20.647Z</time></trkpt><trkpt lat="45.819899" lon="11.7415509"><ele>850.5</ele><time>2026-04-09T15:16:21.641Z</time></trkpt><trkpt lat="45.8198267" lon="11.7414053"><ele>843.25</ele><time>2026-04-09T15:16:22.638Z</time></trkpt><trkpt lat="45.8197549" lon="11.7412739"><ele>836.0</ele><time>2026-04-09T15:16:23.642Z</time></trkpt><trkpt lat="45.8196651" lon="11.7411633"><ele>836.0</ele><time>2026-04-09T15:16:24.637Z</time></trkpt><trkpt lat="45.819556" lon="11.7410855"><ele>836.0</ele><time>2026-04-09T15:16:25.641Z</time></trkpt><trkpt lat="45.8194225" lon="11.7410328"><ele>836.0</ele><time>2026-04-09T15:16:26.637Z</time></trkpt><trkpt lat="45.8192849" lon="11.7409998"><ele>836.0</ele><time>2026-04-09T15:16:27.633Z</time></trkpt><trkpt lat="45.8191573" lon="11.7409719"><ele>834.25</ele><time>2026-04-09T15:16:28.637Z</time></trkpt><trkpt lat="45.8190466" lon="11.7409558"><ele>832.5</ele><time>2026-04-09T15:16:29.64Z</time></trkpt><trkpt lat="45.8189398" lon="11.7409744"><ele>830.75</ele><time>2026-04-09T15:16:30.634Z</time></trkpt><trkpt lat="45.8188395" lon="11.7410552"><ele>829.0</ele><time>2026-04-09T15:16:31.699Z</time></trkpt><trkpt lat="45.8186425" lon="11.7413004"><ele>827.4000000000001</ele><time>2026-04-09T15:16:33.64Z</time></trkpt><trkpt lat="45.8185475" lon="11.7414188"><ele>825.8</ele><time>2026-04-09T15:16:34.639Z</time></trkpt><trkpt lat="45.8184589" lon="11.7415274"><ele>824.2</ele><time>2026-04-09T15:16:35.641Z</time></trkpt><trkpt lat="45.8183785" lon="11.7416203"><ele>822.5999999999999</ele><time>2026-04-09T15:16:36.654Z</time></trkpt><trkpt lat="45.818307" lon="11.741693"><ele>821.0</ele><time>2026-04-09T15:16:37.635Z</time></trkpt><trkpt lat="45.8182432" lon="11.741737"><ele>821.0</ele><time>2026-04-09T15:16:38.634Z</time></trkpt><trkpt lat="45.8181431" lon="11.7417509"><ele>821.0</ele><time>2026-04-09T15:16:40.636Z</time></trkpt><trkpt lat="45.81803" lon="11.741694"><ele>821.0</ele><time>2026-04-09T15:16:42.637Z</time></trkpt><trkpt lat="45.8179681" lon="11.7416188"><ele>821.0</ele><time>2026-04-09T15:16:43.628Z</time></trkpt><trkpt lat="45.8178809" lon="11.7415566"><ele>821.0</ele><time>2026-04-09T15:16:44.627Z</time></trkpt><trkpt lat="45.8178162" lon="11.7414204"><ele>821.0</ele><time>2026-04-09T15:16:45.628Z</time></trkpt><trkpt lat="45.8176986" lon="11.7413394"><ele>821.0</ele><time>2026-04-09T15:16:46.63Z</time></trkpt><trkpt lat="45.8175826" lon="11.7412729"><ele>821.0</ele><time>2026-04-09T15:16:47.651Z</time></trkpt><trkpt lat="45.8174739" lon="11.7412194"><ele>821.0</ele><time>2026-04-09T15:16:48.651Z</time></trkpt><trkpt lat="45.817371" lon="11.7412052"><ele>819.5</ele><time>2026-04-09T15:16:49.637Z</time></trkpt><trkpt lat="45.8172912" lon="11.741277"><ele>818.0</ele><time>2026-04-09T15:16:50.648Z</time></trkpt><trkpt lat="45.8171982" lon="11.7413899"><ele>816.5</ele><time>2026-04-09T15:16:51.635Z</time></trkpt><trkpt lat="45.8171412" lon="11.7415708"><ele>815.0</ele><time>2026-04-09T15:16:52.636Z</time></trkpt><trkpt lat="45.8170899" lon="11.7417342"><ele>809.8</ele><time>2026-04-09T15:16:53.637Z</time></trkpt><trkpt lat="45.8170328" lon="11.7418856"><ele>804.6</ele><time>2026-04-09T15:16:54.644Z</time></trkpt><trkpt lat="45.8169617" lon="11.7420015"><ele>799.4000000000001</ele><time>2026-04-09T15:16:55.65Z</time></trkpt><trkpt lat="45.8168887" lon="11.7421004"><ele>794.2</ele><time>2026-04-09T15:16:56.632Z</time></trkpt><trkpt lat="45.8167966" lon="11.7421556"><ele>789.0</ele><time>2026-04-09T15:16:57.634Z</time></trkpt><trkpt lat="45.8166635" lon="11.7421499"><ele>789.0</ele><time>2026-04-09T15:16:58.638Z</time></trkpt><trkpt lat="45.8165313" lon="11.7421321"><ele>789.0</ele><time>2026-04-09T15:16:59.644Z</time></trkpt><trkpt lat="45.8163894" lon="11.7421051"><ele>789.0</ele><time>2026-04-09T15:17:00.635Z</time></trkpt><trkpt lat="45.8162497" lon="11.7420939"><ele>789.0</ele><time>2026-04-09T15:17:01.638Z</time></trkpt><trkpt lat="45.8161353" lon="11.7420727"><ele>789.0</ele><time>2026-04-09T15:17:02.633Z</time></trkpt><trkpt lat="45.8160333" lon="11.7420315"><ele>789.0</ele><time>2026-04-09T15:17:03.635Z</time></trkpt><trkpt lat="45.8159424" lon="11.7419884"><ele>789.0</ele><time>2026-04-09T15:17:04.631Z</time></trkpt><trkpt lat="45.8158784" lon="11.7418525"><ele>789.0</ele><time>2026-04-09T15:17:05.642Z</time></trkpt><trkpt lat="45.8158152" lon="11.7416915"><ele>789.0</ele><time>2026-04-09T15:17:06.634Z</time></trkpt><trkpt lat="45.8157596" lon="11.7415412"><ele>791.75</ele><time>2026-04-09T15:17:07.63Z</time></trkpt><trkpt lat="45.8157186" lon="11.7413847"><ele>794.5</ele><time>2026-04-09T15:17:08.651Z</time></trkpt><trkpt lat="45.8157069" lon="11.7412344"><ele>797.25</ele><time>2026-04-09T15:17:09.641Z</time></trkpt><trkpt lat="45.8157298" lon="11.7410678"><ele>800.0</ele><time>2026-04-09T15:17:10.644Z</time></trkpt><trkpt lat="45.8157592" lon="11.7408612"><ele>800.0</ele><time>2026-04-09T15:17:11.641Z</time></trkpt><trkpt lat="45.8157438" lon="11.7406401"><ele>800.0</ele><time>2026-04-09T15:17:12.635Z</time></trkpt><trkpt lat="45.8157243" lon="11.7404215"><ele>800.0</ele><time>2026-04-09T15:17:13.644Z</time></trkpt><trkpt lat="45.8156938" lon="11.7402416"><ele>800.0</ele><time>2026-04-09T15:17:14.63Z</time></trkpt><trkpt lat="45.8156663" lon="11.7400892"><ele>800.0</ele><time>2026-04-09T15:17:15.639Z</time></trkpt><trkpt lat="45.8156143" lon="11.7399637"><ele>800.0</ele><time>2026-04-09T15:17:16.629Z</time></trkpt><trkpt lat="45.8155295" lon="11.7398694"><ele>800.0</ele><time>2026-04-09T15:17:17.632Z</time></trkpt><trkpt lat="45.8154183" lon="11.7398179"><ele>800.0</ele><time>2026-04-09T15:17:18.637Z</time></trkpt><trkpt lat="45.8152894" lon="11.7398138"><ele>797.25</ele><time>2026-04-09T15:17:19.637Z</time></trkpt><trkpt lat="45.8151482" lon="11.7398191"><ele>794.5</ele><time>2026-04-09T15:17:20.633Z</time></trkpt><trkpt lat="45.8150132" lon="11.7398762"><ele>791.75</ele><time>2026-04-09T15:17:21.642Z</time></trkpt><trkpt lat="45.8149028" lon="11.7400281"><ele>789.0</ele><time>2026-04-09T15:17:22.637Z</time></trkpt><trkpt lat="45.8147879" lon="11.7402344"><ele>785.6666666666667</ele><time>2026-04-09T15:17:23.637Z</time></trkpt><trkpt lat="45.8146891" lon="11.7404447"><ele>782.3333333333334</ele><time>2026-04-09T15:17:24.646Z</time></trkpt><trkpt lat="45.8145996" lon="11.7406387"><ele>779.0</ele><time>2026-04-09T15:17:25.648Z</time></trkpt><trkpt lat="45.8145098" lon="11.7408016"><ele>779.0</ele><time>2026-04-09T15:17:26.632Z</time></trkpt><trkpt lat="45.8144177" lon="11.7409567"><ele>779.0</ele><time>2026-04-09T15:17:27.637Z</time></trkpt><trkpt lat="45.8143142" lon="11.7410711"><ele>779.0</ele><time>2026-04-09T15:17:28.636Z</time></trkpt><trkpt lat="45.8141769" lon="11.7411522"><ele>779.0</ele><time>2026-04-09T15:17:29.63Z</time></trkpt><trkpt lat="45.8140121" lon="11.7412088"><ele>776.3333333333334</ele><time>2026-04-09T15:17:30.629Z</time></trkpt><trkpt lat="45.8138407" lon="11.7412383"><ele>773.6666666666667</ele><time>2026-04-09T15:17:31.63Z</time></trkpt><trkpt lat="45.8136751" lon="11.7412443"><ele>771.0</ele><time>2026-04-09T15:17:32.64Z</time></trkpt><trkpt lat="45.8135065" lon="11.7412208"><ele>772.0</ele><time>2026-04-09T15:17:33.636Z</time></trkpt><trkpt lat="45.8133416" lon="11.7411931"><ele>773.0</ele><time>2026-04-09T15:17:34.634Z</time></trkpt><trkpt lat="45.81319" lon="11.7410932"><ele>774.0</ele><time>2026-04-09T15:17:35.635Z</time></trkpt><trkpt lat="45.8130228" lon="11.7409828"><ele>780.0</ele><time>2026-04-09T15:17:36.635Z</time></trkpt><trkpt lat="45.8128507" lon="11.74084"><ele>786.0</ele><time>2026-04-09T15:17:37.662Z</time></trkpt><trkpt lat="45.8126886" lon="11.7407225"><ele>792.0</ele><time>2026-04-09T15:17:38.639Z</time></trkpt><trkpt lat="45.8125317" lon="11.7406324"><ele>792.25</ele><time>2026-04-09T15:17:39.638Z</time></trkpt><trkpt lat="45.8123867" lon="11.7405644"><ele>792.5</ele><time>2026-04-09T15:17:40.637Z</time></trkpt><trkpt lat="45.8122574" lon="11.7405189"><ele>792.75</ele><time>2026-04-09T15:17:41.641Z</time></trkpt><trkpt lat="45.8121314" lon="11.7405017"><ele>793.0</ele><time>2026-04-09T15:17:42.634Z</time></trkpt><trkpt lat="45.8120129" lon="11.7405176"><ele>793.0</ele><time>2026-04-09T15:17:43.634Z</time></trkpt><trkpt lat="45.8119074" lon="11.7405801"><ele>793.0</ele><time>2026-04-09T15:17:44.638Z</time></trkpt><trkpt lat="45.8118114" lon="11.7406897"><ele>793.0</ele><time>2026-04-09T15:17:45.645Z</time></trkpt><trkpt lat="45.8117153" lon="11.7408351"><ele>793.0</ele><time>2026-04-09T15:17:46.638Z</time></trkpt><trkpt lat="45.8116233" lon="11.740993"><ele>788.75</ele><time>2026-04-09T15:17:47.636Z</time></trkpt><trkpt lat="45.811539" lon="11.741141"><ele>784.5</ele><time>2026-04-09T15:17:48.647Z</time></trkpt><trkpt lat="45.8114698" lon="11.7412725"><ele>780.25</ele><time>2026-04-09T15:17:49.643Z</time></trkpt><trkpt lat="45.8114259" lon="11.7414137"><ele>776.0</ele><time>2026-04-09T15:17:50.634Z</time></trkpt><trkpt lat="45.8114069" lon="11.7415838"><ele>776.0</ele><time>2026-04-09T15:17:51.635Z</time></trkpt><trkpt lat="45.8114118" lon="11.7417736"><ele>776.0</ele><time>2026-04-09T15:17:52.639Z</time></trkpt><trkpt lat="45.8114487" lon="11.7419651"><ele>776.0</ele><time>2026-04-09T15:17:53.646Z</time></trkpt><trkpt lat="45.8115139" lon="11.7421528"><ele>776.0</ele><time>2026-04-09T15:17:54.631Z</time></trkpt><trkpt lat="45.8115947" lon="11.7423427"><ele>774.5</ele><time>2026-04-09T15:17:55.633Z</time></trkpt><trkpt lat="45.8116728" lon="11.7425229"><ele>773.0</ele><time>2026-04-09T15:17:56.636Z</time></trkpt><trkpt lat="45.8117388" lon="11.7426906"><ele>771.5</ele><time>2026-04-09T15:17:57.637Z</time></trkpt><trkpt lat="45.811783" lon="11.7428529"><ele>770.0</ele><time>2026-04-09T15:17:58.635Z</time></trkpt><trkpt lat="45.8117972" lon="11.7430208"><ele>768.75</ele><time>2026-04-09T15:17:59.633Z</time></trkpt><trkpt lat="45.8117832" lon="11.7431872"><ele>767.5</ele><time>2026-04-09T15:18:00.641Z</time></trkpt><trkpt lat="45.8117412" lon="11.7433458"><ele>766.25</ele><time>2026-04-09T15:18:01.633Z</time></trkpt><trkpt lat="45.8116954" lon="11.7435123"><ele>765.0</ele><time>2026-04-09T15:18:02.633Z</time></trkpt><trkpt lat="45.8116716" lon="11.7436889"><ele>762.75</ele><time>2026-04-09T15:18:03.632Z</time></trkpt><trkpt lat="45.8116685" lon="11.7438744"><ele>760.5</ele><time>2026-04-09T15:18:04.631Z</time></trkpt><trkpt lat="45.8116721" lon="11.7440541"><ele>758.25</ele><time>2026-04-09T15:18:05.63Z</time></trkpt><trkpt lat="45.8116838" lon="11.7442173"><ele>756.0</ele><time>2026-04-09T15:18:06.636Z</time></trkpt><trkpt lat="45.8117185" lon="11.7443693"><ele>755.25</ele><time>2026-04-09T15:18:07.634Z</time></trkpt><trkpt lat="45.8117847" lon="11.744517"><ele>754.5</ele><time>2026-04-09T15:18:08.641Z</time></trkpt><trkpt lat="45.8118781" lon="11.7446435"><ele>753.75</ele><time>2026-04-09T15:18:09.638Z</time></trkpt><trkpt lat="45.8119948" lon="11.7447515"><ele>753.0</ele><time>2026-04-09T15:18:10.636Z</time></trkpt><trkpt lat="45.8121297" lon="11.744852"><ele>753.0</ele><time>2026-04-09T15:18:11.631Z</time></trkpt><trkpt lat="45.8122772" lon="11.7449608"><ele>753.0</ele><time>2026-04-09T15:18:12.631Z</time></trkpt><trkpt lat="45.8124298" lon="11.7450764"><ele>753.0</ele><time>2026-04-09T15:18:13.64Z</time></trkpt><trkpt lat="45.8125863" lon="11.7451918"><ele>746.0</ele><time>2026-04-09T15:18:14.64Z</time></trkpt><trkpt lat="45.8127366" lon="11.7453013"><ele>739.0</ele><time>2026-04-09T15:18:15.638Z</time></trkpt><trkpt lat="45.8128812" lon="11.7454009"><ele>732.0</ele><time>2026-04-09T15:18:16.637Z</time></trkpt><trkpt lat="45.8130298" lon="11.7454799"><ele>732.0</ele><time>2026-04-09T15:18:17.637Z</time></trkpt><trkpt lat="45.8131866" lon="11.7455297"><ele>732.0</ele><time>2026-04-09T15:18:18.638Z</time></trkpt><trkpt lat="45.8133472" lon="11.7455626"><ele>732.0</ele><time>2026-04-09T15:18:19.633Z</time></trkpt><trkpt lat="45.8135" lon="11.7455975"><ele>730.0</ele><time>2026-04-09T15:18:20.634Z</time></trkpt><trkpt lat="45.813643" lon="11.7456445"><ele>728.0</ele><time>2026-04-09T15:18:21.645Z</time></trkpt><trkpt lat="45.8137731" lon="11.7456986"><ele>726.0</ele><time>2026-04-09T15:18:22.642Z</time></trkpt><trkpt lat="45.8138883" lon="11.7457322"><ele>724.0</ele><time>2026-04-09T15:18:23.64Z</time></trkpt><trkpt lat="45.8139914" lon="11.7457424"><ele>724.0</ele><time>2026-04-09T15:18:24.646Z</time></trkpt><trkpt lat="45.8140734" lon="11.7457484"><ele>724.0</ele><time>2026-04-09T15:18:25.649Z</time></trkpt><trkpt lat="45.8141354" lon="11.7457676"><ele>724.0</ele><time>2026-04-09T15:18:26.637Z</time></trkpt><trkpt lat="45.8141842" lon="11.7458884"><ele>724.0</ele><time>2026-04-09T15:18:28.642Z</time></trkpt><trkpt lat="45.8140837" lon="11.7459435"><ele>724.0</ele><time>2026-04-09T15:18:30.644Z</time></trkpt><trkpt lat="45.814006" lon="11.7459046"><ele>724.0</ele><time>2026-04-09T15:18:31.635Z</time></trkpt><trkpt lat="45.8139119" lon="11.7458597"><ele>724.0</ele><time>2026-04-09T15:18:32.643Z</time></trkpt><trkpt lat="45.8138028" lon="11.7458186"><ele>724.0</ele><time>2026-04-09T15:18:33.637Z</time></trkpt><trkpt lat="45.8136804" lon="11.7457757"><ele>724.0</ele><time>2026-04-09T15:18:34.636Z</time></trkpt><trkpt lat="45.8135476" lon="11.7457432"><ele>724.0</ele><time>2026-04-09T15:18:35.633Z</time></trkpt><trkpt lat="45.8134072" lon="11.7457424"><ele>726.0</ele><time>2026-04-09T15:18:36.633Z</time></trkpt><trkpt lat="45.8132725" lon="11.7457747"><ele>728.0</ele><time>2026-04-09T15:18:37.643Z</time></trkpt><trkpt lat="45.813142" lon="11.7458355"><ele>730.0</ele><time>2026-04-09T15:18:38.641Z</time></trkpt><trkpt lat="45.8130067" lon="11.7458959"><ele>732.0</ele><time>2026-04-09T15:18:39.625Z</time></trkpt><trkpt lat="45.8128628" lon="11.7459262"><ele>732.0</ele><time>2026-04-09T15:18:40.641Z</time></trkpt><trkpt lat="45.8127096" lon="11.7459202"><ele>732.0</ele><time>2026-04-09T15:18:41.641Z</time></trkpt><trkpt lat="45.8125512" lon="11.7458953"><ele>732.0</ele><time>2026-04-09T15:18:42.63Z</time></trkpt><trkpt lat="45.8123914" lon="11.7458706"><ele>730.3333333333334</ele><time>2026-04-09T15:18:43.639Z</time></trkpt><trkpt lat="45.8122302" lon="11.7458555"><ele>728.6666666666667</ele><time>2026-04-09T15:18:44.642Z</time></trkpt><trkpt lat="45.8120654" lon="11.7458533"><ele>727.0</ele><time>2026-04-09T15:18:45.648Z</time></trkpt><trkpt lat="45.8118976" lon="11.7458563"><ele>724.0</ele><time>2026-04-09T15:18:46.648Z</time></trkpt><trkpt lat="45.8117278" lon="11.7458608"><ele>721.0</ele><time>2026-04-09T15:18:47.637Z</time></trkpt><trkpt lat="45.811557" lon="11.7458666"><ele>718.0</ele><time>2026-04-09T15:18:48.628Z</time></trkpt><trkpt lat="45.8113871" lon="11.7458761"><ele>718.0</ele><time>2026-04-09T15:18:49.637Z</time></trkpt><trkpt lat="45.8112181" lon="11.7458918"><ele>718.0</ele><time>2026-04-09T15:18:50.647Z</time></trkpt><trkpt lat="45.8110476" lon="11.7459148"><ele>718.0</ele><time>2026-04-09T15:18:51.645Z</time></trkpt><trkpt lat="45.8108773" lon="11.7459354"><ele>716.0</ele><time>2026-04-09T15:18:52.631Z</time></trkpt><trkpt lat="45.8107203" lon="11.7459409"><ele>714.0</ele><time>2026-04-09T15:18:53.643Z</time></trkpt><trkpt lat="45.8105773" lon="11.7459328"><ele>712.0</ele><time>2026-04-09T15:18:54.643Z</time></trkpt><trkpt lat="45.8104498" lon="11.7459151"><ele>710.0</ele><time>2026-04-09T15:18:55.643Z</time></trkpt><trkpt lat="45.8103328" lon="11.7458666"><ele>710.0</ele><time>2026-04-09T15:18:56.636Z</time></trkpt><trkpt lat="45.8102308" lon="11.7457649"><ele>710.0</ele><time>2026-04-09T15:18:57.642Z</time></trkpt><trkpt lat="45.8101291" lon="11.7456571"><ele>710.0</ele><time>2026-04-09T15:18:58.636Z</time></trkpt><trkpt lat="45.8100731" lon="11.7454817"><ele>710.0</ele><time>2026-04-09T15:18:59.636Z</time></trkpt><trkpt lat="45.810028" lon="11.7452996"><ele>706.75</ele><time>2026-04-09T15:19:00.638Z</time></trkpt><trkpt lat="45.810045" lon="11.7451043"><ele>703.5</ele><time>2026-04-09T15:19:01.643Z</time></trkpt><trkpt lat="45.810073" lon="11.7449196"><ele>700.25</ele><time>2026-04-09T15:19:02.633Z</time></trkpt><trkpt lat="45.8101042" lon="11.7447653"><ele>697.0</ele><time>2026-04-09T15:19:03.645Z</time></trkpt><trkpt lat="45.8100835" lon="11.7446133"><ele>697.0</ele><time>2026-04-09T15:19:04.634Z</time></trkpt><trkpt lat="45.8100129" lon="11.7444616"><ele>697.0</ele><time>2026-04-09T15:19:05.632Z</time></trkpt><trkpt lat="45.809938" lon="11.7443162"><ele>697.0</ele><time>2026-04-09T15:19:06.625Z</time></trkpt><trkpt lat="45.8098409" lon="11.7441904"><ele>697.0</ele><time>2026-04-09T15:19:07.634Z</time></trkpt><trkpt lat="45.8097548" lon="11.7440738"><ele>698.25</ele><time>2026-04-09T15:19:08.629Z</time></trkpt><trkpt lat="45.8096767" lon="11.7439669"><ele>699.5</ele><time>2026-04-09T15:19:09.629Z</time></trkpt><trkpt lat="45.8096242" lon="11.7438131"><ele>700.75</ele><time>2026-04-09T15:19:10.625Z</time></trkpt><trkpt lat="45.8096169" lon="11.7436282"><ele>702.0</ele><time>2026-04-09T15:19:11.628Z</time></trkpt><trkpt lat="45.8095966" lon="11.7434807"><ele>704.0</ele><time>2026-04-09T15:19:12.635Z</time></trkpt><trkpt lat="45.8095605" lon="11.7433558"><ele>706.0</ele><time>2026-04-09T15:19:13.635Z</time></trkpt><trkpt lat="45.8094853" lon="11.7432669"><ele>708.0</ele><time>2026-04-09T15:19:14.634Z</time></trkpt><trkpt lat="45.8094049" lon="11.7431982"><ele>710.0</ele><time>2026-04-09T15:19:15.637Z</time></trkpt><trkpt lat="45.8092762" lon="11.7432001"><ele>712.0</ele><time>2026-04-09T15:19:16.635Z</time></trkpt><trkpt lat="45.809136" lon="11.7432148"><ele>705.3333333333334</ele><time>2026-04-09T15:19:17.627Z</time></trkpt><trkpt lat="45.808995" lon="11.7432722"><ele>698.6666666666666</ele><time>2026-04-09T15:19:18.633Z</time></trkpt><trkpt lat="45.808844" lon="11.7433341"><ele>692.0</ele><time>2026-04-09T15:19:19.634Z</time></trkpt><trkpt lat="45.8086841" lon="11.7434098"><ele>692.0</ele><time>2026-04-09T15:19:20.636Z</time></trkpt><trkpt lat="45.8085242" lon="11.7435037"><ele>692.0</ele><time>2026-04-09T15:19:21.641Z</time></trkpt><trkpt lat="45.8083622" lon="11.7435985"><ele>692.0</ele><time>2026-04-09T15:19:22.629Z</time></trkpt><trkpt lat="45.8082116" lon="11.7437488"><ele>684.3333333333333</ele><time>2026-04-09T15:19:23.63Z</time></trkpt><trkpt lat="45.808079" lon="11.7439144"><ele>676.6666666666666</ele><time>2026-04-09T15:19:24.633Z</time></trkpt><trkpt lat="45.8079432" lon="11.7440823"><ele>669.0</ele><time>2026-04-09T15:19:25.639Z</time></trkpt><trkpt lat="45.8078283" lon="11.7442366"><ele>669.0</ele><time>2026-04-09T15:19:26.629Z</time></trkpt><trkpt lat="45.8077104" lon="11.7443787"><ele>669.0</ele><time>2026-04-09T15:19:27.633Z</time></trkpt><trkpt lat="45.8075989" lon="11.7445078"><ele>669.0</ele><time>2026-04-09T15:19:28.637Z</time></trkpt><trkpt lat="45.8101291" lon="11.7456571"><ele>675.75</ele><time>2026-04-09T15:18:58.636Z</time></trkpt><trkpt lat="45.8100731" lon="11.7454817"><ele>682.5</ele><time>2026-04-09T15:18:59.636Z</time></trkpt><trkpt lat="45.810028" lon="11.7452996"><ele>689.25</ele><time>2026-04-09T15:19:00.638Z</time></trkpt><trkpt lat="45.810045" lon="11.7451043"><ele>696.0</ele><time>2026-04-09T15:19:01.643Z</time></trkpt><trkpt lat="45.810073" lon="11.7449196"><ele>696.25</ele><time>2026-04-09T15:19:02.633Z</time></trkpt><trkpt lat="45.8101042" lon="11.7447653"><ele>696.5</ele><time>2026-04-09T15:19:03.645Z</time></trkpt><trkpt lat="45.8100835" lon="11.7446133"><ele>696.75</ele><time>2026-04-09T15:19:04.634Z</time></trkpt><trkpt lat="45.8100129" lon="11.7444616"><ele>697.0</ele><time>2026-04-09T15:19:05.632Z</time></trkpt><trkpt lat="45.809938" lon="11.7443162"><ele>698.25</ele><time>2026-04-09T15:19:06.625Z</time></trkpt><trkpt lat="45.8098409" lon="11.7441904"><ele>699.5</ele><time>2026-04-09T15:19:07.634Z</time></trkpt><trkpt lat="45.8097548" lon="11.7440738"><ele>700.75</ele><time>2026-04-09T15:19:08.629Z</time></trkpt><trkpt lat="45.8096767" lon="11.7439669"><ele>702.0</ele><time>2026-04-09T15:19:09.629Z</time></trkpt><trkpt lat="45.8096242" lon="11.7438131"><ele>702.0</ele><time>2026-04-09T15:19:10.625Z</time></trkpt><trkpt lat="45.8096169" lon="11.7436282"><ele>702.0</ele><time>2026-04-09T15:19:11.628Z</time></trkpt><trkpt lat="45.8095966" lon="11.7434807"><ele>702.0</ele><time>2026-04-09T15:19:12.635Z</time></trkpt><trkpt lat="45.8095605" lon="11.7433558"><ele>702.0</ele><time>2026-04-09T15:19:13.635Z</time></trkpt><trkpt lat="45.8094853" lon="11.7432669"><ele>702.0</ele><time>2026-04-09T15:19:14.634Z</time></trkpt><trkpt lat="45.8094049" lon="11.7431982"><ele>699.5</ele><time>2026-04-09T15:19:15.637Z</time></trkpt><trkpt lat="45.8092762" lon="11.7432001"><ele>697.0</ele><time>2026-04-09T15:19:16.635Z</time></trkpt><trkpt lat="45.809136" lon="11.7432148"><ele>694.5</ele><time>2026-04-09T15:19:17.627Z</time></trkpt><trkpt lat="45.808995" lon="11.7432722"><ele>692.0</ele><time>2026-04-09T15:19:18.633Z</time></trkpt><trkpt lat="45.808844" lon="11.7433341"><ele>692.0</ele><time>2026-04-09T15:19:19.634Z</time></trkpt><trkpt lat="45.8086841" lon="11.7434098"><ele>692.0</ele><time>2026-04-09T15:19:20.636Z</time></trkpt><trkpt lat="45.8085242" lon="11.7435037"><ele>692.0</ele><time>2026-04-09T15:19:21.641Z</time></trkpt><trkpt lat="45.8083622" lon="11.7435985"><ele>684.3333333333333</ele><time>2026-04-09T15:19:22.629Z</time></trkpt><trkpt lat="45.8082116" lon="11.7437488"><ele>676.6666666666666</ele><time>2026-04-09T15:19:23.63Z</time></trkpt><trkpt lat="45.808079" lon="11.7439144"><ele>669.0</ele><time>2026-04-09T15:19:24.633Z</time></trkpt><trkpt lat="45.8079432" lon="11.7440823"><ele>669.0</ele><time>2026-04-09T15:19:25.639Z</time></trkpt><trkpt lat="45.8078283" lon="11.7442366"><ele>669.0</ele><time>2026-04-09T15:19:26.629Z</time></trkpt><trkpt lat="45.8077104" lon="11.7443787"><ele>669.0</ele><time>2026-04-09T15:19:27.633Z</time></trkpt><trkpt lat="45.8075989" lon="11.7445078"><ele>667.0</ele><time>2026-04-09T15:19:28.637Z</time></trkpt><trkpt lat="45.8074844" lon="11.7446206"><ele>665.0</ele><time>2026-04-09T15:19:29.63Z</time></trkpt><trkpt lat="45.8073606" lon="11.7447029"><ele>663.0</ele><time>2026-04-09T15:19:30.633Z</time></trkpt><trkpt lat="45.8072271" lon="11.7447496"><ele>661.0</ele><time>2026-04-09T15:19:31.636Z</time></trkpt><trkpt lat="45.8070907" lon="11.7447638"><ele>661.0</ele><time>2026-04-09T15:19:32.638Z</time></trkpt><trkpt lat="45.806958" lon="11.7447372"><ele>661.0</ele><time>2026-04-09T15:19:33.633Z</time></trkpt><trkpt lat="45.8068215" lon="11.7446781"><ele>661.0</ele><time>2026-04-09T15:19:34.648Z</time></trkpt><trkpt lat="45.8066945" lon="11.74459"><ele>661.0</ele><time>2026-04-09T15:19:35.637Z</time></trkpt><trkpt lat="45.8065794" lon="11.7444738"><ele>660.25</ele><time>2026-04-09T15:19:36.645Z</time></trkpt><trkpt lat="45.8064771" lon="11.7443283"><ele>659.5</ele><time>2026-04-09T15:19:37.638Z</time></trkpt><trkpt lat="45.8063787" lon="11.7441768"><ele>658.75</ele><time>2026-04-09T15:19:38.642Z</time></trkpt><trkpt lat="45.8063042" lon="11.7440114"><ele>658.0</ele><time>2026-04-09T15:19:39.637Z</time></trkpt><trkpt lat="45.8062398" lon="11.7438391"><ele>658.0</ele><time>2026-04-09T15:19:40.634Z</time></trkpt><trkpt lat="45.8061776" lon="11.7436637"><ele>658.0</ele><time>2026-04-09T15:19:41.64Z</time></trkpt><trkpt lat="45.806132" lon="11.7434732"><ele>658.0</ele><time>2026-04-09T15:19:42.639Z</time></trkpt><trkpt lat="45.8061184" lon="11.7432754"><ele>658.0</ele><time>2026-04-09T15:19:43.647Z</time></trkpt><trkpt lat="45.8061366" lon="11.743091"><ele>659.2</ele><time>2026-04-09T15:19:44.639Z</time></trkpt><trkpt lat="45.8061707" lon="11.7429203"><ele>660.4</ele><time>2026-04-09T15:19:45.646Z</time></trkpt><trkpt lat="45.8062091" lon="11.7427629"><ele>661.6</ele><time>2026-04-09T15:19:46.638Z</time></trkpt><trkpt lat="45.8062428" lon="11.7426345"><ele>662.8000000000001</ele><time>2026-04-09T15:19:47.692Z</time></trkpt><trkpt lat="45.8062633" lon="11.7425206"><ele>664.0</ele><time>2026-04-09T15:19:48.64Z</time></trkpt><trkpt lat="45.8062224" lon="11.7423686"><ele>664.4000000000001</ele><time>2026-04-09T15:19:50.638Z</time></trkpt><trkpt lat="45.8061257" lon="11.7423521"><ele>664.8</ele><time>2026-04-09T15:19:52.65Z</time></trkpt><trkpt lat="45.8060478" lon="11.7425118"><ele>665.2</ele><time>2026-04-09T15:19:54.647Z</time></trkpt><trkpt lat="45.8060185" lon="11.7426462"><ele>665.5999999999999</ele><time>2026-04-09T15:19:55.64Z</time></trkpt><trkpt lat="45.8059798" lon="11.7428045"><ele>666.0</ele><time>2026-04-09T15:19:56.637Z</time></trkpt><trkpt lat="45.80593" lon="11.7429744"><ele>658.0</ele><time>2026-04-09T15:19:57.647Z</time></trkpt><trkpt lat="45.8058723" lon="11.7431554"><ele>650.0</ele><time>2026-04-09T15:19:58.641Z</time></trkpt><trkpt lat="45.8058134" lon="11.7433481"><ele>642.0</ele><time>2026-04-09T15:19:59.642Z</time></trkpt><trkpt lat="45.8057499" lon="11.7435585"><ele>634.0</ele><time>2026-04-09T15:20:00.633Z</time></trkpt><trkpt lat="45.8057027" lon="11.7437711"><ele>634.0</ele><time>2026-04-09T15:20:01.641Z</time></trkpt><trkpt lat="45.8056647" lon="11.7439907"><ele>634.0</ele><time>2026-04-09T15:20:02.634Z</time></trkpt><trkpt lat="45.8056451" lon="11.744211"><ele>634.0</ele><time>2026-04-09T15:20:03.638Z</time></trkpt><trkpt lat="45.8056483" lon="11.7444309"><ele>631.75</ele><time>2026-04-09T15:20:04.641Z</time></trkpt><trkpt lat="45.8056734" lon="11.74464"><ele>629.5</ele><time>2026-04-09T15:20:05.64Z</time></trkpt><trkpt lat="45.8057215" lon="11.7448428"><ele>627.25</ele><time>2026-04-09T15:20:06.633Z</time></trkpt><trkpt lat="45.8057702" lon="11.7450335"><ele>625.0</ele><time>2026-04-09T15:20:07.643Z</time></trkpt><trkpt lat="45.8057951" lon="11.7452326"><ele>623.5</ele><time>2026-04-09T15:20:08.64Z</time></trkpt><trkpt lat="45.805819" lon="11.7454283"><ele>622.0</ele><time>2026-04-09T15:20:09.644Z</time></trkpt><trkpt lat="45.805784" lon="11.7456235"><ele>620.5</ele><time>2026-04-09T15:20:10.636Z</time></trkpt><trkpt lat="45.8057517" lon="11.7458145"><ele>619.0</ele><time>2026-04-09T15:20:11.637Z</time></trkpt><trkpt lat="45.8057228" lon="11.7460168"><ele>617.3333333333334</ele><time>2026-04-09T15:20:12.639Z</time></trkpt><trkpt lat="45.8057075" lon="11.7462328"><ele>615.6666666666666</ele><time>2026-04-09T15:20:13.645Z</time></trkpt><trkpt lat="45.8057068" lon="11.7464508"><ele>614.0</ele><time>2026-04-09T15:20:14.638Z</time></trkpt><trkpt lat="45.8057206" lon="11.7466718"><ele>608.0</ele><time>2026-04-09T15:20:15.639Z</time></trkpt><trkpt lat="45.8057487" lon="11.7468845"><ele>602.0</ele><time>2026-04-09T15:20:16.633Z</time></trkpt><trkpt lat="45.8057829" lon="11.7470927"><ele>596.0</ele><time>2026-04-09T15:20:17.632Z</time></trkpt><trkpt lat="45.805844" lon="11.7472925"><ele>596.0</ele><time>2026-04-09T15:20:18.631Z</time></trkpt><trkpt lat="45.8059135" lon="11.7474866"><ele>596.0</ele><time>2026-04-09T15:20:19.635Z</time></trkpt><trkpt lat="45.8059867" lon="11.7476646"><ele>596.0</ele><time>2026-04-09T15:20:20.637Z</time></trkpt><trkpt lat="45.8060681" lon="11.7478136"><ele>596.0</ele><time>2026-04-09T15:20:21.637Z</time></trkpt><trkpt lat="45.80616" lon="11.7479237"><ele>596.6</ele><time>2026-04-09T15:20:22.632Z</time></trkpt><trkpt lat="45.8062562" lon="11.7480096"><ele>597.2</ele><time>2026-04-09T15:20:23.646Z</time></trkpt><trkpt lat="45.8063351" lon="11.7480884"><ele>597.8</ele><time>2026-04-09T15:20:24.642Z</time></trkpt><trkpt lat="45.8063866" lon="11.748174"><ele>598.4</ele><time>2026-04-09T15:20:25.632Z</time></trkpt><trkpt lat="45.8064078" lon="11.7482686"><ele>599.0</ele><time>2026-04-09T15:20:26.641Z</time></trkpt><trkpt lat="45.8063176" lon="11.7483826"><ele>599.0</ele><time>2026-04-09T15:20:28.635Z</time></trkpt><trkpt lat="45.8062247" lon="11.7483476"><ele>599.0</ele><time>2026-04-09T15:20:29.633Z</time></trkpt><trkpt lat="45.8061193" lon="11.748262"><ele>599.0</ele><time>2026-04-09T15:20:30.64Z</time></trkpt><trkpt lat="45.8060073" lon="11.7481392"><ele>599.0</ele><time>2026-04-09T15:20:31.636Z</time></trkpt><trkpt lat="45.8058886" lon="11.7480124"><ele>598.25</ele><time>2026-04-09T15:20:32.64Z</time></trkpt><trkpt lat="45.8057768" lon="11.7478815"><ele>597.5</ele><time>2026-04-09T15:20:33.644Z</time></trkpt><trkpt lat="45.8056757" lon="11.747731"><ele>596.75</ele><time>2026-04-09T15:20:34.63Z</time></trkpt><trkpt lat="45.8055937" lon="11.7475553"><ele>596.0</ele><time>2026-04-09T15:20:35.632Z</time></trkpt><trkpt lat="45.8055231" lon="11.7473621"><ele>596.0</ele><time>2026-04-09T15:20:36.633Z</time></trkpt><trkpt lat="45.8054469" lon="11.7471689"><ele>596.0</ele><time>2026-04-09T15:20:37.634Z</time></trkpt><trkpt lat="45.8053637" lon="11.7469731"><ele>596.0</ele><time>2026-04-09T15:20:38.639Z</time></trkpt><trkpt lat="45.8052745" lon="11.7467819"><ele>602.0</ele><time>2026-04-09T15:20:39.632Z</time></trkpt><trkpt lat="45.8051891" lon="11.7465898"><ele>608.0</ele><time>2026-04-09T15:20:40.633Z</time></trkpt><trkpt lat="45.8051175" lon="11.7463857"><ele>614.0</ele><time>2026-04-09T15:20:41.631Z</time></trkpt><trkpt lat="45.8050589" lon="11.7461699"><ele>604.6666666666666</ele><time>2026-04-09T15:20:42.638Z</time></trkpt><trkpt lat="45.8050044" lon="11.7459488"><ele>595.3333333333334</ele><time>2026-04-09T15:20:43.632Z</time></trkpt><trkpt lat="45.8049532" lon="11.7457228"><ele>586.0</ele><time>2026-04-09T15:20:44.641Z</time></trkpt><trkpt lat="45.8048905" lon="11.7455047"><ele>586.0</ele><time>2026-04-09T15:20:45.635Z</time></trkpt><trkpt lat="45.8048076" lon="11.7453103"><ele>586.0</ele><time>2026-04-09T15:20:46.647Z</time></trkpt><trkpt lat="45.8047176" lon="11.7451321"><ele>586.0</ele><time>2026-04-09T15:20:47.629Z</time></trkpt><trkpt lat="45.8046321" lon="11.7449449"><ele>588.3333333333334</ele><time>2026-04-09T15:20:48.634Z</time></trkpt><trkpt lat="45.804559" lon="11.7447435"><ele>590.6666666666666</ele><time>2026-04-09T15:20:49.628Z</time></trkpt><trkpt lat="45.8045067" lon="11.7445381"><ele>593.0</ele><time>2026-04-09T15:20:50.633Z</time></trkpt><trkpt lat="45.8044607" lon="11.7443449"><ele>593.8</ele><time>2026-04-09T15:20:51.633Z</time></trkpt><trkpt lat="45.8044477" lon="11.744162"><ele>594.5999999999999</ele><time>2026-04-09T15:20:52.635Z</time></trkpt><trkpt lat="45.8044459" lon="11.7439983"><ele>595.4000000000001</ele><time>2026-04-09T15:20:53.633Z</time></trkpt><trkpt lat="45.8044345" lon="11.7438555"><ele>596.2</ele><time>2026-04-09T15:20:54.633Z</time></trkpt><trkpt lat="45.8043961" lon="11.7437403"><ele>597.0</ele><time>2026-04-09T15:20:55.643Z</time></trkpt><trkpt lat="45.8043295" lon="11.7436696"><ele>588.75</ele><time>2026-04-09T15:20:56.631Z</time></trkpt><trkpt lat="45.8042429" lon="11.7436534"><ele>580.5</ele><time>2026-04-09T15:20:57.628Z</time></trkpt><trkpt lat="45.8041366" lon="11.7436887"><ele>572.25</ele><time>2026-04-09T15:20:58.639Z</time></trkpt><trkpt lat="45.8040172" lon="11.7437494"><ele>564.0</ele><time>2026-04-09T15:20:59.631Z</time></trkpt><trkpt lat="45.8038838" lon="11.743818"><ele>564.0</ele><time>2026-04-09T15:21:00.633Z</time></trkpt><trkpt lat="45.803748" lon="11.7438876"><ele>564.0</ele><time>2026-04-09T15:21:01.631Z</time></trkpt><trkpt lat="45.803622" lon="11.7439487"><ele>564.0</ele><time>2026-04-09T15:21:02.631Z</time></trkpt><trkpt lat="45.8035001" lon="11.7439945"><ele>564.0</ele><time>2026-04-09T15:21:03.638Z</time></trkpt><trkpt lat="45.8033777" lon="11.7440053"><ele>561.5</ele><time>2026-04-09T15:21:04.636Z</time></trkpt><trkpt lat="45.8032545" lon="11.7439729"><ele>559.0</ele><time>2026-04-09T15:21:05.634Z</time></trkpt><trkpt lat="45.8031312" lon="11.7439125"><ele>556.5</ele><time>2026-04-09T15:21:06.64Z</time></trkpt><trkpt lat="45.8030157" lon="11.7438495"><ele>554.0</ele><time>2026-04-09T15:21:07.639Z</time></trkpt><trkpt lat="45.8029177" lon="11.743793"><ele>554.0</ele><time>2026-04-09T15:21:08.638Z</time></trkpt><trkpt lat="45.8028373" lon="11.7437591"><ele>554.0</ele><time>2026-04-09T15:21:09.651Z</time></trkpt><trkpt lat="45.8027682" lon="11.7437781"><ele>554.0</ele><time>2026-04-09T15:21:10.638Z</time></trkpt><trkpt lat="45.8027146" lon="11.7438425"><ele>554.0</ele><time>2026-04-09T15:21:11.639Z</time></trkpt><trkpt lat="45.802697" lon="11.743934"><ele>554.0</ele><time>2026-04-09T15:21:12.637Z</time></trkpt><trkpt lat="45.8027236" lon="11.7440269"><ele>554.0</ele><time>2026-04-09T15:21:13.642Z</time></trkpt><trkpt lat="45.8027894" lon="11.7440962"><ele>554.0</ele><time>2026-04-09T15:21:14.638Z</time></trkpt><trkpt lat="45.8028773" lon="11.7441473"><ele>554.0</ele><time>2026-04-09T15:21:15.63Z</time></trkpt><trkpt lat="45.8029733" lon="11.744216"><ele>554.0</ele><time>2026-04-09T15:21:16.639Z</time></trkpt><trkpt lat="45.8030709" lon="11.7443133"><ele>554.0</ele><time>2026-04-09T15:21:17.641Z</time></trkpt><trkpt lat="45.803172" lon="11.7444218"><ele>554.0</ele><time>2026-04-09T15:21:18.629Z</time></trkpt><trkpt lat="45.8032709" lon="11.7445186"><ele>554.8</ele><time>2026-04-09T15:21:19.627Z</time></trkpt><trkpt lat="45.8033625" lon="11.7445874"><ele>555.5999999999999</ele><time>2026-04-09T15:21:20.635Z</time></trkpt><trkpt lat="45.8034533" lon="11.7446073"><ele>556.4</ele><time>2026-04-09T15:21:21.637Z</time></trkpt><trkpt lat="45.803547" lon="11.7445774"><ele>557.1999999999999</ele><time>2026-04-09T15:21:22.633Z</time></trkpt><trkpt lat="45.8036379" lon="11.7445171"><ele>558.0</ele><time>2026-04-09T15:21:23.644Z</time></trkpt><trkpt lat="45.8037247" lon="11.7444621"><ele>558.0</ele><time>2026-04-09T15:21:24.629Z</time></trkpt><trkpt lat="45.8038041" lon="11.7444636"><ele>558.0</ele><time>2026-04-09T15:21:25.627Z</time></trkpt><trkpt lat="45.8038678" lon="11.7444872"><ele>558.0</ele><time>2026-04-09T15:21:26.63Z</time></trkpt><trkpt lat="45.8039029" lon="11.7446177"><ele>558.0</ele><time>2026-04-09T15:21:27.637Z</time></trkpt><trkpt lat="45.8039103" lon="11.7447856"><ele>558.0</ele><time>2026-04-09T15:21:28.628Z</time></trkpt><trkpt lat="45.80389" lon="11.7449722"><ele>558.0</ele><time>2026-04-09T15:21:29.642Z</time></trkpt><trkpt lat="45.803842" lon="11.7451478"><ele>558.0</ele><time>2026-04-09T15:21:30.634Z</time></trkpt><trkpt lat="45.8037861" lon="11.7453076"><ele>558.0</ele><time>2026-04-09T15:21:31.633Z</time></trkpt><trkpt lat="45.8037476" lon="11.7454745"><ele>558.0</ele><time>2026-04-09T15:21:32.629Z</time></trkpt><trkpt lat="45.8037379" lon="11.745659"><ele>555.5</ele><time>2026-04-09T15:21:33.631Z</time></trkpt><trkpt lat="45.8037676" lon="11.745849"><ele>553.0</ele><time>2026-04-09T15:21:34.631Z</time></trkpt><trkpt lat="45.8038261" lon="11.7460407"><ele>550.5</ele><time>2026-04-09T15:21:35.635Z</time></trkpt><trkpt lat="45.80391" lon="11.7462283"><ele>548.0</ele><time>2026-04-09T15:21:36.632Z</time></trkpt><trkpt lat="45.8040044" lon="11.7464221"><ele>547.6666666666666</ele><time>2026-04-09T15:21:37.632Z</time></trkpt><trkpt lat="45.8041233" lon="11.7466032"><ele>547.3333333333334</ele><time>2026-04-09T15:21:38.631Z</time></trkpt><trkpt lat="45.8042389" lon="11.7467857"><ele>547.0</ele><time>2026-04-09T15:21:39.646Z</time></trkpt><trkpt lat="45.8043546" lon="11.7469679"><ele>547.0</ele><time>2026-04-09T15:21:40.631Z</time></trkpt><trkpt lat="45.8044768" lon="11.7471526"><ele>547.0</ele><time>2026-04-09T15:21:41.642Z</time></trkpt><trkpt lat="45.8045878" lon="11.7473449"><ele>547.0</ele><time>2026-04-09T15:21:42.626Z</time></trkpt><trkpt lat="45.8046846" lon="11.7475397"><ele>538.6666666666667</ele><time>2026-04-09T15:21:43.636Z</time></trkpt><trkpt lat="45.8047683" lon="11.7477557"><ele>530.3333333333334</ele><time>2026-04-09T15:21:44.63Z</time></trkpt><trkpt lat="45.8048453" lon="11.7479852"><ele>522.0</ele><time>2026-04-09T15:21:45.64Z</time></trkpt><trkpt lat="45.8049177" lon="11.7482233"><ele>522.0</ele><time>2026-04-09T15:21:46.636Z</time></trkpt><trkpt lat="45.8049904" lon="11.7484662"><ele>522.0</ele><time>2026-04-09T15:21:47.635Z</time></trkpt><trkpt lat="45.8050621" lon="11.7487118"><ele>522.0</ele><time>2026-04-09T15:21:48.632Z</time></trkpt><trkpt lat="45.8051346" lon="11.7489568"><ele>522.0</ele><time>2026-04-09T15:21:49.634Z</time></trkpt><trkpt lat="45.8052002" lon="11.7491903"><ele>522.0</ele><time>2026-04-09T15:21:50.637Z</time></trkpt><trkpt lat="45.8052606" lon="11.7494124"><ele>522.0</ele><time>2026-04-09T15:21:51.643Z</time></trkpt><trkpt lat="45.8053132" lon="11.7496111"><ele>522.0</ele><time>2026-04-09T15:21:52.638Z</time></trkpt><trkpt lat="45.8053527" lon="11.7497903"><ele>522.0</ele><time>2026-04-09T15:21:53.635Z</time></trkpt><trkpt lat="45.8053809" lon="11.7499439"><ele>522.0</ele><time>2026-04-09T15:21:54.64Z</time></trkpt><trkpt lat="45.8054293" lon="11.7500765"><ele>522.0</ele><time>2026-04-09T15:21:55.636Z</time></trkpt><trkpt lat="45.8055088" lon="11.7502011"><ele>513.75</ele><time>2026-04-09T15:21:56.637Z</time></trkpt><trkpt lat="45.8056218" lon="11.7503091"><ele>505.5</ele><time>2026-04-09T15:21:57.634Z</time></trkpt><trkpt lat="45.8057458" lon="11.7504118"><ele>497.25</ele><time>2026-04-09T15:21:58.635Z</time></trkpt><trkpt lat="45.805871" lon="11.7505211"><ele>489.0</ele><time>2026-04-09T15:21:59.626Z</time></trkpt><trkpt lat="45.8059932" lon="11.7506269"><ele>490.66666666666663</ele><time>2026-04-09T15:22:00.637Z</time></trkpt><trkpt lat="45.8061042" lon="11.7507831"><ele>492.3333333333333</ele><time>2026-04-09T15:22:01.64Z</time></trkpt><trkpt lat="45.8062124" lon="11.7509574"><ele>494.0</ele><time>2026-04-09T15:22:02.632Z</time></trkpt><trkpt lat="45.8063107" lon="11.7511437"><ele>494.0</ele><time>2026-04-09T15:22:03.63Z</time></trkpt><trkpt lat="45.8064028" lon="11.7513266"><ele>494.0</ele><time>2026-04-09T15:22:04.634Z</time></trkpt><trkpt lat="45.8064769" lon="11.7515019"><ele>494.0</ele><time>2026-04-09T15:22:05.643Z</time></trkpt><trkpt lat="45.8065475" lon="11.7516683"><ele>494.0</ele><time>2026-04-09T15:22:06.653Z</time></trkpt><trkpt lat="45.8066268" lon="11.7518265"><ele>487.25</ele><time>2026-04-09T15:22:07.633Z</time></trkpt><trkpt lat="45.8067422" lon="11.7519545"><ele>480.5</ele><time>2026-04-09T15:22:08.645Z</time></trkpt><trkpt lat="45.8068777" lon="11.7520685"><ele>473.75</ele><time>2026-04-09T15:22:09.641Z</time></trkpt><trkpt lat="45.8070004" lon="11.7521724"><ele>467.0</ele><time>2026-04-09T15:22:10.634Z</time></trkpt><trkpt lat="45.8071213" lon="11.7522574"><ele>467.0</ele><time>2026-04-09T15:22:11.633Z</time></trkpt><trkpt lat="45.8072587" lon="11.7523175"><ele>467.0</ele><time>2026-04-09T15:22:12.643Z</time></trkpt><trkpt lat="45.8074117" lon="11.7523509"><ele>467.0</ele><time>2026-04-09T15:22:13.633Z</time></trkpt><trkpt lat="45.8075749" lon="11.7523739"><ele>467.3333333333333</ele><time>2026-04-09T15:22:14.63Z</time></trkpt><trkpt lat="45.807746" lon="11.7523919"><ele>467.66666666666663</ele><time>2026-04-09T15:22:15.642Z</time></trkpt><trkpt lat="45.8079135" lon="11.7523992"><ele>468.0</ele><time>2026-04-09T15:22:16.639Z</time></trkpt><trkpt lat="45.8080793" lon="11.7524156"><ele>468.0</ele><time>2026-04-09T15:22:17.634Z</time></trkpt><trkpt lat="45.8082511" lon="11.7524221"><ele>468.0</ele><time>2026-04-09T15:22:18.637Z</time></trkpt><trkpt lat="45.8084237" lon="11.7524156"><ele>468.0</ele><time>2026-04-09T15:22:19.644Z</time></trkpt><trkpt lat="45.8085913" lon="11.7523967"><ele>464.33333333333337</ele><time>2026-04-09T15:22:20.632Z</time></trkpt><trkpt lat="45.8087562" lon="11.7523684"><ele>460.6666666666667</ele><time>2026-04-09T15:22:21.633Z</time></trkpt><trkpt lat="45.8089169" lon="11.7523306"><ele>457.0</ele><time>2026-04-09T15:22:22.639Z</time></trkpt><trkpt lat="45.8090667" lon="11.7522812"><ele>457.0</ele><time>2026-04-09T15:22:23.637Z</time></trkpt><trkpt lat="45.8092201" lon="11.7522543"><ele>457.0</ele><time>2026-04-09T15:22:24.637Z</time></trkpt><trkpt lat="45.8093722" lon="11.7522665"><ele>457.0</ele><time>2026-04-09T15:22:25.635Z</time></trkpt><trkpt lat="45.8095104" lon="11.752221"><ele>457.0</ele><time>2026-04-09T15:22:26.637Z</time></trkpt><trkpt lat="45.8096461" lon="11.7521194"><ele>456.5</ele><time>2026-04-09T15:22:27.631Z</time></trkpt><trkpt lat="45.8097706" lon="11.7520016"><ele>456.0</ele><time>2026-04-09T15:22:28.644Z</time></trkpt><trkpt lat="45.8098958" lon="11.7519138"><ele>455.5</ele><time>2026-04-09T15:22:29.633Z</time></trkpt><trkpt lat="45.8100268" lon="11.7518144"><ele>455.0</ele><time>2026-04-09T15:22:30.631Z</time></trkpt><trkpt lat="45.8101694" lon="11.7518185"><ele>455.0</ele><time>2026-04-09T15:22:31.639Z</time></trkpt><trkpt lat="45.8103119" lon="11.7518165"><ele>455.0</ele><time>2026-04-09T15:22:32.628Z</time></trkpt><trkpt lat="45.8104219" lon="11.7517824"><ele>455.0</ele><time>2026-04-09T15:22:33.635Z</time></trkpt><trkpt lat="45.8105136" lon="11.7517401"><ele>455.0</ele><time>2026-04-09T15:22:34.64Z</time></trkpt><trkpt lat="45.8105876" lon="11.7517208"><ele>455.0</ele><time>2026-04-09T15:22:35.637Z</time></trkpt><trkpt lat="45.8106419" lon="11.7518808"><ele>451.6</ele><time>2026-04-09T15:22:38.645Z</time></trkpt><trkpt lat="45.8105835" lon="11.7519178"><ele>448.2</ele><time>2026-04-09T15:22:39.636Z</time></trkpt><trkpt lat="45.8105018" lon="11.7519352"><ele>444.79999999999995</ele><time>2026-04-09T15:22:40.632Z</time></trkpt><trkpt lat="45.8103957" lon="11.7519492"><ele>441.4</ele><time>2026-04-09T15:22:41.635Z</time></trkpt><trkpt lat="45.8102736" lon="11.7519643"><ele>438.0</ele><time>2026-04-09T15:22:42.632Z</time></trkpt><trkpt lat="45.810135" lon="11.7519891"><ele>438.0</ele><time>2026-04-09T15:22:43.633Z</time></trkpt><trkpt lat="45.8100164" lon="11.7520291"><ele>438.0</ele><time>2026-04-09T15:22:44.633Z</time></trkpt><trkpt lat="45.8099066" lon="11.7521119"><ele>438.0</ele><time>2026-04-09T15:22:45.635Z</time></trkpt><trkpt lat="45.809799" lon="11.752229"><ele>438.0</ele><time>2026-04-09T15:22:46.633Z</time></trkpt><trkpt lat="45.809691" lon="11.7523714"><ele>438.0</ele><time>2026-04-09T15:22:47.637Z</time></trkpt><trkpt lat="45.8095799" lon="11.7524913"><ele>438.0</ele><time>2026-04-09T15:22:48.632Z</time></trkpt><trkpt lat="45.8094584" lon="11.7525784"><ele>438.0</ele><time>2026-04-09T15:22:49.638Z</time></trkpt><trkpt lat="45.8093278" lon="11.7526426"><ele>438.0</ele><time>2026-04-09T15:22:50.632Z</time></trkpt><trkpt lat="45.8091972" lon="11.7527038"><ele>432.25</ele><time>2026-04-09T15:22:51.636Z</time></trkpt><trkpt lat="45.809062" lon="11.752765"><ele>426.5</ele><time>2026-04-09T15:22:52.646Z</time></trkpt><trkpt lat="45.8089224" lon="11.7528224"><ele>420.75</ele><time>2026-04-09T15:22:53.654Z</time></trkpt><trkpt lat="45.8087851" lon="11.7528834"><ele>415.0</ele><time>2026-04-09T15:22:54.633Z</time></trkpt><trkpt lat="45.8086385" lon="11.7529542"><ele>417.0</ele><time>2026-04-09T15:22:55.633Z</time></trkpt><trkpt lat="45.8084801" lon="11.7530145"><ele>419.0</ele><time>2026-04-09T15:22:56.634Z</time></trkpt><trkpt lat="45.8083238" lon="11.7530698"><ele>421.0</ele><time>2026-04-09T15:22:57.639Z</time></trkpt><trkpt lat="45.8081648" lon="11.753119"><ele>421.0</ele><time>2026-04-09T15:22:58.632Z</time></trkpt><trkpt lat="45.8080008" lon="11.7531562"><ele>421.0</ele><time>2026-04-09T15:22:59.682Z</time></trkpt><trkpt lat="45.8078438" lon="11.7531851"><ele>421.0</ele><time>2026-04-09T15:23:00.629Z</time></trkpt><trkpt lat="45.8076908" lon="11.7531997"><ele>423.25</ele><time>2026-04-09T15:23:01.639Z</time></trkpt><trkpt lat="45.8075433" lon="11.7532184"><ele>425.5</ele><time>2026-04-09T15:23:02.642Z</time></trkpt><trkpt lat="45.8073933" lon="11.753257"><ele>427.75</ele><time>2026-04-09T15:23:03.639Z</time></trkpt><trkpt lat="45.8072529" lon="11.7533034"><ele>430.0</ele><time>2026-04-09T15:23:04.641Z</time></trkpt><trkpt lat="45.8071085" lon="11.7533493"><ele>430.0</ele><time>2026-04-09T15:23:05.644Z</time></trkpt><trkpt lat="45.8069576" lon="11.7533705"><ele>430.0</ele><time>2026-04-09T15:23:06.637Z</time></trkpt><trkpt lat="45.8068039" lon="11.7533715"><ele>430.0</ele><time>2026-04-09T15:23:07.634Z</time></trkpt><trkpt lat="45.8066536" lon="11.7533193"><ele>423.33333333333337</ele><time>2026-04-09T15:23:08.642Z</time></trkpt><trkpt lat="45.8065072" lon="11.7532609"><ele>416.66666666666663</ele><time>2026-04-09T15:23:09.643Z</time></trkpt><trkpt lat="45.8063539" lon="11.7531687"><ele>410.0</ele><time>2026-04-09T15:23:10.634Z</time></trkpt><trkpt lat="45.8062127" lon="11.7530499"><ele>410.0</ele><time>2026-04-09T15:23:11.638Z</time></trkpt><trkpt lat="45.8060745" lon="11.7529307"><ele>410.0</ele><time>2026-04-09T15:23:12.636Z</time></trkpt><trkpt lat="45.8059395" lon="11.7527998"><ele>410.0</ele><time>2026-04-09T15:23:13.643Z</time></trkpt><trkpt lat="45.8058039" lon="11.7526757"><ele>413.3333333333333</ele><time>2026-04-09T15:23:14.639Z</time></trkpt><trkpt lat="45.8056684" lon="11.752561"><ele>416.66666666666663</ele><time>2026-04-09T15:23:15.636Z</time></trkpt><trkpt lat="45.8055313" lon="11.7524529"><ele>420.0</ele><time>2026-04-09T15:23:16.635Z</time></trkpt><trkpt lat="45.8053928" lon="11.7523428"><ele>420.0</ele><time>2026-04-09T15:23:17.634Z</time></trkpt><trkpt lat="45.8052509" lon="11.752227"><ele>420.0</ele><time>2026-04-09T15:23:18.642Z</time></trkpt><trkpt lat="45.8051168" lon="11.7521085"><ele>420.0</ele><time>2026-04-09T15:23:19.64Z</time></trkpt><trkpt lat="45.8049768" lon="11.7519968"><ele>418.33333333333337</ele><time>2026-04-09T15:23:20.634Z</time></trkpt><trkpt lat="45.8048358" lon="11.7518902"><ele>416.6666666666667</ele><time>2026-04-09T15:23:21.635Z</time></trkpt><trkpt lat="45.8047071" lon="11.7517824"><ele>415.0</ele><time>2026-04-09T15:23:22.638Z</time></trkpt><trkpt lat="45.8045835" lon="11.7516777"><ele>415.0</ele><time>2026-04-09T15:23:23.641Z</time></trkpt><trkpt lat="45.804473" lon="11.7515586"><ele>415.0</ele><time>2026-04-09T15:23:24.635Z</time></trkpt><trkpt lat="45.8043713" lon="11.7514374"><ele>415.0</ele><time>2026-04-09T15:23:25.636Z</time></trkpt><trkpt lat="45.8042897" lon="11.751296"><ele>415.0</ele><time>2026-04-09T15:23:26.632Z</time></trkpt><trkpt lat="45.8042128" lon="11.7511393"><ele>409.0</ele><time>2026-04-09T15:23:27.634Z</time></trkpt><trkpt lat="45.8041412" lon="11.7509549"><ele>403.0</ele><time>2026-04-09T15:23:28.634Z</time></trkpt><trkpt lat="45.8040579" lon="11.7507805"><ele>397.0</ele><time>2026-04-09T15:23:29.637Z</time></trkpt><trkpt lat="45.8039718" lon="11.7505956"><ele>397.0</ele><time>2026-04-09T15:23:30.628Z</time></trkpt><trkpt lat="45.803885" lon="11.7504087"><ele>397.0</ele><time>2026-04-09T15:23:31.635Z</time></trkpt><trkpt lat="45.8037913" lon="11.7502157"><ele>397.0</ele><time>2026-04-09T15:23:32.638Z</time></trkpt><trkpt lat="45.8036992" lon="11.7500164"><ele>402.33333333333337</ele><time>2026-04-09T15:23:33.631Z</time></trkpt><trkpt lat="45.8036004" lon="11.7498334"><ele>407.66666666666663</ele><time>2026-04-09T15:23:34.651Z</time></trkpt><trkpt lat="45.8034993" lon="11.7496533"><ele>413.0</ele><time>2026-04-09T15:23:35.635Z</time></trkpt><trkpt lat="45.8033997" lon="11.7494846"><ele>407.5</ele><time>2026-04-09T15:23:36.638Z</time></trkpt><trkpt lat="45.8033012" lon="11.7493222"><ele>402.0</ele><time>2026-04-09T15:23:37.65Z</time></trkpt><trkpt lat="45.8032091" lon="11.7491626"><ele>396.5</ele><time>2026-04-09T15:23:38.638Z</time></trkpt><trkpt lat="45.8031269" lon="11.7490264"><ele>391.0</ele><time>2026-04-09T15:23:39.635Z</time></trkpt><trkpt lat="45.8030352" lon="11.7489172"><ele>391.0</ele><time>2026-04-09T15:23:40.628Z</time></trkpt><trkpt lat="45.8029358" lon="11.7488394"><ele>391.0</ele><time>2026-04-09T15:23:41.645Z</time></trkpt><trkpt lat="45.8028343" lon="11.7487645"><ele>391.0</ele><time>2026-04-09T15:23:42.638Z</time></trkpt><trkpt lat="45.8026878" lon="11.7487592"><ele>391.0</ele><time>2026-04-09T15:23:43.631Z</time></trkpt><trkpt lat="45.8025509" lon="11.748771"><ele>382.0</ele><time>2026-04-09T15:23:44.634Z</time></trkpt><trkpt lat="45.8024185" lon="11.7487584"><ele>373.0</ele><time>2026-04-09T15:23:45.634Z</time></trkpt><trkpt lat="45.802285" lon="11.7487567"><ele>364.0</ele><time>2026-04-09T15:23:46.634Z</time></trkpt><trkpt lat="45.8021505" lon="11.7487308"><ele>355.0</ele><time>2026-04-09T15:23:47.637Z</time></trkpt><trkpt lat="45.8020266" lon="11.7486976"><ele>355.0</ele><time>2026-04-09T15:23:48.63Z</time></trkpt><trkpt lat="45.8019168" lon="11.7486329"><ele>355.0</ele><time>2026-04-09T15:23:49.63Z</time></trkpt><trkpt lat="45.8018219" lon="11.7485376"><ele>355.0</ele><time>2026-04-09T15:23:50.646Z</time></trkpt><trkpt lat="45.8017151" lon="11.7484232"><ele>355.0</ele><time>2026-04-09T15:23:51.642Z</time></trkpt><trkpt lat="45.8016169" lon="11.7483112"><ele>357.25</ele><time>2026-04-09T15:23:52.644Z</time></trkpt><trkpt lat="45.8015201" lon="11.7481939"><ele>359.5</ele><time>2026-04-09T15:23:53.628Z</time></trkpt><trkpt lat="45.8014153" lon="11.7480731"><ele>361.75</ele><time>2026-04-09T15:23:54.637Z</time></trkpt><trkpt lat="45.8013234" lon="11.7479512"><ele>364.0</ele><time>2026-04-09T15:23:55.635Z</time></trkpt><trkpt lat="45.8012265" lon="11.7478546"><ele>364.0</ele><time>2026-04-09T15:23:56.639Z</time></trkpt><trkpt lat="45.8011403" lon="11.7477476"><ele>364.0</ele><time>2026-04-09T15:23:57.63Z</time></trkpt><trkpt lat="45.8010385" lon="11.7476539"><ele>364.0</ele><time>2026-04-09T15:23:58.637Z</time></trkpt><trkpt lat="45.8009545" lon="11.7475384"><ele>364.0</ele><time>2026-04-09T15:23:59.638Z</time></trkpt><trkpt lat="45.8008606" lon="11.7474307"><ele>360.79999999999995</ele><time>2026-04-09T15:24:00.664Z</time></trkpt><trkpt lat="45.8007802" lon="11.747296"><ele>357.59999999999997</ele><time>2026-04-09T15:24:01.635Z</time></trkpt><trkpt lat="45.8007235" lon="11.7471739"><ele>354.4</ele><time>2026-04-09T15:24:02.639Z</time></trkpt><trkpt lat="45.8006949" lon="11.7470787"><ele>351.2</ele><time>2026-04-09T15:24:03.637Z</time></trkpt><trkpt lat="45.8006759" lon="11.7469717"><ele>348.0</ele><time>2026-04-09T15:24:04.638Z</time></trkpt><trkpt lat="45.8005662" lon="11.7469016"><ele>348.0</ele><time>2026-04-09T15:24:06.636Z</time></trkpt><trkpt lat="45.8005048" lon="11.7469494"><ele>348.0</ele><time>2026-04-09T15:24:07.638Z</time></trkpt><trkpt lat="45.8004812" lon="11.7470573"><ele>348.0</ele><time>2026-04-09T15:24:08.636Z</time></trkpt><trkpt lat="45.8005346" lon="11.7471827"><ele>348.0</ele><time>2026-04-09T15:24:09.642Z</time></trkpt><trkpt lat="45.8006033" lon="11.7472869"><ele>348.0</ele><time>2026-04-09T15:24:10.639Z</time></trkpt><trkpt lat="45.8006681" lon="11.747393"><ele>348.0</ele><time>2026-04-09T15:24:11.649Z</time></trkpt><trkpt lat="45.8007389" lon="11.7475056"><ele>348.0</ele><time>2026-04-09T15:24:12.637Z</time></trkpt><trkpt lat="45.8008069" lon="11.7476096"><ele>348.0</ele><time>2026-04-09T15:24:13.636Z</time></trkpt><trkpt lat="45.8008648" lon="11.7477269"><ele>348.0</ele><time>2026-04-09T15:24:14.634Z</time></trkpt><trkpt lat="45.8009211" lon="11.7478679"><ele>348.0</ele><time>2026-04-09T15:24:15.639Z</time></trkpt><trkpt lat="45.8009831" lon="11.7480085"><ele>348.0</ele><time>2026-04-09T15:24:16.634Z</time></trkpt><trkpt lat="45.8010526" lon="11.748145"><ele>352.0</ele><time>2026-04-09T15:24:17.641Z</time></trkpt><trkpt lat="45.8011251" lon="11.7482905"><ele>356.0</ele><time>2026-04-09T15:24:18.638Z</time></trkpt><trkpt lat="45.8012004" lon="11.7484436"><ele>360.0</ele><time>2026-04-09T15:24:19.639Z</time></trkpt><trkpt lat="45.8012729" lon="11.7485957"><ele>364.0</ele><time>2026-04-09T15:24:20.628Z</time></trkpt><trkpt lat="45.8013559" lon="11.7487384"><ele>354.5</ele><time>2026-04-09T15:24:21.646Z</time></trkpt><trkpt lat="45.8014357" lon="11.748885"><ele>345.0</ele><time>2026-04-09T15:24:22.647Z</time></trkpt><trkpt lat="45.8015133" lon="11.749028"><ele>335.5</ele><time>2026-04-09T15:24:23.639Z</time></trkpt><trkpt lat="45.801597" lon="11.7491581"><ele>326.0</ele><time>2026-04-09T15:24:24.661Z</time></trkpt><trkpt lat="45.8016919" lon="11.7492675"><ele>326.0</ele><time>2026-04-09T15:24:25.641Z</time></trkpt><trkpt lat="45.8017939" lon="11.7493646"><ele>326.0</ele><time>2026-04-09T15:24:26.641Z</time></trkpt><trkpt lat="45.8019045" lon="11.7494393"><ele>326.0</ele><time>2026-04-09T15:24:27.644Z</time></trkpt><trkpt lat="45.8020146" lon="11.7495074"><ele>326.0</ele><time>2026-04-09T15:24:28.637Z</time></trkpt><trkpt lat="45.8021242" lon="11.7495735"><ele>324.25</ele><time>2026-04-09T15:24:29.634Z</time></trkpt><trkpt lat="45.8022242" lon="11.7496309"><ele>322.5</ele><time>2026-04-09T15:24:30.632Z</time></trkpt><trkpt lat="45.8023297" lon="11.7497097"><ele>320.75</ele><time>2026-04-09T15:24:31.645Z</time></trkpt><trkpt lat="45.8024267" lon="11.7498139"><ele>319.0</ele><time>2026-04-09T15:24:32.636Z</time></trkpt><trkpt lat="45.802507" lon="11.7499387"><ele>319.0</ele><time>2026-04-09T15:24:33.631Z</time></trkpt><trkpt lat="45.802567" lon="11.750086"><ele>319.0</ele><time>2026-04-09T15:24:34.635Z</time></trkpt><trkpt lat="45.8026197" lon="11.7502521"><ele>319.0</ele><time>2026-04-09T15:24:35.633Z</time></trkpt><trkpt lat="45.8026735" lon="11.7504198"><ele>319.0</ele><time>2026-04-09T15:24:36.638Z</time></trkpt><trkpt lat="45.8027336" lon="11.7505934"><ele>319.75</ele><time>2026-04-09T15:24:37.642Z</time></trkpt><trkpt lat="45.8027903" lon="11.7507678"><ele>320.5</ele><time>2026-04-09T15:24:38.634Z</time></trkpt><trkpt lat="45.8028455" lon="11.750945"><ele>321.25</ele><time>2026-04-09T15:24:39.643Z</time></trkpt><trkpt lat="45.8029011" lon="11.7511267"><ele>322.0</ele><time>2026-04-09T15:24:40.642Z</time></trkpt><trkpt lat="45.8029595" lon="11.7513087"><ele>322.0</ele><time>2026-04-09T15:24:41.642Z</time></trkpt><trkpt lat="45.8030229" lon="11.7514875"><ele>322.0</ele><time>2026-04-09T15:24:42.633Z</time></trkpt><trkpt lat="45.8030856" lon="11.7516682"><ele>322.0</ele><time>2026-04-09T15:24:43.636Z</time></trkpt><trkpt lat="45.8031537" lon="11.7518499"><ele>322.0</ele><time>2026-04-09T15:24:44.635Z</time></trkpt><trkpt lat="45.8032168" lon="11.7520335"><ele>316.75</ele><time>2026-04-09T15:24:45.64Z</time></trkpt><trkpt lat="45.8032787" lon="11.7522146"><ele>311.5</ele><time>2026-04-09T15:24:46.642Z</time></trkpt><trkpt lat="45.8033445" lon="11.7523948"><ele>306.25</ele><time>2026-04-09T15:24:47.638Z</time></trkpt><trkpt lat="45.8034216" lon="11.7525695"><ele>301.0</ele><time>2026-04-09T15:24:48.633Z</time></trkpt><trkpt lat="45.8035069" lon="11.7527404"><ele>301.0</ele><time>2026-04-09T15:24:49.647Z</time></trkpt><trkpt lat="45.8035991" lon="11.7529075"><ele>301.0</ele><time>2026-04-09T15:24:50.644Z</time></trkpt><trkpt lat="45.8036953" lon="11.7530718"><ele>301.0</ele><time>2026-04-09T15:24:51.633Z</time></trkpt><trkpt lat="45.803796" lon="11.7532364"><ele>301.0</ele><time>2026-04-09T15:24:52.635Z</time></trkpt><trkpt lat="45.8038963" lon="11.7534025"><ele>301.0</ele><time>2026-04-09T15:24:53.638Z</time></trkpt><trkpt lat="45.8039952" lon="11.7535705"><ele>301.0</ele><time>2026-04-09T15:24:54.634Z</time></trkpt><trkpt lat="45.8040949" lon="11.7537402"><ele>304.3333333333333</ele><time>2026-04-09T15:24:55.64Z</time></trkpt><trkpt lat="45.8041951" lon="11.7539097"><ele>307.6666666666667</ele><time>2026-04-09T15:24:56.638Z</time></trkpt><trkpt lat="45.8042982" lon="11.7540757"><ele>311.0</ele><time>2026-04-09T15:24:57.634Z</time></trkpt><trkpt lat="45.8043976" lon="11.7542366"><ele>299.0</ele><time>2026-04-09T15:24:58.633Z</time></trkpt><trkpt lat="45.8045133" lon="11.7543897"><ele>287.0</ele><time>2026-04-09T15:24:59.638Z</time></trkpt><trkpt lat="45.804627" lon="11.7545392"><ele>275.0</ele><time>2026-04-09T15:25:00.632Z</time></trkpt><trkpt lat="45.8047455" lon="11.7546874"><ele>275.0</ele><time>2026-04-09T15:25:01.64Z</time></trkpt><trkpt lat="45.8048584" lon="11.7548427"><ele>275.0</ele><time>2026-04-09T15:25:02.634Z</time></trkpt><trkpt lat="45.8049656" lon="11.7549966"><ele>275.0</ele><time>2026-04-09T15:25:03.632Z</time></trkpt><trkpt lat="45.8050745" lon="11.7551502"><ele>271.33333333333337</ele><time>2026-04-09T15:25:04.645Z</time></trkpt><trkpt lat="45.8051868" lon="11.7553015"><ele>267.6666666666667</ele><time>2026-04-09T15:25:05.652Z</time></trkpt><trkpt lat="45.8053045" lon="11.7554472"><ele>264.0</ele><time>2026-04-09T15:25:06.631Z</time></trkpt><trkpt lat="45.8054326" lon="11.7555775"><ele>264.0</ele><time>2026-04-09T15:25:07.638Z</time></trkpt><trkpt lat="45.8055657" lon="11.7556982"><ele>264.0</ele><time>2026-04-09T15:25:08.638Z</time></trkpt><trkpt lat="45.8057057" lon="11.7558104"><ele>264.0</ele><time>2026-04-09T15:25:09.656Z</time></trkpt><trkpt lat="45.8058472" lon="11.7559145"><ele>264.0</ele><time>2026-04-09T15:25:10.646Z</time></trkpt><trkpt lat="45.8059857" lon="11.7560072"><ele>264.0</ele><time>2026-04-09T15:25:11.635Z</time></trkpt><trkpt lat="45.8061256" lon="11.7560974"><ele>264.0</ele><time>2026-04-09T15:25:12.643Z</time></trkpt><trkpt lat="45.806259" lon="11.7561852"><ele>255.33333333333331</ele><time>2026-04-09T15:25:13.633Z</time></trkpt><trkpt lat="45.8063959" lon="11.7562706"><ele>246.66666666666666</ele><time>2026-04-09T15:25:14.638Z</time></trkpt><trkpt lat="45.8065417" lon="11.756351"><ele>238.0</ele><time>2026-04-09T15:25:15.641Z</time></trkpt><trkpt lat="45.806688" lon="11.7564135"><ele>239.25</ele><time>2026-04-09T15:25:16.638Z</time></trkpt><trkpt lat="45.8068297" lon="11.7564626"><ele>240.5</ele><time>2026-04-09T15:25:17.636Z</time></trkpt><trkpt lat="45.8069668" lon="11.7565066"><ele>241.75</ele><time>2026-04-09T15:25:18.635Z</time></trkpt><trkpt lat="45.8071014" lon="11.7565454"><ele>243.0</ele><time>2026-04-09T15:25:19.624Z</time></trkpt><trkpt lat="45.8072299" lon="11.7565832"><ele>243.0</ele><time>2026-04-09T15:25:20.649Z</time></trkpt><trkpt lat="45.8073521" lon="11.7566071"><ele>243.0</ele><time>2026-04-09T15:25:21.652Z</time></trkpt><trkpt lat="45.8074588" lon="11.7566232"><ele>243.0</ele><time>2026-04-09T15:25:22.65Z</time></trkpt><trkpt lat="45.8075511" lon="11.7566393"><ele>243.0</ele><time>2026-04-09T15:25:23.651Z</time></trkpt><trkpt lat="45.807631" lon="11.7566538"><ele>243.0</ele><time>2026-04-09T15:25:24.664Z</time></trkpt><trkpt lat="45.8077307" lon="11.7567043"><ele>243.0</ele><time>2026-04-09T15:25:26.659Z</time></trkpt><trkpt lat="45.8077074" lon="11.7568294"><ele>243.0</ele><time>2026-04-09T15:25:28.643Z</time></trkpt><trkpt lat="45.8075897" lon="11.7568446"><ele>243.0</ele><time>2026-04-09T15:25:30.669Z</time></trkpt><trkpt lat="45.8075137" lon="11.7568184"><ele>243.0</ele><time>2026-04-09T15:25:31.647Z</time></trkpt><trkpt lat="45.8074325" lon="11.756799"><ele>243.0</ele><time>2026-04-09T15:25:32.646Z</time></trkpt><trkpt lat="45.8073497" lon="11.7567868"><ele>243.0</ele><time>2026-04-09T15:25:33.641Z</time></trkpt><trkpt lat="45.807257" lon="11.7567784"><ele>243.0</ele><time>2026-04-09T15:25:34.64Z</time></trkpt><trkpt lat="45.8071561" lon="11.7567731"><ele>243.0</ele><time>2026-04-09T15:25:35.636Z</time></trkpt><trkpt lat="45.8070478" lon="11.7567665"><ele>243.0</ele><time>2026-04-09T15:25:36.659Z</time></trkpt><trkpt lat="45.8069346" lon="11.7567616"><ele>243.0</ele><time>2026-04-09T15:25:37.646Z</time></trkpt><trkpt lat="45.8068232" lon="11.7567579"><ele>241.33333333333331</ele><time>2026-04-09T15:25:38.645Z</time></trkpt><trkpt lat="45.8067113" lon="11.7567534"><ele>239.66666666666666</ele><time>2026-04-09T15:25:39.647Z</time></trkpt><trkpt lat="45.8064828" lon="11.7567365"><ele>238.0</ele><time>2026-04-09T15:25:41.671Z</time></trkpt><trkpt lat="45.8063662" lon="11.7567232"><ele>238.0</ele><time>2026-04-09T15:25:42.665Z</time></trkpt><trkpt lat="45.8062479" lon="11.756707"><ele>238.0</ele><time>2026-04-09T15:25:43.639Z</time></trkpt><trkpt lat="45.8061246" lon="11.7566879"><ele>238.0</ele><time>2026-04-09T15:25:44.637Z</time></trkpt><trkpt lat="45.8059961" lon="11.7566688"><ele>238.0</ele><time>2026-04-09T15:25:45.64Z</time></trkpt><trkpt lat="45.8058646" lon="11.7566477"><ele>234.5</ele><time>2026-04-09T15:25:46.633Z</time></trkpt><trkpt lat="45.8057316" lon="11.7566219"><ele>231.0</ele><time>2026-04-09T15:25:47.635Z</time></trkpt><trkpt lat="45.8056031" lon="11.7565902"><ele>227.5</ele><time>2026-04-09T15:25:48.641Z</time></trkpt><trkpt lat="45.805476" lon="11.7565471"><ele>224.0</ele><time>2026-04-09T15:25:49.649Z</time></trkpt><trkpt lat="45.8053526" lon="11.7565032"><ele>224.0</ele><time>2026-04-09T15:25:50.637Z</time></trkpt><trkpt lat="45.8052369" lon="11.7564609"><ele>224.0</ele><time>2026-04-09T15:25:51.651Z</time></trkpt><trkpt lat="45.8051179" lon="11.7564162"><ele>224.0</ele><time>2026-04-09T15:25:52.641Z</time></trkpt><trkpt lat="45.8050074" lon="11.7563706"><ele>224.0</ele><time>2026-04-09T15:25:53.636Z</time></trkpt><trkpt lat="45.8049008" lon="11.7563273"><ele>221.0</ele><time>2026-04-09T15:25:54.634Z</time></trkpt><trkpt lat="45.8047978" lon="11.7562987"><ele>217.99999999999997</ele><time>2026-04-09T15:25:55.631Z</time></trkpt><trkpt lat="45.804701" lon="11.7562865"><ele>215.0</ele><time>2026-04-09T15:25:56.655Z</time></trkpt><trkpt lat="45.8046077" lon="11.7562968"><ele>212.0</ele><time>2026-04-09T15:25:57.642Z</time></trkpt><trkpt lat="45.8045183" lon="11.7563298"><ele>209.0</ele><time>2026-04-09T15:25:58.645Z</time></trkpt><trkpt lat="45.8044295" lon="11.7563997"><ele>209.0</ele><time>2026-04-09T15:25:59.638Z</time></trkpt><trkpt lat="45.8043442" lon="11.7564963"><ele>209.0</ele><time>2026-04-09T15:26:00.634Z</time></trkpt><trkpt lat="45.804256" lon="11.7566001"><ele>209.0</ele><time>2026-04-09T15:26:01.644Z</time></trkpt><trkpt lat="45.8041527" lon="11.756692"><ele>209.0</ele><time>2026-04-09T15:26:02.669Z</time></trkpt><trkpt lat="45.8040391" lon="11.7567745"><ele>207.0</ele><time>2026-04-09T15:26:03.64Z</time></trkpt><trkpt lat="45.80392" lon="11.756849"><ele>205.0</ele><time>2026-04-09T15:26:04.641Z</time></trkpt><trkpt lat="45.8038042" lon="11.7569236"><ele>203.0</ele><time>2026-04-09T15:26:05.632Z</time></trkpt><trkpt lat="45.8036949" lon="11.7569909"><ele>201.0</ele><time>2026-04-09T15:26:06.634Z</time></trkpt><trkpt lat="45.8035923" lon="11.757054"><ele>199.0</ele><time>2026-04-09T15:26:07.636Z</time></trkpt><trkpt lat="45.8034956" lon="11.7571103"><ele>197.0</ele><time>2026-04-09T15:26:08.63Z</time></trkpt><trkpt lat="45.8033951" lon="11.7571721"><ele>195.0</ele><time>2026-04-09T15:26:09.642Z</time></trkpt><trkpt lat="45.8032876" lon="11.7572411"><ele>193.0</ele><time>2026-04-09T15:26:10.634Z</time></trkpt><trkpt lat="45.8031759" lon="11.7573148"><ele>193.0</ele><time>2026-04-09T15:26:11.639Z</time></trkpt><trkpt lat="45.8030584" lon="11.7573926"><ele>193.0</ele><time>2026-04-09T15:26:12.637Z</time></trkpt><trkpt lat="45.8029385" lon="11.757471"><ele>193.0</ele><time>2026-04-09T15:26:13.639Z</time></trkpt><trkpt lat="45.8028181" lon="11.7575522"><ele>193.0</ele><time>2026-04-09T15:26:14.634Z</time></trkpt><trkpt lat="45.8026968" lon="11.7576352"><ele>192.0</ele><time>2026-04-09T15:26:15.631Z</time></trkpt><trkpt lat="45.8025765" lon="11.757716"><ele>191.0</ele><time>2026-04-09T15:26:16.63Z</time></trkpt><trkpt lat="45.8024635" lon="11.7577869"><ele>190.0</ele><time>2026-04-09T15:26:17.647Z</time></trkpt><trkpt lat="45.8023561" lon="11.7578464"><ele>189.0</ele><time>2026-04-09T15:26:18.644Z</time></trkpt><trkpt lat="45.8022432" lon="11.7578871"><ele>189.0</ele><time>2026-04-09T15:26:19.639Z</time></trkpt><trkpt lat="45.8021244" lon="11.7579004"><ele>189.0</ele><time>2026-04-09T15:26:20.638Z</time></trkpt><trkpt lat="45.8020098" lon="11.7578838"><ele>189.0</ele><time>2026-04-09T15:26:21.637Z</time></trkpt><trkpt lat="45.8018965" lon="11.7578573"><ele>189.0</ele><time>2026-04-09T15:26:22.63Z</time></trkpt><trkpt lat="45.8017813" lon="11.757837"><ele>188.6</ele><time>2026-04-09T15:26:23.629Z</time></trkpt><trkpt lat="45.8016672" lon="11.757875"><ele>188.2</ele><time>2026-04-09T15:26:24.629Z</time></trkpt><trkpt lat="45.8015594" lon="11.7579147"><ele>187.79999999999998</ele><time>2026-04-09T15:26:25.642Z</time></trkpt><trkpt lat="45.8014646" lon="11.7579218"><ele>187.39999999999998</ele><time>2026-04-09T15:26:26.637Z</time></trkpt><trkpt lat="45.8013722" lon="11.75788"><ele>187.0</ele><time>2026-04-09T15:26:27.63Z</time></trkpt><trkpt lat="45.8012841" lon="11.7578029"><ele>187.0</ele><time>2026-04-09T15:26:28.629Z</time></trkpt><trkpt lat="45.8011986" lon="11.7577045"><ele>187.0</ele><time>2026-04-09T15:26:29.634Z</time></trkpt><trkpt lat="45.8011088" lon="11.7576036"><ele>187.0</ele><time>2026-04-09T15:26:30.632Z</time></trkpt><trkpt lat="45.8010097" lon="11.7575015"><ele>187.0</ele><time>2026-04-09T15:26:31.635Z</time></trkpt><trkpt lat="45.8009097" lon="11.7574032"><ele>186.39999999999998</ele><time>2026-04-09T15:26:32.634Z</time></trkpt><trkpt lat="45.8008156" lon="11.7573131"><ele>185.79999999999998</ele><time>2026-04-09T15:26:33.632Z</time></trkpt><trkpt lat="45.8007315" lon="11.7572363"><ele>185.2</ele><time>2026-04-09T15:26:34.635Z</time></trkpt><trkpt lat="45.8006529" lon="11.7571661"><ele>184.6</ele><time>2026-04-09T15:26:35.647Z</time></trkpt><trkpt lat="45.800582" lon="11.7570986"><ele>184.0</ele><time>2026-04-09T15:26:36.636Z</time></trkpt><trkpt lat="45.8005114" lon="11.7570251"><ele>184.0</ele><time>2026-04-09T15:26:37.645Z</time></trkpt><trkpt lat="45.8004406" lon="11.756943"><ele>184.0</ele><time>2026-04-09T15:26:38.633Z</time></trkpt><trkpt lat="45.8003827" lon="11.7568526"><ele>184.0</ele><time>2026-04-09T15:26:39.639Z</time></trkpt><trkpt lat="45.8003422" lon="11.7567655"><ele>184.0</ele><time>2026-04-09T15:26:40.632Z</time></trkpt><trkpt lat="45.8002802" lon="11.7566274"><ele>184.0</ele><time>2026-04-09T15:26:42.636Z</time></trkpt><trkpt lat="45.800175" lon="11.7565399"><ele>184.0</ele><time>2026-04-09T15:26:44.64Z</time></trkpt><trkpt lat="45.8001041" lon="11.7565156"><ele>184.0</ele><time>2026-04-09T15:26:45.636Z</time></trkpt><trkpt lat="45.8000218" lon="11.7565"><ele>184.0</ele><time>2026-04-09T15:26:46.644Z</time></trkpt><trkpt lat="45.7999331" lon="11.7564849"><ele>184.0</ele><time>2026-04-09T15:26:47.644Z</time></trkpt><trkpt lat="45.7998418" lon="11.7564687"><ele>184.0</ele><time>2026-04-09T15:26:48.631Z</time></trkpt><trkpt lat="45.7997567" lon="11.7564579"><ele>184.0</ele><time>2026-04-09T15:26:49.64Z</time></trkpt><trkpt lat="45.7996777" lon="11.7564581"><ele>184.0</ele><time>2026-04-09T15:26:50.638Z</time></trkpt><trkpt lat="45.7995993" lon="11.7564495"><ele>184.0</ele><time>2026-04-09T15:26:51.636Z</time></trkpt><trkpt lat="45.7994757" lon="11.7564275"><ele>184.0</ele><time>2026-04-09T15:26:53.643Z</time></trkpt><trkpt lat="45.7993797" lon="11.7564118"><ele>184.0</ele><time>2026-04-09T15:26:55.634Z</time></trkpt><trkpt lat="45.799278" lon="11.7564414"><ele>184.0</ele><time>2026-04-09T15:26:57.641Z</time></trkpt><trkpt lat="45.7991505" lon="11.7564829"><ele>183.16666666666669</ele><time>2026-04-09T15:26:59.638Z</time></trkpt><trkpt lat="45.7990791" lon="11.7565053"><ele>182.33333333333334</ele><time>2026-04-09T15:27:00.635Z</time></trkpt><trkpt lat="45.7990018" lon="11.7565333"><ele>181.5</ele><time>2026-04-09T15:27:01.641Z</time></trkpt><trkpt lat="45.7989132" lon="11.7565619"><ele>180.66666666666666</ele><time>2026-04-09T15:27:02.629Z</time></trkpt><trkpt lat="45.7988232" lon="11.7565809"><ele>179.83333333333331</ele><time>2026-04-09T15:27:03.64Z</time></trkpt><trkpt lat="45.7987246" lon="11.7566004"><ele>179.0</ele><time>2026-04-09T15:27:04.636Z</time></trkpt><trkpt lat="45.7986289" lon="11.756625"><ele>179.0</ele><time>2026-04-09T15:27:05.645Z</time></trkpt><trkpt lat="45.7985306" lon="11.7566475"><ele>179.0</ele><time>2026-04-09T15:27:06.631Z</time></trkpt><trkpt lat="45.7984293" lon="11.7566682"><ele>179.0</ele><time>2026-04-09T15:27:07.633Z</time></trkpt><trkpt lat="45.7983293" lon="11.7566888"><ele>179.0</ele><time>2026-04-09T15:27:08.638Z</time></trkpt><trkpt lat="45.7982257" lon="11.7567056"><ele>179.0</ele><time>2026-04-09T15:27:09.638Z</time></trkpt><trkpt lat="45.7981239" lon="11.7567273"><ele>178.6</ele><time>2026-04-09T15:27:10.639Z</time></trkpt><trkpt lat="45.7980188" lon="11.7567508"><ele>178.2</ele><time>2026-04-09T15:27:11.643Z</time></trkpt><trkpt lat="45.7979146" lon="11.756784"><ele>177.79999999999998</ele><time>2026-04-09T15:27:12.634Z</time></trkpt><trkpt lat="45.7978146" lon="11.7568288"><ele>177.39999999999998</ele><time>2026-04-09T15:27:13.635Z</time></trkpt><trkpt lat="45.7977185" lon="11.756882"><ele>177.0</ele><time>2026-04-09T15:27:14.639Z</time></trkpt><trkpt lat="45.797625" lon="11.7569466"><ele>176.2</ele><time>2026-04-09T15:27:15.641Z</time></trkpt><trkpt lat="45.7975383" lon="11.7570225"><ele>175.39999999999998</ele><time>2026-04-09T15:27:16.638Z</time></trkpt><trkpt lat="45.7974544" lon="11.7571056"><ele>174.60000000000002</ele><time>2026-04-09T15:27:17.641Z</time></trkpt><trkpt lat="45.7973737" lon="11.7571835"><ele>173.8</ele><time>2026-04-09T15:27:18.628Z</time></trkpt><trkpt lat="45.7972891" lon="11.7572534"><ele>173.0</ele><time>2026-04-09T15:27:19.638Z</time></trkpt><trkpt lat="45.7972023" lon="11.757308"><ele>173.0</ele><time>2026-04-09T15:27:20.635Z</time></trkpt><trkpt lat="45.7971331" lon="11.7573426"><ele>173.0</ele><time>2026-04-09T15:27:21.636Z</time></trkpt><trkpt lat="45.7970557" lon="11.7573741"><ele>173.0</ele><time>2026-04-09T15:27:23.634Z</time></trkpt><trkpt lat="45.7969502" lon="11.7574144"><ele>173.0</ele><time>2026-04-09T15:27:26.641Z</time></trkpt><trkpt lat="45.7968323" lon="11.7574475"><ele>173.0</ele><time>2026-04-09T15:27:28.634Z</time></trkpt><trkpt lat="45.796726" lon="11.7575437"><ele>172.57142857142856</ele><time>2026-04-09T15:27:30.634Z</time></trkpt><trkpt lat="45.7966724" lon="11.7576084"><ele>172.14285714285717</ele><time>2026-04-09T15:27:31.634Z</time></trkpt><trkpt lat="45.7966138" lon="11.7576727"><ele>171.71428571428572</ele><time>2026-04-09T15:27:32.637Z</time></trkpt><trkpt lat="45.7965548" lon="11.7577354"><ele>171.28571428571428</ele><time>2026-04-09T15:27:33.639Z</time></trkpt><trkpt lat="45.7964966" lon="11.7577984"><ele>170.85714285714283</ele><time>2026-04-09T15:27:34.635Z</time></trkpt><trkpt lat="45.7964381" lon="11.7578648"><ele>170.42857142857144</ele><time>2026-04-09T15:27:35.639Z</time></trkpt><trkpt lat="45.796391" lon="11.7579262"><ele>170.0</ele><time>2026-04-09T15:27:36.631Z</time></trkpt><trkpt lat="45.7963224" lon="11.7580328"><ele>169.8</ele><time>2026-04-09T15:27:38.639Z</time></trkpt><trkpt lat="45.7962628" lon="11.7581337"><ele>169.6</ele><time>2026-04-09T15:27:40.636Z</time></trkpt><trkpt lat="45.796192" lon="11.7582243"><ele>169.39999999999998</ele><time>2026-04-09T15:27:42.638Z</time></trkpt><trkpt lat="45.7960745" lon="11.7582007"><ele>169.2</ele><time>2026-04-09T15:27:44.628Z</time></trkpt><trkpt lat="45.7960054" lon="11.7581563"><ele>169.0</ele><time>2026-04-09T15:27:45.638Z</time></trkpt><trkpt lat="45.7959264" lon="11.7581147"><ele>168.79999999999998</ele><time>2026-04-09T15:27:46.648Z</time></trkpt><trkpt lat="45.7958375" lon="11.7580696"><ele>168.6</ele><time>2026-04-09T15:27:47.642Z</time></trkpt><trkpt lat="45.7957433" lon="11.7580196"><ele>168.4</ele><time>2026-04-09T15:27:48.635Z</time></trkpt><trkpt lat="45.7956367" lon="11.7579635"><ele>168.2</ele><time>2026-04-09T15:27:49.641Z</time></trkpt><trkpt lat="45.7955292" lon="11.7579044"><ele>168.0</ele><time>2026-04-09T15:27:50.635Z</time></trkpt><trkpt lat="45.7954178" lon="11.7578477"><ele>168.0</ele><time>2026-04-09T15:27:51.636Z</time></trkpt><trkpt lat="45.7953041" lon="11.7577909"><ele>168.0</ele><time>2026-04-09T15:27:52.64Z</time></trkpt><trkpt lat="45.7951843" lon="11.7577298"><ele>168.0</ele><time>2026-04-09T15:27:53.634Z</time></trkpt><trkpt lat="45.7950609" lon="11.7576656"><ele>168.0</ele><time>2026-04-09T15:27:54.644Z</time></trkpt><trkpt lat="45.7949351" lon="11.7575975"><ele>167.25</ele><time>2026-04-09T15:27:55.641Z</time></trkpt><trkpt lat="45.7948058" lon="11.7575263"><ele>166.5</ele><time>2026-04-09T15:27:56.635Z</time></trkpt><trkpt lat="45.7946744" lon="11.7574563"><ele>165.75</ele><time>2026-04-09T15:27:57.637Z</time></trkpt><trkpt lat="45.794541" lon="11.7573872"><ele>165.0</ele><time>2026-04-09T15:27:58.637Z</time></trkpt><trkpt lat="45.7944078" lon="11.7573168"><ele>164.5</ele><time>2026-04-09T15:27:59.634Z</time></trkpt><trkpt lat="45.7942724" lon="11.7572454"><ele>164.0</ele><time>2026-04-09T15:28:00.636Z</time></trkpt><trkpt lat="45.7941378" lon="11.7571746"><ele>163.5</ele><time>2026-04-09T15:28:01.648Z</time></trkpt><trkpt lat="45.7940029" lon="11.757105"><ele>163.0</ele><time>2026-04-09T15:28:02.659Z</time></trkpt><trkpt lat="45.7938678" lon="11.7570352"><ele>163.0</ele><time>2026-04-09T15:28:03.632Z</time></trkpt><trkpt lat="45.7937355" lon="11.756967"><ele>163.0</ele><time>2026-04-09T15:28:04.641Z</time></trkpt><trkpt lat="45.793603" lon="11.7568976"><ele>163.0</ele><time>2026-04-09T15:28:05.641Z</time></trkpt><trkpt lat="45.7934716" lon="11.7568278"><ele>163.0</ele><time>2026-04-09T15:28:06.64Z</time></trkpt><trkpt lat="45.7933347" lon="11.7567554"><ele>162.0</ele><time>2026-04-09T15:28:07.647Z</time></trkpt><trkpt lat="45.7931927" lon="11.7566821"><ele>161.0</ele><time>2026-04-09T15:28:08.632Z</time></trkpt><trkpt lat="45.7930464" lon="11.7566079"><ele>160.0</ele><time>2026-04-09T15:28:09.637Z</time></trkpt><trkpt lat="45.792898" lon="11.7565297"><ele>160.0</ele><time>2026-04-09T15:28:10.627Z</time></trkpt><trkpt lat="45.7927485" lon="11.7564513"><ele>160.0</ele><time>2026-04-09T15:28:11.633Z</time></trkpt><trkpt lat="45.7925979" lon="11.7563717"><ele>160.0</ele><time>2026-04-09T15:28:12.631Z</time></trkpt><trkpt lat="45.7924483" lon="11.7562925"><ele>159.66666666666669</ele><time>2026-04-09T15:28:13.635Z</time></trkpt><trkpt lat="45.7922962" lon="11.7562132"><ele>159.33333333333334</ele><time>2026-04-09T15:28:14.638Z</time></trkpt><trkpt lat="45.7921389" lon="11.7561314"><ele>159.0</ele><time>2026-04-09T15:28:15.642Z</time></trkpt><trkpt lat="45.7919794" lon="11.7560464"><ele>158.0</ele><time>2026-04-09T15:28:16.634Z</time></trkpt><trkpt lat="45.7918205" lon="11.7559636"><ele>157.0</ele><time>2026-04-09T15:28:17.636Z</time></trkpt><trkpt lat="45.7916636" lon="11.7558819"><ele>156.0</ele><time>2026-04-09T15:28:18.643Z</time></trkpt><trkpt lat="45.7915073" lon="11.7557996"><ele>156.0</ele><time>2026-04-09T15:28:19.635Z</time></trkpt><trkpt lat="45.7913524" lon="11.7557178"><ele>156.0</ele><time>2026-04-09T15:28:20.629Z</time></trkpt><trkpt lat="45.7911986" lon="11.7556359"><ele>156.0</ele><time>2026-04-09T15:28:21.634Z</time></trkpt><trkpt lat="45.7910437" lon="11.7555537"><ele>156.0</ele><time>2026-04-09T15:28:22.63Z</time></trkpt><trkpt lat="45.7908894" lon="11.7554726"><ele>156.0</ele><time>2026-04-09T15:28:23.636Z</time></trkpt><trkpt lat="45.7907358" lon="11.7553935"><ele>156.0</ele><time>2026-04-09T15:28:24.636Z</time></trkpt><trkpt lat="45.7905822" lon="11.7553175"><ele>156.0</ele><time>2026-04-09T15:28:25.644Z</time></trkpt><trkpt lat="45.7904289" lon="11.7552488"><ele>156.0</ele><time>2026-04-09T15:28:26.633Z</time></trkpt><trkpt lat="45.7902735" lon="11.7551951"><ele>156.0</ele><time>2026-04-09T15:28:27.636Z</time></trkpt><trkpt lat="45.7901152" lon="11.7551549"><ele>155.33333333333334</ele><time>2026-04-09T15:28:28.635Z</time></trkpt><trkpt lat="45.789955" lon="11.7551238"><ele>154.66666666666669</ele><time>2026-04-09T15:28:29.641Z</time></trkpt><trkpt lat="45.7897929" lon="11.7550999"><ele>154.0</ele><time>2026-04-09T15:28:30.632Z</time></trkpt><trkpt lat="45.7896309" lon="11.7550805"><ele>154.0</ele><time>2026-04-09T15:28:31.635Z</time></trkpt><trkpt lat="45.7894687" lon="11.7550622"><ele>154.0</ele><time>2026-04-09T15:28:32.632Z</time></trkpt><trkpt lat="45.789307" lon="11.7550401"><ele>154.0</ele><time>2026-04-09T15:28:33.64Z</time></trkpt><trkpt lat="45.7891472" lon="11.7550098"><ele>154.0</ele><time>2026-04-09T15:28:34.637Z</time></trkpt><trkpt lat="45.7889885" lon="11.7549713"><ele>154.0</ele><time>2026-04-09T15:28:35.638Z</time></trkpt><trkpt lat="45.7888308" lon="11.7549281"><ele>154.0</ele><time>2026-04-09T15:28:36.633Z</time></trkpt><trkpt lat="45.7886734" lon="11.7548829"><ele>154.0</ele><time>2026-04-09T15:28:37.635Z</time></trkpt><trkpt lat="45.788517" lon="11.7548366"><ele>154.0</ele><time>2026-04-09T15:28:38.638Z</time></trkpt><trkpt lat="45.7883614" lon="11.754789"><ele>154.0</ele><time>2026-04-09T15:28:39.645Z</time></trkpt><trkpt lat="45.7882064" lon="11.7547423"><ele>153.0</ele><time>2026-04-09T15:28:40.634Z</time></trkpt><trkpt lat="45.7880519" lon="11.7546963"><ele>152.0</ele><time>2026-04-09T15:28:41.636Z</time></trkpt><trkpt lat="45.7878983" lon="11.7546494"><ele>151.0</ele><time>2026-04-09T15:28:42.641Z</time></trkpt><trkpt lat="45.7877511" lon="11.7546039"><ele>151.25</ele><time>2026-04-09T15:28:43.634Z</time></trkpt><trkpt lat="45.7876146" lon="11.7545617"><ele>151.5</ele><time>2026-04-09T15:28:44.636Z</time></trkpt><trkpt lat="45.7874887" lon="11.7545221"><ele>151.75</ele><time>2026-04-09T15:28:45.635Z</time></trkpt><trkpt lat="45.7873695" lon="11.7544785"><ele>152.0</ele><time>2026-04-09T15:28:46.663Z</time></trkpt><trkpt lat="45.7872583" lon="11.7544291"><ele>152.0</ele><time>2026-04-09T15:28:47.639Z</time></trkpt><trkpt lat="45.7871555" lon="11.7543771"><ele>152.0</ele><time>2026-04-09T15:28:48.638Z</time></trkpt><trkpt lat="45.7870583" lon="11.754322"><ele>152.0</ele><time>2026-04-09T15:28:49.64Z</time></trkpt><trkpt lat="45.7869659" lon="11.7542615"><ele>152.0</ele><time>2026-04-09T15:28:50.647Z</time></trkpt><trkpt lat="45.7868735" lon="11.7541855"><ele>152.0</ele><time>2026-04-09T15:28:51.638Z</time></trkpt><trkpt lat="45.7867817" lon="11.7540956"><ele>151.25</ele><time>2026-04-09T15:28:52.644Z</time></trkpt><trkpt lat="45.7866891" lon="11.7539974"><ele>150.5</ele><time>2026-04-09T15:28:53.634Z</time></trkpt><trkpt lat="45.7865946" lon="11.7538951"><ele>149.75</ele><time>2026-04-09T15:28:54.631Z</time></trkpt><trkpt lat="45.7864976" lon="11.7537886"><ele>149.0</ele><time>2026-04-09T15:28:55.636Z</time></trkpt><trkpt lat="45.7863999" lon="11.7536818"><ele>149.0</ele><time>2026-04-09T15:28:56.647Z</time></trkpt><trkpt lat="45.786307" lon="11.7535829"><ele>149.0</ele><time>2026-04-09T15:28:57.638Z</time></trkpt><trkpt lat="45.7862183" lon="11.7534889"><ele>149.0</ele><time>2026-04-09T15:28:58.639Z</time></trkpt><trkpt lat="45.7861295" lon="11.75339"><ele>149.0</ele><time>2026-04-09T15:28:59.642Z</time></trkpt><trkpt lat="45.7860408" lon="11.7532874"><ele>147.25</ele><time>2026-04-09T15:29:00.639Z</time></trkpt><trkpt lat="45.7859502" lon="11.7531833"><ele>145.5</ele><time>2026-04-09T15:29:01.644Z</time></trkpt><trkpt lat="45.7858552" lon="11.753078"><ele>143.75</ele><time>2026-04-09T15:29:02.64Z</time></trkpt><trkpt lat="45.7857553" lon="11.7529722"><ele>142.0</ele><time>2026-04-09T15:29:03.638Z</time></trkpt><trkpt lat="45.7856503" lon="11.7528646"><ele>142.0</ele><time>2026-04-09T15:29:04.637Z</time></trkpt><trkpt lat="45.7855421" lon="11.7527564"><ele>142.0</ele><time>2026-04-09T15:29:05.641Z</time></trkpt><trkpt lat="45.7854299" lon="11.7526429"><ele>142.0</ele><time>2026-04-09T15:29:06.643Z</time></trkpt><trkpt lat="45.785315" lon="11.7525251"><ele>142.0</ele><time>2026-04-09T15:29:07.634Z</time></trkpt><trkpt lat="45.7851972" lon="11.7524048"><ele>141.66666666666669</ele><time>2026-04-09T15:29:08.629Z</time></trkpt><trkpt lat="45.7850764" lon="11.7522804"><ele>141.33333333333334</ele><time>2026-04-09T15:29:09.633Z</time></trkpt><trkpt lat="45.7849525" lon="11.7521524"><ele>141.0</ele><time>2026-04-09T15:29:10.632Z</time></trkpt><trkpt lat="45.7848265" lon="11.7520228"><ele>141.0</ele><time>2026-04-09T15:29:11.633Z</time></trkpt><trkpt lat="45.7847001" lon="11.7518944"><ele>141.0</ele><time>2026-04-09T15:29:12.635Z</time></trkpt><trkpt lat="45.7845747" lon="11.7517676"><ele>141.0</ele><time>2026-04-09T15:29:13.642Z</time></trkpt><trkpt lat="45.7844511" lon="11.7516425"><ele>141.25</ele><time>2026-04-09T15:29:14.634Z</time></trkpt><trkpt lat="45.7843299" lon="11.7515176"><ele>141.5</ele><time>2026-04-09T15:29:15.632Z</time></trkpt><trkpt lat="45.7842121" lon="11.7513906"><ele>141.75</ele><time>2026-04-09T15:29:16.673Z</time></trkpt><trkpt lat="45.7840978" lon="11.7512572"><ele>142.0</ele><time>2026-04-09T15:29:17.642Z</time></trkpt><trkpt lat="45.783989" lon="11.7511173"><ele>142.25</ele><time>2026-04-09T15:29:18.651Z</time></trkpt><trkpt lat="45.7838858" lon="11.7509712"><ele>142.5</ele><time>2026-04-09T15:29:19.643Z</time></trkpt><trkpt lat="45.7837856" lon="11.7508183"><ele>142.75</ele><time>2026-04-09T15:29:20.636Z</time></trkpt><trkpt lat="45.7836861" lon="11.7506606"><ele>143.0</ele><time>2026-04-09T15:29:21.644Z</time></trkpt><trkpt lat="45.7835868" lon="11.7505002"><ele>143.0</ele><time>2026-04-09T15:29:22.636Z</time></trkpt><trkpt lat="45.7834878" lon="11.7503387"><ele>143.0</ele><time>2026-04-09T15:29:23.64Z</time></trkpt><trkpt lat="45.7833911" lon="11.7501766"><ele>143.0</ele><time>2026-04-09T15:29:24.634Z</time></trkpt><trkpt lat="45.7832954" lon="11.7500172"><ele>143.0</ele><time>2026-04-09T15:29:25.637Z</time></trkpt><trkpt lat="45.7832043" lon="11.7498652"><ele>143.0</ele><time>2026-04-09T15:29:26.637Z</time></trkpt><trkpt lat="45.7831187" lon="11.7497229"><ele>143.0</ele><time>2026-04-09T15:29:27.652Z</time></trkpt><trkpt lat="45.7830385" lon="11.7495895"><ele>143.0</ele><time>2026-04-09T15:29:28.704Z</time></trkpt><trkpt lat="45.7829638" lon="11.749465"><ele>143.0</ele><time>2026-04-09T15:29:29.637Z</time></trkpt><trkpt lat="45.7828934" lon="11.7493489"><ele>142.83333333333331</ele><time>2026-04-09T15:29:30.648Z</time></trkpt><trkpt lat="45.7828289" lon="11.7492387"><ele>142.66666666666666</ele><time>2026-04-09T15:29:31.631Z</time></trkpt><trkpt lat="45.782777" lon="11.7491427"><ele>142.5</ele><time>2026-04-09T15:29:32.635Z</time></trkpt><trkpt lat="45.7827366" lon="11.749068"><ele>142.33333333333334</ele><time>2026-04-09T15:29:33.634Z</time></trkpt><trkpt lat="45.782685" lon="11.7489923"><ele>142.16666666666669</ele><time>2026-04-09T15:29:35.635Z</time></trkpt><trkpt lat="45.7826196" lon="11.7489099"><ele>142.0</ele><time>2026-04-09T15:29:38.638Z</time></trkpt><trkpt lat="45.7825471" lon="11.7487864"><ele>141.79999999999998</ele><time>2026-04-09T15:29:40.637Z</time></trkpt><trkpt lat="45.7824964" lon="11.7486986"><ele>141.6</ele><time>2026-04-09T15:29:41.632Z</time></trkpt><trkpt lat="45.7824419" lon="11.7485974"><ele>141.39999999999998</ele><time>2026-04-09T15:29:42.635Z</time></trkpt><trkpt lat="45.7823826" lon="11.7484831"><ele>141.2</ele><time>2026-04-09T15:29:43.64Z</time></trkpt><trkpt lat="45.7823167" lon="11.7483573"><ele>141.0</ele><time>2026-04-09T15:29:44.635Z</time></trkpt><trkpt lat="45.7822446" lon="11.7482232"><ele>141.0</ele><time>2026-04-09T15:29:45.637Z</time></trkpt><trkpt lat="45.7821681" lon="11.7480826"><ele>141.0</ele><time>2026-04-09T15:29:46.638Z</time></trkpt><trkpt lat="45.7820885" lon="11.7479348"><ele>141.0</ele><time>2026-04-09T15:29:47.635Z</time></trkpt><trkpt lat="45.7820067" lon="11.7477783"><ele>141.0</ele><time>2026-04-09T15:29:48.633Z</time></trkpt><trkpt lat="45.7819278" lon="11.7476285"><ele>140.0</ele><time>2026-04-09T15:29:49.64Z</time></trkpt><trkpt lat="45.7818422" lon="11.7474551"><ele>139.0</ele><time>2026-04-09T15:29:50.632Z</time></trkpt><trkpt lat="45.7817489" lon="11.7472843"><ele>138.0</ele><time>2026-04-09T15:29:51.635Z</time></trkpt><trkpt lat="45.7816563" lon="11.7471195"><ele>137.0</ele><time>2026-04-09T15:29:52.637Z</time></trkpt><trkpt lat="45.781567" lon="11.7469507"><ele>136.5</ele><time>2026-04-09T15:29:53.637Z</time></trkpt><trkpt lat="45.7814785" lon="11.7467864"><ele>136.0</ele><time>2026-04-09T15:29:54.642Z</time></trkpt><trkpt lat="45.7813968" lon="11.7466263"><ele>135.5</ele><time>2026-04-09T15:29:55.645Z</time></trkpt><trkpt lat="45.7813203" lon="11.7464758"><ele>135.0</ele><time>2026-04-09T15:29:56.639Z</time></trkpt><trkpt lat="45.7812477" lon="11.7463304"><ele>135.0</ele><time>2026-04-09T15:29:57.637Z</time></trkpt><trkpt lat="45.7811737" lon="11.7461867"><ele>135.0</ele><time>2026-04-09T15:29:58.64Z</time></trkpt><trkpt lat="45.7811034" lon="11.746052"><ele>135.0</ele><time>2026-04-09T15:29:59.649Z</time></trkpt><trkpt lat="45.781043" lon="11.7459342"><ele>135.0</ele><time>2026-04-09T15:30:00.638Z</time></trkpt><trkpt lat="45.780985" lon="11.7458226"><ele>135.0</ele><time>2026-04-09T15:30:01.636Z</time></trkpt><trkpt lat="45.7809255" lon="11.7457094"><ele>135.2</ele><time>2026-04-09T15:30:02.642Z</time></trkpt><trkpt lat="45.7808659" lon="11.7455941"><ele>135.4</ele><time>2026-04-09T15:30:03.642Z</time></trkpt><trkpt lat="45.7808078" lon="11.745479"><ele>135.6</ele><time>2026-04-09T15:30:04.641Z</time></trkpt><trkpt lat="45.7807466" lon="11.7453595"><ele>135.8</ele><time>2026-04-09T15:30:05.654Z</time></trkpt><trkpt lat="45.7806831" lon="11.7452418"><ele>136.0</ele><time>2026-04-09T15:30:06.636Z</time></trkpt><trkpt lat="45.7806198" lon="11.745119"><ele>136.0</ele><time>2026-04-09T15:30:07.651Z</time></trkpt><trkpt lat="45.7805559" lon="11.7449923"><ele>136.0</ele><time>2026-04-09T15:30:08.638Z</time></trkpt><trkpt lat="45.7804897" lon="11.744864"><ele>136.0</ele><time>2026-04-09T15:30:09.649Z</time></trkpt><trkpt lat="45.7804249" lon="11.744737"><ele>136.0</ele><time>2026-04-09T15:30:10.639Z</time></trkpt><trkpt lat="45.7803607" lon="11.7446189"><ele>136.0</ele><time>2026-04-09T15:30:11.644Z</time></trkpt><trkpt lat="45.7803026" lon="11.7445027"><ele>136.0</ele><time>2026-04-09T15:30:12.637Z</time></trkpt><trkpt lat="45.7802442" lon="11.7443881"><ele>136.0</ele><time>2026-04-09T15:30:13.639Z</time></trkpt><trkpt lat="45.7801851" lon="11.7442735"><ele>136.0</ele><time>2026-04-09T15:30:14.629Z</time></trkpt><trkpt lat="45.7801267" lon="11.7441585"><ele>136.0</ele><time>2026-04-09T15:30:15.633Z</time></trkpt><trkpt lat="45.7800694" lon="11.7440435"><ele>136.0</ele><time>2026-04-09T15:30:16.641Z</time></trkpt><trkpt lat="45.7800132" lon="11.7439321"><ele>136.0</ele><time>2026-04-09T15:30:17.634Z</time></trkpt><trkpt lat="45.7799592" lon="11.7438291"><ele>136.0</ele><time>2026-04-09T15:30:18.636Z</time></trkpt><trkpt lat="45.7799043" lon="11.7437209"><ele>136.0</ele><time>2026-04-09T15:30:19.638Z</time></trkpt><trkpt lat="45.7798519" lon="11.7436179"><ele>136.0</ele><time>2026-04-09T15:30:20.643Z</time></trkpt><trkpt lat="45.7798066" lon="11.7435237"><ele>136.0</ele><time>2026-04-09T15:30:21.639Z</time></trkpt><trkpt lat="45.7797703" lon="11.743442"><ele>136.0</ele><time>2026-04-09T15:30:22.641Z</time></trkpt><trkpt lat="45.7797" lon="11.7432944"><ele>136.0</ele><time>2026-04-09T15:30:24.64Z</time></trkpt><trkpt lat="45.7796521" lon="11.7431882"><ele>136.0</ele><time>2026-04-09T15:30:25.634Z</time></trkpt><trkpt lat="45.7795996" lon="11.7430644"><ele>136.0</ele><time>2026-04-09T15:30:26.642Z</time></trkpt><trkpt lat="45.7795527" lon="11.7429405"><ele>136.0</ele><time>2026-04-09T15:30:27.638Z</time></trkpt><trkpt lat="45.7795138" lon="11.7428315"><ele>136.0</ele><time>2026-04-09T15:30:28.641Z</time></trkpt><trkpt lat="45.7794818" lon="11.7427305"><ele>136.16666666666669</ele><time>2026-04-09T15:30:29.632Z</time></trkpt><trkpt lat="45.7794539" lon="11.7426368"><ele>136.33333333333334</ele><time>2026-04-09T15:30:30.637Z</time></trkpt><trkpt lat="45.7794325" lon="11.7425518"><ele>136.5</ele><time>2026-04-09T15:30:31.636Z</time></trkpt><trkpt lat="45.7794149" lon="11.742464"><ele>136.66666666666666</ele><time>2026-04-09T15:30:32.632Z</time></trkpt><trkpt lat="45.7793955" lon="11.7422911"><ele>136.83333333333331</ele><time>2026-04-09T15:30:34.634Z</time></trkpt><trkpt lat="45.7793925" lon="11.7421885"><ele>137.0</ele><time>2026-04-09T15:30:35.641Z</time></trkpt><trkpt lat="45.7793978" lon="11.742071"><ele>137.0</ele><time>2026-04-09T15:30:36.64Z</time></trkpt><trkpt lat="45.7794127" lon="11.7419439"><ele>137.0</ele><time>2026-04-09T15:30:37.64Z</time></trkpt><trkpt lat="45.7794321" lon="11.7418161"><ele>137.0</ele><time>2026-04-09T15:30:38.659Z</time></trkpt><trkpt lat="45.7794492" lon="11.741705"><ele>137.0</ele><time>2026-04-09T15:30:39.649Z</time></trkpt><trkpt lat="45.7794541" lon="11.7416058"><ele>137.0</ele><time>2026-04-09T15:30:40.64Z</time></trkpt><trkpt lat="45.7794338" lon="11.7415185"><ele>137.0</ele><time>2026-04-09T15:30:41.632Z</time></trkpt><trkpt lat="45.7793287" lon="11.7414195"><ele>136.71428571428572</ele><time>2026-04-09T15:30:43.633Z</time></trkpt><trkpt lat="45.7792577" lon="11.7414143"><ele>136.42857142857144</ele><time>2026-04-09T15:30:44.654Z</time></trkpt><trkpt lat="45.7791866" lon="11.7414305"><ele>136.14285714285714</ele><time>2026-04-09T15:30:45.638Z</time></trkpt><trkpt lat="45.7791202" lon="11.7414548"><ele>135.85714285714286</ele><time>2026-04-09T15:30:46.63Z</time></trkpt><trkpt lat="45.7790548" lon="11.7414825"><ele>135.57142857142856</ele><time>2026-04-09T15:30:47.635Z</time></trkpt><trkpt lat="45.7789872" lon="11.741515"><ele>135.28571428571428</ele><time>2026-04-09T15:30:48.685Z</time></trkpt><trkpt lat="45.7789159" lon="11.7415494"><ele>135.0</ele><time>2026-04-09T15:30:49.642Z</time></trkpt><trkpt lat="45.7788493" lon="11.7415828"><ele>135.0</ele><time>2026-04-09T15:30:50.643Z</time></trkpt><trkpt lat="45.7787849" lon="11.7416184"><ele>135.0</ele><time>2026-04-09T15:30:51.631Z</time></trkpt><trkpt lat="45.7787169" lon="11.7416564"><ele>135.0</ele><time>2026-04-09T15:30:52.638Z</time></trkpt><trkpt lat="45.7786466" lon="11.7416962"><ele>135.0</ele><time>2026-04-09T15:30:53.637Z</time></trkpt><trkpt lat="45.7785763" lon="11.7417392"><ele>135.0</ele><time>2026-04-09T15:30:54.644Z</time></trkpt><trkpt lat="45.7785058" lon="11.7417839"><ele>135.0</ele><time>2026-04-09T15:30:55.632Z</time></trkpt><trkpt lat="45.7784338" lon="11.7418258"><ele>135.0</ele><time>2026-04-09T15:30:56.647Z</time></trkpt><trkpt lat="45.7783584" lon="11.7418697"><ele>135.0</ele><time>2026-04-09T15:30:57.634Z</time></trkpt><trkpt lat="45.7782876" lon="11.7419097"><ele>135.0</ele><time>2026-04-09T15:30:58.632Z</time></trkpt><trkpt lat="45.7782133" lon="11.7419526"><ele>135.0</ele><time>2026-04-09T15:30:59.642Z</time></trkpt><trkpt lat="45.7781316" lon="11.7419907"><ele>135.0</ele><time>2026-04-09T15:31:00.642Z</time></trkpt><trkpt lat="45.7780474" lon="11.7420263"><ele>135.0</ele><time>2026-04-09T15:31:01.637Z</time></trkpt><trkpt lat="45.7779635" lon="11.7420557"><ele>135.0</ele><time>2026-04-09T15:31:02.648Z</time></trkpt><trkpt lat="45.7778772" lon="11.7420792"><ele>135.0</ele><time>2026-04-09T15:31:03.633Z</time></trkpt><trkpt lat="45.7777891" lon="11.7420986"><ele>135.0</ele><time>2026-04-09T15:31:04.649Z</time></trkpt><trkpt lat="45.7777023" lon="11.7421151"><ele>135.0</ele><time>2026-04-09T15:31:05.638Z</time></trkpt><trkpt lat="45.7776159" lon="11.7421253"><ele>135.0</ele><time>2026-04-09T15:31:06.638Z</time></trkpt><trkpt lat="45.7775284" lon="11.7421298"><ele>135.0</ele><time>2026-04-09T15:31:07.636Z</time></trkpt><trkpt lat="45.7774407" lon="11.7421312"><ele>135.0</ele><time>2026-04-09T15:31:08.636Z</time></trkpt><trkpt lat="45.7773542" lon="11.7421298"><ele>134.83333333333334</ele><time>2026-04-09T15:31:09.633Z</time></trkpt><trkpt lat="45.7772675" lon="11.7421265"><ele>134.66666666666666</ele><time>2026-04-09T15:31:10.63Z</time></trkpt><trkpt lat="45.7771813" lon="11.7421223"><ele>134.5</ele><time>2026-04-09T15:31:11.646Z</time></trkpt><trkpt lat="45.7770922" lon="11.7421148"><ele>134.33333333333331</ele><time>2026-04-09T15:31:12.632Z</time></trkpt><trkpt lat="45.7770003" lon="11.7421042"><ele>134.16666666666666</ele><time>2026-04-09T15:31:13.641Z</time></trkpt><trkpt lat="45.7769084" lon="11.7420949"><ele>134.0</ele><time>2026-04-09T15:31:14.628Z</time></trkpt><trkpt lat="45.7768187" lon="11.7420881"><ele>134.0</ele><time>2026-04-09T15:31:15.643Z</time></trkpt><trkpt lat="45.7767302" lon="11.7420799"><ele>134.0</ele><time>2026-04-09T15:31:16.631Z</time></trkpt><trkpt lat="45.7766446" lon="11.7420663"><ele>134.0</ele><time>2026-04-09T15:31:17.64Z</time></trkpt><trkpt lat="45.7765599" lon="11.7420448"><ele>134.0</ele><time>2026-04-09T15:31:18.647Z</time></trkpt><trkpt lat="45.776474" lon="11.7420137"><ele>134.0</ele><time>2026-04-09T15:31:19.639Z</time></trkpt><trkpt lat="45.7763866" lon="11.7419732"><ele>134.0</ele><time>2026-04-09T15:31:20.639Z</time></trkpt><trkpt lat="45.7762997" lon="11.7419242"><ele>133.8</ele><time>2026-04-09T15:31:21.634Z</time></trkpt><trkpt lat="45.7762141" lon="11.7418659"><ele>133.60000000000002</ele><time>2026-04-09T15:31:22.632Z</time></trkpt><trkpt lat="45.7761294" lon="11.7417968"><ele>133.4</ele><time>2026-04-09T15:31:23.637Z</time></trkpt><trkpt lat="45.7760468" lon="11.7417208"><ele>133.20000000000002</ele><time>2026-04-09T15:31:24.632Z</time></trkpt><trkpt lat="45.7759624" lon="11.7416439"><ele>133.0</ele><time>2026-04-09T15:31:25.646Z</time></trkpt><trkpt lat="45.775878" lon="11.7415668"><ele>133.0</ele><time>2026-04-09T15:31:26.632Z</time></trkpt><trkpt lat="45.7757876" lon="11.7414936"><ele>133.0</ele><time>2026-04-09T15:31:27.637Z</time></trkpt><trkpt lat="45.7757037" lon="11.7414219"><ele>133.0</ele><time>2026-04-09T15:31:28.631Z</time></trkpt><trkpt lat="45.7756195" lon="11.7413526"><ele>133.0</ele><time>2026-04-09T15:31:29.643Z</time></trkpt><trkpt lat="45.7755325" lon="11.7412841"><ele>133.0</ele><time>2026-04-09T15:31:30.641Z</time></trkpt><trkpt lat="45.7754443" lon="11.7412295"><ele>133.0</ele><time>2026-04-09T15:31:31.636Z</time></trkpt><trkpt lat="45.7753495" lon="11.7411937"><ele>133.0</ele><time>2026-04-09T15:31:32.636Z</time></trkpt><trkpt lat="45.7752578" lon="11.741172"><ele>133.0</ele><time>2026-04-09T15:31:33.635Z</time></trkpt><trkpt lat="45.7751631" lon="11.7411566"><ele>133.0</ele><time>2026-04-09T15:31:34.633Z</time></trkpt><trkpt lat="45.77507" lon="11.7411421"><ele>133.0</ele><time>2026-04-09T15:31:35.638Z</time></trkpt><trkpt lat="45.7749785" lon="11.7411277"><ele>133.8</ele><time>2026-04-09T15:31:36.633Z</time></trkpt><trkpt lat="45.7748874" lon="11.7411109"><ele>134.60000000000002</ele><time>2026-04-09T15:31:37.645Z</time></trkpt><trkpt lat="45.7747961" lon="11.7410967"><ele>135.39999999999998</ele><time>2026-04-09T15:31:38.637Z</time></trkpt><trkpt lat="45.7747034" lon="11.7410844"><ele>136.2</ele><time>2026-04-09T15:31:39.636Z</time></trkpt><trkpt lat="45.7746099" lon="11.7410732"><ele>137.0</ele><time>2026-04-09T15:31:40.634Z</time></trkpt><trkpt lat="45.7745161" lon="11.7410606"><ele>136.4</ele><time>2026-04-09T15:31:41.634Z</time></trkpt><trkpt lat="45.7744221" lon="11.741047"><ele>135.79999999999998</ele><time>2026-04-09T15:31:42.637Z</time></trkpt><trkpt lat="45.7743298" lon="11.7410272"><ele>135.2</ele><time>2026-04-09T15:31:43.64Z</time></trkpt><trkpt lat="45.7742375" lon="11.7409955"><ele>134.6</ele><time>2026-04-09T15:31:44.645Z</time></trkpt><trkpt lat="45.7741467" lon="11.7409482"><ele>134.0</ele><time>2026-04-09T15:31:45.645Z</time></trkpt><trkpt lat="45.7740586" lon="11.7408866"><ele>134.0</ele><time>2026-04-09T15:31:46.645Z</time></trkpt><trkpt lat="45.7739724" lon="11.7408179"><ele>134.0</ele><time>2026-04-09T15:31:47.651Z</time></trkpt><trkpt lat="45.7738835" lon="11.7407547"><ele>134.0</ele><time>2026-04-09T15:31:48.644Z</time></trkpt><trkpt lat="45.7737948" lon="11.7406907"><ele>134.0</ele><time>2026-04-09T15:31:49.648Z</time></trkpt><trkpt lat="45.7737016" lon="11.7406355"><ele>134.0</ele><time>2026-04-09T15:31:50.64Z</time></trkpt><trkpt lat="45.7736087" lon="11.7405859"><ele>134.0</ele><time>2026-04-09T15:31:51.638Z</time></trkpt><trkpt lat="45.7735078" lon="11.7405405"><ele>134.0</ele><time>2026-04-09T15:31:52.642Z</time></trkpt><trkpt lat="45.7734041" lon="11.7405143"><ele>134.0</ele><time>2026-04-09T15:31:53.644Z</time></trkpt><trkpt lat="45.7733035" lon="11.7404895"><ele>134.0</ele><time>2026-04-09T15:31:54.65Z</time></trkpt><trkpt lat="45.7732067" lon="11.7404715"><ele>134.0</ele><time>2026-04-09T15:31:55.636Z</time></trkpt><trkpt lat="45.7731107" lon="11.7404615"><ele>134.0</ele><time>2026-04-09T15:31:56.643Z</time></trkpt><trkpt lat="45.7730153" lon="11.740453"><ele>134.0</ele><time>2026-04-09T15:31:57.647Z</time></trkpt><trkpt lat="45.7729185" lon="11.740442"><ele>134.0</ele><time>2026-04-09T15:31:58.65Z</time></trkpt><trkpt lat="45.7728209" lon="11.7404282"><ele>134.0</ele><time>2026-04-09T15:31:59.642Z</time></trkpt><trkpt lat="45.7727244" lon="11.7404142"><ele>134.0</ele><time>2026-04-09T15:32:00.646Z</time></trkpt><trkpt lat="45.7726305" lon="11.7404037"><ele>133.6</ele><time>2026-04-09T15:32:01.643Z</time></trkpt><trkpt lat="45.7725367" lon="11.7403923"><ele>133.2</ele><time>2026-04-09T15:32:02.644Z</time></trkpt><trkpt lat="45.7724474" lon="11.7403814"><ele>132.79999999999998</ele><time>2026-04-09T15:32:03.637Z</time></trkpt><trkpt lat="45.7723563" lon="11.7403703"><ele>132.4</ele><time>2026-04-09T15:32:04.651Z</time></trkpt><trkpt lat="45.7722665" lon="11.7403555"><ele>132.0</ele><time>2026-04-09T15:32:05.638Z</time></trkpt><trkpt lat="45.7721801" lon="11.7403357"><ele>132.0</ele><time>2026-04-09T15:32:06.648Z</time></trkpt><trkpt lat="45.7720934" lon="11.7403087"><ele>132.0</ele><time>2026-04-09T15:32:07.641Z</time></trkpt><trkpt lat="45.7720083" lon="11.7402837"><ele>132.0</ele><time>2026-04-09T15:32:08.644Z</time></trkpt><trkpt lat="45.7719219" lon="11.7402477"><ele>132.0</ele><time>2026-04-09T15:32:09.64Z</time></trkpt><trkpt lat="45.7718349" lon="11.7402111"><ele>132.0</ele><time>2026-04-09T15:32:10.648Z</time></trkpt><trkpt lat="45.7717505" lon="11.7401769"><ele>132.0</ele><time>2026-04-09T15:32:11.648Z</time></trkpt><trkpt lat="45.7716723" lon="11.740145"><ele>131.16666666666666</ele><time>2026-04-09T15:32:12.649Z</time></trkpt><trkpt lat="45.7716" lon="11.7401128"><ele>130.33333333333334</ele><time>2026-04-09T15:32:13.642Z</time></trkpt><trkpt lat="45.7715304" lon="11.7400788"><ele>129.5</ele><time>2026-04-09T15:32:14.64Z</time></trkpt><trkpt lat="45.7714603" lon="11.7400451"><ele>128.66666666666669</ele><time>2026-04-09T15:32:15.633Z</time></trkpt><trkpt lat="45.7713891" lon="11.7400115"><ele>127.83333333333334</ele><time>2026-04-09T15:32:16.634Z</time></trkpt><trkpt lat="45.7713181" lon="11.7399747"><ele>127.0</ele><time>2026-04-09T15:32:17.65Z</time></trkpt><trkpt lat="45.7712455" lon="11.7399339"><ele>127.00000000000001</ele><time>2026-04-09T15:32:18.639Z</time></trkpt><trkpt lat="45.7711694" lon="11.7398842"><ele>127.0</ele><time>2026-04-09T15:32:19.646Z</time></trkpt><trkpt lat="45.7710916" lon="11.7398265"><ele>127.0</ele><time>2026-04-09T15:32:20.649Z</time></trkpt><trkpt lat="45.7710191" lon="11.7397708"><ele>127.0</ele><time>2026-04-09T15:32:21.646Z</time></trkpt><trkpt lat="45.7709509" lon="11.7397091"><ele>127.00000000000001</ele><time>2026-04-09T15:32:22.646Z</time></trkpt><trkpt lat="45.770884" lon="11.7396463"><ele>127.0</ele><time>2026-04-09T15:32:23.645Z</time></trkpt><trkpt lat="45.7708208" lon="11.7395833"><ele>126.66666666666667</ele><time>2026-04-09T15:32:24.64Z</time></trkpt><trkpt lat="45.7707543" lon="11.7395195"><ele>126.33333333333334</ele><time>2026-04-09T15:32:25.642Z</time></trkpt><trkpt lat="45.7706859" lon="11.7394537"><ele>126.0</ele><time>2026-04-09T15:32:26.639Z</time></trkpt><trkpt lat="45.7706191" lon="11.7393883"><ele>125.66666666666666</ele><time>2026-04-09T15:32:27.65Z</time></trkpt><trkpt lat="45.7705506" lon="11.7393192"><ele>125.33333333333333</ele><time>2026-04-09T15:32:28.647Z</time></trkpt><trkpt lat="45.7704841" lon="11.7392514"><ele>125.0</ele><time>2026-04-09T15:32:29.647Z</time></trkpt><trkpt lat="45.7704194" lon="11.7391844"><ele>125.0</ele><time>2026-04-09T15:32:30.64Z</time></trkpt><trkpt lat="45.7703557" lon="11.7391172"><ele>125.0</ele><time>2026-04-09T15:32:31.639Z</time></trkpt><trkpt lat="45.7702923" lon="11.7390507"><ele>125.0</ele><time>2026-04-09T15:32:32.646Z</time></trkpt><trkpt lat="45.7702318" lon="11.7389864"><ele>125.0</ele><time>2026-04-09T15:32:33.64Z</time></trkpt><trkpt lat="45.7701719" lon="11.7389248"><ele>125.0</ele><time>2026-04-09T15:32:34.64Z</time></trkpt><trkpt lat="45.7701135" lon="11.7388648"><ele>125.0</ele><time>2026-04-09T15:32:35.639Z</time></trkpt><trkpt lat="45.7700606" lon="11.7388106"><ele>125.0</ele><time>2026-04-09T15:32:36.642Z</time></trkpt><trkpt lat="45.7700074" lon="11.7387557"><ele>125.33333333333333</ele><time>2026-04-09T15:32:37.642Z</time></trkpt><trkpt lat="45.7699162" lon="11.7386497"><ele>125.66666666666666</ele><time>2026-04-09T15:32:39.65Z</time></trkpt><trkpt lat="45.7698577" lon="11.7385576"><ele>126.0</ele><time>2026-04-09T15:32:41.651Z</time></trkpt><trkpt lat="45.7698229" lon="11.7384726"><ele>126.33333333333334</ele><time>2026-04-09T15:32:43.643Z</time></trkpt><trkpt lat="45.7697973" lon="11.7383546"><ele>126.66666666666667</ele><time>2026-04-09T15:32:45.649Z</time></trkpt><trkpt lat="45.7697455" lon="11.7382604"><ele>127.0</ele><time>2026-04-09T15:32:47.642Z</time></trkpt><trkpt lat="45.7696456" lon="11.7382364"><ele>127.0</ele><time>2026-04-09T15:32:49.64Z</time></trkpt><trkpt lat="45.7695458" lon="11.7382634"><ele>126.99999999999999</ele><time>2026-04-09T15:32:51.643Z</time></trkpt><trkpt lat="45.7694396" lon="11.7382368"><ele>126.99999999999999</ele><time>2026-04-09T15:32:53.638Z</time></trkpt><trkpt lat="45.7693264" lon="11.7382001"><ele>127.0</ele><time>2026-04-09T15:32:55.643Z</time></trkpt><trkpt lat="45.7692623" lon="11.7382012"><ele>127.0</ele><time>2026-04-09T15:32:56.645Z</time></trkpt><trkpt lat="45.7691833" lon="11.7382168"><ele>128.79999999999998</ele><time>2026-04-09T15:32:57.64Z</time></trkpt><trkpt lat="45.7690898" lon="11.7382369"><ele>130.6</ele><time>2026-04-09T15:32:58.649Z</time></trkpt><trkpt lat="45.7689901" lon="11.7382537"><ele>132.39999999999998</ele><time>2026-04-09T15:32:59.639Z</time></trkpt><trkpt lat="45.7688812" lon="11.7382628"><ele>134.2</ele><time>2026-04-09T15:33:00.634Z</time></trkpt><trkpt lat="45.7687741" lon="11.7382667"><ele>136.0</ele><time>2026-04-09T15:33:01.637Z</time></trkpt><trkpt lat="45.7686685" lon="11.7382666"><ele>136.0</ele><time>2026-04-09T15:33:02.633Z</time></trkpt><trkpt lat="45.7685446" lon="11.7382639"><ele>136.0</ele><time>2026-04-09T15:33:03.634Z</time></trkpt><trkpt lat="45.7684095" lon="11.7382664"><ele>136.0</ele><time>2026-04-09T15:33:04.638Z</time></trkpt><trkpt lat="45.7682659" lon="11.7382724"><ele>136.0</ele><time>2026-04-09T15:33:05.64Z</time></trkpt><trkpt lat="45.7681184" lon="11.7382803"><ele>135.4</ele><time>2026-04-09T15:33:06.639Z</time></trkpt><trkpt lat="45.7679812" lon="11.7382875"><ele>134.8</ele><time>2026-04-09T15:33:07.637Z</time></trkpt><trkpt lat="45.7678675" lon="11.7382922"><ele>134.20000000000002</ele><time>2026-04-09T15:33:08.633Z</time></trkpt><trkpt lat="45.7677759" lon="11.7382991"><ele>133.6</ele><time>2026-04-09T15:33:09.637Z</time></trkpt><trkpt lat="45.7677088" lon="11.7383041"><ele>133.0</ele><time>2026-04-09T15:33:10.643Z</time></trkpt><trkpt lat="45.7676396" lon="11.7383151"><ele>133.0</ele><time>2026-04-09T15:33:13.633Z</time></trkpt><trkpt lat="45.7675207" lon="11.7383252"><ele>133.0</ele><time>2026-04-09T15:33:44.64Z</time></trkpt><trkpt lat="45.7674484" lon="11.738325"><ele>133.0</ele><time>2026-04-09T15:33:45.633Z</time></trkpt><trkpt lat="45.7673669" lon="11.7383281"><ele>133.0</ele><time>2026-04-09T15:33:46.637Z</time></trkpt><trkpt lat="45.7672823" lon="11.7383354"><ele>133.0</ele><time>2026-04-09T15:33:47.636Z</time></trkpt><trkpt lat="45.7672022" lon="11.7383436"><ele>133.0</ele><time>2026-04-09T15:33:48.638Z</time></trkpt><trkpt lat="45.7671295" lon="11.738352"><ele>133.0</ele><time>2026-04-09T15:33:49.634Z</time></trkpt><trkpt lat="45.7670598" lon="11.738362"><ele>133.0</ele><time>2026-04-09T15:33:50.635Z</time></trkpt><trkpt lat="45.7669938" lon="11.7383715"><ele>133.0</ele><time>2026-04-09T15:33:51.634Z</time></trkpt><trkpt lat="45.7668831" lon="11.7383831"><ele>133.0</ele><time>2026-04-09T15:33:53.642Z</time></trkpt><trkpt lat="45.7667866" lon="11.7383898"><ele>133.0</ele><time>2026-04-09T15:33:55.636Z</time></trkpt><trkpt lat="45.7667051" lon="11.7383953"><ele>133.0</ele><time>2026-04-09T15:33:57.635Z</time></trkpt><trkpt lat="45.7666211" lon="11.7384065"><ele>132.83333333333334</ele><time>2026-04-09T15:34:00.64Z</time></trkpt><trkpt lat="45.7665538" lon="11.7384288"><ele>132.66666666666669</ele><time>2026-04-09T15:34:03.648Z</time></trkpt><trkpt lat="45.7664815" lon="11.7384246"><ele>132.5</ele><time>2026-04-09T15:34:05.641Z</time></trkpt><trkpt lat="45.7664161" lon="11.7384266"><ele>132.33333333333334</ele><time>2026-04-09T15:34:07.644Z</time></trkpt><trkpt lat="45.7663274" lon="11.7384443"><ele>132.16666666666666</ele><time>2026-04-09T15:34:09.638Z</time></trkpt><trkpt lat="45.7662153" lon="11.7384514"><ele>132.0</ele><time>2026-04-09T15:34:11.64Z</time></trkpt><trkpt lat="45.7661033" lon="11.7384575"><ele>131.83333333333334</ele><time>2026-04-09T15:34:13.644Z</time></trkpt><trkpt lat="45.7659891" lon="11.7384594"><ele>131.66666666666666</ele><time>2026-04-09T15:34:15.642Z</time></trkpt><trkpt lat="45.7659086" lon="11.738458"><ele>131.5</ele><time>2026-04-09T15:34:17.64Z</time></trkpt><trkpt lat="45.7658298" lon="11.7384423"><ele>131.33333333333331</ele><time>2026-04-09T15:34:20.635Z</time></trkpt><trkpt lat="45.7657641" lon="11.7383709"><ele>131.16666666666666</ele><time>2026-04-09T15:34:23.638Z</time></trkpt><trkpt lat="45.7656956" lon="11.7383256"><ele>131.0</ele><time>2026-04-09T15:34:25.639Z</time></trkpt><trkpt lat="45.7656172" lon="11.7382631"><ele>131.0</ele><time>2026-04-09T15:34:27.652Z</time></trkpt><trkpt lat="45.7655368" lon="11.7381616"><ele>131.0</ele><time>2026-04-09T15:34:29.636Z</time></trkpt><trkpt lat="45.765476" lon="11.7380602"><ele>131.0</ele><time>2026-04-09T15:34:31.64Z</time></trkpt><trkpt lat="45.7654067" lon="11.7379368"><ele>131.0</ele><time>2026-04-09T15:34:33.643Z</time></trkpt><trkpt lat="45.7653302" lon="11.7378066"><ele>131.0</ele><time>2026-04-09T15:34:35.639Z</time></trkpt><trkpt lat="45.7652897" lon="11.7377313"><ele>130.66666666666666</ele><time>2026-04-09T15:34:36.634Z</time></trkpt><trkpt lat="45.765249" lon="11.7376492"><ele>130.33333333333331</ele><time>2026-04-09T15:34:37.651Z</time></trkpt><trkpt lat="45.7652089" lon="11.7375712"><ele>130.0</ele><time>2026-04-09T15:34:38.648Z</time></trkpt><trkpt lat="45.7651661" lon="11.7374995"><ele>129.66666666666666</ele><time>2026-04-09T15:34:39.639Z</time></trkpt><trkpt lat="45.7650933" lon="11.7373766"><ele>129.33333333333334</ele><time>2026-04-09T15:34:41.644Z</time></trkpt><trkpt lat="45.765029" lon="11.7372819"><ele>129.0</ele><time>2026-04-09T15:34:43.645Z</time></trkpt><trkpt lat="45.764971" lon="11.7372127"><ele>128.85714285714283</ele><time>2026-04-09T15:34:45.637Z</time></trkpt><trkpt lat="45.76491" lon="11.7371392"><ele>128.71428571428572</ele><time>2026-04-09T15:34:47.634Z</time></trkpt><trkpt lat="45.7648605" lon="11.7370795"><ele>128.57142857142856</ele><time>2026-04-09T15:34:49.648Z</time></trkpt><trkpt lat="45.7648044" lon="11.7369997"><ele>128.42857142857142</ele><time>2026-04-09T15:34:53.636Z</time></trkpt><trkpt lat="45.7647511" lon="11.7369142"><ele>128.28571428571428</ele><time>2026-04-09T15:34:57.645Z</time></trkpt><trkpt lat="45.7647046" lon="11.7368252"><ele>128.14285714285714</ele><time>2026-04-09T15:35:00.645Z</time></trkpt><trkpt lat="45.7646591" lon="11.7367587"><ele>128.0</ele><time>2026-04-09T15:35:02.633Z</time></trkpt><trkpt lat="45.7646048" lon="11.7366786"><ele>127.99999999999999</ele><time>2026-04-09T15:35:05.635Z</time></trkpt><trkpt lat="45.7645539" lon="11.7365798"><ele>128.0</ele><time>2026-04-09T15:35:08.643Z</time></trkpt><trkpt lat="45.7645203" lon="11.7365033"><ele>128.0</ele><time>2026-04-09T15:35:10.638Z</time></trkpt><trkpt lat="45.7644905" lon="11.7364169"><ele>128.0</ele><time>2026-04-09T15:35:12.64Z</time></trkpt><trkpt lat="45.7644408" lon="11.7362881"><ele>127.99999999999999</ele><time>2026-04-09T15:35:14.635Z</time></trkpt><trkpt lat="45.7644196" lon="11.7361881"><ele>128.0</ele><time>2026-04-09T15:35:15.64Z</time></trkpt><trkpt lat="45.764403" lon="11.73607"><ele>127.83333333333333</ele><time>2026-04-09T15:35:16.634Z</time></trkpt><trkpt lat="45.7643913" lon="11.7359484"><ele>127.66666666666666</ele><time>2026-04-09T15:35:17.634Z</time></trkpt><trkpt lat="45.7643824" lon="11.735828"><ele>127.5</ele><time>2026-04-09T15:35:18.634Z</time></trkpt><trkpt lat="45.7643734" lon="11.7357124"><ele>127.33333333333334</ele><time>2026-04-09T15:35:19.643Z</time></trkpt><trkpt lat="45.7643593" lon="11.735605"><ele>127.16666666666667</ele><time>2026-04-09T15:35:20.645Z</time></trkpt><trkpt lat="45.764335" lon="11.7355003"><ele>127.0</ele><time>2026-04-09T15:35:21.642Z</time></trkpt><trkpt lat="45.7643025" lon="11.7354024"><ele>127.00000000000001</ele><time>2026-04-09T15:35:22.638Z</time></trkpt><trkpt lat="45.7642674" lon="11.7353024"><ele>127.0</ele><time>2026-04-09T15:35:23.634Z</time></trkpt><trkpt lat="45.7642325" lon="11.7352034"><ele>127.0</ele><time>2026-04-09T15:35:24.643Z</time></trkpt><trkpt lat="45.7641977" lon="11.7351044"><ele>127.0</ele><time>2026-04-09T15:35:25.634Z</time></trkpt><trkpt lat="45.764161" lon="11.7350073"><ele>127.00000000000001</ele><time>2026-04-09T15:35:26.636Z</time></trkpt><trkpt lat="45.7641216" lon="11.7349085"><ele>127.0</ele><time>2026-04-09T15:35:27.643Z</time></trkpt><trkpt lat="45.7640813" lon="11.7348132"><ele>126.83333333333334</ele><time>2026-04-09T15:35:28.639Z</time></trkpt><trkpt lat="45.764043" lon="11.7347133"><ele>126.66666666666667</ele><time>2026-04-09T15:35:29.636Z</time></trkpt><trkpt lat="45.7640052" lon="11.734611"><ele>126.5</ele><time>2026-04-09T15:35:30.641Z</time></trkpt><trkpt lat="45.7639715" lon="11.7345067"><ele>126.33333333333334</ele><time>2026-04-09T15:35:31.65Z</time></trkpt><trkpt lat="45.7639379" lon="11.7344018"><ele>126.16666666666667</ele><time>2026-04-09T15:35:32.647Z</time></trkpt><trkpt lat="45.7639065" lon="11.7342965"><ele>126.0</ele><time>2026-04-09T15:35:33.678Z</time></trkpt><trkpt lat="45.7638811" lon="11.7341939"><ele>125.19999999999999</ele><time>2026-04-09T15:35:34.657Z</time></trkpt><trkpt lat="45.7638629" lon="11.7341074"><ele>124.39999999999999</ele><time>2026-04-09T15:35:35.673Z</time></trkpt><trkpt lat="45.7638392" lon="11.7339585"><ele>123.6</ele><time>2026-04-09T15:35:37.662Z</time></trkpt><trkpt lat="45.7638241" lon="11.7338049"><ele>122.8</ele><time>2026-04-09T15:35:39.652Z</time></trkpt><trkpt lat="45.7638064" lon="11.7336442"><ele>122.0</ele><time>2026-04-09T15:35:41.651Z</time></trkpt><trkpt lat="45.7637854" lon="11.7334737"><ele>121.6</ele><time>2026-04-09T15:35:43.639Z</time></trkpt><trkpt lat="45.7637691" lon="11.7333224"><ele>121.19999999999999</ele><time>2026-04-09T15:35:45.652Z</time></trkpt><trkpt lat="45.7637519" lon="11.7331626"><ele>120.8</ele><time>2026-04-09T15:35:47.651Z</time></trkpt><trkpt lat="45.7637378" lon="11.7330155"><ele>120.4</ele><time>2026-04-09T15:35:49.66Z</time></trkpt><trkpt lat="45.7637198" lon="11.7328528"><ele>120.0</ele><time>2026-04-09T15:35:51.665Z</time></trkpt><trkpt lat="45.7637034" lon="11.7326883"><ele>120.0</ele><time>2026-04-09T15:35:53.705Z</time></trkpt><trkpt lat="45.7636922" lon="11.732571"><ele>120.0</ele><time>2026-04-09T15:35:55.641Z</time></trkpt><trkpt lat="45.7636842" lon="11.7324633"><ele>120.0</ele><time>2026-04-09T15:35:58.665Z</time></trkpt><trkpt lat="45.7636978" lon="11.7323609"><ele>120.0</ele><time>2026-04-09T15:36:00.656Z</time></trkpt><trkpt lat="45.7637318" lon="11.7322368"><ele>120.0</ele><time>2026-04-09T15:36:02.636Z</time></trkpt><trkpt lat="45.7637776" lon="11.7321092"><ele>120.0</ele><time>2026-04-09T15:36:04.647Z</time></trkpt><trkpt lat="45.7637811" lon="11.7319728"><ele>119.4</ele><time>2026-04-09T15:36:06.655Z</time></trkpt><trkpt lat="45.7637213" lon="11.7318703"><ele>118.8</ele><time>2026-04-09T15:36:08.645Z</time></trkpt><trkpt lat="45.7636096" lon="11.7318386"><ele>118.19999999999999</ele><time>2026-04-09T15:36:10.641Z</time></trkpt><trkpt lat="45.763534" lon="11.7318431"><ele>117.6</ele><time>2026-04-09T15:36:11.662Z</time></trkpt><trkpt lat="45.7634508" lon="11.73185"><ele>117.0</ele><time>2026-04-09T15:36:12.642Z</time></trkpt><trkpt lat="45.7633611" lon="11.7318589"><ele>117.0</ele><time>2026-04-09T15:36:13.646Z</time></trkpt><trkpt lat="45.7632527" lon="11.7318697"><ele>117.0</ele><time>2026-04-09T15:36:14.638Z</time></trkpt><trkpt lat="45.7631299" lon="11.7318769"><ele>117.0</ele><time>2026-04-09T15:36:15.642Z</time></trkpt><trkpt lat="45.7629922" lon="11.7318796"><ele>117.0</ele><time>2026-04-09T15:36:16.64Z</time></trkpt><trkpt lat="45.7628459" lon="11.7318793"><ele>116.25</ele><time>2026-04-09T15:36:17.639Z</time></trkpt><trkpt lat="45.7626945" lon="11.7318775"><ele>115.5</ele><time>2026-04-09T15:36:18.637Z</time></trkpt><trkpt lat="45.7625438" lon="11.7318741"><ele>114.75</ele><time>2026-04-09T15:36:19.636Z</time></trkpt><trkpt lat="45.7624007" lon="11.731869"><ele>114.0</ele><time>2026-04-09T15:36:20.641Z</time></trkpt><trkpt lat="45.7622592" lon="11.7318637"><ele>114.0</ele><time>2026-04-09T15:36:21.643Z</time></trkpt><trkpt lat="45.7621192" lon="11.7318575"><ele>114.0</ele><time>2026-04-09T15:36:22.644Z</time></trkpt><trkpt lat="45.7619915" lon="11.731851"><ele>114.0</ele><time>2026-04-09T15:36:23.643Z</time></trkpt><trkpt lat="45.7618739" lon="11.7318449"><ele>114.0</ele><time>2026-04-09T15:36:24.659Z</time></trkpt><trkpt lat="45.761765" lon="11.731841"><ele>113.0</ele><time>2026-04-09T15:36:25.645Z</time></trkpt><trkpt lat="45.7616573" lon="11.731836"><ele>112.0</ele><time>2026-04-09T15:36:26.642Z</time></trkpt><trkpt lat="45.761543" lon="11.7318266"><ele>111.0</ele><time>2026-04-09T15:36:27.661Z</time></trkpt><trkpt lat="45.761419" lon="11.7318199"><ele>110.0</ele><time>2026-04-09T15:36:28.645Z</time></trkpt><trkpt lat="45.7612956" lon="11.7318159"><ele>110.0</ele><time>2026-04-09T15:36:29.634Z</time></trkpt><trkpt lat="45.7611811" lon="11.7318101"><ele>110.0</ele><time>2026-04-09T15:36:30.658Z</time></trkpt><trkpt lat="45.761078" lon="11.7318036"><ele>110.0</ele><time>2026-04-09T15:36:31.645Z</time></trkpt><trkpt lat="45.7609861" lon="11.7317986"><ele>110.0</ele><time>2026-04-09T15:36:32.642Z</time></trkpt><trkpt lat="45.7609074" lon="11.7317928"><ele>110.0</ele><time>2026-04-09T15:36:33.648Z</time></trkpt><trkpt lat="45.7608378" lon="11.7317865"><ele>109.99999999999999</ele><time>2026-04-09T15:36:34.64Z</time></trkpt><trkpt lat="45.7607739" lon="11.7317779"><ele>110.0</ele><time>2026-04-09T15:36:35.639Z</time></trkpt><trkpt lat="45.7607114" lon="11.7317671"><ele>110.0</ele><time>2026-04-09T15:36:36.637Z</time></trkpt><trkpt lat="45.7606465" lon="11.7317477"><ele>110.0</ele><time>2026-04-09T15:36:37.671Z</time></trkpt><trkpt lat="45.7605833" lon="11.7317063"><ele>110.0</ele><time>2026-04-09T15:36:38.649Z</time></trkpt><trkpt lat="45.760518" lon="11.731654"><ele>109.99999999999999</ele><time>2026-04-09T15:36:39.645Z</time></trkpt><trkpt lat="45.7604492" lon="11.7316129"><ele>110.0</ele><time>2026-04-09T15:36:40.649Z</time></trkpt><trkpt lat="45.760374" lon="11.7315944"><ele>110.0</ele><time>2026-04-09T15:36:41.646Z</time></trkpt><trkpt lat="45.7602936" lon="11.7315982"><ele>110.0</ele><time>2026-04-09T15:36:42.64Z</time></trkpt><trkpt lat="45.7602022" lon="11.7316084"><ele>110.0</ele><time>2026-04-09T15:36:43.65Z</time></trkpt><trkpt lat="45.7601002" lon="11.7316189"><ele>110.0</ele><time>2026-04-09T15:36:44.644Z</time></trkpt><trkpt lat="45.7599762" lon="11.731597"><ele>110.0</ele><time>2026-04-09T15:36:45.638Z</time></trkpt><trkpt lat="45.7598428" lon="11.7315501"><ele>109.75</ele><time>2026-04-09T15:36:46.636Z</time></trkpt><trkpt lat="45.7597033" lon="11.7314912"><ele>109.5</ele><time>2026-04-09T15:36:47.639Z</time></trkpt><trkpt lat="45.7595614" lon="11.7314313"><ele>109.25</ele><time>2026-04-09T15:36:48.648Z</time></trkpt><trkpt lat="45.7594169" lon="11.7313607"><ele>109.0</ele><time>2026-04-09T15:36:49.644Z</time></trkpt><trkpt lat="45.7592747" lon="11.7312856"><ele>109.0</ele><time>2026-04-09T15:36:50.645Z</time></trkpt><trkpt lat="45.7591363" lon="11.7312113"><ele>109.0</ele><time>2026-04-09T15:36:51.639Z</time></trkpt><trkpt lat="45.7589984" lon="11.7311394"><ele>109.0</ele><time>2026-04-09T15:36:52.642Z</time></trkpt><trkpt lat="45.7588657" lon="11.7310699"><ele>109.0</ele><time>2026-04-09T15:36:53.642Z</time></trkpt><trkpt lat="45.7587386" lon="11.7310024"><ele>108.75</ele><time>2026-04-09T15:36:54.718Z</time></trkpt><trkpt lat="45.7586077" lon="11.7309337"><ele>108.5</ele><time>2026-04-09T15:36:55.645Z</time></trkpt><trkpt lat="45.7584751" lon="11.730867"><ele>108.25</ele><time>2026-04-09T15:36:56.644Z</time></trkpt><trkpt lat="45.7583382" lon="11.7307957"><ele>108.0</ele><time>2026-04-09T15:36:57.637Z</time></trkpt><trkpt lat="45.7581943" lon="11.7307196"><ele>107.33333333333334</ele><time>2026-04-09T15:36:58.637Z</time></trkpt><trkpt lat="45.7580448" lon="11.7306393"><ele>106.66666666666667</ele><time>2026-04-09T15:36:59.648Z</time></trkpt><trkpt lat="45.7578954" lon="11.7305548"><ele>106.0</ele><time>2026-04-09T15:37:00.637Z</time></trkpt><trkpt lat="45.757749" lon="11.7304684"><ele>106.0</ele><time>2026-04-09T15:37:01.637Z</time></trkpt><trkpt lat="45.7576036" lon="11.7303797"><ele>106.0</ele><time>2026-04-09T15:37:02.637Z</time></trkpt><trkpt lat="45.7574587" lon="11.7302845"><ele>106.0</ele><time>2026-04-09T15:37:03.638Z</time></trkpt><trkpt lat="45.7573115" lon="11.7301806"><ele>106.0</ele><time>2026-04-09T15:37:04.634Z</time></trkpt><trkpt lat="45.7571563" lon="11.7300748"><ele>106.0</ele><time>2026-04-09T15:37:05.646Z</time></trkpt><trkpt lat="45.756982" lon="11.7299651"><ele>106.0</ele><time>2026-04-09T15:37:06.639Z</time></trkpt><trkpt lat="45.7567887" lon="11.7298396"><ele>106.33333333333334</ele><time>2026-04-09T15:37:07.645Z</time></trkpt><trkpt lat="45.7565888" lon="11.7297027"><ele>106.66666666666666</ele><time>2026-04-09T15:37:08.634Z</time></trkpt><trkpt lat="45.7563915" lon="11.729565"><ele>107.0</ele><time>2026-04-09T15:37:09.638Z</time></trkpt><trkpt lat="45.7561991" lon="11.7294291"><ele>106.66666666666666</ele><time>2026-04-09T15:37:10.636Z</time></trkpt><trkpt lat="45.7560081" lon="11.7292932"><ele>106.33333333333334</ele><time>2026-04-09T15:37:11.645Z</time></trkpt><trkpt lat="45.7558182" lon="11.7291583"><ele>106.0</ele><time>2026-04-09T15:37:12.637Z</time></trkpt><trkpt lat="45.7556264" lon="11.7290232"><ele>106.0</ele><time>2026-04-09T15:37:13.651Z</time></trkpt><trkpt lat="45.7554346" lon="11.7288872"><ele>106.0</ele><time>2026-04-09T15:37:14.635Z</time></trkpt><trkpt lat="45.755242" lon="11.7287491"><ele>106.0</ele><time>2026-04-09T15:37:15.637Z</time></trkpt><trkpt lat="45.7550508" lon="11.7286109"><ele>105.33333333333334</ele><time>2026-04-09T15:37:16.638Z</time></trkpt><trkpt lat="45.7548655" lon="11.728474"><ele>104.66666666666666</ele><time>2026-04-09T15:37:17.64Z</time></trkpt><trkpt lat="45.7546876" lon="11.7283442"><ele>104.0</ele><time>2026-04-09T15:37:18.645Z</time></trkpt><trkpt lat="45.7545185" lon="11.7282188"><ele>105.0</ele><time>2026-04-09T15:37:19.647Z</time></trkpt><trkpt lat="45.7543566" lon="11.7281001"><ele>106.0</ele><time>2026-04-09T15:37:20.642Z</time></trkpt><trkpt lat="45.7542044" lon="11.7279909"><ele>107.0</ele><time>2026-04-09T15:37:21.645Z</time></trkpt><trkpt lat="45.754058" lon="11.7278872"><ele>107.0</ele><time>2026-04-09T15:37:22.638Z</time></trkpt><trkpt lat="45.7539196" lon="11.7277876"><ele>107.0</ele><time>2026-04-09T15:37:23.641Z</time></trkpt><trkpt lat="45.7537911" lon="11.7276951"><ele>107.0</ele><time>2026-04-09T15:37:24.634Z</time></trkpt><trkpt lat="45.7536791" lon="11.7276147"><ele>107.0</ele><time>2026-04-09T15:37:25.645Z</time></trkpt><trkpt lat="45.7535848" lon="11.7275456"><ele>106.83333333333333</ele><time>2026-04-09T15:37:26.651Z</time></trkpt><trkpt lat="45.7535103" lon="11.7274914"><ele>106.66666666666666</ele><time>2026-04-09T15:37:27.643Z</time></trkpt><trkpt lat="45.7534231" lon="11.7274271"><ele>106.5</ele><time>2026-04-09T15:37:29.64Z</time></trkpt><trkpt lat="45.7533594" lon="11.7273819"><ele>106.33333333333334</ele><time>2026-04-09T15:37:31.653Z</time></trkpt><trkpt lat="45.7532844" lon="11.7273002"><ele>106.16666666666667</ele><time>2026-04-09T15:37:33.646Z</time></trkpt><trkpt lat="45.753238" lon="11.7272387"><ele>106.0</ele><time>2026-04-09T15:37:34.645Z</time></trkpt><trkpt lat="45.7531809" lon="11.7271826"><ele>106.0</ele><time>2026-04-09T15:37:35.643Z</time></trkpt><trkpt lat="45.7531007" lon="11.7271454"><ele>106.0</ele><time>2026-04-09T15:37:36.65Z</time></trkpt><trkpt lat="45.7529971" lon="11.7271133"><ele>106.0</ele><time>2026-04-09T15:37:37.647Z</time></trkpt><trkpt lat="45.752873" lon="11.7270579"><ele>106.0</ele><time>2026-04-09T15:37:38.647Z</time></trkpt><trkpt lat="45.7527354" lon="11.7269748"><ele>105.66666666666667</ele><time>2026-04-09T15:37:39.653Z</time></trkpt><trkpt lat="45.7525812" lon="11.7268721"><ele>105.33333333333334</ele><time>2026-04-09T15:37:40.629Z</time></trkpt><trkpt lat="45.7524152" lon="11.726757"><ele>105.0</ele><time>2026-04-09T15:37:41.644Z</time></trkpt><trkpt lat="45.7522383" lon="11.726634"><ele>105.0</ele><time>2026-04-09T15:37:42.633Z</time></trkpt><trkpt lat="45.7520537" lon="11.7265048"><ele>105.0</ele><time>2026-04-09T15:37:43.643Z</time></trkpt><trkpt lat="45.7518656" lon="11.7263723"><ele>105.0</ele><time>2026-04-09T15:37:44.637Z</time></trkpt><trkpt lat="45.7516746" lon="11.7262387"><ele>105.33333333333334</ele><time>2026-04-09T15:37:45.644Z</time></trkpt><trkpt lat="45.75148" lon="11.7261109"><ele>105.66666666666667</ele><time>2026-04-09T15:37:46.637Z</time></trkpt><trkpt lat="45.7512819" lon="11.7259978"><ele>106.0</ele><time>2026-04-09T15:37:47.644Z</time></trkpt><trkpt lat="45.751079" lon="11.7259"><ele>105.66666666666667</ele><time>2026-04-09T15:37:48.651Z</time></trkpt><trkpt lat="45.7508712" lon="11.7258177"><ele>105.33333333333334</ele><time>2026-04-09T15:37:49.643Z</time></trkpt><trkpt lat="45.7506597" lon="11.7257534"><ele>105.0</ele><time>2026-04-09T15:37:50.639Z</time></trkpt><trkpt lat="45.7504448" lon="11.7257057"><ele>105.0</ele><time>2026-04-09T15:37:51.643Z</time></trkpt><trkpt lat="45.7502277" lon="11.7256725"><ele>105.0</ele><time>2026-04-09T15:37:52.656Z</time></trkpt><trkpt lat="45.7500094" lon="11.7256528"><ele>105.0</ele><time>2026-04-09T15:37:53.647Z</time></trkpt><trkpt lat="45.74979" lon="11.7256509"><ele>104.66666666666666</ele><time>2026-04-09T15:37:54.637Z</time></trkpt><trkpt lat="45.7495717" lon="11.7256755"><ele>104.33333333333333</ele><time>2026-04-09T15:37:55.636Z</time></trkpt><trkpt lat="45.7493558" lon="11.7257312"><ele>104.0</ele><time>2026-04-09T15:37:56.641Z</time></trkpt><trkpt lat="45.7491445" lon="11.7258054"><ele>104.66666666666666</ele><time>2026-04-09T15:37:57.645Z</time></trkpt><trkpt lat="45.7489472" lon="11.7258886"><ele>105.33333333333334</ele><time>2026-04-09T15:37:58.642Z</time></trkpt><trkpt lat="45.7487587" lon="11.7259803"><ele>106.0</ele><time>2026-04-09T15:37:59.649Z</time></trkpt><trkpt lat="45.7485873" lon="11.7260753"><ele>106.25</ele><time>2026-04-09T15:38:00.646Z</time></trkpt><trkpt lat="45.7484355" lon="11.7261675"><ele>106.5</ele><time>2026-04-09T15:38:01.643Z</time></trkpt><trkpt lat="45.7483033" lon="11.7262524"><ele>106.75</ele><time>2026-04-09T15:38:02.655Z</time></trkpt><trkpt lat="45.7481899" lon="11.7263288"><ele>107.0</ele><time>2026-04-09T15:38:03.648Z</time></trkpt><trkpt lat="45.7480947" lon="11.726395"><ele>106.99999999999999</ele><time>2026-04-09T15:38:04.641Z</time></trkpt><trkpt lat="45.7480162" lon="11.7264499"><ele>107.0</ele><time>2026-04-09T15:38:05.643Z</time></trkpt><trkpt lat="45.7479549" lon="11.7264917"><ele>107.0</ele><time>2026-04-09T15:38:06.66Z</time></trkpt><trkpt lat="45.7478899" lon="11.7265398"><ele>107.0</ele><time>2026-04-09T15:38:08.638Z</time></trkpt><trkpt lat="45.7478273" lon="11.7265837"><ele>106.99999999999999</ele><time>2026-04-09T15:38:14.656Z</time></trkpt><trkpt lat="45.7477193" lon="11.7266234"><ele>107.0</ele><time>2026-04-09T15:38:16.669Z</time></trkpt><trkpt lat="45.7476589" lon="11.7266671"><ele>106.5</ele><time>2026-04-09T15:38:17.646Z</time></trkpt><trkpt lat="45.7475823" lon="11.7267266"><ele>106.0</ele><time>2026-04-09T15:38:18.645Z</time></trkpt><trkpt lat="45.7474908" lon="11.7268304"><ele>105.5</ele><time>2026-04-09T15:38:19.646Z</time></trkpt><trkpt lat="45.7473784" lon="11.7269338"><ele>105.0</ele><time>2026-04-09T15:38:20.659Z</time></trkpt><trkpt lat="45.7472434" lon="11.7270409"><ele>105.0</ele><time>2026-04-09T15:38:21.642Z</time></trkpt><trkpt lat="45.7470937" lon="11.7271542"><ele>105.0</ele><time>2026-04-09T15:38:22.642Z</time></trkpt><trkpt lat="45.7469338" lon="11.727274"><ele>105.0</ele><time>2026-04-09T15:38:23.644Z</time></trkpt><trkpt lat="45.746759" lon="11.7273974"><ele>105.0</ele><time>2026-04-09T15:38:24.642Z</time></trkpt><trkpt lat="45.7465659" lon="11.7275314"><ele>105.0</ele><time>2026-04-09T15:38:25.641Z</time></trkpt><trkpt lat="45.74637" lon="11.7276754"><ele>105.0</ele><time>2026-04-09T15:38:26.647Z</time></trkpt><trkpt lat="45.7461737" lon="11.7278316"><ele>104.0</ele><time>2026-04-09T15:38:27.633Z</time></trkpt><trkpt lat="45.7459808" lon="11.7279962"><ele>103.0</ele><time>2026-04-09T15:38:28.639Z</time></trkpt><trkpt lat="45.7457901" lon="11.7281675"><ele>103.0</ele><time>2026-04-09T15:38:29.643Z</time></trkpt><trkpt lat="45.7455999" lon="11.7283413"><ele>103.0</ele><time>2026-04-09T15:38:30.64Z</time></trkpt><trkpt lat="45.7454107" lon="11.7285187"><ele>103.33333333333334</ele><time>2026-04-09T15:38:31.636Z</time></trkpt><trkpt lat="45.745222" lon="11.7286976"><ele>103.66666666666666</ele><time>2026-04-09T15:38:32.647Z</time></trkpt><trkpt lat="45.7450383" lon="11.7288741"><ele>104.0</ele><time>2026-04-09T15:38:33.648Z</time></trkpt><trkpt lat="45.744865" lon="11.7290404"><ele>104.0</ele><time>2026-04-09T15:38:34.642Z</time></trkpt><trkpt lat="45.7447019" lon="11.7291975"><ele>104.0</ele><time>2026-04-09T15:38:35.655Z</time></trkpt><trkpt lat="45.7445483" lon="11.7293437"><ele>104.0</ele><time>2026-04-09T15:38:36.646Z</time></trkpt><trkpt lat="45.744403" lon="11.7294772"><ele>103.33333333333333</ele><time>2026-04-09T15:38:37.642Z</time></trkpt><trkpt lat="45.744264" lon="11.7295961"><ele>102.66666666666666</ele><time>2026-04-09T15:38:38.64Z</time></trkpt><trkpt lat="45.7441308" lon="11.7296999"><ele>102.0</ele><time>2026-04-09T15:38:39.653Z</time></trkpt><trkpt lat="45.7440053" lon="11.7297847"><ele>102.0</ele><time>2026-04-09T15:38:40.642Z</time></trkpt><trkpt lat="45.7438926" lon="11.7298522"><ele>102.0</ele><time>2026-04-09T15:38:41.642Z</time></trkpt><trkpt lat="45.7438004" lon="11.7299031"><ele>102.0</ele><time>2026-04-09T15:38:42.646Z</time></trkpt><trkpt lat="45.7437224" lon="11.7299451"><ele>102.0</ele><time>2026-04-09T15:38:43.647Z</time></trkpt><trkpt lat="45.7436566" lon="11.7299777"><ele>102.0</ele><time>2026-04-09T15:38:44.648Z</time></trkpt><trkpt lat="45.7435931" lon="11.730002"><ele>102.0</ele><time>2026-04-09T15:38:45.653Z</time></trkpt><trkpt lat="45.7435235" lon="11.7300064"><ele>101.8</ele><time>2026-04-09T15:38:46.648Z</time></trkpt><trkpt lat="45.7434453" lon="11.7299862"><ele>101.6</ele><time>2026-04-09T15:38:47.645Z</time></trkpt><trkpt lat="45.7433548" lon="11.7299673"><ele>101.39999999999999</ele><time>2026-04-09T15:38:48.655Z</time></trkpt><trkpt lat="45.7432586" lon="11.7299744"><ele>101.19999999999999</ele><time>2026-04-09T15:38:49.646Z</time></trkpt><trkpt lat="45.7431585" lon="11.7300242"><ele>101.0</ele><time>2026-04-09T15:38:50.646Z</time></trkpt><trkpt lat="45.7430394" lon="11.7300832"><ele>101.0</ele><time>2026-04-09T15:38:51.651Z</time></trkpt><trkpt lat="45.7429031" lon="11.7301276"><ele>101.0</ele><time>2026-04-09T15:38:52.64Z</time></trkpt><trkpt lat="45.7427481" lon="11.7301664"><ele>101.0</ele><time>2026-04-09T15:38:53.644Z</time></trkpt><trkpt lat="45.7425792" lon="11.7301968"><ele>101.0</ele><time>2026-04-09T15:38:54.638Z</time></trkpt><trkpt lat="45.7424039" lon="11.7302207"><ele>101.0</ele><time>2026-04-09T15:38:55.646Z</time></trkpt><trkpt lat="45.7422253" lon="11.7302518"><ele>101.0</ele><time>2026-04-09T15:38:56.639Z</time></trkpt><trkpt lat="45.7420464" lon="11.730281"><ele>101.33333333333333</ele><time>2026-04-09T15:38:57.648Z</time></trkpt><trkpt lat="45.7418662" lon="11.7303118"><ele>101.66666666666666</ele><time>2026-04-09T15:38:58.646Z</time></trkpt><trkpt lat="45.7416851" lon="11.7303472"><ele>102.0</ele><time>2026-04-09T15:38:59.638Z</time></trkpt><trkpt lat="45.7415044" lon="11.7303763"><ele>102.0</ele><time>2026-04-09T15:39:00.64Z</time></trkpt><trkpt lat="45.7413327" lon="11.7303885"><ele>102.0</ele><time>2026-04-09T15:39:01.637Z</time></trkpt><trkpt lat="45.7411752" lon="11.7303788"><ele>102.0</ele><time>2026-04-09T15:39:02.652Z</time></trkpt><trkpt lat="45.7410286" lon="11.7303528"><ele>101.75</ele><time>2026-04-09T15:39:03.641Z</time></trkpt><trkpt lat="45.7408978" lon="11.7303191"><ele>101.5</ele><time>2026-04-09T15:39:04.641Z</time></trkpt><trkpt lat="45.7407828" lon="11.7302797"><ele>101.25</ele><time>2026-04-09T15:39:05.65Z</time></trkpt><trkpt lat="45.7406791" lon="11.7302256"><ele>101.0</ele><time>2026-04-09T15:39:06.656Z</time></trkpt><trkpt lat="45.7405874" lon="11.7301461"><ele>100.83333333333333</ele><time>2026-04-09T15:39:07.655Z</time></trkpt><trkpt lat="45.7405089" lon="11.730071"><ele>100.66666666666666</ele><time>2026-04-09T15:39:08.65Z</time></trkpt><trkpt lat="45.7404279" lon="11.7300293"><ele>100.5</ele><time>2026-04-09T15:39:09.65Z</time></trkpt><trkpt lat="45.7403417" lon="11.7300318"><ele>100.33333333333334</ele><time>2026-04-09T15:39:10.644Z</time></trkpt><trkpt lat="45.740264" lon="11.7300888"><ele>100.16666666666667</ele><time>2026-04-09T15:39:11.648Z</time></trkpt><trkpt lat="45.740207" lon="11.7301913"><ele>100.0</ele><time>2026-04-09T15:39:12.64Z</time></trkpt><trkpt lat="45.7401745" lon="11.7303336"><ele>100.5</ele><time>2026-04-09T15:39:13.651Z</time></trkpt><trkpt lat="45.740149" lon="11.730501"><ele>101.0</ele><time>2026-04-09T15:39:14.646Z</time></trkpt><trkpt lat="45.7401067" lon="11.7306429"><ele>101.5</ele><time>2026-04-09T15:39:15.635Z</time></trkpt><trkpt lat="45.7400333" lon="11.7307574"><ele>102.0</ele><time>2026-04-09T15:39:16.644Z</time></trkpt><trkpt lat="45.739926" lon="11.7308409"><ele>102.0</ele><time>2026-04-09T15:39:17.648Z</time></trkpt><trkpt lat="45.7397893" lon="11.7309079"><ele>102.0</ele><time>2026-04-09T15:39:18.645Z</time></trkpt><trkpt lat="45.7396285" lon="11.7309773"><ele>102.0</ele><time>2026-04-09T15:39:19.644Z</time></trkpt><trkpt lat="45.739452" lon="11.7310456"><ele>100.0</ele><time>2026-04-09T15:39:20.652Z</time></trkpt><trkpt lat="45.7392809" lon="11.7311059"><ele>98.0</ele><time>2026-04-09T15:39:21.651Z</time></trkpt><trkpt lat="45.7391236" lon="11.7311561"><ele>96.0</ele><time>2026-04-09T15:39:22.655Z</time></trkpt><trkpt lat="45.7389858" lon="11.7311945"><ele>96.0</ele><time>2026-04-09T15:39:23.644Z</time></trkpt><trkpt lat="45.7388657" lon="11.7312283"><ele>96.0</ele><time>2026-04-09T15:39:24.655Z</time></trkpt><trkpt lat="45.7387713" lon="11.7312435"><ele>96.0</ele><time>2026-04-09T15:39:25.648Z</time></trkpt><trkpt lat="45.7386789" lon="11.731246"><ele>96.0</ele><time>2026-04-09T15:39:26.638Z</time></trkpt><trkpt lat="45.7385802" lon="11.7312067"><ele>96.0</ele><time>2026-04-09T15:39:27.646Z</time></trkpt><trkpt lat="45.7384656" lon="11.7311556"><ele>97.0</ele><time>2026-04-09T15:39:28.646Z</time></trkpt><trkpt lat="45.7383392" lon="11.7311011"><ele>98.0</ele><time>2026-04-09T15:39:29.641Z</time></trkpt><trkpt lat="45.7382172" lon="11.7310711"><ele>99.0</ele><time>2026-04-09T15:39:30.644Z</time></trkpt><trkpt lat="45.7380853" lon="11.7310856"><ele>100.0</ele><time>2026-04-09T15:39:31.654Z</time></trkpt><trkpt lat="45.7379478" lon="11.7311142"><ele>100.0</ele><time>2026-04-09T15:39:32.641Z</time></trkpt><trkpt lat="45.7378107" lon="11.7311829"><ele>100.0</ele><time>2026-04-09T15:39:33.648Z</time></trkpt><trkpt lat="45.7376763" lon="11.731212"><ele>100.0</ele><time>2026-04-09T15:39:34.646Z</time></trkpt><trkpt lat="45.7375262" lon="11.7311968"><ele>100.0</ele><time>2026-04-09T15:39:35.638Z</time></trkpt><trkpt lat="45.7373595" lon="11.7311927"><ele>100.0</ele><time>2026-04-09T15:39:36.67Z</time></trkpt><trkpt lat="45.7371738" lon="11.7312264"><ele>100.0</ele><time>2026-04-09T15:39:37.652Z</time></trkpt><trkpt lat="45.7370031" lon="11.7313146"><ele>100.0</ele><time>2026-04-09T15:39:38.637Z</time></trkpt><trkpt lat="45.7368587" lon="11.7314241"><ele>99.5</ele><time>2026-04-09T15:39:39.64Z</time></trkpt><trkpt lat="45.7367447" lon="11.7315364"><ele>99.0</ele><time>2026-04-09T15:39:40.658Z</time></trkpt><trkpt lat="45.7366302" lon="11.7316302"><ele>98.5</ele><time>2026-04-09T15:39:41.643Z</time></trkpt><trkpt lat="45.7364915" lon="11.7316982"><ele>98.0</ele><time>2026-04-09T15:39:42.653Z</time></trkpt><trkpt lat="45.7363187" lon="11.7317577"><ele>98.0</ele><time>2026-04-09T15:39:43.641Z</time></trkpt><trkpt lat="45.7361264" lon="11.7318347"><ele>98.0</ele><time>2026-04-09T15:39:44.649Z</time></trkpt><trkpt lat="45.7359242" lon="11.7319337"><ele>98.0</ele><time>2026-04-09T15:39:45.647Z</time></trkpt><trkpt lat="45.7357323" lon="11.7320321"><ele>98.66666666666666</ele><time>2026-04-09T15:39:46.64Z</time></trkpt><trkpt lat="45.7355448" lon="11.7321306"><ele>99.33333333333334</ele><time>2026-04-09T15:39:47.646Z</time></trkpt><trkpt lat="45.7353543" lon="11.7322433"><ele>100.0</ele><time>2026-04-09T15:39:48.657Z</time></trkpt><trkpt lat="45.7351772" lon="11.7323816"><ele>100.0</ele><time>2026-04-09T15:39:49.643Z</time></trkpt><trkpt lat="45.7349989" lon="11.7325328"><ele>100.0</ele><time>2026-04-09T15:39:50.644Z</time></trkpt><trkpt lat="45.734816" lon="11.7326699"><ele>100.0</ele><time>2026-04-09T15:39:51.645Z</time></trkpt><trkpt lat="45.7346288" lon="11.7327887"><ele>100.33333333333334</ele><time>2026-04-09T15:39:52.636Z</time></trkpt><trkpt lat="45.7344334" lon="11.7328888"><ele>100.66666666666666</ele><time>2026-04-09T15:39:53.641Z</time></trkpt><trkpt lat="45.7342347" lon="11.7329671"><ele>101.0</ele><time>2026-04-09T15:39:54.644Z</time></trkpt><trkpt lat="45.734029" lon="11.7330334"><ele>101.33333333333333</ele><time>2026-04-09T15:39:55.642Z</time></trkpt><trkpt lat="45.7338254" lon="11.7330891"><ele>101.66666666666666</ele><time>2026-04-09T15:39:56.64Z</time></trkpt><trkpt lat="45.7336364" lon="11.733138"><ele>102.0</ele><time>2026-04-09T15:39:57.642Z</time></trkpt><trkpt lat="45.7334679" lon="11.7331758"><ele>101.0</ele><time>2026-04-09T15:39:58.652Z</time></trkpt><trkpt lat="45.7333261" lon="11.7332073"><ele>100.0</ele><time>2026-04-09T15:39:59.648Z</time></trkpt><trkpt lat="45.7332109" lon="11.733227"><ele>99.0</ele><time>2026-04-09T15:40:00.639Z</time></trkpt><trkpt lat="45.7331068" lon="11.7332281"><ele>98.0</ele><time>2026-04-09T15:40:01.651Z</time></trkpt><trkpt lat="45.733" lon="11.7332022"><ele>98.0</ele><time>2026-04-09T15:40:02.642Z</time></trkpt><trkpt lat="45.7328854" lon="11.7331887"><ele>98.0</ele><time>2026-04-09T15:40:03.658Z</time></trkpt><trkpt lat="45.7327672" lon="11.7332204"><ele>98.0</ele><time>2026-04-09T15:40:04.649Z</time></trkpt><trkpt lat="45.7326358" lon="11.7332952"><ele>98.0</ele><time>2026-04-09T15:40:05.639Z</time></trkpt><trkpt lat="45.7324804" lon="11.7333683"><ele>98.0</ele><time>2026-04-09T15:40:06.649Z</time></trkpt><trkpt lat="45.7323026" lon="11.7334144"><ele>98.0</ele><time>2026-04-09T15:40:07.683Z</time></trkpt><trkpt lat="45.7321089" lon="11.7334571"><ele>98.0</ele><time>2026-04-09T15:40:08.632Z</time></trkpt><trkpt lat="45.7318992" lon="11.7335017"><ele>98.0</ele><time>2026-04-09T15:40:09.631Z</time></trkpt><trkpt lat="45.7316993" lon="11.733536"><ele>98.0</ele><time>2026-04-09T15:40:10.642Z</time></trkpt><trkpt lat="45.7315128" lon="11.7335546"><ele>98.0</ele><time>2026-04-09T15:40:11.646Z</time></trkpt><trkpt lat="45.7313333" lon="11.7335593"><ele>98.0</ele><time>2026-04-09T15:40:12.633Z</time></trkpt><trkpt lat="45.7311527" lon="11.7335596"><ele>98.0</ele><time>2026-04-09T15:40:13.642Z</time></trkpt><trkpt lat="45.7309823" lon="11.7335568"><ele>98.0</ele><time>2026-04-09T15:40:14.64Z</time></trkpt><trkpt lat="45.7308221" lon="11.733553"><ele>97.75</ele><time>2026-04-09T15:40:15.654Z</time></trkpt><trkpt lat="45.7306679" lon="11.7335473"><ele>97.5</ele><time>2026-04-09T15:40:16.643Z</time></trkpt><trkpt lat="45.7305229" lon="11.7335416"><ele>97.25</ele><time>2026-04-09T15:40:17.645Z</time></trkpt><trkpt lat="45.7303886" lon="11.7335364"><ele>97.0</ele><time>2026-04-09T15:40:18.642Z</time></trkpt><trkpt lat="45.730259" lon="11.7335343"><ele>97.0</ele><time>2026-04-09T15:40:19.642Z</time></trkpt><trkpt lat="45.7301294" lon="11.7335369"><ele>97.0</ele><time>2026-04-09T15:40:20.644Z</time></trkpt><trkpt lat="45.7299999" lon="11.7335468"><ele>97.0</ele><time>2026-04-09T15:40:21.639Z</time></trkpt><trkpt lat="45.7298712" lon="11.7335679"><ele>97.0</ele><time>2026-04-09T15:40:22.644Z</time></trkpt><trkpt lat="45.7297444" lon="11.7336033"><ele>97.0</ele><time>2026-04-09T15:40:23.645Z</time></trkpt><trkpt lat="45.729627" lon="11.7336497"><ele>97.0</ele><time>2026-04-09T15:40:24.642Z</time></trkpt><trkpt lat="45.7295152" lon="11.7336999"><ele>97.0</ele><time>2026-04-09T15:40:25.64Z</time></trkpt><trkpt lat="45.7294029" lon="11.7337518"><ele>97.0</ele><time>2026-04-09T15:40:26.639Z</time></trkpt><trkpt lat="45.7292927" lon="11.7338008"><ele>96.75</ele><time>2026-04-09T15:40:27.649Z</time></trkpt><trkpt lat="45.7291831" lon="11.733849"><ele>96.5</ele><time>2026-04-09T15:40:28.642Z</time></trkpt><trkpt lat="45.7290717" lon="11.7338983"><ele>96.25</ele><time>2026-04-09T15:40:29.644Z</time></trkpt><trkpt lat="45.7289584" lon="11.7339507"><ele>96.0</ele><time>2026-04-09T15:40:30.633Z</time></trkpt><trkpt lat="45.7288447" lon="11.7340033"><ele>96.0</ele><time>2026-04-09T15:40:31.638Z</time></trkpt><trkpt lat="45.7287321" lon="11.7340564"><ele>96.0</ele><time>2026-04-09T15:40:32.634Z</time></trkpt><trkpt lat="45.7286194" lon="11.7341095"><ele>96.0</ele><time>2026-04-09T15:40:33.641Z</time></trkpt><trkpt lat="45.7285065" lon="11.7341613"><ele>96.0</ele><time>2026-04-09T15:40:34.641Z</time></trkpt><trkpt lat="45.7283919" lon="11.7342015"><ele>96.0</ele><time>2026-04-09T15:40:35.638Z</time></trkpt><trkpt lat="45.728276" lon="11.7342369"><ele>96.0</ele><time>2026-04-09T15:40:36.639Z</time></trkpt><trkpt lat="45.7281576" lon="11.7342372"><ele>96.0</ele><time>2026-04-09T15:40:37.632Z</time></trkpt><trkpt lat="45.7280393" lon="11.7342395"><ele>96.0</ele><time>2026-04-09T15:40:38.635Z</time></trkpt><trkpt lat="45.7279206" lon="11.7342516"><ele>96.0</ele><time>2026-04-09T15:40:39.637Z</time></trkpt><trkpt lat="45.7278038" lon="11.7342569"><ele>96.0</ele><time>2026-04-09T15:40:40.64Z</time></trkpt><trkpt lat="45.7276908" lon="11.7342562"><ele>96.0</ele><time>2026-04-09T15:40:41.646Z</time></trkpt><trkpt lat="45.7275819" lon="11.7342593"><ele>96.0</ele><time>2026-04-09T15:40:42.646Z</time></trkpt><trkpt lat="45.727472" lon="11.7342603"><ele>96.0</ele><time>2026-04-09T15:40:43.641Z</time></trkpt><trkpt lat="45.7273646" lon="11.734261"><ele>96.19999999999999</ele><time>2026-04-09T15:40:44.655Z</time></trkpt><trkpt lat="45.7272567" lon="11.7342595"><ele>96.39999999999999</ele><time>2026-04-09T15:40:45.639Z</time></trkpt><trkpt lat="45.7271572" lon="11.7342458"><ele>96.6</ele><time>2026-04-09T15:40:46.644Z</time></trkpt><trkpt lat="45.7270647" lon="11.7342308"><ele>96.8</ele><time>2026-04-09T15:40:47.644Z</time></trkpt><trkpt lat="45.7269924" lon="11.7341536"><ele>97.0</ele><time>2026-04-09T15:40:48.652Z</time></trkpt><trkpt lat="45.7269216" lon="11.7340623"><ele>97.0</ele><time>2026-04-09T15:40:49.642Z</time></trkpt><trkpt lat="45.7268679" lon="11.7339325"><ele>97.0</ele><time>2026-04-09T15:40:50.64Z</time></trkpt><trkpt lat="45.7267921" lon="11.7338195"><ele>97.0</ele><time>2026-04-09T15:40:51.638Z</time></trkpt><trkpt lat="45.7267231" lon="11.7337078"><ele>97.0</ele><time>2026-04-09T15:40:52.642Z</time></trkpt><trkpt lat="45.7266184" lon="11.733646"><ele>97.0</ele><time>2026-04-09T15:40:53.647Z</time></trkpt><trkpt lat="45.7264991" lon="11.733609"><ele>97.0</ele><time>2026-04-09T15:40:54.635Z</time></trkpt><trkpt lat="45.7263817" lon="11.7335799"><ele>97.0</ele><time>2026-04-09T15:40:55.654Z</time></trkpt><trkpt lat="45.7262721" lon="11.733546"><ele>97.0</ele><time>2026-04-09T15:40:56.649Z</time></trkpt><trkpt lat="45.7261647" lon="11.7335129"><ele>97.0</ele><time>2026-04-09T15:40:57.637Z</time></trkpt><trkpt lat="45.7260605" lon="11.7334831"><ele>97.0</ele><time>2026-04-09T15:40:58.64Z</time></trkpt><trkpt lat="45.7259663" lon="11.7334578"><ele>96.0</ele><time>2026-04-09T15:40:59.635Z</time></trkpt><trkpt lat="45.7258706" lon="11.7334324"><ele>95.0</ele><time>2026-04-09T15:41:00.65Z</time></trkpt><trkpt lat="45.7257608" lon="11.7334014"><ele>94.0</ele><time>2026-04-09T15:41:01.645Z</time></trkpt><trkpt lat="45.7256394" lon="11.7333692"><ele>93.0</ele><time>2026-04-09T15:41:02.649Z</time></trkpt><trkpt lat="45.7255096" lon="11.7333296"><ele>93.0</ele><time>2026-04-09T15:41:03.641Z</time></trkpt><trkpt lat="45.725373" lon="11.7332893"><ele>93.0</ele><time>2026-04-09T15:41:04.645Z</time></trkpt><trkpt lat="45.7252292" lon="11.7332484"><ele>93.0</ele><time>2026-04-09T15:41:05.632Z</time></trkpt><trkpt lat="45.7250769" lon="11.7332059"><ele>93.0</ele><time>2026-04-09T15:41:06.645Z</time></trkpt><trkpt lat="45.7249192" lon="11.7331612"><ele>94.0</ele><time>2026-04-09T15:41:07.642Z</time></trkpt><trkpt lat="45.7247598" lon="11.7331171"><ele>95.0</ele><time>2026-04-09T15:41:08.639Z</time></trkpt><trkpt lat="45.7245962" lon="11.7330741"><ele>96.0</ele><time>2026-04-09T15:41:09.646Z</time></trkpt><trkpt lat="45.7244305" lon="11.7330401"><ele>95.33333333333333</ele><time>2026-04-09T15:41:10.637Z</time></trkpt><trkpt lat="45.7242592" lon="11.7330245"><ele>94.66666666666666</ele><time>2026-04-09T15:41:11.64Z</time></trkpt><trkpt lat="45.724085" lon="11.7330278"><ele>94.0</ele><time>2026-04-09T15:41:12.643Z</time></trkpt><trkpt lat="45.7239063" lon="11.7330453"><ele>94.0</ele><time>2026-04-09T15:41:13.64Z</time></trkpt><trkpt lat="45.723725" lon="11.733073"><ele>94.0</ele><time>2026-04-09T15:41:14.635Z</time></trkpt><trkpt lat="45.7235389" lon="11.733102"><ele>94.0</ele><time>2026-04-09T15:41:15.634Z</time></trkpt><trkpt lat="45.7233457" lon="11.7331329"><ele>94.0</ele><time>2026-04-09T15:41:16.637Z</time></trkpt><trkpt lat="45.7231511" lon="11.7331652"><ele>94.0</ele><time>2026-04-09T15:41:17.645Z</time></trkpt><trkpt lat="45.7229707" lon="11.733192"><ele>94.0</ele><time>2026-04-09T15:41:18.638Z</time></trkpt><trkpt lat="45.7228022" lon="11.7332123"><ele>93.5</ele><time>2026-04-09T15:41:19.638Z</time></trkpt><trkpt lat="45.722645" lon="11.7332245"><ele>93.0</ele><time>2026-04-09T15:41:20.653Z</time></trkpt><trkpt lat="45.7224989" lon="11.7332303"><ele>92.5</ele><time>2026-04-09T15:41:21.643Z</time></trkpt><trkpt lat="45.7223631" lon="11.7332304"><ele>92.0</ele><time>2026-04-09T15:41:22.64Z</time></trkpt><trkpt lat="45.7222366" lon="11.7332278"><ele>92.0</ele><time>2026-04-09T15:41:23.659Z</time></trkpt><trkpt lat="45.7221191" lon="11.7332277"><ele>92.0</ele><time>2026-04-09T15:41:24.648Z</time></trkpt><trkpt lat="45.7220156" lon="11.7332279"><ele>92.0</ele><time>2026-04-09T15:41:25.64Z</time></trkpt><trkpt lat="45.721927" lon="11.7332297"><ele>92.0</ele><time>2026-04-09T15:41:26.64Z</time></trkpt><trkpt lat="45.7218472" lon="11.7332317"><ele>92.0</ele><time>2026-04-09T15:41:27.637Z</time></trkpt><trkpt lat="45.721784" lon="11.7332304"><ele>91.66666666666667</ele><time>2026-04-09T15:41:28.636Z</time></trkpt><trkpt lat="45.7216947" lon="11.7332261"><ele>91.33333333333334</ele><time>2026-04-09T15:41:30.649Z</time></trkpt><trkpt lat="45.7216293" lon="11.7332292"><ele>91.0</ele><time>2026-04-09T15:41:32.658Z</time></trkpt><trkpt lat="45.7215443" lon="11.7332251"><ele>90.66666666666667</ele><time>2026-04-09T15:41:38.653Z</time></trkpt><trkpt lat="45.7214635" lon="11.7332141"><ele>90.33333333333333</ele><time>2026-04-09T15:41:41.654Z</time></trkpt><trkpt lat="45.7213774" lon="11.7331987"><ele>90.0</ele><time>2026-04-09T15:41:44.65Z</time></trkpt><trkpt lat="45.7213076" lon="11.733172"><ele>90.0</ele><time>2026-04-09T15:41:46.646Z</time></trkpt><trkpt lat="45.7212456" lon="11.7331426"><ele>90.0</ele><time>2026-04-09T15:41:48.641Z</time></trkpt><trkpt lat="45.7211679" lon="11.7330912"><ele>90.0</ele><time>2026-04-09T15:41:52.639Z</time></trkpt><trkpt lat="45.7211115" lon="11.7329835"><ele>90.0</ele><time>2026-04-09T15:41:54.644Z</time></trkpt><trkpt lat="45.7210464" lon="11.7328491"><ele>90.0</ele><time>2026-04-09T15:41:56.654Z</time></trkpt><trkpt lat="45.7209446" lon="11.7328356"><ele>90.5</ele><time>2026-04-09T15:41:58.634Z</time></trkpt><trkpt lat="45.720878" lon="11.7328757"><ele>91.0</ele><time>2026-04-09T15:41:59.643Z</time></trkpt><trkpt lat="45.7208024" lon="11.7329331"><ele>91.5</ele><time>2026-04-09T15:42:00.635Z</time></trkpt><trkpt lat="45.7207236" lon="11.7329758"><ele>92.0</ele><time>2026-04-09T15:42:01.633Z</time></trkpt><trkpt lat="45.7206326" lon="11.7329901"><ele>92.5</ele><time>2026-04-09T15:42:02.638Z</time></trkpt><trkpt lat="45.7205265" lon="11.7329654"><ele>93.0</ele><time>2026-04-09T15:42:03.643Z</time></trkpt><trkpt lat="45.7204088" lon="11.7329421"><ele>93.0</ele><time>2026-04-09T15:42:04.641Z</time></trkpt><trkpt lat="45.7202845" lon="11.7329248"><ele>93.0</ele><time>2026-04-09T15:42:05.65Z</time></trkpt><trkpt lat="45.7201502" lon="11.732903"><ele>93.0</ele><time>2026-04-09T15:42:06.648Z</time></trkpt><trkpt lat="45.7200148" lon="11.732888"><ele>93.0</ele><time>2026-04-09T15:42:07.644Z</time></trkpt><trkpt lat="45.7198714" lon="11.7328664"><ele>93.0</ele><time>2026-04-09T15:42:08.649Z</time></trkpt><trkpt lat="45.7197215" lon="11.7328473"><ele>93.0</ele><time>2026-04-09T15:42:09.64Z</time></trkpt><trkpt lat="45.7195721" lon="11.7328259"><ele>93.0</ele><time>2026-04-09T15:42:10.633Z</time></trkpt><trkpt lat="45.7194202" lon="11.7328027"><ele>92.33333333333333</ele><time>2026-04-09T15:42:11.641Z</time></trkpt><trkpt lat="45.7192672" lon="11.73278"><ele>91.66666666666666</ele><time>2026-04-09T15:42:12.643Z</time></trkpt><trkpt lat="45.7191156" lon="11.7327583"><ele>91.0</ele><time>2026-04-09T15:42:13.634Z</time></trkpt><trkpt lat="45.7189655" lon="11.732736"><ele>91.0</ele><time>2026-04-09T15:42:14.635Z</time></trkpt><trkpt lat="45.718816" lon="11.7327169"><ele>91.0</ele><time>2026-04-09T15:42:15.645Z</time></trkpt><trkpt lat="45.7186667" lon="11.7326961"><ele>91.0</ele><time>2026-04-09T15:42:16.676Z</time></trkpt><trkpt lat="45.7185175" lon="11.7326803"><ele>90.66666666666666</ele><time>2026-04-09T15:42:17.641Z</time></trkpt><trkpt lat="45.7183673" lon="11.7326683"><ele>90.33333333333333</ele><time>2026-04-09T15:42:18.64Z</time></trkpt><trkpt lat="45.718215" lon="11.7326657"><ele>90.0</ele><time>2026-04-09T15:42:19.638Z</time></trkpt><trkpt lat="45.7180583" lon="11.7326701"><ele>90.0</ele><time>2026-04-09T15:42:20.636Z</time></trkpt><trkpt lat="45.7178978" lon="11.7326756"><ele>90.0</ele><time>2026-04-09T15:42:21.654Z</time></trkpt><trkpt lat="45.7177327" lon="11.7326774"><ele>90.0</ele><time>2026-04-09T15:42:22.638Z</time></trkpt><trkpt lat="45.7175664" lon="11.7326739"><ele>90.0</ele><time>2026-04-09T15:42:23.639Z</time></trkpt><trkpt lat="45.7173988" lon="11.7326607"><ele>90.0</ele><time>2026-04-09T15:42:24.642Z</time></trkpt><trkpt lat="45.7172341" lon="11.7326354"><ele>90.0</ele><time>2026-04-09T15:42:25.648Z</time></trkpt><trkpt lat="45.7170673" lon="11.7326022"><ele>89.66666666666667</ele><time>2026-04-09T15:42:26.638Z</time></trkpt><trkpt lat="45.7168969" lon="11.7325639"><ele>89.33333333333334</ele><time>2026-04-09T15:42:27.641Z</time></trkpt><trkpt lat="45.7167234" lon="11.7325178"><ele>89.0</ele><time>2026-04-09T15:42:28.637Z</time></trkpt><trkpt lat="45.7165478" lon="11.7324681"><ele>89.0</ele><time>2026-04-09T15:42:29.642Z</time></trkpt><trkpt lat="45.7163761" lon="11.732418"><ele>89.0</ele><time>2026-04-09T15:42:30.65Z</time></trkpt><trkpt lat="45.7162143" lon="11.7323706"><ele>89.0</ele><time>2026-04-09T15:42:31.65Z</time></trkpt><trkpt lat="45.7160554" lon="11.7323239"><ele>89.33333333333334</ele><time>2026-04-09T15:42:32.647Z</time></trkpt><trkpt lat="45.7158975" lon="11.7322771"><ele>89.66666666666667</ele><time>2026-04-09T15:42:33.651Z</time></trkpt><trkpt lat="45.7157403" lon="11.732232"><ele>90.0</ele><time>2026-04-09T15:42:34.645Z</time></trkpt><trkpt lat="45.7155818" lon="11.732187"><ele>90.0</ele><time>2026-04-09T15:42:35.652Z</time></trkpt><trkpt lat="45.715421" lon="11.7321408"><ele>90.0</ele><time>2026-04-09T15:42:36.638Z</time></trkpt><trkpt lat="45.7152573" lon="11.7320934"><ele>90.0</ele><time>2026-04-09T15:42:37.647Z</time></trkpt><trkpt lat="45.7150921" lon="11.7320438"><ele>89.33333333333333</ele><time>2026-04-09T15:42:38.644Z</time></trkpt><trkpt lat="45.7149258" lon="11.7319944"><ele>88.66666666666666</ele><time>2026-04-09T15:42:39.662Z</time></trkpt><trkpt lat="45.7147588" lon="11.7319452"><ele>88.0</ele><time>2026-04-09T15:42:40.654Z</time></trkpt><trkpt lat="45.7145921" lon="11.7318966"><ele>88.0</ele><time>2026-04-09T15:42:41.648Z</time></trkpt><trkpt lat="45.7144259" lon="11.7318469"><ele>88.0</ele><time>2026-04-09T15:42:42.64Z</time></trkpt><trkpt lat="45.714259" lon="11.7317977"><ele>88.0</ele><time>2026-04-09T15:42:43.646Z</time></trkpt><trkpt lat="45.7140911" lon="11.7317502"><ele>87.66666666666666</ele><time>2026-04-09T15:42:44.646Z</time></trkpt><trkpt lat="45.7139218" lon="11.731704"><ele>87.33333333333333</ele><time>2026-04-09T15:42:45.64Z</time></trkpt><trkpt lat="45.7137511" lon="11.7316616"><ele>87.0</ele><time>2026-04-09T15:42:46.638Z</time></trkpt><trkpt lat="45.7135791" lon="11.7316237"><ele>87.33333333333333</ele><time>2026-04-09T15:42:47.649Z</time></trkpt><trkpt lat="45.7134069" lon="11.7315881"><ele>87.66666666666666</ele><time>2026-04-09T15:42:48.644Z</time></trkpt><trkpt lat="45.7132332" lon="11.7315542"><ele>88.0</ele><time>2026-04-09T15:42:49.64Z</time></trkpt><trkpt lat="45.7130596" lon="11.7315252"><ele>88.0</ele><time>2026-04-09T15:42:50.646Z</time></trkpt><trkpt lat="45.7128871" lon="11.7315076"><ele>88.0</ele><time>2026-04-09T15:42:51.649Z</time></trkpt><trkpt lat="45.7127241" lon="11.7315046"><ele>88.0</ele><time>2026-04-09T15:42:52.633Z</time></trkpt><trkpt lat="45.712573" lon="11.7315097"><ele>87.75</ele><time>2026-04-09T15:42:53.644Z</time></trkpt><trkpt lat="45.7124291" lon="11.731518"><ele>87.5</ele><time>2026-04-09T15:42:54.662Z</time></trkpt><trkpt lat="45.712286" lon="11.731527"><ele>87.25</ele><time>2026-04-09T15:42:55.641Z</time></trkpt><trkpt lat="45.7121427" lon="11.7315351"><ele>87.0</ele><time>2026-04-09T15:42:56.648Z</time></trkpt><trkpt lat="45.7119989" lon="11.7315438"><ele>86.5</ele><time>2026-04-09T15:42:57.65Z</time></trkpt><trkpt lat="45.7118549" lon="11.7315544"><ele>86.0</ele><time>2026-04-09T15:42:58.65Z</time></trkpt><trkpt lat="45.7117111" lon="11.7315658"><ele>85.5</ele><time>2026-04-09T15:42:59.658Z</time></trkpt><trkpt lat="45.711567" lon="11.7315763"><ele>85.0</ele><time>2026-04-09T15:43:00.648Z</time></trkpt><trkpt lat="45.7114259" lon="11.7315868"><ele>85.0</ele><time>2026-04-09T15:43:01.658Z</time></trkpt><trkpt lat="45.7112927" lon="11.7315965"><ele>85.0</ele><time>2026-04-09T15:43:02.648Z</time></trkpt><trkpt lat="45.7111623" lon="11.731606"><ele>85.0</ele><time>2026-04-09T15:43:03.655Z</time></trkpt><trkpt lat="45.7110363" lon="11.7316148"><ele>85.0</ele><time>2026-04-09T15:43:04.657Z</time></trkpt><trkpt lat="45.7109191" lon="11.7316227"><ele>85.0</ele><time>2026-04-09T15:43:05.651Z</time></trkpt><trkpt lat="45.710806" lon="11.7316313"><ele>85.0</ele><time>2026-04-09T15:43:06.664Z</time></trkpt><trkpt lat="45.7106958" lon="11.7316389"><ele>85.0</ele><time>2026-04-09T15:43:07.65Z</time></trkpt><trkpt lat="45.7105878" lon="11.731646"><ele>85.0</ele><time>2026-04-09T15:43:08.639Z</time></trkpt><trkpt lat="45.7104774" lon="11.7316526"><ele>85.0</ele><time>2026-04-09T15:43:09.656Z</time></trkpt><trkpt lat="45.710361" lon="11.7316598"><ele>85.25</ele><time>2026-04-09T15:43:10.642Z</time></trkpt><trkpt lat="45.7102392" lon="11.7316664"><ele>85.5</ele><time>2026-04-09T15:43:11.645Z</time></trkpt><trkpt lat="45.7101127" lon="11.7316733"><ele>85.75</ele><time>2026-04-09T15:43:12.648Z</time></trkpt><trkpt lat="45.7099815" lon="11.7316824"><ele>86.0</ele><time>2026-04-09T15:43:13.651Z</time></trkpt><trkpt lat="45.7098554" lon="11.7316908"><ele>86.0</ele><time>2026-04-09T15:43:14.646Z</time></trkpt><trkpt lat="45.7097343" lon="11.7316992"><ele>86.0</ele><time>2026-04-09T15:43:15.646Z</time></trkpt><trkpt lat="45.7096165" lon="11.7317085"><ele>86.0</ele><time>2026-04-09T15:43:16.643Z</time></trkpt><trkpt lat="45.7095029" lon="11.7317174"><ele>86.0</ele><time>2026-04-09T15:43:17.65Z</time></trkpt><trkpt lat="45.7093883" lon="11.7317245"><ele>85.6</ele><time>2026-04-09T15:43:18.639Z</time></trkpt><trkpt lat="45.7092715" lon="11.7317328"><ele>85.19999999999999</ele><time>2026-04-09T15:43:19.648Z</time></trkpt><trkpt lat="45.7091564" lon="11.7317401"><ele>84.80000000000001</ele><time>2026-04-09T15:43:20.654Z</time></trkpt><trkpt lat="45.7090507" lon="11.731745"><ele>84.4</ele><time>2026-04-09T15:43:21.638Z</time></trkpt><trkpt lat="45.7089504" lon="11.7317517"><ele>84.0</ele><time>2026-04-09T15:43:22.64Z</time></trkpt><trkpt lat="45.7088463" lon="11.7317637"><ele>84.0</ele><time>2026-04-09T15:43:23.645Z</time></trkpt><trkpt lat="45.7087476" lon="11.731778"><ele>84.0</ele><time>2026-04-09T15:43:24.641Z</time></trkpt><trkpt lat="45.7086552" lon="11.7317933"><ele>84.0</ele><time>2026-04-09T15:43:25.648Z</time></trkpt><trkpt lat="45.7085696" lon="11.7318073"><ele>84.0</ele><time>2026-04-09T15:43:26.644Z</time></trkpt><trkpt lat="45.7084934" lon="11.7318178"><ele>84.0</ele><time>2026-04-09T15:43:27.646Z</time></trkpt><trkpt lat="45.7084193" lon="11.7318252"><ele>84.0</ele><time>2026-04-09T15:43:28.648Z</time></trkpt><trkpt lat="45.7083473" lon="11.7318312"><ele>84.0</ele><time>2026-04-09T15:43:29.639Z</time></trkpt><trkpt lat="45.7082805" lon="11.7318371"><ele>84.0</ele><time>2026-04-09T15:43:30.642Z</time></trkpt><trkpt lat="45.7082146" lon="11.7318429"><ele>84.0</ele><time>2026-04-09T15:43:31.645Z</time></trkpt><trkpt lat="45.7081417" lon="11.7318508"><ele>84.0</ele><time>2026-04-09T15:43:32.651Z</time></trkpt><trkpt lat="45.7080623" lon="11.731864"><ele>84.0</ele><time>2026-04-09T15:43:33.644Z</time></trkpt><trkpt lat="45.7079757" lon="11.7318859"><ele>84.0</ele><time>2026-04-09T15:43:34.64Z</time></trkpt><trkpt lat="45.7078811" lon="11.7319205"><ele>84.0</ele><time>2026-04-09T15:43:35.646Z</time></trkpt><trkpt lat="45.7077768" lon="11.7319635"><ele>84.0</ele><time>2026-04-09T15:43:36.642Z</time></trkpt><trkpt lat="45.7076635" lon="11.7320033"><ele>84.0</ele><time>2026-04-09T15:43:37.653Z</time></trkpt><trkpt lat="45.707548" lon="11.7320333"><ele>84.0</ele><time>2026-04-09T15:43:38.652Z</time></trkpt><trkpt lat="45.7074363" lon="11.7320606"><ele>83.75</ele><time>2026-04-09T15:43:39.657Z</time></trkpt><trkpt lat="45.7073243" lon="11.7320774"><ele>83.5</ele><time>2026-04-09T15:43:40.643Z</time></trkpt><trkpt lat="45.7072089" lon="11.7321"><ele>83.25</ele><time>2026-04-09T15:43:41.652Z</time></trkpt><trkpt lat="45.7070891" lon="11.7321221"><ele>83.0</ele><time>2026-04-09T15:43:42.644Z</time></trkpt><trkpt lat="45.7069675" lon="11.7321481"><ele>82.75</ele><time>2026-04-09T15:43:43.649Z</time></trkpt><trkpt lat="45.7068429" lon="11.7321716"><ele>82.5</ele><time>2026-04-09T15:43:44.643Z</time></trkpt><trkpt lat="45.7067158" lon="11.7321972"><ele>82.25</ele><time>2026-04-09T15:43:45.633Z</time></trkpt><trkpt lat="45.7065854" lon="11.7322265"><ele>82.0</ele><time>2026-04-09T15:43:46.646Z</time></trkpt><trkpt lat="45.7064569" lon="11.7322593"><ele>82.0</ele><time>2026-04-09T15:43:47.654Z</time></trkpt><trkpt lat="45.7063278" lon="11.7322955"><ele>82.0</ele><time>2026-04-09T15:43:48.661Z</time></trkpt><trkpt lat="45.7061994" lon="11.7323334"><ele>82.0</ele><time>2026-04-09T15:43:49.643Z</time></trkpt><trkpt lat="45.706069" lon="11.7323716"><ele>82.0</ele><time>2026-04-09T15:43:50.648Z</time></trkpt><trkpt lat="45.7059366" lon="11.7324096"><ele>81.75</ele><time>2026-04-09T15:43:51.647Z</time></trkpt><trkpt lat="45.705799" lon="11.7324476"><ele>81.5</ele><time>2026-04-09T15:43:52.65Z</time></trkpt><trkpt lat="45.7056569" lon="11.7324872"><ele>81.25</ele><time>2026-04-09T15:43:53.646Z</time></trkpt><trkpt lat="45.7055124" lon="11.7325297"><ele>81.0</ele><time>2026-04-09T15:43:54.637Z</time></trkpt><trkpt lat="45.7053723" lon="11.7325701"><ele>80.75</ele><time>2026-04-09T15:43:55.64Z</time></trkpt><trkpt lat="45.7052387" lon="11.7326088"><ele>80.5</ele><time>2026-04-09T15:43:56.646Z</time></trkpt><trkpt lat="45.7051022" lon="11.7326477"><ele>80.25</ele><time>2026-04-09T15:43:57.639Z</time></trkpt><trkpt lat="45.7049648" lon="11.7326856"><ele>80.0</ele><time>2026-04-09T15:43:58.642Z</time></trkpt><trkpt lat="45.7048262" lon="11.7327191"><ele>80.0</ele><time>2026-04-09T15:43:59.644Z</time></trkpt><trkpt lat="45.7046847" lon="11.73275"><ele>80.0</ele><time>2026-04-09T15:44:00.643Z</time></trkpt><trkpt lat="45.7045376" lon="11.7327747"><ele>80.0</ele><time>2026-04-09T15:44:01.638Z</time></trkpt><trkpt lat="45.704387" lon="11.7327964"><ele>80.0</ele><time>2026-04-09T15:44:02.71Z</time></trkpt><trkpt lat="45.7042356" lon="11.7328142"><ele>80.0</ele><time>2026-04-09T15:44:03.645Z</time></trkpt><trkpt lat="45.7040818" lon="11.7328302"><ele>80.0</ele><time>2026-04-09T15:44:04.639Z</time></trkpt><trkpt lat="45.7039234" lon="11.7328447"><ele>80.0</ele><time>2026-04-09T15:44:05.641Z</time></trkpt><trkpt lat="45.7037591" lon="11.7328608"><ele>80.0</ele><time>2026-04-09T15:44:06.642Z</time></trkpt><trkpt lat="45.7035889" lon="11.7328791"><ele>80.0</ele><time>2026-04-09T15:44:07.639Z</time></trkpt><trkpt lat="45.7034219" lon="11.7328978"><ele>80.0</ele><time>2026-04-09T15:44:08.652Z</time></trkpt><trkpt lat="45.7032572" lon="11.7329159"><ele>79.66666666666667</ele><time>2026-04-09T15:44:09.639Z</time></trkpt><trkpt lat="45.7030933" lon="11.7329331"><ele>79.33333333333333</ele><time>2026-04-09T15:44:10.648Z</time></trkpt><trkpt lat="45.7029291" lon="11.7329487"><ele>79.0</ele><time>2026-04-09T15:44:11.651Z</time></trkpt><trkpt lat="45.7027645" lon="11.7329651"><ele>78.66666666666666</ele><time>2026-04-09T15:44:12.645Z</time></trkpt><trkpt lat="45.7025993" lon="11.7329825"><ele>78.33333333333333</ele><time>2026-04-09T15:44:13.643Z</time></trkpt><trkpt lat="45.7024328" lon="11.7329989"><ele>78.0</ele><time>2026-04-09T15:44:14.636Z</time></trkpt><trkpt lat="45.7022657" lon="11.7330136"><ele>78.0</ele><time>2026-04-09T15:44:15.639Z</time></trkpt><trkpt lat="45.7020976" lon="11.7330264"><ele>78.0</ele><time>2026-04-09T15:44:16.651Z</time></trkpt><trkpt lat="45.7019301" lon="11.7330367"><ele>78.0</ele><time>2026-04-09T15:44:17.637Z</time></trkpt><trkpt lat="45.7017685" lon="11.7330424"><ele>77.66666666666667</ele><time>2026-04-09T15:44:18.643Z</time></trkpt><trkpt lat="45.7016106" lon="11.7330457"><ele>77.33333333333334</ele><time>2026-04-09T15:44:19.641Z</time></trkpt><trkpt lat="45.7014527" lon="11.7330462"><ele>77.0</ele><time>2026-04-09T15:44:20.632Z</time></trkpt><trkpt lat="45.7012935" lon="11.7330474"><ele>77.0</ele><time>2026-04-09T15:44:21.644Z</time></trkpt><trkpt lat="45.701124" lon="11.7330506"><ele>77.0</ele><time>2026-04-09T15:44:22.647Z</time></trkpt><trkpt lat="45.7009337" lon="11.73305"><ele>77.0</ele><time>2026-04-09T15:44:23.643Z</time></trkpt><trkpt lat="45.7007238" lon="11.7330371"><ele>77.33333333333334</ele><time>2026-04-09T15:44:24.662Z</time></trkpt><trkpt lat="45.7005193" lon="11.7330157"><ele>77.66666666666667</ele><time>2026-04-09T15:44:25.64Z</time></trkpt><trkpt lat="45.7003289" lon="11.7329896"><ele>78.0</ele><time>2026-04-09T15:44:26.633Z</time></trkpt><trkpt lat="45.7001469" lon="11.7329589"><ele>78.33333333333333</ele><time>2026-04-09T15:44:27.64Z</time></trkpt><trkpt lat="45.6999697" lon="11.7329266"><ele>78.66666666666666</ele><time>2026-04-09T15:44:28.64Z</time></trkpt><trkpt lat="45.6997962" lon="11.732896"><ele>79.0</ele><time>2026-04-09T15:44:29.638Z</time></trkpt><trkpt lat="45.6996246" lon="11.7328676"><ele>79.0</ele><time>2026-04-09T15:44:30.636Z</time></trkpt><trkpt lat="45.6994563" lon="11.7328404"><ele>79.0</ele><time>2026-04-09T15:44:31.635Z</time></trkpt><trkpt lat="45.6992934" lon="11.7328138"><ele>79.0</ele><time>2026-04-09T15:44:32.639Z</time></trkpt><trkpt lat="45.6991391" lon="11.7327893"><ele>79.0</ele><time>2026-04-09T15:44:33.642Z</time></trkpt><trkpt lat="45.698987" lon="11.7327646"><ele>79.0</ele><time>2026-04-09T15:44:34.637Z</time></trkpt><trkpt lat="45.6988349" lon="11.7327399"><ele>79.0</ele><time>2026-04-09T15:44:35.642Z</time></trkpt><trkpt lat="45.6986831" lon="11.7327151"><ele>78.66666666666666</ele><time>2026-04-09T15:44:36.639Z</time></trkpt><trkpt lat="45.6985315" lon="11.7326905"><ele>78.33333333333333</ele><time>2026-04-09T15:44:37.65Z</time></trkpt><trkpt lat="45.6983797" lon="11.7326667"><ele>78.0</ele><time>2026-04-09T15:44:38.639Z</time></trkpt><trkpt lat="45.6982278" lon="11.7326451"><ele>78.0</ele><time>2026-04-09T15:44:39.637Z</time></trkpt><trkpt lat="45.6980808" lon="11.7326274"><ele>78.0</ele><time>2026-04-09T15:44:40.643Z</time></trkpt><trkpt lat="45.6979384" lon="11.7326141"><ele>78.0</ele><time>2026-04-09T15:44:41.641Z</time></trkpt><trkpt lat="45.6977953" lon="11.7326041"><ele>78.0</ele><time>2026-04-09T15:44:42.636Z</time></trkpt><trkpt lat="45.6976492" lon="11.7325948"><ele>78.0</ele><time>2026-04-09T15:44:43.639Z</time></trkpt><trkpt lat="45.6975011" lon="11.7325881"><ele>78.0</ele><time>2026-04-09T15:44:44.635Z</time></trkpt><trkpt lat="45.6973597" lon="11.7325852"><ele>78.0</ele><time>2026-04-09T15:44:45.643Z</time></trkpt><trkpt lat="45.6972262" lon="11.7325834"><ele>78.0</ele><time>2026-04-09T15:44:46.642Z</time></trkpt><trkpt lat="45.6970953" lon="11.7325818"><ele>78.0</ele><time>2026-04-09T15:44:47.636Z</time></trkpt><trkpt lat="45.6969691" lon="11.7325816"><ele>78.0</ele><time>2026-04-09T15:44:48.694Z</time></trkpt><trkpt lat="45.6968473" lon="11.7325809"><ele>78.0</ele><time>2026-04-09T15:44:49.635Z</time></trkpt><trkpt lat="45.6967268" lon="11.7325809"><ele>78.0</ele><time>2026-04-09T15:44:50.643Z</time></trkpt><trkpt lat="45.6966052" lon="11.7325867"><ele>77.5</ele><time>2026-04-09T15:44:51.65Z</time></trkpt><trkpt lat="45.6964843" lon="11.7325854"><ele>77.0</ele><time>2026-04-09T15:44:52.64Z</time></trkpt><trkpt lat="45.696364" lon="11.7325851"><ele>76.5</ele><time>2026-04-09T15:44:53.636Z</time></trkpt><trkpt lat="45.6962418" lon="11.7325845"><ele>76.0</ele><time>2026-04-09T15:44:54.641Z</time></trkpt><trkpt lat="45.696119" lon="11.7325843"><ele>75.75</ele><time>2026-04-09T15:44:55.645Z</time></trkpt><trkpt lat="45.6959959" lon="11.7325851"><ele>75.5</ele><time>2026-04-09T15:44:56.645Z</time></trkpt><trkpt lat="45.6958724" lon="11.7325849"><ele>75.25</ele><time>2026-04-09T15:44:57.65Z</time></trkpt><trkpt lat="45.6957489" lon="11.7325831"><ele>75.0</ele><time>2026-04-09T15:44:58.634Z</time></trkpt><trkpt lat="45.6956336" lon="11.7325754"><ele>75.0</ele><time>2026-04-09T15:44:59.642Z</time></trkpt><trkpt lat="45.6955292" lon="11.7325577"><ele>75.0</ele><time>2026-04-09T15:45:00.655Z</time></trkpt><trkpt lat="45.6954364" lon="11.7325254"><ele>75.0</ele><time>2026-04-09T15:45:01.642Z</time></trkpt><trkpt lat="45.6953468" lon="11.732473"><ele>75.0</ele><time>2026-04-09T15:45:02.636Z</time></trkpt><trkpt lat="45.6952632" lon="11.7323953"><ele>75.0</ele><time>2026-04-09T15:45:03.641Z</time></trkpt><trkpt lat="45.6951822" lon="11.7323205"><ele>75.2</ele><time>2026-04-09T15:45:04.64Z</time></trkpt><trkpt lat="45.6950944" lon="11.7322895"><ele>75.4</ele><time>2026-04-09T15:45:05.643Z</time></trkpt><trkpt lat="45.6950008" lon="11.732306"><ele>75.6</ele><time>2026-04-09T15:45:06.652Z</time></trkpt><trkpt lat="45.6949135" lon="11.7323751"><ele>75.8</ele><time>2026-04-09T15:45:07.649Z</time></trkpt><trkpt lat="45.6948213" lon="11.7324526"><ele>76.0</ele><time>2026-04-09T15:45:08.636Z</time></trkpt><trkpt lat="45.6947156" lon="11.732518"><ele>76.0</ele><time>2026-04-09T15:45:09.644Z</time></trkpt><trkpt lat="45.6945968" lon="11.7325641"><ele>76.0</ele><time>2026-04-09T15:45:10.651Z</time></trkpt><trkpt lat="45.6944666" lon="11.7325875"><ele>76.0</ele><time>2026-04-09T15:45:11.641Z</time></trkpt><trkpt lat="45.6943373" lon="11.732599"><ele>76.0</ele><time>2026-04-09T15:45:12.642Z</time></trkpt><trkpt lat="45.6941937" lon="11.7325918"><ele>75.75</ele><time>2026-04-09T15:45:13.649Z</time></trkpt><trkpt lat="45.6940512" lon="11.7325939"><ele>75.5</ele><time>2026-04-09T15:45:14.64Z</time></trkpt><trkpt lat="45.6939035" lon="11.7325906"><ele>75.25</ele><time>2026-04-09T15:45:15.634Z</time></trkpt><trkpt lat="45.6937559" lon="11.7325898"><ele>75.0</ele><time>2026-04-09T15:45:16.653Z</time></trkpt><trkpt lat="45.6936135" lon="11.7325806"><ele>75.0</ele><time>2026-04-09T15:45:17.642Z</time></trkpt><trkpt lat="45.6934676" lon="11.7325914"><ele>75.0</ele><time>2026-04-09T15:45:18.647Z</time></trkpt><trkpt lat="45.6933496" lon="11.7326052"><ele>75.0</ele><time>2026-04-09T15:45:19.647Z</time></trkpt><trkpt lat="45.6932358" lon="11.7326144"><ele>75.0</ele><time>2026-04-09T15:45:20.636Z</time></trkpt><trkpt lat="45.6931323" lon="11.7326313"><ele>75.0</ele><time>2026-04-09T15:45:21.649Z</time></trkpt><trkpt lat="45.6930297" lon="11.7326439"><ele>75.0</ele><time>2026-04-09T15:45:22.643Z</time></trkpt><trkpt lat="45.6929217" lon="11.7326587"><ele>75.0</ele><time>2026-04-09T15:45:23.643Z</time></trkpt><trkpt lat="45.6928211" lon="11.7326731"><ele>75.0</ele><time>2026-04-09T15:45:24.652Z</time></trkpt><trkpt lat="45.6927207" lon="11.7326905"><ele>75.0</ele><time>2026-04-09T15:45:25.641Z</time></trkpt><trkpt lat="45.6926289" lon="11.7327055"><ele>75.0</ele><time>2026-04-09T15:45:26.637Z</time></trkpt><trkpt lat="45.6925602" lon="11.732713"><ele>75.0</ele><time>2026-04-09T15:45:27.644Z</time></trkpt><trkpt lat="45.6924762" lon="11.7327215"><ele>75.0</ele><time>2026-04-09T15:45:29.639Z</time></trkpt><trkpt lat="45.6923974" lon="11.7327313"><ele>75.0</ele><time>2026-04-09T15:45:31.671Z</time></trkpt><trkpt lat="45.6923125" lon="11.7327493"><ele>75.0</ele><time>2026-04-09T15:45:33.641Z</time></trkpt><trkpt lat="45.6922044" lon="11.7327674"><ele>75.0</ele><time>2026-04-09T15:45:35.646Z</time></trkpt><trkpt lat="45.6921377" lon="11.7327788"><ele>75.16666666666667</ele><time>2026-04-09T15:45:36.65Z</time></trkpt><trkpt lat="45.6920716" lon="11.7327906"><ele>75.33333333333333</ele><time>2026-04-09T15:45:37.641Z</time></trkpt><trkpt lat="45.6920003" lon="11.732801"><ele>75.5</ele><time>2026-04-09T15:45:38.638Z</time></trkpt><trkpt lat="45.6919279" lon="11.7328189"><ele>75.66666666666666</ele><time>2026-04-09T15:45:39.655Z</time></trkpt><trkpt lat="45.6918543" lon="11.7328602"><ele>75.83333333333333</ele><time>2026-04-09T15:45:40.651Z</time></trkpt><trkpt lat="45.691775" lon="11.7329146"><ele>76.0</ele><time>2026-04-09T15:45:41.648Z</time></trkpt><trkpt lat="45.6916791" lon="11.732964"><ele>75.25</ele><time>2026-04-09T15:45:42.66Z</time></trkpt><trkpt lat="45.6915667" lon="11.7329969"><ele>74.5</ele><time>2026-04-09T15:45:43.641Z</time></trkpt><trkpt lat="45.691441" lon="11.733019"><ele>73.75</ele><time>2026-04-09T15:45:44.65Z</time></trkpt><trkpt lat="45.691303" lon="11.7330374"><ele>73.0</ele><time>2026-04-09T15:45:45.643Z</time></trkpt><trkpt lat="45.6911544" lon="11.7330514"><ele>73.0</ele><time>2026-04-09T15:45:46.643Z</time></trkpt><trkpt lat="45.6910087" lon="11.7330653"><ele>73.0</ele><time>2026-04-09T15:45:47.65Z</time></trkpt><trkpt lat="45.6908648" lon="11.7330804"><ele>73.0</ele><time>2026-04-09T15:45:48.64Z</time></trkpt><trkpt lat="45.6907188" lon="11.7330951"><ele>73.0</ele><time>2026-04-09T15:45:49.656Z</time></trkpt><trkpt lat="45.6905693" lon="11.7331091"><ele>73.0</ele><time>2026-04-09T15:45:50.639Z</time></trkpt><trkpt lat="45.6904183" lon="11.7331239"><ele>73.0</ele><time>2026-04-09T15:45:51.649Z</time></trkpt><trkpt lat="45.6902681" lon="11.73314"><ele>73.0</ele><time>2026-04-09T15:45:52.642Z</time></trkpt><trkpt lat="45.6901214" lon="11.733155"><ele>73.0</ele><time>2026-04-09T15:45:53.646Z</time></trkpt><trkpt lat="45.6899854" lon="11.7331697"><ele>73.0</ele><time>2026-04-09T15:45:54.639Z</time></trkpt><trkpt lat="45.6898634" lon="11.733174"><ele>73.0</ele><time>2026-04-09T15:45:55.646Z</time></trkpt><trkpt lat="45.689752" lon="11.7331577"><ele>73.0</ele><time>2026-04-09T15:45:56.647Z</time></trkpt><trkpt lat="45.6896412" lon="11.7331076"><ele>73.0</ele><time>2026-04-09T15:45:57.642Z</time></trkpt><trkpt lat="45.6895396" lon="11.7330219"><ele>73.0</ele><time>2026-04-09T15:45:58.643Z</time></trkpt><trkpt lat="45.6894614" lon="11.7329172"><ele>73.0</ele><time>2026-04-09T15:45:59.65Z</time></trkpt><trkpt lat="45.6893972" lon="11.7328026"><ele>73.0</ele><time>2026-04-09T15:46:00.642Z</time></trkpt><trkpt lat="45.6893417" lon="11.7326749"><ele>73.0</ele><time>2026-04-09T15:46:01.639Z</time></trkpt><trkpt lat="45.6892891" lon="11.73254"><ele>73.0</ele><time>2026-04-09T15:46:02.64Z</time></trkpt><trkpt lat="45.6892529" lon="11.7323784"><ele>72.75</ele><time>2026-04-09T15:46:03.64Z</time></trkpt><trkpt lat="45.6892242" lon="11.7322046"><ele>72.5</ele><time>2026-04-09T15:46:04.648Z</time></trkpt><trkpt lat="45.6891952" lon="11.732035"><ele>72.25</ele><time>2026-04-09T15:46:05.646Z</time></trkpt><trkpt lat="45.6891635" lon="11.7318528"><ele>72.0</ele><time>2026-04-09T15:46:06.646Z</time></trkpt><trkpt lat="45.6891291" lon="11.7316636"><ele>72.0</ele><time>2026-04-09T15:46:07.642Z</time></trkpt><trkpt lat="45.6890912" lon="11.7314689"><ele>72.0</ele><time>2026-04-09T15:46:08.641Z</time></trkpt><trkpt lat="45.6890585" lon="11.7312837"><ele>72.0</ele><time>2026-04-09T15:46:09.659Z</time></trkpt><trkpt lat="45.6890218" lon="11.7311106"><ele>72.0</ele><time>2026-04-09T15:46:10.66Z</time></trkpt><trkpt lat="45.6889741" lon="11.7309579"><ele>72.0</ele><time>2026-04-09T15:46:11.645Z</time></trkpt><trkpt lat="45.6889059" lon="11.7308162"><ele>72.0</ele><time>2026-04-09T15:46:12.645Z</time></trkpt><trkpt lat="45.688823" lon="11.7306957"><ele>72.0</ele><time>2026-04-09T15:46:13.638Z</time></trkpt><trkpt lat="45.6887273" lon="11.7305905"><ele>72.0</ele><time>2026-04-09T15:46:14.643Z</time></trkpt><trkpt lat="45.6886203" lon="11.7305141"><ele>71.75</ele><time>2026-04-09T15:46:15.641Z</time></trkpt><trkpt lat="45.6885038" lon="11.7304652"><ele>71.5</ele><time>2026-04-09T15:46:16.645Z</time></trkpt><trkpt lat="45.6883815" lon="11.7304365"><ele>71.25</ele><time>2026-04-09T15:46:17.647Z</time></trkpt><trkpt lat="45.6882559" lon="11.7304222"><ele>71.0</ele><time>2026-04-09T15:46:18.65Z</time></trkpt><trkpt lat="45.6881273" lon="11.730415"><ele>71.0</ele><time>2026-04-09T15:46:19.653Z</time></trkpt><trkpt lat="45.6880024" lon="11.7304104"><ele>71.0</ele><time>2026-04-09T15:46:20.644Z</time></trkpt><trkpt lat="45.6878806" lon="11.7304122"><ele>71.0</ele><time>2026-04-09T15:46:21.636Z</time></trkpt><trkpt lat="45.6877542" lon="11.7304098"><ele>71.0</ele><time>2026-04-09T15:46:22.65Z</time></trkpt><trkpt lat="45.6876273" lon="11.7304131"><ele>70.75</ele><time>2026-04-09T15:46:23.651Z</time></trkpt><trkpt lat="45.6874992" lon="11.730416"><ele>70.5</ele><time>2026-04-09T15:46:24.642Z</time></trkpt><trkpt lat="45.6873661" lon="11.7304203"><ele>70.25</ele><time>2026-04-09T15:46:25.641Z</time></trkpt><trkpt lat="45.6872256" lon="11.7304216"><ele>70.0</ele><time>2026-04-09T15:46:26.642Z</time></trkpt><trkpt lat="45.687084" lon="11.730425"><ele>70.0</ele><time>2026-04-09T15:46:27.64Z</time></trkpt><trkpt lat="45.6869436" lon="11.7304268"><ele>70.0</ele><time>2026-04-09T15:46:28.647Z</time></trkpt><trkpt lat="45.6868128" lon="11.7304291"><ele>70.0</ele><time>2026-04-09T15:46:29.646Z</time></trkpt><trkpt lat="45.6866887" lon="11.7304331"><ele>70.0</ele><time>2026-04-09T15:46:30.64Z</time></trkpt><trkpt lat="45.6865657" lon="11.7304369"><ele>70.2</ele><time>2026-04-09T15:46:31.649Z</time></trkpt><trkpt lat="45.6864488" lon="11.7304399"><ele>70.4</ele><time>2026-04-09T15:46:32.646Z</time></trkpt><trkpt lat="45.6863397" lon="11.7304418"><ele>70.6</ele><time>2026-04-09T15:46:33.654Z</time></trkpt><trkpt lat="45.6862359" lon="11.7304415"><ele>70.8</ele><time>2026-04-09T15:46:34.643Z</time></trkpt><trkpt lat="45.6861438" lon="11.7304423"><ele>71.0</ele><time>2026-04-09T15:46:35.633Z</time></trkpt><trkpt lat="45.6860594" lon="11.7304425"><ele>71.0</ele><time>2026-04-09T15:46:36.648Z</time></trkpt><trkpt lat="45.6859888" lon="11.7304432"><ele>71.0</ele><time>2026-04-09T15:46:37.649Z</time></trkpt><trkpt lat="45.6859248" lon="11.7304444"><ele>71.0</ele><time>2026-04-09T15:46:38.652Z</time></trkpt><trkpt lat="45.6858131" lon="11.7304394"><ele>71.0</ele><time>2026-04-09T15:46:40.658Z</time></trkpt><trkpt lat="45.6857429" lon="11.7303552"><ele>71.0</ele><time>2026-04-09T15:46:42.647Z</time></trkpt><trkpt lat="45.6857072" lon="11.7301852"><ele>70.83333333333334</ele><time>2026-04-09T15:46:44.643Z</time></trkpt><trkpt lat="45.6857002" lon="11.730087"><ele>70.66666666666667</ele><time>2026-04-09T15:46:45.644Z</time></trkpt><trkpt lat="45.6856863" lon="11.7299737"><ele>70.5</ele><time>2026-04-09T15:46:46.645Z</time></trkpt><trkpt lat="45.6856729" lon="11.7298567"><ele>70.33333333333333</ele><time>2026-04-09T15:46:47.64Z</time></trkpt><trkpt lat="45.6856591" lon="11.7297239"><ele>70.16666666666666</ele><time>2026-04-09T15:46:48.644Z</time></trkpt><trkpt lat="45.6856387" lon="11.7295824"><ele>70.0</ele><time>2026-04-09T15:46:49.643Z</time></trkpt><trkpt lat="45.685617" lon="11.7294451"><ele>70.0</ele><time>2026-04-09T15:46:50.648Z</time></trkpt><trkpt lat="45.685601" lon="11.7293225"><ele>70.0</ele><time>2026-04-09T15:46:51.657Z</time></trkpt><trkpt lat="45.6855887" lon="11.7292164"><ele>70.0</ele><time>2026-04-09T15:46:52.644Z</time></trkpt><trkpt lat="45.6855744" lon="11.7291239"><ele>70.0</ele><time>2026-04-09T15:46:53.642Z</time></trkpt><trkpt lat="45.6854954" lon="11.7290095"><ele>70.0</ele><time>2026-04-09T15:46:55.644Z</time></trkpt><trkpt lat="45.6854273" lon="11.728995"><ele>70.0</ele><time>2026-04-09T15:46:56.649Z</time></trkpt><trkpt lat="45.6853437" lon="11.7289835"><ele>70.2</ele><time>2026-04-09T15:46:57.648Z</time></trkpt><trkpt lat="45.6852473" lon="11.7289715"><ele>70.4</ele><time>2026-04-09T15:46:58.638Z</time></trkpt><trkpt lat="45.6851424" lon="11.7289595"><ele>70.6</ele><time>2026-04-09T15:46:59.662Z</time></trkpt><trkpt lat="45.6850287" lon="11.7289446"><ele>70.8</ele><time>2026-04-09T15:47:00.648Z</time></trkpt><trkpt lat="45.6849091" lon="11.728927"><ele>71.0</ele><time>2026-04-09T15:47:01.639Z</time></trkpt><trkpt lat="45.6847852" lon="11.7289089"><ele>71.0</ele><time>2026-04-09T15:47:02.639Z</time></trkpt><trkpt lat="45.6846587" lon="11.7288916"><ele>71.0</ele><time>2026-04-09T15:47:03.641Z</time></trkpt><trkpt lat="45.6845316" lon="11.7288736"><ele>71.0</ele><time>2026-04-09T15:47:04.641Z</time></trkpt><trkpt lat="45.684403" lon="11.7288547"><ele>71.0</ele><time>2026-04-09T15:47:05.641Z</time></trkpt><trkpt lat="45.6842744" lon="11.7288361"><ele>70.75</ele><time>2026-04-09T15:47:06.646Z</time></trkpt><trkpt lat="45.6841457" lon="11.7288183"><ele>70.5</ele><time>2026-04-09T15:47:07.635Z</time></trkpt><trkpt lat="45.6840183" lon="11.7288015"><ele>70.25</ele><time>2026-04-09T15:47:08.649Z</time></trkpt><trkpt lat="45.6838981" lon="11.7287843"><ele>70.0</ele><time>2026-04-09T15:47:09.642Z</time></trkpt><trkpt lat="45.6837839" lon="11.7287682"><ele>70.0</ele><time>2026-04-09T15:47:10.645Z</time></trkpt><trkpt lat="45.6836739" lon="11.7287526"><ele>70.0</ele><time>2026-04-09T15:47:11.662Z</time></trkpt><trkpt lat="45.6835684" lon="11.7287379"><ele>70.0</ele><time>2026-04-09T15:47:12.636Z</time></trkpt><trkpt lat="45.6834723" lon="11.7287241"><ele>70.0</ele><time>2026-04-09T15:47:13.652Z</time></trkpt><trkpt lat="45.683388" lon="11.7287119"><ele>70.0</ele><time>2026-04-09T15:47:14.668Z</time></trkpt><trkpt lat="45.683317" lon="11.7287008"><ele>70.0</ele><time>2026-04-09T15:47:15.639Z</time></trkpt><trkpt lat="45.683226" lon="11.7286851"><ele>70.0</ele><time>2026-04-09T15:47:17.647Z</time></trkpt><trkpt lat="45.6831491" lon="11.7286715"><ele>70.0</ele><time>2026-04-09T15:47:22.644Z</time></trkpt><trkpt lat="45.6830679" lon="11.7285827"><ele>70.0</ele><time>2026-04-09T15:47:25.657Z</time></trkpt><trkpt lat="45.6830503" lon="11.728484"><ele>70.0</ele><time>2026-04-09T15:47:26.646Z</time></trkpt><trkpt lat="45.6830349" lon="11.7283523"><ele>70.0</ele><time>2026-04-09T15:47:27.638Z</time></trkpt><trkpt lat="45.6830126" lon="11.7281953"><ele>70.0</ele><time>2026-04-09T15:47:28.636Z</time></trkpt><trkpt lat="45.6829894" lon="11.728016"><ele>70.0</ele><time>2026-04-09T15:47:29.637Z</time></trkpt><trkpt lat="45.6829635" lon="11.7278218"><ele>70.0</ele><time>2026-04-09T15:47:30.65Z</time></trkpt><trkpt lat="45.6829379" lon="11.72761"><ele>70.0</ele><time>2026-04-09T15:47:31.642Z</time></trkpt><trkpt lat="45.6829086" lon="11.7273871"><ele>70.0</ele><time>2026-04-09T15:47:32.642Z</time></trkpt><trkpt lat="45.6828795" lon="11.7271636"><ele>70.0</ele><time>2026-04-09T15:47:33.647Z</time></trkpt><trkpt lat="45.6828513" lon="11.7269348"><ele>70.0</ele><time>2026-04-09T15:47:34.638Z</time></trkpt><trkpt lat="45.682821" lon="11.7266984"><ele>70.0</ele><time>2026-04-09T15:47:35.637Z</time></trkpt><trkpt lat="45.6827919" lon="11.7264519"><ele>70.0</ele><time>2026-04-09T15:47:36.645Z</time></trkpt><trkpt lat="45.682769" lon="11.7261956"><ele>70.0</ele><time>2026-04-09T15:47:37.649Z</time></trkpt><trkpt lat="45.6827539" lon="11.7259351"><ele>70.0</ele><time>2026-04-09T15:47:38.65Z</time></trkpt><trkpt lat="45.6827506" lon="11.7256702"><ele>70.0</ele><time>2026-04-09T15:47:39.64Z</time></trkpt><trkpt lat="45.6827566" lon="11.7254024"><ele>70.0</ele><time>2026-04-09T15:47:40.635Z</time></trkpt><trkpt lat="45.6827721" lon="11.7251314"><ele>70.0</ele><time>2026-04-09T15:47:41.651Z</time></trkpt><trkpt lat="45.6827965" lon="11.724852"><ele>70.0</ele><time>2026-04-09T15:47:42.639Z</time></trkpt><trkpt lat="45.6828276" lon="11.7245626"><ele>70.0</ele><time>2026-04-09T15:47:43.636Z</time></trkpt><trkpt lat="45.6828634" lon="11.7242707"><ele>69.66666666666666</ele><time>2026-04-09T15:47:44.641Z</time></trkpt><trkpt lat="45.6829002" lon="11.7239774"><ele>69.33333333333333</ele><time>2026-04-09T15:47:45.642Z</time></trkpt><trkpt lat="45.6829397" lon="11.7236738"><ele>69.0</ele><time>2026-04-09T15:47:46.634Z</time></trkpt><trkpt lat="45.6829847" lon="11.7233472"><ele>68.5</ele><time>2026-04-09T15:47:47.64Z</time></trkpt><trkpt lat="45.6830311" lon="11.7230109"><ele>68.0</ele><time>2026-04-09T15:47:48.645Z</time></trkpt><trkpt lat="45.6830788" lon="11.7226746"><ele>69.0</ele><time>2026-04-09T15:47:49.648Z</time></trkpt><trkpt lat="45.6831248" lon="11.7223401"><ele>70.0</ele><time>2026-04-09T15:47:50.642Z</time></trkpt><trkpt lat="45.6831719" lon="11.7220078"><ele>69.0</ele><time>2026-04-09T15:47:51.643Z</time></trkpt><trkpt lat="45.6832188" lon="11.7216777"><ele>68.0</ele><time>2026-04-09T15:47:52.645Z</time></trkpt><trkpt lat="45.6832636" lon="11.7213536"><ele>67.5</ele><time>2026-04-09T15:47:53.644Z</time></trkpt><trkpt lat="45.6833071" lon="11.7210325"><ele>67.0</ele><time>2026-04-09T15:47:54.644Z</time></trkpt><trkpt lat="45.6833531" lon="11.7207014"><ele>67.0</ele><time>2026-04-09T15:47:55.64Z</time></trkpt><trkpt lat="45.6833997" lon="11.720375"><ele>67.0</ele><time>2026-04-09T15:47:56.638Z</time></trkpt><trkpt lat="45.683444" lon="11.7200575"><ele>67.0</ele><time>2026-04-09T15:47:57.669Z</time></trkpt><trkpt lat="45.6834871" lon="11.7197492"><ele>67.0</ele><time>2026-04-09T15:47:58.645Z</time></trkpt><trkpt lat="45.6835292" lon="11.7194489"><ele>67.0</ele><time>2026-04-09T15:47:59.642Z</time></trkpt><trkpt lat="45.6835707" lon="11.7191518"><ele>67.33333333333333</ele><time>2026-04-09T15:48:00.645Z</time></trkpt><trkpt lat="45.6836117" lon="11.7188593"><ele>67.66666666666667</ele><time>2026-04-09T15:48:01.649Z</time></trkpt><trkpt lat="45.6836516" lon="11.718573"><ele>68.0</ele><time>2026-04-09T15:48:02.64Z</time></trkpt><trkpt lat="45.6836901" lon="11.7182888"><ele>68.0</ele><time>2026-04-09T15:48:03.64Z</time></trkpt><trkpt lat="45.6837286" lon="11.7180082"><ele>68.0</ele><time>2026-04-09T15:48:04.651Z</time></trkpt><trkpt lat="45.6837653" lon="11.7177286"><ele>68.0</ele><time>2026-04-09T15:48:05.641Z</time></trkpt><trkpt lat="45.6837967" lon="11.7174537"><ele>68.0</ele><time>2026-04-09T15:48:06.644Z</time></trkpt><trkpt lat="45.6838169" lon="11.7171895"><ele>68.0</ele><time>2026-04-09T15:48:07.638Z</time></trkpt><trkpt lat="45.6838234" lon="11.7169263"><ele>68.0</ele><time>2026-04-09T15:48:08.653Z</time></trkpt><trkpt lat="45.6838185" lon="11.7166573"><ele>68.0</ele><time>2026-04-09T15:48:09.646Z</time></trkpt><trkpt lat="45.6838014" lon="11.7163901"><ele>68.0</ele><time>2026-04-09T15:48:10.656Z</time></trkpt><trkpt lat="45.6837723" lon="11.7161256"><ele>68.0</ele><time>2026-04-09T15:48:11.646Z</time></trkpt><trkpt lat="45.6837324" lon="11.7158603"><ele>68.33333333333334</ele><time>2026-04-09T15:48:12.643Z</time></trkpt><trkpt lat="45.683688" lon="11.715595"><ele>68.66666666666667</ele><time>2026-04-09T15:48:13.65Z</time></trkpt><trkpt lat="45.6836436" lon="11.715335"><ele>69.0</ele><time>2026-04-09T15:48:14.65Z</time></trkpt><trkpt lat="45.6836021" lon="11.7151005"><ele>69.0</ele><time>2026-04-09T15:48:15.653Z</time></trkpt><trkpt lat="45.6835633" lon="11.7148807"><ele>69.0</ele><time>2026-04-09T15:48:16.644Z</time></trkpt><trkpt lat="45.6835244" lon="11.7146659"><ele>69.0</ele><time>2026-04-09T15:48:17.645Z</time></trkpt><trkpt lat="45.6834841" lon="11.7144549"><ele>69.25</ele><time>2026-04-09T15:48:18.644Z</time></trkpt><trkpt lat="45.6834466" lon="11.7142555"><ele>69.5</ele><time>2026-04-09T15:48:19.645Z</time></trkpt><trkpt lat="45.6834123" lon="11.7140617"><ele>69.75</ele><time>2026-04-09T15:48:20.67Z</time></trkpt><trkpt lat="45.6833788" lon="11.7138696"><ele>70.0</ele><time>2026-04-09T15:48:21.661Z</time></trkpt><trkpt lat="45.6833455" lon="11.7136782"><ele>69.75</ele><time>2026-04-09T15:48:22.643Z</time></trkpt><trkpt lat="45.6833124" lon="11.7134883"><ele>69.5</ele><time>2026-04-09T15:48:23.638Z</time></trkpt><trkpt lat="45.6832787" lon="11.7132994"><ele>69.25</ele><time>2026-04-09T15:48:24.646Z</time></trkpt><trkpt lat="45.6832444" lon="11.7131107"><ele>69.0</ele><time>2026-04-09T15:48:25.639Z</time></trkpt><trkpt lat="45.6832091" lon="11.7129178"><ele>69.0</ele><time>2026-04-09T15:48:26.645Z</time></trkpt><trkpt lat="45.683173" lon="11.7127179"><ele>69.0</ele><time>2026-04-09T15:48:27.647Z</time></trkpt><trkpt lat="45.6831357" lon="11.7125137"><ele>69.0</ele><time>2026-04-09T15:48:28.641Z</time></trkpt><trkpt lat="45.6830972" lon="11.7123086"><ele>69.0</ele><time>2026-04-09T15:48:29.639Z</time></trkpt><trkpt lat="45.6830559" lon="11.7121048"><ele>69.0</ele><time>2026-04-09T15:48:30.652Z</time></trkpt><trkpt lat="45.683012" lon="11.7119085"><ele>69.0</ele><time>2026-04-09T15:48:31.643Z</time></trkpt><trkpt lat="45.6829664" lon="11.7117252"><ele>69.0</ele><time>2026-04-09T15:48:32.648Z</time></trkpt><trkpt lat="45.6829199" lon="11.7115474"><ele>69.0</ele><time>2026-04-09T15:48:33.644Z</time></trkpt><trkpt lat="45.6828729" lon="11.7113731"><ele>69.0</ele><time>2026-04-09T15:48:34.676Z</time></trkpt><trkpt lat="45.6828253" lon="11.7111991"><ele>69.0</ele><time>2026-04-09T15:48:35.638Z</time></trkpt><trkpt lat="45.6827781" lon="11.7110227"><ele>69.0</ele><time>2026-04-09T15:48:36.648Z</time></trkpt><trkpt lat="45.6827308" lon="11.7108441"><ele>69.0</ele><time>2026-04-09T15:48:37.642Z</time></trkpt><trkpt lat="45.6826829" lon="11.7106632"><ele>69.0</ele><time>2026-04-09T15:48:38.647Z</time></trkpt><trkpt lat="45.6826331" lon="11.7104803"><ele>69.0</ele><time>2026-04-09T15:48:39.64Z</time></trkpt><trkpt lat="45.6825819" lon="11.7102909"><ele>69.0</ele><time>2026-04-09T15:48:40.635Z</time></trkpt><trkpt lat="45.68253" lon="11.7100937"><ele>69.0</ele><time>2026-04-09T15:48:41.638Z</time></trkpt><trkpt lat="45.6824771" lon="11.7098857"><ele>68.75</ele><time>2026-04-09T15:48:42.635Z</time></trkpt><trkpt lat="45.6824227" lon="11.7096752"><ele>68.5</ele><time>2026-04-09T15:48:43.647Z</time></trkpt><trkpt lat="45.6823707" lon="11.709477"><ele>68.25</ele><time>2026-04-09T15:48:44.639Z</time></trkpt><trkpt lat="45.6823219" lon="11.7092923"><ele>68.0</ele><time>2026-04-09T15:48:45.646Z</time></trkpt><trkpt lat="45.6822701" lon="11.7091089"><ele>68.0</ele><time>2026-04-09T15:48:46.635Z</time></trkpt><trkpt lat="45.6822159" lon="11.7089162"><ele>68.0</ele><time>2026-04-09T15:48:47.651Z</time></trkpt><trkpt lat="45.68216" lon="11.7087343"><ele>68.0</ele><time>2026-04-09T15:48:48.644Z</time></trkpt><trkpt lat="45.6821121" lon="11.7085152"><ele>68.0</ele><time>2026-04-09T15:48:49.64Z</time></trkpt><trkpt lat="45.6820705" lon="11.708294"><ele>68.0</ele><time>2026-04-09T15:48:50.637Z</time></trkpt><trkpt lat="45.6820319" lon="11.7080678"><ele>68.0</ele><time>2026-04-09T15:48:51.643Z</time></trkpt><trkpt lat="45.6820067" lon="11.7078468"><ele>68.0</ele><time>2026-04-09T15:48:52.647Z</time></trkpt><trkpt lat="45.6819991" lon="11.7076408"><ele>68.0</ele><time>2026-04-09T15:48:53.64Z</time></trkpt><trkpt lat="45.6820085" lon="11.7074425"><ele>68.0</ele><time>2026-04-09T15:48:54.64Z</time></trkpt><trkpt lat="45.6820293" lon="11.7072545"><ele>68.0</ele><time>2026-04-09T15:48:55.639Z</time></trkpt><trkpt lat="45.6820549" lon="11.7070889"><ele>68.0</ele><time>2026-04-09T15:48:56.656Z</time></trkpt><trkpt lat="45.6820853" lon="11.706946"><ele>68.2</ele><time>2026-04-09T15:48:57.657Z</time></trkpt><trkpt lat="45.6821167" lon="11.7068331"><ele>68.4</ele><time>2026-04-09T15:48:58.645Z</time></trkpt><trkpt lat="45.682111" lon="11.7066875"><ele>68.60000000000001</ele><time>2026-04-09T15:49:00.643Z</time></trkpt><trkpt lat="45.6819821" lon="11.7066356"><ele>68.8</ele><time>2026-04-09T15:49:02.636Z</time></trkpt><trkpt lat="45.681879" lon="11.7066166"><ele>69.0</ele><time>2026-04-09T15:49:03.642Z</time></trkpt><trkpt lat="45.6817477" lon="11.7065944"><ele>68.33333333333333</ele><time>2026-04-09T15:49:04.636Z</time></trkpt><trkpt lat="45.6815973" lon="11.7065657"><ele>67.66666666666666</ele><time>2026-04-09T15:49:05.647Z</time></trkpt><trkpt lat="45.6814318" lon="11.7065326"><ele>67.0</ele><time>2026-04-09T15:49:06.642Z</time></trkpt><trkpt lat="45.6812591" lon="11.7065073"><ele>66.33333333333333</ele><time>2026-04-09T15:49:07.649Z</time></trkpt><trkpt lat="45.6810776" lon="11.7065042"><ele>65.66666666666667</ele><time>2026-04-09T15:49:08.646Z</time></trkpt><trkpt lat="45.6808861" lon="11.7065332"><ele>65.0</ele><time>2026-04-09T15:49:09.652Z</time></trkpt><trkpt lat="45.6806881" lon="11.7065975"><ele>65.0</ele><time>2026-04-09T15:49:10.649Z</time></trkpt><trkpt lat="45.6804781" lon="11.7066955"><ele>65.0</ele><time>2026-04-09T15:49:11.647Z</time></trkpt><trkpt lat="45.6802608" lon="11.7068101"><ele>65.5</ele><time>2026-04-09T15:49:12.639Z</time></trkpt><trkpt lat="45.6800345" lon="11.7069273"><ele>66.0</ele><time>2026-04-09T15:49:13.651Z</time></trkpt><trkpt lat="45.6798061" lon="11.7070465"><ele>66.0</ele><time>2026-04-09T15:49:14.645Z</time></trkpt><trkpt lat="45.6795831" lon="11.7071673"><ele>66.0</ele><time>2026-04-09T15:49:15.638Z</time></trkpt><trkpt lat="45.6793617" lon="11.7072904"><ele>66.0</ele><time>2026-04-09T15:49:16.641Z</time></trkpt><trkpt lat="45.6791387" lon="11.7074148"><ele>66.0</ele><time>2026-04-09T15:49:17.639Z</time></trkpt><trkpt lat="45.6789157" lon="11.7075267"><ele>66.0</ele><time>2026-04-09T15:49:18.637Z</time></trkpt><trkpt lat="45.6786901" lon="11.7076457"><ele>66.0</ele><time>2026-04-09T15:49:19.643Z</time></trkpt><trkpt lat="45.6784683" lon="11.7077665"><ele>65.5</ele><time>2026-04-09T15:49:20.642Z</time></trkpt><trkpt lat="45.6782445" lon="11.7078903"><ele>65.0</ele><time>2026-04-09T15:49:21.639Z</time></trkpt><trkpt lat="45.6780215" lon="11.7080106"><ele>65.0</ele><time>2026-04-09T15:49:22.645Z</time></trkpt><trkpt lat="45.6777985" lon="11.7081269"><ele>65.0</ele><time>2026-04-09T15:49:23.644Z</time></trkpt><trkpt lat="45.6775753" lon="11.7082396"><ele>65.0</ele><time>2026-04-09T15:49:24.651Z</time></trkpt><trkpt lat="45.6773524" lon="11.7083493"><ele>65.0</ele><time>2026-04-09T15:49:25.644Z</time></trkpt><trkpt lat="45.6771289" lon="11.7084581"><ele>65.0</ele><time>2026-04-09T15:49:26.639Z</time></trkpt><trkpt lat="45.6769016" lon="11.7085644"><ele>65.0</ele><time>2026-04-09T15:49:27.645Z</time></trkpt><trkpt lat="45.6766744" lon="11.7086704"><ele>65.0</ele><time>2026-04-09T15:49:28.639Z</time></trkpt><trkpt lat="45.6764498" lon="11.7087733"><ele>65.0</ele><time>2026-04-09T15:49:29.643Z</time></trkpt><trkpt lat="45.6762332" lon="11.7088655"><ele>64.33333333333334</ele><time>2026-04-09T15:49:30.643Z</time></trkpt><trkpt lat="45.6760267" lon="11.7089511"><ele>63.66666666666667</ele><time>2026-04-09T15:49:31.644Z</time></trkpt><trkpt lat="45.6758276" lon="11.7090276"><ele>63.0</ele><time>2026-04-09T15:49:32.637Z</time></trkpt><trkpt lat="45.6756223" lon="11.7091013"><ele>63.0</ele><time>2026-04-09T15:49:33.646Z</time></trkpt><trkpt lat="45.675409" lon="11.709174"><ele>63.0</ele><time>2026-04-09T15:49:34.646Z</time></trkpt><trkpt lat="45.6751915" lon="11.7092504"><ele>63.0</ele><time>2026-04-09T15:49:35.642Z</time></trkpt><trkpt lat="45.6749699" lon="11.7093278"><ele>63.0</ele><time>2026-04-09T15:49:36.652Z</time></trkpt><trkpt lat="45.6747468" lon="11.7094056"><ele>63.0</ele><time>2026-04-09T15:49:37.634Z</time></trkpt><trkpt lat="45.6745237" lon="11.709482"><ele>64.0</ele><time>2026-04-09T15:49:38.638Z</time></trkpt><trkpt lat="45.6743013" lon="11.7095568"><ele>65.0</ele><time>2026-04-09T15:49:39.647Z</time></trkpt><trkpt lat="45.6740841" lon="11.709629"><ele>65.0</ele><time>2026-04-09T15:49:40.634Z</time></trkpt><trkpt lat="45.6738704" lon="11.7097001"><ele>65.0</ele><time>2026-04-09T15:49:41.645Z</time></trkpt><trkpt lat="45.6736606" lon="11.7097701"><ele>65.0</ele><time>2026-04-09T15:49:42.646Z</time></trkpt><trkpt lat="45.6734515" lon="11.7098358"><ele>64.66666666666667</ele><time>2026-04-09T15:49:43.654Z</time></trkpt><trkpt lat="45.6732506" lon="11.7099029"><ele>64.33333333333333</ele><time>2026-04-09T15:49:44.647Z</time></trkpt><trkpt lat="45.6730438" lon="11.7099523"><ele>64.0</ele><time>2026-04-09T15:49:45.653Z</time></trkpt><trkpt lat="45.6728406" lon="11.710006"><ele>63.0</ele><time>2026-04-09T15:49:46.644Z</time></trkpt><trkpt lat="45.6726476" lon="11.7100636"><ele>62.0</ele><time>2026-04-09T15:49:47.641Z</time></trkpt><trkpt lat="45.6724504" lon="11.7101233"><ele>61.0</ele><time>2026-04-09T15:49:48.65Z</time></trkpt><trkpt lat="45.672258" lon="11.7101816"><ele>61.0</ele><time>2026-04-09T15:49:49.646Z</time></trkpt><trkpt lat="45.6720653" lon="11.7102395"><ele>61.0</ele><time>2026-04-09T15:49:50.653Z</time></trkpt><trkpt lat="45.6718709" lon="11.7103096"><ele>61.0</ele><time>2026-04-09T15:49:51.649Z</time></trkpt><trkpt lat="45.6716821" lon="11.7103933"><ele>61.0</ele><time>2026-04-09T15:49:52.642Z</time></trkpt><trkpt lat="45.6714949" lon="11.710484"><ele>61.0</ele><time>2026-04-09T15:49:53.636Z</time></trkpt><trkpt lat="45.6713119" lon="11.710577"><ele>61.0</ele><time>2026-04-09T15:49:54.637Z</time></trkpt><trkpt lat="45.6711326" lon="11.7106719"><ele>60.666666666666664</ele><time>2026-04-09T15:49:55.645Z</time></trkpt><trkpt lat="45.6709542" lon="11.7107668"><ele>60.33333333333333</ele><time>2026-04-09T15:49:56.641Z</time></trkpt><trkpt lat="45.6707766" lon="11.7108597"><ele>60.0</ele><time>2026-04-09T15:49:57.65Z</time></trkpt><trkpt lat="45.6705893" lon="11.7109408"><ele>60.0</ele><time>2026-04-09T15:49:58.642Z</time></trkpt><trkpt lat="45.6703978" lon="11.7110244"><ele>60.0</ele><time>2026-04-09T15:49:59.644Z</time></trkpt><trkpt lat="45.670204" lon="11.7110828"><ele>60.0</ele><time>2026-04-09T15:50:00.643Z</time></trkpt><trkpt lat="45.6700126" lon="11.7111392"><ele>59.66666666666667</ele><time>2026-04-09T15:50:01.644Z</time></trkpt><trkpt lat="45.6698307" lon="11.711188"><ele>59.333333333333336</ele><time>2026-04-09T15:50:02.644Z</time></trkpt><trkpt lat="45.6696613" lon="11.711232"><ele>59.0</ele><time>2026-04-09T15:50:03.649Z</time></trkpt><trkpt lat="45.6694977" lon="11.7112757"><ele>59.0</ele><time>2026-04-09T15:50:04.637Z</time></trkpt><trkpt lat="45.6693381" lon="11.7113201"><ele>59.0</ele><time>2026-04-09T15:50:05.648Z</time></trkpt><trkpt lat="45.6691762" lon="11.7113653"><ele>59.0</ele><time>2026-04-09T15:50:06.647Z</time></trkpt><trkpt lat="45.6690066" lon="11.7114118"><ele>59.0</ele><time>2026-04-09T15:50:07.643Z</time></trkpt><trkpt lat="45.6688381" lon="11.7114577"><ele>59.0</ele><time>2026-04-09T15:50:08.645Z</time></trkpt><trkpt lat="45.6686753" lon="11.7115094"><ele>59.0</ele><time>2026-04-09T15:50:09.639Z</time></trkpt><trkpt lat="45.6685187" lon="11.7115663"><ele>59.333333333333336</ele><time>2026-04-09T15:50:10.651Z</time></trkpt><trkpt lat="45.6683656" lon="11.7116277"><ele>59.66666666666667</ele><time>2026-04-09T15:50:11.649Z</time></trkpt><trkpt lat="45.6682131" lon="11.7116938"><ele>60.0</ele><time>2026-04-09T15:50:12.649Z</time></trkpt><trkpt lat="45.6680455" lon="11.7117681"><ele>60.0</ele><time>2026-04-09T15:50:13.64Z</time></trkpt><trkpt lat="45.6678599" lon="11.7118529"><ele>60.0</ele><time>2026-04-09T15:50:14.644Z</time></trkpt><trkpt lat="45.6676531" lon="11.7119494"><ele>60.0</ele><time>2026-04-09T15:50:15.652Z</time></trkpt><trkpt lat="45.6674424" lon="11.7120497"><ele>60.0</ele><time>2026-04-09T15:50:16.646Z</time></trkpt><trkpt lat="45.6672227" lon="11.7121539"><ele>60.0</ele><time>2026-04-09T15:50:17.641Z</time></trkpt><trkpt lat="45.6670181" lon="11.7122497"><ele>60.0</ele><time>2026-04-09T15:50:18.646Z</time></trkpt><trkpt lat="45.6668433" lon="11.7123302"><ele>59.0</ele><time>2026-04-09T15:50:19.643Z</time></trkpt><trkpt lat="45.666684" lon="11.7124036"><ele>58.0</ele><time>2026-04-09T15:50:20.637Z</time></trkpt><trkpt lat="45.6665286" lon="11.7124728"><ele>57.0</ele><time>2026-04-09T15:50:21.644Z</time></trkpt><trkpt lat="45.6663812" lon="11.7125334"><ele>57.0</ele><time>2026-04-09T15:50:22.646Z</time></trkpt><trkpt lat="45.6662343" lon="11.7125876"><ele>57.0</ele><time>2026-04-09T15:50:23.649Z</time></trkpt><trkpt lat="45.6660878" lon="11.7126338"><ele>57.0</ele><time>2026-04-09T15:50:24.645Z</time></trkpt><trkpt lat="45.6659467" lon="11.7126762"><ele>57.0</ele><time>2026-04-09T15:50:25.642Z</time></trkpt><trkpt lat="45.6658056" lon="11.7127226"><ele>57.5</ele><time>2026-04-09T15:50:26.646Z</time></trkpt><trkpt lat="45.665664" lon="11.7127729"><ele>58.0</ele><time>2026-04-09T15:50:27.651Z</time></trkpt><trkpt lat="45.6655221" lon="11.7128296"><ele>58.5</ele><time>2026-04-09T15:50:28.658Z</time></trkpt><trkpt lat="45.6653784" lon="11.7128916"><ele>59.0</ele><time>2026-04-09T15:50:29.647Z</time></trkpt><trkpt lat="45.6652426" lon="11.7129523"><ele>59.0</ele><time>2026-04-09T15:50:30.639Z</time></trkpt><trkpt lat="45.6651158" lon="11.7130082"><ele>59.0</ele><time>2026-04-09T15:50:31.642Z</time></trkpt><trkpt lat="45.6649965" lon="11.713062"><ele>59.0</ele><time>2026-04-09T15:50:32.668Z</time></trkpt><trkpt lat="45.6648779" lon="11.7131194"><ele>59.0</ele><time>2026-04-09T15:50:33.647Z</time></trkpt><trkpt lat="45.6647632" lon="11.7131865"><ele>59.0</ele><time>2026-04-09T15:50:34.66Z</time></trkpt><trkpt lat="45.6646633" lon="11.7132701"><ele>59.0</ele><time>2026-04-09T15:50:35.663Z</time></trkpt><trkpt lat="45.6645742" lon="11.7133783"><ele>59.0</ele><time>2026-04-09T15:50:36.676Z</time></trkpt><trkpt lat="45.6644911" lon="11.713506"><ele>59.0</ele><time>2026-04-09T15:50:37.679Z</time></trkpt><trkpt lat="45.6644114" lon="11.7136398"><ele>58.75</ele><time>2026-04-09T15:50:38.712Z</time></trkpt><trkpt lat="45.6643471" lon="11.7138102"><ele>58.5</ele><time>2026-04-09T15:50:39.65Z</time></trkpt><trkpt lat="45.6642902" lon="11.7139754"><ele>58.25</ele><time>2026-04-09T15:50:40.683Z</time></trkpt><trkpt lat="45.66425" lon="11.7141395"><ele>58.0</ele><time>2026-04-09T15:50:41.649Z</time></trkpt><trkpt lat="45.664224" lon="11.7143103"><ele>58.0</ele><time>2026-04-09T15:50:42.661Z</time></trkpt><trkpt lat="45.6642144" lon="11.7144828"><ele>58.0</ele><time>2026-04-09T15:50:43.661Z</time></trkpt><trkpt lat="45.6642178" lon="11.7146586"><ele>58.0</ele><time>2026-04-09T15:50:44.641Z</time></trkpt><trkpt lat="45.6642335" lon="11.714828"><ele>58.0</ele><time>2026-04-09T15:50:45.664Z</time></trkpt><trkpt lat="45.66426" lon="11.7149856"><ele>58.0</ele><time>2026-04-09T15:50:46.666Z</time></trkpt><trkpt lat="45.6642942" lon="11.7151412"><ele>58.0</ele><time>2026-04-09T15:50:47.643Z</time></trkpt><trkpt lat="45.6643351" lon="11.7152962"><ele>58.0</ele><time>2026-04-09T15:50:48.65Z</time></trkpt><trkpt lat="45.6643762" lon="11.7154485"><ele>58.0</ele><time>2026-04-09T15:50:49.653Z</time></trkpt><trkpt lat="45.6644144" lon="11.7155987"><ele>58.25</ele><time>2026-04-09T15:50:50.667Z</time></trkpt><trkpt lat="45.6644554" lon="11.7157512"><ele>58.5</ele><time>2026-04-09T15:50:51.646Z</time></trkpt><trkpt lat="45.6644967" lon="11.7159085"><ele>58.75</ele><time>2026-04-09T15:50:52.661Z</time></trkpt><trkpt lat="45.6645391" lon="11.7160721"><ele>59.0</ele><time>2026-04-09T15:50:53.65Z</time></trkpt><trkpt lat="45.6645814" lon="11.7162334"><ele>59.5</ele><time>2026-04-09T15:50:54.653Z</time></trkpt><trkpt lat="45.6646242" lon="11.716397"><ele>60.0</ele><time>2026-04-09T15:50:55.647Z</time></trkpt><trkpt lat="45.6646665" lon="11.7165631"><ele>60.5</ele><time>2026-04-09T15:50:56.643Z</time></trkpt><trkpt lat="45.6647092" lon="11.7167323"><ele>61.0</ele><time>2026-04-09T15:50:57.645Z</time></trkpt><trkpt lat="45.6647545" lon="11.7169046"><ele>61.25</ele><time>2026-04-09T15:50:58.644Z</time></trkpt><trkpt lat="45.6648012" lon="11.7170856"><ele>61.5</ele><time>2026-04-09T15:50:59.645Z</time></trkpt><trkpt lat="45.6648515" lon="11.7172791"><ele>61.75</ele><time>2026-04-09T15:51:00.649Z</time></trkpt><trkpt lat="45.6649054" lon="11.7174849"><ele>62.0</ele><time>2026-04-09T15:51:01.643Z</time></trkpt><trkpt lat="45.6649635" lon="11.7177037"><ele>61.5</ele><time>2026-04-09T15:51:02.643Z</time></trkpt><trkpt lat="45.6650185" lon="11.7179134"><ele>61.0</ele><time>2026-04-09T15:51:03.639Z</time></trkpt><trkpt lat="45.6650694" lon="11.7181056"><ele>60.5</ele><time>2026-04-09T15:51:04.64Z</time></trkpt><trkpt lat="45.665115" lon="11.7182803"><ele>60.0</ele><time>2026-04-09T15:51:05.646Z</time></trkpt><trkpt lat="45.6651522" lon="11.7184418"><ele>59.6</ele><time>2026-04-09T15:51:06.656Z</time></trkpt><trkpt lat="45.6651742" lon="11.7185942"><ele>59.2</ele><time>2026-04-09T15:51:07.65Z</time></trkpt><trkpt lat="45.6651785" lon="11.718741"><ele>58.8</ele><time>2026-04-09T15:51:08.646Z</time></trkpt><trkpt lat="45.6651672" lon="11.7188798"><ele>58.4</ele><time>2026-04-09T15:51:09.64Z</time></trkpt><trkpt lat="45.665154" lon="11.7190019"><ele>58.0</ele><time>2026-04-09T15:51:10.639Z</time></trkpt><trkpt lat="45.6651584" lon="11.7191084"><ele>58.0</ele><time>2026-04-09T15:51:11.644Z</time></trkpt><trkpt lat="45.6651827" lon="11.7191938"><ele>58.0</ele><time>2026-04-09T15:51:12.643Z</time></trkpt><trkpt lat="45.6652993" lon="11.7192746"><ele>58.0</ele><time>2026-04-09T15:51:14.65Z</time></trkpt><trkpt lat="45.6653852" lon="11.7192618"><ele>58.0</ele><time>2026-04-09T15:51:15.684Z</time></trkpt><trkpt lat="45.6654819" lon="11.7192237"><ele>58.0</ele><time>2026-04-09T15:51:16.636Z</time></trkpt><trkpt lat="45.6655894" lon="11.7191777"><ele>58.25</ele><time>2026-04-09T15:51:17.634Z</time></trkpt><trkpt lat="45.665698" lon="11.7191149"><ele>58.5</ele><time>2026-04-09T15:51:18.644Z</time></trkpt><trkpt lat="45.6658232" lon="11.7190813"><ele>58.75</ele><time>2026-04-09T15:51:19.643Z</time></trkpt><trkpt lat="45.6659557" lon="11.7190258"><ele>59.0</ele><time>2026-04-09T15:51:20.637Z</time></trkpt><trkpt lat="45.6660918" lon="11.7189801"><ele>59.25</ele><time>2026-04-09T15:51:21.64Z</time></trkpt><trkpt lat="45.6662198" lon="11.7189343"><ele>59.5</ele><time>2026-04-09T15:51:22.633Z</time></trkpt><trkpt lat="45.666356" lon="11.7188781"><ele>59.75</ele><time>2026-04-09T15:51:23.649Z</time></trkpt><trkpt lat="45.6664931" lon="11.7188287"><ele>60.0</ele><time>2026-04-09T15:51:24.645Z</time></trkpt><trkpt lat="45.6666229" lon="11.7187768"><ele>60.0</ele><time>2026-04-09T15:51:25.644Z</time></trkpt><trkpt lat="45.6667423" lon="11.718732"><ele>60.0</ele><time>2026-04-09T15:51:26.644Z</time></trkpt><trkpt lat="45.6668523" lon="11.7186928"><ele>60.0</ele><time>2026-04-09T15:51:27.652Z</time></trkpt><trkpt lat="45.6669488" lon="11.7186669"><ele>60.0</ele><time>2026-04-09T15:51:28.637Z</time></trkpt><trkpt lat="45.667034" lon="11.7186482"><ele>60.0</ele><time>2026-04-09T15:51:29.644Z</time></trkpt><trkpt lat="45.6671026" lon="11.7186682"><ele>60.4</ele><time>2026-04-09T15:51:30.654Z</time></trkpt><trkpt lat="45.6671556" lon="11.7187321"><ele>60.8</ele><time>2026-04-09T15:51:31.647Z</time></trkpt><trkpt lat="45.6671946" lon="11.7188434"><ele>61.2</ele><time>2026-04-09T15:51:32.643Z</time></trkpt><trkpt lat="45.6672269" lon="11.7189964"><ele>61.6</ele><time>2026-04-09T15:51:33.645Z</time></trkpt><trkpt lat="45.6672638" lon="11.7191721"><ele>62.0</ele><time>2026-04-09T15:51:34.653Z</time></trkpt><trkpt lat="45.6672971" lon="11.7193426"><ele>61.6</ele><time>2026-04-09T15:51:35.647Z</time></trkpt><trkpt lat="45.6673239" lon="11.7194932"><ele>61.2</ele><time>2026-04-09T15:51:36.637Z</time></trkpt><trkpt lat="45.6673465" lon="11.7196265"><ele>60.8</ele><time>2026-04-09T15:51:37.653Z</time></trkpt><trkpt lat="45.6673655" lon="11.7197399"><ele>60.4</ele><time>2026-04-09T15:51:38.649Z</time></trkpt><trkpt lat="45.6673961" lon="11.7198775"><ele>60.0</ele><time>2026-04-09T15:51:40.65Z</time></trkpt><trkpt lat="45.6674859" lon="11.7198922"><ele>60.0</ele><time>2026-04-09T15:51:42.647Z</time></trkpt><trkpt lat="45.6675609" lon="11.7197824"><ele>60.0</ele><time>2026-04-09T15:51:44.649Z</time></trkpt><trkpt lat="45.6675991" lon="11.7196532"><ele>60.0</ele><time>2026-04-09T15:51:46.636Z</time></trkpt><trkpt lat="45.6676855" lon="11.7195846"><ele>60.0</ele><time>2026-04-09T15:51:48.653Z</time></trkpt><trkpt lat="45.6678012" lon="11.719578"><ele>60.0</ele><time>2026-04-09T15:51:50.636Z</time></trkpt><trkpt lat="45.6678632" lon="11.7196421"><ele>62.0</ele><time>2026-04-09T15:51:52.648Z</time></trkpt><trkpt lat="45.6678631" lon="11.7197394"><ele>62.0</ele><time>2026-04-09T15:51:54.657Z</time></trkpt><trkpt lat="45.6678347" lon="11.7198457"><ele>62.0</ele><time>2026-04-09T15:52:13.648Z</time></trkpt><trkpt lat="45.6677722" lon="11.7197898"><ele>60.0</ele><time>2026-04-09T15:52:14.654Z</time></trkpt></trkseg></trk></gpx>